<?xml version="1.0" encoding="UTF-8" standalone="no" ?>
<gpx xmlns="http://www.topografix.com/GPX/1/1" xmlns:xsi="http://www.w3.org/2001/XMLSchema-instance" xsi:schemaLocation="http://www.topografix.com/GPX/1/1 http://www.topografix.com/GPX/1/1/gpx.xsd" version="1.1" creator="VisuGPX - https://www.visugpx.com">
  <metadata>
    <name>73 - Les Saisies : 2021-07-11</name>
  </metadata>
  <trk>
    <name><![CDATA[73 - Les Saisies : 2021-07-11_1]]></name>
    <trkseg>
      <trkpt lat="45.67686" lon="6.39372">
        <ele>308.2</ele>
        <time>2021-07-11T06:43:50Z</time>
      </trkpt>
      <trkpt lat="45.67678" lon="6.39368">
        <ele>308</ele>
        <time>2021-07-11T06:43:54Z</time>
      </trkpt>
      <trkpt lat="45.67672" lon="6.39364">
        <ele>308.2</ele>
        <time>2021-07-11T06:43:58Z</time>
      </trkpt>
      <trkpt lat="45.67665" lon="6.39362">
        <ele>308.6</ele>
        <time>2021-07-11T06:44:02Z</time>
      </trkpt>
      <trkpt lat="45.67658" lon="6.3936">
        <ele>309.8</ele>
        <time>2021-07-11T06:44:06Z</time>
      </trkpt>
      <trkpt lat="45.67641" lon="6.39366">
        <ele>310</ele>
        <time>2021-07-11T06:44:17Z</time>
      </trkpt>
      <trkpt lat="45.67638" lon="6.3938">
        <ele>310.6</ele>
        <time>2021-07-11T06:44:21Z</time>
      </trkpt>
      <trkpt lat="45.67635" lon="6.39397">
        <ele>310.6</ele>
        <time>2021-07-11T06:44:25Z</time>
      </trkpt>
      <trkpt lat="45.67632" lon="6.39416">
        <ele>311.2</ele>
        <time>2021-07-11T06:44:29Z</time>
      </trkpt>
      <trkpt lat="45.67629" lon="6.39436">
        <ele>311.6</ele>
        <time>2021-07-11T06:44:33Z</time>
      </trkpt>
      <trkpt lat="45.67625" lon="6.39457">
        <ele>310.6</ele>
        <time>2021-07-11T06:44:37Z</time>
      </trkpt>
      <trkpt lat="45.67621" lon="6.39477">
        <ele>310.2</ele>
        <time>2021-07-11T06:44:41Z</time>
      </trkpt>
      <trkpt lat="45.67614" lon="6.395">
        <ele>308.8</ele>
        <time>2021-07-11T06:44:45Z</time>
      </trkpt>
      <trkpt lat="45.67607" lon="6.39525">
        <ele>308.6</ele>
        <time>2021-07-11T06:44:49Z</time>
      </trkpt>
      <trkpt lat="45.67591" lon="6.39542">
        <ele>308.8</ele>
        <time>2021-07-11T06:44:53Z</time>
      </trkpt>
      <trkpt lat="45.6758" lon="6.39562">
        <ele>308.8</ele>
        <time>2021-07-11T06:44:57Z</time>
      </trkpt>
      <trkpt lat="45.6757" lon="6.39579">
        <ele>309.8</ele>
        <time>2021-07-11T06:45:01Z</time>
      </trkpt>
      <trkpt lat="45.67565" lon="6.39593">
        <ele>311</ele>
        <time>2021-07-11T06:45:05Z</time>
      </trkpt>
      <trkpt lat="45.67558" lon="6.396">
        <ele>311.8</ele>
        <time>2021-07-11T06:45:09Z</time>
      </trkpt>
      <trkpt lat="45.67555" lon="6.39608">
        <ele>312.8</ele>
        <time>2021-07-11T06:45:13Z</time>
      </trkpt>
      <trkpt lat="45.6755" lon="6.39615">
        <ele>314</ele>
        <time>2021-07-11T06:45:17Z</time>
      </trkpt>
      <trkpt lat="45.67544" lon="6.39621">
        <ele>314.2</ele>
        <time>2021-07-11T06:45:21Z</time>
      </trkpt>
      <trkpt lat="45.6754" lon="6.39627">
        <ele>315</ele>
        <time>2021-07-11T06:45:25Z</time>
      </trkpt>
      <trkpt lat="45.67536" lon="6.39634">
        <ele>315.6</ele>
        <time>2021-07-11T06:45:29Z</time>
      </trkpt>
      <trkpt lat="45.67534" lon="6.3964">
        <ele>316.4</ele>
        <time>2021-07-11T06:45:33Z</time>
      </trkpt>
      <trkpt lat="45.6753" lon="6.39646">
        <ele>317</ele>
        <time>2021-07-11T06:45:37Z</time>
      </trkpt>
      <trkpt lat="45.67526" lon="6.39652">
        <ele>318</ele>
        <time>2021-07-11T06:45:41Z</time>
      </trkpt>
      <trkpt lat="45.67522" lon="6.39659">
        <ele>318.8</ele>
        <time>2021-07-11T06:45:45Z</time>
      </trkpt>
      <trkpt lat="45.67517" lon="6.39665">
        <ele>319.2</ele>
        <time>2021-07-11T06:45:49Z</time>
      </trkpt>
      <trkpt lat="45.67512" lon="6.39671">
        <ele>320</ele>
        <time>2021-07-11T06:45:53Z</time>
      </trkpt>
      <trkpt lat="45.67505" lon="6.39676">
        <ele>320.6</ele>
        <time>2021-07-11T06:45:57Z</time>
      </trkpt>
      <trkpt lat="45.67498" lon="6.39682">
        <ele>322</ele>
        <time>2021-07-11T06:46:01Z</time>
      </trkpt>
      <trkpt lat="45.67494" lon="6.39686">
        <ele>322.4</ele>
        <time>2021-07-11T06:46:05Z</time>
      </trkpt>
      <trkpt lat="45.67488" lon="6.39689">
        <ele>323.4</ele>
        <time>2021-07-11T06:46:09Z</time>
      </trkpt>
      <trkpt lat="45.67482" lon="6.39692">
        <ele>323.6</ele>
        <time>2021-07-11T06:46:13Z</time>
      </trkpt>
      <trkpt lat="45.67476" lon="6.39695">
        <ele>324.8</ele>
        <time>2021-07-11T06:46:17Z</time>
      </trkpt>
      <trkpt lat="45.6747" lon="6.39695">
        <ele>325.8</ele>
        <time>2021-07-11T06:46:21Z</time>
      </trkpt>
      <trkpt lat="45.67465" lon="6.39696">
        <ele>326.6</ele>
        <time>2021-07-11T06:46:25Z</time>
      </trkpt>
      <trkpt lat="45.67459" lon="6.39701">
        <ele>327.4</ele>
        <time>2021-07-11T06:46:29Z</time>
      </trkpt>
      <trkpt lat="45.67454" lon="6.39701">
        <ele>328.6</ele>
        <time>2021-07-11T06:46:33Z</time>
      </trkpt>
      <trkpt lat="45.67448" lon="6.39703">
        <ele>329.2</ele>
        <time>2021-07-11T06:46:37Z</time>
      </trkpt>
      <trkpt lat="45.67442" lon="6.39707">
        <ele>330</ele>
        <time>2021-07-11T06:46:41Z</time>
      </trkpt>
      <trkpt lat="45.67436" lon="6.39709">
        <ele>330.8</ele>
        <time>2021-07-11T06:46:45Z</time>
      </trkpt>
      <trkpt lat="45.67431" lon="6.3971">
        <ele>331</ele>
        <time>2021-07-11T06:46:49Z</time>
      </trkpt>
      <trkpt lat="45.67425" lon="6.39712">
        <ele>332.4</ele>
        <time>2021-07-11T06:46:53Z</time>
      </trkpt>
      <trkpt lat="45.67418" lon="6.39712">
        <ele>332.8</ele>
        <time>2021-07-11T06:46:57Z</time>
      </trkpt>
      <trkpt lat="45.67411" lon="6.39712">
        <ele>333.8</ele>
        <time>2021-07-11T06:47:01Z</time>
      </trkpt>
      <trkpt lat="45.67404" lon="6.39712">
        <ele>334.6</ele>
        <time>2021-07-11T06:47:05Z</time>
      </trkpt>
      <trkpt lat="45.67398" lon="6.39711">
        <ele>335.2</ele>
        <time>2021-07-11T06:47:09Z</time>
      </trkpt>
      <trkpt lat="45.67391" lon="6.39712">
        <ele>335.4</ele>
        <time>2021-07-11T06:47:13Z</time>
      </trkpt>
      <trkpt lat="45.67385" lon="6.39713">
        <ele>336</ele>
        <time>2021-07-11T06:47:17Z</time>
      </trkpt>
      <trkpt lat="45.67378" lon="6.39715">
        <ele>337.2</ele>
        <time>2021-07-11T06:47:21Z</time>
      </trkpt>
      <trkpt lat="45.67371" lon="6.39717">
        <ele>338</ele>
        <time>2021-07-11T06:47:25Z</time>
      </trkpt>
      <trkpt lat="45.67364" lon="6.3972">
        <ele>339</ele>
        <time>2021-07-11T06:47:29Z</time>
      </trkpt>
      <trkpt lat="45.67357" lon="6.39721">
        <ele>338.8</ele>
        <time>2021-07-11T06:47:33Z</time>
      </trkpt>
      <trkpt lat="45.6735" lon="6.39723">
        <ele>339.8</ele>
        <time>2021-07-11T06:47:37Z</time>
      </trkpt>
      <trkpt lat="45.67344" lon="6.39722">
        <ele>340.6</ele>
        <time>2021-07-11T06:47:41Z</time>
      </trkpt>
      <trkpt lat="45.67339" lon="6.39719">
        <ele>341.2</ele>
        <time>2021-07-11T06:47:45Z</time>
      </trkpt>
      <trkpt lat="45.67334" lon="6.39714">
        <ele>342</ele>
        <time>2021-07-11T06:47:49Z</time>
      </trkpt>
      <trkpt lat="45.67328" lon="6.39709">
        <ele>342.8</ele>
        <time>2021-07-11T06:47:53Z</time>
      </trkpt>
      <trkpt lat="45.67324" lon="6.39702">
        <ele>343.4</ele>
        <time>2021-07-11T06:47:57Z</time>
      </trkpt>
      <trkpt lat="45.67318" lon="6.39697">
        <ele>343.8</ele>
        <time>2021-07-11T06:48:01Z</time>
      </trkpt>
      <trkpt lat="45.67313" lon="6.39691">
        <ele>344.6</ele>
        <time>2021-07-11T06:48:05Z</time>
      </trkpt>
      <trkpt lat="45.67308" lon="6.39685">
        <ele>345.2</ele>
        <time>2021-07-11T06:48:09Z</time>
      </trkpt>
      <trkpt lat="45.67302" lon="6.39679">
        <ele>346.2</ele>
        <time>2021-07-11T06:48:13Z</time>
      </trkpt>
      <trkpt lat="45.67298" lon="6.39674">
        <ele>347.2</ele>
        <time>2021-07-11T06:48:17Z</time>
      </trkpt>
      <trkpt lat="45.67293" lon="6.39669">
        <ele>348.2</ele>
        <time>2021-07-11T06:48:21Z</time>
      </trkpt>
      <trkpt lat="45.67288" lon="6.39663">
        <ele>348</ele>
        <time>2021-07-11T06:48:25Z</time>
      </trkpt>
      <trkpt lat="45.67284" lon="6.39657">
        <ele>349</ele>
        <time>2021-07-11T06:48:29Z</time>
      </trkpt>
      <trkpt lat="45.67281" lon="6.39652">
        <ele>349.6</ele>
        <time>2021-07-11T06:48:33Z</time>
      </trkpt>
      <trkpt lat="45.67279" lon="6.39648">
        <ele>350.6</ele>
        <time>2021-07-11T06:48:37Z</time>
      </trkpt>
      <trkpt lat="45.67275" lon="6.39644">
        <ele>351.4</ele>
        <time>2021-07-11T06:48:41Z</time>
      </trkpt>
      <trkpt lat="45.67269" lon="6.39643">
        <ele>352.4</ele>
        <time>2021-07-11T06:48:45Z</time>
      </trkpt>
      <trkpt lat="45.67264" lon="6.39642">
        <ele>352.8</ele>
        <time>2021-07-11T06:48:49Z</time>
      </trkpt>
      <trkpt lat="45.67259" lon="6.3964">
        <ele>353.8</ele>
        <time>2021-07-11T06:48:53Z</time>
      </trkpt>
      <trkpt lat="45.67254" lon="6.39642">
        <ele>354</ele>
        <time>2021-07-11T06:48:57Z</time>
      </trkpt>
      <trkpt lat="45.67249" lon="6.39644">
        <ele>355.2</ele>
        <time>2021-07-11T06:49:01Z</time>
      </trkpt>
      <trkpt lat="45.67246" lon="6.39648">
        <ele>355.6</ele>
        <time>2021-07-11T06:49:05Z</time>
      </trkpt>
      <trkpt lat="45.67242" lon="6.39657">
        <ele>356.2</ele>
        <time>2021-07-11T06:49:09Z</time>
      </trkpt>
      <trkpt lat="45.6724" lon="6.39666">
        <ele>357</ele>
        <time>2021-07-11T06:49:13Z</time>
      </trkpt>
      <trkpt lat="45.67242" lon="6.39675">
        <ele>357.8</ele>
        <time>2021-07-11T06:49:17Z</time>
      </trkpt>
      <trkpt lat="45.67244" lon="6.39682">
        <ele>358.6</ele>
        <time>2021-07-11T06:49:21Z</time>
      </trkpt>
      <trkpt lat="45.67246" lon="6.3969">
        <ele>358.8</ele>
        <time>2021-07-11T06:49:25Z</time>
      </trkpt>
      <trkpt lat="45.67247" lon="6.39697">
        <ele>359.6</ele>
        <time>2021-07-11T06:49:29Z</time>
      </trkpt>
      <trkpt lat="45.67249" lon="6.39705">
        <ele>360.8</ele>
        <time>2021-07-11T06:49:33Z</time>
      </trkpt>
      <trkpt lat="45.6725" lon="6.39713">
        <ele>361.8</ele>
        <time>2021-07-11T06:49:37Z</time>
      </trkpt>
      <trkpt lat="45.67252" lon="6.39721">
        <ele>362.2</ele>
        <time>2021-07-11T06:49:41Z</time>
      </trkpt>
      <trkpt lat="45.67252" lon="6.39727">
        <ele>363.2</ele>
        <time>2021-07-11T06:49:45Z</time>
      </trkpt>
      <trkpt lat="45.67251" lon="6.39733">
        <ele>363.4</ele>
        <time>2021-07-11T06:49:49Z</time>
      </trkpt>
      <trkpt lat="45.6725" lon="6.3974">
        <ele>363.4</ele>
        <time>2021-07-11T06:49:53Z</time>
      </trkpt>
      <trkpt lat="45.67255" lon="6.39747">
        <ele>363.4</ele>
        <time>2021-07-11T06:49:57Z</time>
      </trkpt>
      <trkpt lat="45.6726" lon="6.39756">
        <ele>363.4</ele>
        <time>2021-07-11T06:50:01Z</time>
      </trkpt>
      <trkpt lat="45.67264" lon="6.39766">
        <ele>363.2</ele>
        <time>2021-07-11T06:50:05Z</time>
      </trkpt>
      <trkpt lat="45.67267" lon="6.39778">
        <ele>363.6</ele>
        <time>2021-07-11T06:50:09Z</time>
      </trkpt>
      <trkpt lat="45.67264" lon="6.39788">
        <ele>363.8</ele>
        <time>2021-07-11T06:50:13Z</time>
      </trkpt>
      <trkpt lat="45.67261" lon="6.39798">
        <ele>364.4</ele>
        <time>2021-07-11T06:50:17Z</time>
      </trkpt>
      <trkpt lat="45.67258" lon="6.39808">
        <ele>365.4</ele>
        <time>2021-07-11T06:50:21Z</time>
      </trkpt>
      <trkpt lat="45.67255" lon="6.39814">
        <ele>366</ele>
        <time>2021-07-11T06:50:25Z</time>
      </trkpt>
      <trkpt lat="45.67252" lon="6.39822">
        <ele>366.6</ele>
        <time>2021-07-11T06:50:29Z</time>
      </trkpt>
      <trkpt lat="45.67253" lon="6.3983">
        <ele>367.8</ele>
        <time>2021-07-11T06:50:33Z</time>
      </trkpt>
      <trkpt lat="45.6725" lon="6.39839">
        <ele>368.4</ele>
        <time>2021-07-11T06:50:37Z</time>
      </trkpt>
      <trkpt lat="45.67251" lon="6.39849">
        <ele>369</ele>
        <time>2021-07-11T06:50:41Z</time>
      </trkpt>
      <trkpt lat="45.67251" lon="6.39858">
        <ele>369.4</ele>
        <time>2021-07-11T06:50:45Z</time>
      </trkpt>
      <trkpt lat="45.67256" lon="6.39864">
        <ele>370.2</ele>
        <time>2021-07-11T06:50:49Z</time>
      </trkpt>
      <trkpt lat="45.6726" lon="6.39869">
        <ele>370.8</ele>
        <time>2021-07-11T06:50:53Z</time>
      </trkpt>
      <trkpt lat="45.6737" lon="6.39867">
        <ele>371.8</ele>
        <time>2021-07-11T06:52:03Z</time>
      </trkpt>
      <trkpt lat="45.67359" lon="6.39869">
        <ele>372.6</ele>
        <time>2021-07-11T06:52:07Z</time>
      </trkpt>
      <trkpt lat="45.67362" lon="6.3987">
        <ele>373.4</ele>
        <time>2021-07-11T06:52:11Z</time>
      </trkpt>
      <trkpt lat="45.67349" lon="6.39869">
        <ele>373.8</ele>
        <time>2021-07-11T06:52:15Z</time>
      </trkpt>
      <trkpt lat="45.67347" lon="6.39865">
        <ele>374.8</ele>
        <time>2021-07-11T06:52:19Z</time>
      </trkpt>
      <trkpt lat="45.67347" lon="6.39861">
        <ele>375.4</ele>
        <time>2021-07-11T06:52:23Z</time>
      </trkpt>
      <trkpt lat="45.67325" lon="6.39857">
        <ele>376.2</ele>
        <time>2021-07-11T06:52:27Z</time>
      </trkpt>
      <trkpt lat="45.67326" lon="6.39859">
        <ele>376.8</ele>
        <time>2021-07-11T06:52:31Z</time>
      </trkpt>
      <trkpt lat="45.67332" lon="6.39862">
        <ele>377.6</ele>
        <time>2021-07-11T06:52:35Z</time>
      </trkpt>
      <trkpt lat="45.67338" lon="6.39865">
        <ele>378.8</ele>
        <time>2021-07-11T06:52:39Z</time>
      </trkpt>
      <trkpt lat="45.67346" lon="6.39865">
        <ele>379.6</ele>
        <time>2021-07-11T06:52:43Z</time>
      </trkpt>
      <trkpt lat="45.67352" lon="6.39863">
        <ele>380.4</ele>
        <time>2021-07-11T06:52:47Z</time>
      </trkpt>
      <trkpt lat="45.6736" lon="6.3986">
        <ele>380.6</ele>
        <time>2021-07-11T06:52:51Z</time>
      </trkpt>
      <trkpt lat="45.67366" lon="6.3986">
        <ele>381.6</ele>
        <time>2021-07-11T06:52:55Z</time>
      </trkpt>
      <trkpt lat="45.67375" lon="6.39861">
        <ele>381.6</ele>
        <time>2021-07-11T06:52:59Z</time>
      </trkpt>
      <trkpt lat="45.67383" lon="6.39864">
        <ele>382.8</ele>
        <time>2021-07-11T06:53:03Z</time>
      </trkpt>
      <trkpt lat="45.67391" lon="6.39868">
        <ele>383</ele>
        <time>2021-07-11T06:53:07Z</time>
      </trkpt>
      <trkpt lat="45.674" lon="6.39874">
        <ele>383</ele>
        <time>2021-07-11T06:53:11Z</time>
      </trkpt>
      <trkpt lat="45.67409" lon="6.39881">
        <ele>384.2</ele>
        <time>2021-07-11T06:53:15Z</time>
      </trkpt>
      <trkpt lat="45.67412" lon="6.39891">
        <ele>385.2</ele>
        <time>2021-07-11T06:53:19Z</time>
      </trkpt>
      <trkpt lat="45.67407" lon="6.39895">
        <ele>386</ele>
        <time>2021-07-11T06:53:23Z</time>
      </trkpt>
      <trkpt lat="45.674" lon="6.39891">
        <ele>387.4</ele>
        <time>2021-07-11T06:53:27Z</time>
      </trkpt>
      <trkpt lat="45.67395" lon="6.39884">
        <ele>387.6</ele>
        <time>2021-07-11T06:53:31Z</time>
      </trkpt>
      <trkpt lat="45.67389" lon="6.39877">
        <ele>388.6</ele>
        <time>2021-07-11T06:53:35Z</time>
      </trkpt>
      <trkpt lat="45.6738" lon="6.39873">
        <ele>389.8</ele>
        <time>2021-07-11T06:53:39Z</time>
      </trkpt>
      <trkpt lat="45.67375" lon="6.3987">
        <ele>390.6</ele>
        <time>2021-07-11T06:53:43Z</time>
      </trkpt>
      <trkpt lat="45.67367" lon="6.39869">
        <ele>391.4</ele>
        <time>2021-07-11T06:53:47Z</time>
      </trkpt>
      <trkpt lat="45.67362" lon="6.39873">
        <ele>391.8</ele>
        <time>2021-07-11T06:53:51Z</time>
      </trkpt>
      <trkpt lat="45.67356" lon="6.39876">
        <ele>392.8</ele>
        <time>2021-07-11T06:53:55Z</time>
      </trkpt>
      <trkpt lat="45.67351" lon="6.39881">
        <ele>393.4</ele>
        <time>2021-07-11T06:53:59Z</time>
      </trkpt>
      <trkpt lat="45.67347" lon="6.39884">
        <ele>394.6</ele>
        <time>2021-07-11T06:54:03Z</time>
      </trkpt>
      <trkpt lat="45.67345" lon="6.3989">
        <ele>395.2</ele>
        <time>2021-07-11T06:54:07Z</time>
      </trkpt>
      <trkpt lat="45.67343" lon="6.39896">
        <ele>396</ele>
        <time>2021-07-11T06:54:11Z</time>
      </trkpt>
      <trkpt lat="45.6734" lon="6.39902">
        <ele>396.8</ele>
        <time>2021-07-11T06:54:15Z</time>
      </trkpt>
      <trkpt lat="45.67335" lon="6.39907">
        <ele>397</ele>
        <time>2021-07-11T06:54:19Z</time>
      </trkpt>
      <trkpt lat="45.6733" lon="6.39911">
        <ele>397.8</ele>
        <time>2021-07-11T06:54:23Z</time>
      </trkpt>
      <trkpt lat="45.67326" lon="6.39915">
        <ele>398</ele>
        <time>2021-07-11T06:54:27Z</time>
      </trkpt>
      <trkpt lat="45.67323" lon="6.39921">
        <ele>399</ele>
        <time>2021-07-11T06:54:31Z</time>
      </trkpt>
      <trkpt lat="45.67321" lon="6.39928">
        <ele>399.6</ele>
        <time>2021-07-11T06:54:35Z</time>
      </trkpt>
      <trkpt lat="45.67315" lon="6.39935">
        <ele>400.6</ele>
        <time>2021-07-11T06:54:39Z</time>
      </trkpt>
      <trkpt lat="45.67311" lon="6.39942">
        <ele>401.2</ele>
        <time>2021-07-11T06:54:43Z</time>
      </trkpt>
      <trkpt lat="45.67309" lon="6.39952">
        <ele>401.8</ele>
        <time>2021-07-11T06:54:47Z</time>
      </trkpt>
      <trkpt lat="45.67308" lon="6.3996">
        <ele>402.4</ele>
        <time>2021-07-11T06:54:51Z</time>
      </trkpt>
      <trkpt lat="45.67308" lon="6.39969">
        <ele>403.4</ele>
        <time>2021-07-11T06:54:55Z</time>
      </trkpt>
      <trkpt lat="45.6731" lon="6.39978">
        <ele>404.6</ele>
        <time>2021-07-11T06:54:59Z</time>
      </trkpt>
      <trkpt lat="45.67311" lon="6.39987">
        <ele>405</ele>
        <time>2021-07-11T06:55:03Z</time>
      </trkpt>
      <trkpt lat="45.67313" lon="6.39995">
        <ele>405.8</ele>
        <time>2021-07-11T06:55:07Z</time>
      </trkpt>
      <trkpt lat="45.67315" lon="6.40002">
        <ele>406.6</ele>
        <time>2021-07-11T06:55:11Z</time>
      </trkpt>
      <trkpt lat="45.67317" lon="6.4001">
        <ele>407.2</ele>
        <time>2021-07-11T06:55:15Z</time>
      </trkpt>
      <trkpt lat="45.67321" lon="6.40018">
        <ele>408</ele>
        <time>2021-07-11T06:55:19Z</time>
      </trkpt>
      <trkpt lat="45.67326" lon="6.40023">
        <ele>408.8</ele>
        <time>2021-07-11T06:55:23Z</time>
      </trkpt>
      <trkpt lat="45.67329" lon="6.40029">
        <ele>410</ele>
        <time>2021-07-11T06:55:27Z</time>
      </trkpt>
      <trkpt lat="45.67332" lon="6.40037">
        <ele>410.2</ele>
        <time>2021-07-11T06:55:31Z</time>
      </trkpt>
      <trkpt lat="45.67336" lon="6.40042">
        <ele>411.4</ele>
        <time>2021-07-11T06:55:35Z</time>
      </trkpt>
      <trkpt lat="45.67336" lon="6.40051">
        <ele>412.4</ele>
        <time>2021-07-11T06:55:39Z</time>
      </trkpt>
      <trkpt lat="45.67337" lon="6.40059">
        <ele>413.2</ele>
        <time>2021-07-11T06:55:43Z</time>
      </trkpt>
      <trkpt lat="45.67337" lon="6.40068">
        <ele>414</ele>
        <time>2021-07-11T06:55:47Z</time>
      </trkpt>
      <trkpt lat="45.67334" lon="6.40075">
        <ele>414.8</ele>
        <time>2021-07-11T06:55:51Z</time>
      </trkpt>
      <trkpt lat="45.67327" lon="6.40078">
        <ele>415.4</ele>
        <time>2021-07-11T06:55:55Z</time>
      </trkpt>
      <trkpt lat="45.67322" lon="6.40082">
        <ele>416</ele>
        <time>2021-07-11T06:55:59Z</time>
      </trkpt>
      <trkpt lat="45.67316" lon="6.40083">
        <ele>417</ele>
        <time>2021-07-11T06:56:03Z</time>
      </trkpt>
      <trkpt lat="45.67311" lon="6.40084">
        <ele>417.8</ele>
        <time>2021-07-11T06:56:07Z</time>
      </trkpt>
      <trkpt lat="45.67306" lon="6.40086">
        <ele>418.8</ele>
        <time>2021-07-11T06:56:11Z</time>
      </trkpt>
      <trkpt lat="45.673" lon="6.40087">
        <ele>419.4</ele>
        <time>2021-07-11T06:56:15Z</time>
      </trkpt>
      <trkpt lat="45.67294" lon="6.40089">
        <ele>420</ele>
        <time>2021-07-11T06:56:19Z</time>
      </trkpt>
      <trkpt lat="45.67287" lon="6.40093">
        <ele>420.2</ele>
        <time>2021-07-11T06:56:23Z</time>
      </trkpt>
      <trkpt lat="45.67282" lon="6.40099">
        <ele>421.2</ele>
        <time>2021-07-11T06:56:27Z</time>
      </trkpt>
      <trkpt lat="45.6728" lon="6.40109">
        <ele>421.8</ele>
        <time>2021-07-11T06:56:31Z</time>
      </trkpt>
      <trkpt lat="45.67282" lon="6.40119">
        <ele>421.6</ele>
        <time>2021-07-11T06:56:35Z</time>
      </trkpt>
      <trkpt lat="45.6729" lon="6.40129">
        <ele>422</ele>
        <time>2021-07-11T06:58:30Z</time>
      </trkpt>
      <trkpt lat="45.673" lon="6.40128">
        <ele>422.4</ele>
        <time>2021-07-11T06:58:34Z</time>
      </trkpt>
      <trkpt lat="45.6731" lon="6.40127">
        <ele>422.6</ele>
        <time>2021-07-11T06:58:38Z</time>
      </trkpt>
      <trkpt lat="45.67321" lon="6.40124">
        <ele>422.8</ele>
        <time>2021-07-11T06:58:42Z</time>
      </trkpt>
      <trkpt lat="45.6733" lon="6.4012">
        <ele>423.4</ele>
        <time>2021-07-11T06:58:46Z</time>
      </trkpt>
      <trkpt lat="45.67337" lon="6.40113">
        <ele>424.4</ele>
        <time>2021-07-11T06:58:50Z</time>
      </trkpt>
      <trkpt lat="45.67347" lon="6.40108">
        <ele>425.2</ele>
        <time>2021-07-11T06:58:54Z</time>
      </trkpt>
      <trkpt lat="45.67355" lon="6.40098">
        <ele>425.6</ele>
        <time>2021-07-11T06:58:58Z</time>
      </trkpt>
      <trkpt lat="45.67363" lon="6.40087">
        <ele>426</ele>
        <time>2021-07-11T06:59:02Z</time>
      </trkpt>
      <trkpt lat="45.67369" lon="6.40077">
        <ele>426.6</ele>
        <time>2021-07-11T06:59:06Z</time>
      </trkpt>
      <trkpt lat="45.67376" lon="6.40069">
        <ele>427.2</ele>
        <time>2021-07-11T06:59:10Z</time>
      </trkpt>
      <trkpt lat="45.67384" lon="6.40063">
        <ele>427.6</ele>
        <time>2021-07-11T06:59:14Z</time>
      </trkpt>
      <trkpt lat="45.67393" lon="6.40056">
        <ele>428.4</ele>
        <time>2021-07-11T06:59:18Z</time>
      </trkpt>
      <trkpt lat="45.67402" lon="6.40053">
        <ele>429</ele>
        <time>2021-07-11T06:59:22Z</time>
      </trkpt>
      <trkpt lat="45.67409" lon="6.40044">
        <ele>429.4</ele>
        <time>2021-07-11T06:59:26Z</time>
      </trkpt>
      <trkpt lat="45.67417" lon="6.40041">
        <ele>429.8</ele>
        <time>2021-07-11T06:59:30Z</time>
      </trkpt>
      <trkpt lat="45.67425" lon="6.40038">
        <ele>430.8</ele>
        <time>2021-07-11T06:59:34Z</time>
      </trkpt>
      <trkpt lat="45.67435" lon="6.40034">
        <ele>431.6</ele>
        <time>2021-07-11T06:59:38Z</time>
      </trkpt>
      <trkpt lat="45.67445" lon="6.4003">
        <ele>432</ele>
        <time>2021-07-11T06:59:42Z</time>
      </trkpt>
      <trkpt lat="45.67455" lon="6.4003">
        <ele>432.2</ele>
        <time>2021-07-11T06:59:46Z</time>
      </trkpt>
      <trkpt lat="45.67465" lon="6.40032">
        <ele>433</ele>
        <time>2021-07-11T06:59:50Z</time>
      </trkpt>
      <trkpt lat="45.67471" lon="6.40039">
        <ele>432.8</ele>
        <time>2021-07-11T06:59:54Z</time>
      </trkpt>
      <trkpt lat="45.6748" lon="6.40045">
        <ele>433.4</ele>
        <time>2021-07-11T06:59:58Z</time>
      </trkpt>
      <trkpt lat="45.67489" lon="6.40051">
        <ele>433.4</ele>
        <time>2021-07-11T07:00:02Z</time>
      </trkpt>
      <trkpt lat="45.67499" lon="6.40058">
        <ele>433.6</ele>
        <time>2021-07-11T07:00:06Z</time>
      </trkpt>
      <trkpt lat="45.67508" lon="6.40064">
        <ele>433.8</ele>
        <time>2021-07-11T07:00:10Z</time>
      </trkpt>
      <trkpt lat="45.67518" lon="6.4007">
        <ele>434</ele>
        <time>2021-07-11T07:00:14Z</time>
      </trkpt>
      <trkpt lat="45.6753" lon="6.40076">
        <ele>434.2</ele>
        <time>2021-07-11T07:00:18Z</time>
      </trkpt>
      <trkpt lat="45.67541" lon="6.40083">
        <ele>434.6</ele>
        <time>2021-07-11T07:00:22Z</time>
      </trkpt>
      <trkpt lat="45.67549" lon="6.40094">
        <ele>435</ele>
        <time>2021-07-11T07:00:26Z</time>
      </trkpt>
      <trkpt lat="45.67557" lon="6.40104">
        <ele>435.6</ele>
        <time>2021-07-11T07:00:30Z</time>
      </trkpt>
      <trkpt lat="45.67565" lon="6.40115">
        <ele>436.8</ele>
        <time>2021-07-11T07:00:34Z</time>
      </trkpt>
      <trkpt lat="45.67573" lon="6.4012">
        <ele>437.4</ele>
        <time>2021-07-11T07:00:38Z</time>
      </trkpt>
      <trkpt lat="45.6758" lon="6.40126">
        <ele>438.2</ele>
        <time>2021-07-11T07:00:42Z</time>
      </trkpt>
      <trkpt lat="45.67586" lon="6.4013">
        <ele>438.8</ele>
        <time>2021-07-11T07:00:46Z</time>
      </trkpt>
      <trkpt lat="45.67594" lon="6.40133">
        <ele>439.4</ele>
        <time>2021-07-11T07:00:50Z</time>
      </trkpt>
      <trkpt lat="45.67601" lon="6.40136">
        <ele>440.6</ele>
        <time>2021-07-11T07:00:54Z</time>
      </trkpt>
      <trkpt lat="45.67607" lon="6.4014">
        <ele>441.2</ele>
        <time>2021-07-11T07:00:58Z</time>
      </trkpt>
      <trkpt lat="45.67613" lon="6.40144">
        <ele>441.2</ele>
        <time>2021-07-11T07:01:02Z</time>
      </trkpt>
      <trkpt lat="45.6762" lon="6.40149">
        <ele>442.4</ele>
        <time>2021-07-11T07:01:06Z</time>
      </trkpt>
      <trkpt lat="45.67625" lon="6.40156">
        <ele>443.2</ele>
        <time>2021-07-11T07:01:10Z</time>
      </trkpt>
      <trkpt lat="45.6763" lon="6.40163">
        <ele>443.8</ele>
        <time>2021-07-11T07:01:14Z</time>
      </trkpt>
      <trkpt lat="45.67635" lon="6.40171">
        <ele>443.8</ele>
        <time>2021-07-11T07:01:18Z</time>
      </trkpt>
      <trkpt lat="45.67639" lon="6.4018">
        <ele>444.8</ele>
        <time>2021-07-11T07:01:22Z</time>
      </trkpt>
      <trkpt lat="45.67642" lon="6.40188">
        <ele>445.2</ele>
        <time>2021-07-11T07:01:26Z</time>
      </trkpt>
      <trkpt lat="45.67647" lon="6.40196">
        <ele>446.2</ele>
        <time>2021-07-11T07:01:30Z</time>
      </trkpt>
      <trkpt lat="45.67653" lon="6.40203">
        <ele>446.6</ele>
        <time>2021-07-11T07:01:34Z</time>
      </trkpt>
      <trkpt lat="45.6766" lon="6.40209">
        <ele>447.2</ele>
        <time>2021-07-11T07:01:38Z</time>
      </trkpt>
      <trkpt lat="45.67666" lon="6.40215">
        <ele>448.4</ele>
        <time>2021-07-11T07:01:42Z</time>
      </trkpt>
      <trkpt lat="45.67672" lon="6.40221">
        <ele>449</ele>
        <time>2021-07-11T07:01:46Z</time>
      </trkpt>
      <trkpt lat="45.67678" lon="6.40228">
        <ele>449.2</ele>
        <time>2021-07-11T07:01:50Z</time>
      </trkpt>
      <trkpt lat="45.67684" lon="6.40234">
        <ele>450.4</ele>
        <time>2021-07-11T07:01:54Z</time>
      </trkpt>
      <trkpt lat="45.67691" lon="6.40241">
        <ele>450.6</ele>
        <time>2021-07-11T07:01:58Z</time>
      </trkpt>
      <trkpt lat="45.67697" lon="6.40249">
        <ele>451.6</ele>
        <time>2021-07-11T07:02:02Z</time>
      </trkpt>
      <trkpt lat="45.67701" lon="6.40257">
        <ele>452.2</ele>
        <time>2021-07-11T07:02:06Z</time>
      </trkpt>
      <trkpt lat="45.67705" lon="6.40263">
        <ele>453.2</ele>
        <time>2021-07-11T07:02:10Z</time>
      </trkpt>
      <trkpt lat="45.6771" lon="6.4027">
        <ele>453.6</ele>
        <time>2021-07-11T07:02:14Z</time>
      </trkpt>
      <trkpt lat="45.67714" lon="6.40277">
        <ele>454.8</ele>
        <time>2021-07-11T07:02:18Z</time>
      </trkpt>
      <trkpt lat="45.67721" lon="6.40283">
        <ele>454.8</ele>
        <time>2021-07-11T07:02:22Z</time>
      </trkpt>
      <trkpt lat="45.67726" lon="6.40289">
        <ele>456.2</ele>
        <time>2021-07-11T07:02:26Z</time>
      </trkpt>
      <trkpt lat="45.67733" lon="6.40296">
        <ele>457.2</ele>
        <time>2021-07-11T07:02:30Z</time>
      </trkpt>
      <trkpt lat="45.67739" lon="6.40302">
        <ele>456.8</ele>
        <time>2021-07-11T07:02:34Z</time>
      </trkpt>
      <trkpt lat="45.67747" lon="6.40309">
        <ele>457.6</ele>
        <time>2021-07-11T07:02:38Z</time>
      </trkpt>
      <trkpt lat="45.67754" lon="6.40316">
        <ele>458.4</ele>
        <time>2021-07-11T07:02:42Z</time>
      </trkpt>
      <trkpt lat="45.67761" lon="6.40325">
        <ele>458.8</ele>
        <time>2021-07-11T07:02:46Z</time>
      </trkpt>
      <trkpt lat="45.67766" lon="6.40332">
        <ele>460.2</ele>
        <time>2021-07-11T07:02:50Z</time>
      </trkpt>
      <trkpt lat="45.67771" lon="6.4034">
        <ele>460.8</ele>
        <time>2021-07-11T07:02:54Z</time>
      </trkpt>
      <trkpt lat="45.67777" lon="6.40347">
        <ele>462.2</ele>
        <time>2021-07-11T07:02:58Z</time>
      </trkpt>
      <trkpt lat="45.67781" lon="6.40353">
        <ele>462.2</ele>
        <time>2021-07-11T07:03:02Z</time>
      </trkpt>
      <trkpt lat="45.67788" lon="6.4036">
        <ele>463</ele>
        <time>2021-07-11T07:03:06Z</time>
      </trkpt>
      <trkpt lat="45.67793" lon="6.40367">
        <ele>463.8</ele>
        <time>2021-07-11T07:03:10Z</time>
      </trkpt>
      <trkpt lat="45.67798" lon="6.40375">
        <ele>464.6</ele>
        <time>2021-07-11T07:03:14Z</time>
      </trkpt>
      <trkpt lat="45.67802" lon="6.40384">
        <ele>464.6</ele>
        <time>2021-07-11T07:03:18Z</time>
      </trkpt>
      <trkpt lat="45.67808" lon="6.40393">
        <ele>466</ele>
        <time>2021-07-11T07:03:22Z</time>
      </trkpt>
      <trkpt lat="45.67812" lon="6.40399">
        <ele>466.6</ele>
        <time>2021-07-11T07:03:26Z</time>
      </trkpt>
      <trkpt lat="45.67819" lon="6.40408">
        <ele>466.6</ele>
        <time>2021-07-11T07:03:30Z</time>
      </trkpt>
      <trkpt lat="45.67825" lon="6.40413">
        <ele>467.4</ele>
        <time>2021-07-11T07:03:34Z</time>
      </trkpt>
      <trkpt lat="45.6783" lon="6.40412">
        <ele>468.2</ele>
        <time>2021-07-11T07:03:38Z</time>
      </trkpt>
      <trkpt lat="45.67835" lon="6.40411">
        <ele>468.8</ele>
        <time>2021-07-11T07:03:42Z</time>
      </trkpt>
      <trkpt lat="45.6784" lon="6.40407">
        <ele>470</ele>
        <time>2021-07-11T07:03:46Z</time>
      </trkpt>
      <trkpt lat="45.67847" lon="6.40405">
        <ele>470</ele>
        <time>2021-07-11T07:03:50Z</time>
      </trkpt>
      <trkpt lat="45.67854" lon="6.40407">
        <ele>471.2</ele>
        <time>2021-07-11T07:03:54Z</time>
      </trkpt>
      <trkpt lat="45.6786" lon="6.40414">
        <ele>471.6</ele>
        <time>2021-07-11T07:03:58Z</time>
      </trkpt>
      <trkpt lat="45.67866" lon="6.40422">
        <ele>472</ele>
        <time>2021-07-11T07:04:02Z</time>
      </trkpt>
      <trkpt lat="45.67874" lon="6.4043">
        <ele>472.6</ele>
        <time>2021-07-11T07:04:06Z</time>
      </trkpt>
      <trkpt lat="45.67879" lon="6.4044">
        <ele>472.6</ele>
        <time>2021-07-11T07:04:10Z</time>
      </trkpt>
      <trkpt lat="45.67883" lon="6.40451">
        <ele>473.4</ele>
        <time>2021-07-11T07:04:14Z</time>
      </trkpt>
      <trkpt lat="45.67887" lon="6.40462">
        <ele>474.4</ele>
        <time>2021-07-11T07:04:18Z</time>
      </trkpt>
      <trkpt lat="45.67888" lon="6.40475">
        <ele>474.8</ele>
        <time>2021-07-11T07:04:22Z</time>
      </trkpt>
      <trkpt lat="45.67891" lon="6.40487">
        <ele>474.6</ele>
        <time>2021-07-11T07:04:26Z</time>
      </trkpt>
      <trkpt lat="45.67894" lon="6.40496">
        <ele>475.2</ele>
        <time>2021-07-11T07:04:30Z</time>
      </trkpt>
      <trkpt lat="45.67902" lon="6.40497">
        <ele>475.2</ele>
        <time>2021-07-11T07:04:34Z</time>
      </trkpt>
      <trkpt lat="45.67912" lon="6.40499">
        <ele>475</ele>
        <time>2021-07-11T07:04:38Z</time>
      </trkpt>
      <trkpt lat="45.67922" lon="6.40496">
        <ele>474.8</ele>
        <time>2021-07-11T07:04:42Z</time>
      </trkpt>
      <trkpt lat="45.67931" lon="6.4049">
        <ele>474.8</ele>
        <time>2021-07-11T07:04:46Z</time>
      </trkpt>
      <trkpt lat="45.67939" lon="6.4048">
        <ele>474.4</ele>
        <time>2021-07-11T07:04:50Z</time>
      </trkpt>
      <trkpt lat="45.67948" lon="6.40474">
        <ele>473.6</ele>
        <time>2021-07-11T07:04:54Z</time>
      </trkpt>
      <trkpt lat="45.67958" lon="6.40472">
        <ele>474.2</ele>
        <time>2021-07-11T07:04:58Z</time>
      </trkpt>
      <trkpt lat="45.6796" lon="6.40464">
        <ele>474.2</ele>
        <time>2021-07-11T07:05:27Z</time>
      </trkpt>
      <trkpt lat="45.6795" lon="6.40466">
        <ele>474.4</ele>
        <time>2021-07-11T07:05:31Z</time>
      </trkpt>
      <trkpt lat="45.67941" lon="6.40473">
        <ele>474.6</ele>
        <time>2021-07-11T07:05:35Z</time>
      </trkpt>
      <trkpt lat="45.67934" lon="6.40482">
        <ele>475.6</ele>
        <time>2021-07-11T07:05:39Z</time>
      </trkpt>
      <trkpt lat="45.67924" lon="6.4049">
        <ele>474.6</ele>
        <time>2021-07-11T07:05:43Z</time>
      </trkpt>
      <trkpt lat="45.67912" lon="6.40494">
        <ele>474.6</ele>
        <time>2021-07-11T07:05:47Z</time>
      </trkpt>
      <trkpt lat="45.67901" lon="6.40495">
        <ele>475</ele>
        <time>2021-07-11T07:05:51Z</time>
      </trkpt>
      <trkpt lat="45.67891" lon="6.40502">
        <ele>475.4</ele>
        <time>2021-07-11T07:05:55Z</time>
      </trkpt>
      <trkpt lat="45.67883" lon="6.40512">
        <ele>476.4</ele>
        <time>2021-07-11T07:05:59Z</time>
      </trkpt>
      <trkpt lat="45.67872" lon="6.40513">
        <ele>476.6</ele>
        <time>2021-07-11T07:06:03Z</time>
      </trkpt>
      <trkpt lat="45.67864" lon="6.40505">
        <ele>477.6</ele>
        <time>2021-07-11T07:06:07Z</time>
      </trkpt>
      <trkpt lat="45.67858" lon="6.40496">
        <ele>478</ele>
        <time>2021-07-11T07:06:11Z</time>
      </trkpt>
      <trkpt lat="45.6785" lon="6.40488">
        <ele>478.8</ele>
        <time>2021-07-11T07:06:15Z</time>
      </trkpt>
      <trkpt lat="45.67841" lon="6.40486">
        <ele>479.4</ele>
        <time>2021-07-11T07:06:19Z</time>
      </trkpt>
      <trkpt lat="45.67831" lon="6.40487">
        <ele>479.4</ele>
        <time>2021-07-11T07:06:23Z</time>
      </trkpt>
      <trkpt lat="45.6782" lon="6.40488">
        <ele>480</ele>
        <time>2021-07-11T07:06:27Z</time>
      </trkpt>
      <trkpt lat="45.67811" lon="6.40482">
        <ele>480.2</ele>
        <time>2021-07-11T07:06:31Z</time>
      </trkpt>
      <trkpt lat="45.67803" lon="6.40472">
        <ele>480.4</ele>
        <time>2021-07-11T07:06:35Z</time>
      </trkpt>
      <trkpt lat="45.67797" lon="6.4046">
        <ele>481</ele>
        <time>2021-07-11T07:06:39Z</time>
      </trkpt>
      <trkpt lat="45.67791" lon="6.40447">
        <ele>482</ele>
        <time>2021-07-11T07:06:43Z</time>
      </trkpt>
      <trkpt lat="45.67786" lon="6.40436">
        <ele>482.6</ele>
        <time>2021-07-11T07:06:47Z</time>
      </trkpt>
      <trkpt lat="45.6778" lon="6.40427">
        <ele>483.2</ele>
        <time>2021-07-11T07:06:51Z</time>
      </trkpt>
      <trkpt lat="45.67772" lon="6.4042">
        <ele>484.2</ele>
        <time>2021-07-11T07:06:55Z</time>
      </trkpt>
      <trkpt lat="45.67766" lon="6.4041">
        <ele>484.8</ele>
        <time>2021-07-11T07:06:59Z</time>
      </trkpt>
      <trkpt lat="45.6776" lon="6.404">
        <ele>485.4</ele>
        <time>2021-07-11T07:07:03Z</time>
      </trkpt>
      <trkpt lat="45.67755" lon="6.4039">
        <ele>486</ele>
        <time>2021-07-11T07:07:07Z</time>
      </trkpt>
      <trkpt lat="45.67749" lon="6.40381">
        <ele>486.6</ele>
        <time>2021-07-11T07:07:11Z</time>
      </trkpt>
      <trkpt lat="45.67743" lon="6.40373">
        <ele>487.4</ele>
        <time>2021-07-11T07:07:15Z</time>
      </trkpt>
      <trkpt lat="45.67737" lon="6.40365">
        <ele>488.2</ele>
        <time>2021-07-11T07:07:19Z</time>
      </trkpt>
      <trkpt lat="45.6773" lon="6.40359">
        <ele>488.2</ele>
        <time>2021-07-11T07:07:23Z</time>
      </trkpt>
      <trkpt lat="45.67724" lon="6.40354">
        <ele>489.4</ele>
        <time>2021-07-11T07:07:27Z</time>
      </trkpt>
      <trkpt lat="45.67717" lon="6.40352">
        <ele>489.6</ele>
        <time>2021-07-11T07:07:31Z</time>
      </trkpt>
      <trkpt lat="45.67709" lon="6.40352">
        <ele>490</ele>
        <time>2021-07-11T07:07:35Z</time>
      </trkpt>
      <trkpt lat="45.67704" lon="6.40353">
        <ele>490.8</ele>
        <time>2021-07-11T07:07:39Z</time>
      </trkpt>
      <trkpt lat="45.67695" lon="6.4035">
        <ele>491.4</ele>
        <time>2021-07-11T07:07:43Z</time>
      </trkpt>
      <trkpt lat="45.67685" lon="6.40343">
        <ele>492.4</ele>
        <time>2021-07-11T07:07:47Z</time>
      </trkpt>
      <trkpt lat="45.67676" lon="6.40337">
        <ele>492.6</ele>
        <time>2021-07-11T07:07:51Z</time>
      </trkpt>
      <trkpt lat="45.67668" lon="6.40333">
        <ele>493.6</ele>
        <time>2021-07-11T07:07:55Z</time>
      </trkpt>
      <trkpt lat="45.67661" lon="6.40329">
        <ele>494.6</ele>
        <time>2021-07-11T07:07:59Z</time>
      </trkpt>
      <trkpt lat="45.67653" lon="6.40326">
        <ele>494.8</ele>
        <time>2021-07-11T07:08:03Z</time>
      </trkpt>
      <trkpt lat="45.67644" lon="6.40322">
        <ele>495.4</ele>
        <time>2021-07-11T07:08:07Z</time>
      </trkpt>
      <trkpt lat="45.67636" lon="6.40317">
        <ele>496.2</ele>
        <time>2021-07-11T07:08:11Z</time>
      </trkpt>
      <trkpt lat="45.67629" lon="6.40311">
        <ele>496.8</ele>
        <time>2021-07-11T07:08:15Z</time>
      </trkpt>
      <trkpt lat="45.67621" lon="6.40313">
        <ele>497.2</ele>
        <time>2021-07-11T07:08:19Z</time>
      </trkpt>
      <trkpt lat="45.67614" lon="6.40314">
        <ele>498</ele>
        <time>2021-07-11T07:08:23Z</time>
      </trkpt>
      <trkpt lat="45.67608" lon="6.40319">
        <ele>498.8</ele>
        <time>2021-07-11T07:08:27Z</time>
      </trkpt>
      <trkpt lat="45.67601" lon="6.40322">
        <ele>499.6</ele>
        <time>2021-07-11T07:08:31Z</time>
      </trkpt>
      <trkpt lat="45.67592" lon="6.40323">
        <ele>500</ele>
        <time>2021-07-11T07:08:35Z</time>
      </trkpt>
      <trkpt lat="45.67583" lon="6.40321">
        <ele>500.6</ele>
        <time>2021-07-11T07:08:39Z</time>
      </trkpt>
      <trkpt lat="45.67574" lon="6.40322">
        <ele>501.4</ele>
        <time>2021-07-11T07:08:43Z</time>
      </trkpt>
      <trkpt lat="45.67565" lon="6.40318">
        <ele>502.2</ele>
        <time>2021-07-11T07:08:47Z</time>
      </trkpt>
      <trkpt lat="45.67558" lon="6.40311">
        <ele>502.8</ele>
        <time>2021-07-11T07:08:51Z</time>
      </trkpt>
      <trkpt lat="45.67551" lon="6.40304">
        <ele>503.4</ele>
        <time>2021-07-11T07:08:55Z</time>
      </trkpt>
      <trkpt lat="45.67543" lon="6.40299">
        <ele>504.2</ele>
        <time>2021-07-11T07:08:59Z</time>
      </trkpt>
      <trkpt lat="45.67536" lon="6.40294">
        <ele>504.8</ele>
        <time>2021-07-11T07:09:03Z</time>
      </trkpt>
      <trkpt lat="45.6753" lon="6.40289">
        <ele>505</ele>
        <time>2021-07-11T07:09:07Z</time>
      </trkpt>
      <trkpt lat="45.67525" lon="6.40286">
        <ele>505.8</ele>
        <time>2021-07-11T07:09:11Z</time>
      </trkpt>
      <trkpt lat="45.67517" lon="6.40279">
        <ele>506.4</ele>
        <time>2021-07-11T07:09:15Z</time>
      </trkpt>
      <trkpt lat="45.67509" lon="6.40273">
        <ele>506.8</ele>
        <time>2021-07-11T07:09:19Z</time>
      </trkpt>
      <trkpt lat="45.67499" lon="6.40268">
        <ele>507.6</ele>
        <time>2021-07-11T07:09:23Z</time>
      </trkpt>
      <trkpt lat="45.6749" lon="6.40266">
        <ele>508.2</ele>
        <time>2021-07-11T07:09:27Z</time>
      </trkpt>
      <trkpt lat="45.67484" lon="6.40268">
        <ele>508.8</ele>
        <time>2021-07-11T07:09:31Z</time>
      </trkpt>
      <trkpt lat="45.67479" lon="6.40276">
        <ele>509</ele>
        <time>2021-07-11T07:09:35Z</time>
      </trkpt>
      <trkpt lat="45.67479" lon="6.40291">
        <ele>509.6</ele>
        <time>2021-07-11T07:09:39Z</time>
      </trkpt>
      <trkpt lat="45.67475" lon="6.40303">
        <ele>510.2</ele>
        <time>2021-07-11T07:09:43Z</time>
      </trkpt>
      <trkpt lat="45.67469" lon="6.40311">
        <ele>510.4</ele>
        <time>2021-07-11T07:09:47Z</time>
      </trkpt>
      <trkpt lat="45.6746" lon="6.40316">
        <ele>511.4</ele>
        <time>2021-07-11T07:09:51Z</time>
      </trkpt>
      <trkpt lat="45.67452" lon="6.40315">
        <ele>511.6</ele>
        <time>2021-07-11T07:09:55Z</time>
      </trkpt>
      <trkpt lat="45.67443" lon="6.40312">
        <ele>512.2</ele>
        <time>2021-07-11T07:09:59Z</time>
      </trkpt>
      <trkpt lat="45.67435" lon="6.40311">
        <ele>513.2</ele>
        <time>2021-07-11T07:10:03Z</time>
      </trkpt>
      <trkpt lat="45.67429" lon="6.40315">
        <ele>513.2</ele>
        <time>2021-07-11T07:10:07Z</time>
      </trkpt>
      <trkpt lat="45.67426" lon="6.4033">
        <ele>513.8</ele>
        <time>2021-07-11T07:10:11Z</time>
      </trkpt>
      <trkpt lat="45.67427" lon="6.40345">
        <ele>514.2</ele>
        <time>2021-07-11T07:10:15Z</time>
      </trkpt>
      <trkpt lat="45.67434" lon="6.40351">
        <ele>515</ele>
        <time>2021-07-11T07:10:19Z</time>
      </trkpt>
      <trkpt lat="45.67442" lon="6.40349">
        <ele>515.8</ele>
        <time>2021-07-11T07:10:23Z</time>
      </trkpt>
      <trkpt lat="45.67449" lon="6.40343">
        <ele>517</ele>
        <time>2021-07-11T07:10:27Z</time>
      </trkpt>
      <trkpt lat="45.67457" lon="6.40341">
        <ele>517</ele>
        <time>2021-07-11T07:10:31Z</time>
      </trkpt>
      <trkpt lat="45.67465" lon="6.40344">
        <ele>518</ele>
        <time>2021-07-11T07:10:35Z</time>
      </trkpt>
      <trkpt lat="45.67472" lon="6.40351">
        <ele>518.4</ele>
        <time>2021-07-11T07:10:39Z</time>
      </trkpt>
      <trkpt lat="45.67477" lon="6.40357">
        <ele>519.2</ele>
        <time>2021-07-11T07:10:43Z</time>
      </trkpt>
      <trkpt lat="45.67485" lon="6.40366">
        <ele>519.8</ele>
        <time>2021-07-11T07:10:47Z</time>
      </trkpt>
      <trkpt lat="45.67493" lon="6.40373">
        <ele>520</ele>
        <time>2021-07-11T07:10:51Z</time>
      </trkpt>
      <trkpt lat="45.67498" lon="6.40384">
        <ele>520.8</ele>
        <time>2021-07-11T07:10:55Z</time>
      </trkpt>
      <trkpt lat="45.67503" lon="6.40393">
        <ele>521.2</ele>
        <time>2021-07-11T07:10:59Z</time>
      </trkpt>
      <trkpt lat="45.67508" lon="6.40403">
        <ele>521.4</ele>
        <time>2021-07-11T07:11:03Z</time>
      </trkpt>
      <trkpt lat="45.67514" lon="6.40413">
        <ele>522.6</ele>
        <time>2021-07-11T07:11:07Z</time>
      </trkpt>
      <trkpt lat="45.67522" lon="6.4042">
        <ele>522.4</ele>
        <time>2021-07-11T07:11:11Z</time>
      </trkpt>
      <trkpt lat="45.67529" lon="6.40425">
        <ele>523</ele>
        <time>2021-07-11T07:11:15Z</time>
      </trkpt>
      <trkpt lat="45.67537" lon="6.40429">
        <ele>524</ele>
        <time>2021-07-11T07:11:19Z</time>
      </trkpt>
      <trkpt lat="45.67547" lon="6.40431">
        <ele>524.8</ele>
        <time>2021-07-11T07:11:23Z</time>
      </trkpt>
      <trkpt lat="45.67557" lon="6.40432">
        <ele>525.2</ele>
        <time>2021-07-11T07:11:27Z</time>
      </trkpt>
      <trkpt lat="45.67565" lon="6.4043">
        <ele>525.6</ele>
        <time>2021-07-11T07:11:31Z</time>
      </trkpt>
      <trkpt lat="45.67574" lon="6.40429">
        <ele>526.8</ele>
        <time>2021-07-11T07:11:35Z</time>
      </trkpt>
      <trkpt lat="45.67582" lon="6.40427">
        <ele>528</ele>
        <time>2021-07-11T07:11:39Z</time>
      </trkpt>
      <trkpt lat="45.67591" lon="6.40433">
        <ele>528</ele>
        <time>2021-07-11T07:11:43Z</time>
      </trkpt>
      <trkpt lat="45.67599" lon="6.4044">
        <ele>528.4</ele>
        <time>2021-07-11T07:11:47Z</time>
      </trkpt>
      <trkpt lat="45.67604" lon="6.40448">
        <ele>529.4</ele>
        <time>2021-07-11T07:11:51Z</time>
      </trkpt>
      <trkpt lat="45.67609" lon="6.40457">
        <ele>530</ele>
        <time>2021-07-11T07:11:55Z</time>
      </trkpt>
      <trkpt lat="45.67616" lon="6.40469">
        <ele>531</ele>
        <time>2021-07-11T07:11:59Z</time>
      </trkpt>
      <trkpt lat="45.67618" lon="6.40478">
        <ele>531.4</ele>
        <time>2021-07-11T07:12:03Z</time>
      </trkpt>
      <trkpt lat="45.67622" lon="6.40486">
        <ele>532</ele>
        <time>2021-07-11T07:12:07Z</time>
      </trkpt>
      <trkpt lat="45.67628" lon="6.40497">
        <ele>532.6</ele>
        <time>2021-07-11T07:12:11Z</time>
      </trkpt>
      <trkpt lat="45.67634" lon="6.40505">
        <ele>533.6</ele>
        <time>2021-07-11T07:12:15Z</time>
      </trkpt>
      <trkpt lat="45.67641" lon="6.40514">
        <ele>533.8</ele>
        <time>2021-07-11T07:12:19Z</time>
      </trkpt>
      <trkpt lat="45.67647" lon="6.40524">
        <ele>534.4</ele>
        <time>2021-07-11T07:12:23Z</time>
      </trkpt>
      <trkpt lat="45.67652" lon="6.40535">
        <ele>535.6</ele>
        <time>2021-07-11T07:12:27Z</time>
      </trkpt>
      <trkpt lat="45.67656" lon="6.40544">
        <ele>536.2</ele>
        <time>2021-07-11T07:12:31Z</time>
      </trkpt>
      <trkpt lat="45.67658" lon="6.40555">
        <ele>536.6</ele>
        <time>2021-07-11T07:12:35Z</time>
      </trkpt>
      <trkpt lat="45.67661" lon="6.40561">
        <ele>537.2</ele>
        <time>2021-07-11T07:12:39Z</time>
      </trkpt>
      <trkpt lat="45.67663" lon="6.40571">
        <ele>538.2</ele>
        <time>2021-07-11T07:12:43Z</time>
      </trkpt>
      <trkpt lat="45.67663" lon="6.4058">
        <ele>538.6</ele>
        <time>2021-07-11T07:12:47Z</time>
      </trkpt>
      <trkpt lat="45.67661" lon="6.40593">
        <ele>539.4</ele>
        <time>2021-07-11T07:12:51Z</time>
      </trkpt>
      <trkpt lat="45.67659" lon="6.40604">
        <ele>539.8</ele>
        <time>2021-07-11T07:12:55Z</time>
      </trkpt>
      <trkpt lat="45.67657" lon="6.40616">
        <ele>540.6</ele>
        <time>2021-07-11T07:12:59Z</time>
      </trkpt>
      <trkpt lat="45.67655" lon="6.40627">
        <ele>541.4</ele>
        <time>2021-07-11T07:13:03Z</time>
      </trkpt>
      <trkpt lat="45.67655" lon="6.4064">
        <ele>541.8</ele>
        <time>2021-07-11T07:13:07Z</time>
      </trkpt>
      <trkpt lat="45.67656" lon="6.40652">
        <ele>542.4</ele>
        <time>2021-07-11T07:13:11Z</time>
      </trkpt>
      <trkpt lat="45.67655" lon="6.40662">
        <ele>543.2</ele>
        <time>2021-07-11T07:13:15Z</time>
      </trkpt>
      <trkpt lat="45.67651" lon="6.40672">
        <ele>543.8</ele>
        <time>2021-07-11T07:13:19Z</time>
      </trkpt>
      <trkpt lat="45.67647" lon="6.40684">
        <ele>543.8</ele>
        <time>2021-07-11T07:13:23Z</time>
      </trkpt>
      <trkpt lat="45.6764" lon="6.40696">
        <ele>544.4</ele>
        <time>2021-07-11T07:13:27Z</time>
      </trkpt>
      <trkpt lat="45.67632" lon="6.40704">
        <ele>545.4</ele>
        <time>2021-07-11T07:13:31Z</time>
      </trkpt>
      <trkpt lat="45.67629" lon="6.40712">
        <ele>545.6</ele>
        <time>2021-07-11T07:13:35Z</time>
      </trkpt>
      <trkpt lat="45.67625" lon="6.40724">
        <ele>546.2</ele>
        <time>2021-07-11T07:13:39Z</time>
      </trkpt>
      <trkpt lat="45.67618" lon="6.40744">
        <ele>546.4</ele>
        <time>2021-07-11T07:13:43Z</time>
      </trkpt>
      <trkpt lat="45.67616" lon="6.40759">
        <ele>546.8</ele>
        <time>2021-07-11T07:13:47Z</time>
      </trkpt>
      <trkpt lat="45.67616" lon="6.40773">
        <ele>547.6</ele>
        <time>2021-07-11T07:13:51Z</time>
      </trkpt>
      <trkpt lat="45.67617" lon="6.40788">
        <ele>548.2</ele>
        <time>2021-07-11T07:13:55Z</time>
      </trkpt>
      <trkpt lat="45.6762" lon="6.40803">
        <ele>548.2</ele>
        <time>2021-07-11T07:13:59Z</time>
      </trkpt>
      <trkpt lat="45.67625" lon="6.40817">
        <ele>548.6</ele>
        <time>2021-07-11T07:14:03Z</time>
      </trkpt>
      <trkpt lat="45.67629" lon="6.40831">
        <ele>548.6</ele>
        <time>2021-07-11T07:14:07Z</time>
      </trkpt>
      <trkpt lat="45.67634" lon="6.40843">
        <ele>550.2</ele>
        <time>2021-07-11T07:14:11Z</time>
      </trkpt>
      <trkpt lat="45.6764" lon="6.40854">
        <ele>550.4</ele>
        <time>2021-07-11T07:14:15Z</time>
      </trkpt>
      <trkpt lat="45.67646" lon="6.40866">
        <ele>550.8</ele>
        <time>2021-07-11T07:14:19Z</time>
      </trkpt>
      <trkpt lat="45.67653" lon="6.40877">
        <ele>551</ele>
        <time>2021-07-11T07:14:23Z</time>
      </trkpt>
      <trkpt lat="45.67658" lon="6.4089">
        <ele>551.8</ele>
        <time>2021-07-11T07:14:27Z</time>
      </trkpt>
      <trkpt lat="45.67653" lon="6.40904">
        <ele>552.4</ele>
        <time>2021-07-11T07:14:31Z</time>
      </trkpt>
      <trkpt lat="45.67643" lon="6.4091">
        <ele>553.4</ele>
        <time>2021-07-11T07:14:35Z</time>
      </trkpt>
      <trkpt lat="45.67634" lon="6.40912">
        <ele>553.4</ele>
        <time>2021-07-11T07:14:39Z</time>
      </trkpt>
      <trkpt lat="45.67625" lon="6.40914">
        <ele>554.4</ele>
        <time>2021-07-11T07:14:43Z</time>
      </trkpt>
      <trkpt lat="45.67616" lon="6.40919">
        <ele>554.6</ele>
        <time>2021-07-11T07:14:47Z</time>
      </trkpt>
      <trkpt lat="45.67609" lon="6.40928">
        <ele>555</ele>
        <time>2021-07-11T07:14:51Z</time>
      </trkpt>
      <trkpt lat="45.67604" lon="6.40938">
        <ele>555.8</ele>
        <time>2021-07-11T07:14:55Z</time>
      </trkpt>
      <trkpt lat="45.676" lon="6.40948">
        <ele>556</ele>
        <time>2021-07-11T07:14:59Z</time>
      </trkpt>
      <trkpt lat="45.67597" lon="6.4096">
        <ele>556.8</ele>
        <time>2021-07-11T07:15:03Z</time>
      </trkpt>
      <trkpt lat="45.67594" lon="6.40973">
        <ele>557.2</ele>
        <time>2021-07-11T07:15:07Z</time>
      </trkpt>
      <trkpt lat="45.67592" lon="6.40986">
        <ele>558</ele>
        <time>2021-07-11T07:15:11Z</time>
      </trkpt>
      <trkpt lat="45.67591" lon="6.40997">
        <ele>558</ele>
        <time>2021-07-11T07:15:15Z</time>
      </trkpt>
      <trkpt lat="45.67589" lon="6.4101">
        <ele>558.6</ele>
        <time>2021-07-11T07:15:19Z</time>
      </trkpt>
      <trkpt lat="45.67586" lon="6.41021">
        <ele>559.4</ele>
        <time>2021-07-11T07:15:23Z</time>
      </trkpt>
      <trkpt lat="45.67585" lon="6.41031">
        <ele>559.8</ele>
        <time>2021-07-11T07:15:27Z</time>
      </trkpt>
      <trkpt lat="45.67587" lon="6.4104">
        <ele>560.6</ele>
        <time>2021-07-11T07:15:31Z</time>
      </trkpt>
      <trkpt lat="45.67586" lon="6.41049">
        <ele>561.4</ele>
        <time>2021-07-11T07:15:35Z</time>
      </trkpt>
      <trkpt lat="45.67585" lon="6.41062">
        <ele>562.2</ele>
        <time>2021-07-11T07:15:39Z</time>
      </trkpt>
      <trkpt lat="45.67584" lon="6.41072">
        <ele>562.8</ele>
        <time>2021-07-11T07:15:43Z</time>
      </trkpt>
      <trkpt lat="45.67583" lon="6.41086">
        <ele>563.2</ele>
        <time>2021-07-11T07:15:47Z</time>
      </trkpt>
      <trkpt lat="45.67584" lon="6.41098">
        <ele>564.2</ele>
        <time>2021-07-11T07:15:51Z</time>
      </trkpt>
      <trkpt lat="45.67584" lon="6.4111">
        <ele>565</ele>
        <time>2021-07-11T07:15:55Z</time>
      </trkpt>
      <trkpt lat="45.67586" lon="6.41121">
        <ele>565.8</ele>
        <time>2021-07-11T07:15:59Z</time>
      </trkpt>
      <trkpt lat="45.6759" lon="6.41129">
        <ele>566.4</ele>
        <time>2021-07-11T07:16:03Z</time>
      </trkpt>
      <trkpt lat="45.67592" lon="6.4114">
        <ele>567.2</ele>
        <time>2021-07-11T07:16:07Z</time>
      </trkpt>
      <trkpt lat="45.67596" lon="6.41149">
        <ele>568</ele>
        <time>2021-07-11T07:16:11Z</time>
      </trkpt>
      <trkpt lat="45.676" lon="6.41157">
        <ele>568.4</ele>
        <time>2021-07-11T07:16:15Z</time>
      </trkpt>
      <trkpt lat="45.67603" lon="6.41168">
        <ele>569.2</ele>
        <time>2021-07-11T07:16:19Z</time>
      </trkpt>
      <trkpt lat="45.67606" lon="6.41178">
        <ele>569.6</ele>
        <time>2021-07-11T07:16:23Z</time>
      </trkpt>
      <trkpt lat="45.67608" lon="6.4119">
        <ele>570.4</ele>
        <time>2021-07-11T07:16:27Z</time>
      </trkpt>
      <trkpt lat="45.67612" lon="6.41199">
        <ele>571</ele>
        <time>2021-07-11T07:16:31Z</time>
      </trkpt>
      <trkpt lat="45.67616" lon="6.41208">
        <ele>571.4</ele>
        <time>2021-07-11T07:16:35Z</time>
      </trkpt>
      <trkpt lat="45.6762" lon="6.41216">
        <ele>572.2</ele>
        <time>2021-07-11T07:16:39Z</time>
      </trkpt>
      <trkpt lat="45.67625" lon="6.41225">
        <ele>573</ele>
        <time>2021-07-11T07:16:43Z</time>
      </trkpt>
      <trkpt lat="45.6763" lon="6.41233">
        <ele>573.8</ele>
        <time>2021-07-11T07:16:47Z</time>
      </trkpt>
      <trkpt lat="45.67635" lon="6.4124">
        <ele>574.2</ele>
        <time>2021-07-11T07:16:51Z</time>
      </trkpt>
      <trkpt lat="45.6764" lon="6.41248">
        <ele>574.6</ele>
        <time>2021-07-11T07:16:55Z</time>
      </trkpt>
      <trkpt lat="45.67642" lon="6.41257">
        <ele>575.2</ele>
        <time>2021-07-11T07:16:59Z</time>
      </trkpt>
      <trkpt lat="45.67648" lon="6.41262">
        <ele>576.4</ele>
        <time>2021-07-11T07:17:03Z</time>
      </trkpt>
      <trkpt lat="45.67655" lon="6.41268">
        <ele>577</ele>
        <time>2021-07-11T07:17:07Z</time>
      </trkpt>
      <trkpt lat="45.67661" lon="6.41274">
        <ele>577.4</ele>
        <time>2021-07-11T07:17:11Z</time>
      </trkpt>
      <trkpt lat="45.67667" lon="6.4128">
        <ele>578.2</ele>
        <time>2021-07-11T07:17:15Z</time>
      </trkpt>
      <trkpt lat="45.67672" lon="6.41288">
        <ele>578.6</ele>
        <time>2021-07-11T07:17:19Z</time>
      </trkpt>
      <trkpt lat="45.67676" lon="6.41297">
        <ele>579.2</ele>
        <time>2021-07-11T07:17:23Z</time>
      </trkpt>
      <trkpt lat="45.67678" lon="6.41306">
        <ele>579.8</ele>
        <time>2021-07-11T07:17:27Z</time>
      </trkpt>
      <trkpt lat="45.6768" lon="6.41316">
        <ele>580.4</ele>
        <time>2021-07-11T07:17:31Z</time>
      </trkpt>
      <trkpt lat="45.6768" lon="6.41325">
        <ele>581.2</ele>
        <time>2021-07-11T07:17:35Z</time>
      </trkpt>
      <trkpt lat="45.67678" lon="6.41335">
        <ele>581.2</ele>
        <time>2021-07-11T07:17:39Z</time>
      </trkpt>
      <trkpt lat="45.67675" lon="6.41344">
        <ele>582.8</ele>
        <time>2021-07-11T07:17:43Z</time>
      </trkpt>
      <trkpt lat="45.67671" lon="6.41352">
        <ele>583.2</ele>
        <time>2021-07-11T07:17:47Z</time>
      </trkpt>
      <trkpt lat="45.67666" lon="6.4136">
        <ele>583.8</ele>
        <time>2021-07-11T07:17:51Z</time>
      </trkpt>
      <trkpt lat="45.67661" lon="6.41368">
        <ele>584.8</ele>
        <time>2021-07-11T07:17:55Z</time>
      </trkpt>
      <trkpt lat="45.67656" lon="6.41375">
        <ele>585.6</ele>
        <time>2021-07-11T07:17:59Z</time>
      </trkpt>
      <trkpt lat="45.67652" lon="6.4138">
        <ele>585.8</ele>
        <time>2021-07-11T07:18:03Z</time>
      </trkpt>
      <trkpt lat="45.67648" lon="6.41385">
        <ele>586.6</ele>
        <time>2021-07-11T07:18:07Z</time>
      </trkpt>
      <trkpt lat="45.67644" lon="6.4139">
        <ele>587.4</ele>
        <time>2021-07-11T07:18:11Z</time>
      </trkpt>
      <trkpt lat="45.67641" lon="6.41398">
        <ele>587.6</ele>
        <time>2021-07-11T07:18:15Z</time>
      </trkpt>
      <trkpt lat="45.67635" lon="6.41404">
        <ele>588.4</ele>
        <time>2021-07-11T07:18:19Z</time>
      </trkpt>
      <trkpt lat="45.6763" lon="6.41414">
        <ele>589.2</ele>
        <time>2021-07-11T07:18:23Z</time>
      </trkpt>
      <trkpt lat="45.67624" lon="6.41423">
        <ele>589.8</ele>
        <time>2021-07-11T07:18:27Z</time>
      </trkpt>
      <trkpt lat="45.67619" lon="6.41429">
        <ele>590.2</ele>
        <time>2021-07-11T07:18:31Z</time>
      </trkpt>
      <trkpt lat="45.67614" lon="6.41437">
        <ele>591</ele>
        <time>2021-07-11T07:18:35Z</time>
      </trkpt>
      <trkpt lat="45.67609" lon="6.41445">
        <ele>591.6</ele>
        <time>2021-07-11T07:18:39Z</time>
      </trkpt>
      <trkpt lat="45.67603" lon="6.4145">
        <ele>592.2</ele>
        <time>2021-07-11T07:18:43Z</time>
      </trkpt>
      <trkpt lat="45.67597" lon="6.41454">
        <ele>592.6</ele>
        <time>2021-07-11T07:18:47Z</time>
      </trkpt>
      <trkpt lat="45.67591" lon="6.41459">
        <ele>593</ele>
        <time>2021-07-11T07:18:51Z</time>
      </trkpt>
      <trkpt lat="45.67583" lon="6.4146">
        <ele>593</ele>
        <time>2021-07-11T07:18:55Z</time>
      </trkpt>
      <trkpt lat="45.67573" lon="6.41458">
        <ele>593.8</ele>
        <time>2021-07-11T07:18:59Z</time>
      </trkpt>
      <trkpt lat="45.67566" lon="6.41458">
        <ele>594.4</ele>
        <time>2021-07-11T07:19:03Z</time>
      </trkpt>
      <trkpt lat="45.67559" lon="6.41455">
        <ele>594.6</ele>
        <time>2021-07-11T07:19:07Z</time>
      </trkpt>
      <trkpt lat="45.67553" lon="6.41453">
        <ele>595.4</ele>
        <time>2021-07-11T07:19:11Z</time>
      </trkpt>
      <trkpt lat="45.6755" lon="6.41463">
        <ele>595.8</ele>
        <time>2021-07-11T07:19:15Z</time>
      </trkpt>
      <trkpt lat="45.67553" lon="6.41474">
        <ele>596.4</ele>
        <time>2021-07-11T07:19:19Z</time>
      </trkpt>
      <trkpt lat="45.67561" lon="6.41484">
        <ele>597.2</ele>
        <time>2021-07-11T07:19:23Z</time>
      </trkpt>
      <trkpt lat="45.67568" lon="6.41488">
        <ele>596.8</ele>
        <time>2021-07-11T07:19:27Z</time>
      </trkpt>
      <trkpt lat="45.67576" lon="6.41484">
        <ele>598.2</ele>
        <time>2021-07-11T07:19:31Z</time>
      </trkpt>
      <trkpt lat="45.67584" lon="6.41484">
        <ele>598.4</ele>
        <time>2021-07-11T07:19:35Z</time>
      </trkpt>
      <trkpt lat="45.6759" lon="6.41485">
        <ele>598.8</ele>
        <time>2021-07-11T07:19:39Z</time>
      </trkpt>
      <trkpt lat="45.67597" lon="6.41486">
        <ele>600</ele>
        <time>2021-07-11T07:19:43Z</time>
      </trkpt>
      <trkpt lat="45.67603" lon="6.41483">
        <ele>600.8</ele>
        <time>2021-07-11T07:19:47Z</time>
      </trkpt>
      <trkpt lat="45.67608" lon="6.41484">
        <ele>601.8</ele>
        <time>2021-07-11T07:19:51Z</time>
      </trkpt>
      <trkpt lat="45.67613" lon="6.41481">
        <ele>602.2</ele>
        <time>2021-07-11T07:19:55Z</time>
      </trkpt>
      <trkpt lat="45.67618" lon="6.41482">
        <ele>603.2</ele>
        <time>2021-07-11T07:19:59Z</time>
      </trkpt>
      <trkpt lat="45.67624" lon="6.41483">
        <ele>603.4</ele>
        <time>2021-07-11T07:20:03Z</time>
      </trkpt>
      <trkpt lat="45.67629" lon="6.41482">
        <ele>604</ele>
        <time>2021-07-11T07:20:07Z</time>
      </trkpt>
      <trkpt lat="45.67634" lon="6.41481">
        <ele>604.4</ele>
        <time>2021-07-11T07:20:11Z</time>
      </trkpt>
      <trkpt lat="45.6764" lon="6.41481">
        <ele>605</ele>
        <time>2021-07-11T07:20:15Z</time>
      </trkpt>
      <trkpt lat="45.67645" lon="6.41481">
        <ele>606.4</ele>
        <time>2021-07-11T07:20:19Z</time>
      </trkpt>
      <trkpt lat="45.67651" lon="6.41483">
        <ele>606.4</ele>
        <time>2021-07-11T07:20:23Z</time>
      </trkpt>
      <trkpt lat="45.67657" lon="6.41482">
        <ele>607.8</ele>
        <time>2021-07-11T07:20:27Z</time>
      </trkpt>
      <trkpt lat="45.67663" lon="6.41483">
        <ele>607.8</ele>
        <time>2021-07-11T07:20:31Z</time>
      </trkpt>
      <trkpt lat="45.67669" lon="6.41482">
        <ele>608.6</ele>
        <time>2021-07-11T07:20:35Z</time>
      </trkpt>
      <trkpt lat="45.67676" lon="6.4148">
        <ele>609.2</ele>
        <time>2021-07-11T07:20:39Z</time>
      </trkpt>
      <trkpt lat="45.67682" lon="6.41476">
        <ele>610</ele>
        <time>2021-07-11T07:20:43Z</time>
      </trkpt>
      <trkpt lat="45.6769" lon="6.41466">
        <ele>610.4</ele>
        <time>2021-07-11T07:20:47Z</time>
      </trkpt>
      <trkpt lat="45.67697" lon="6.41457">
        <ele>611</ele>
        <time>2021-07-11T07:20:51Z</time>
      </trkpt>
      <trkpt lat="45.67704" lon="6.41449">
        <ele>611.4</ele>
        <time>2021-07-11T07:20:55Z</time>
      </trkpt>
      <trkpt lat="45.67709" lon="6.41442">
        <ele>612.2</ele>
        <time>2021-07-11T07:20:59Z</time>
      </trkpt>
      <trkpt lat="45.67713" lon="6.41432">
        <ele>612.6</ele>
        <time>2021-07-11T07:21:03Z</time>
      </trkpt>
      <trkpt lat="45.67717" lon="6.41422">
        <ele>613</ele>
        <time>2021-07-11T07:21:07Z</time>
      </trkpt>
      <trkpt lat="45.6772" lon="6.41412">
        <ele>614</ele>
        <time>2021-07-11T07:21:11Z</time>
      </trkpt>
      <trkpt lat="45.67722" lon="6.41401">
        <ele>614.8</ele>
        <time>2021-07-11T07:21:15Z</time>
      </trkpt>
      <trkpt lat="45.67724" lon="6.4139">
        <ele>615.4</ele>
        <time>2021-07-11T07:21:19Z</time>
      </trkpt>
      <trkpt lat="45.67725" lon="6.41379">
        <ele>615.8</ele>
        <time>2021-07-11T07:21:23Z</time>
      </trkpt>
      <trkpt lat="45.67727" lon="6.4137">
        <ele>616.2</ele>
        <time>2021-07-11T07:21:27Z</time>
      </trkpt>
      <trkpt lat="45.67729" lon="6.4136">
        <ele>617.4</ele>
        <time>2021-07-11T07:21:31Z</time>
      </trkpt>
      <trkpt lat="45.67733" lon="6.41352">
        <ele>618</ele>
        <time>2021-07-11T07:21:35Z</time>
      </trkpt>
      <trkpt lat="45.67738" lon="6.41345">
        <ele>618.8</ele>
        <time>2021-07-11T07:21:39Z</time>
      </trkpt>
      <trkpt lat="45.67744" lon="6.4134">
        <ele>619.4</ele>
        <time>2021-07-11T07:21:43Z</time>
      </trkpt>
      <trkpt lat="45.67751" lon="6.41339">
        <ele>619.8</ele>
        <time>2021-07-11T07:21:47Z</time>
      </trkpt>
      <trkpt lat="45.67757" lon="6.41339">
        <ele>620.6</ele>
        <time>2021-07-11T07:21:51Z</time>
      </trkpt>
      <trkpt lat="45.67763" lon="6.41341">
        <ele>621</ele>
        <time>2021-07-11T07:21:55Z</time>
      </trkpt>
      <trkpt lat="45.67769" lon="6.41346">
        <ele>622.2</ele>
        <time>2021-07-11T07:21:59Z</time>
      </trkpt>
      <trkpt lat="45.67774" lon="6.41352">
        <ele>622.6</ele>
        <time>2021-07-11T07:22:03Z</time>
      </trkpt>
      <trkpt lat="45.67777" lon="6.4136">
        <ele>623.2</ele>
        <time>2021-07-11T07:22:07Z</time>
      </trkpt>
      <trkpt lat="45.6778" lon="6.41369">
        <ele>623.8</ele>
        <time>2021-07-11T07:22:11Z</time>
      </trkpt>
      <trkpt lat="45.67782" lon="6.41378">
        <ele>624.4</ele>
        <time>2021-07-11T07:22:15Z</time>
      </trkpt>
      <trkpt lat="45.67782" lon="6.41387">
        <ele>625.4</ele>
        <time>2021-07-11T07:22:19Z</time>
      </trkpt>
      <trkpt lat="45.6778" lon="6.41396">
        <ele>625.6</ele>
        <time>2021-07-11T07:22:23Z</time>
      </trkpt>
      <trkpt lat="45.67776" lon="6.41403">
        <ele>626.6</ele>
        <time>2021-07-11T07:22:27Z</time>
      </trkpt>
      <trkpt lat="45.67769" lon="6.41406">
        <ele>627.2</ele>
        <time>2021-07-11T07:22:31Z</time>
      </trkpt>
      <trkpt lat="45.67763" lon="6.41408">
        <ele>627.6</ele>
        <time>2021-07-11T07:22:35Z</time>
      </trkpt>
      <trkpt lat="45.67757" lon="6.41411">
        <ele>628.4</ele>
        <time>2021-07-11T07:22:39Z</time>
      </trkpt>
      <trkpt lat="45.67751" lon="6.41417">
        <ele>629</ele>
        <time>2021-07-11T07:22:43Z</time>
      </trkpt>
      <trkpt lat="45.67746" lon="6.41424">
        <ele>629.2</ele>
        <time>2021-07-11T07:22:47Z</time>
      </trkpt>
      <trkpt lat="45.67743" lon="6.41433">
        <ele>630</ele>
        <time>2021-07-11T07:22:51Z</time>
      </trkpt>
      <trkpt lat="45.67741" lon="6.41441">
        <ele>630.4</ele>
        <time>2021-07-11T07:22:55Z</time>
      </trkpt>
      <trkpt lat="45.67737" lon="6.41449">
        <ele>631.4</ele>
        <time>2021-07-11T07:22:59Z</time>
      </trkpt>
      <trkpt lat="45.67735" lon="6.41457">
        <ele>632.4</ele>
        <time>2021-07-11T07:23:03Z</time>
      </trkpt>
      <trkpt lat="45.67734" lon="6.41466">
        <ele>632.2</ele>
        <time>2021-07-11T07:23:07Z</time>
      </trkpt>
      <trkpt lat="45.67731" lon="6.41473">
        <ele>633</ele>
        <time>2021-07-11T07:23:11Z</time>
      </trkpt>
      <trkpt lat="45.67726" lon="6.41482">
        <ele>633.6</ele>
        <time>2021-07-11T07:23:15Z</time>
      </trkpt>
      <trkpt lat="45.67722" lon="6.4149">
        <ele>634.4</ele>
        <time>2021-07-11T07:23:19Z</time>
      </trkpt>
      <trkpt lat="45.67717" lon="6.415">
        <ele>634.4</ele>
        <time>2021-07-11T07:23:23Z</time>
      </trkpt>
      <trkpt lat="45.67712" lon="6.41508">
        <ele>635.4</ele>
        <time>2021-07-11T07:23:27Z</time>
      </trkpt>
      <trkpt lat="45.67705" lon="6.41512">
        <ele>635.2</ele>
        <time>2021-07-11T07:23:31Z</time>
      </trkpt>
      <trkpt lat="45.67697" lon="6.41514">
        <ele>635.8</ele>
        <time>2021-07-11T07:23:35Z</time>
      </trkpt>
      <trkpt lat="45.6769" lon="6.41516">
        <ele>636</ele>
        <time>2021-07-11T07:23:39Z</time>
      </trkpt>
      <trkpt lat="45.67685" lon="6.41524">
        <ele>636.4</ele>
        <time>2021-07-11T07:23:43Z</time>
      </trkpt>
      <trkpt lat="45.67684" lon="6.41534">
        <ele>637.4</ele>
        <time>2021-07-11T07:23:47Z</time>
      </trkpt>
      <trkpt lat="45.67688" lon="6.41544">
        <ele>638.2</ele>
        <time>2021-07-11T07:23:51Z</time>
      </trkpt>
      <trkpt lat="45.67695" lon="6.41548">
        <ele>638.4</ele>
        <time>2021-07-11T07:23:55Z</time>
      </trkpt>
      <trkpt lat="45.677" lon="6.41547">
        <ele>639.2</ele>
        <time>2021-07-11T07:23:59Z</time>
      </trkpt>
      <trkpt lat="45.67706" lon="6.41544">
        <ele>639.4</ele>
        <time>2021-07-11T07:24:03Z</time>
      </trkpt>
      <trkpt lat="45.67713" lon="6.41543">
        <ele>640.2</ele>
        <time>2021-07-11T07:24:07Z</time>
      </trkpt>
      <trkpt lat="45.67719" lon="6.4154">
        <ele>641.4</ele>
        <time>2021-07-11T07:24:11Z</time>
      </trkpt>
      <trkpt lat="45.67723" lon="6.41535">
        <ele>642</ele>
        <time>2021-07-11T07:24:15Z</time>
      </trkpt>
      <trkpt lat="45.67728" lon="6.41527">
        <ele>642</ele>
        <time>2021-07-11T07:24:19Z</time>
      </trkpt>
      <trkpt lat="45.67734" lon="6.4152">
        <ele>643</ele>
        <time>2021-07-11T07:24:23Z</time>
      </trkpt>
      <trkpt lat="45.6774" lon="6.41516">
        <ele>643.2</ele>
        <time>2021-07-11T07:24:27Z</time>
      </trkpt>
      <trkpt lat="45.67746" lon="6.41506">
        <ele>644</ele>
        <time>2021-07-11T07:24:31Z</time>
      </trkpt>
      <trkpt lat="45.67752" lon="6.41497">
        <ele>644.8</ele>
        <time>2021-07-11T07:24:35Z</time>
      </trkpt>
      <trkpt lat="45.67757" lon="6.41492">
        <ele>645.2</ele>
        <time>2021-07-11T07:24:39Z</time>
      </trkpt>
      <trkpt lat="45.67763" lon="6.41493">
        <ele>646.2</ele>
        <time>2021-07-11T07:24:43Z</time>
      </trkpt>
      <trkpt lat="45.67769" lon="6.4149">
        <ele>646.6</ele>
        <time>2021-07-11T07:24:47Z</time>
      </trkpt>
      <trkpt lat="45.67774" lon="6.41485">
        <ele>647.6</ele>
        <time>2021-07-11T07:24:51Z</time>
      </trkpt>
      <trkpt lat="45.67779" lon="6.41481">
        <ele>647.6</ele>
        <time>2021-07-11T07:24:55Z</time>
      </trkpt>
      <trkpt lat="45.67783" lon="6.41475">
        <ele>649.2</ele>
        <time>2021-07-11T07:24:59Z</time>
      </trkpt>
      <trkpt lat="45.67791" lon="6.41472">
        <ele>649.6</ele>
        <time>2021-07-11T07:25:03Z</time>
      </trkpt>
      <trkpt lat="45.67796" lon="6.41466">
        <ele>650.4</ele>
        <time>2021-07-11T07:25:07Z</time>
      </trkpt>
      <trkpt lat="45.67802" lon="6.4146">
        <ele>651.2</ele>
        <time>2021-07-11T07:25:11Z</time>
      </trkpt>
      <trkpt lat="45.67807" lon="6.41455">
        <ele>651.6</ele>
        <time>2021-07-11T07:25:15Z</time>
      </trkpt>
      <trkpt lat="45.67812" lon="6.4145">
        <ele>652.4</ele>
        <time>2021-07-11T07:25:19Z</time>
      </trkpt>
      <trkpt lat="45.67818" lon="6.41448">
        <ele>654</ele>
        <time>2021-07-11T07:25:23Z</time>
      </trkpt>
      <trkpt lat="45.67824" lon="6.41444">
        <ele>654.2</ele>
        <time>2021-07-11T07:25:27Z</time>
      </trkpt>
      <trkpt lat="45.6783" lon="6.41445">
        <ele>655</ele>
        <time>2021-07-11T07:25:31Z</time>
      </trkpt>
      <trkpt lat="45.67835" lon="6.41445">
        <ele>655.6</ele>
        <time>2021-07-11T07:25:35Z</time>
      </trkpt>
      <trkpt lat="45.67841" lon="6.41446">
        <ele>656.2</ele>
        <time>2021-07-11T07:25:39Z</time>
      </trkpt>
      <trkpt lat="45.67847" lon="6.41446">
        <ele>656.6</ele>
        <time>2021-07-11T07:25:43Z</time>
      </trkpt>
      <trkpt lat="45.67854" lon="6.41448">
        <ele>657.6</ele>
        <time>2021-07-11T07:25:47Z</time>
      </trkpt>
      <trkpt lat="45.67861" lon="6.4145">
        <ele>658</ele>
        <time>2021-07-11T07:25:51Z</time>
      </trkpt>
      <trkpt lat="45.67867" lon="6.4145">
        <ele>659</ele>
        <time>2021-07-11T07:25:55Z</time>
      </trkpt>
      <trkpt lat="45.67873" lon="6.4145">
        <ele>659.4</ele>
        <time>2021-07-11T07:25:59Z</time>
      </trkpt>
      <trkpt lat="45.67882" lon="6.4145">
        <ele>660.2</ele>
        <time>2021-07-11T07:26:03Z</time>
      </trkpt>
      <trkpt lat="45.67889" lon="6.4145">
        <ele>660.4</ele>
        <time>2021-07-11T07:26:07Z</time>
      </trkpt>
      <trkpt lat="45.67896" lon="6.41454">
        <ele>661</ele>
        <time>2021-07-11T07:26:11Z</time>
      </trkpt>
      <trkpt lat="45.67903" lon="6.41457">
        <ele>661.8</ele>
        <time>2021-07-11T07:26:15Z</time>
      </trkpt>
      <trkpt lat="45.67909" lon="6.4146">
        <ele>663</ele>
        <time>2021-07-11T07:26:19Z</time>
      </trkpt>
      <trkpt lat="45.67917" lon="6.41462">
        <ele>663</ele>
        <time>2021-07-11T07:26:23Z</time>
      </trkpt>
      <trkpt lat="45.67923" lon="6.41465">
        <ele>663.8</ele>
        <time>2021-07-11T07:26:27Z</time>
      </trkpt>
      <trkpt lat="45.6793" lon="6.41467">
        <ele>664.6</ele>
        <time>2021-07-11T07:26:31Z</time>
      </trkpt>
      <trkpt lat="45.67936" lon="6.41468">
        <ele>665.2</ele>
        <time>2021-07-11T07:26:35Z</time>
      </trkpt>
      <trkpt lat="45.67942" lon="6.41473">
        <ele>665.6</ele>
        <time>2021-07-11T07:26:39Z</time>
      </trkpt>
      <trkpt lat="45.67947" lon="6.41475">
        <ele>666.6</ele>
        <time>2021-07-11T07:26:43Z</time>
      </trkpt>
      <trkpt lat="45.67952" lon="6.41482">
        <ele>667.2</ele>
        <time>2021-07-11T07:26:47Z</time>
      </trkpt>
      <trkpt lat="45.67958" lon="6.41487">
        <ele>667.8</ele>
        <time>2021-07-11T07:26:51Z</time>
      </trkpt>
      <trkpt lat="45.67963" lon="6.4149">
        <ele>668.8</ele>
        <time>2021-07-11T07:26:55Z</time>
      </trkpt>
      <trkpt lat="45.67969" lon="6.41496">
        <ele>669.4</ele>
        <time>2021-07-11T07:26:59Z</time>
      </trkpt>
      <trkpt lat="45.67973" lon="6.41504">
        <ele>670.2</ele>
        <time>2021-07-11T07:27:03Z</time>
      </trkpt>
      <trkpt lat="45.67976" lon="6.41511">
        <ele>670.4</ele>
        <time>2021-07-11T07:27:07Z</time>
      </trkpt>
      <trkpt lat="45.67979" lon="6.41519">
        <ele>671.2</ele>
        <time>2021-07-11T07:27:11Z</time>
      </trkpt>
      <trkpt lat="45.67982" lon="6.41529">
        <ele>671.8</ele>
        <time>2021-07-11T07:27:15Z</time>
      </trkpt>
      <trkpt lat="45.67985" lon="6.41539">
        <ele>672</ele>
        <time>2021-07-11T07:27:19Z</time>
      </trkpt>
      <trkpt lat="45.67989" lon="6.41547">
        <ele>672.6</ele>
        <time>2021-07-11T07:27:23Z</time>
      </trkpt>
      <trkpt lat="45.67992" lon="6.41556">
        <ele>673.4</ele>
        <time>2021-07-11T07:27:27Z</time>
      </trkpt>
      <trkpt lat="45.67997" lon="6.41565">
        <ele>674</ele>
        <time>2021-07-11T07:27:31Z</time>
      </trkpt>
      <trkpt lat="45.68003" lon="6.41573">
        <ele>673.6</ele>
        <time>2021-07-11T07:27:35Z</time>
      </trkpt>
      <trkpt lat="45.68009" lon="6.4158">
        <ele>674.2</ele>
        <time>2021-07-11T07:27:39Z</time>
      </trkpt>
      <trkpt lat="45.68016" lon="6.41587">
        <ele>675.2</ele>
        <time>2021-07-11T07:27:43Z</time>
      </trkpt>
      <trkpt lat="45.68024" lon="6.41592">
        <ele>675.4</ele>
        <time>2021-07-11T07:27:47Z</time>
      </trkpt>
      <trkpt lat="45.68031" lon="6.41598">
        <ele>676.2</ele>
        <time>2021-07-11T07:27:51Z</time>
      </trkpt>
      <trkpt lat="45.68038" lon="6.41603">
        <ele>677</ele>
        <time>2021-07-11T07:27:55Z</time>
      </trkpt>
      <trkpt lat="45.68042" lon="6.41609">
        <ele>677.2</ele>
        <time>2021-07-11T07:27:59Z</time>
      </trkpt>
      <trkpt lat="45.68048" lon="6.41613">
        <ele>677.8</ele>
        <time>2021-07-11T07:28:03Z</time>
      </trkpt>
      <trkpt lat="45.68056" lon="6.41617">
        <ele>678.6</ele>
        <time>2021-07-11T07:28:07Z</time>
      </trkpt>
      <trkpt lat="45.68063" lon="6.41623">
        <ele>679.4</ele>
        <time>2021-07-11T07:28:11Z</time>
      </trkpt>
      <trkpt lat="45.6807" lon="6.4163">
        <ele>679.8</ele>
        <time>2021-07-11T07:28:15Z</time>
      </trkpt>
      <trkpt lat="45.68075" lon="6.41634">
        <ele>680.4</ele>
        <time>2021-07-11T07:28:19Z</time>
      </trkpt>
      <trkpt lat="45.68079" lon="6.41633">
        <ele>681.2</ele>
        <time>2021-07-11T07:28:23Z</time>
      </trkpt>
      <trkpt lat="45.68088" lon="6.41637">
        <ele>681</ele>
        <time>2021-07-11T07:28:27Z</time>
      </trkpt>
      <trkpt lat="45.68094" lon="6.41639">
        <ele>682</ele>
        <time>2021-07-11T07:28:31Z</time>
      </trkpt>
      <trkpt lat="45.681" lon="6.41643">
        <ele>682.8</ele>
        <time>2021-07-11T07:28:35Z</time>
      </trkpt>
      <trkpt lat="45.68105" lon="6.41648">
        <ele>682.8</ele>
        <time>2021-07-11T07:28:39Z</time>
      </trkpt>
      <trkpt lat="45.68115" lon="6.41655">
        <ele>683.8</ele>
        <time>2021-07-11T07:28:43Z</time>
      </trkpt>
      <trkpt lat="45.68123" lon="6.41659">
        <ele>684.4</ele>
        <time>2021-07-11T07:28:47Z</time>
      </trkpt>
      <trkpt lat="45.6813" lon="6.41664">
        <ele>684.8</ele>
        <time>2021-07-11T07:28:51Z</time>
      </trkpt>
      <trkpt lat="45.68138" lon="6.41667">
        <ele>685.8</ele>
        <time>2021-07-11T07:28:55Z</time>
      </trkpt>
      <trkpt lat="45.68145" lon="6.41667">
        <ele>686</ele>
        <time>2021-07-11T07:28:59Z</time>
      </trkpt>
      <trkpt lat="45.68153" lon="6.41669">
        <ele>686.4</ele>
        <time>2021-07-11T07:29:03Z</time>
      </trkpt>
      <trkpt lat="45.68159" lon="6.41671">
        <ele>686.8</ele>
        <time>2021-07-11T07:29:07Z</time>
      </trkpt>
      <trkpt lat="45.68166" lon="6.41677">
        <ele>687.6</ele>
        <time>2021-07-11T07:29:11Z</time>
      </trkpt>
      <trkpt lat="45.68173" lon="6.41683">
        <ele>688.2</ele>
        <time>2021-07-11T07:29:15Z</time>
      </trkpt>
      <trkpt lat="45.6818" lon="6.41687">
        <ele>689</ele>
        <time>2021-07-11T07:29:19Z</time>
      </trkpt>
      <trkpt lat="45.68186" lon="6.41691">
        <ele>690.2</ele>
        <time>2021-07-11T07:29:23Z</time>
      </trkpt>
      <trkpt lat="45.68192" lon="6.41695">
        <ele>690.2</ele>
        <time>2021-07-11T07:29:27Z</time>
      </trkpt>
      <trkpt lat="45.68198" lon="6.41702">
        <ele>690.6</ele>
        <time>2021-07-11T07:29:31Z</time>
      </trkpt>
      <trkpt lat="45.68204" lon="6.41709">
        <ele>691.6</ele>
        <time>2021-07-11T07:29:35Z</time>
      </trkpt>
      <trkpt lat="45.68209" lon="6.41714">
        <ele>691.6</ele>
        <time>2021-07-11T07:29:39Z</time>
      </trkpt>
      <trkpt lat="45.68215" lon="6.41723">
        <ele>692.2</ele>
        <time>2021-07-11T07:29:43Z</time>
      </trkpt>
      <trkpt lat="45.6822" lon="6.41732">
        <ele>693</ele>
        <time>2021-07-11T07:29:47Z</time>
      </trkpt>
      <trkpt lat="45.68224" lon="6.4174">
        <ele>693.4</ele>
        <time>2021-07-11T07:29:51Z</time>
      </trkpt>
      <trkpt lat="45.6823" lon="6.41747">
        <ele>694</ele>
        <time>2021-07-11T07:29:55Z</time>
      </trkpt>
      <trkpt lat="45.68237" lon="6.41755">
        <ele>695</ele>
        <time>2021-07-11T07:29:59Z</time>
      </trkpt>
      <trkpt lat="45.68241" lon="6.41764">
        <ele>695.2</ele>
        <time>2021-07-11T07:30:03Z</time>
      </trkpt>
      <trkpt lat="45.68245" lon="6.41774">
        <ele>695.4</ele>
        <time>2021-07-11T07:30:07Z</time>
      </trkpt>
      <trkpt lat="45.6825" lon="6.41783">
        <ele>696.2</ele>
        <time>2021-07-11T07:30:11Z</time>
      </trkpt>
      <trkpt lat="45.68253" lon="6.41792">
        <ele>697</ele>
        <time>2021-07-11T07:30:15Z</time>
      </trkpt>
      <trkpt lat="45.68256" lon="6.41802">
        <ele>697.2</ele>
        <time>2021-07-11T07:30:19Z</time>
      </trkpt>
      <trkpt lat="45.68261" lon="6.41811">
        <ele>697.8</ele>
        <time>2021-07-11T07:30:23Z</time>
      </trkpt>
      <trkpt lat="45.68264" lon="6.41821">
        <ele>698.2</ele>
        <time>2021-07-11T07:30:27Z</time>
      </trkpt>
      <trkpt lat="45.68267" lon="6.41831">
        <ele>699</ele>
        <time>2021-07-11T07:30:31Z</time>
      </trkpt>
      <trkpt lat="45.68271" lon="6.4184">
        <ele>699.8</ele>
        <time>2021-07-11T07:30:35Z</time>
      </trkpt>
      <trkpt lat="45.68273" lon="6.41849">
        <ele>699.8</ele>
        <time>2021-07-11T07:30:39Z</time>
      </trkpt>
      <trkpt lat="45.68275" lon="6.41857">
        <ele>700.8</ele>
        <time>2021-07-11T07:30:43Z</time>
      </trkpt>
      <trkpt lat="45.6828" lon="6.41865">
        <ele>700.6</ele>
        <time>2021-07-11T07:30:47Z</time>
      </trkpt>
      <trkpt lat="45.68285" lon="6.41873">
        <ele>701.8</ele>
        <time>2021-07-11T07:30:51Z</time>
      </trkpt>
      <trkpt lat="45.6829" lon="6.41881">
        <ele>702.2</ele>
        <time>2021-07-11T07:30:55Z</time>
      </trkpt>
      <trkpt lat="45.68296" lon="6.41889">
        <ele>702.6</ele>
        <time>2021-07-11T07:30:59Z</time>
      </trkpt>
      <trkpt lat="45.68301" lon="6.41897">
        <ele>703.2</ele>
        <time>2021-07-11T07:31:03Z</time>
      </trkpt>
      <trkpt lat="45.68307" lon="6.41905">
        <ele>703.6</ele>
        <time>2021-07-11T07:31:07Z</time>
      </trkpt>
      <trkpt lat="45.68311" lon="6.41913">
        <ele>704</ele>
        <time>2021-07-11T07:31:11Z</time>
      </trkpt>
      <trkpt lat="45.68314" lon="6.41924">
        <ele>705</ele>
        <time>2021-07-11T07:31:15Z</time>
      </trkpt>
      <trkpt lat="45.68316" lon="6.41937">
        <ele>705.6</ele>
        <time>2021-07-11T07:31:19Z</time>
      </trkpt>
      <trkpt lat="45.68316" lon="6.41949">
        <ele>705.4</ele>
        <time>2021-07-11T07:31:23Z</time>
      </trkpt>
      <trkpt lat="45.68318" lon="6.41964">
        <ele>706</ele>
        <time>2021-07-11T07:31:27Z</time>
      </trkpt>
      <trkpt lat="45.68321" lon="6.41976">
        <ele>706.6</ele>
        <time>2021-07-11T07:31:31Z</time>
      </trkpt>
      <trkpt lat="45.68324" lon="6.41988">
        <ele>707.2</ele>
        <time>2021-07-11T07:31:35Z</time>
      </trkpt>
      <trkpt lat="45.68328" lon="6.42">
        <ele>707.6</ele>
        <time>2021-07-11T07:31:39Z</time>
      </trkpt>
      <trkpt lat="45.68331" lon="6.42012">
        <ele>707.4</ele>
        <time>2021-07-11T07:31:43Z</time>
      </trkpt>
      <trkpt lat="45.68334" lon="6.42024">
        <ele>708</ele>
        <time>2021-07-11T07:31:47Z</time>
      </trkpt>
      <trkpt lat="45.68338" lon="6.42035">
        <ele>708.2</ele>
        <time>2021-07-11T07:31:51Z</time>
      </trkpt>
      <trkpt lat="45.68342" lon="6.42046">
        <ele>709.4</ele>
        <time>2021-07-11T07:31:55Z</time>
      </trkpt>
      <trkpt lat="45.68347" lon="6.42056">
        <ele>709.4</ele>
        <time>2021-07-11T07:31:59Z</time>
      </trkpt>
      <trkpt lat="45.68354" lon="6.42063">
        <ele>709.8</ele>
        <time>2021-07-11T07:32:03Z</time>
      </trkpt>
      <trkpt lat="45.6836" lon="6.42071">
        <ele>710</ele>
        <time>2021-07-11T07:32:07Z</time>
      </trkpt>
      <trkpt lat="45.68366" lon="6.42079">
        <ele>711</ele>
        <time>2021-07-11T07:32:11Z</time>
      </trkpt>
      <trkpt lat="45.68374" lon="6.42085">
        <ele>710.4</ele>
        <time>2021-07-11T07:32:15Z</time>
      </trkpt>
      <trkpt lat="45.68381" lon="6.42093">
        <ele>711.8</ele>
        <time>2021-07-11T07:32:19Z</time>
      </trkpt>
      <trkpt lat="45.68382" lon="6.42105">
        <ele>711.6</ele>
        <time>2021-07-11T07:32:23Z</time>
      </trkpt>
      <trkpt lat="45.68377" lon="6.42108">
        <ele>712.4</ele>
        <time>2021-07-11T07:32:27Z</time>
      </trkpt>
      <trkpt lat="45.68372" lon="6.42107">
        <ele>713.8</ele>
        <time>2021-07-11T07:32:31Z</time>
      </trkpt>
      <trkpt lat="45.68366" lon="6.421">
        <ele>714</ele>
        <time>2021-07-11T07:32:35Z</time>
      </trkpt>
      <trkpt lat="45.6836" lon="6.42094">
        <ele>715.4</ele>
        <time>2021-07-11T07:32:39Z</time>
      </trkpt>
      <trkpt lat="45.68354" lon="6.42091">
        <ele>715.2</ele>
        <time>2021-07-11T07:32:43Z</time>
      </trkpt>
      <trkpt lat="45.68348" lon="6.42087">
        <ele>716.2</ele>
        <time>2021-07-11T07:32:47Z</time>
      </trkpt>
      <trkpt lat="45.68342" lon="6.42083">
        <ele>716.8</ele>
        <time>2021-07-11T07:32:51Z</time>
      </trkpt>
      <trkpt lat="45.68335" lon="6.42082">
        <ele>717.6</ele>
        <time>2021-07-11T07:32:55Z</time>
      </trkpt>
      <trkpt lat="45.68331" lon="6.42078">
        <ele>718</ele>
        <time>2021-07-11T07:32:59Z</time>
      </trkpt>
      <trkpt lat="45.68324" lon="6.42074">
        <ele>718.8</ele>
        <time>2021-07-11T07:33:03Z</time>
      </trkpt>
      <trkpt lat="45.68319" lon="6.42067">
        <ele>719.2</ele>
        <time>2021-07-11T07:33:07Z</time>
      </trkpt>
      <trkpt lat="45.68315" lon="6.4206">
        <ele>720.2</ele>
        <time>2021-07-11T07:33:11Z</time>
      </trkpt>
      <trkpt lat="45.6831" lon="6.42053">
        <ele>720.4</ele>
        <time>2021-07-11T07:33:15Z</time>
      </trkpt>
      <trkpt lat="45.68305" lon="6.42046">
        <ele>721.4</ele>
        <time>2021-07-11T07:33:19Z</time>
      </trkpt>
      <trkpt lat="45.683" lon="6.42039">
        <ele>722.2</ele>
        <time>2021-07-11T07:33:23Z</time>
      </trkpt>
      <trkpt lat="45.68296" lon="6.42032">
        <ele>722.4</ele>
        <time>2021-07-11T07:33:27Z</time>
      </trkpt>
      <trkpt lat="45.68291" lon="6.42025">
        <ele>723.2</ele>
        <time>2021-07-11T07:33:31Z</time>
      </trkpt>
      <trkpt lat="45.68287" lon="6.42017">
        <ele>724</ele>
        <time>2021-07-11T07:33:35Z</time>
      </trkpt>
      <trkpt lat="45.68284" lon="6.4201">
        <ele>724.8</ele>
        <time>2021-07-11T07:33:39Z</time>
      </trkpt>
      <trkpt lat="45.6828" lon="6.42001">
        <ele>725.2</ele>
        <time>2021-07-11T07:33:43Z</time>
      </trkpt>
      <trkpt lat="45.68277" lon="6.41994">
        <ele>726.4</ele>
        <time>2021-07-11T07:33:47Z</time>
      </trkpt>
      <trkpt lat="45.68275" lon="6.41985">
        <ele>726.8</ele>
        <time>2021-07-11T07:33:51Z</time>
      </trkpt>
      <trkpt lat="45.68272" lon="6.41977">
        <ele>728</ele>
        <time>2021-07-11T07:33:55Z</time>
      </trkpt>
      <trkpt lat="45.68269" lon="6.41969">
        <ele>728.6</ele>
        <time>2021-07-11T07:33:59Z</time>
      </trkpt>
      <trkpt lat="45.68266" lon="6.4196">
        <ele>729</ele>
        <time>2021-07-11T07:34:03Z</time>
      </trkpt>
      <trkpt lat="45.68261" lon="6.41951">
        <ele>729.4</ele>
        <time>2021-07-11T07:34:07Z</time>
      </trkpt>
      <trkpt lat="45.68258" lon="6.41942">
        <ele>729.8</ele>
        <time>2021-07-11T07:34:11Z</time>
      </trkpt>
      <trkpt lat="45.68253" lon="6.41937">
        <ele>730.6</ele>
        <time>2021-07-11T07:34:15Z</time>
      </trkpt>
      <trkpt lat="45.6825" lon="6.4193">
        <ele>731.4</ele>
        <time>2021-07-11T07:34:19Z</time>
      </trkpt>
      <trkpt lat="45.68245" lon="6.41924">
        <ele>732.2</ele>
        <time>2021-07-11T07:34:23Z</time>
      </trkpt>
      <trkpt lat="45.6824" lon="6.41918">
        <ele>732.6</ele>
        <time>2021-07-11T07:34:27Z</time>
      </trkpt>
      <trkpt lat="45.68237" lon="6.41912">
        <ele>733.6</ele>
        <time>2021-07-11T07:34:31Z</time>
      </trkpt>
      <trkpt lat="45.68233" lon="6.41905">
        <ele>734</ele>
        <time>2021-07-11T07:34:35Z</time>
      </trkpt>
      <trkpt lat="45.68228" lon="6.419">
        <ele>734.6</ele>
        <time>2021-07-11T07:34:39Z</time>
      </trkpt>
      <trkpt lat="45.68225" lon="6.41893">
        <ele>735.2</ele>
        <time>2021-07-11T07:34:43Z</time>
      </trkpt>
      <trkpt lat="45.6822" lon="6.41886">
        <ele>735.8</ele>
        <time>2021-07-11T07:34:47Z</time>
      </trkpt>
      <trkpt lat="45.68215" lon="6.4188">
        <ele>736</ele>
        <time>2021-07-11T07:34:51Z</time>
      </trkpt>
      <trkpt lat="45.68211" lon="6.41873">
        <ele>736.6</ele>
        <time>2021-07-11T07:34:55Z</time>
      </trkpt>
      <trkpt lat="45.6821" lon="6.41866">
        <ele>737.6</ele>
        <time>2021-07-11T07:34:59Z</time>
      </trkpt>
      <trkpt lat="45.68208" lon="6.41857">
        <ele>738</ele>
        <time>2021-07-11T07:35:03Z</time>
      </trkpt>
      <trkpt lat="45.68206" lon="6.41847">
        <ele>738.8</ele>
        <time>2021-07-11T07:35:07Z</time>
      </trkpt>
      <trkpt lat="45.68202" lon="6.41837">
        <ele>739.2</ele>
        <time>2021-07-11T07:35:11Z</time>
      </trkpt>
      <trkpt lat="45.68198" lon="6.41828">
        <ele>740.6</ele>
        <time>2021-07-11T07:35:15Z</time>
      </trkpt>
      <trkpt lat="45.68195" lon="6.41818">
        <ele>741.2</ele>
        <time>2021-07-11T07:35:19Z</time>
      </trkpt>
      <trkpt lat="45.68191" lon="6.41809">
        <ele>741.6</ele>
        <time>2021-07-11T07:35:23Z</time>
      </trkpt>
      <trkpt lat="45.68188" lon="6.41797">
        <ele>741.8</ele>
        <time>2021-07-11T07:35:27Z</time>
      </trkpt>
      <trkpt lat="45.68186" lon="6.41787">
        <ele>742.4</ele>
        <time>2021-07-11T07:35:31Z</time>
      </trkpt>
      <trkpt lat="45.68183" lon="6.41779">
        <ele>743.2</ele>
        <time>2021-07-11T07:35:35Z</time>
      </trkpt>
      <trkpt lat="45.68179" lon="6.4177">
        <ele>743.4</ele>
        <time>2021-07-11T07:35:39Z</time>
      </trkpt>
      <trkpt lat="45.68173" lon="6.41765">
        <ele>744.2</ele>
        <time>2021-07-11T07:35:43Z</time>
      </trkpt>
      <trkpt lat="45.68165" lon="6.41763">
        <ele>744.8</ele>
        <time>2021-07-11T07:35:47Z</time>
      </trkpt>
      <trkpt lat="45.6816" lon="6.41765">
        <ele>745.4</ele>
        <time>2021-07-11T07:35:51Z</time>
      </trkpt>
      <trkpt lat="45.68157" lon="6.41771">
        <ele>745.8</ele>
        <time>2021-07-11T07:35:55Z</time>
      </trkpt>
      <trkpt lat="45.68157" lon="6.41782">
        <ele>746</ele>
        <time>2021-07-11T07:35:59Z</time>
      </trkpt>
      <trkpt lat="45.6816" lon="6.41787">
        <ele>746.4</ele>
        <time>2021-07-11T07:36:03Z</time>
      </trkpt>
      <trkpt lat="45.68162" lon="6.41793">
        <ele>747.8</ele>
        <time>2021-07-11T07:36:07Z</time>
      </trkpt>
      <trkpt lat="45.68167" lon="6.418">
        <ele>747.6</ele>
        <time>2021-07-11T07:36:11Z</time>
      </trkpt>
      <trkpt lat="45.68171" lon="6.41811">
        <ele>748.2</ele>
        <time>2021-07-11T07:36:15Z</time>
      </trkpt>
      <trkpt lat="45.68173" lon="6.41821">
        <ele>748.2</ele>
        <time>2021-07-11T07:36:19Z</time>
      </trkpt>
      <trkpt lat="45.68171" lon="6.41832">
        <ele>749</ele>
        <time>2021-07-11T07:36:23Z</time>
      </trkpt>
      <trkpt lat="45.68175" lon="6.41842">
        <ele>749.6</ele>
        <time>2021-07-11T07:36:27Z</time>
      </trkpt>
      <trkpt lat="45.6818" lon="6.41853">
        <ele>750.4</ele>
        <time>2021-07-11T07:36:31Z</time>
      </trkpt>
      <trkpt lat="45.68183" lon="6.41862">
        <ele>751</ele>
        <time>2021-07-11T07:36:35Z</time>
      </trkpt>
      <trkpt lat="45.68187" lon="6.41871">
        <ele>751.4</ele>
        <time>2021-07-11T07:36:39Z</time>
      </trkpt>
      <trkpt lat="45.6819" lon="6.41878">
        <ele>752</ele>
        <time>2021-07-11T07:36:43Z</time>
      </trkpt>
      <trkpt lat="45.68194" lon="6.41887">
        <ele>752.4</ele>
        <time>2021-07-11T07:36:47Z</time>
      </trkpt>
      <trkpt lat="45.68198" lon="6.41897">
        <ele>753.4</ele>
        <time>2021-07-11T07:36:51Z</time>
      </trkpt>
      <trkpt lat="45.68201" lon="6.41908">
        <ele>754</ele>
        <time>2021-07-11T07:36:55Z</time>
      </trkpt>
      <trkpt lat="45.68203" lon="6.4192">
        <ele>754.6</ele>
        <time>2021-07-11T07:36:59Z</time>
      </trkpt>
      <trkpt lat="45.68202" lon="6.4193">
        <ele>755.6</ele>
        <time>2021-07-11T07:37:03Z</time>
      </trkpt>
      <trkpt lat="45.68207" lon="6.41937">
        <ele>756</ele>
        <time>2021-07-11T07:37:07Z</time>
      </trkpt>
      <trkpt lat="45.68205" lon="6.41953">
        <ele>757</ele>
        <time>2021-07-11T07:37:11Z</time>
      </trkpt>
      <trkpt lat="45.68209" lon="6.41961">
        <ele>757.4</ele>
        <time>2021-07-11T07:37:15Z</time>
      </trkpt>
      <trkpt lat="45.68211" lon="6.41971">
        <ele>757.6</ele>
        <time>2021-07-11T07:37:19Z</time>
      </trkpt>
      <trkpt lat="45.68214" lon="6.41981">
        <ele>758.8</ele>
        <time>2021-07-11T07:37:23Z</time>
      </trkpt>
      <trkpt lat="45.68215" lon="6.41989">
        <ele>759.2</ele>
        <time>2021-07-11T07:37:27Z</time>
      </trkpt>
      <trkpt lat="45.68207" lon="6.42008">
        <ele>759.8</ele>
        <time>2021-07-11T07:37:31Z</time>
      </trkpt>
      <trkpt lat="45.68207" lon="6.42019">
        <ele>760.4</ele>
        <time>2021-07-11T07:37:35Z</time>
      </trkpt>
      <trkpt lat="45.68206" lon="6.42032">
        <ele>761.2</ele>
        <time>2021-07-11T07:37:39Z</time>
      </trkpt>
      <trkpt lat="45.68205" lon="6.42043">
        <ele>761.6</ele>
        <time>2021-07-11T07:37:43Z</time>
      </trkpt>
      <trkpt lat="45.68211" lon="6.42051">
        <ele>762.6</ele>
        <time>2021-07-11T07:37:47Z</time>
      </trkpt>
      <trkpt lat="45.68218" lon="6.42058">
        <ele>763.2</ele>
        <time>2021-07-11T07:37:51Z</time>
      </trkpt>
      <trkpt lat="45.68219" lon="6.42073">
        <ele>763.6</ele>
        <time>2021-07-11T07:37:55Z</time>
      </trkpt>
      <trkpt lat="45.68217" lon="6.42084">
        <ele>764.8</ele>
        <time>2021-07-11T07:37:59Z</time>
      </trkpt>
      <trkpt lat="45.68223" lon="6.42093">
        <ele>764.6</ele>
        <time>2021-07-11T07:38:03Z</time>
      </trkpt>
      <trkpt lat="45.68226" lon="6.42103">
        <ele>765.4</ele>
        <time>2021-07-11T07:38:07Z</time>
      </trkpt>
      <trkpt lat="45.6823" lon="6.42117">
        <ele>765.4</ele>
        <time>2021-07-11T07:38:11Z</time>
      </trkpt>
      <trkpt lat="45.68235" lon="6.42128">
        <ele>766.2</ele>
        <time>2021-07-11T07:38:15Z</time>
      </trkpt>
      <trkpt lat="45.68246" lon="6.42136">
        <ele>767</ele>
        <time>2021-07-11T07:38:19Z</time>
      </trkpt>
      <trkpt lat="45.68256" lon="6.42144">
        <ele>767.6</ele>
        <time>2021-07-11T07:38:23Z</time>
      </trkpt>
      <trkpt lat="45.68258" lon="6.42151">
        <ele>768.4</ele>
        <time>2021-07-11T07:38:27Z</time>
      </trkpt>
      <trkpt lat="45.68264" lon="6.42161">
        <ele>769.2</ele>
        <time>2021-07-11T07:38:31Z</time>
      </trkpt>
      <trkpt lat="45.68269" lon="6.42171">
        <ele>769.6</ele>
        <time>2021-07-11T07:38:35Z</time>
      </trkpt>
      <trkpt lat="45.68271" lon="6.42181">
        <ele>770.6</ele>
        <time>2021-07-11T07:38:39Z</time>
      </trkpt>
      <trkpt lat="45.68275" lon="6.42189">
        <ele>770.8</ele>
        <time>2021-07-11T07:38:43Z</time>
      </trkpt>
      <trkpt lat="45.68275" lon="6.42198">
        <ele>771.4</ele>
        <time>2021-07-11T07:38:47Z</time>
      </trkpt>
      <trkpt lat="45.68277" lon="6.42206">
        <ele>772.2</ele>
        <time>2021-07-11T07:38:51Z</time>
      </trkpt>
      <trkpt lat="45.68279" lon="6.42213">
        <ele>773</ele>
        <time>2021-07-11T07:38:55Z</time>
      </trkpt>
      <trkpt lat="45.68282" lon="6.42222">
        <ele>773.4</ele>
        <time>2021-07-11T07:38:59Z</time>
      </trkpt>
      <trkpt lat="45.68288" lon="6.42229">
        <ele>774</ele>
        <time>2021-07-11T07:39:03Z</time>
      </trkpt>
      <trkpt lat="45.68293" lon="6.42241">
        <ele>775.2</ele>
        <time>2021-07-11T07:39:07Z</time>
      </trkpt>
      <trkpt lat="45.68292" lon="6.42252">
        <ele>775.4</ele>
        <time>2021-07-11T07:39:11Z</time>
      </trkpt>
      <trkpt lat="45.68291" lon="6.42264">
        <ele>776.2</ele>
        <time>2021-07-11T07:39:15Z</time>
      </trkpt>
      <trkpt lat="45.68294" lon="6.42276">
        <ele>776.4</ele>
        <time>2021-07-11T07:39:19Z</time>
      </trkpt>
      <trkpt lat="45.68301" lon="6.42285">
        <ele>777.2</ele>
        <time>2021-07-11T07:39:23Z</time>
      </trkpt>
      <trkpt lat="45.68307" lon="6.42294">
        <ele>777.8</ele>
        <time>2021-07-11T07:39:27Z</time>
      </trkpt>
      <trkpt lat="45.68313" lon="6.42302">
        <ele>778</ele>
        <time>2021-07-11T07:39:31Z</time>
      </trkpt>
      <trkpt lat="45.68319" lon="6.42311">
        <ele>778.2</ele>
        <time>2021-07-11T07:39:35Z</time>
      </trkpt>
      <trkpt lat="45.68326" lon="6.4232">
        <ele>779</ele>
        <time>2021-07-11T07:39:39Z</time>
      </trkpt>
      <trkpt lat="45.68333" lon="6.4233">
        <ele>779.6</ele>
        <time>2021-07-11T07:39:43Z</time>
      </trkpt>
      <trkpt lat="45.68337" lon="6.42341">
        <ele>780</ele>
        <time>2021-07-11T07:39:47Z</time>
      </trkpt>
      <trkpt lat="45.68328" lon="6.42342">
        <ele>780.8</ele>
        <time>2021-07-11T07:39:51Z</time>
      </trkpt>
      <trkpt lat="45.68321" lon="6.42337">
        <ele>781.2</ele>
        <time>2021-07-11T07:39:55Z</time>
      </trkpt>
      <trkpt lat="45.68317" lon="6.42327">
        <ele>782</ele>
        <time>2021-07-11T07:39:59Z</time>
      </trkpt>
      <trkpt lat="45.68314" lon="6.42318">
        <ele>782.8</ele>
        <time>2021-07-11T07:40:03Z</time>
      </trkpt>
      <trkpt lat="45.68308" lon="6.4231">
        <ele>783</ele>
        <time>2021-07-11T07:40:07Z</time>
      </trkpt>
      <trkpt lat="45.68303" lon="6.42301">
        <ele>784.2</ele>
        <time>2021-07-11T07:40:11Z</time>
      </trkpt>
      <trkpt lat="45.68298" lon="6.42293">
        <ele>784.8</ele>
        <time>2021-07-11T07:40:15Z</time>
      </trkpt>
      <trkpt lat="45.68295" lon="6.4229">
        <ele>785.2</ele>
        <time>2021-07-11T07:40:19Z</time>
      </trkpt>
      <trkpt lat="45.68284" lon="6.42283">
        <ele>786.2</ele>
        <time>2021-07-11T07:40:23Z</time>
      </trkpt>
      <trkpt lat="45.6828" lon="6.42276">
        <ele>786.6</ele>
        <time>2021-07-11T07:40:27Z</time>
      </trkpt>
      <trkpt lat="45.68276" lon="6.42268">
        <ele>787.4</ele>
        <time>2021-07-11T07:40:31Z</time>
      </trkpt>
      <trkpt lat="45.68272" lon="6.42259">
        <ele>787.6</ele>
        <time>2021-07-11T07:40:35Z</time>
      </trkpt>
      <trkpt lat="45.68267" lon="6.42252">
        <ele>788</ele>
        <time>2021-07-11T07:40:39Z</time>
      </trkpt>
      <trkpt lat="45.68262" lon="6.42247">
        <ele>788.6</ele>
        <time>2021-07-11T07:40:43Z</time>
      </trkpt>
      <trkpt lat="45.68257" lon="6.42242">
        <ele>789</ele>
        <time>2021-07-11T07:40:47Z</time>
      </trkpt>
      <trkpt lat="45.68253" lon="6.42236">
        <ele>790</ele>
        <time>2021-07-11T07:40:51Z</time>
      </trkpt>
      <trkpt lat="45.68248" lon="6.42228">
        <ele>790.8</ele>
        <time>2021-07-11T07:40:55Z</time>
      </trkpt>
      <trkpt lat="45.68242" lon="6.42223">
        <ele>791.6</ele>
        <time>2021-07-11T07:40:59Z</time>
      </trkpt>
      <trkpt lat="45.68238" lon="6.42217">
        <ele>792.2</ele>
        <time>2021-07-11T07:41:03Z</time>
      </trkpt>
      <trkpt lat="45.68232" lon="6.42213">
        <ele>792.6</ele>
        <time>2021-07-11T07:41:07Z</time>
      </trkpt>
      <trkpt lat="45.68227" lon="6.42207">
        <ele>793</ele>
        <time>2021-07-11T07:41:11Z</time>
      </trkpt>
      <trkpt lat="45.68222" lon="6.42202">
        <ele>793.4</ele>
        <time>2021-07-11T07:41:15Z</time>
      </trkpt>
      <trkpt lat="45.68219" lon="6.42194">
        <ele>794.4</ele>
        <time>2021-07-11T07:41:19Z</time>
      </trkpt>
      <trkpt lat="45.68219" lon="6.42194">
        <ele>795.2</ele>
        <time>2021-07-11T07:41:23Z</time>
      </trkpt>
      <trkpt lat="45.68215" lon="6.4219">
        <ele>796</ele>
        <time>2021-07-11T07:41:27Z</time>
      </trkpt>
      <trkpt lat="45.6821" lon="6.42182">
        <ele>796.6</ele>
        <time>2021-07-11T07:41:31Z</time>
      </trkpt>
      <trkpt lat="45.68202" lon="6.4217">
        <ele>797.2</ele>
        <time>2021-07-11T07:41:35Z</time>
      </trkpt>
      <trkpt lat="45.68195" lon="6.42164">
        <ele>797.8</ele>
        <time>2021-07-11T07:41:39Z</time>
      </trkpt>
      <trkpt lat="45.6819" lon="6.42158">
        <ele>798.8</ele>
        <time>2021-07-11T07:41:43Z</time>
      </trkpt>
      <trkpt lat="45.68189" lon="6.42153">
        <ele>799.6</ele>
        <time>2021-07-11T07:41:47Z</time>
      </trkpt>
      <trkpt lat="45.68188" lon="6.42146">
        <ele>800.4</ele>
        <time>2021-07-11T07:41:51Z</time>
      </trkpt>
      <trkpt lat="45.68187" lon="6.42138">
        <ele>800.8</ele>
        <time>2021-07-11T07:41:55Z</time>
      </trkpt>
      <trkpt lat="45.68189" lon="6.42133">
        <ele>801.4</ele>
        <time>2021-07-11T07:41:59Z</time>
      </trkpt>
      <trkpt lat="45.68184" lon="6.42121">
        <ele>801.6</ele>
        <time>2021-07-11T07:42:03Z</time>
      </trkpt>
      <trkpt lat="45.68183" lon="6.42108">
        <ele>802.4</ele>
        <time>2021-07-11T07:42:07Z</time>
      </trkpt>
      <trkpt lat="45.68182" lon="6.42098">
        <ele>803</ele>
        <time>2021-07-11T07:42:11Z</time>
      </trkpt>
      <trkpt lat="45.68181" lon="6.42087">
        <ele>803.4</ele>
        <time>2021-07-11T07:42:15Z</time>
      </trkpt>
      <trkpt lat="45.68179" lon="6.42077">
        <ele>803.8</ele>
        <time>2021-07-11T07:42:19Z</time>
      </trkpt>
      <trkpt lat="45.68177" lon="6.42067">
        <ele>804.6</ele>
        <time>2021-07-11T07:42:23Z</time>
      </trkpt>
      <trkpt lat="45.68173" lon="6.42056">
        <ele>805</ele>
        <time>2021-07-11T07:42:27Z</time>
      </trkpt>
      <trkpt lat="45.68168" lon="6.42046">
        <ele>805.6</ele>
        <time>2021-07-11T07:42:31Z</time>
      </trkpt>
      <trkpt lat="45.68163" lon="6.42038">
        <ele>806</ele>
        <time>2021-07-11T07:42:35Z</time>
      </trkpt>
      <trkpt lat="45.68158" lon="6.42031">
        <ele>807.2</ele>
        <time>2021-07-11T07:42:39Z</time>
      </trkpt>
      <trkpt lat="45.68153" lon="6.42024">
        <ele>807.4</ele>
        <time>2021-07-11T07:42:43Z</time>
      </trkpt>
      <trkpt lat="45.68147" lon="6.42016">
        <ele>807.8</ele>
        <time>2021-07-11T07:42:47Z</time>
      </trkpt>
      <trkpt lat="45.68142" lon="6.42008">
        <ele>808.6</ele>
        <time>2021-07-11T07:42:51Z</time>
      </trkpt>
      <trkpt lat="45.68136" lon="6.42001">
        <ele>809.2</ele>
        <time>2021-07-11T07:42:55Z</time>
      </trkpt>
      <trkpt lat="45.6813" lon="6.41992">
        <ele>809.4</ele>
        <time>2021-07-11T07:42:59Z</time>
      </trkpt>
      <trkpt lat="45.68123" lon="6.41984">
        <ele>810.2</ele>
        <time>2021-07-11T07:43:03Z</time>
      </trkpt>
      <trkpt lat="45.68117" lon="6.41977">
        <ele>810.8</ele>
        <time>2021-07-11T07:43:07Z</time>
      </trkpt>
      <trkpt lat="45.6811" lon="6.41969">
        <ele>811.2</ele>
        <time>2021-07-11T07:43:11Z</time>
      </trkpt>
      <trkpt lat="45.68104" lon="6.41961">
        <ele>811.4</ele>
        <time>2021-07-11T07:43:15Z</time>
      </trkpt>
      <trkpt lat="45.68097" lon="6.41954">
        <ele>812</ele>
        <time>2021-07-11T07:43:19Z</time>
      </trkpt>
      <trkpt lat="45.68089" lon="6.41947">
        <ele>813.2</ele>
        <time>2021-07-11T07:43:23Z</time>
      </trkpt>
      <trkpt lat="45.68081" lon="6.41941">
        <ele>813.6</ele>
        <time>2021-07-11T07:43:27Z</time>
      </trkpt>
      <trkpt lat="45.68073" lon="6.41935">
        <ele>813.6</ele>
        <time>2021-07-11T07:43:31Z</time>
      </trkpt>
      <trkpt lat="45.68066" lon="6.41931">
        <ele>814</ele>
        <time>2021-07-11T07:43:35Z</time>
      </trkpt>
      <trkpt lat="45.68059" lon="6.41926">
        <ele>815</ele>
        <time>2021-07-11T07:43:39Z</time>
      </trkpt>
      <trkpt lat="45.68051" lon="6.41921">
        <ele>816</ele>
        <time>2021-07-11T07:43:43Z</time>
      </trkpt>
      <trkpt lat="45.68043" lon="6.41916">
        <ele>816</ele>
        <time>2021-07-11T07:43:47Z</time>
      </trkpt>
      <trkpt lat="45.68035" lon="6.41911">
        <ele>816.4</ele>
        <time>2021-07-11T07:43:51Z</time>
      </trkpt>
      <trkpt lat="45.68026" lon="6.41907">
        <ele>816.6</ele>
        <time>2021-07-11T07:43:55Z</time>
      </trkpt>
      <trkpt lat="45.68017" lon="6.4191">
        <ele>817.8</ele>
        <time>2021-07-11T07:43:59Z</time>
      </trkpt>
      <trkpt lat="45.68012" lon="6.41919">
        <ele>817.8</ele>
        <time>2021-07-11T07:44:03Z</time>
      </trkpt>
      <trkpt lat="45.68012" lon="6.41931">
        <ele>818.6</ele>
        <time>2021-07-11T07:44:07Z</time>
      </trkpt>
      <trkpt lat="45.68017" lon="6.4194">
        <ele>818.8</ele>
        <time>2021-07-11T07:44:11Z</time>
      </trkpt>
      <trkpt lat="45.68025" lon="6.41946">
        <ele>819.4</ele>
        <time>2021-07-11T07:44:15Z</time>
      </trkpt>
      <trkpt lat="45.68033" lon="6.4195">
        <ele>820.6</ele>
        <time>2021-07-11T07:44:19Z</time>
      </trkpt>
      <trkpt lat="45.68039" lon="6.41951">
        <ele>821.2</ele>
        <time>2021-07-11T07:44:23Z</time>
      </trkpt>
      <trkpt lat="45.68046" lon="6.41955">
        <ele>821.6</ele>
        <time>2021-07-11T07:44:27Z</time>
      </trkpt>
      <trkpt lat="45.68054" lon="6.41958">
        <ele>822</ele>
        <time>2021-07-11T07:44:31Z</time>
      </trkpt>
      <trkpt lat="45.68061" lon="6.41962">
        <ele>822.8</ele>
        <time>2021-07-11T07:44:35Z</time>
      </trkpt>
      <trkpt lat="45.68069" lon="6.41967">
        <ele>823.8</ele>
        <time>2021-07-11T07:44:39Z</time>
      </trkpt>
      <trkpt lat="45.68076" lon="6.41975">
        <ele>823.8</ele>
        <time>2021-07-11T07:44:43Z</time>
      </trkpt>
      <trkpt lat="45.68082" lon="6.41984">
        <ele>823.8</ele>
        <time>2021-07-11T07:44:47Z</time>
      </trkpt>
      <trkpt lat="45.68087" lon="6.41996">
        <ele>824.4</ele>
        <time>2021-07-11T07:44:51Z</time>
      </trkpt>
      <trkpt lat="45.68091" lon="6.42007">
        <ele>824.8</ele>
        <time>2021-07-11T07:44:55Z</time>
      </trkpt>
      <trkpt lat="45.68097" lon="6.42018">
        <ele>825.4</ele>
        <time>2021-07-11T07:44:59Z</time>
      </trkpt>
      <trkpt lat="45.68103" lon="6.42029">
        <ele>825.6</ele>
        <time>2021-07-11T07:45:03Z</time>
      </trkpt>
      <trkpt lat="45.6811" lon="6.42039">
        <ele>826.2</ele>
        <time>2021-07-11T07:45:07Z</time>
      </trkpt>
      <trkpt lat="45.68117" lon="6.42049">
        <ele>826.8</ele>
        <time>2021-07-11T07:45:11Z</time>
      </trkpt>
      <trkpt lat="45.68122" lon="6.4206">
        <ele>827.8</ele>
        <time>2021-07-11T07:45:15Z</time>
      </trkpt>
      <trkpt lat="45.68122" lon="6.42073">
        <ele>827.8</ele>
        <time>2021-07-11T07:45:19Z</time>
      </trkpt>
      <trkpt lat="45.68116" lon="6.42079">
        <ele>828.8</ele>
        <time>2021-07-11T07:45:23Z</time>
      </trkpt>
      <trkpt lat="45.68107" lon="6.42076">
        <ele>829</ele>
        <time>2021-07-11T07:45:27Z</time>
      </trkpt>
      <trkpt lat="45.68102" lon="6.4207">
        <ele>830</ele>
        <time>2021-07-11T07:45:31Z</time>
      </trkpt>
      <trkpt lat="45.68097" lon="6.42061">
        <ele>831.2</ele>
        <time>2021-07-11T07:45:35Z</time>
      </trkpt>
      <trkpt lat="45.68092" lon="6.42051">
        <ele>831.2</ele>
        <time>2021-07-11T07:45:39Z</time>
      </trkpt>
      <trkpt lat="45.68087" lon="6.42041">
        <ele>831.8</ele>
        <time>2021-07-11T07:45:43Z</time>
      </trkpt>
      <trkpt lat="45.68082" lon="6.42032">
        <ele>832.4</ele>
        <time>2021-07-11T07:45:47Z</time>
      </trkpt>
      <trkpt lat="45.68077" lon="6.42023">
        <ele>832.6</ele>
        <time>2021-07-11T07:45:51Z</time>
      </trkpt>
      <trkpt lat="45.68071" lon="6.42014">
        <ele>833.2</ele>
        <time>2021-07-11T07:45:55Z</time>
      </trkpt>
      <trkpt lat="45.68064" lon="6.42007">
        <ele>834</ele>
        <time>2021-07-11T07:45:59Z</time>
      </trkpt>
      <trkpt lat="45.68056" lon="6.42002">
        <ele>834.6</ele>
        <time>2021-07-11T07:46:03Z</time>
      </trkpt>
      <trkpt lat="45.6805" lon="6.41998">
        <ele>835</ele>
        <time>2021-07-11T07:46:07Z</time>
      </trkpt>
      <trkpt lat="45.68043" lon="6.41998">
        <ele>836</ele>
        <time>2021-07-11T07:46:11Z</time>
      </trkpt>
      <trkpt lat="45.68038" lon="6.41997">
        <ele>836</ele>
        <time>2021-07-11T07:46:15Z</time>
      </trkpt>
      <trkpt lat="45.68033" lon="6.41998">
        <ele>837.2</ele>
        <time>2021-07-11T07:46:19Z</time>
      </trkpt>
      <trkpt lat="45.68026" lon="6.41997">
        <ele>837.6</ele>
        <time>2021-07-11T07:46:23Z</time>
      </trkpt>
      <trkpt lat="45.68017" lon="6.41997">
        <ele>838.6</ele>
        <time>2021-07-11T07:46:27Z</time>
      </trkpt>
      <trkpt lat="45.68007" lon="6.41998">
        <ele>839</ele>
        <time>2021-07-11T07:46:31Z</time>
      </trkpt>
      <trkpt lat="45.68" lon="6.41996">
        <ele>839.6</ele>
        <time>2021-07-11T07:46:35Z</time>
      </trkpt>
      <trkpt lat="45.67992" lon="6.41991">
        <ele>840</ele>
        <time>2021-07-11T07:46:39Z</time>
      </trkpt>
      <trkpt lat="45.67984" lon="6.41981">
        <ele>840.6</ele>
        <time>2021-07-11T07:46:43Z</time>
      </trkpt>
      <trkpt lat="45.67978" lon="6.41971">
        <ele>841.4</ele>
        <time>2021-07-11T07:46:47Z</time>
      </trkpt>
      <trkpt lat="45.67972" lon="6.41963">
        <ele>842</ele>
        <time>2021-07-11T07:46:51Z</time>
      </trkpt>
      <trkpt lat="45.67964" lon="6.41956">
        <ele>842.6</ele>
        <time>2021-07-11T07:46:55Z</time>
      </trkpt>
      <trkpt lat="45.67958" lon="6.41952">
        <ele>842.8</ele>
        <time>2021-07-11T07:46:59Z</time>
      </trkpt>
      <trkpt lat="45.67952" lon="6.41945">
        <ele>843.8</ele>
        <time>2021-07-11T07:47:03Z</time>
      </trkpt>
      <trkpt lat="45.67947" lon="6.41939">
        <ele>844.2</ele>
        <time>2021-07-11T07:47:07Z</time>
      </trkpt>
      <trkpt lat="45.67941" lon="6.41934">
        <ele>844.6</ele>
        <time>2021-07-11T07:47:11Z</time>
      </trkpt>
      <trkpt lat="45.67938" lon="6.41929">
        <ele>845.4</ele>
        <time>2021-07-11T07:47:15Z</time>
      </trkpt>
      <trkpt lat="45.67931" lon="6.41924">
        <ele>845.8</ele>
        <time>2021-07-11T07:47:19Z</time>
      </trkpt>
      <trkpt lat="45.67924" lon="6.41914">
        <ele>846</ele>
        <time>2021-07-11T07:47:23Z</time>
      </trkpt>
      <trkpt lat="45.67916" lon="6.41906">
        <ele>846.4</ele>
        <time>2021-07-11T07:47:27Z</time>
      </trkpt>
      <trkpt lat="45.67908" lon="6.419">
        <ele>846.8</ele>
        <time>2021-07-11T07:47:31Z</time>
      </trkpt>
      <trkpt lat="45.67901" lon="6.419">
        <ele>847.8</ele>
        <time>2021-07-11T07:47:35Z</time>
      </trkpt>
      <trkpt lat="45.67894" lon="6.41904">
        <ele>848</ele>
        <time>2021-07-11T07:47:39Z</time>
      </trkpt>
      <trkpt lat="45.67894" lon="6.41914">
        <ele>848.8</ele>
        <time>2021-07-11T07:47:43Z</time>
      </trkpt>
      <trkpt lat="45.67898" lon="6.41921">
        <ele>849.6</ele>
        <time>2021-07-11T07:47:47Z</time>
      </trkpt>
      <trkpt lat="45.67903" lon="6.41925">
        <ele>850.4</ele>
        <time>2021-07-11T07:47:51Z</time>
      </trkpt>
      <trkpt lat="45.67912" lon="6.41929">
        <ele>850.4</ele>
        <time>2021-07-11T07:47:55Z</time>
      </trkpt>
      <trkpt lat="45.67918" lon="6.41935">
        <ele>851.4</ele>
        <time>2021-07-11T07:47:59Z</time>
      </trkpt>
      <trkpt lat="45.67919" lon="6.41943">
        <ele>852.4</ele>
        <time>2021-07-11T07:48:03Z</time>
      </trkpt>
      <trkpt lat="45.67922" lon="6.41952">
        <ele>853</ele>
        <time>2021-07-11T07:48:07Z</time>
      </trkpt>
      <trkpt lat="45.67921" lon="6.41963">
        <ele>853.4</ele>
        <time>2021-07-11T07:48:11Z</time>
      </trkpt>
      <trkpt lat="45.67921" lon="6.41972">
        <ele>854.2</ele>
        <time>2021-07-11T07:48:15Z</time>
      </trkpt>
      <trkpt lat="45.67924" lon="6.41978">
        <ele>854.8</ele>
        <time>2021-07-11T07:48:19Z</time>
      </trkpt>
      <trkpt lat="45.67927" lon="6.41987">
        <ele>855.4</ele>
        <time>2021-07-11T07:48:23Z</time>
      </trkpt>
      <trkpt lat="45.67931" lon="6.41994">
        <ele>856</ele>
        <time>2021-07-11T07:48:27Z</time>
      </trkpt>
      <trkpt lat="45.67934" lon="6.42001">
        <ele>856.2</ele>
        <time>2021-07-11T07:48:31Z</time>
      </trkpt>
      <trkpt lat="45.6794" lon="6.42009">
        <ele>856.8</ele>
        <time>2021-07-11T07:48:35Z</time>
      </trkpt>
      <trkpt lat="45.67948" lon="6.42014">
        <ele>858</ele>
        <time>2021-07-11T07:48:39Z</time>
      </trkpt>
      <trkpt lat="45.67956" lon="6.4202">
        <ele>858</ele>
        <time>2021-07-11T07:48:43Z</time>
      </trkpt>
      <trkpt lat="45.67962" lon="6.42025">
        <ele>858.6</ele>
        <time>2021-07-11T07:48:47Z</time>
      </trkpt>
      <trkpt lat="45.67966" lon="6.42029">
        <ele>859.8</ele>
        <time>2021-07-11T07:48:51Z</time>
      </trkpt>
      <trkpt lat="45.67972" lon="6.42033">
        <ele>860</ele>
        <time>2021-07-11T07:48:55Z</time>
      </trkpt>
      <trkpt lat="45.67982" lon="6.42041">
        <ele>860.8</ele>
        <time>2021-07-11T07:48:59Z</time>
      </trkpt>
      <trkpt lat="45.67987" lon="6.4205">
        <ele>861.2</ele>
        <time>2021-07-11T07:49:03Z</time>
      </trkpt>
      <trkpt lat="45.67993" lon="6.42058">
        <ele>862</ele>
        <time>2021-07-11T07:49:07Z</time>
      </trkpt>
      <trkpt lat="45.67999" lon="6.42065">
        <ele>862.2</ele>
        <time>2021-07-11T07:49:11Z</time>
      </trkpt>
      <trkpt lat="45.68003" lon="6.42072">
        <ele>863</ele>
        <time>2021-07-11T07:49:15Z</time>
      </trkpt>
      <trkpt lat="45.68006" lon="6.4208">
        <ele>863.8</ele>
        <time>2021-07-11T07:49:19Z</time>
      </trkpt>
      <trkpt lat="45.6801" lon="6.42086">
        <ele>864.4</ele>
        <time>2021-07-11T07:49:23Z</time>
      </trkpt>
      <trkpt lat="45.68014" lon="6.42093">
        <ele>865</ele>
        <time>2021-07-11T07:49:27Z</time>
      </trkpt>
      <trkpt lat="45.68019" lon="6.42102">
        <ele>865.2</ele>
        <time>2021-07-11T07:49:31Z</time>
      </trkpt>
      <trkpt lat="45.68023" lon="6.4211">
        <ele>866.2</ele>
        <time>2021-07-11T07:49:35Z</time>
      </trkpt>
      <trkpt lat="45.68031" lon="6.42116">
        <ele>866.6</ele>
        <time>2021-07-11T07:49:39Z</time>
      </trkpt>
      <trkpt lat="45.68038" lon="6.42123">
        <ele>867</ele>
        <time>2021-07-11T07:49:43Z</time>
      </trkpt>
      <trkpt lat="45.68044" lon="6.4213">
        <ele>867.6</ele>
        <time>2021-07-11T07:49:47Z</time>
      </trkpt>
      <trkpt lat="45.68049" lon="6.42136">
        <ele>868.8</ele>
        <time>2021-07-11T07:49:51Z</time>
      </trkpt>
      <trkpt lat="45.68055" lon="6.42144">
        <ele>869</ele>
        <time>2021-07-11T07:49:55Z</time>
      </trkpt>
      <trkpt lat="45.68057" lon="6.42152">
        <ele>869.8</ele>
        <time>2021-07-11T07:49:59Z</time>
      </trkpt>
      <trkpt lat="45.68057" lon="6.4216">
        <ele>870.4</ele>
        <time>2021-07-11T07:50:03Z</time>
      </trkpt>
      <trkpt lat="45.68058" lon="6.42168">
        <ele>870.8</ele>
        <time>2021-07-11T07:50:07Z</time>
      </trkpt>
      <trkpt lat="45.68056" lon="6.42176">
        <ele>871.2</ele>
        <time>2021-07-11T07:50:11Z</time>
      </trkpt>
      <trkpt lat="45.68057" lon="6.42184">
        <ele>872.4</ele>
        <time>2021-07-11T07:50:15Z</time>
      </trkpt>
      <trkpt lat="45.68057" lon="6.42197">
        <ele>872.8</ele>
        <time>2021-07-11T07:50:19Z</time>
      </trkpt>
      <trkpt lat="45.68059" lon="6.42207">
        <ele>873.4</ele>
        <time>2021-07-11T07:50:23Z</time>
      </trkpt>
      <trkpt lat="45.68062" lon="6.42216">
        <ele>873.6</ele>
        <time>2021-07-11T07:50:27Z</time>
      </trkpt>
      <trkpt lat="45.68068" lon="6.42226">
        <ele>874.4</ele>
        <time>2021-07-11T07:50:31Z</time>
      </trkpt>
      <trkpt lat="45.68073" lon="6.42236">
        <ele>874.4</ele>
        <time>2021-07-11T07:50:35Z</time>
      </trkpt>
      <trkpt lat="45.68076" lon="6.42247">
        <ele>875</ele>
        <time>2021-07-11T07:50:39Z</time>
      </trkpt>
      <trkpt lat="45.68075" lon="6.42259">
        <ele>875.4</ele>
        <time>2021-07-11T07:50:43Z</time>
      </trkpt>
      <trkpt lat="45.68074" lon="6.42271">
        <ele>875.4</ele>
        <time>2021-07-11T07:50:47Z</time>
      </trkpt>
      <trkpt lat="45.68075" lon="6.42283">
        <ele>876</ele>
        <time>2021-07-11T07:50:51Z</time>
      </trkpt>
      <trkpt lat="45.68077" lon="6.42296">
        <ele>876.4</ele>
        <time>2021-07-11T07:50:55Z</time>
      </trkpt>
      <trkpt lat="45.68078" lon="6.42308">
        <ele>876.8</ele>
        <time>2021-07-11T07:50:59Z</time>
      </trkpt>
      <trkpt lat="45.68078" lon="6.42319">
        <ele>877.2</ele>
        <time>2021-07-11T07:51:03Z</time>
      </trkpt>
      <trkpt lat="45.68078" lon="6.42331">
        <ele>877.4</ele>
        <time>2021-07-11T07:51:07Z</time>
      </trkpt>
      <trkpt lat="45.68082" lon="6.42343">
        <ele>878</ele>
        <time>2021-07-11T07:51:11Z</time>
      </trkpt>
      <trkpt lat="45.68084" lon="6.42355">
        <ele>878.6</ele>
        <time>2021-07-11T07:51:15Z</time>
      </trkpt>
      <trkpt lat="45.68086" lon="6.42365">
        <ele>879.2</ele>
        <time>2021-07-11T07:51:19Z</time>
      </trkpt>
      <trkpt lat="45.68099" lon="6.42378">
        <ele>879.8</ele>
        <time>2021-07-11T07:51:23Z</time>
      </trkpt>
      <trkpt lat="45.68099" lon="6.42388">
        <ele>880.2</ele>
        <time>2021-07-11T07:51:27Z</time>
      </trkpt>
      <trkpt lat="45.68097" lon="6.42397">
        <ele>880.4</ele>
        <time>2021-07-11T07:51:31Z</time>
      </trkpt>
      <trkpt lat="45.681" lon="6.42408">
        <ele>880.8</ele>
        <time>2021-07-11T07:51:35Z</time>
      </trkpt>
      <trkpt lat="45.681" lon="6.42422">
        <ele>881</ele>
        <time>2021-07-11T07:51:39Z</time>
      </trkpt>
      <trkpt lat="45.68107" lon="6.42432">
        <ele>881.8</ele>
        <time>2021-07-11T07:51:43Z</time>
      </trkpt>
      <trkpt lat="45.68113" lon="6.42436">
        <ele>882</ele>
        <time>2021-07-11T07:51:47Z</time>
      </trkpt>
      <trkpt lat="45.68122" lon="6.42445">
        <ele>882.2</ele>
        <time>2021-07-11T07:51:51Z</time>
      </trkpt>
      <trkpt lat="45.6813" lon="6.42454">
        <ele>883.2</ele>
        <time>2021-07-11T07:51:55Z</time>
      </trkpt>
      <trkpt lat="45.68143" lon="6.42463">
        <ele>884</ele>
        <time>2021-07-11T07:51:59Z</time>
      </trkpt>
      <trkpt lat="45.68144" lon="6.42472">
        <ele>884.6</ele>
        <time>2021-07-11T07:52:03Z</time>
      </trkpt>
      <trkpt lat="45.68142" lon="6.42481">
        <ele>885</ele>
        <time>2021-07-11T07:52:07Z</time>
      </trkpt>
      <trkpt lat="45.68136" lon="6.42481">
        <ele>886.6</ele>
        <time>2021-07-11T07:52:11Z</time>
      </trkpt>
      <trkpt lat="45.6813" lon="6.42475">
        <ele>886.8</ele>
        <time>2021-07-11T07:52:15Z</time>
      </trkpt>
      <trkpt lat="45.68126" lon="6.42467">
        <ele>887.4</ele>
        <time>2021-07-11T07:52:19Z</time>
      </trkpt>
      <trkpt lat="45.68121" lon="6.42459">
        <ele>888.2</ele>
        <time>2021-07-11T07:52:23Z</time>
      </trkpt>
      <trkpt lat="45.68117" lon="6.4245">
        <ele>889</ele>
        <time>2021-07-11T07:52:27Z</time>
      </trkpt>
      <trkpt lat="45.68113" lon="6.42443">
        <ele>889.2</ele>
        <time>2021-07-11T07:52:31Z</time>
      </trkpt>
      <trkpt lat="45.68109" lon="6.42436">
        <ele>889.6</ele>
        <time>2021-07-11T07:52:35Z</time>
      </trkpt>
      <trkpt lat="45.68104" lon="6.42427">
        <ele>890.8</ele>
        <time>2021-07-11T07:52:39Z</time>
      </trkpt>
      <trkpt lat="45.68101" lon="6.42419">
        <ele>891.8</ele>
        <time>2021-07-11T07:52:43Z</time>
      </trkpt>
      <trkpt lat="45.68097" lon="6.42412">
        <ele>892.2</ele>
        <time>2021-07-11T07:52:47Z</time>
      </trkpt>
      <trkpt lat="45.68093" lon="6.42404">
        <ele>893</ele>
        <time>2021-07-11T07:52:51Z</time>
      </trkpt>
      <trkpt lat="45.68088" lon="6.42397">
        <ele>893.6</ele>
        <time>2021-07-11T07:52:55Z</time>
      </trkpt>
      <trkpt lat="45.68084" lon="6.4239">
        <ele>893.8</ele>
        <time>2021-07-11T07:52:59Z</time>
      </trkpt>
      <trkpt lat="45.68081" lon="6.42382">
        <ele>895</ele>
        <time>2021-07-11T07:53:03Z</time>
      </trkpt>
      <trkpt lat="45.68077" lon="6.42375">
        <ele>895.2</ele>
        <time>2021-07-11T07:53:07Z</time>
      </trkpt>
      <trkpt lat="45.68074" lon="6.42366">
        <ele>895.4</ele>
        <time>2021-07-11T07:53:11Z</time>
      </trkpt>
      <trkpt lat="45.68069" lon="6.42359">
        <ele>896.2</ele>
        <time>2021-07-11T07:53:15Z</time>
      </trkpt>
      <trkpt lat="45.68066" lon="6.4235">
        <ele>896.8</ele>
        <time>2021-07-11T07:53:19Z</time>
      </trkpt>
      <trkpt lat="45.68063" lon="6.42341">
        <ele>897.2</ele>
        <time>2021-07-11T07:53:23Z</time>
      </trkpt>
      <trkpt lat="45.68059" lon="6.42332">
        <ele>898.2</ele>
        <time>2021-07-11T07:53:27Z</time>
      </trkpt>
      <trkpt lat="45.68056" lon="6.42323">
        <ele>898.6</ele>
        <time>2021-07-11T07:53:31Z</time>
      </trkpt>
      <trkpt lat="45.68051" lon="6.42315">
        <ele>899.6</ele>
        <time>2021-07-11T07:53:35Z</time>
      </trkpt>
      <trkpt lat="45.68046" lon="6.42308">
        <ele>899.8</ele>
        <time>2021-07-11T07:53:39Z</time>
      </trkpt>
      <trkpt lat="45.68041" lon="6.42302">
        <ele>900.8</ele>
        <time>2021-07-11T07:53:43Z</time>
      </trkpt>
      <trkpt lat="45.68034" lon="6.42295">
        <ele>900.8</ele>
        <time>2021-07-11T07:53:47Z</time>
      </trkpt>
      <trkpt lat="45.68028" lon="6.4229">
        <ele>902</ele>
        <time>2021-07-11T07:53:51Z</time>
      </trkpt>
      <trkpt lat="45.68022" lon="6.42285">
        <ele>903</ele>
        <time>2021-07-11T07:53:55Z</time>
      </trkpt>
      <trkpt lat="45.68017" lon="6.42279">
        <ele>903.4</ele>
        <time>2021-07-11T07:53:59Z</time>
      </trkpt>
      <trkpt lat="45.68012" lon="6.42273">
        <ele>903.6</ele>
        <time>2021-07-11T07:54:03Z</time>
      </trkpt>
      <trkpt lat="45.68007" lon="6.42266">
        <ele>904.6</ele>
        <time>2021-07-11T07:54:07Z</time>
      </trkpt>
      <trkpt lat="45.68004" lon="6.42258">
        <ele>905</ele>
        <time>2021-07-11T07:54:11Z</time>
      </trkpt>
      <trkpt lat="45.68001" lon="6.42249">
        <ele>905.8</ele>
        <time>2021-07-11T07:54:15Z</time>
      </trkpt>
      <trkpt lat="45.67998" lon="6.42242">
        <ele>906.4</ele>
        <time>2021-07-11T07:54:19Z</time>
      </trkpt>
      <trkpt lat="45.67995" lon="6.42233">
        <ele>907</ele>
        <time>2021-07-11T07:54:23Z</time>
      </trkpt>
      <trkpt lat="45.67992" lon="6.42226">
        <ele>907.8</ele>
        <time>2021-07-11T07:54:27Z</time>
      </trkpt>
      <trkpt lat="45.67987" lon="6.4222">
        <ele>908.6</ele>
        <time>2021-07-11T07:54:31Z</time>
      </trkpt>
      <trkpt lat="45.67981" lon="6.42216">
        <ele>908.6</ele>
        <time>2021-07-11T07:54:35Z</time>
      </trkpt>
      <trkpt lat="45.67974" lon="6.42213">
        <ele>909.4</ele>
        <time>2021-07-11T07:54:39Z</time>
      </trkpt>
      <trkpt lat="45.67967" lon="6.42212">
        <ele>910.2</ele>
        <time>2021-07-11T07:54:43Z</time>
      </trkpt>
      <trkpt lat="45.6796" lon="6.4221">
        <ele>910.4</ele>
        <time>2021-07-11T07:54:47Z</time>
      </trkpt>
      <trkpt lat="45.67954" lon="6.42209">
        <ele>911.6</ele>
        <time>2021-07-11T07:54:51Z</time>
      </trkpt>
      <trkpt lat="45.67949" lon="6.42207">
        <ele>912.2</ele>
        <time>2021-07-11T07:54:55Z</time>
      </trkpt>
      <trkpt lat="45.67943" lon="6.42204">
        <ele>913.2</ele>
        <time>2021-07-11T07:54:59Z</time>
      </trkpt>
      <trkpt lat="45.67937" lon="6.42202">
        <ele>913.8</ele>
        <time>2021-07-11T07:55:03Z</time>
      </trkpt>
      <trkpt lat="45.67932" lon="6.42198">
        <ele>914.6</ele>
        <time>2021-07-11T07:55:07Z</time>
      </trkpt>
      <trkpt lat="45.67928" lon="6.42191">
        <ele>915.4</ele>
        <time>2021-07-11T07:55:11Z</time>
      </trkpt>
      <trkpt lat="45.67924" lon="6.42183">
        <ele>915.8</ele>
        <time>2021-07-11T07:55:15Z</time>
      </trkpt>
      <trkpt lat="45.67924" lon="6.42173">
        <ele>916.6</ele>
        <time>2021-07-11T07:55:19Z</time>
      </trkpt>
      <trkpt lat="45.67924" lon="6.42163">
        <ele>917.4</ele>
        <time>2021-07-11T07:55:23Z</time>
      </trkpt>
      <trkpt lat="45.67925" lon="6.42154">
        <ele>917.8</ele>
        <time>2021-07-11T07:55:27Z</time>
      </trkpt>
      <trkpt lat="45.67924" lon="6.42145">
        <ele>918.6</ele>
        <time>2021-07-11T07:55:31Z</time>
      </trkpt>
      <trkpt lat="45.67918" lon="6.42136">
        <ele>919.2</ele>
        <time>2021-07-11T07:55:35Z</time>
      </trkpt>
      <trkpt lat="45.67911" lon="6.42129">
        <ele>919.6</ele>
        <time>2021-07-11T07:55:39Z</time>
      </trkpt>
      <trkpt lat="45.67906" lon="6.42125">
        <ele>920</ele>
        <time>2021-07-11T07:55:43Z</time>
      </trkpt>
      <trkpt lat="45.67901" lon="6.42123">
        <ele>920.8</ele>
        <time>2021-07-11T07:55:47Z</time>
      </trkpt>
      <trkpt lat="45.67893" lon="6.42122">
        <ele>921.2</ele>
        <time>2021-07-11T07:55:51Z</time>
      </trkpt>
      <trkpt lat="45.67886" lon="6.42119">
        <ele>922.4</ele>
        <time>2021-07-11T07:55:55Z</time>
      </trkpt>
      <trkpt lat="45.6788" lon="6.42117">
        <ele>922.4</ele>
        <time>2021-07-11T07:55:59Z</time>
      </trkpt>
      <trkpt lat="45.67874" lon="6.42117">
        <ele>923.4</ele>
        <time>2021-07-11T07:56:03Z</time>
      </trkpt>
      <trkpt lat="45.67867" lon="6.42117">
        <ele>924</ele>
        <time>2021-07-11T07:56:07Z</time>
      </trkpt>
      <trkpt lat="45.67858" lon="6.42112">
        <ele>924.6</ele>
        <time>2021-07-11T07:56:11Z</time>
      </trkpt>
      <trkpt lat="45.6785" lon="6.42109">
        <ele>925</ele>
        <time>2021-07-11T07:56:15Z</time>
      </trkpt>
      <trkpt lat="45.67842" lon="6.4211">
        <ele>925.6</ele>
        <time>2021-07-11T07:56:19Z</time>
      </trkpt>
      <trkpt lat="45.67835" lon="6.42109">
        <ele>926.2</ele>
        <time>2021-07-11T07:56:23Z</time>
      </trkpt>
      <trkpt lat="45.67825" lon="6.42102">
        <ele>926.4</ele>
        <time>2021-07-11T07:56:27Z</time>
      </trkpt>
      <trkpt lat="45.6782" lon="6.42093">
        <ele>927.4</ele>
        <time>2021-07-11T07:56:31Z</time>
      </trkpt>
      <trkpt lat="45.67815" lon="6.42084">
        <ele>927.6</ele>
        <time>2021-07-11T07:56:35Z</time>
      </trkpt>
      <trkpt lat="45.67812" lon="6.42074">
        <ele>928.4</ele>
        <time>2021-07-11T07:56:39Z</time>
      </trkpt>
      <trkpt lat="45.67808" lon="6.42061">
        <ele>928.4</ele>
        <time>2021-07-11T07:56:43Z</time>
      </trkpt>
      <trkpt lat="45.67803" lon="6.42049">
        <ele>929.2</ele>
        <time>2021-07-11T07:56:47Z</time>
      </trkpt>
      <trkpt lat="45.67796" lon="6.42044">
        <ele>929.8</ele>
        <time>2021-07-11T07:56:51Z</time>
      </trkpt>
      <trkpt lat="45.67793" lon="6.42036">
        <ele>930.4</ele>
        <time>2021-07-11T07:56:55Z</time>
      </trkpt>
      <trkpt lat="45.67788" lon="6.4203">
        <ele>930.8</ele>
        <time>2021-07-11T07:56:59Z</time>
      </trkpt>
      <trkpt lat="45.67779" lon="6.42029">
        <ele>931.6</ele>
        <time>2021-07-11T07:57:03Z</time>
      </trkpt>
      <trkpt lat="45.67773" lon="6.42035">
        <ele>932.2</ele>
        <time>2021-07-11T07:57:07Z</time>
      </trkpt>
      <trkpt lat="45.67771" lon="6.42046">
        <ele>932.6</ele>
        <time>2021-07-11T07:57:11Z</time>
      </trkpt>
      <trkpt lat="45.67773" lon="6.42057">
        <ele>933.4</ele>
        <time>2021-07-11T07:57:15Z</time>
      </trkpt>
      <trkpt lat="45.6778" lon="6.42063">
        <ele>934.6</ele>
        <time>2021-07-11T07:57:19Z</time>
      </trkpt>
      <trkpt lat="45.67787" lon="6.42064">
        <ele>934.8</ele>
        <time>2021-07-11T07:57:23Z</time>
      </trkpt>
      <trkpt lat="45.6779" lon="6.42071">
        <ele>935.8</ele>
        <time>2021-07-11T07:57:27Z</time>
      </trkpt>
      <trkpt lat="45.6779" lon="6.4208">
        <ele>936.8</ele>
        <time>2021-07-11T07:57:31Z</time>
      </trkpt>
      <trkpt lat="45.67792" lon="6.42085">
        <ele>938.2</ele>
        <time>2021-07-11T07:57:35Z</time>
      </trkpt>
      <trkpt lat="45.67792" lon="6.42092">
        <ele>938.4</ele>
        <time>2021-07-11T07:57:39Z</time>
      </trkpt>
      <trkpt lat="45.67792" lon="6.42099">
        <ele>939.2</ele>
        <time>2021-07-11T07:57:43Z</time>
      </trkpt>
      <trkpt lat="45.67795" lon="6.42115">
        <ele>941.6</ele>
        <time>2021-07-11T07:57:53Z</time>
      </trkpt>
      <trkpt lat="45.67803" lon="6.42121">
        <ele>941.8</ele>
        <time>2021-07-11T07:57:57Z</time>
      </trkpt>
      <trkpt lat="45.67808" lon="6.42123">
        <ele>942.4</ele>
        <time>2021-07-11T07:58:01Z</time>
      </trkpt>
      <trkpt lat="45.67813" lon="6.42125">
        <ele>942.8</ele>
        <time>2021-07-11T07:58:05Z</time>
      </trkpt>
      <trkpt lat="45.67817" lon="6.42126">
        <ele>943.8</ele>
        <time>2021-07-11T07:58:09Z</time>
      </trkpt>
      <trkpt lat="45.67823" lon="6.42128">
        <ele>944.2</ele>
        <time>2021-07-11T07:58:13Z</time>
      </trkpt>
      <trkpt lat="45.67829" lon="6.42129">
        <ele>945.4</ele>
        <time>2021-07-11T07:58:17Z</time>
      </trkpt>
      <trkpt lat="45.67835" lon="6.42132">
        <ele>945.6</ele>
        <time>2021-07-11T07:58:21Z</time>
      </trkpt>
      <trkpt lat="45.67842" lon="6.42134">
        <ele>946.8</ele>
        <time>2021-07-11T07:58:25Z</time>
      </trkpt>
      <trkpt lat="45.67849" lon="6.42143">
        <ele>947.6</ele>
        <time>2021-07-11T07:58:29Z</time>
      </trkpt>
      <trkpt lat="45.67857" lon="6.42149">
        <ele>947.6</ele>
        <time>2021-07-11T07:58:33Z</time>
      </trkpt>
      <trkpt lat="45.67861" lon="6.42156">
        <ele>949.2</ele>
        <time>2021-07-11T07:58:37Z</time>
      </trkpt>
      <trkpt lat="45.67863" lon="6.42165">
        <ele>950</ele>
        <time>2021-07-11T07:58:41Z</time>
      </trkpt>
      <trkpt lat="45.67864" lon="6.42174">
        <ele>950.4</ele>
        <time>2021-07-11T07:58:45Z</time>
      </trkpt>
      <trkpt lat="45.67864" lon="6.42182">
        <ele>951.4</ele>
        <time>2021-07-11T07:58:49Z</time>
      </trkpt>
      <trkpt lat="45.67863" lon="6.42191">
        <ele>952.2</ele>
        <time>2021-07-11T07:58:53Z</time>
      </trkpt>
      <trkpt lat="45.67862" lon="6.42199">
        <ele>952.4</ele>
        <time>2021-07-11T07:58:57Z</time>
      </trkpt>
      <trkpt lat="45.6786" lon="6.42206">
        <ele>953</ele>
        <time>2021-07-11T07:59:01Z</time>
      </trkpt>
      <trkpt lat="45.6786" lon="6.42213">
        <ele>953.8</ele>
        <time>2021-07-11T07:59:05Z</time>
      </trkpt>
      <trkpt lat="45.67859" lon="6.42223">
        <ele>954.4</ele>
        <time>2021-07-11T07:59:09Z</time>
      </trkpt>
      <trkpt lat="45.67856" lon="6.42231">
        <ele>954.4</ele>
        <time>2021-07-11T07:59:13Z</time>
      </trkpt>
      <trkpt lat="45.67856" lon="6.42238">
        <ele>956.2</ele>
        <time>2021-07-11T07:59:17Z</time>
      </trkpt>
      <trkpt lat="45.67856" lon="6.42244">
        <ele>957</ele>
        <time>2021-07-11T07:59:21Z</time>
      </trkpt>
      <trkpt lat="45.67855" lon="6.4225">
        <ele>957.2</ele>
        <time>2021-07-11T07:59:25Z</time>
      </trkpt>
      <trkpt lat="45.67851" lon="6.42261">
        <ele>957.8</ele>
        <time>2021-07-11T07:59:29Z</time>
      </trkpt>
      <trkpt lat="45.67847" lon="6.42271">
        <ele>958.6</ele>
        <time>2021-07-11T07:59:33Z</time>
      </trkpt>
      <trkpt lat="45.67846" lon="6.42279">
        <ele>958.6</ele>
        <time>2021-07-11T07:59:37Z</time>
      </trkpt>
      <trkpt lat="45.67842" lon="6.42286">
        <ele>959.6</ele>
        <time>2021-07-11T07:59:41Z</time>
      </trkpt>
      <trkpt lat="45.67838" lon="6.42293">
        <ele>960.6</ele>
        <time>2021-07-11T07:59:45Z</time>
      </trkpt>
      <trkpt lat="45.67835" lon="6.42301">
        <ele>960.8</ele>
        <time>2021-07-11T07:59:49Z</time>
      </trkpt>
      <trkpt lat="45.67831" lon="6.42307">
        <ele>961.2</ele>
        <time>2021-07-11T07:59:53Z</time>
      </trkpt>
      <trkpt lat="45.67832" lon="6.42317">
        <ele>962.2</ele>
        <time>2021-07-11T07:59:57Z</time>
      </trkpt>
      <trkpt lat="45.67833" lon="6.42332">
        <ele>962.6</ele>
        <time>2021-07-11T08:00:01Z</time>
      </trkpt>
      <trkpt lat="45.67828" lon="6.42344">
        <ele>963.4</ele>
        <time>2021-07-11T08:00:05Z</time>
      </trkpt>
      <trkpt lat="45.67824" lon="6.4235">
        <ele>964.4</ele>
        <time>2021-07-11T08:00:09Z</time>
      </trkpt>
      <trkpt lat="45.67819" lon="6.42354">
        <ele>964.8</ele>
        <time>2021-07-11T08:00:13Z</time>
      </trkpt>
      <trkpt lat="45.67813" lon="6.42351">
        <ele>965.4</ele>
        <time>2021-07-11T08:00:17Z</time>
      </trkpt>
      <trkpt lat="45.67813" lon="6.42344">
        <ele>965.8</ele>
        <time>2021-07-11T08:00:21Z</time>
      </trkpt>
      <trkpt lat="45.67815" lon="6.42335">
        <ele>966.2</ele>
        <time>2021-07-11T08:00:25Z</time>
      </trkpt>
      <trkpt lat="45.67817" lon="6.42326">
        <ele>966.6</ele>
        <time>2021-07-11T08:00:29Z</time>
      </trkpt>
      <trkpt lat="45.67818" lon="6.42319">
        <ele>967</ele>
        <time>2021-07-11T08:00:33Z</time>
      </trkpt>
      <trkpt lat="45.67821" lon="6.42311">
        <ele>967.8</ele>
        <time>2021-07-11T08:00:37Z</time>
      </trkpt>
      <trkpt lat="45.67823" lon="6.42303">
        <ele>968.4</ele>
        <time>2021-07-11T08:00:41Z</time>
      </trkpt>
      <trkpt lat="45.67825" lon="6.42296">
        <ele>969</ele>
        <time>2021-07-11T08:00:45Z</time>
      </trkpt>
      <trkpt lat="45.67827" lon="6.42287">
        <ele>969.4</ele>
        <time>2021-07-11T08:00:49Z</time>
      </trkpt>
      <trkpt lat="45.67829" lon="6.42281">
        <ele>969.6</ele>
        <time>2021-07-11T08:00:53Z</time>
      </trkpt>
      <trkpt lat="45.67828" lon="6.42273">
        <ele>971.2</ele>
        <time>2021-07-11T08:00:57Z</time>
      </trkpt>
      <trkpt lat="45.67826" lon="6.42264">
        <ele>971.2</ele>
        <time>2021-07-11T08:01:01Z</time>
      </trkpt>
      <trkpt lat="45.67825" lon="6.42254">
        <ele>971.4</ele>
        <time>2021-07-11T08:01:05Z</time>
      </trkpt>
      <trkpt lat="45.67821" lon="6.42249">
        <ele>972.2</ele>
        <time>2021-07-11T08:01:09Z</time>
      </trkpt>
      <trkpt lat="45.67815" lon="6.42243">
        <ele>972.8</ele>
        <time>2021-07-11T08:01:13Z</time>
      </trkpt>
      <trkpt lat="45.67808" lon="6.4224">
        <ele>973.4</ele>
        <time>2021-07-11T08:01:17Z</time>
      </trkpt>
      <trkpt lat="45.67802" lon="6.42241">
        <ele>973.6</ele>
        <time>2021-07-11T08:01:21Z</time>
      </trkpt>
      <trkpt lat="45.67798" lon="6.42242">
        <ele>974.2</ele>
        <time>2021-07-11T08:01:25Z</time>
      </trkpt>
      <trkpt lat="45.67792" lon="6.42247">
        <ele>975</ele>
        <time>2021-07-11T08:01:29Z</time>
      </trkpt>
      <trkpt lat="45.67788" lon="6.4225">
        <ele>975.8</ele>
        <time>2021-07-11T08:01:33Z</time>
      </trkpt>
      <trkpt lat="45.6778" lon="6.42259">
        <ele>976.2</ele>
        <time>2021-07-11T08:01:37Z</time>
      </trkpt>
      <trkpt lat="45.67773" lon="6.42267">
        <ele>976.8</ele>
        <time>2021-07-11T08:01:41Z</time>
      </trkpt>
      <trkpt lat="45.67768" lon="6.42274">
        <ele>977.6</ele>
        <time>2021-07-11T08:01:45Z</time>
      </trkpt>
      <trkpt lat="45.67764" lon="6.42283">
        <ele>977.8</ele>
        <time>2021-07-11T08:01:49Z</time>
      </trkpt>
      <trkpt lat="45.67761" lon="6.42292">
        <ele>979.2</ele>
        <time>2021-07-11T08:01:53Z</time>
      </trkpt>
      <trkpt lat="45.6776" lon="6.42302">
        <ele>979.2</ele>
        <time>2021-07-11T08:01:57Z</time>
      </trkpt>
      <trkpt lat="45.67761" lon="6.42312">
        <ele>979.8</ele>
        <time>2021-07-11T08:02:01Z</time>
      </trkpt>
      <trkpt lat="45.67762" lon="6.42321">
        <ele>980.6</ele>
        <time>2021-07-11T08:02:05Z</time>
      </trkpt>
      <trkpt lat="45.67764" lon="6.4233">
        <ele>981.2</ele>
        <time>2021-07-11T08:02:09Z</time>
      </trkpt>
      <trkpt lat="45.67768" lon="6.42339">
        <ele>982.2</ele>
        <time>2021-07-11T08:02:13Z</time>
      </trkpt>
      <trkpt lat="45.67771" lon="6.42347">
        <ele>982.6</ele>
        <time>2021-07-11T08:02:17Z</time>
      </trkpt>
      <trkpt lat="45.67773" lon="6.42356">
        <ele>983.4</ele>
        <time>2021-07-11T08:02:21Z</time>
      </trkpt>
      <trkpt lat="45.67776" lon="6.42364">
        <ele>983.8</ele>
        <time>2021-07-11T08:02:25Z</time>
      </trkpt>
      <trkpt lat="45.67779" lon="6.42372">
        <ele>984.4</ele>
        <time>2021-07-11T08:02:29Z</time>
      </trkpt>
      <trkpt lat="45.67782" lon="6.4238">
        <ele>985.6</ele>
        <time>2021-07-11T08:02:33Z</time>
      </trkpt>
      <trkpt lat="45.67788" lon="6.42387">
        <ele>986</ele>
        <time>2021-07-11T08:02:37Z</time>
      </trkpt>
      <trkpt lat="45.67793" lon="6.42395">
        <ele>986.6</ele>
        <time>2021-07-11T08:02:41Z</time>
      </trkpt>
      <trkpt lat="45.678" lon="6.42399">
        <ele>987.2</ele>
        <time>2021-07-11T08:02:45Z</time>
      </trkpt>
      <trkpt lat="45.67807" lon="6.42404">
        <ele>987.6</ele>
        <time>2021-07-11T08:02:49Z</time>
      </trkpt>
      <trkpt lat="45.67812" lon="6.42409">
        <ele>988.4</ele>
        <time>2021-07-11T08:02:53Z</time>
      </trkpt>
      <trkpt lat="45.67819" lon="6.42412">
        <ele>989.6</ele>
        <time>2021-07-11T08:02:57Z</time>
      </trkpt>
      <trkpt lat="45.67825" lon="6.42417">
        <ele>989.8</ele>
        <time>2021-07-11T08:03:01Z</time>
      </trkpt>
      <trkpt lat="45.6783" lon="6.42421">
        <ele>990.6</ele>
        <time>2021-07-11T08:03:05Z</time>
      </trkpt>
      <trkpt lat="45.67833" lon="6.42426">
        <ele>991.2</ele>
        <time>2021-07-11T08:03:09Z</time>
      </trkpt>
      <trkpt lat="45.67839" lon="6.42431">
        <ele>991.6</ele>
        <time>2021-07-11T08:03:13Z</time>
      </trkpt>
      <trkpt lat="45.67846" lon="6.42438">
        <ele>992.2</ele>
        <time>2021-07-11T08:03:17Z</time>
      </trkpt>
      <trkpt lat="45.67851" lon="6.42445">
        <ele>993</ele>
        <time>2021-07-11T08:03:21Z</time>
      </trkpt>
      <trkpt lat="45.67858" lon="6.42452">
        <ele>993</ele>
        <time>2021-07-11T08:03:25Z</time>
      </trkpt>
      <trkpt lat="45.67861" lon="6.42461">
        <ele>994</ele>
        <time>2021-07-11T08:03:29Z</time>
      </trkpt>
      <trkpt lat="45.67861" lon="6.42469">
        <ele>994</ele>
        <time>2021-07-11T08:03:33Z</time>
      </trkpt>
      <trkpt lat="45.67859" lon="6.42476">
        <ele>994.8</ele>
        <time>2021-07-11T08:03:37Z</time>
      </trkpt>
      <trkpt lat="45.67856" lon="6.42482">
        <ele>995.4</ele>
        <time>2021-07-11T08:03:41Z</time>
      </trkpt>
      <trkpt lat="45.6785" lon="6.42481">
        <ele>995.8</ele>
        <time>2021-07-11T08:03:45Z</time>
      </trkpt>
      <trkpt lat="45.67846" lon="6.42478">
        <ele>996.6</ele>
        <time>2021-07-11T08:03:49Z</time>
      </trkpt>
      <trkpt lat="45.67838" lon="6.42474">
        <ele>997</ele>
        <time>2021-07-11T08:03:53Z</time>
      </trkpt>
      <trkpt lat="45.67834" lon="6.42468">
        <ele>998.4</ele>
        <time>2021-07-11T08:03:57Z</time>
      </trkpt>
      <trkpt lat="45.67831" lon="6.42459">
        <ele>999</ele>
        <time>2021-07-11T08:04:01Z</time>
      </trkpt>
      <trkpt lat="45.67826" lon="6.42455">
        <ele>999.4</ele>
        <time>2021-07-11T08:04:05Z</time>
      </trkpt>
      <trkpt lat="45.67819" lon="6.42453">
        <ele>999.8</ele>
        <time>2021-07-11T08:04:09Z</time>
      </trkpt>
      <trkpt lat="45.67814" lon="6.42452">
        <ele>1000.6</ele>
        <time>2021-07-11T08:04:13Z</time>
      </trkpt>
      <trkpt lat="45.67809" lon="6.42449">
        <ele>1001.8</ele>
        <time>2021-07-11T08:04:17Z</time>
      </trkpt>
      <trkpt lat="45.67809" lon="6.42449">
        <ele>1001.8</ele>
        <time>2021-07-11T08:04:21Z</time>
      </trkpt>
      <trkpt lat="45.67742" lon="6.42421">
        <ele>1008.8</ele>
        <time>2021-07-11T08:05:01Z</time>
      </trkpt>
      <trkpt lat="45.67735" lon="6.42429">
        <ele>1009.4</ele>
        <time>2021-07-11T08:05:05Z</time>
      </trkpt>
      <trkpt lat="45.67729" lon="6.42435">
        <ele>1009.6</ele>
        <time>2021-07-11T08:05:09Z</time>
      </trkpt>
      <trkpt lat="45.67726" lon="6.42444">
        <ele>1010.6</ele>
        <time>2021-07-11T08:05:13Z</time>
      </trkpt>
      <trkpt lat="45.67724" lon="6.42453">
        <ele>1011</ele>
        <time>2021-07-11T08:05:17Z</time>
      </trkpt>
      <trkpt lat="45.67724" lon="6.42462">
        <ele>1012</ele>
        <time>2021-07-11T08:05:21Z</time>
      </trkpt>
      <trkpt lat="45.67724" lon="6.42471">
        <ele>1012.4</ele>
        <time>2021-07-11T08:05:25Z</time>
      </trkpt>
      <trkpt lat="45.67725" lon="6.4248">
        <ele>1012.6</ele>
        <time>2021-07-11T08:05:29Z</time>
      </trkpt>
      <trkpt lat="45.67727" lon="6.42489">
        <ele>1013.8</ele>
        <time>2021-07-11T08:05:33Z</time>
      </trkpt>
      <trkpt lat="45.6773" lon="6.42497">
        <ele>1014.4</ele>
        <time>2021-07-11T08:05:37Z</time>
      </trkpt>
      <trkpt lat="45.67735" lon="6.42503">
        <ele>1014.6</ele>
        <time>2021-07-11T08:05:41Z</time>
      </trkpt>
      <trkpt lat="45.67741" lon="6.42506">
        <ele>1015.8</ele>
        <time>2021-07-11T08:05:45Z</time>
      </trkpt>
      <trkpt lat="45.67747" lon="6.42505">
        <ele>1016.4</ele>
        <time>2021-07-11T08:05:49Z</time>
      </trkpt>
      <trkpt lat="45.67754" lon="6.42503">
        <ele>1017</ele>
        <time>2021-07-11T08:05:53Z</time>
      </trkpt>
      <trkpt lat="45.6776" lon="6.425">
        <ele>1017.8</ele>
        <time>2021-07-11T08:05:57Z</time>
      </trkpt>
      <trkpt lat="45.67766" lon="6.42498">
        <ele>1018</ele>
        <time>2021-07-11T08:06:01Z</time>
      </trkpt>
      <trkpt lat="45.67772" lon="6.42497">
        <ele>1019</ele>
        <time>2021-07-11T08:06:05Z</time>
      </trkpt>
      <trkpt lat="45.67778" lon="6.42497">
        <ele>1019</ele>
        <time>2021-07-11T08:06:09Z</time>
      </trkpt>
      <trkpt lat="45.67784" lon="6.42499">
        <ele>1020.2</ele>
        <time>2021-07-11T08:06:13Z</time>
      </trkpt>
      <trkpt lat="45.6779" lon="6.425">
        <ele>1020.4</ele>
        <time>2021-07-11T08:06:17Z</time>
      </trkpt>
      <trkpt lat="45.67795" lon="6.42504">
        <ele>1021.2</ele>
        <time>2021-07-11T08:06:21Z</time>
      </trkpt>
      <trkpt lat="45.678" lon="6.42509">
        <ele>1021.8</ele>
        <time>2021-07-11T08:06:25Z</time>
      </trkpt>
      <trkpt lat="45.67805" lon="6.42514">
        <ele>1023</ele>
        <time>2021-07-11T08:06:29Z</time>
      </trkpt>
      <trkpt lat="45.67809" lon="6.42518">
        <ele>1023</ele>
        <time>2021-07-11T08:06:33Z</time>
      </trkpt>
      <trkpt lat="45.67815" lon="6.42525">
        <ele>1023.4</ele>
        <time>2021-07-11T08:06:37Z</time>
      </trkpt>
      <trkpt lat="45.6782" lon="6.42529">
        <ele>1024.2</ele>
        <time>2021-07-11T08:06:41Z</time>
      </trkpt>
      <trkpt lat="45.67825" lon="6.42534">
        <ele>1025</ele>
        <time>2021-07-11T08:06:45Z</time>
      </trkpt>
      <trkpt lat="45.6783" lon="6.42537">
        <ele>1025.4</ele>
        <time>2021-07-11T08:06:49Z</time>
      </trkpt>
      <trkpt lat="45.67837" lon="6.4254">
        <ele>1026.4</ele>
        <time>2021-07-11T08:06:53Z</time>
      </trkpt>
      <trkpt lat="45.67841" lon="6.42544">
        <ele>1027</ele>
        <time>2021-07-11T08:06:57Z</time>
      </trkpt>
      <trkpt lat="45.67841" lon="6.42549">
        <ele>1028.2</ele>
        <time>2021-07-11T08:07:01Z</time>
      </trkpt>
      <trkpt lat="45.6784" lon="6.4256">
        <ele>1028.6</ele>
        <time>2021-07-11T08:07:05Z</time>
      </trkpt>
      <trkpt lat="45.67837" lon="6.42567">
        <ele>1028.6</ele>
        <time>2021-07-11T08:07:09Z</time>
      </trkpt>
      <trkpt lat="45.67831" lon="6.42567">
        <ele>1029.4</ele>
        <time>2021-07-11T08:07:13Z</time>
      </trkpt>
      <trkpt lat="45.67826" lon="6.42564">
        <ele>1030</ele>
        <time>2021-07-11T08:07:17Z</time>
      </trkpt>
      <trkpt lat="45.67821" lon="6.4256">
        <ele>1030.4</ele>
        <time>2021-07-11T08:07:21Z</time>
      </trkpt>
      <trkpt lat="45.67816" lon="6.42555">
        <ele>1031.6</ele>
        <time>2021-07-11T08:07:25Z</time>
      </trkpt>
      <trkpt lat="45.6781" lon="6.42553">
        <ele>1031.4</ele>
        <time>2021-07-11T08:07:29Z</time>
      </trkpt>
      <trkpt lat="45.67802" lon="6.42552">
        <ele>1032.6</ele>
        <time>2021-07-11T08:07:33Z</time>
      </trkpt>
      <trkpt lat="45.67797" lon="6.42557">
        <ele>1033.2</ele>
        <time>2021-07-11T08:07:37Z</time>
      </trkpt>
      <trkpt lat="45.67791" lon="6.42564">
        <ele>1033.8</ele>
        <time>2021-07-11T08:07:41Z</time>
      </trkpt>
      <trkpt lat="45.67787" lon="6.42571">
        <ele>1034.4</ele>
        <time>2021-07-11T08:07:45Z</time>
      </trkpt>
      <trkpt lat="45.67782" lon="6.42577">
        <ele>1034.8</ele>
        <time>2021-07-11T08:07:49Z</time>
      </trkpt>
      <trkpt lat="45.67777" lon="6.42584">
        <ele>1035.4</ele>
        <time>2021-07-11T08:07:53Z</time>
      </trkpt>
      <trkpt lat="45.67771" lon="6.4259">
        <ele>1035.8</ele>
        <time>2021-07-11T08:07:57Z</time>
      </trkpt>
      <trkpt lat="45.67766" lon="6.42597">
        <ele>1036.4</ele>
        <time>2021-07-11T08:08:01Z</time>
      </trkpt>
      <trkpt lat="45.67762" lon="6.42604">
        <ele>1037</ele>
        <time>2021-07-11T08:08:05Z</time>
      </trkpt>
      <trkpt lat="45.67757" lon="6.42612">
        <ele>1037.6</ele>
        <time>2021-07-11T08:08:09Z</time>
      </trkpt>
      <trkpt lat="45.67753" lon="6.4262">
        <ele>1037.8</ele>
        <time>2021-07-11T08:08:13Z</time>
      </trkpt>
      <trkpt lat="45.67751" lon="6.42629">
        <ele>1038</ele>
        <time>2021-07-11T08:08:17Z</time>
      </trkpt>
      <trkpt lat="45.67753" lon="6.42637">
        <ele>1039</ele>
        <time>2021-07-11T08:08:21Z</time>
      </trkpt>
      <trkpt lat="45.67761" lon="6.42642">
        <ele>1039.6</ele>
        <time>2021-07-11T08:08:25Z</time>
      </trkpt>
      <trkpt lat="45.6777" lon="6.42639">
        <ele>1040</ele>
        <time>2021-07-11T08:08:29Z</time>
      </trkpt>
      <trkpt lat="45.67776" lon="6.42633">
        <ele>1040.4</ele>
        <time>2021-07-11T08:08:33Z</time>
      </trkpt>
      <trkpt lat="45.67782" lon="6.42628">
        <ele>1041.2</ele>
        <time>2021-07-11T08:08:37Z</time>
      </trkpt>
      <trkpt lat="45.67788" lon="6.42622">
        <ele>1041.8</ele>
        <time>2021-07-11T08:08:41Z</time>
      </trkpt>
      <trkpt lat="45.67795" lon="6.42617">
        <ele>1042</ele>
        <time>2021-07-11T08:08:45Z</time>
      </trkpt>
      <trkpt lat="45.67801" lon="6.42615">
        <ele>1042.6</ele>
        <time>2021-07-11T08:08:49Z</time>
      </trkpt>
      <trkpt lat="45.67805" lon="6.42613">
        <ele>1042.8</ele>
        <time>2021-07-11T08:08:53Z</time>
      </trkpt>
      <trkpt lat="45.67813" lon="6.42609">
        <ele>1043</ele>
        <time>2021-07-11T08:08:57Z</time>
      </trkpt>
      <trkpt lat="45.67813" lon="6.42609">
        <ele>1043.8</ele>
        <time>2021-07-11T08:09:01Z</time>
      </trkpt>
      <trkpt lat="45.6782" lon="6.42608">
        <ele>1044</ele>
        <time>2021-07-11T08:09:05Z</time>
      </trkpt>
      <trkpt lat="45.67824" lon="6.42608">
        <ele>1044.4</ele>
        <time>2021-07-11T08:09:09Z</time>
      </trkpt>
      <trkpt lat="45.67832" lon="6.42606">
        <ele>1044.8</ele>
        <time>2021-07-11T08:09:13Z</time>
      </trkpt>
      <trkpt lat="45.67841" lon="6.42608">
        <ele>1045.6</ele>
        <time>2021-07-11T08:09:17Z</time>
      </trkpt>
      <trkpt lat="45.67848" lon="6.42608">
        <ele>1045.6</ele>
        <time>2021-07-11T08:09:21Z</time>
      </trkpt>
      <trkpt lat="45.67855" lon="6.42609">
        <ele>1046.4</ele>
        <time>2021-07-11T08:09:25Z</time>
      </trkpt>
      <trkpt lat="45.67861" lon="6.4261">
        <ele>1046.8</ele>
        <time>2021-07-11T08:09:29Z</time>
      </trkpt>
      <trkpt lat="45.67872" lon="6.42609">
        <ele>1047.6</ele>
        <time>2021-07-11T08:09:33Z</time>
      </trkpt>
      <trkpt lat="45.67881" lon="6.42611">
        <ele>1047.6</ele>
        <time>2021-07-11T08:09:37Z</time>
      </trkpt>
      <trkpt lat="45.67888" lon="6.42608">
        <ele>1048.6</ele>
        <time>2021-07-11T08:09:41Z</time>
      </trkpt>
      <trkpt lat="45.67896" lon="6.42617">
        <ele>1048.8</ele>
        <time>2021-07-11T08:09:45Z</time>
      </trkpt>
      <trkpt lat="45.679" lon="6.42627">
        <ele>1049.2</ele>
        <time>2021-07-11T08:09:49Z</time>
      </trkpt>
      <trkpt lat="45.67904" lon="6.42637">
        <ele>1049.6</ele>
        <time>2021-07-11T08:09:53Z</time>
      </trkpt>
      <trkpt lat="45.67909" lon="6.42646">
        <ele>1050.6</ele>
        <time>2021-07-11T08:09:57Z</time>
      </trkpt>
      <trkpt lat="45.67914" lon="6.42654">
        <ele>1051.6</ele>
        <time>2021-07-11T08:10:01Z</time>
      </trkpt>
      <trkpt lat="45.67921" lon="6.42661">
        <ele>1052.2</ele>
        <time>2021-07-11T08:10:05Z</time>
      </trkpt>
      <trkpt lat="45.67928" lon="6.42667">
        <ele>1053.4</ele>
        <time>2021-07-11T08:10:09Z</time>
      </trkpt>
      <trkpt lat="45.67933" lon="6.42674">
        <ele>1053.8</ele>
        <time>2021-07-11T08:10:13Z</time>
      </trkpt>
      <trkpt lat="45.67953" lon="6.42705">
        <ele>1055.8</ele>
        <time>2021-07-11T08:12:17Z</time>
      </trkpt>
      <trkpt lat="45.67958" lon="6.42711">
        <ele>1055.6</ele>
        <time>2021-07-11T08:12:21Z</time>
      </trkpt>
      <trkpt lat="45.67963" lon="6.4272">
        <ele>1056.2</ele>
        <time>2021-07-11T08:12:25Z</time>
      </trkpt>
      <trkpt lat="45.67964" lon="6.42725">
        <ele>1057.2</ele>
        <time>2021-07-11T08:12:29Z</time>
      </trkpt>
      <trkpt lat="45.67966" lon="6.42734">
        <ele>1057.2</ele>
        <time>2021-07-11T08:12:33Z</time>
      </trkpt>
      <trkpt lat="45.67968" lon="6.42741">
        <ele>1057.6</ele>
        <time>2021-07-11T08:12:37Z</time>
      </trkpt>
      <trkpt lat="45.67968" lon="6.42749">
        <ele>1058</ele>
        <time>2021-07-11T08:12:41Z</time>
      </trkpt>
      <trkpt lat="45.67969" lon="6.42757">
        <ele>1058.4</ele>
        <time>2021-07-11T08:12:45Z</time>
      </trkpt>
      <trkpt lat="45.67972" lon="6.42768">
        <ele>1059.2</ele>
        <time>2021-07-11T08:12:49Z</time>
      </trkpt>
      <trkpt lat="45.67971" lon="6.42776">
        <ele>1060</ele>
        <time>2021-07-11T08:12:53Z</time>
      </trkpt>
      <trkpt lat="45.67969" lon="6.42804">
        <ele>1061.2</ele>
        <time>2021-07-11T08:13:13Z</time>
      </trkpt>
      <trkpt lat="45.67969" lon="6.42812">
        <ele>1061.6</ele>
        <time>2021-07-11T08:13:17Z</time>
      </trkpt>
      <trkpt lat="45.67967" lon="6.42821">
        <ele>1062.6</ele>
        <time>2021-07-11T08:13:21Z</time>
      </trkpt>
      <trkpt lat="45.67965" lon="6.42828">
        <ele>1063</ele>
        <time>2021-07-11T08:13:25Z</time>
      </trkpt>
      <trkpt lat="45.67961" lon="6.42835">
        <ele>1064.2</ele>
        <time>2021-07-11T08:13:29Z</time>
      </trkpt>
      <trkpt lat="45.67956" lon="6.4284">
        <ele>1064.2</ele>
        <time>2021-07-11T08:13:33Z</time>
      </trkpt>
      <trkpt lat="45.67953" lon="6.42846">
        <ele>1065.4</ele>
        <time>2021-07-11T08:13:37Z</time>
      </trkpt>
      <trkpt lat="45.6795" lon="6.42848">
        <ele>1065.6</ele>
        <time>2021-07-11T08:13:41Z</time>
      </trkpt>
      <trkpt lat="45.67946" lon="6.42849">
        <ele>1066.2</ele>
        <time>2021-07-11T08:13:45Z</time>
      </trkpt>
      <trkpt lat="45.67939" lon="6.42852">
        <ele>1066.8</ele>
        <time>2021-07-11T08:13:49Z</time>
      </trkpt>
      <trkpt lat="45.67932" lon="6.42857">
        <ele>1067.2</ele>
        <time>2021-07-11T08:13:53Z</time>
      </trkpt>
      <trkpt lat="45.67926" lon="6.42862">
        <ele>1067.6</ele>
        <time>2021-07-11T08:13:57Z</time>
      </trkpt>
      <trkpt lat="45.67919" lon="6.42869">
        <ele>1068.2</ele>
        <time>2021-07-11T08:14:01Z</time>
      </trkpt>
      <trkpt lat="45.67913" lon="6.42878">
        <ele>1068.6</ele>
        <time>2021-07-11T08:14:05Z</time>
      </trkpt>
      <trkpt lat="45.67909" lon="6.42888">
        <ele>1069.4</ele>
        <time>2021-07-11T08:14:09Z</time>
      </trkpt>
      <trkpt lat="45.67907" lon="6.42898">
        <ele>1069.8</ele>
        <time>2021-07-11T08:14:13Z</time>
      </trkpt>
      <trkpt lat="45.67905" lon="6.42907">
        <ele>1069.6</ele>
        <time>2021-07-11T08:14:17Z</time>
      </trkpt>
      <trkpt lat="45.67903" lon="6.42916">
        <ele>1069.8</ele>
        <time>2021-07-11T08:14:21Z</time>
      </trkpt>
      <trkpt lat="45.67902" lon="6.42925">
        <ele>1070.8</ele>
        <time>2021-07-11T08:14:25Z</time>
      </trkpt>
      <trkpt lat="45.679" lon="6.42937">
        <ele>1071</ele>
        <time>2021-07-11T08:14:29Z</time>
      </trkpt>
      <trkpt lat="45.67899" lon="6.42948">
        <ele>1072.4</ele>
        <time>2021-07-11T08:14:33Z</time>
      </trkpt>
      <trkpt lat="45.67898" lon="6.42958">
        <ele>1072</ele>
        <time>2021-07-11T08:14:37Z</time>
      </trkpt>
      <trkpt lat="45.67898" lon="6.42968">
        <ele>1072.6</ele>
        <time>2021-07-11T08:14:41Z</time>
      </trkpt>
      <trkpt lat="45.67897" lon="6.42978">
        <ele>1073.4</ele>
        <time>2021-07-11T08:14:45Z</time>
      </trkpt>
      <trkpt lat="45.67896" lon="6.42987">
        <ele>1074.4</ele>
        <time>2021-07-11T08:14:49Z</time>
      </trkpt>
      <trkpt lat="45.67896" lon="6.42997">
        <ele>1075.6</ele>
        <time>2021-07-11T08:14:53Z</time>
      </trkpt>
      <trkpt lat="45.67895" lon="6.43007">
        <ele>1075.4</ele>
        <time>2021-07-11T08:14:57Z</time>
      </trkpt>
      <trkpt lat="45.67895" lon="6.43017">
        <ele>1076.2</ele>
        <time>2021-07-11T08:15:01Z</time>
      </trkpt>
      <trkpt lat="45.67895" lon="6.43026">
        <ele>1076</ele>
        <time>2021-07-11T08:15:05Z</time>
      </trkpt>
      <trkpt lat="45.67896" lon="6.43035">
        <ele>1077.4</ele>
        <time>2021-07-11T08:15:09Z</time>
      </trkpt>
      <trkpt lat="45.67897" lon="6.43045">
        <ele>1078.2</ele>
        <time>2021-07-11T08:15:13Z</time>
      </trkpt>
      <trkpt lat="45.67899" lon="6.43053">
        <ele>1078.6</ele>
        <time>2021-07-11T08:15:17Z</time>
      </trkpt>
      <trkpt lat="45.67903" lon="6.43061">
        <ele>1080</ele>
        <time>2021-07-11T08:15:21Z</time>
      </trkpt>
      <trkpt lat="45.67907" lon="6.43067">
        <ele>1080.6</ele>
        <time>2021-07-11T08:15:25Z</time>
      </trkpt>
      <trkpt lat="45.67914" lon="6.4307">
        <ele>1081.6</ele>
        <time>2021-07-11T08:15:29Z</time>
      </trkpt>
      <trkpt lat="45.6792" lon="6.43075">
        <ele>1081.6</ele>
        <time>2021-07-11T08:15:33Z</time>
      </trkpt>
      <trkpt lat="45.67927" lon="6.43077">
        <ele>1082.2</ele>
        <time>2021-07-11T08:15:37Z</time>
      </trkpt>
      <trkpt lat="45.67933" lon="6.4308">
        <ele>1082.8</ele>
        <time>2021-07-11T08:15:41Z</time>
      </trkpt>
      <trkpt lat="45.67939" lon="6.43082">
        <ele>1083.8</ele>
        <time>2021-07-11T08:15:45Z</time>
      </trkpt>
      <trkpt lat="45.67943" lon="6.43084">
        <ele>1084.8</ele>
        <time>2021-07-11T08:15:49Z</time>
      </trkpt>
      <trkpt lat="45.67948" lon="6.43083">
        <ele>1085.4</ele>
        <time>2021-07-11T08:15:53Z</time>
      </trkpt>
      <trkpt lat="45.67954" lon="6.43083">
        <ele>1086</ele>
        <time>2021-07-11T08:15:57Z</time>
      </trkpt>
      <trkpt lat="45.67958" lon="6.43081">
        <ele>1086.4</ele>
        <time>2021-07-11T08:16:01Z</time>
      </trkpt>
      <trkpt lat="45.67963" lon="6.4308">
        <ele>1087.6</ele>
        <time>2021-07-11T08:16:05Z</time>
      </trkpt>
      <trkpt lat="45.67968" lon="6.43077">
        <ele>1088</ele>
        <time>2021-07-11T08:16:09Z</time>
      </trkpt>
      <trkpt lat="45.67973" lon="6.43074">
        <ele>1089</ele>
        <time>2021-07-11T08:16:13Z</time>
      </trkpt>
      <trkpt lat="45.67979" lon="6.43071">
        <ele>1089.4</ele>
        <time>2021-07-11T08:16:17Z</time>
      </trkpt>
      <trkpt lat="45.67985" lon="6.4307">
        <ele>1090.2</ele>
        <time>2021-07-11T08:16:21Z</time>
      </trkpt>
      <trkpt lat="45.67994" lon="6.4307">
        <ele>1090.8</ele>
        <time>2021-07-11T08:16:25Z</time>
      </trkpt>
      <trkpt lat="45.68002" lon="6.4307">
        <ele>1091.4</ele>
        <time>2021-07-11T08:16:29Z</time>
      </trkpt>
      <trkpt lat="45.68008" lon="6.43068">
        <ele>1091.8</ele>
        <time>2021-07-11T08:16:33Z</time>
      </trkpt>
      <trkpt lat="45.68012" lon="6.43064">
        <ele>1093</ele>
        <time>2021-07-11T08:16:37Z</time>
      </trkpt>
      <trkpt lat="45.68017" lon="6.43064">
        <ele>1093.4</ele>
        <time>2021-07-11T08:16:41Z</time>
      </trkpt>
      <trkpt lat="45.68021" lon="6.43062">
        <ele>1094.4</ele>
        <time>2021-07-11T08:16:45Z</time>
      </trkpt>
      <trkpt lat="45.68027" lon="6.4306">
        <ele>1094.6</ele>
        <time>2021-07-11T08:16:49Z</time>
      </trkpt>
      <trkpt lat="45.68033" lon="6.43058">
        <ele>1095</ele>
        <time>2021-07-11T08:16:53Z</time>
      </trkpt>
      <trkpt lat="45.68039" lon="6.43057">
        <ele>1095.8</ele>
        <time>2021-07-11T08:16:57Z</time>
      </trkpt>
      <trkpt lat="45.68046" lon="6.43059">
        <ele>1096.8</ele>
        <time>2021-07-11T08:17:01Z</time>
      </trkpt>
      <trkpt lat="45.68052" lon="6.4306">
        <ele>1097</ele>
        <time>2021-07-11T08:17:05Z</time>
      </trkpt>
      <trkpt lat="45.68056" lon="6.4306">
        <ele>1098</ele>
        <time>2021-07-11T08:17:09Z</time>
      </trkpt>
      <trkpt lat="45.68063" lon="6.43062">
        <ele>1099.2</ele>
        <time>2021-07-11T08:17:13Z</time>
      </trkpt>
      <trkpt lat="45.68069" lon="6.43064">
        <ele>1099.6</ele>
        <time>2021-07-11T08:17:17Z</time>
      </trkpt>
      <trkpt lat="45.68069" lon="6.43064">
        <ele>1100.4</ele>
        <time>2021-07-11T08:17:21Z</time>
      </trkpt>
      <trkpt lat="45.68074" lon="6.43065">
        <ele>1100.2</ele>
        <time>2021-07-11T08:17:25Z</time>
      </trkpt>
      <trkpt lat="45.68078" lon="6.4307">
        <ele>1100.8</ele>
        <time>2021-07-11T08:17:29Z</time>
      </trkpt>
      <trkpt lat="45.68081" lon="6.43084">
        <ele>1101.6</ele>
        <time>2021-07-11T08:17:33Z</time>
      </trkpt>
      <trkpt lat="45.68078" lon="6.43089">
        <ele>1102.2</ele>
        <time>2021-07-11T08:17:37Z</time>
      </trkpt>
      <trkpt lat="45.68073" lon="6.43091">
        <ele>1102.8</ele>
        <time>2021-07-11T08:17:41Z</time>
      </trkpt>
      <trkpt lat="45.68069" lon="6.43095">
        <ele>1103.4</ele>
        <time>2021-07-11T08:17:45Z</time>
      </trkpt>
      <trkpt lat="45.68065" lon="6.43096">
        <ele>1103.8</ele>
        <time>2021-07-11T08:17:49Z</time>
      </trkpt>
      <trkpt lat="45.68061" lon="6.43099">
        <ele>1105.2</ele>
        <time>2021-07-11T08:17:53Z</time>
      </trkpt>
      <trkpt lat="45.68057" lon="6.43101">
        <ele>1105.8</ele>
        <time>2021-07-11T08:17:57Z</time>
      </trkpt>
      <trkpt lat="45.68052" lon="6.43104">
        <ele>1105.4</ele>
        <time>2021-07-11T08:18:01Z</time>
      </trkpt>
      <trkpt lat="45.68044" lon="6.43109">
        <ele>1106.2</ele>
        <time>2021-07-11T08:18:05Z</time>
      </trkpt>
      <trkpt lat="45.68039" lon="6.43113">
        <ele>1107.2</ele>
        <time>2021-07-11T08:18:09Z</time>
      </trkpt>
      <trkpt lat="45.68033" lon="6.43119">
        <ele>1108</ele>
        <time>2021-07-11T08:18:13Z</time>
      </trkpt>
      <trkpt lat="45.68027" lon="6.43124">
        <ele>1108.4</ele>
        <time>2021-07-11T08:18:17Z</time>
      </trkpt>
      <trkpt lat="45.68021" lon="6.4313">
        <ele>1108.8</ele>
        <time>2021-07-11T08:18:21Z</time>
      </trkpt>
      <trkpt lat="45.68017" lon="6.43136">
        <ele>1109.6</ele>
        <time>2021-07-11T08:18:25Z</time>
      </trkpt>
      <trkpt lat="45.68013" lon="6.4314">
        <ele>1110.2</ele>
        <time>2021-07-11T08:18:29Z</time>
      </trkpt>
      <trkpt lat="45.68009" lon="6.43142">
        <ele>1110.4</ele>
        <time>2021-07-11T08:18:33Z</time>
      </trkpt>
      <trkpt lat="45.68003" lon="6.43149">
        <ele>1111.2</ele>
        <time>2021-07-11T08:18:37Z</time>
      </trkpt>
      <trkpt lat="45.67998" lon="6.43155">
        <ele>1111.8</ele>
        <time>2021-07-11T08:18:41Z</time>
      </trkpt>
      <trkpt lat="45.67993" lon="6.43159">
        <ele>1112.4</ele>
        <time>2021-07-11T08:18:45Z</time>
      </trkpt>
      <trkpt lat="45.67988" lon="6.43166">
        <ele>1112.6</ele>
        <time>2021-07-11T08:18:49Z</time>
      </trkpt>
      <trkpt lat="45.67982" lon="6.43174">
        <ele>1113.8</ele>
        <time>2021-07-11T08:18:53Z</time>
      </trkpt>
      <trkpt lat="45.67976" lon="6.4318">
        <ele>1114</ele>
        <time>2021-07-11T08:18:57Z</time>
      </trkpt>
      <trkpt lat="45.67971" lon="6.43183">
        <ele>1114.4</ele>
        <time>2021-07-11T08:19:01Z</time>
      </trkpt>
      <trkpt lat="45.67967" lon="6.43188">
        <ele>1114.8</ele>
        <time>2021-07-11T08:19:05Z</time>
      </trkpt>
      <trkpt lat="45.67963" lon="6.43195">
        <ele>1114</ele>
        <time>2021-07-11T08:19:09Z</time>
      </trkpt>
      <trkpt lat="45.67958" lon="6.43204">
        <ele>1116</ele>
        <time>2021-07-11T08:19:13Z</time>
      </trkpt>
      <trkpt lat="45.67956" lon="6.43212">
        <ele>1116.6</ele>
        <time>2021-07-11T08:19:17Z</time>
      </trkpt>
      <trkpt lat="45.67958" lon="6.43219">
        <ele>1117.4</ele>
        <time>2021-07-11T08:19:21Z</time>
      </trkpt>
      <trkpt lat="45.67964" lon="6.43217">
        <ele>1117.8</ele>
        <time>2021-07-11T08:19:25Z</time>
      </trkpt>
      <trkpt lat="45.67969" lon="6.43214">
        <ele>1118.6</ele>
        <time>2021-07-11T08:19:29Z</time>
      </trkpt>
      <trkpt lat="45.67974" lon="6.43211">
        <ele>1119.2</ele>
        <time>2021-07-11T08:19:33Z</time>
      </trkpt>
      <trkpt lat="45.67979" lon="6.43207">
        <ele>1120.2</ele>
        <time>2021-07-11T08:19:37Z</time>
      </trkpt>
      <trkpt lat="45.67984" lon="6.43203">
        <ele>1121</ele>
        <time>2021-07-11T08:19:41Z</time>
      </trkpt>
      <trkpt lat="45.67988" lon="6.43198">
        <ele>1121.8</ele>
        <time>2021-07-11T08:19:45Z</time>
      </trkpt>
      <trkpt lat="45.68032" lon="6.4318">
        <ele>1127.2</ele>
        <time>2021-07-11T08:20:18Z</time>
      </trkpt>
      <trkpt lat="45.68037" lon="6.43185">
        <ele>1127</ele>
        <time>2021-07-11T08:20:22Z</time>
      </trkpt>
      <trkpt lat="45.68035" lon="6.43193">
        <ele>1127.4</ele>
        <time>2021-07-11T08:20:26Z</time>
      </trkpt>
      <trkpt lat="45.68032" lon="6.43198">
        <ele>1128.6</ele>
        <time>2021-07-11T08:20:30Z</time>
      </trkpt>
      <trkpt lat="45.68031" lon="6.43202">
        <ele>1128.6</ele>
        <time>2021-07-11T08:20:34Z</time>
      </trkpt>
      <trkpt lat="45.68027" lon="6.43204">
        <ele>1129.2</ele>
        <time>2021-07-11T08:20:38Z</time>
      </trkpt>
      <trkpt lat="45.68022" lon="6.43206">
        <ele>1129.8</ele>
        <time>2021-07-11T08:20:42Z</time>
      </trkpt>
      <trkpt lat="45.68017" lon="6.43209">
        <ele>1130.4</ele>
        <time>2021-07-11T08:20:46Z</time>
      </trkpt>
      <trkpt lat="45.68012" lon="6.43215">
        <ele>1131</ele>
        <time>2021-07-11T08:20:50Z</time>
      </trkpt>
      <trkpt lat="45.68007" lon="6.43221">
        <ele>1131.4</ele>
        <time>2021-07-11T08:20:54Z</time>
      </trkpt>
      <trkpt lat="45.68003" lon="6.43228">
        <ele>1131.8</ele>
        <time>2021-07-11T08:20:58Z</time>
      </trkpt>
      <trkpt lat="45.67997" lon="6.43235">
        <ele>1132.6</ele>
        <time>2021-07-11T08:21:02Z</time>
      </trkpt>
      <trkpt lat="45.67994" lon="6.43242">
        <ele>1132.8</ele>
        <time>2021-07-11T08:21:06Z</time>
      </trkpt>
      <trkpt lat="45.67989" lon="6.43248">
        <ele>1134.2</ele>
        <time>2021-07-11T08:21:10Z</time>
      </trkpt>
      <trkpt lat="45.67985" lon="6.43254">
        <ele>1135</ele>
        <time>2021-07-11T08:21:14Z</time>
      </trkpt>
      <trkpt lat="45.67982" lon="6.43262">
        <ele>1134.6</ele>
        <time>2021-07-11T08:21:18Z</time>
      </trkpt>
      <trkpt lat="45.67979" lon="6.4327">
        <ele>1135.6</ele>
        <time>2021-07-11T08:21:22Z</time>
      </trkpt>
      <trkpt lat="45.6798" lon="6.43278">
        <ele>1136.2</ele>
        <time>2021-07-11T08:21:26Z</time>
      </trkpt>
      <trkpt lat="45.67989" lon="6.43279">
        <ele>1136.6</ele>
        <time>2021-07-11T08:21:30Z</time>
      </trkpt>
      <trkpt lat="45.67997" lon="6.43276">
        <ele>1137.6</ele>
        <time>2021-07-11T08:21:34Z</time>
      </trkpt>
      <trkpt lat="45.68002" lon="6.4327">
        <ele>1137.8</ele>
        <time>2021-07-11T08:21:38Z</time>
      </trkpt>
      <trkpt lat="45.68007" lon="6.43265">
        <ele>1138.8</ele>
        <time>2021-07-11T08:21:42Z</time>
      </trkpt>
      <trkpt lat="45.68012" lon="6.43262">
        <ele>1139.2</ele>
        <time>2021-07-11T08:21:46Z</time>
      </trkpt>
      <trkpt lat="45.68018" lon="6.43259">
        <ele>1140.2</ele>
        <time>2021-07-11T08:21:50Z</time>
      </trkpt>
      <trkpt lat="45.68021" lon="6.43254">
        <ele>1140.8</ele>
        <time>2021-07-11T08:21:54Z</time>
      </trkpt>
      <trkpt lat="45.68025" lon="6.43252">
        <ele>1141.2</ele>
        <time>2021-07-11T08:21:58Z</time>
      </trkpt>
      <trkpt lat="45.6803" lon="6.4325">
        <ele>1142.2</ele>
        <time>2021-07-11T08:22:02Z</time>
      </trkpt>
      <trkpt lat="45.68037" lon="6.43248">
        <ele>1143</ele>
        <time>2021-07-11T08:22:06Z</time>
      </trkpt>
      <trkpt lat="45.68042" lon="6.43244">
        <ele>1143.6</ele>
        <time>2021-07-11T08:22:10Z</time>
      </trkpt>
      <trkpt lat="45.68048" lon="6.43241">
        <ele>1144.2</ele>
        <time>2021-07-11T08:22:14Z</time>
      </trkpt>
      <trkpt lat="45.68053" lon="6.43239">
        <ele>1145</ele>
        <time>2021-07-11T08:22:18Z</time>
      </trkpt>
      <trkpt lat="45.68057" lon="6.43237">
        <ele>1145.2</ele>
        <time>2021-07-11T08:22:22Z</time>
      </trkpt>
      <trkpt lat="45.68062" lon="6.43235">
        <ele>1146.2</ele>
        <time>2021-07-11T08:22:26Z</time>
      </trkpt>
      <trkpt lat="45.68069" lon="6.43235">
        <ele>1146.8</ele>
        <time>2021-07-11T08:22:30Z</time>
      </trkpt>
      <trkpt lat="45.68076" lon="6.43234">
        <ele>1147.2</ele>
        <time>2021-07-11T08:22:34Z</time>
      </trkpt>
      <trkpt lat="45.68082" lon="6.43236">
        <ele>1148</ele>
        <time>2021-07-11T08:22:38Z</time>
      </trkpt>
      <trkpt lat="45.68089" lon="6.43237">
        <ele>1149</ele>
        <time>2021-07-11T08:22:42Z</time>
      </trkpt>
      <trkpt lat="45.68094" lon="6.43237">
        <ele>1149.4</ele>
        <time>2021-07-11T08:22:46Z</time>
      </trkpt>
      <trkpt lat="45.681" lon="6.43239">
        <ele>1149.8</ele>
        <time>2021-07-11T08:22:50Z</time>
      </trkpt>
      <trkpt lat="45.68105" lon="6.43241">
        <ele>1150.4</ele>
        <time>2021-07-11T08:22:54Z</time>
      </trkpt>
      <trkpt lat="45.68112" lon="6.43245">
        <ele>1151</ele>
        <time>2021-07-11T08:22:58Z</time>
      </trkpt>
      <trkpt lat="45.68116" lon="6.43248">
        <ele>1151.8</ele>
        <time>2021-07-11T08:23:02Z</time>
      </trkpt>
      <trkpt lat="45.68122" lon="6.43252">
        <ele>1152.4</ele>
        <time>2021-07-11T08:23:06Z</time>
      </trkpt>
      <trkpt lat="45.68129" lon="6.43256">
        <ele>1153.6</ele>
        <time>2021-07-11T08:23:10Z</time>
      </trkpt>
      <trkpt lat="45.68136" lon="6.43258">
        <ele>1154</ele>
        <time>2021-07-11T08:23:14Z</time>
      </trkpt>
      <trkpt lat="45.68141" lon="6.43261">
        <ele>1154.6</ele>
        <time>2021-07-11T08:23:18Z</time>
      </trkpt>
      <trkpt lat="45.68147" lon="6.43266">
        <ele>1154.8</ele>
        <time>2021-07-11T08:23:22Z</time>
      </trkpt>
      <trkpt lat="45.68153" lon="6.43269">
        <ele>1155.8</ele>
        <time>2021-07-11T08:23:26Z</time>
      </trkpt>
      <trkpt lat="45.68159" lon="6.43272">
        <ele>1157</ele>
        <time>2021-07-11T08:23:30Z</time>
      </trkpt>
      <trkpt lat="45.68164" lon="6.43276">
        <ele>1157.4</ele>
        <time>2021-07-11T08:23:34Z</time>
      </trkpt>
      <trkpt lat="45.68168" lon="6.43279">
        <ele>1158</ele>
        <time>2021-07-11T08:23:38Z</time>
      </trkpt>
      <trkpt lat="45.68173" lon="6.43282">
        <ele>1158.8</ele>
        <time>2021-07-11T08:23:42Z</time>
      </trkpt>
      <trkpt lat="45.68203" lon="6.43311">
        <ele>1163.4</ele>
        <time>2021-07-11T08:24:12Z</time>
      </trkpt>
      <trkpt lat="45.68211" lon="6.43315">
        <ele>1164.6</ele>
        <time>2021-07-11T08:24:16Z</time>
      </trkpt>
      <trkpt lat="45.68216" lon="6.43318">
        <ele>1165.4</ele>
        <time>2021-07-11T08:24:20Z</time>
      </trkpt>
      <trkpt lat="45.68245" lon="6.4333">
        <ele>1168</ele>
        <time>2021-07-11T08:24:35Z</time>
      </trkpt>
      <trkpt lat="45.68252" lon="6.43333">
        <ele>1168.6</ele>
        <time>2021-07-11T08:24:39Z</time>
      </trkpt>
      <trkpt lat="45.68257" lon="6.43334">
        <ele>1169.2</ele>
        <time>2021-07-11T08:24:43Z</time>
      </trkpt>
      <trkpt lat="45.68261" lon="6.43335">
        <ele>1170</ele>
        <time>2021-07-11T08:24:47Z</time>
      </trkpt>
      <trkpt lat="45.68282" lon="6.43338">
        <ele>1171.4</ele>
        <time>2021-07-11T08:25:00Z</time>
      </trkpt>
      <trkpt lat="45.68289" lon="6.43344">
        <ele>1172.6</ele>
        <time>2021-07-11T08:25:04Z</time>
      </trkpt>
      <trkpt lat="45.68291" lon="6.43351">
        <ele>1172.4</ele>
        <time>2021-07-11T08:25:08Z</time>
      </trkpt>
      <trkpt lat="45.6829" lon="6.43362">
        <ele>1173.2</ele>
        <time>2021-07-11T08:25:12Z</time>
      </trkpt>
      <trkpt lat="45.68288" lon="6.43367">
        <ele>1173.8</ele>
        <time>2021-07-11T08:25:16Z</time>
      </trkpt>
      <trkpt lat="45.68285" lon="6.43369">
        <ele>1173.8</ele>
        <time>2021-07-11T08:25:20Z</time>
      </trkpt>
      <trkpt lat="45.68284" lon="6.43372">
        <ele>1174.4</ele>
        <time>2021-07-11T08:25:24Z</time>
      </trkpt>
      <trkpt lat="45.68279" lon="6.43372">
        <ele>1174.6</ele>
        <time>2021-07-11T08:25:28Z</time>
      </trkpt>
      <trkpt lat="45.68273" lon="6.43373">
        <ele>1176.2</ele>
        <time>2021-07-11T08:25:32Z</time>
      </trkpt>
      <trkpt lat="45.68266" lon="6.43375">
        <ele>1177</ele>
        <time>2021-07-11T08:25:36Z</time>
      </trkpt>
      <trkpt lat="45.68262" lon="6.43378">
        <ele>1177.8</ele>
        <time>2021-07-11T08:25:40Z</time>
      </trkpt>
      <trkpt lat="45.68228" lon="6.43381">
        <ele>1180.6</ele>
        <time>2021-07-11T08:26:01Z</time>
      </trkpt>
      <trkpt lat="45.68223" lon="6.4338">
        <ele>1181.2</ele>
        <time>2021-07-11T08:26:05Z</time>
      </trkpt>
      <trkpt lat="45.68216" lon="6.43384">
        <ele>1182</ele>
        <time>2021-07-11T08:26:09Z</time>
      </trkpt>
      <trkpt lat="45.68059" lon="6.4341">
        <ele>1196</ele>
        <time>2021-07-11T08:27:48Z</time>
      </trkpt>
      <trkpt lat="45.68112" lon="6.43426">
        <ele>1203.2</ele>
        <time>2021-07-11T08:28:40Z</time>
      </trkpt>
      <trkpt lat="45.68111" lon="6.43435">
        <ele>1203.6</ele>
        <time>2021-07-11T08:28:44Z</time>
      </trkpt>
      <trkpt lat="45.68109" lon="6.43434">
        <ele>1204.8</ele>
        <time>2021-07-11T08:28:48Z</time>
      </trkpt>
      <trkpt lat="45.68106" lon="6.4344">
        <ele>1205.4</ele>
        <time>2021-07-11T08:28:52Z</time>
      </trkpt>
      <trkpt lat="45.68102" lon="6.43445">
        <ele>1205.6</ele>
        <time>2021-07-11T08:28:56Z</time>
      </trkpt>
      <trkpt lat="45.68096" lon="6.43451">
        <ele>1206</ele>
        <time>2021-07-11T08:29:00Z</time>
      </trkpt>
      <trkpt lat="45.68059" lon="6.43495">
        <ele>1211.6</ele>
        <time>2021-07-11T08:29:32Z</time>
      </trkpt>
      <trkpt lat="45.68053" lon="6.435">
        <ele>1212.2</ele>
        <time>2021-07-11T08:29:36Z</time>
      </trkpt>
      <trkpt lat="45.68047" lon="6.43506">
        <ele>1212.8</ele>
        <time>2021-07-11T08:29:40Z</time>
      </trkpt>
      <trkpt lat="45.68043" lon="6.43513">
        <ele>1213.8</ele>
        <time>2021-07-11T08:29:44Z</time>
      </trkpt>
      <trkpt lat="45.68035" lon="6.43516">
        <ele>1214.4</ele>
        <time>2021-07-11T08:29:48Z</time>
      </trkpt>
      <trkpt lat="45.68029" lon="6.43522">
        <ele>1215.2</ele>
        <time>2021-07-11T08:29:52Z</time>
      </trkpt>
      <trkpt lat="45.68025" lon="6.4353">
        <ele>1215.8</ele>
        <time>2021-07-11T08:29:56Z</time>
      </trkpt>
      <trkpt lat="45.68022" lon="6.43537">
        <ele>1216</ele>
        <time>2021-07-11T08:30:00Z</time>
      </trkpt>
      <trkpt lat="45.68019" lon="6.43541">
        <ele>1216.8</ele>
        <time>2021-07-11T08:30:04Z</time>
      </trkpt>
      <trkpt lat="45.68017" lon="6.43546">
        <ele>1217.2</ele>
        <time>2021-07-11T08:30:08Z</time>
      </trkpt>
      <trkpt lat="45.68017" lon="6.43546">
        <ele>1218.2</ele>
        <time>2021-07-11T08:30:12Z</time>
      </trkpt>
      <trkpt lat="45.67979" lon="6.43591">
        <ele>1223</ele>
        <time>2021-07-11T08:30:44Z</time>
      </trkpt>
      <trkpt lat="45.67977" lon="6.43598">
        <ele>1223.4</ele>
        <time>2021-07-11T08:30:48Z</time>
      </trkpt>
      <trkpt lat="45.6798" lon="6.43603">
        <ele>1224.6</ele>
        <time>2021-07-11T08:30:52Z</time>
      </trkpt>
      <trkpt lat="45.67984" lon="6.43602">
        <ele>1225.4</ele>
        <time>2021-07-11T08:30:56Z</time>
      </trkpt>
      <trkpt lat="45.6799" lon="6.43601">
        <ele>1225.4</ele>
        <time>2021-07-11T08:31:00Z</time>
      </trkpt>
      <trkpt lat="45.67996" lon="6.436">
        <ele>1226.6</ele>
        <time>2021-07-11T08:31:04Z</time>
      </trkpt>
      <trkpt lat="45.68002" lon="6.43599">
        <ele>1226.6</ele>
        <time>2021-07-11T08:31:08Z</time>
      </trkpt>
      <trkpt lat="45.6801" lon="6.436">
        <ele>1227.2</ele>
        <time>2021-07-11T08:31:12Z</time>
      </trkpt>
      <trkpt lat="45.68017" lon="6.43602">
        <ele>1228</ele>
        <time>2021-07-11T08:31:16Z</time>
      </trkpt>
      <trkpt lat="45.68024" lon="6.43603">
        <ele>1228.6</ele>
        <time>2021-07-11T08:31:20Z</time>
      </trkpt>
      <trkpt lat="45.6803" lon="6.43602">
        <ele>1229.4</ele>
        <time>2021-07-11T08:31:24Z</time>
      </trkpt>
      <trkpt lat="45.68036" lon="6.436">
        <ele>1229.8</ele>
        <time>2021-07-11T08:31:28Z</time>
      </trkpt>
      <trkpt lat="45.68042" lon="6.43599">
        <ele>1230.2</ele>
        <time>2021-07-11T08:31:32Z</time>
      </trkpt>
      <trkpt lat="45.68047" lon="6.43596">
        <ele>1231.8</ele>
        <time>2021-07-11T08:31:36Z</time>
      </trkpt>
      <trkpt lat="45.68053" lon="6.43593">
        <ele>1232</ele>
        <time>2021-07-11T08:31:40Z</time>
      </trkpt>
      <trkpt lat="45.68056" lon="6.43591">
        <ele>1232.8</ele>
        <time>2021-07-11T08:31:44Z</time>
      </trkpt>
      <trkpt lat="45.6806" lon="6.43585">
        <ele>1233.2</ele>
        <time>2021-07-11T08:31:48Z</time>
      </trkpt>
      <trkpt lat="45.68066" lon="6.4358">
        <ele>1233.8</ele>
        <time>2021-07-11T08:31:52Z</time>
      </trkpt>
      <trkpt lat="45.6807" lon="6.43575">
        <ele>1234.8</ele>
        <time>2021-07-11T08:31:56Z</time>
      </trkpt>
      <trkpt lat="45.68075" lon="6.43572">
        <ele>1235.4</ele>
        <time>2021-07-11T08:32:00Z</time>
      </trkpt>
      <trkpt lat="45.68083" lon="6.43568">
        <ele>1236</ele>
        <time>2021-07-11T08:32:04Z</time>
      </trkpt>
      <trkpt lat="45.68089" lon="6.43565">
        <ele>1236.4</ele>
        <time>2021-07-11T08:32:08Z</time>
      </trkpt>
      <trkpt lat="45.68094" lon="6.43561">
        <ele>1236.4</ele>
        <time>2021-07-11T08:32:12Z</time>
      </trkpt>
      <trkpt lat="45.68095" lon="6.43555">
        <ele>1238</ele>
        <time>2021-07-11T08:32:16Z</time>
      </trkpt>
      <trkpt lat="45.681" lon="6.43553">
        <ele>1237.8</ele>
        <time>2021-07-11T08:32:20Z</time>
      </trkpt>
      <trkpt lat="45.68105" lon="6.4355">
        <ele>1237.8</ele>
        <time>2021-07-11T08:32:24Z</time>
      </trkpt>
      <trkpt lat="45.68111" lon="6.43546">
        <ele>1238.6</ele>
        <time>2021-07-11T08:32:28Z</time>
      </trkpt>
      <trkpt lat="45.68116" lon="6.43544">
        <ele>1240.4</ele>
        <time>2021-07-11T08:32:32Z</time>
      </trkpt>
      <trkpt lat="45.68122" lon="6.43543">
        <ele>1241</ele>
        <time>2021-07-11T08:32:36Z</time>
      </trkpt>
      <trkpt lat="45.68211" lon="6.43559">
        <ele>1244</ele>
        <time>2021-07-11T08:36:55Z</time>
      </trkpt>
      <trkpt lat="45.68221" lon="6.43557">
        <ele>1244</ele>
        <time>2021-07-11T08:36:59Z</time>
      </trkpt>
      <trkpt lat="45.68228" lon="6.43554">
        <ele>1242.8</ele>
        <time>2021-07-11T08:37:03Z</time>
      </trkpt>
      <trkpt lat="45.68237" lon="6.43554">
        <ele>1244.8</ele>
        <time>2021-07-11T08:37:07Z</time>
      </trkpt>
      <trkpt lat="45.68245" lon="6.43552">
        <ele>1244.4</ele>
        <time>2021-07-11T08:37:11Z</time>
      </trkpt>
      <trkpt lat="45.68253" lon="6.43549">
        <ele>1244.6</ele>
        <time>2021-07-11T08:37:15Z</time>
      </trkpt>
      <trkpt lat="45.68259" lon="6.43552">
        <ele>1244.6</ele>
        <time>2021-07-11T08:37:19Z</time>
      </trkpt>
      <trkpt lat="45.68273" lon="6.43555">
        <ele>1243.2</ele>
        <time>2021-07-11T08:37:23Z</time>
      </trkpt>
      <trkpt lat="45.68287" lon="6.43559">
        <ele>1242.2</ele>
        <time>2021-07-11T08:37:27Z</time>
      </trkpt>
      <trkpt lat="45.683" lon="6.43567">
        <ele>1240</ele>
        <time>2021-07-11T08:37:31Z</time>
      </trkpt>
      <trkpt lat="45.68316" lon="6.43576">
        <ele>1237.6</ele>
        <time>2021-07-11T08:37:35Z</time>
      </trkpt>
      <trkpt lat="45.68324" lon="6.43575">
        <ele>1235</ele>
        <time>2021-07-11T08:37:39Z</time>
      </trkpt>
      <trkpt lat="45.68339" lon="6.43582">
        <ele>1232.2</ele>
        <time>2021-07-11T08:37:43Z</time>
      </trkpt>
      <trkpt lat="45.68339" lon="6.43582">
        <ele>1230.2</ele>
        <time>2021-07-11T08:37:47Z</time>
      </trkpt>
      <trkpt lat="45.68363" lon="6.43588">
        <ele>1229</ele>
        <time>2021-07-11T08:37:51Z</time>
      </trkpt>
      <trkpt lat="45.68397" lon="6.43591">
        <ele>1226.6</ele>
        <time>2021-07-11T08:37:55Z</time>
      </trkpt>
      <trkpt lat="45.68415" lon="6.43591">
        <ele>1223</ele>
        <time>2021-07-11T08:37:59Z</time>
      </trkpt>
      <trkpt lat="45.6843" lon="6.43587">
        <ele>1221</ele>
        <time>2021-07-11T08:38:03Z</time>
      </trkpt>
      <trkpt lat="45.68451" lon="6.43592">
        <ele>1219.2</ele>
        <time>2021-07-11T08:38:07Z</time>
      </trkpt>
      <trkpt lat="45.68465" lon="6.436">
        <ele>1217.6</ele>
        <time>2021-07-11T08:38:11Z</time>
      </trkpt>
      <trkpt lat="45.68499" lon="6.43609">
        <ele>1214.8</ele>
        <time>2021-07-11T08:38:15Z</time>
      </trkpt>
      <trkpt lat="45.68524" lon="6.43618">
        <ele>1213</ele>
        <time>2021-07-11T08:38:19Z</time>
      </trkpt>
      <trkpt lat="45.68536" lon="6.43637">
        <ele>1210.2</ele>
        <time>2021-07-11T08:38:23Z</time>
      </trkpt>
      <trkpt lat="45.6854" lon="6.43664">
        <ele>1208.4</ele>
        <time>2021-07-11T08:38:27Z</time>
      </trkpt>
      <trkpt lat="45.68548" lon="6.43679">
        <ele>1205.6</ele>
        <time>2021-07-11T08:38:31Z</time>
      </trkpt>
      <trkpt lat="45.68548" lon="6.43689">
        <ele>1203</ele>
        <time>2021-07-11T08:38:35Z</time>
      </trkpt>
      <trkpt lat="45.68554" lon="6.43704">
        <ele>1201</ele>
        <time>2021-07-11T08:38:39Z</time>
      </trkpt>
      <trkpt lat="45.68557" lon="6.4372">
        <ele>1199.8</ele>
        <time>2021-07-11T08:38:43Z</time>
      </trkpt>
      <trkpt lat="45.68557" lon="6.43747">
        <ele>1195.8</ele>
        <time>2021-07-11T08:38:47Z</time>
      </trkpt>
      <trkpt lat="45.68563" lon="6.43765">
        <ele>1195.4</ele>
        <time>2021-07-11T08:38:51Z</time>
      </trkpt>
      <trkpt lat="45.68572" lon="6.43778">
        <ele>1191.4</ele>
        <time>2021-07-11T08:38:55Z</time>
      </trkpt>
      <trkpt lat="45.68586" lon="6.4378">
        <ele>1189.2</ele>
        <time>2021-07-11T08:38:59Z</time>
      </trkpt>
      <trkpt lat="45.68623" lon="6.43791">
        <ele>1186.4</ele>
        <time>2021-07-11T08:39:03Z</time>
      </trkpt>
      <trkpt lat="45.68658" lon="6.43806">
        <ele>1183.2</ele>
        <time>2021-07-11T08:39:07Z</time>
      </trkpt>
      <trkpt lat="45.68695" lon="6.4381">
        <ele>1182.6</ele>
        <time>2021-07-11T08:39:11Z</time>
      </trkpt>
      <trkpt lat="45.68736" lon="6.43831">
        <ele>1181.8</ele>
        <time>2021-07-11T08:39:15Z</time>
      </trkpt>
      <trkpt lat="45.68768" lon="6.43842">
        <ele>1183.2</ele>
        <time>2021-07-11T08:39:19Z</time>
      </trkpt>
      <trkpt lat="45.68797" lon="6.4385">
        <ele>1184.4</ele>
        <time>2021-07-11T08:39:23Z</time>
      </trkpt>
      <trkpt lat="45.68805" lon="6.43865">
        <ele>1185.4</ele>
        <time>2021-07-11T08:39:27Z</time>
      </trkpt>
      <trkpt lat="45.68808" lon="6.4388">
        <ele>1186.6</ele>
        <time>2021-07-11T08:39:31Z</time>
      </trkpt>
      <trkpt lat="45.68819" lon="6.43891">
        <ele>1186.4</ele>
        <time>2021-07-11T08:39:35Z</time>
      </trkpt>
      <trkpt lat="45.68828" lon="6.43898">
        <ele>1187.8</ele>
        <time>2021-07-11T08:39:39Z</time>
      </trkpt>
      <trkpt lat="45.68837" lon="6.43906">
        <ele>1187.6</ele>
        <time>2021-07-11T08:39:43Z</time>
      </trkpt>
      <trkpt lat="45.6885" lon="6.43913">
        <ele>1187.4</ele>
        <time>2021-07-11T08:39:47Z</time>
      </trkpt>
      <trkpt lat="45.68865" lon="6.43923">
        <ele>1187.2</ele>
        <time>2021-07-11T08:39:51Z</time>
      </trkpt>
      <trkpt lat="45.68878" lon="6.43937">
        <ele>1187.6</ele>
        <time>2021-07-11T08:39:55Z</time>
      </trkpt>
      <trkpt lat="45.68888" lon="6.43953">
        <ele>1187.8</ele>
        <time>2021-07-11T08:39:59Z</time>
      </trkpt>
      <trkpt lat="45.6889" lon="6.43967">
        <ele>1188.6</ele>
        <time>2021-07-11T08:40:03Z</time>
      </trkpt>
      <trkpt lat="45.68897" lon="6.43984">
        <ele>1188.8</ele>
        <time>2021-07-11T08:40:07Z</time>
      </trkpt>
      <trkpt lat="45.68906" lon="6.43995">
        <ele>1188.2</ele>
        <time>2021-07-11T08:40:11Z</time>
      </trkpt>
      <trkpt lat="45.68915" lon="6.44007">
        <ele>1189.2</ele>
        <time>2021-07-11T08:40:15Z</time>
      </trkpt>
      <trkpt lat="45.68925" lon="6.4402">
        <ele>1189.4</ele>
        <time>2021-07-11T08:40:19Z</time>
      </trkpt>
      <trkpt lat="45.68939" lon="6.44036">
        <ele>1189.4</ele>
        <time>2021-07-11T08:40:23Z</time>
      </trkpt>
      <trkpt lat="45.68949" lon="6.44054">
        <ele>1189.6</ele>
        <time>2021-07-11T08:40:27Z</time>
      </trkpt>
      <trkpt lat="45.68952" lon="6.44072">
        <ele>1189.2</ele>
        <time>2021-07-11T08:40:31Z</time>
      </trkpt>
      <trkpt lat="45.68962" lon="6.44087">
        <ele>1190</ele>
        <time>2021-07-11T08:40:35Z</time>
      </trkpt>
      <trkpt lat="45.6897" lon="6.44103">
        <ele>1189</ele>
        <time>2021-07-11T08:40:39Z</time>
      </trkpt>
      <trkpt lat="45.68976" lon="6.44124">
        <ele>1187.2</ele>
        <time>2021-07-11T08:40:43Z</time>
      </trkpt>
      <trkpt lat="45.68989" lon="6.44139">
        <ele>1184.4</ele>
        <time>2021-07-11T08:40:47Z</time>
      </trkpt>
      <trkpt lat="45.69012" lon="6.44137">
        <ele>1181.6</ele>
        <time>2021-07-11T08:40:51Z</time>
      </trkpt>
      <trkpt lat="45.69034" lon="6.44141">
        <ele>1179.6</ele>
        <time>2021-07-11T08:40:55Z</time>
      </trkpt>
      <trkpt lat="45.69055" lon="6.44164">
        <ele>1177.6</ele>
        <time>2021-07-11T08:40:59Z</time>
      </trkpt>
      <trkpt lat="45.69081" lon="6.44177">
        <ele>1175</ele>
        <time>2021-07-11T08:41:03Z</time>
      </trkpt>
      <trkpt lat="45.69096" lon="6.44204">
        <ele>1172</ele>
        <time>2021-07-11T08:41:07Z</time>
      </trkpt>
      <trkpt lat="45.69111" lon="6.44232">
        <ele>1170.4</ele>
        <time>2021-07-11T08:41:11Z</time>
      </trkpt>
      <trkpt lat="45.69148" lon="6.44249">
        <ele>1170.6</ele>
        <time>2021-07-11T08:41:15Z</time>
      </trkpt>
      <trkpt lat="45.69161" lon="6.44257">
        <ele>1169.8</ele>
        <time>2021-07-11T08:41:19Z</time>
      </trkpt>
      <trkpt lat="45.69179" lon="6.44264">
        <ele>1170.2</ele>
        <time>2021-07-11T08:41:23Z</time>
      </trkpt>
      <trkpt lat="45.69195" lon="6.44269">
        <ele>1171.4</ele>
        <time>2021-07-11T08:41:27Z</time>
      </trkpt>
      <trkpt lat="45.69209" lon="6.44275">
        <ele>1172.4</ele>
        <time>2021-07-11T08:41:31Z</time>
      </trkpt>
      <trkpt lat="45.69219" lon="6.4428">
        <ele>1173.4</ele>
        <time>2021-07-11T08:41:35Z</time>
      </trkpt>
      <trkpt lat="45.69228" lon="6.44284">
        <ele>1174</ele>
        <time>2021-07-11T08:41:39Z</time>
      </trkpt>
      <trkpt lat="45.69238" lon="6.4429">
        <ele>1174.2</ele>
        <time>2021-07-11T08:41:43Z</time>
      </trkpt>
      <trkpt lat="45.6925" lon="6.44294">
        <ele>1175</ele>
        <time>2021-07-11T08:41:47Z</time>
      </trkpt>
      <trkpt lat="45.69258" lon="6.44297">
        <ele>1176.8</ele>
        <time>2021-07-11T08:41:51Z</time>
      </trkpt>
      <trkpt lat="45.69264" lon="6.44301">
        <ele>1177</ele>
        <time>2021-07-11T08:41:55Z</time>
      </trkpt>
      <trkpt lat="45.6927" lon="6.44306">
        <ele>1177.2</ele>
        <time>2021-07-11T08:41:59Z</time>
      </trkpt>
      <trkpt lat="45.69276" lon="6.44311">
        <ele>1178</ele>
        <time>2021-07-11T08:42:03Z</time>
      </trkpt>
      <trkpt lat="45.69283" lon="6.44316">
        <ele>1179.2</ele>
        <time>2021-07-11T08:42:07Z</time>
      </trkpt>
      <trkpt lat="45.69289" lon="6.44319">
        <ele>1180</ele>
        <time>2021-07-11T08:42:11Z</time>
      </trkpt>
      <trkpt lat="45.69295" lon="6.44322">
        <ele>1180.4</ele>
        <time>2021-07-11T08:42:15Z</time>
      </trkpt>
      <trkpt lat="45.693" lon="6.44324">
        <ele>1180.8</ele>
        <time>2021-07-11T08:42:19Z</time>
      </trkpt>
      <trkpt lat="45.69306" lon="6.44326">
        <ele>1182.2</ele>
        <time>2021-07-11T08:42:23Z</time>
      </trkpt>
      <trkpt lat="45.69311" lon="6.44326">
        <ele>1182.8</ele>
        <time>2021-07-11T08:42:27Z</time>
      </trkpt>
      <trkpt lat="45.69316" lon="6.44324">
        <ele>1184</ele>
        <time>2021-07-11T08:42:31Z</time>
      </trkpt>
      <trkpt lat="45.69323" lon="6.44327">
        <ele>1183.8</ele>
        <time>2021-07-11T08:42:35Z</time>
      </trkpt>
      <trkpt lat="45.69329" lon="6.44331">
        <ele>1185</ele>
        <time>2021-07-11T08:42:39Z</time>
      </trkpt>
      <trkpt lat="45.69336" lon="6.44335">
        <ele>1185.2</ele>
        <time>2021-07-11T08:42:43Z</time>
      </trkpt>
      <trkpt lat="45.69343" lon="6.44339">
        <ele>1186.2</ele>
        <time>2021-07-11T08:42:47Z</time>
      </trkpt>
      <trkpt lat="45.69347" lon="6.44342">
        <ele>1186.6</ele>
        <time>2021-07-11T08:42:51Z</time>
      </trkpt>
      <trkpt lat="45.69351" lon="6.44349">
        <ele>1187.2</ele>
        <time>2021-07-11T08:42:55Z</time>
      </trkpt>
      <trkpt lat="45.69352" lon="6.44354">
        <ele>1188</ele>
        <time>2021-07-11T08:42:59Z</time>
      </trkpt>
      <trkpt lat="45.69362" lon="6.44363">
        <ele>1188.8</ele>
        <time>2021-07-11T08:43:03Z</time>
      </trkpt>
      <trkpt lat="45.69368" lon="6.44369">
        <ele>1189.2</ele>
        <time>2021-07-11T08:43:07Z</time>
      </trkpt>
      <trkpt lat="45.69375" lon="6.44377">
        <ele>1189.6</ele>
        <time>2021-07-11T08:43:11Z</time>
      </trkpt>
      <trkpt lat="45.69381" lon="6.44383">
        <ele>1190.2</ele>
        <time>2021-07-11T08:43:15Z</time>
      </trkpt>
      <trkpt lat="45.69387" lon="6.44391">
        <ele>1190.6</ele>
        <time>2021-07-11T08:43:19Z</time>
      </trkpt>
      <trkpt lat="45.69395" lon="6.44399">
        <ele>1190.6</ele>
        <time>2021-07-11T08:43:23Z</time>
      </trkpt>
      <trkpt lat="45.69402" lon="6.44405">
        <ele>1190.8</ele>
        <time>2021-07-11T08:43:27Z</time>
      </trkpt>
      <trkpt lat="45.69409" lon="6.44414">
        <ele>1191.2</ele>
        <time>2021-07-11T08:43:31Z</time>
      </trkpt>
      <trkpt lat="45.69417" lon="6.44419">
        <ele>1191.2</ele>
        <time>2021-07-11T08:43:35Z</time>
      </trkpt>
      <trkpt lat="45.69426" lon="6.44426">
        <ele>1191.6</ele>
        <time>2021-07-11T08:43:39Z</time>
      </trkpt>
      <trkpt lat="45.69432" lon="6.44434">
        <ele>1191.2</ele>
        <time>2021-07-11T08:43:43Z</time>
      </trkpt>
      <trkpt lat="45.69435" lon="6.44451">
        <ele>1190.4</ele>
        <time>2021-07-11T08:43:47Z</time>
      </trkpt>
      <trkpt lat="45.69432" lon="6.44472">
        <ele>1189.4</ele>
        <time>2021-07-11T08:43:51Z</time>
      </trkpt>
      <trkpt lat="45.69439" lon="6.44486">
        <ele>1189.4</ele>
        <time>2021-07-11T08:43:55Z</time>
      </trkpt>
      <trkpt lat="45.69457" lon="6.44494">
        <ele>1186.6</ele>
        <time>2021-07-11T08:43:59Z</time>
      </trkpt>
      <trkpt lat="45.69479" lon="6.44512">
        <ele>1185.4</ele>
        <time>2021-07-11T08:44:03Z</time>
      </trkpt>
      <trkpt lat="45.69498" lon="6.4453">
        <ele>1184.4</ele>
        <time>2021-07-11T08:44:07Z</time>
      </trkpt>
      <trkpt lat="45.69513" lon="6.44542">
        <ele>1183</ele>
        <time>2021-07-11T08:44:11Z</time>
      </trkpt>
      <trkpt lat="45.69534" lon="6.44548">
        <ele>1181.8</ele>
        <time>2021-07-11T08:44:15Z</time>
      </trkpt>
      <trkpt lat="45.69556" lon="6.44554">
        <ele>1178.8</ele>
        <time>2021-07-11T08:44:19Z</time>
      </trkpt>
      <trkpt lat="45.69588" lon="6.44554">
        <ele>1178.2</ele>
        <time>2021-07-11T08:44:23Z</time>
      </trkpt>
      <trkpt lat="45.6961" lon="6.44569">
        <ele>1176</ele>
        <time>2021-07-11T08:44:27Z</time>
      </trkpt>
      <trkpt lat="45.69627" lon="6.4459">
        <ele>1174.4</ele>
        <time>2021-07-11T08:44:31Z</time>
      </trkpt>
      <trkpt lat="45.69644" lon="6.44613">
        <ele>1172.4</ele>
        <time>2021-07-11T08:44:35Z</time>
      </trkpt>
      <trkpt lat="45.69653" lon="6.44637">
        <ele>1170.8</ele>
        <time>2021-07-11T08:44:39Z</time>
      </trkpt>
      <trkpt lat="45.69661" lon="6.44668">
        <ele>1168.6</ele>
        <time>2021-07-11T08:44:43Z</time>
      </trkpt>
      <trkpt lat="45.69677" lon="6.44703">
        <ele>1168</ele>
        <time>2021-07-11T08:44:47Z</time>
      </trkpt>
      <trkpt lat="45.69683" lon="6.44739">
        <ele>1166.4</ele>
        <time>2021-07-11T08:44:51Z</time>
      </trkpt>
      <trkpt lat="45.69701" lon="6.44776">
        <ele>1165.2</ele>
        <time>2021-07-11T08:44:55Z</time>
      </trkpt>
      <trkpt lat="45.69724" lon="6.4481">
        <ele>1162.2</ele>
        <time>2021-07-11T08:44:59Z</time>
      </trkpt>
      <trkpt lat="45.69749" lon="6.44829">
        <ele>1161.2</ele>
        <time>2021-07-11T08:45:03Z</time>
      </trkpt>
      <trkpt lat="45.69764" lon="6.44845">
        <ele>1161</ele>
        <time>2021-07-11T08:45:07Z</time>
      </trkpt>
      <trkpt lat="45.69781" lon="6.44854">
        <ele>1162</ele>
        <time>2021-07-11T08:45:11Z</time>
      </trkpt>
      <trkpt lat="45.69795" lon="6.44861">
        <ele>1162.2</ele>
        <time>2021-07-11T08:45:15Z</time>
      </trkpt>
      <trkpt lat="45.69806" lon="6.44868">
        <ele>1163</ele>
        <time>2021-07-11T08:45:19Z</time>
      </trkpt>
      <trkpt lat="45.6981" lon="6.44874">
        <ele>1163.4</ele>
        <time>2021-07-11T08:45:23Z</time>
      </trkpt>
      <trkpt lat="45.69818" lon="6.4488">
        <ele>1165</ele>
        <time>2021-07-11T08:45:27Z</time>
      </trkpt>
      <trkpt lat="45.69822" lon="6.44886">
        <ele>1165.2</ele>
        <time>2021-07-11T08:45:31Z</time>
      </trkpt>
      <trkpt lat="45.6983" lon="6.44891">
        <ele>1165.8</ele>
        <time>2021-07-11T08:45:35Z</time>
      </trkpt>
      <trkpt lat="45.69836" lon="6.44896">
        <ele>1166.2</ele>
        <time>2021-07-11T08:45:39Z</time>
      </trkpt>
      <trkpt lat="45.69845" lon="6.44899">
        <ele>1166.8</ele>
        <time>2021-07-11T08:45:43Z</time>
      </trkpt>
      <trkpt lat="45.69854" lon="6.44903">
        <ele>1167.6</ele>
        <time>2021-07-11T08:45:47Z</time>
      </trkpt>
      <trkpt lat="45.69859" lon="6.44905">
        <ele>1168</ele>
        <time>2021-07-11T08:45:51Z</time>
      </trkpt>
      <trkpt lat="45.69863" lon="6.44907">
        <ele>1168.8</ele>
        <time>2021-07-11T08:45:55Z</time>
      </trkpt>
      <trkpt lat="45.69869" lon="6.44908">
        <ele>1169</ele>
        <time>2021-07-11T08:45:59Z</time>
      </trkpt>
      <trkpt lat="45.69875" lon="6.44911">
        <ele>1169.4</ele>
        <time>2021-07-11T08:46:03Z</time>
      </trkpt>
      <trkpt lat="45.69881" lon="6.44916">
        <ele>1170.6</ele>
        <time>2021-07-11T08:46:07Z</time>
      </trkpt>
      <trkpt lat="45.69888" lon="6.4492">
        <ele>1171</ele>
        <time>2021-07-11T08:46:11Z</time>
      </trkpt>
      <trkpt lat="45.69893" lon="6.44925">
        <ele>1171.6</ele>
        <time>2021-07-11T08:46:15Z</time>
      </trkpt>
      <trkpt lat="45.69902" lon="6.44928">
        <ele>1172</ele>
        <time>2021-07-11T08:46:19Z</time>
      </trkpt>
      <trkpt lat="45.69909" lon="6.44933">
        <ele>1173</ele>
        <time>2021-07-11T08:46:23Z</time>
      </trkpt>
      <trkpt lat="45.69916" lon="6.44938">
        <ele>1173.8</ele>
        <time>2021-07-11T08:46:27Z</time>
      </trkpt>
      <trkpt lat="45.69924" lon="6.44943">
        <ele>1173.8</ele>
        <time>2021-07-11T08:46:31Z</time>
      </trkpt>
      <trkpt lat="45.69932" lon="6.44949">
        <ele>1174.4</ele>
        <time>2021-07-11T08:46:35Z</time>
      </trkpt>
      <trkpt lat="45.6994" lon="6.44955">
        <ele>1175</ele>
        <time>2021-07-11T08:46:39Z</time>
      </trkpt>
      <trkpt lat="45.69951" lon="6.44958">
        <ele>1175.6</ele>
        <time>2021-07-11T08:46:43Z</time>
      </trkpt>
      <trkpt lat="45.69961" lon="6.44963">
        <ele>1176.2</ele>
        <time>2021-07-11T08:46:47Z</time>
      </trkpt>
      <trkpt lat="45.69972" lon="6.44968">
        <ele>1176</ele>
        <time>2021-07-11T08:46:51Z</time>
      </trkpt>
      <trkpt lat="45.69984" lon="6.44972">
        <ele>1176.2</ele>
        <time>2021-07-11T08:46:55Z</time>
      </trkpt>
      <trkpt lat="45.69994" lon="6.44972">
        <ele>1176.6</ele>
        <time>2021-07-11T08:46:59Z</time>
      </trkpt>
      <trkpt lat="45.70006" lon="6.44976">
        <ele>1176.2</ele>
        <time>2021-07-11T08:47:03Z</time>
      </trkpt>
      <trkpt lat="45.70019" lon="6.4498">
        <ele>1176</ele>
        <time>2021-07-11T08:47:07Z</time>
      </trkpt>
      <trkpt lat="45.70033" lon="6.44987">
        <ele>1176.2</ele>
        <time>2021-07-11T08:47:11Z</time>
      </trkpt>
      <trkpt lat="45.70046" lon="6.44994">
        <ele>1175.8</ele>
        <time>2021-07-11T08:47:15Z</time>
      </trkpt>
      <trkpt lat="45.7006" lon="6.45009">
        <ele>1176.4</ele>
        <time>2021-07-11T08:47:19Z</time>
      </trkpt>
      <trkpt lat="45.70069" lon="6.45025">
        <ele>1176.2</ele>
        <time>2021-07-11T08:47:23Z</time>
      </trkpt>
      <trkpt lat="45.70079" lon="6.45037">
        <ele>1176.2</ele>
        <time>2021-07-11T08:47:27Z</time>
      </trkpt>
      <trkpt lat="45.70085" lon="6.45046">
        <ele>1176.4</ele>
        <time>2021-07-11T08:47:31Z</time>
      </trkpt>
      <trkpt lat="45.70093" lon="6.45052">
        <ele>1176.2</ele>
        <time>2021-07-11T08:47:35Z</time>
      </trkpt>
      <trkpt lat="45.70109" lon="6.45058">
        <ele>1175.6</ele>
        <time>2021-07-11T08:47:39Z</time>
      </trkpt>
      <trkpt lat="45.70125" lon="6.45063">
        <ele>1175.6</ele>
        <time>2021-07-11T08:47:43Z</time>
      </trkpt>
      <trkpt lat="45.70142" lon="6.45071">
        <ele>1174.8</ele>
        <time>2021-07-11T08:47:47Z</time>
      </trkpt>
      <trkpt lat="45.7016" lon="6.45083">
        <ele>1174.4</ele>
        <time>2021-07-11T08:47:51Z</time>
      </trkpt>
      <trkpt lat="45.7018" lon="6.45105">
        <ele>1172.2</ele>
        <time>2021-07-11T08:47:55Z</time>
      </trkpt>
      <trkpt lat="45.702" lon="6.45127">
        <ele>1171.2</ele>
        <time>2021-07-11T08:47:59Z</time>
      </trkpt>
      <trkpt lat="45.70216" lon="6.45151">
        <ele>1169.2</ele>
        <time>2021-07-11T08:48:03Z</time>
      </trkpt>
      <trkpt lat="45.70229" lon="6.45178">
        <ele>1167.8</ele>
        <time>2021-07-11T08:48:07Z</time>
      </trkpt>
      <trkpt lat="45.70241" lon="6.45208">
        <ele>1166.2</ele>
        <time>2021-07-11T08:48:11Z</time>
      </trkpt>
      <trkpt lat="45.70255" lon="6.4523">
        <ele>1164.8</ele>
        <time>2021-07-11T08:48:15Z</time>
      </trkpt>
      <trkpt lat="45.70275" lon="6.45256">
        <ele>1163.2</ele>
        <time>2021-07-11T08:48:19Z</time>
      </trkpt>
      <trkpt lat="45.70294" lon="6.4528">
        <ele>1160</ele>
        <time>2021-07-11T08:48:23Z</time>
      </trkpt>
      <trkpt lat="45.70309" lon="6.45307">
        <ele>1161</ele>
        <time>2021-07-11T08:48:27Z</time>
      </trkpt>
      <trkpt lat="45.70316" lon="6.45335">
        <ele>1157.8</ele>
        <time>2021-07-11T08:48:31Z</time>
      </trkpt>
      <trkpt lat="45.70321" lon="6.4536">
        <ele>1156.4</ele>
        <time>2021-07-11T08:48:35Z</time>
      </trkpt>
      <trkpt lat="45.70315" lon="6.45387">
        <ele>1153.6</ele>
        <time>2021-07-11T08:48:39Z</time>
      </trkpt>
      <trkpt lat="45.70311" lon="6.45406">
        <ele>1153.6</ele>
        <time>2021-07-11T08:48:43Z</time>
      </trkpt>
      <trkpt lat="45.70321" lon="6.45408">
        <ele>1152.6</ele>
        <time>2021-07-11T08:48:47Z</time>
      </trkpt>
      <trkpt lat="45.70331" lon="6.45399">
        <ele>1152.6</ele>
        <time>2021-07-11T08:48:51Z</time>
      </trkpt>
      <trkpt lat="45.70338" lon="6.45381">
        <ele>1150.6</ele>
        <time>2021-07-11T08:48:55Z</time>
      </trkpt>
      <trkpt lat="45.70349" lon="6.45356">
        <ele>1147.8</ele>
        <time>2021-07-11T08:48:59Z</time>
      </trkpt>
      <trkpt lat="45.70354" lon="6.45326">
        <ele>1144.4</ele>
        <time>2021-07-11T08:49:03Z</time>
      </trkpt>
      <trkpt lat="45.70357" lon="6.45296">
        <ele>1142.8</ele>
        <time>2021-07-11T08:49:07Z</time>
      </trkpt>
      <trkpt lat="45.70371" lon="6.45298">
        <ele>1137.8</ele>
        <time>2021-07-11T08:49:11Z</time>
      </trkpt>
      <trkpt lat="45.70383" lon="6.45319">
        <ele>1139.4</ele>
        <time>2021-07-11T08:49:15Z</time>
      </trkpt>
      <trkpt lat="45.70398" lon="6.45336">
        <ele>1137</ele>
        <time>2021-07-11T08:49:19Z</time>
      </trkpt>
      <trkpt lat="45.70408" lon="6.45356">
        <ele>1134.4</ele>
        <time>2021-07-11T08:49:23Z</time>
      </trkpt>
      <trkpt lat="45.70413" lon="6.45385">
        <ele>1131.8</ele>
        <time>2021-07-11T08:49:27Z</time>
      </trkpt>
      <trkpt lat="45.70399" lon="6.45408">
        <ele>1129.4</ele>
        <time>2021-07-11T08:49:31Z</time>
      </trkpt>
      <trkpt lat="45.7039" lon="6.45425">
        <ele>1128.6</ele>
        <time>2021-07-11T08:49:35Z</time>
      </trkpt>
      <trkpt lat="45.7038" lon="6.45446">
        <ele>1125.2</ele>
        <time>2021-07-11T08:49:39Z</time>
      </trkpt>
      <trkpt lat="45.70368" lon="6.45473">
        <ele>1122.8</ele>
        <time>2021-07-11T08:49:43Z</time>
      </trkpt>
      <trkpt lat="45.70358" lon="6.45497">
        <ele>1120</ele>
        <time>2021-07-11T08:49:47Z</time>
      </trkpt>
      <trkpt lat="45.70352" lon="6.45519">
        <ele>1118</ele>
        <time>2021-07-11T08:49:51Z</time>
      </trkpt>
      <trkpt lat="45.70345" lon="6.45546">
        <ele>1115.2</ele>
        <time>2021-07-11T08:49:55Z</time>
      </trkpt>
      <trkpt lat="45.70338" lon="6.45594">
        <ele>1114.2</ele>
        <time>2021-07-11T08:49:59Z</time>
      </trkpt>
      <trkpt lat="45.70333" lon="6.45637">
        <ele>1113</ele>
        <time>2021-07-11T08:50:03Z</time>
      </trkpt>
      <trkpt lat="45.70328" lon="6.45677">
        <ele>1111.6</ele>
        <time>2021-07-11T08:50:07Z</time>
      </trkpt>
      <trkpt lat="45.70325" lon="6.45715">
        <ele>1111.6</ele>
        <time>2021-07-11T08:50:11Z</time>
      </trkpt>
      <trkpt lat="45.7032" lon="6.45751">
        <ele>1112</ele>
        <time>2021-07-11T08:50:15Z</time>
      </trkpt>
      <trkpt lat="45.70316" lon="6.45782">
        <ele>1111.6</ele>
        <time>2021-07-11T08:50:19Z</time>
      </trkpt>
      <trkpt lat="45.70318" lon="6.45808">
        <ele>1112</ele>
        <time>2021-07-11T08:50:23Z</time>
      </trkpt>
      <trkpt lat="45.70318" lon="6.45827">
        <ele>1112.8</ele>
        <time>2021-07-11T08:50:27Z</time>
      </trkpt>
      <trkpt lat="45.70318" lon="6.45846">
        <ele>1113</ele>
        <time>2021-07-11T08:50:31Z</time>
      </trkpt>
      <trkpt lat="45.7032" lon="6.45865">
        <ele>1113</ele>
        <time>2021-07-11T08:50:35Z</time>
      </trkpt>
      <trkpt lat="45.70324" lon="6.45883">
        <ele>1113.2</ele>
        <time>2021-07-11T08:50:39Z</time>
      </trkpt>
      <trkpt lat="45.7032" lon="6.45904">
        <ele>1112.6</ele>
        <time>2021-07-11T08:50:43Z</time>
      </trkpt>
      <trkpt lat="45.70316" lon="6.45924">
        <ele>1112.8</ele>
        <time>2021-07-11T08:50:47Z</time>
      </trkpt>
      <trkpt lat="45.70304" lon="6.45945">
        <ele>1111</ele>
        <time>2021-07-11T08:50:51Z</time>
      </trkpt>
      <trkpt lat="45.70296" lon="6.45968">
        <ele>1110.2</ele>
        <time>2021-07-11T08:50:55Z</time>
      </trkpt>
      <trkpt lat="45.70294" lon="6.45994">
        <ele>1108.4</ele>
        <time>2021-07-11T08:50:59Z</time>
      </trkpt>
      <trkpt lat="45.70295" lon="6.4602">
        <ele>1107</ele>
        <time>2021-07-11T08:51:03Z</time>
      </trkpt>
      <trkpt lat="45.70296" lon="6.46045">
        <ele>1105.4</ele>
        <time>2021-07-11T08:51:07Z</time>
      </trkpt>
      <trkpt lat="45.70292" lon="6.46074">
        <ele>1103</ele>
        <time>2021-07-11T08:51:11Z</time>
      </trkpt>
      <trkpt lat="45.70286" lon="6.46105">
        <ele>1100.4</ele>
        <time>2021-07-11T08:51:15Z</time>
      </trkpt>
      <trkpt lat="45.70276" lon="6.46141">
        <ele>1097.2</ele>
        <time>2021-07-11T08:51:19Z</time>
      </trkpt>
      <trkpt lat="45.70264" lon="6.46181">
        <ele>1095.4</ele>
        <time>2021-07-11T08:51:23Z</time>
      </trkpt>
      <trkpt lat="45.70259" lon="6.4622">
        <ele>1093</ele>
        <time>2021-07-11T08:51:27Z</time>
      </trkpt>
      <trkpt lat="45.70261" lon="6.46262">
        <ele>1090</ele>
        <time>2021-07-11T08:51:31Z</time>
      </trkpt>
      <trkpt lat="45.70261" lon="6.46308">
        <ele>1087.8</ele>
        <time>2021-07-11T08:51:35Z</time>
      </trkpt>
      <trkpt lat="45.70267" lon="6.4635">
        <ele>1086.8</ele>
        <time>2021-07-11T08:51:39Z</time>
      </trkpt>
      <trkpt lat="45.70267" lon="6.46393">
        <ele>1086.4</ele>
        <time>2021-07-11T08:51:43Z</time>
      </trkpt>
      <trkpt lat="45.70273" lon="6.46434">
        <ele>1086.8</ele>
        <time>2021-07-11T08:51:47Z</time>
      </trkpt>
      <trkpt lat="45.70278" lon="6.46469">
        <ele>1086.8</ele>
        <time>2021-07-11T08:51:51Z</time>
      </trkpt>
      <trkpt lat="45.70283" lon="6.465">
        <ele>1086.2</ele>
        <time>2021-07-11T08:51:55Z</time>
      </trkpt>
      <trkpt lat="45.70279" lon="6.46533">
        <ele>1086.6</ele>
        <time>2021-07-11T08:51:59Z</time>
      </trkpt>
      <trkpt lat="45.70267" lon="6.46566">
        <ele>1085.4</ele>
        <time>2021-07-11T08:52:03Z</time>
      </trkpt>
      <trkpt lat="45.70259" lon="6.46596">
        <ele>1085.8</ele>
        <time>2021-07-11T08:52:07Z</time>
      </trkpt>
      <trkpt lat="45.70259" lon="6.46622">
        <ele>1084.8</ele>
        <time>2021-07-11T08:52:11Z</time>
      </trkpt>
      <trkpt lat="45.70253" lon="6.46653">
        <ele>1082.4</ele>
        <time>2021-07-11T08:52:15Z</time>
      </trkpt>
      <trkpt lat="45.70253" lon="6.4669">
        <ele>1081</ele>
        <time>2021-07-11T08:52:19Z</time>
      </trkpt>
      <trkpt lat="45.70262" lon="6.46722">
        <ele>1079.6</ele>
        <time>2021-07-11T08:52:23Z</time>
      </trkpt>
      <trkpt lat="45.70266" lon="6.46757">
        <ele>1078.6</ele>
        <time>2021-07-11T08:52:27Z</time>
      </trkpt>
      <trkpt lat="45.70261" lon="6.46795">
        <ele>1074.4</ele>
        <time>2021-07-11T08:52:31Z</time>
      </trkpt>
      <trkpt lat="45.70255" lon="6.46823">
        <ele>1072.2</ele>
        <time>2021-07-11T08:52:35Z</time>
      </trkpt>
      <trkpt lat="45.70245" lon="6.4684">
        <ele>1071.6</ele>
        <time>2021-07-11T08:52:39Z</time>
      </trkpt>
      <trkpt lat="45.70244" lon="6.46868">
        <ele>1070.2</ele>
        <time>2021-07-11T08:52:43Z</time>
      </trkpt>
      <trkpt lat="45.70247" lon="6.46897">
        <ele>1067.8</ele>
        <time>2021-07-11T08:52:47Z</time>
      </trkpt>
      <trkpt lat="45.70237" lon="6.46923">
        <ele>1067.8</ele>
        <time>2021-07-11T08:52:51Z</time>
      </trkpt>
      <trkpt lat="45.70229" lon="6.46932">
        <ele>1067.6</ele>
        <time>2021-07-11T08:52:55Z</time>
      </trkpt>
      <trkpt lat="45.70235" lon="6.46941">
        <ele>1068</ele>
        <time>2021-07-11T08:56:02Z</time>
      </trkpt>
      <trkpt lat="45.70242" lon="6.46941">
        <ele>1067.4</ele>
        <time>2021-07-11T08:56:06Z</time>
      </trkpt>
      <trkpt lat="45.70253" lon="6.46924">
        <ele>1065.8</ele>
        <time>2021-07-11T08:56:10Z</time>
      </trkpt>
      <trkpt lat="45.70254" lon="6.469">
        <ele>1064.2</ele>
        <time>2021-07-11T08:56:14Z</time>
      </trkpt>
      <trkpt lat="45.70252" lon="6.46874">
        <ele>1064.4</ele>
        <time>2021-07-11T08:56:18Z</time>
      </trkpt>
      <trkpt lat="45.70264" lon="6.46888">
        <ele>1060.6</ele>
        <time>2021-07-11T08:56:22Z</time>
      </trkpt>
      <trkpt lat="45.70265" lon="6.46915">
        <ele>1059.2</ele>
        <time>2021-07-11T08:56:26Z</time>
      </trkpt>
      <trkpt lat="45.7026" lon="6.46946">
        <ele>1057.6</ele>
        <time>2021-07-11T08:56:30Z</time>
      </trkpt>
      <trkpt lat="45.70238" lon="6.46972">
        <ele>1055.4</ele>
        <time>2021-07-11T08:56:34Z</time>
      </trkpt>
      <trkpt lat="45.70203" lon="6.46973">
        <ele>1050.8</ele>
        <time>2021-07-11T08:56:38Z</time>
      </trkpt>
      <trkpt lat="45.70174" lon="6.46997">
        <ele>1048.2</ele>
        <time>2021-07-11T08:56:42Z</time>
      </trkpt>
      <trkpt lat="45.70149" lon="6.4703">
        <ele>1044.2</ele>
        <time>2021-07-11T08:56:46Z</time>
      </trkpt>
      <trkpt lat="45.70128" lon="6.47063">
        <ele>1041.6</ele>
        <time>2021-07-11T08:56:50Z</time>
      </trkpt>
      <trkpt lat="45.7011" lon="6.47083">
        <ele>1039</ele>
        <time>2021-07-11T08:56:54Z</time>
      </trkpt>
      <trkpt lat="45.70097" lon="6.47107">
        <ele>1037.8</ele>
        <time>2021-07-11T08:56:58Z</time>
      </trkpt>
      <trkpt lat="45.70098" lon="6.47133">
        <ele>1037.2</ele>
        <time>2021-07-11T08:57:02Z</time>
      </trkpt>
      <trkpt lat="45.70113" lon="6.47153">
        <ele>1035.8</ele>
        <time>2021-07-11T08:57:06Z</time>
      </trkpt>
      <trkpt lat="45.70131" lon="6.47149">
        <ele>1033.6</ele>
        <time>2021-07-11T08:57:10Z</time>
      </trkpt>
      <trkpt lat="45.70143" lon="6.47129">
        <ele>1032.6</ele>
        <time>2021-07-11T08:57:14Z</time>
      </trkpt>
      <trkpt lat="45.70158" lon="6.471">
        <ele>1030.8</ele>
        <time>2021-07-11T08:57:18Z</time>
      </trkpt>
      <trkpt lat="45.70176" lon="6.47077">
        <ele>1027.8</ele>
        <time>2021-07-11T08:57:22Z</time>
      </trkpt>
      <trkpt lat="45.70199" lon="6.47079">
        <ele>1026</ele>
        <time>2021-07-11T08:57:26Z</time>
      </trkpt>
      <trkpt lat="45.70223" lon="6.47083">
        <ele>1021.6</ele>
        <time>2021-07-11T08:57:30Z</time>
      </trkpt>
      <trkpt lat="45.70251" lon="6.47092">
        <ele>1017.8</ele>
        <time>2021-07-11T08:57:34Z</time>
      </trkpt>
      <trkpt lat="45.70276" lon="6.47114">
        <ele>1013.4</ele>
        <time>2021-07-11T08:57:38Z</time>
      </trkpt>
      <trkpt lat="45.70304" lon="6.47127">
        <ele>1010.6</ele>
        <time>2021-07-11T08:57:42Z</time>
      </trkpt>
      <trkpt lat="45.70335" lon="6.47112">
        <ele>1008.8</ele>
        <time>2021-07-11T08:57:46Z</time>
      </trkpt>
      <trkpt lat="45.7036" lon="6.47079">
        <ele>1006</ele>
        <time>2021-07-11T08:57:50Z</time>
      </trkpt>
      <trkpt lat="45.70373" lon="6.47035">
        <ele>1004.2</ele>
        <time>2021-07-11T08:57:54Z</time>
      </trkpt>
      <trkpt lat="45.70386" lon="6.47002">
        <ele>1001</ele>
        <time>2021-07-11T08:57:58Z</time>
      </trkpt>
      <trkpt lat="45.70384" lon="6.46967">
        <ele>998.6</ele>
        <time>2021-07-11T08:58:02Z</time>
      </trkpt>
      <trkpt lat="45.70384" lon="6.46923">
        <ele>995.4</ele>
        <time>2021-07-11T08:58:06Z</time>
      </trkpt>
      <trkpt lat="45.70396" lon="6.46876">
        <ele>992.2</ele>
        <time>2021-07-11T08:58:10Z</time>
      </trkpt>
      <trkpt lat="45.70408" lon="6.4683">
        <ele>989.2</ele>
        <time>2021-07-11T08:58:14Z</time>
      </trkpt>
      <trkpt lat="45.70408" lon="6.46785">
        <ele>985.8</ele>
        <time>2021-07-11T08:58:18Z</time>
      </trkpt>
      <trkpt lat="45.70408" lon="6.46747">
        <ele>983</ele>
        <time>2021-07-11T08:58:22Z</time>
      </trkpt>
      <trkpt lat="45.70418" lon="6.46721">
        <ele>980</ele>
        <time>2021-07-11T08:58:26Z</time>
      </trkpt>
      <trkpt lat="45.70443" lon="6.46687">
        <ele>976.2</ele>
        <time>2021-07-11T08:58:30Z</time>
      </trkpt>
      <trkpt lat="45.70466" lon="6.46639">
        <ele>972</ele>
        <time>2021-07-11T08:58:34Z</time>
      </trkpt>
      <trkpt lat="45.70487" lon="6.46603">
        <ele>970.4</ele>
        <time>2021-07-11T08:58:38Z</time>
      </trkpt>
      <trkpt lat="45.70492" lon="6.46562">
        <ele>967.8</ele>
        <time>2021-07-11T08:58:42Z</time>
      </trkpt>
      <trkpt lat="45.70501" lon="6.46517">
        <ele>965.4</ele>
        <time>2021-07-11T08:58:46Z</time>
      </trkpt>
      <trkpt lat="45.70514" lon="6.46472">
        <ele>962.8</ele>
        <time>2021-07-11T08:58:50Z</time>
      </trkpt>
      <trkpt lat="45.70522" lon="6.46429">
        <ele>959.6</ele>
        <time>2021-07-11T08:58:54Z</time>
      </trkpt>
      <trkpt lat="45.70521" lon="6.46381">
        <ele>955.4</ele>
        <time>2021-07-11T08:58:58Z</time>
      </trkpt>
      <trkpt lat="45.70533" lon="6.46341">
        <ele>952.8</ele>
        <time>2021-07-11T08:59:02Z</time>
      </trkpt>
      <trkpt lat="45.70553" lon="6.46302">
        <ele>948</ele>
        <time>2021-07-11T08:59:06Z</time>
      </trkpt>
      <trkpt lat="45.70577" lon="6.46276">
        <ele>946.4</ele>
        <time>2021-07-11T08:59:10Z</time>
      </trkpt>
      <trkpt lat="45.70601" lon="6.46249">
        <ele>944</ele>
        <time>2021-07-11T08:59:14Z</time>
      </trkpt>
      <trkpt lat="45.70619" lon="6.46217">
        <ele>940.8</ele>
        <time>2021-07-11T08:59:18Z</time>
      </trkpt>
      <trkpt lat="45.70639" lon="6.46186">
        <ele>938.6</ele>
        <time>2021-07-11T08:59:22Z</time>
      </trkpt>
      <trkpt lat="45.70655" lon="6.46177">
        <ele>936.8</ele>
        <time>2021-07-11T08:59:26Z</time>
      </trkpt>
      <trkpt lat="45.70655" lon="6.46202">
        <ele>934.4</ele>
        <time>2021-07-11T08:59:30Z</time>
      </trkpt>
      <trkpt lat="45.70658" lon="6.46244">
        <ele>930.4</ele>
        <time>2021-07-11T08:59:34Z</time>
      </trkpt>
      <trkpt lat="45.70653" lon="6.46293">
        <ele>928.4</ele>
        <time>2021-07-11T08:59:38Z</time>
      </trkpt>
      <trkpt lat="45.70638" lon="6.46347">
        <ele>925.4</ele>
        <time>2021-07-11T08:59:42Z</time>
      </trkpt>
      <trkpt lat="45.70626" lon="6.46391">
        <ele>921.4</ele>
        <time>2021-07-11T08:59:46Z</time>
      </trkpt>
      <trkpt lat="45.70629" lon="6.46418">
        <ele>918.6</ele>
        <time>2021-07-11T08:59:50Z</time>
      </trkpt>
      <trkpt lat="45.70647" lon="6.46404">
        <ele>916.4</ele>
        <time>2021-07-11T08:59:54Z</time>
      </trkpt>
      <trkpt lat="45.70669" lon="6.46372">
        <ele>913.8</ele>
        <time>2021-07-11T08:59:58Z</time>
      </trkpt>
      <trkpt lat="45.70698" lon="6.46344">
        <ele>910</ele>
        <time>2021-07-11T09:00:02Z</time>
      </trkpt>
      <trkpt lat="45.70725" lon="6.46311">
        <ele>906.2</ele>
        <time>2021-07-11T09:00:06Z</time>
      </trkpt>
      <trkpt lat="45.7075" lon="6.4627">
        <ele>902.6</ele>
        <time>2021-07-11T09:00:10Z</time>
      </trkpt>
      <trkpt lat="45.70774" lon="6.46237">
        <ele>900.4</ele>
        <time>2021-07-11T09:00:14Z</time>
      </trkpt>
      <trkpt lat="45.70788" lon="6.46193">
        <ele>899.2</ele>
        <time>2021-07-11T09:00:18Z</time>
      </trkpt>
      <trkpt lat="45.708" lon="6.46151">
        <ele>898.4</ele>
        <time>2021-07-11T09:00:22Z</time>
      </trkpt>
      <trkpt lat="45.7081" lon="6.46111">
        <ele>897.2</ele>
        <time>2021-07-11T09:00:26Z</time>
      </trkpt>
      <trkpt lat="45.70826" lon="6.46101">
        <ele>896.4</ele>
        <time>2021-07-11T09:00:30Z</time>
      </trkpt>
      <trkpt lat="45.70823" lon="6.46132">
        <ele>894.8</ele>
        <time>2021-07-11T09:00:34Z</time>
      </trkpt>
      <trkpt lat="45.70814" lon="6.46165">
        <ele>892</ele>
        <time>2021-07-11T09:00:38Z</time>
      </trkpt>
      <trkpt lat="45.70808" lon="6.46207">
        <ele>889.6</ele>
        <time>2021-07-11T09:00:42Z</time>
      </trkpt>
      <trkpt lat="45.70804" lon="6.46254">
        <ele>887.4</ele>
        <time>2021-07-11T09:00:46Z</time>
      </trkpt>
      <trkpt lat="45.70797" lon="6.46293">
        <ele>883.8</ele>
        <time>2021-07-11T09:00:50Z</time>
      </trkpt>
      <trkpt lat="45.70798" lon="6.46328">
        <ele>881</ele>
        <time>2021-07-11T09:00:54Z</time>
      </trkpt>
      <trkpt lat="45.708" lon="6.46374">
        <ele>878.6</ele>
        <time>2021-07-11T09:00:58Z</time>
      </trkpt>
      <trkpt lat="45.70795" lon="6.46424">
        <ele>876.4</ele>
        <time>2021-07-11T09:01:02Z</time>
      </trkpt>
      <trkpt lat="45.70779" lon="6.46466">
        <ele>872.6</ele>
        <time>2021-07-11T09:01:06Z</time>
      </trkpt>
      <trkpt lat="45.7076" lon="6.46503">
        <ele>869</ele>
        <time>2021-07-11T09:01:10Z</time>
      </trkpt>
      <trkpt lat="45.70737" lon="6.46552">
        <ele>864.6</ele>
        <time>2021-07-11T09:01:14Z</time>
      </trkpt>
      <trkpt lat="45.70723" lon="6.46607">
        <ele>861.6</ele>
        <time>2021-07-11T09:01:18Z</time>
      </trkpt>
      <trkpt lat="45.70717" lon="6.46663">
        <ele>859.4</ele>
        <time>2021-07-11T09:01:22Z</time>
      </trkpt>
      <trkpt lat="45.70716" lon="6.46695">
        <ele>857.8</ele>
        <time>2021-07-11T09:01:26Z</time>
      </trkpt>
      <trkpt lat="45.7071" lon="6.46726">
        <ele>857.2</ele>
        <time>2021-07-11T09:01:30Z</time>
      </trkpt>
      <trkpt lat="45.70697" lon="6.46759">
        <ele>856</ele>
        <time>2021-07-11T09:01:34Z</time>
      </trkpt>
      <trkpt lat="45.70682" lon="6.46793">
        <ele>854</ele>
        <time>2021-07-11T09:01:38Z</time>
      </trkpt>
      <trkpt lat="45.70666" lon="6.46824">
        <ele>853</ele>
        <time>2021-07-11T09:01:42Z</time>
      </trkpt>
      <trkpt lat="45.70654" lon="6.46848">
        <ele>851.4</ele>
        <time>2021-07-11T09:01:46Z</time>
      </trkpt>
      <trkpt lat="45.70638" lon="6.46874">
        <ele>850.4</ele>
        <time>2021-07-11T09:01:50Z</time>
      </trkpt>
      <trkpt lat="45.7064" lon="6.4691">
        <ele>848</ele>
        <time>2021-07-11T09:01:54Z</time>
      </trkpt>
      <trkpt lat="45.70647" lon="6.46956">
        <ele>846</ele>
        <time>2021-07-11T09:01:58Z</time>
      </trkpt>
      <trkpt lat="45.70653" lon="6.47005">
        <ele>844.4</ele>
        <time>2021-07-11T09:02:02Z</time>
      </trkpt>
      <trkpt lat="45.70658" lon="6.47045">
        <ele>841.4</ele>
        <time>2021-07-11T09:02:06Z</time>
      </trkpt>
      <trkpt lat="45.70663" lon="6.47068">
        <ele>840.8</ele>
        <time>2021-07-11T09:02:10Z</time>
      </trkpt>
      <trkpt lat="45.7067" lon="6.47044">
        <ele>839.4</ele>
        <time>2021-07-11T09:02:14Z</time>
      </trkpt>
      <trkpt lat="45.70662" lon="6.47003">
        <ele>835.8</ele>
        <time>2021-07-11T09:02:18Z</time>
      </trkpt>
      <trkpt lat="45.70663" lon="6.46972">
        <ele>832.8</ele>
        <time>2021-07-11T09:02:22Z</time>
      </trkpt>
      <trkpt lat="45.70673" lon="6.46953">
        <ele>831.6</ele>
        <time>2021-07-11T09:02:26Z</time>
      </trkpt>
      <trkpt lat="45.70682" lon="6.46925">
        <ele>827.4</ele>
        <time>2021-07-11T09:02:30Z</time>
      </trkpt>
      <trkpt lat="45.70704" lon="6.46896">
        <ele>823.4</ele>
        <time>2021-07-11T09:02:34Z</time>
      </trkpt>
      <trkpt lat="45.70743" lon="6.46875">
        <ele>819.4</ele>
        <time>2021-07-11T09:02:38Z</time>
      </trkpt>
      <trkpt lat="45.70774" lon="6.46831">
        <ele>815</ele>
        <time>2021-07-11T09:02:42Z</time>
      </trkpt>
      <trkpt lat="45.70797" lon="6.4678">
        <ele>810.6</ele>
        <time>2021-07-11T09:02:46Z</time>
      </trkpt>
      <trkpt lat="45.70831" lon="6.46746">
        <ele>807.4</ele>
        <time>2021-07-11T09:02:50Z</time>
      </trkpt>
      <trkpt lat="45.7086" lon="6.46714">
        <ele>803.2</ele>
        <time>2021-07-11T09:02:54Z</time>
      </trkpt>
      <trkpt lat="45.70883" lon="6.46687">
        <ele>802</ele>
        <time>2021-07-11T09:02:58Z</time>
      </trkpt>
      <trkpt lat="45.70896" lon="6.46665">
        <ele>801.4</ele>
        <time>2021-07-11T09:03:02Z</time>
      </trkpt>
      <trkpt lat="45.70908" lon="6.46639">
        <ele>801.4</ele>
        <time>2021-07-11T09:03:06Z</time>
      </trkpt>
      <trkpt lat="45.70917" lon="6.46613">
        <ele>801.4</ele>
        <time>2021-07-11T09:03:10Z</time>
      </trkpt>
      <trkpt lat="45.70927" lon="6.46591">
        <ele>802.2</ele>
        <time>2021-07-11T09:03:14Z</time>
      </trkpt>
      <trkpt lat="45.70941" lon="6.46575">
        <ele>802</ele>
        <time>2021-07-11T09:03:18Z</time>
      </trkpt>
      <trkpt lat="45.7095" lon="6.46568">
        <ele>801.6</ele>
        <time>2021-07-11T09:03:22Z</time>
      </trkpt>
      <trkpt lat="45.70958" lon="6.46563">
        <ele>802</ele>
        <time>2021-07-11T09:03:26Z</time>
      </trkpt>
      <trkpt lat="45.70971" lon="6.4656">
        <ele>801</ele>
        <time>2021-07-11T09:03:30Z</time>
      </trkpt>
      <trkpt lat="45.70988" lon="6.46547">
        <ele>799.8</ele>
        <time>2021-07-11T09:03:34Z</time>
      </trkpt>
      <trkpt lat="45.70997" lon="6.46515">
        <ele>798</ele>
        <time>2021-07-11T09:03:38Z</time>
      </trkpt>
      <trkpt lat="45.71009" lon="6.46474">
        <ele>796.6</ele>
        <time>2021-07-11T09:03:42Z</time>
      </trkpt>
      <trkpt lat="45.7103" lon="6.46437">
        <ele>793.2</ele>
        <time>2021-07-11T09:03:46Z</time>
      </trkpt>
      <trkpt lat="45.71048" lon="6.46399">
        <ele>790.8</ele>
        <time>2021-07-11T09:03:50Z</time>
      </trkpt>
      <trkpt lat="45.71059" lon="6.46417">
        <ele>788.8</ele>
        <time>2021-07-11T09:03:54Z</time>
      </trkpt>
      <trkpt lat="45.71049" lon="6.4646">
        <ele>786</ele>
        <time>2021-07-11T09:03:58Z</time>
      </trkpt>
      <trkpt lat="45.7104" lon="6.46512">
        <ele>782.8</ele>
        <time>2021-07-11T09:04:02Z</time>
      </trkpt>
      <trkpt lat="45.71032" lon="6.46567">
        <ele>780.2</ele>
        <time>2021-07-11T09:04:06Z</time>
      </trkpt>
      <trkpt lat="45.71021" lon="6.4662">
        <ele>776.4</ele>
        <time>2021-07-11T09:04:10Z</time>
      </trkpt>
      <trkpt lat="45.70999" lon="6.46668">
        <ele>772.2</ele>
        <time>2021-07-11T09:04:14Z</time>
      </trkpt>
      <trkpt lat="45.70969" lon="6.4671">
        <ele>769</ele>
        <time>2021-07-11T09:04:18Z</time>
      </trkpt>
      <trkpt lat="45.70939" lon="6.46755">
        <ele>765.2</ele>
        <time>2021-07-11T09:04:22Z</time>
      </trkpt>
      <trkpt lat="45.70921" lon="6.46803">
        <ele>761.8</ele>
        <time>2021-07-11T09:04:26Z</time>
      </trkpt>
      <trkpt lat="45.70909" lon="6.46843">
        <ele>759.2</ele>
        <time>2021-07-11T09:04:30Z</time>
      </trkpt>
      <trkpt lat="45.70894" lon="6.46873">
        <ele>756.6</ele>
        <time>2021-07-11T09:04:34Z</time>
      </trkpt>
      <trkpt lat="45.70875" lon="6.46899">
        <ele>753.2</ele>
        <time>2021-07-11T09:04:38Z</time>
      </trkpt>
      <trkpt lat="45.70875" lon="6.46916">
        <ele>752.8</ele>
        <time>2021-07-11T09:04:42Z</time>
      </trkpt>
      <trkpt lat="45.7089" lon="6.46915">
        <ele>751</ele>
        <time>2021-07-11T09:04:54Z</time>
      </trkpt>
      <trkpt lat="45.70914" lon="6.46911">
        <ele>749.4</ele>
        <time>2021-07-11T09:04:58Z</time>
      </trkpt>
      <trkpt lat="45.70943" lon="6.46918">
        <ele>748.4</ele>
        <time>2021-07-11T09:05:02Z</time>
      </trkpt>
      <trkpt lat="45.70969" lon="6.46928">
        <ele>744.4</ele>
        <time>2021-07-11T09:05:06Z</time>
      </trkpt>
      <trkpt lat="45.70993" lon="6.46899">
        <ele>742.2</ele>
        <time>2021-07-11T09:05:10Z</time>
      </trkpt>
      <trkpt lat="45.71024" lon="6.46868">
        <ele>737.8</ele>
        <time>2021-07-11T09:05:14Z</time>
      </trkpt>
      <trkpt lat="45.71046" lon="6.46847">
        <ele>735.8</ele>
        <time>2021-07-11T09:05:18Z</time>
      </trkpt>
      <trkpt lat="45.71061" lon="6.46819">
        <ele>733.4</ele>
        <time>2021-07-11T09:05:22Z</time>
      </trkpt>
      <trkpt lat="45.71083" lon="6.4678">
        <ele>731</ele>
        <time>2021-07-11T09:05:26Z</time>
      </trkpt>
      <trkpt lat="45.71102" lon="6.46741">
        <ele>728.4</ele>
        <time>2021-07-11T09:05:30Z</time>
      </trkpt>
      <trkpt lat="45.71112" lon="6.46755">
        <ele>725.4</ele>
        <time>2021-07-11T09:05:34Z</time>
      </trkpt>
      <trkpt lat="45.71097" lon="6.46793">
        <ele>723.2</ele>
        <time>2021-07-11T09:05:38Z</time>
      </trkpt>
      <trkpt lat="45.71084" lon="6.46845">
        <ele>719.6</ele>
        <time>2021-07-11T09:05:42Z</time>
      </trkpt>
      <trkpt lat="45.71074" lon="6.46901">
        <ele>716.6</ele>
        <time>2021-07-11T09:05:46Z</time>
      </trkpt>
      <trkpt lat="45.71065" lon="6.46962">
        <ele>713</ele>
        <time>2021-07-11T09:05:50Z</time>
      </trkpt>
      <trkpt lat="45.71054" lon="6.4702">
        <ele>708.4</ele>
        <time>2021-07-11T09:05:54Z</time>
      </trkpt>
      <trkpt lat="45.71038" lon="6.47066">
        <ele>705.2</ele>
        <time>2021-07-11T09:05:58Z</time>
      </trkpt>
      <trkpt lat="45.71013" lon="6.47094">
        <ele>702.6</ele>
        <time>2021-07-11T09:06:02Z</time>
      </trkpt>
      <trkpt lat="45.70992" lon="6.47114">
        <ele>699.6</ele>
        <time>2021-07-11T09:06:06Z</time>
      </trkpt>
      <trkpt lat="45.70983" lon="6.4715">
        <ele>698.4</ele>
        <time>2021-07-11T09:06:10Z</time>
      </trkpt>
      <trkpt lat="45.70979" lon="6.47175">
        <ele>695.8</ele>
        <time>2021-07-11T09:06:14Z</time>
      </trkpt>
      <trkpt lat="45.70998" lon="6.47163">
        <ele>694.6</ele>
        <time>2021-07-11T09:06:18Z</time>
      </trkpt>
      <trkpt lat="45.71013" lon="6.47132">
        <ele>692</ele>
        <time>2021-07-11T09:06:22Z</time>
      </trkpt>
      <trkpt lat="45.71032" lon="6.47118">
        <ele>691.6</ele>
        <time>2021-07-11T09:06:26Z</time>
      </trkpt>
      <trkpt lat="45.71051" lon="6.47114">
        <ele>690.8</ele>
        <time>2021-07-11T09:06:30Z</time>
      </trkpt>
      <trkpt lat="45.71069" lon="6.47103">
        <ele>690</ele>
        <time>2021-07-11T09:06:34Z</time>
      </trkpt>
      <trkpt lat="45.71085" lon="6.4708">
        <ele>687.6</ele>
        <time>2021-07-11T09:06:38Z</time>
      </trkpt>
      <trkpt lat="45.71106" lon="6.47054">
        <ele>685.8</ele>
        <time>2021-07-11T09:06:42Z</time>
      </trkpt>
      <trkpt lat="45.71128" lon="6.47027">
        <ele>683</ele>
        <time>2021-07-11T09:06:46Z</time>
      </trkpt>
      <trkpt lat="45.71145" lon="6.46995">
        <ele>679.8</ele>
        <time>2021-07-11T09:06:50Z</time>
      </trkpt>
      <trkpt lat="45.71163" lon="6.46957">
        <ele>678</ele>
        <time>2021-07-11T09:06:54Z</time>
      </trkpt>
      <trkpt lat="45.71175" lon="6.4692">
        <ele>674.2</ele>
        <time>2021-07-11T09:06:58Z</time>
      </trkpt>
      <trkpt lat="45.71178" lon="6.46887">
        <ele>673.2</ele>
        <time>2021-07-11T09:07:02Z</time>
      </trkpt>
      <trkpt lat="45.71194" lon="6.46858">
        <ele>670.6</ele>
        <time>2021-07-11T09:07:06Z</time>
      </trkpt>
      <trkpt lat="45.71205" lon="6.46817">
        <ele>667.6</ele>
        <time>2021-07-11T09:07:10Z</time>
      </trkpt>
      <trkpt lat="45.7122" lon="6.4677">
        <ele>664.4</ele>
        <time>2021-07-11T09:07:14Z</time>
      </trkpt>
      <trkpt lat="45.71235" lon="6.46717">
        <ele>661.2</ele>
        <time>2021-07-11T09:07:18Z</time>
      </trkpt>
      <trkpt lat="45.7125" lon="6.46659">
        <ele>657.8</ele>
        <time>2021-07-11T09:07:22Z</time>
      </trkpt>
      <trkpt lat="45.71266" lon="6.46606">
        <ele>655.4</ele>
        <time>2021-07-11T09:07:26Z</time>
      </trkpt>
      <trkpt lat="45.71288" lon="6.4657">
        <ele>650</ele>
        <time>2021-07-11T09:07:30Z</time>
      </trkpt>
      <trkpt lat="45.71296" lon="6.46524">
        <ele>648.6</ele>
        <time>2021-07-11T09:07:34Z</time>
      </trkpt>
      <trkpt lat="45.71307" lon="6.46464">
        <ele>644</ele>
        <time>2021-07-11T09:07:38Z</time>
      </trkpt>
      <trkpt lat="45.71312" lon="6.46422">
        <ele>642</ele>
        <time>2021-07-11T09:07:42Z</time>
      </trkpt>
      <trkpt lat="45.71325" lon="6.46424">
        <ele>640.2</ele>
        <time>2021-07-11T09:07:46Z</time>
      </trkpt>
      <trkpt lat="45.71324" lon="6.46454">
        <ele>638.2</ele>
        <time>2021-07-11T09:07:50Z</time>
      </trkpt>
      <trkpt lat="45.71317" lon="6.46495">
        <ele>637.2</ele>
        <time>2021-07-11T09:07:54Z</time>
      </trkpt>
      <trkpt lat="45.71313" lon="6.46541">
        <ele>633.8</ele>
        <time>2021-07-11T09:07:58Z</time>
      </trkpt>
      <trkpt lat="45.71319" lon="6.46587">
        <ele>633.2</ele>
        <time>2021-07-11T09:08:02Z</time>
      </trkpt>
      <trkpt lat="45.71321" lon="6.46623">
        <ele>628.8</ele>
        <time>2021-07-11T09:08:06Z</time>
      </trkpt>
      <trkpt lat="45.71318" lon="6.46667">
        <ele>626.2</ele>
        <time>2021-07-11T09:08:10Z</time>
      </trkpt>
      <trkpt lat="45.71317" lon="6.46716">
        <ele>623.4</ele>
        <time>2021-07-11T09:08:14Z</time>
      </trkpt>
      <trkpt lat="45.71318" lon="6.46749">
        <ele>619.6</ele>
        <time>2021-07-11T09:08:18Z</time>
      </trkpt>
      <trkpt lat="45.71299" lon="6.46788">
        <ele>617.2</ele>
        <time>2021-07-11T09:08:22Z</time>
      </trkpt>
      <trkpt lat="45.71278" lon="6.46827">
        <ele>614.4</ele>
        <time>2021-07-11T09:08:26Z</time>
      </trkpt>
      <trkpt lat="45.7127" lon="6.4686">
        <ele>611.8</ele>
        <time>2021-07-11T09:08:30Z</time>
      </trkpt>
      <trkpt lat="45.71272" lon="6.46885">
        <ele>608.8</ele>
        <time>2021-07-11T09:08:34Z</time>
      </trkpt>
      <trkpt lat="45.71272" lon="6.46899">
        <ele>607.8</ele>
        <time>2021-07-11T09:08:38Z</time>
      </trkpt>
      <trkpt lat="45.71271" lon="6.46917">
        <ele>605.8</ele>
        <time>2021-07-11T09:09:23Z</time>
      </trkpt>
      <trkpt lat="45.71267" lon="6.46939">
        <ele>604</ele>
        <time>2021-07-11T09:09:27Z</time>
      </trkpt>
      <trkpt lat="45.71274" lon="6.46969">
        <ele>601.4</ele>
        <time>2021-07-11T09:09:31Z</time>
      </trkpt>
      <trkpt lat="45.71284" lon="6.47009">
        <ele>597.6</ele>
        <time>2021-07-11T09:09:35Z</time>
      </trkpt>
      <trkpt lat="45.71295" lon="6.47048">
        <ele>594.6</ele>
        <time>2021-07-11T09:09:39Z</time>
      </trkpt>
      <trkpt lat="45.71281" lon="6.47084">
        <ele>593.2</ele>
        <time>2021-07-11T09:09:43Z</time>
      </trkpt>
      <trkpt lat="45.71278" lon="6.47142">
        <ele>590.6</ele>
        <time>2021-07-11T09:09:47Z</time>
      </trkpt>
      <trkpt lat="45.71273" lon="6.47173">
        <ele>587.4</ele>
        <time>2021-07-11T09:09:51Z</time>
      </trkpt>
      <trkpt lat="45.71266" lon="6.47215">
        <ele>584.4</ele>
        <time>2021-07-11T09:09:55Z</time>
      </trkpt>
      <trkpt lat="45.71254" lon="6.47267">
        <ele>582</ele>
        <time>2021-07-11T09:09:59Z</time>
      </trkpt>
      <trkpt lat="45.71241" lon="6.4731">
        <ele>578</ele>
        <time>2021-07-11T09:10:03Z</time>
      </trkpt>
      <trkpt lat="45.71215" lon="6.47337">
        <ele>575.6</ele>
        <time>2021-07-11T09:10:07Z</time>
      </trkpt>
      <trkpt lat="45.71215" lon="6.47359">
        <ele>573.2</ele>
        <time>2021-07-11T09:10:11Z</time>
      </trkpt>
      <trkpt lat="45.71224" lon="6.47415">
        <ele>569.4</ele>
        <time>2021-07-11T09:10:15Z</time>
      </trkpt>
      <trkpt lat="45.71234" lon="6.47453">
        <ele>566.4</ele>
        <time>2021-07-11T09:10:19Z</time>
      </trkpt>
      <trkpt lat="45.71241" lon="6.47505">
        <ele>563.2</ele>
        <time>2021-07-11T09:10:23Z</time>
      </trkpt>
      <trkpt lat="45.71259" lon="6.47559">
        <ele>558.8</ele>
        <time>2021-07-11T09:10:27Z</time>
      </trkpt>
      <trkpt lat="45.71281" lon="6.47609">
        <ele>558.2</ele>
        <time>2021-07-11T09:10:31Z</time>
      </trkpt>
      <trkpt lat="45.7131" lon="6.47649">
        <ele>554.6</ele>
        <time>2021-07-11T09:10:35Z</time>
      </trkpt>
      <trkpt lat="45.7134" lon="6.47686">
        <ele>553</ele>
        <time>2021-07-11T09:10:39Z</time>
      </trkpt>
      <trkpt lat="45.71347" lon="6.47732">
        <ele>554.4</ele>
        <time>2021-07-11T09:10:43Z</time>
      </trkpt>
      <trkpt lat="45.71343" lon="6.47774">
        <ele>555.2</ele>
        <time>2021-07-11T09:10:47Z</time>
      </trkpt>
      <trkpt lat="45.71335" lon="6.47806">
        <ele>555.8</ele>
        <time>2021-07-11T09:10:51Z</time>
      </trkpt>
      <trkpt lat="45.71329" lon="6.47832">
        <ele>554.8</ele>
        <time>2021-07-11T09:10:55Z</time>
      </trkpt>
      <trkpt lat="45.71325" lon="6.4786">
        <ele>551.2</ele>
        <time>2021-07-11T09:10:59Z</time>
      </trkpt>
      <trkpt lat="45.71311" lon="6.47901">
        <ele>550.2</ele>
        <time>2021-07-11T09:11:03Z</time>
      </trkpt>
      <trkpt lat="45.71295" lon="6.47943">
        <ele>548.6</ele>
        <time>2021-07-11T09:11:07Z</time>
      </trkpt>
      <trkpt lat="45.71286" lon="6.47994">
        <ele>546.4</ele>
        <time>2021-07-11T09:11:11Z</time>
      </trkpt>
      <trkpt lat="45.71292" lon="6.48045">
        <ele>546.4</ele>
        <time>2021-07-11T09:11:15Z</time>
      </trkpt>
      <trkpt lat="45.71294" lon="6.48097">
        <ele>545.6</ele>
        <time>2021-07-11T09:11:19Z</time>
      </trkpt>
      <trkpt lat="45.7129" lon="6.48144">
        <ele>546.6</ele>
        <time>2021-07-11T09:11:23Z</time>
      </trkpt>
      <trkpt lat="45.71294" lon="6.48178">
        <ele>549</ele>
        <time>2021-07-11T09:11:27Z</time>
      </trkpt>
      <trkpt lat="45.71299" lon="6.48196">
        <ele>548.6</ele>
        <time>2021-07-11T09:11:31Z</time>
      </trkpt>
      <trkpt lat="45.71295" lon="6.48205">
        <ele>550</ele>
        <time>2021-07-11T09:11:35Z</time>
      </trkpt>
      <trkpt lat="45.71291" lon="6.48216">
        <ele>551</ele>
        <time>2021-07-11T09:11:39Z</time>
      </trkpt>
      <trkpt lat="45.71293" lon="6.48227">
        <ele>551.2</ele>
        <time>2021-07-11T09:11:43Z</time>
      </trkpt>
      <trkpt lat="45.713" lon="6.48239">
        <ele>552.8</ele>
        <time>2021-07-11T09:11:47Z</time>
      </trkpt>
      <trkpt lat="45.71312" lon="6.4825">
        <ele>553.8</ele>
        <time>2021-07-11T09:11:51Z</time>
      </trkpt>
      <trkpt lat="45.7131" lon="6.4826">
        <ele>553.8</ele>
        <time>2021-07-11T09:11:55Z</time>
      </trkpt>
      <trkpt lat="45.71322" lon="6.48273">
        <ele>554.2</ele>
        <time>2021-07-11T09:11:59Z</time>
      </trkpt>
      <trkpt lat="45.71327" lon="6.48287">
        <ele>554.4</ele>
        <time>2021-07-11T09:12:03Z</time>
      </trkpt>
      <trkpt lat="45.71331" lon="6.48299">
        <ele>555.4</ele>
        <time>2021-07-11T09:12:07Z</time>
      </trkpt>
      <trkpt lat="45.71335" lon="6.48311">
        <ele>556</ele>
        <time>2021-07-11T09:12:11Z</time>
      </trkpt>
      <trkpt lat="45.71336" lon="6.48322">
        <ele>557</ele>
        <time>2021-07-11T09:12:15Z</time>
      </trkpt>
      <trkpt lat="45.71339" lon="6.48334">
        <ele>557.4</ele>
        <time>2021-07-11T09:12:19Z</time>
      </trkpt>
      <trkpt lat="45.71342" lon="6.48346">
        <ele>558</ele>
        <time>2021-07-11T09:12:23Z</time>
      </trkpt>
      <trkpt lat="45.71348" lon="6.48352">
        <ele>558.6</ele>
        <time>2021-07-11T09:12:27Z</time>
      </trkpt>
      <trkpt lat="45.71356" lon="6.48362">
        <ele>559.6</ele>
        <time>2021-07-11T09:12:31Z</time>
      </trkpt>
      <trkpt lat="45.71362" lon="6.4837">
        <ele>560</ele>
        <time>2021-07-11T09:12:35Z</time>
      </trkpt>
      <trkpt lat="45.7137" lon="6.48376">
        <ele>560.8</ele>
        <time>2021-07-11T09:12:39Z</time>
      </trkpt>
      <trkpt lat="45.71376" lon="6.48383">
        <ele>561</ele>
        <time>2021-07-11T09:12:43Z</time>
      </trkpt>
      <trkpt lat="45.71375" lon="6.48398">
        <ele>561.8</ele>
        <time>2021-07-11T09:12:47Z</time>
      </trkpt>
      <trkpt lat="45.71374" lon="6.48412">
        <ele>563</ele>
        <time>2021-07-11T09:12:51Z</time>
      </trkpt>
      <trkpt lat="45.71376" lon="6.48422">
        <ele>564</ele>
        <time>2021-07-11T09:12:55Z</time>
      </trkpt>
      <trkpt lat="45.71375" lon="6.48432">
        <ele>564.8</ele>
        <time>2021-07-11T09:12:59Z</time>
      </trkpt>
      <trkpt lat="45.71375" lon="6.48442">
        <ele>565.6</ele>
        <time>2021-07-11T09:13:03Z</time>
      </trkpt>
      <trkpt lat="45.71374" lon="6.48452">
        <ele>566.4</ele>
        <time>2021-07-11T09:13:07Z</time>
      </trkpt>
      <trkpt lat="45.7137" lon="6.48459">
        <ele>567.8</ele>
        <time>2021-07-11T09:13:11Z</time>
      </trkpt>
      <trkpt lat="45.7137" lon="6.48472">
        <ele>568.4</ele>
        <time>2021-07-11T09:13:15Z</time>
      </trkpt>
      <trkpt lat="45.71368" lon="6.48483">
        <ele>568.2</ele>
        <time>2021-07-11T09:13:19Z</time>
      </trkpt>
      <trkpt lat="45.71366" lon="6.48494">
        <ele>569.4</ele>
        <time>2021-07-11T09:13:23Z</time>
      </trkpt>
      <trkpt lat="45.71364" lon="6.48505">
        <ele>570.2</ele>
        <time>2021-07-11T09:13:27Z</time>
      </trkpt>
      <trkpt lat="45.71363" lon="6.48515">
        <ele>570.8</ele>
        <time>2021-07-11T09:13:31Z</time>
      </trkpt>
      <trkpt lat="45.71361" lon="6.48527">
        <ele>571</ele>
        <time>2021-07-11T09:13:35Z</time>
      </trkpt>
      <trkpt lat="45.71359" lon="6.4854">
        <ele>572</ele>
        <time>2021-07-11T09:13:39Z</time>
      </trkpt>
      <trkpt lat="45.71361" lon="6.48552">
        <ele>572.8</ele>
        <time>2021-07-11T09:13:43Z</time>
      </trkpt>
      <trkpt lat="45.71362" lon="6.48564">
        <ele>573.2</ele>
        <time>2021-07-11T09:13:47Z</time>
      </trkpt>
      <trkpt lat="45.71368" lon="6.48577">
        <ele>573.8</ele>
        <time>2021-07-11T09:13:51Z</time>
      </trkpt>
      <trkpt lat="45.71369" lon="6.48583">
        <ele>574.6</ele>
        <time>2021-07-11T09:13:55Z</time>
      </trkpt>
      <trkpt lat="45.71371" lon="6.48592">
        <ele>575.4</ele>
        <time>2021-07-11T09:13:59Z</time>
      </trkpt>
      <trkpt lat="45.71373" lon="6.486">
        <ele>575.6</ele>
        <time>2021-07-11T09:14:03Z</time>
      </trkpt>
      <trkpt lat="45.71378" lon="6.48607">
        <ele>576.6</ele>
        <time>2021-07-11T09:14:07Z</time>
      </trkpt>
      <trkpt lat="45.71381" lon="6.48613">
        <ele>577.2</ele>
        <time>2021-07-11T09:14:11Z</time>
      </trkpt>
      <trkpt lat="45.71389" lon="6.48621">
        <ele>577.8</ele>
        <time>2021-07-11T09:14:15Z</time>
      </trkpt>
      <trkpt lat="45.71393" lon="6.48627">
        <ele>578.4</ele>
        <time>2021-07-11T09:14:19Z</time>
      </trkpt>
      <trkpt lat="45.71401" lon="6.48633">
        <ele>579.4</ele>
        <time>2021-07-11T09:14:23Z</time>
      </trkpt>
      <trkpt lat="45.71409" lon="6.4864">
        <ele>580</ele>
        <time>2021-07-11T09:14:27Z</time>
      </trkpt>
      <trkpt lat="45.71415" lon="6.48647">
        <ele>580.6</ele>
        <time>2021-07-11T09:14:31Z</time>
      </trkpt>
      <trkpt lat="45.71421" lon="6.48654">
        <ele>581</ele>
        <time>2021-07-11T09:14:35Z</time>
      </trkpt>
      <trkpt lat="45.71424" lon="6.48661">
        <ele>582</ele>
        <time>2021-07-11T09:14:39Z</time>
      </trkpt>
      <trkpt lat="45.71425" lon="6.48664">
        <ele>582.6</ele>
        <time>2021-07-11T09:14:43Z</time>
      </trkpt>
      <trkpt lat="45.7143" lon="6.48669">
        <ele>583</ele>
        <time>2021-07-11T09:14:47Z</time>
      </trkpt>
      <trkpt lat="45.71436" lon="6.48674">
        <ele>583.8</ele>
        <time>2021-07-11T09:14:51Z</time>
      </trkpt>
      <trkpt lat="45.71442" lon="6.4868">
        <ele>584.2</ele>
        <time>2021-07-11T09:14:55Z</time>
      </trkpt>
      <trkpt lat="45.71448" lon="6.48687">
        <ele>585.2</ele>
        <time>2021-07-11T09:14:59Z</time>
      </trkpt>
      <trkpt lat="45.71453" lon="6.48692">
        <ele>585.8</ele>
        <time>2021-07-11T09:15:03Z</time>
      </trkpt>
      <trkpt lat="45.71459" lon="6.48697">
        <ele>586.8</ele>
        <time>2021-07-11T09:15:07Z</time>
      </trkpt>
      <trkpt lat="45.71464" lon="6.487">
        <ele>587.4</ele>
        <time>2021-07-11T09:15:11Z</time>
      </trkpt>
      <trkpt lat="45.71472" lon="6.48701">
        <ele>588.2</ele>
        <time>2021-07-11T09:15:15Z</time>
      </trkpt>
      <trkpt lat="45.71478" lon="6.48705">
        <ele>589.4</ele>
        <time>2021-07-11T09:15:19Z</time>
      </trkpt>
      <trkpt lat="45.71483" lon="6.48709">
        <ele>589.6</ele>
        <time>2021-07-11T09:15:23Z</time>
      </trkpt>
      <trkpt lat="45.71489" lon="6.48715">
        <ele>590.2</ele>
        <time>2021-07-11T09:15:27Z</time>
      </trkpt>
      <trkpt lat="45.71492" lon="6.48723">
        <ele>591</ele>
        <time>2021-07-11T09:15:31Z</time>
      </trkpt>
      <trkpt lat="45.7149" lon="6.48732">
        <ele>592</ele>
        <time>2021-07-11T09:15:35Z</time>
      </trkpt>
      <trkpt lat="45.71487" lon="6.48739">
        <ele>592.8</ele>
        <time>2021-07-11T09:15:39Z</time>
      </trkpt>
      <trkpt lat="45.71484" lon="6.48746">
        <ele>593</ele>
        <time>2021-07-11T09:15:43Z</time>
      </trkpt>
      <trkpt lat="45.71481" lon="6.48754">
        <ele>593.8</ele>
        <time>2021-07-11T09:15:47Z</time>
      </trkpt>
      <trkpt lat="45.71479" lon="6.48762">
        <ele>594.6</ele>
        <time>2021-07-11T09:15:51Z</time>
      </trkpt>
      <trkpt lat="45.71477" lon="6.4877">
        <ele>595.4</ele>
        <time>2021-07-11T09:15:55Z</time>
      </trkpt>
      <trkpt lat="45.71475" lon="6.48779">
        <ele>596</ele>
        <time>2021-07-11T09:15:59Z</time>
      </trkpt>
      <trkpt lat="45.71473" lon="6.48787">
        <ele>597.2</ele>
        <time>2021-07-11T09:16:03Z</time>
      </trkpt>
      <trkpt lat="45.71472" lon="6.48796">
        <ele>598.2</ele>
        <time>2021-07-11T09:16:07Z</time>
      </trkpt>
      <trkpt lat="45.71471" lon="6.48805">
        <ele>599</ele>
        <time>2021-07-11T09:16:11Z</time>
      </trkpt>
      <trkpt lat="45.71471" lon="6.48814">
        <ele>599.6</ele>
        <time>2021-07-11T09:16:15Z</time>
      </trkpt>
      <trkpt lat="45.71471" lon="6.48822">
        <ele>600.4</ele>
        <time>2021-07-11T09:16:19Z</time>
      </trkpt>
      <trkpt lat="45.7148" lon="6.48843">
        <ele>601.2</ele>
        <time>2021-07-11T09:17:44Z</time>
      </trkpt>
      <trkpt lat="45.71478" lon="6.48853">
        <ele>601.6</ele>
        <time>2021-07-11T09:17:48Z</time>
      </trkpt>
      <trkpt lat="45.71482" lon="6.48861">
        <ele>602.6</ele>
        <time>2021-07-11T09:17:52Z</time>
      </trkpt>
      <trkpt lat="45.71484" lon="6.4887">
        <ele>604</ele>
        <time>2021-07-11T09:17:56Z</time>
      </trkpt>
      <trkpt lat="45.71486" lon="6.48879">
        <ele>604.6</ele>
        <time>2021-07-11T09:18:00Z</time>
      </trkpt>
      <trkpt lat="45.71488" lon="6.48889">
        <ele>605.4</ele>
        <time>2021-07-11T09:18:04Z</time>
      </trkpt>
      <trkpt lat="45.7149" lon="6.48899">
        <ele>606.4</ele>
        <time>2021-07-11T09:18:08Z</time>
      </trkpt>
      <trkpt lat="45.71492" lon="6.48909">
        <ele>606.6</ele>
        <time>2021-07-11T09:18:12Z</time>
      </trkpt>
      <trkpt lat="45.71493" lon="6.48919">
        <ele>607.6</ele>
        <time>2021-07-11T09:18:16Z</time>
      </trkpt>
      <trkpt lat="45.71496" lon="6.48927">
        <ele>608.6</ele>
        <time>2021-07-11T09:18:20Z</time>
      </trkpt>
      <trkpt lat="45.71499" lon="6.48935">
        <ele>609.4</ele>
        <time>2021-07-11T09:18:24Z</time>
      </trkpt>
      <trkpt lat="45.71502" lon="6.48943">
        <ele>609.6</ele>
        <time>2021-07-11T09:18:28Z</time>
      </trkpt>
      <trkpt lat="45.71504" lon="6.4895">
        <ele>610.8</ele>
        <time>2021-07-11T09:18:32Z</time>
      </trkpt>
      <trkpt lat="45.71506" lon="6.4896">
        <ele>610.6</ele>
        <time>2021-07-11T09:18:36Z</time>
      </trkpt>
      <trkpt lat="45.71509" lon="6.48968">
        <ele>612</ele>
        <time>2021-07-11T09:18:40Z</time>
      </trkpt>
      <trkpt lat="45.71512" lon="6.48977">
        <ele>613</ele>
        <time>2021-07-11T09:18:44Z</time>
      </trkpt>
      <trkpt lat="45.71515" lon="6.48986">
        <ele>613.6</ele>
        <time>2021-07-11T09:18:48Z</time>
      </trkpt>
      <trkpt lat="45.71518" lon="6.48996">
        <ele>614.8</ele>
        <time>2021-07-11T09:18:52Z</time>
      </trkpt>
      <trkpt lat="45.7152" lon="6.49006">
        <ele>614.6</ele>
        <time>2021-07-11T09:18:56Z</time>
      </trkpt>
      <trkpt lat="45.7152" lon="6.49017">
        <ele>615.6</ele>
        <time>2021-07-11T09:19:00Z</time>
      </trkpt>
      <trkpt lat="45.71521" lon="6.49028">
        <ele>616.2</ele>
        <time>2021-07-11T09:19:04Z</time>
      </trkpt>
      <trkpt lat="45.7152" lon="6.49038">
        <ele>617.6</ele>
        <time>2021-07-11T09:19:08Z</time>
      </trkpt>
      <trkpt lat="45.71518" lon="6.49049">
        <ele>617.8</ele>
        <time>2021-07-11T09:19:12Z</time>
      </trkpt>
      <trkpt lat="45.71516" lon="6.49058">
        <ele>618.4</ele>
        <time>2021-07-11T09:19:16Z</time>
      </trkpt>
      <trkpt lat="45.71516" lon="6.49068">
        <ele>619.2</ele>
        <time>2021-07-11T09:19:20Z</time>
      </trkpt>
      <trkpt lat="45.71515" lon="6.49077">
        <ele>619.6</ele>
        <time>2021-07-11T09:19:24Z</time>
      </trkpt>
      <trkpt lat="45.71515" lon="6.49087">
        <ele>621</ele>
        <time>2021-07-11T09:19:28Z</time>
      </trkpt>
      <trkpt lat="45.71517" lon="6.49097">
        <ele>621</ele>
        <time>2021-07-11T09:19:32Z</time>
      </trkpt>
      <trkpt lat="45.71519" lon="6.49106">
        <ele>622</ele>
        <time>2021-07-11T09:19:36Z</time>
      </trkpt>
      <trkpt lat="45.71522" lon="6.49115">
        <ele>623</ele>
        <time>2021-07-11T09:19:40Z</time>
      </trkpt>
      <trkpt lat="45.71524" lon="6.49123">
        <ele>623.6</ele>
        <time>2021-07-11T09:19:44Z</time>
      </trkpt>
      <trkpt lat="45.71527" lon="6.49131">
        <ele>624.2</ele>
        <time>2021-07-11T09:19:48Z</time>
      </trkpt>
      <trkpt lat="45.71529" lon="6.49139">
        <ele>624.8</ele>
        <time>2021-07-11T09:19:52Z</time>
      </trkpt>
      <trkpt lat="45.71532" lon="6.49148">
        <ele>625.8</ele>
        <time>2021-07-11T09:19:56Z</time>
      </trkpt>
      <trkpt lat="45.71534" lon="6.49156">
        <ele>626.4</ele>
        <time>2021-07-11T09:20:00Z</time>
      </trkpt>
      <trkpt lat="45.71536" lon="6.49166">
        <ele>627</ele>
        <time>2021-07-11T09:20:04Z</time>
      </trkpt>
      <trkpt lat="45.71537" lon="6.49175">
        <ele>627.2</ele>
        <time>2021-07-11T09:20:08Z</time>
      </trkpt>
      <trkpt lat="45.71539" lon="6.49185">
        <ele>628.6</ele>
        <time>2021-07-11T09:20:12Z</time>
      </trkpt>
      <trkpt lat="45.7154" lon="6.49194">
        <ele>629.8</ele>
        <time>2021-07-11T09:20:16Z</time>
      </trkpt>
      <trkpt lat="45.7154" lon="6.49204">
        <ele>630.2</ele>
        <time>2021-07-11T09:20:20Z</time>
      </trkpt>
      <trkpt lat="45.71542" lon="6.49215">
        <ele>630.4</ele>
        <time>2021-07-11T09:20:24Z</time>
      </trkpt>
      <trkpt lat="45.71542" lon="6.49226">
        <ele>631</ele>
        <time>2021-07-11T09:20:28Z</time>
      </trkpt>
      <trkpt lat="45.71543" lon="6.49237">
        <ele>631.8</ele>
        <time>2021-07-11T09:20:32Z</time>
      </trkpt>
      <trkpt lat="45.71548" lon="6.49249">
        <ele>632.6</ele>
        <time>2021-07-11T09:20:36Z</time>
      </trkpt>
      <trkpt lat="45.71554" lon="6.49258">
        <ele>633.4</ele>
        <time>2021-07-11T09:20:40Z</time>
      </trkpt>
      <trkpt lat="45.7156" lon="6.49268">
        <ele>633.4</ele>
        <time>2021-07-11T09:20:44Z</time>
      </trkpt>
      <trkpt lat="45.71561" lon="6.4928">
        <ele>633.8</ele>
        <time>2021-07-11T09:20:48Z</time>
      </trkpt>
      <trkpt lat="45.71563" lon="6.49296">
        <ele>634.6</ele>
        <time>2021-07-11T09:20:52Z</time>
      </trkpt>
      <trkpt lat="45.71566" lon="6.4931">
        <ele>634.8</ele>
        <time>2021-07-11T09:20:56Z</time>
      </trkpt>
      <trkpt lat="45.7157" lon="6.49326">
        <ele>635.2</ele>
        <time>2021-07-11T09:21:00Z</time>
      </trkpt>
      <trkpt lat="45.71585" lon="6.49335">
        <ele>634.4</ele>
        <time>2021-07-11T09:21:04Z</time>
      </trkpt>
      <trkpt lat="45.716" lon="6.49349">
        <ele>633.4</ele>
        <time>2021-07-11T09:21:08Z</time>
      </trkpt>
      <trkpt lat="45.7161" lon="6.49367">
        <ele>632.2</ele>
        <time>2021-07-11T09:21:12Z</time>
      </trkpt>
      <trkpt lat="45.71602" lon="6.49383">
        <ele>632</ele>
        <time>2021-07-11T09:21:16Z</time>
      </trkpt>
      <trkpt lat="45.71588" lon="6.49394">
        <ele>631</ele>
        <time>2021-07-11T09:21:20Z</time>
      </trkpt>
      <trkpt lat="45.71573" lon="6.49409">
        <ele>630</ele>
        <time>2021-07-11T09:21:24Z</time>
      </trkpt>
      <trkpt lat="45.71568" lon="6.49429">
        <ele>629</ele>
        <time>2021-07-11T09:21:28Z</time>
      </trkpt>
      <trkpt lat="45.71575" lon="6.49439">
        <ele>630.2</ele>
        <time>2021-07-11T09:21:32Z</time>
      </trkpt>
      <trkpt lat="45.71584" lon="6.49445">
        <ele>631.2</ele>
        <time>2021-07-11T09:21:36Z</time>
      </trkpt>
      <trkpt lat="45.71596" lon="6.49448">
        <ele>631.2</ele>
        <time>2021-07-11T09:21:40Z</time>
      </trkpt>
      <trkpt lat="45.71612" lon="6.49449">
        <ele>630</ele>
        <time>2021-07-11T09:21:44Z</time>
      </trkpt>
      <trkpt lat="45.71634" lon="6.49452">
        <ele>629</ele>
        <time>2021-07-11T09:21:48Z</time>
      </trkpt>
      <trkpt lat="45.71647" lon="6.49473">
        <ele>628.8</ele>
        <time>2021-07-11T09:21:52Z</time>
      </trkpt>
      <trkpt lat="45.7165" lon="6.49496">
        <ele>630</ele>
        <time>2021-07-11T09:21:56Z</time>
      </trkpt>
      <trkpt lat="45.71647" lon="6.49519">
        <ele>629.6</ele>
        <time>2021-07-11T09:22:00Z</time>
      </trkpt>
      <trkpt lat="45.71646" lon="6.49543">
        <ele>629.6</ele>
        <time>2021-07-11T09:22:04Z</time>
      </trkpt>
      <trkpt lat="45.7165" lon="6.49562">
        <ele>630.8</ele>
        <time>2021-07-11T09:22:08Z</time>
      </trkpt>
      <trkpt lat="45.71653" lon="6.49578">
        <ele>632</ele>
        <time>2021-07-11T09:22:12Z</time>
      </trkpt>
      <trkpt lat="45.71651" lon="6.49592">
        <ele>633.2</ele>
        <time>2021-07-11T09:22:16Z</time>
      </trkpt>
      <trkpt lat="45.7165" lon="6.49605">
        <ele>634</ele>
        <time>2021-07-11T09:22:20Z</time>
      </trkpt>
      <trkpt lat="45.71651" lon="6.49619">
        <ele>635.2</ele>
        <time>2021-07-11T09:22:24Z</time>
      </trkpt>
      <trkpt lat="45.71651" lon="6.49633">
        <ele>635.4</ele>
        <time>2021-07-11T09:22:28Z</time>
      </trkpt>
      <trkpt lat="45.7165" lon="6.49648">
        <ele>636.4</ele>
        <time>2021-07-11T09:22:32Z</time>
      </trkpt>
      <trkpt lat="45.71649" lon="6.49664">
        <ele>636</ele>
        <time>2021-07-11T09:22:36Z</time>
      </trkpt>
      <trkpt lat="45.71647" lon="6.4968">
        <ele>637.4</ele>
        <time>2021-07-11T09:22:40Z</time>
      </trkpt>
      <trkpt lat="45.71646" lon="6.49695">
        <ele>638</ele>
        <time>2021-07-11T09:22:44Z</time>
      </trkpt>
      <trkpt lat="45.71644" lon="6.49711">
        <ele>638.4</ele>
        <time>2021-07-11T09:22:48Z</time>
      </trkpt>
      <trkpt lat="45.71643" lon="6.49727">
        <ele>638.6</ele>
        <time>2021-07-11T09:22:52Z</time>
      </trkpt>
      <trkpt lat="45.7164" lon="6.49744">
        <ele>638.6</ele>
        <time>2021-07-11T09:22:56Z</time>
      </trkpt>
      <trkpt lat="45.71638" lon="6.4976">
        <ele>639</ele>
        <time>2021-07-11T09:23:00Z</time>
      </trkpt>
      <trkpt lat="45.71636" lon="6.49776">
        <ele>638.6</ele>
        <time>2021-07-11T09:23:04Z</time>
      </trkpt>
      <trkpt lat="45.71634" lon="6.49794">
        <ele>638.4</ele>
        <time>2021-07-11T09:23:08Z</time>
      </trkpt>
      <trkpt lat="45.71636" lon="6.4982">
        <ele>637.4</ele>
        <time>2021-07-11T09:23:12Z</time>
      </trkpt>
      <trkpt lat="45.71634" lon="6.49852">
        <ele>637.4</ele>
        <time>2021-07-11T09:23:16Z</time>
      </trkpt>
      <trkpt lat="45.71632" lon="6.4989">
        <ele>634.8</ele>
        <time>2021-07-11T09:23:20Z</time>
      </trkpt>
      <trkpt lat="45.71633" lon="6.49931">
        <ele>633.4</ele>
        <time>2021-07-11T09:23:24Z</time>
      </trkpt>
      <trkpt lat="45.71632" lon="6.49973">
        <ele>631</ele>
        <time>2021-07-11T09:23:28Z</time>
      </trkpt>
      <trkpt lat="45.71622" lon="6.50015">
        <ele>628</ele>
        <time>2021-07-11T09:23:32Z</time>
      </trkpt>
      <trkpt lat="45.71612" lon="6.50055">
        <ele>626</ele>
        <time>2021-07-11T09:23:36Z</time>
      </trkpt>
      <trkpt lat="45.71607" lon="6.50106">
        <ele>621.6</ele>
        <time>2021-07-11T09:23:40Z</time>
      </trkpt>
      <trkpt lat="45.71602" lon="6.50162">
        <ele>618.2</ele>
        <time>2021-07-11T09:23:44Z</time>
      </trkpt>
      <trkpt lat="45.71603" lon="6.5022">
        <ele>613.6</ele>
        <time>2021-07-11T09:23:48Z</time>
      </trkpt>
      <trkpt lat="45.71591" lon="6.50281">
        <ele>611</ele>
        <time>2021-07-11T09:23:52Z</time>
      </trkpt>
      <trkpt lat="45.71588" lon="6.50336">
        <ele>611.6</ele>
        <time>2021-07-11T09:23:56Z</time>
      </trkpt>
      <trkpt lat="45.71593" lon="6.50377">
        <ele>610</ele>
        <time>2021-07-11T09:24:00Z</time>
      </trkpt>
      <trkpt lat="45.71594" lon="6.5043">
        <ele>609</ele>
        <time>2021-07-11T09:24:04Z</time>
      </trkpt>
      <trkpt lat="45.71607" lon="6.50466">
        <ele>611</ele>
        <time>2021-07-11T09:24:08Z</time>
      </trkpt>
      <trkpt lat="45.71616" lon="6.50488">
        <ele>612.2</ele>
        <time>2021-07-11T09:24:12Z</time>
      </trkpt>
      <trkpt lat="45.71617" lon="6.50508">
        <ele>613.6</ele>
        <time>2021-07-11T09:24:16Z</time>
      </trkpt>
      <trkpt lat="45.71612" lon="6.50523">
        <ele>614.2</ele>
        <time>2021-07-11T09:24:20Z</time>
      </trkpt>
      <trkpt lat="45.71609" lon="6.50538">
        <ele>614.6</ele>
        <time>2021-07-11T09:24:24Z</time>
      </trkpt>
      <trkpt lat="45.71606" lon="6.50552">
        <ele>614.8</ele>
        <time>2021-07-11T09:24:28Z</time>
      </trkpt>
      <trkpt lat="45.71613" lon="6.50577">
        <ele>615.6</ele>
        <time>2021-07-11T09:24:32Z</time>
      </trkpt>
      <trkpt lat="45.7162" lon="6.50592">
        <ele>615.2</ele>
        <time>2021-07-11T09:24:36Z</time>
      </trkpt>
      <trkpt lat="45.71624" lon="6.50609">
        <ele>616.4</ele>
        <time>2021-07-11T09:24:40Z</time>
      </trkpt>
      <trkpt lat="45.71629" lon="6.50616">
        <ele>617.4</ele>
        <time>2021-07-11T09:24:44Z</time>
      </trkpt>
      <trkpt lat="45.71634" lon="6.50622">
        <ele>618.6</ele>
        <time>2021-07-11T09:24:48Z</time>
      </trkpt>
      <trkpt lat="45.71639" lon="6.50635">
        <ele>619.4</ele>
        <time>2021-07-11T09:24:52Z</time>
      </trkpt>
      <trkpt lat="45.71644" lon="6.50649">
        <ele>620</ele>
        <time>2021-07-11T09:24:56Z</time>
      </trkpt>
      <trkpt lat="45.71652" lon="6.50659">
        <ele>621</ele>
        <time>2021-07-11T09:25:00Z</time>
      </trkpt>
      <trkpt lat="45.71659" lon="6.50667">
        <ele>621</ele>
        <time>2021-07-11T09:25:04Z</time>
      </trkpt>
      <trkpt lat="45.71667" lon="6.50673">
        <ele>621</ele>
        <time>2021-07-11T09:25:08Z</time>
      </trkpt>
      <trkpt lat="45.71678" lon="6.50684">
        <ele>619.8</ele>
        <time>2021-07-11T09:25:12Z</time>
      </trkpt>
      <trkpt lat="45.71696" lon="6.50707">
        <ele>618</ele>
        <time>2021-07-11T09:25:16Z</time>
      </trkpt>
      <trkpt lat="45.71708" lon="6.50741">
        <ele>617</ele>
        <time>2021-07-11T09:25:20Z</time>
      </trkpt>
      <trkpt lat="45.71718" lon="6.50768">
        <ele>617.4</ele>
        <time>2021-07-11T09:25:24Z</time>
      </trkpt>
      <trkpt lat="45.71725" lon="6.50789">
        <ele>618.6</ele>
        <time>2021-07-11T09:25:28Z</time>
      </trkpt>
      <trkpt lat="45.71724" lon="6.50812">
        <ele>619.2</ele>
        <time>2021-07-11T09:25:32Z</time>
      </trkpt>
      <trkpt lat="45.71722" lon="6.50832">
        <ele>619.6</ele>
        <time>2021-07-11T09:25:36Z</time>
      </trkpt>
      <trkpt lat="45.71718" lon="6.5085">
        <ele>620</ele>
        <time>2021-07-11T09:25:40Z</time>
      </trkpt>
      <trkpt lat="45.71715" lon="6.50869">
        <ele>619.2</ele>
        <time>2021-07-11T09:25:44Z</time>
      </trkpt>
      <trkpt lat="45.71711" lon="6.50893">
        <ele>619.8</ele>
        <time>2021-07-11T09:25:48Z</time>
      </trkpt>
      <trkpt lat="45.71708" lon="6.50914">
        <ele>619.4</ele>
        <time>2021-07-11T09:25:52Z</time>
      </trkpt>
      <trkpt lat="45.71699" lon="6.50934">
        <ele>618.4</ele>
        <time>2021-07-11T09:25:56Z</time>
      </trkpt>
      <trkpt lat="45.7169" lon="6.50952">
        <ele>618.8</ele>
        <time>2021-07-11T09:26:00Z</time>
      </trkpt>
      <trkpt lat="45.71681" lon="6.50974">
        <ele>618.8</ele>
        <time>2021-07-11T09:26:04Z</time>
      </trkpt>
      <trkpt lat="45.71671" lon="6.50997">
        <ele>617</ele>
        <time>2021-07-11T09:26:08Z</time>
      </trkpt>
      <trkpt lat="45.71663" lon="6.51025">
        <ele>613.6</ele>
        <time>2021-07-11T09:26:12Z</time>
      </trkpt>
      <trkpt lat="45.71672" lon="6.51069">
        <ele>611.4</ele>
        <time>2021-07-11T09:26:16Z</time>
      </trkpt>
      <trkpt lat="45.71671" lon="6.51122">
        <ele>610.6</ele>
        <time>2021-07-11T09:26:20Z</time>
      </trkpt>
      <trkpt lat="45.71673" lon="6.51163">
        <ele>610.6</ele>
        <time>2021-07-11T09:26:24Z</time>
      </trkpt>
      <trkpt lat="45.71675" lon="6.512">
        <ele>611.2</ele>
        <time>2021-07-11T09:26:28Z</time>
      </trkpt>
      <trkpt lat="45.71681" lon="6.51226">
        <ele>611.6</ele>
        <time>2021-07-11T09:26:32Z</time>
      </trkpt>
      <trkpt lat="45.71684" lon="6.51254">
        <ele>611.4</ele>
        <time>2021-07-11T09:26:36Z</time>
      </trkpt>
      <trkpt lat="45.71688" lon="6.51279">
        <ele>612.2</ele>
        <time>2021-07-11T09:26:40Z</time>
      </trkpt>
      <trkpt lat="45.71693" lon="6.51303">
        <ele>612.6</ele>
        <time>2021-07-11T09:26:44Z</time>
      </trkpt>
      <trkpt lat="45.71696" lon="6.51325">
        <ele>613</ele>
        <time>2021-07-11T09:26:48Z</time>
      </trkpt>
      <trkpt lat="45.71698" lon="6.51351">
        <ele>614</ele>
        <time>2021-07-11T09:26:52Z</time>
      </trkpt>
      <trkpt lat="45.71703" lon="6.51373">
        <ele>613</ele>
        <time>2021-07-11T09:26:56Z</time>
      </trkpt>
      <trkpt lat="45.71708" lon="6.51397">
        <ele>613.4</ele>
        <time>2021-07-11T09:27:00Z</time>
      </trkpt>
      <trkpt lat="45.71718" lon="6.51417">
        <ele>613.6</ele>
        <time>2021-07-11T09:27:04Z</time>
      </trkpt>
      <trkpt lat="45.71726" lon="6.5145">
        <ele>613.4</ele>
        <time>2021-07-11T09:27:08Z</time>
      </trkpt>
      <trkpt lat="45.71738" lon="6.51471">
        <ele>613</ele>
        <time>2021-07-11T09:27:12Z</time>
      </trkpt>
      <trkpt lat="45.71749" lon="6.51495">
        <ele>613.6</ele>
        <time>2021-07-11T09:27:16Z</time>
      </trkpt>
      <trkpt lat="45.7176" lon="6.51519">
        <ele>613.6</ele>
        <time>2021-07-11T09:27:20Z</time>
      </trkpt>
      <trkpt lat="45.71769" lon="6.51542">
        <ele>614.4</ele>
        <time>2021-07-11T09:27:24Z</time>
      </trkpt>
      <trkpt lat="45.71775" lon="6.51566">
        <ele>614.4</ele>
        <time>2021-07-11T09:27:28Z</time>
      </trkpt>
      <trkpt lat="45.71781" lon="6.51589">
        <ele>614.6</ele>
        <time>2021-07-11T09:27:32Z</time>
      </trkpt>
      <trkpt lat="45.71785" lon="6.51612">
        <ele>615.6</ele>
        <time>2021-07-11T09:27:36Z</time>
      </trkpt>
      <trkpt lat="45.71791" lon="6.51632">
        <ele>615.8</ele>
        <time>2021-07-11T09:27:40Z</time>
      </trkpt>
      <trkpt lat="45.71795" lon="6.51655">
        <ele>616.2</ele>
        <time>2021-07-11T09:27:44Z</time>
      </trkpt>
      <trkpt lat="45.71801" lon="6.51674">
        <ele>617.2</ele>
        <time>2021-07-11T09:27:48Z</time>
      </trkpt>
      <trkpt lat="45.71806" lon="6.51695">
        <ele>617.2</ele>
        <time>2021-07-11T09:27:52Z</time>
      </trkpt>
      <trkpt lat="45.71814" lon="6.51718">
        <ele>617.4</ele>
        <time>2021-07-11T09:27:56Z</time>
      </trkpt>
      <trkpt lat="45.71821" lon="6.51735">
        <ele>617.2</ele>
        <time>2021-07-11T09:28:00Z</time>
      </trkpt>
      <trkpt lat="45.71829" lon="6.51761">
        <ele>617.8</ele>
        <time>2021-07-11T09:28:04Z</time>
      </trkpt>
      <trkpt lat="45.71835" lon="6.51785">
        <ele>617.8</ele>
        <time>2021-07-11T09:28:08Z</time>
      </trkpt>
      <trkpt lat="45.71842" lon="6.5181">
        <ele>617.8</ele>
        <time>2021-07-11T09:28:12Z</time>
      </trkpt>
      <trkpt lat="45.71847" lon="6.51836">
        <ele>618</ele>
        <time>2021-07-11T09:28:16Z</time>
      </trkpt>
      <trkpt lat="45.71856" lon="6.51859">
        <ele>618.6</ele>
        <time>2021-07-11T09:28:20Z</time>
      </trkpt>
      <trkpt lat="45.71868" lon="6.51883">
        <ele>618.8</ele>
        <time>2021-07-11T09:28:24Z</time>
      </trkpt>
      <trkpt lat="45.7188" lon="6.51896">
        <ele>618</ele>
        <time>2021-07-11T09:28:28Z</time>
      </trkpt>
      <trkpt lat="45.71892" lon="6.51909">
        <ele>618.8</ele>
        <time>2021-07-11T09:28:32Z</time>
      </trkpt>
      <trkpt lat="45.71907" lon="6.51923">
        <ele>619</ele>
        <time>2021-07-11T09:28:36Z</time>
      </trkpt>
      <trkpt lat="45.71922" lon="6.51937">
        <ele>619.2</ele>
        <time>2021-07-11T09:28:40Z</time>
      </trkpt>
      <trkpt lat="45.71936" lon="6.51952">
        <ele>619</ele>
        <time>2021-07-11T09:28:44Z</time>
      </trkpt>
      <trkpt lat="45.71949" lon="6.51968">
        <ele>619.6</ele>
        <time>2021-07-11T09:28:48Z</time>
      </trkpt>
      <trkpt lat="45.71962" lon="6.51982">
        <ele>620</ele>
        <time>2021-07-11T09:28:52Z</time>
      </trkpt>
      <trkpt lat="45.71974" lon="6.51995">
        <ele>620.6</ele>
        <time>2021-07-11T09:28:56Z</time>
      </trkpt>
      <trkpt lat="45.71987" lon="6.52009">
        <ele>621.4</ele>
        <time>2021-07-11T09:29:00Z</time>
      </trkpt>
      <trkpt lat="45.71999" lon="6.52021">
        <ele>621.2</ele>
        <time>2021-07-11T09:29:04Z</time>
      </trkpt>
      <trkpt lat="45.72009" lon="6.52027">
        <ele>622</ele>
        <time>2021-07-11T09:29:08Z</time>
      </trkpt>
      <trkpt lat="45.72015" lon="6.52031">
        <ele>622.6</ele>
        <time>2021-07-11T09:29:12Z</time>
      </trkpt>
      <trkpt lat="45.72019" lon="6.52038">
        <ele>622.8</ele>
        <time>2021-07-11T09:29:55Z</time>
      </trkpt>
      <trkpt lat="45.72025" lon="6.52055">
        <ele>623</ele>
        <time>2021-07-11T09:29:59Z</time>
      </trkpt>
      <trkpt lat="45.72034" lon="6.52075">
        <ele>624</ele>
        <time>2021-07-11T09:30:03Z</time>
      </trkpt>
      <trkpt lat="45.72045" lon="6.52095">
        <ele>623.8</ele>
        <time>2021-07-11T09:30:07Z</time>
      </trkpt>
      <trkpt lat="45.72058" lon="6.52114">
        <ele>624</ele>
        <time>2021-07-11T09:30:11Z</time>
      </trkpt>
      <trkpt lat="45.72071" lon="6.52132">
        <ele>624.2</ele>
        <time>2021-07-11T09:30:15Z</time>
      </trkpt>
      <trkpt lat="45.72084" lon="6.5215">
        <ele>625</ele>
        <time>2021-07-11T09:30:19Z</time>
      </trkpt>
      <trkpt lat="45.72097" lon="6.52165">
        <ele>625.2</ele>
        <time>2021-07-11T09:30:23Z</time>
      </trkpt>
      <trkpt lat="45.72113" lon="6.52177">
        <ele>626</ele>
        <time>2021-07-11T09:30:27Z</time>
      </trkpt>
      <trkpt lat="45.72129" lon="6.52185">
        <ele>626.6</ele>
        <time>2021-07-11T09:30:31Z</time>
      </trkpt>
      <trkpt lat="45.72144" lon="6.52184">
        <ele>627</ele>
        <time>2021-07-11T09:30:35Z</time>
      </trkpt>
      <trkpt lat="45.72159" lon="6.52179">
        <ele>627.8</ele>
        <time>2021-07-11T09:30:39Z</time>
      </trkpt>
      <trkpt lat="45.72175" lon="6.52174">
        <ele>627.2</ele>
        <time>2021-07-11T09:30:43Z</time>
      </trkpt>
      <trkpt lat="45.7219" lon="6.52173">
        <ele>628.6</ele>
        <time>2021-07-11T09:30:47Z</time>
      </trkpt>
      <trkpt lat="45.72201" lon="6.5217">
        <ele>629</ele>
        <time>2021-07-11T09:30:51Z</time>
      </trkpt>
      <trkpt lat="45.72207" lon="6.52157">
        <ele>631</ele>
        <time>2021-07-11T09:30:55Z</time>
      </trkpt>
      <trkpt lat="45.72209" lon="6.52144">
        <ele>631.2</ele>
        <time>2021-07-11T09:30:59Z</time>
      </trkpt>
      <trkpt lat="45.72211" lon="6.52134">
        <ele>631.8</ele>
        <time>2021-07-11T09:31:03Z</time>
      </trkpt>
      <trkpt lat="45.72212" lon="6.52124">
        <ele>632.4</ele>
        <time>2021-07-11T09:31:07Z</time>
      </trkpt>
      <trkpt lat="45.72215" lon="6.52115">
        <ele>633.6</ele>
        <time>2021-07-11T09:31:11Z</time>
      </trkpt>
      <trkpt lat="45.72219" lon="6.52107">
        <ele>634</ele>
        <time>2021-07-11T09:31:15Z</time>
      </trkpt>
      <trkpt lat="45.72223" lon="6.521">
        <ele>635.2</ele>
        <time>2021-07-11T09:31:19Z</time>
      </trkpt>
      <trkpt lat="45.72227" lon="6.52093">
        <ele>635.6</ele>
        <time>2021-07-11T09:31:23Z</time>
      </trkpt>
      <trkpt lat="45.72231" lon="6.52086">
        <ele>636.6</ele>
        <time>2021-07-11T09:31:27Z</time>
      </trkpt>
      <trkpt lat="45.72235" lon="6.52076">
        <ele>637.2</ele>
        <time>2021-07-11T09:31:31Z</time>
      </trkpt>
      <trkpt lat="45.72238" lon="6.52067">
        <ele>637.4</ele>
        <time>2021-07-11T09:31:35Z</time>
      </trkpt>
      <trkpt lat="45.72238" lon="6.52057">
        <ele>638.2</ele>
        <time>2021-07-11T09:31:39Z</time>
      </trkpt>
      <trkpt lat="45.72241" lon="6.52046">
        <ele>638.6</ele>
        <time>2021-07-11T09:31:43Z</time>
      </trkpt>
      <trkpt lat="45.72243" lon="6.52034">
        <ele>639</ele>
        <time>2021-07-11T09:31:47Z</time>
      </trkpt>
      <trkpt lat="45.72245" lon="6.52023">
        <ele>639.6</ele>
        <time>2021-07-11T09:31:51Z</time>
      </trkpt>
      <trkpt lat="45.72247" lon="6.52011">
        <ele>640</ele>
        <time>2021-07-11T09:31:55Z</time>
      </trkpt>
      <trkpt lat="45.72247" lon="6.51998">
        <ele>640.4</ele>
        <time>2021-07-11T09:31:59Z</time>
      </trkpt>
      <trkpt lat="45.72248" lon="6.51986">
        <ele>640.6</ele>
        <time>2021-07-11T09:32:03Z</time>
      </trkpt>
      <trkpt lat="45.72249" lon="6.5197">
        <ele>641</ele>
        <time>2021-07-11T09:32:07Z</time>
      </trkpt>
      <trkpt lat="45.7225" lon="6.51956">
        <ele>641.6</ele>
        <time>2021-07-11T09:32:11Z</time>
      </trkpt>
      <trkpt lat="45.72249" lon="6.51939">
        <ele>642.2</ele>
        <time>2021-07-11T09:32:15Z</time>
      </trkpt>
      <trkpt lat="45.72247" lon="6.51924">
        <ele>642.6</ele>
        <time>2021-07-11T09:32:19Z</time>
      </trkpt>
      <trkpt lat="45.72248" lon="6.5191">
        <ele>643</ele>
        <time>2021-07-11T09:32:23Z</time>
      </trkpt>
      <trkpt lat="45.72255" lon="6.51902">
        <ele>643.4</ele>
        <time>2021-07-11T09:32:27Z</time>
      </trkpt>
      <trkpt lat="45.72263" lon="6.51898">
        <ele>644.4</ele>
        <time>2021-07-11T09:32:31Z</time>
      </trkpt>
      <trkpt lat="45.72269" lon="6.51895">
        <ele>645</ele>
        <time>2021-07-11T09:32:35Z</time>
      </trkpt>
      <trkpt lat="45.72276" lon="6.51894">
        <ele>646</ele>
        <time>2021-07-11T09:32:39Z</time>
      </trkpt>
      <trkpt lat="45.72284" lon="6.51895">
        <ele>646.4</ele>
        <time>2021-07-11T09:32:43Z</time>
      </trkpt>
      <trkpt lat="45.7229" lon="6.51899">
        <ele>647.4</ele>
        <time>2021-07-11T09:32:47Z</time>
      </trkpt>
      <trkpt lat="45.72296" lon="6.51904">
        <ele>648.2</ele>
        <time>2021-07-11T09:32:51Z</time>
      </trkpt>
      <trkpt lat="45.72302" lon="6.51908">
        <ele>649.6</ele>
        <time>2021-07-11T09:32:55Z</time>
      </trkpt>
      <trkpt lat="45.72307" lon="6.51909">
        <ele>650.4</ele>
        <time>2021-07-11T09:32:59Z</time>
      </trkpt>
      <trkpt lat="45.72311" lon="6.51907">
        <ele>651</ele>
        <time>2021-07-11T09:33:03Z</time>
      </trkpt>
      <trkpt lat="45.72315" lon="6.51905">
        <ele>652.4</ele>
        <time>2021-07-11T09:33:07Z</time>
      </trkpt>
      <trkpt lat="45.72318" lon="6.519">
        <ele>652.8</ele>
        <time>2021-07-11T09:33:11Z</time>
      </trkpt>
      <trkpt lat="45.72322" lon="6.51897">
        <ele>653.6</ele>
        <time>2021-07-11T09:33:15Z</time>
      </trkpt>
      <trkpt lat="45.72326" lon="6.51896">
        <ele>654.4</ele>
        <time>2021-07-11T09:33:19Z</time>
      </trkpt>
      <trkpt lat="45.72331" lon="6.51895">
        <ele>655.2</ele>
        <time>2021-07-11T09:33:23Z</time>
      </trkpt>
      <trkpt lat="45.72334" lon="6.51892">
        <ele>656.4</ele>
        <time>2021-07-11T09:33:27Z</time>
      </trkpt>
      <trkpt lat="45.72338" lon="6.51889">
        <ele>656.2</ele>
        <time>2021-07-11T09:33:31Z</time>
      </trkpt>
      <trkpt lat="45.72342" lon="6.51888">
        <ele>657.2</ele>
        <time>2021-07-11T09:33:35Z</time>
      </trkpt>
      <trkpt lat="45.72346" lon="6.51886">
        <ele>657.8</ele>
        <time>2021-07-11T09:33:39Z</time>
      </trkpt>
      <trkpt lat="45.7235" lon="6.51885">
        <ele>658.8</ele>
        <time>2021-07-11T09:33:43Z</time>
      </trkpt>
      <trkpt lat="45.72355" lon="6.51885">
        <ele>659.6</ele>
        <time>2021-07-11T09:33:47Z</time>
      </trkpt>
      <trkpt lat="45.72359" lon="6.51886">
        <ele>661</ele>
        <time>2021-07-11T09:33:51Z</time>
      </trkpt>
      <trkpt lat="45.72363" lon="6.51887">
        <ele>661.4</ele>
        <time>2021-07-11T09:33:55Z</time>
      </trkpt>
      <trkpt lat="45.72367" lon="6.5189">
        <ele>662.6</ele>
        <time>2021-07-11T09:33:59Z</time>
      </trkpt>
      <trkpt lat="45.7237" lon="6.51893">
        <ele>663</ele>
        <time>2021-07-11T09:34:03Z</time>
      </trkpt>
      <trkpt lat="45.72373" lon="6.51897">
        <ele>663.6</ele>
        <time>2021-07-11T09:34:07Z</time>
      </trkpt>
      <trkpt lat="45.72375" lon="6.51901">
        <ele>665.2</ele>
        <time>2021-07-11T09:34:11Z</time>
      </trkpt>
      <trkpt lat="45.72379" lon="6.51904">
        <ele>666.2</ele>
        <time>2021-07-11T09:34:15Z</time>
      </trkpt>
      <trkpt lat="45.72382" lon="6.51907">
        <ele>667</ele>
        <time>2021-07-11T09:34:19Z</time>
      </trkpt>
      <trkpt lat="45.72385" lon="6.51911">
        <ele>667.2</ele>
        <time>2021-07-11T09:34:23Z</time>
      </trkpt>
      <trkpt lat="45.72389" lon="6.51914">
        <ele>668</ele>
        <time>2021-07-11T09:34:27Z</time>
      </trkpt>
      <trkpt lat="45.72392" lon="6.51917">
        <ele>668.8</ele>
        <time>2021-07-11T09:34:31Z</time>
      </trkpt>
      <trkpt lat="45.72395" lon="6.5192">
        <ele>670</ele>
        <time>2021-07-11T09:34:35Z</time>
      </trkpt>
      <trkpt lat="45.72398" lon="6.51924">
        <ele>670.4</ele>
        <time>2021-07-11T09:34:39Z</time>
      </trkpt>
      <trkpt lat="45.72401" lon="6.51926">
        <ele>671</ele>
        <time>2021-07-11T09:34:43Z</time>
      </trkpt>
      <trkpt lat="45.72404" lon="6.51926">
        <ele>672.2</ele>
        <time>2021-07-11T09:34:47Z</time>
      </trkpt>
      <trkpt lat="45.72408" lon="6.51923">
        <ele>672.4</ele>
        <time>2021-07-11T09:34:51Z</time>
      </trkpt>
      <trkpt lat="45.72411" lon="6.51921">
        <ele>673.2</ele>
        <time>2021-07-11T09:34:55Z</time>
      </trkpt>
      <trkpt lat="45.72414" lon="6.51918">
        <ele>673.6</ele>
        <time>2021-07-11T09:34:59Z</time>
      </trkpt>
      <trkpt lat="45.72416" lon="6.51912">
        <ele>674.6</ele>
        <time>2021-07-11T09:35:03Z</time>
      </trkpt>
      <trkpt lat="45.72419" lon="6.51908">
        <ele>675</ele>
        <time>2021-07-11T09:35:07Z</time>
      </trkpt>
      <trkpt lat="45.72422" lon="6.51903">
        <ele>675.8</ele>
        <time>2021-07-11T09:35:11Z</time>
      </trkpt>
      <trkpt lat="45.72425" lon="6.51899">
        <ele>676.4</ele>
        <time>2021-07-11T09:35:15Z</time>
      </trkpt>
      <trkpt lat="45.72427" lon="6.51894">
        <ele>676.6</ele>
        <time>2021-07-11T09:35:19Z</time>
      </trkpt>
      <trkpt lat="45.7243" lon="6.51889">
        <ele>677.8</ele>
        <time>2021-07-11T09:35:23Z</time>
      </trkpt>
      <trkpt lat="45.72432" lon="6.51884">
        <ele>678.4</ele>
        <time>2021-07-11T09:35:27Z</time>
      </trkpt>
      <trkpt lat="45.72435" lon="6.5188">
        <ele>679.2</ele>
        <time>2021-07-11T09:35:31Z</time>
      </trkpt>
      <trkpt lat="45.72438" lon="6.51876">
        <ele>679.6</ele>
        <time>2021-07-11T09:35:35Z</time>
      </trkpt>
      <trkpt lat="45.72441" lon="6.51871">
        <ele>681.4</ele>
        <time>2021-07-11T09:35:39Z</time>
      </trkpt>
      <trkpt lat="45.72443" lon="6.51867">
        <ele>682.4</ele>
        <time>2021-07-11T09:35:43Z</time>
      </trkpt>
      <trkpt lat="45.72447" lon="6.51865">
        <ele>682.2</ele>
        <time>2021-07-11T09:35:47Z</time>
      </trkpt>
      <trkpt lat="45.72449" lon="6.51868">
        <ele>682</ele>
        <time>2021-07-11T09:35:51Z</time>
      </trkpt>
      <trkpt lat="45.72447" lon="6.51876">
        <ele>682</ele>
        <time>2021-07-11T09:35:55Z</time>
      </trkpt>
      <trkpt lat="45.72445" lon="6.51894">
        <ele>681.6</ele>
        <time>2021-07-11T09:37:22Z</time>
      </trkpt>
      <trkpt lat="45.72447" lon="6.5191">
        <ele>681.8</ele>
        <time>2021-07-11T09:37:26Z</time>
      </trkpt>
      <trkpt lat="45.72456" lon="6.51924">
        <ele>681.8</ele>
        <time>2021-07-11T09:37:30Z</time>
      </trkpt>
      <trkpt lat="45.7247" lon="6.5193">
        <ele>682</ele>
        <time>2021-07-11T09:37:34Z</time>
      </trkpt>
      <trkpt lat="45.72485" lon="6.51935">
        <ele>681.6</ele>
        <time>2021-07-11T09:37:38Z</time>
      </trkpt>
      <trkpt lat="45.72499" lon="6.51938">
        <ele>681.8</ele>
        <time>2021-07-11T09:37:42Z</time>
      </trkpt>
      <trkpt lat="45.72513" lon="6.51944">
        <ele>682</ele>
        <time>2021-07-11T09:37:46Z</time>
      </trkpt>
      <trkpt lat="45.72527" lon="6.51951">
        <ele>682.4</ele>
        <time>2021-07-11T09:37:50Z</time>
      </trkpt>
      <trkpt lat="45.72539" lon="6.5196">
        <ele>682.8</ele>
        <time>2021-07-11T09:37:54Z</time>
      </trkpt>
      <trkpt lat="45.72547" lon="6.51974">
        <ele>682.6</ele>
        <time>2021-07-11T09:37:58Z</time>
      </trkpt>
      <trkpt lat="45.72551" lon="6.51994">
        <ele>682.8</ele>
        <time>2021-07-11T09:38:02Z</time>
      </trkpt>
      <trkpt lat="45.72553" lon="6.52016">
        <ele>682.2</ele>
        <time>2021-07-11T09:38:06Z</time>
      </trkpt>
      <trkpt lat="45.7255" lon="6.52045">
        <ele>681.2</ele>
        <time>2021-07-11T09:38:10Z</time>
      </trkpt>
      <trkpt lat="45.72556" lon="6.52071">
        <ele>680.6</ele>
        <time>2021-07-11T09:38:14Z</time>
      </trkpt>
      <trkpt lat="45.72574" lon="6.52086">
        <ele>680.6</ele>
        <time>2021-07-11T09:38:18Z</time>
      </trkpt>
      <trkpt lat="45.72587" lon="6.521">
        <ele>680.2</ele>
        <time>2021-07-11T09:38:22Z</time>
      </trkpt>
      <trkpt lat="45.72615" lon="6.52112">
        <ele>679.4</ele>
        <time>2021-07-11T09:38:26Z</time>
      </trkpt>
      <trkpt lat="45.72633" lon="6.52138">
        <ele>679</ele>
        <time>2021-07-11T09:38:30Z</time>
      </trkpt>
      <trkpt lat="45.72626" lon="6.52174">
        <ele>677.4</ele>
        <time>2021-07-11T09:38:34Z</time>
      </trkpt>
      <trkpt lat="45.72621" lon="6.52207">
        <ele>676.8</ele>
        <time>2021-07-11T09:38:38Z</time>
      </trkpt>
      <trkpt lat="45.72629" lon="6.52236">
        <ele>675.8</ele>
        <time>2021-07-11T09:38:42Z</time>
      </trkpt>
      <trkpt lat="45.72641" lon="6.52274">
        <ele>674.4</ele>
        <time>2021-07-11T09:38:46Z</time>
      </trkpt>
      <trkpt lat="45.72654" lon="6.52314">
        <ele>673.8</ele>
        <time>2021-07-11T09:38:50Z</time>
      </trkpt>
      <trkpt lat="45.72659" lon="6.52364">
        <ele>672</ele>
        <time>2021-07-11T09:38:54Z</time>
      </trkpt>
      <trkpt lat="45.72657" lon="6.52416">
        <ele>670.6</ele>
        <time>2021-07-11T09:38:58Z</time>
      </trkpt>
      <trkpt lat="45.72655" lon="6.5246">
        <ele>671.2</ele>
        <time>2021-07-11T09:39:02Z</time>
      </trkpt>
      <trkpt lat="45.72647" lon="6.52497">
        <ele>672</ele>
        <time>2021-07-11T09:39:06Z</time>
      </trkpt>
      <trkpt lat="45.72641" lon="6.52523">
        <ele>673.4</ele>
        <time>2021-07-11T09:39:10Z</time>
      </trkpt>
      <trkpt lat="45.72635" lon="6.52544">
        <ele>673.8</ele>
        <time>2021-07-11T09:39:14Z</time>
      </trkpt>
      <trkpt lat="45.7263" lon="6.52563">
        <ele>674.8</ele>
        <time>2021-07-11T09:39:18Z</time>
      </trkpt>
      <trkpt lat="45.72625" lon="6.5258">
        <ele>675.2</ele>
        <time>2021-07-11T09:39:22Z</time>
      </trkpt>
      <trkpt lat="45.7262" lon="6.52596">
        <ele>676.2</ele>
        <time>2021-07-11T09:39:26Z</time>
      </trkpt>
      <trkpt lat="45.72615" lon="6.52611">
        <ele>676.2</ele>
        <time>2021-07-11T09:39:30Z</time>
      </trkpt>
      <trkpt lat="45.72611" lon="6.52625">
        <ele>677.4</ele>
        <time>2021-07-11T09:39:34Z</time>
      </trkpt>
      <trkpt lat="45.72608" lon="6.52639">
        <ele>677.6</ele>
        <time>2021-07-11T09:39:38Z</time>
      </trkpt>
      <trkpt lat="45.72607" lon="6.52651">
        <ele>678.4</ele>
        <time>2021-07-11T09:39:42Z</time>
      </trkpt>
      <trkpt lat="45.72612" lon="6.52659">
        <ele>678.4</ele>
        <time>2021-07-11T09:39:46Z</time>
      </trkpt>
      <trkpt lat="45.72618" lon="6.52656">
        <ele>679.4</ele>
        <time>2021-07-11T09:39:50Z</time>
      </trkpt>
      <trkpt lat="45.72625" lon="6.5265">
        <ele>680.4</ele>
        <time>2021-07-11T09:39:54Z</time>
      </trkpt>
      <trkpt lat="45.72631" lon="6.52645">
        <ele>681.2</ele>
        <time>2021-07-11T09:39:58Z</time>
      </trkpt>
      <trkpt lat="45.72638" lon="6.52641">
        <ele>681.8</ele>
        <time>2021-07-11T09:40:02Z</time>
      </trkpt>
      <trkpt lat="45.72645" lon="6.52635">
        <ele>682.6</ele>
        <time>2021-07-11T09:40:06Z</time>
      </trkpt>
      <trkpt lat="45.72651" lon="6.52629">
        <ele>683.6</ele>
        <time>2021-07-11T09:40:10Z</time>
      </trkpt>
      <trkpt lat="45.72659" lon="6.52623">
        <ele>683.8</ele>
        <time>2021-07-11T09:40:14Z</time>
      </trkpt>
      <trkpt lat="45.72666" lon="6.52616">
        <ele>684.2</ele>
        <time>2021-07-11T09:40:18Z</time>
      </trkpt>
      <trkpt lat="45.72672" lon="6.52609">
        <ele>685.6</ele>
        <time>2021-07-11T09:40:22Z</time>
      </trkpt>
      <trkpt lat="45.72678" lon="6.52603">
        <ele>686</ele>
        <time>2021-07-11T09:40:26Z</time>
      </trkpt>
      <trkpt lat="45.72684" lon="6.52596">
        <ele>686.8</ele>
        <time>2021-07-11T09:40:30Z</time>
      </trkpt>
      <trkpt lat="45.7269" lon="6.52588">
        <ele>687</ele>
        <time>2021-07-11T09:40:34Z</time>
      </trkpt>
      <trkpt lat="45.72697" lon="6.52582">
        <ele>686.6</ele>
        <time>2021-07-11T09:40:38Z</time>
      </trkpt>
      <trkpt lat="45.72701" lon="6.52572">
        <ele>688.4</ele>
        <time>2021-07-11T09:40:42Z</time>
      </trkpt>
      <trkpt lat="45.72703" lon="6.52558">
        <ele>689</ele>
        <time>2021-07-11T09:40:46Z</time>
      </trkpt>
      <trkpt lat="45.72703" lon="6.52545">
        <ele>689.4</ele>
        <time>2021-07-11T09:40:50Z</time>
      </trkpt>
      <trkpt lat="45.72703" lon="6.52533">
        <ele>690.4</ele>
        <time>2021-07-11T09:40:54Z</time>
      </trkpt>
      <trkpt lat="45.72702" lon="6.52522">
        <ele>690.4</ele>
        <time>2021-07-11T09:40:58Z</time>
      </trkpt>
      <trkpt lat="45.727" lon="6.52511">
        <ele>691.4</ele>
        <time>2021-07-11T09:41:02Z</time>
      </trkpt>
      <trkpt lat="45.727" lon="6.52501">
        <ele>692.2</ele>
        <time>2021-07-11T09:41:06Z</time>
      </trkpt>
      <trkpt lat="45.72696" lon="6.52492">
        <ele>693.2</ele>
        <time>2021-07-11T09:41:10Z</time>
      </trkpt>
      <trkpt lat="45.72692" lon="6.52483">
        <ele>693.4</ele>
        <time>2021-07-11T09:41:14Z</time>
      </trkpt>
      <trkpt lat="45.72688" lon="6.52475">
        <ele>695</ele>
        <time>2021-07-11T09:41:18Z</time>
      </trkpt>
      <trkpt lat="45.72683" lon="6.52466">
        <ele>695</ele>
        <time>2021-07-11T09:41:22Z</time>
      </trkpt>
      <trkpt lat="45.7268" lon="6.52456">
        <ele>695.8</ele>
        <time>2021-07-11T09:41:26Z</time>
      </trkpt>
      <trkpt lat="45.72682" lon="6.52446">
        <ele>696.2</ele>
        <time>2021-07-11T09:41:30Z</time>
      </trkpt>
      <trkpt lat="45.72687" lon="6.52443">
        <ele>697</ele>
        <time>2021-07-11T09:41:34Z</time>
      </trkpt>
      <trkpt lat="45.72693" lon="6.5245">
        <ele>698</ele>
        <time>2021-07-11T09:41:38Z</time>
      </trkpt>
      <trkpt lat="45.72695" lon="6.52461">
        <ele>698.6</ele>
        <time>2021-07-11T09:41:42Z</time>
      </trkpt>
      <trkpt lat="45.72698" lon="6.52472">
        <ele>699.2</ele>
        <time>2021-07-11T09:41:46Z</time>
      </trkpt>
      <trkpt lat="45.72702" lon="6.52483">
        <ele>699.6</ele>
        <time>2021-07-11T09:41:50Z</time>
      </trkpt>
      <trkpt lat="45.72705" lon="6.52494">
        <ele>700.4</ele>
        <time>2021-07-11T09:41:54Z</time>
      </trkpt>
      <trkpt lat="45.72709" lon="6.52504">
        <ele>701</ele>
        <time>2021-07-11T09:41:58Z</time>
      </trkpt>
      <trkpt lat="45.72713" lon="6.52513">
        <ele>701.6</ele>
        <time>2021-07-11T09:42:02Z</time>
      </trkpt>
      <trkpt lat="45.72717" lon="6.52522">
        <ele>702.4</ele>
        <time>2021-07-11T09:42:06Z</time>
      </trkpt>
      <trkpt lat="45.72721" lon="6.52529">
        <ele>703</ele>
        <time>2021-07-11T09:42:10Z</time>
      </trkpt>
      <trkpt lat="45.72724" lon="6.52539">
        <ele>703.2</ele>
        <time>2021-07-11T09:42:14Z</time>
      </trkpt>
      <trkpt lat="45.72728" lon="6.5255">
        <ele>704</ele>
        <time>2021-07-11T09:42:18Z</time>
      </trkpt>
      <trkpt lat="45.72731" lon="6.52561">
        <ele>704.8</ele>
        <time>2021-07-11T09:42:22Z</time>
      </trkpt>
      <trkpt lat="45.72734" lon="6.52573">
        <ele>705.4</ele>
        <time>2021-07-11T09:42:26Z</time>
      </trkpt>
      <trkpt lat="45.72736" lon="6.52586">
        <ele>705.8</ele>
        <time>2021-07-11T09:42:30Z</time>
      </trkpt>
      <trkpt lat="45.7274" lon="6.52597">
        <ele>706.6</ele>
        <time>2021-07-11T09:42:34Z</time>
      </trkpt>
      <trkpt lat="45.72743" lon="6.52608">
        <ele>707.2</ele>
        <time>2021-07-11T09:42:38Z</time>
      </trkpt>
      <trkpt lat="45.72746" lon="6.5262">
        <ele>707.6</ele>
        <time>2021-07-11T09:42:42Z</time>
      </trkpt>
      <trkpt lat="45.72749" lon="6.5263">
        <ele>708.4</ele>
        <time>2021-07-11T09:42:46Z</time>
      </trkpt>
      <trkpt lat="45.72752" lon="6.52641">
        <ele>708.8</ele>
        <time>2021-07-11T09:42:50Z</time>
      </trkpt>
      <trkpt lat="45.72756" lon="6.52652">
        <ele>709.2</ele>
        <time>2021-07-11T09:42:54Z</time>
      </trkpt>
      <trkpt lat="45.72757" lon="6.52666">
        <ele>709.6</ele>
        <time>2021-07-11T09:42:58Z</time>
      </trkpt>
      <trkpt lat="45.72757" lon="6.52679">
        <ele>711</ele>
        <time>2021-07-11T09:43:02Z</time>
      </trkpt>
      <trkpt lat="45.72756" lon="6.52691">
        <ele>711.8</ele>
        <time>2021-07-11T09:43:06Z</time>
      </trkpt>
      <trkpt lat="45.72758" lon="6.52703">
        <ele>712</ele>
        <time>2021-07-11T09:43:10Z</time>
      </trkpt>
      <trkpt lat="45.72763" lon="6.52713">
        <ele>712.4</ele>
        <time>2021-07-11T09:43:14Z</time>
      </trkpt>
      <trkpt lat="45.72769" lon="6.52722">
        <ele>712.6</ele>
        <time>2021-07-11T09:43:18Z</time>
      </trkpt>
      <trkpt lat="45.72775" lon="6.52732">
        <ele>713.8</ele>
        <time>2021-07-11T09:43:22Z</time>
      </trkpt>
      <trkpt lat="45.7278" lon="6.52741">
        <ele>715</ele>
        <time>2021-07-11T09:43:26Z</time>
      </trkpt>
      <trkpt lat="45.72784" lon="6.52751">
        <ele>715.2</ele>
        <time>2021-07-11T09:43:30Z</time>
      </trkpt>
      <trkpt lat="45.72786" lon="6.52761">
        <ele>715.8</ele>
        <time>2021-07-11T09:43:34Z</time>
      </trkpt>
      <trkpt lat="45.72789" lon="6.52771">
        <ele>716.6</ele>
        <time>2021-07-11T09:43:38Z</time>
      </trkpt>
      <trkpt lat="45.7279" lon="6.52782">
        <ele>717.4</ele>
        <time>2021-07-11T09:43:42Z</time>
      </trkpt>
      <trkpt lat="45.72792" lon="6.52792">
        <ele>717.6</ele>
        <time>2021-07-11T09:43:46Z</time>
      </trkpt>
      <trkpt lat="45.72795" lon="6.52801">
        <ele>718.6</ele>
        <time>2021-07-11T09:43:50Z</time>
      </trkpt>
      <trkpt lat="45.72798" lon="6.52811">
        <ele>719</ele>
        <time>2021-07-11T09:43:54Z</time>
      </trkpt>
      <trkpt lat="45.72801" lon="6.52819">
        <ele>719.2</ele>
        <time>2021-07-11T09:43:58Z</time>
      </trkpt>
      <trkpt lat="45.72806" lon="6.52828">
        <ele>719.8</ele>
        <time>2021-07-11T09:44:02Z</time>
      </trkpt>
      <trkpt lat="45.7281" lon="6.52836">
        <ele>720.2</ele>
        <time>2021-07-11T09:44:06Z</time>
      </trkpt>
      <trkpt lat="45.72816" lon="6.52843">
        <ele>721.2</ele>
        <time>2021-07-11T09:44:10Z</time>
      </trkpt>
      <trkpt lat="45.72821" lon="6.5285">
        <ele>721.6</ele>
        <time>2021-07-11T09:44:14Z</time>
      </trkpt>
      <trkpt lat="45.72827" lon="6.52858">
        <ele>722.4</ele>
        <time>2021-07-11T09:44:18Z</time>
      </trkpt>
      <trkpt lat="45.72832" lon="6.52866">
        <ele>723.4</ele>
        <time>2021-07-11T09:44:22Z</time>
      </trkpt>
      <trkpt lat="45.72836" lon="6.52874">
        <ele>724.6</ele>
        <time>2021-07-11T09:44:26Z</time>
      </trkpt>
      <trkpt lat="45.72841" lon="6.52884">
        <ele>724.2</ele>
        <time>2021-07-11T09:44:30Z</time>
      </trkpt>
      <trkpt lat="45.72845" lon="6.52893">
        <ele>725</ele>
        <time>2021-07-11T09:44:34Z</time>
      </trkpt>
      <trkpt lat="45.72849" lon="6.52903">
        <ele>725.8</ele>
        <time>2021-07-11T09:44:38Z</time>
      </trkpt>
      <trkpt lat="45.72853" lon="6.52913">
        <ele>726</ele>
        <time>2021-07-11T09:44:42Z</time>
      </trkpt>
      <trkpt lat="45.72857" lon="6.52923">
        <ele>727.2</ele>
        <time>2021-07-11T09:44:46Z</time>
      </trkpt>
      <trkpt lat="45.72862" lon="6.52932">
        <ele>727.8</ele>
        <time>2021-07-11T09:44:50Z</time>
      </trkpt>
      <trkpt lat="45.72867" lon="6.5294">
        <ele>728.2</ele>
        <time>2021-07-11T09:44:54Z</time>
      </trkpt>
      <trkpt lat="45.72873" lon="6.52949">
        <ele>728.6</ele>
        <time>2021-07-11T09:44:58Z</time>
      </trkpt>
      <trkpt lat="45.72878" lon="6.52956">
        <ele>729.8</ele>
        <time>2021-07-11T09:45:02Z</time>
      </trkpt>
      <trkpt lat="45.72883" lon="6.52964">
        <ele>729.8</ele>
        <time>2021-07-11T09:45:06Z</time>
      </trkpt>
      <trkpt lat="45.72888" lon="6.52973">
        <ele>730.6</ele>
        <time>2021-07-11T09:45:10Z</time>
      </trkpt>
      <trkpt lat="45.72893" lon="6.52982">
        <ele>730.6</ele>
        <time>2021-07-11T09:45:14Z</time>
      </trkpt>
      <trkpt lat="45.72897" lon="6.52992">
        <ele>731.6</ele>
        <time>2021-07-11T09:45:18Z</time>
      </trkpt>
      <trkpt lat="45.72901" lon="6.53003">
        <ele>732.2</ele>
        <time>2021-07-11T09:45:22Z</time>
      </trkpt>
      <trkpt lat="45.72903" lon="6.53015">
        <ele>732.4</ele>
        <time>2021-07-11T09:45:26Z</time>
      </trkpt>
      <trkpt lat="45.72905" lon="6.53028">
        <ele>733.6</ele>
        <time>2021-07-11T09:45:30Z</time>
      </trkpt>
      <trkpt lat="45.72907" lon="6.53039">
        <ele>734</ele>
        <time>2021-07-11T09:45:34Z</time>
      </trkpt>
      <trkpt lat="45.72908" lon="6.53049">
        <ele>734.8</ele>
        <time>2021-07-11T09:45:38Z</time>
      </trkpt>
      <trkpt lat="45.72908" lon="6.53058">
        <ele>735</ele>
        <time>2021-07-11T09:45:42Z</time>
      </trkpt>
      <trkpt lat="45.72907" lon="6.53066">
        <ele>736.6</ele>
        <time>2021-07-11T09:45:46Z</time>
      </trkpt>
      <trkpt lat="45.72907" lon="6.53075">
        <ele>736.8</ele>
        <time>2021-07-11T09:45:50Z</time>
      </trkpt>
      <trkpt lat="45.72909" lon="6.53086">
        <ele>737</ele>
        <time>2021-07-11T09:45:54Z</time>
      </trkpt>
      <trkpt lat="45.72908" lon="6.53095">
        <ele>738.2</ele>
        <time>2021-07-11T09:45:58Z</time>
      </trkpt>
      <trkpt lat="45.7291" lon="6.53105">
        <ele>739.2</ele>
        <time>2021-07-11T09:46:02Z</time>
      </trkpt>
      <trkpt lat="45.72912" lon="6.53114">
        <ele>739.6</ele>
        <time>2021-07-11T09:46:06Z</time>
      </trkpt>
      <trkpt lat="45.72914" lon="6.53124">
        <ele>740.2</ele>
        <time>2021-07-11T09:46:10Z</time>
      </trkpt>
      <trkpt lat="45.72916" lon="6.53132">
        <ele>741</ele>
        <time>2021-07-11T09:46:14Z</time>
      </trkpt>
      <trkpt lat="45.72916" lon="6.53143">
        <ele>741.6</ele>
        <time>2021-07-11T09:46:18Z</time>
      </trkpt>
      <trkpt lat="45.72918" lon="6.53154">
        <ele>742.2</ele>
        <time>2021-07-11T09:46:22Z</time>
      </trkpt>
      <trkpt lat="45.7292" lon="6.53164">
        <ele>743.2</ele>
        <time>2021-07-11T09:46:26Z</time>
      </trkpt>
      <trkpt lat="45.72923" lon="6.53174">
        <ele>743.8</ele>
        <time>2021-07-11T09:46:30Z</time>
      </trkpt>
      <trkpt lat="45.72925" lon="6.53184">
        <ele>744</ele>
        <time>2021-07-11T09:46:34Z</time>
      </trkpt>
      <trkpt lat="45.72928" lon="6.53194">
        <ele>744.8</ele>
        <time>2021-07-11T09:46:38Z</time>
      </trkpt>
      <trkpt lat="45.72932" lon="6.53204">
        <ele>745.4</ele>
        <time>2021-07-11T09:46:42Z</time>
      </trkpt>
      <trkpt lat="45.72936" lon="6.53214">
        <ele>746.2</ele>
        <time>2021-07-11T09:46:46Z</time>
      </trkpt>
      <trkpt lat="45.72939" lon="6.53225">
        <ele>746.2</ele>
        <time>2021-07-11T09:46:50Z</time>
      </trkpt>
      <trkpt lat="45.72942" lon="6.53234">
        <ele>747.2</ele>
        <time>2021-07-11T09:46:54Z</time>
      </trkpt>
      <trkpt lat="45.72945" lon="6.53244">
        <ele>748.4</ele>
        <time>2021-07-11T09:46:58Z</time>
      </trkpt>
      <trkpt lat="45.72949" lon="6.53253">
        <ele>748.4</ele>
        <time>2021-07-11T09:47:02Z</time>
      </trkpt>
      <trkpt lat="45.72952" lon="6.53262">
        <ele>748.8</ele>
        <time>2021-07-11T09:47:06Z</time>
      </trkpt>
      <trkpt lat="45.72955" lon="6.53272">
        <ele>749.8</ele>
        <time>2021-07-11T09:47:10Z</time>
      </trkpt>
      <trkpt lat="45.72958" lon="6.53281">
        <ele>750.8</ele>
        <time>2021-07-11T09:47:14Z</time>
      </trkpt>
      <trkpt lat="45.7296" lon="6.5329">
        <ele>751.2</ele>
        <time>2021-07-11T09:47:18Z</time>
      </trkpt>
      <trkpt lat="45.72963" lon="6.53299">
        <ele>751.8</ele>
        <time>2021-07-11T09:47:22Z</time>
      </trkpt>
      <trkpt lat="45.72963" lon="6.53306">
        <ele>752.4</ele>
        <time>2021-07-11T09:47:26Z</time>
      </trkpt>
      <trkpt lat="45.72965" lon="6.53316">
        <ele>753.6</ele>
        <time>2021-07-11T09:47:30Z</time>
      </trkpt>
      <trkpt lat="45.72967" lon="6.53326">
        <ele>753.4</ele>
        <time>2021-07-11T09:47:34Z</time>
      </trkpt>
      <trkpt lat="45.72969" lon="6.53336">
        <ele>754.2</ele>
        <time>2021-07-11T09:47:38Z</time>
      </trkpt>
      <trkpt lat="45.72971" lon="6.53347">
        <ele>754.4</ele>
        <time>2021-07-11T09:47:42Z</time>
      </trkpt>
      <trkpt lat="45.72973" lon="6.53357">
        <ele>755</ele>
        <time>2021-07-11T09:47:46Z</time>
      </trkpt>
      <trkpt lat="45.72975" lon="6.53368">
        <ele>756.2</ele>
        <time>2021-07-11T09:47:50Z</time>
      </trkpt>
      <trkpt lat="45.72977" lon="6.53377">
        <ele>756.4</ele>
        <time>2021-07-11T09:47:54Z</time>
      </trkpt>
      <trkpt lat="45.72979" lon="6.53386">
        <ele>757.2</ele>
        <time>2021-07-11T09:47:58Z</time>
      </trkpt>
      <trkpt lat="45.72981" lon="6.53396">
        <ele>758</ele>
        <time>2021-07-11T09:48:02Z</time>
      </trkpt>
      <trkpt lat="45.72982" lon="6.53408">
        <ele>758.4</ele>
        <time>2021-07-11T09:48:06Z</time>
      </trkpt>
      <trkpt lat="45.72984" lon="6.53419">
        <ele>759</ele>
        <time>2021-07-11T09:48:10Z</time>
      </trkpt>
      <trkpt lat="45.72986" lon="6.53429">
        <ele>760.2</ele>
        <time>2021-07-11T09:48:14Z</time>
      </trkpt>
      <trkpt lat="45.72986" lon="6.53438">
        <ele>760.4</ele>
        <time>2021-07-11T09:48:18Z</time>
      </trkpt>
      <trkpt lat="45.72989" lon="6.53448">
        <ele>761.2</ele>
        <time>2021-07-11T09:48:22Z</time>
      </trkpt>
      <trkpt lat="45.72992" lon="6.53457">
        <ele>762</ele>
        <time>2021-07-11T09:48:26Z</time>
      </trkpt>
      <trkpt lat="45.72995" lon="6.53466">
        <ele>762.6</ele>
        <time>2021-07-11T09:48:30Z</time>
      </trkpt>
      <trkpt lat="45.72999" lon="6.53474">
        <ele>763.4</ele>
        <time>2021-07-11T09:48:34Z</time>
      </trkpt>
      <trkpt lat="45.73002" lon="6.53482">
        <ele>763.8</ele>
        <time>2021-07-11T09:48:38Z</time>
      </trkpt>
      <trkpt lat="45.73005" lon="6.53491">
        <ele>764.8</ele>
        <time>2021-07-11T09:48:42Z</time>
      </trkpt>
      <trkpt lat="45.73008" lon="6.53498">
        <ele>765.4</ele>
        <time>2021-07-11T09:48:46Z</time>
      </trkpt>
      <trkpt lat="45.73013" lon="6.53505">
        <ele>766</ele>
        <time>2021-07-11T09:48:50Z</time>
      </trkpt>
      <trkpt lat="45.73018" lon="6.53513">
        <ele>766.6</ele>
        <time>2021-07-11T09:48:54Z</time>
      </trkpt>
      <trkpt lat="45.7302" lon="6.53521">
        <ele>767.4</ele>
        <time>2021-07-11T09:48:58Z</time>
      </trkpt>
      <trkpt lat="45.73026" lon="6.53525">
        <ele>768.2</ele>
        <time>2021-07-11T09:49:02Z</time>
      </trkpt>
      <trkpt lat="45.73034" lon="6.53531">
        <ele>769</ele>
        <time>2021-07-11T09:49:06Z</time>
      </trkpt>
      <trkpt lat="45.7304" lon="6.53536">
        <ele>769.2</ele>
        <time>2021-07-11T09:49:10Z</time>
      </trkpt>
      <trkpt lat="45.73048" lon="6.53541">
        <ele>770.4</ele>
        <time>2021-07-11T09:49:14Z</time>
      </trkpt>
      <trkpt lat="45.73053" lon="6.53546">
        <ele>770.8</ele>
        <time>2021-07-11T09:49:18Z</time>
      </trkpt>
      <trkpt lat="45.73058" lon="6.53554">
        <ele>771.6</ele>
        <time>2021-07-11T09:49:22Z</time>
      </trkpt>
      <trkpt lat="45.73063" lon="6.53562">
        <ele>772.2</ele>
        <time>2021-07-11T09:49:26Z</time>
      </trkpt>
      <trkpt lat="45.73067" lon="6.53571">
        <ele>772.8</ele>
        <time>2021-07-11T09:49:30Z</time>
      </trkpt>
      <trkpt lat="45.73067" lon="6.53582">
        <ele>772.8</ele>
        <time>2021-07-11T09:49:34Z</time>
      </trkpt>
      <trkpt lat="45.73065" lon="6.53592">
        <ele>774</ele>
        <time>2021-07-11T09:49:38Z</time>
      </trkpt>
      <trkpt lat="45.73061" lon="6.53602">
        <ele>775</ele>
        <time>2021-07-11T09:49:42Z</time>
      </trkpt>
      <trkpt lat="45.7306" lon="6.5361">
        <ele>775.2</ele>
        <time>2021-07-11T09:49:46Z</time>
      </trkpt>
      <trkpt lat="45.73056" lon="6.53616">
        <ele>775.8</ele>
        <time>2021-07-11T09:49:50Z</time>
      </trkpt>
      <trkpt lat="45.73052" lon="6.53625">
        <ele>777.2</ele>
        <time>2021-07-11T09:49:54Z</time>
      </trkpt>
      <trkpt lat="45.73048" lon="6.53634">
        <ele>777.8</ele>
        <time>2021-07-11T09:49:58Z</time>
      </trkpt>
      <trkpt lat="45.73038" lon="6.5364">
        <ele>778.4</ele>
        <time>2021-07-11T09:50:02Z</time>
      </trkpt>
      <trkpt lat="45.73032" lon="6.53648">
        <ele>779</ele>
        <time>2021-07-11T09:50:06Z</time>
      </trkpt>
      <trkpt lat="45.73029" lon="6.53672">
        <ele>779.8</ele>
        <time>2021-07-11T09:51:06Z</time>
      </trkpt>
      <trkpt lat="45.73033" lon="6.53683">
        <ele>780.6</ele>
        <time>2021-07-11T09:51:10Z</time>
      </trkpt>
      <trkpt lat="45.73038" lon="6.53692">
        <ele>781.4</ele>
        <time>2021-07-11T09:51:14Z</time>
      </trkpt>
      <trkpt lat="45.73042" lon="6.53702">
        <ele>781.4</ele>
        <time>2021-07-11T09:51:18Z</time>
      </trkpt>
      <trkpt lat="45.73045" lon="6.5371">
        <ele>782</ele>
        <time>2021-07-11T09:51:22Z</time>
      </trkpt>
      <trkpt lat="45.73049" lon="6.53717">
        <ele>782.8</ele>
        <time>2021-07-11T09:51:26Z</time>
      </trkpt>
      <trkpt lat="45.73054" lon="6.53723">
        <ele>783.4</ele>
        <time>2021-07-11T09:51:30Z</time>
      </trkpt>
      <trkpt lat="45.73061" lon="6.53722">
        <ele>783.8</ele>
        <time>2021-07-11T09:51:34Z</time>
      </trkpt>
      <trkpt lat="45.73062" lon="6.53712">
        <ele>784.4</ele>
        <time>2021-07-11T09:51:38Z</time>
      </trkpt>
      <trkpt lat="45.73059" lon="6.537">
        <ele>785.2</ele>
        <time>2021-07-11T09:51:42Z</time>
      </trkpt>
      <trkpt lat="45.73055" lon="6.5369">
        <ele>785.4</ele>
        <time>2021-07-11T09:51:46Z</time>
      </trkpt>
      <trkpt lat="45.7305" lon="6.5368">
        <ele>785.4</ele>
        <time>2021-07-11T09:51:50Z</time>
      </trkpt>
      <trkpt lat="45.73048" lon="6.53669">
        <ele>786.2</ele>
        <time>2021-07-11T09:51:54Z</time>
      </trkpt>
      <trkpt lat="45.7305" lon="6.53661">
        <ele>787.2</ele>
        <time>2021-07-11T09:51:58Z</time>
      </trkpt>
      <trkpt lat="45.73056" lon="6.53656">
        <ele>788</ele>
        <time>2021-07-11T09:52:02Z</time>
      </trkpt>
      <trkpt lat="45.73062" lon="6.53649">
        <ele>788.6</ele>
        <time>2021-07-11T09:52:06Z</time>
      </trkpt>
      <trkpt lat="45.73069" lon="6.53645">
        <ele>789.2</ele>
        <time>2021-07-11T09:52:10Z</time>
      </trkpt>
      <trkpt lat="45.73075" lon="6.53642">
        <ele>790</ele>
        <time>2021-07-11T09:52:14Z</time>
      </trkpt>
      <trkpt lat="45.73082" lon="6.53641">
        <ele>791</ele>
        <time>2021-07-11T09:52:18Z</time>
      </trkpt>
      <trkpt lat="45.73087" lon="6.53636">
        <ele>792</ele>
        <time>2021-07-11T09:52:22Z</time>
      </trkpt>
      <trkpt lat="45.73093" lon="6.53633">
        <ele>792.2</ele>
        <time>2021-07-11T09:52:26Z</time>
      </trkpt>
      <trkpt lat="45.73098" lon="6.53625">
        <ele>793</ele>
        <time>2021-07-11T09:52:30Z</time>
      </trkpt>
      <trkpt lat="45.73102" lon="6.53617">
        <ele>793.2</ele>
        <time>2021-07-11T09:52:34Z</time>
      </trkpt>
      <trkpt lat="45.73106" lon="6.53608">
        <ele>794</ele>
        <time>2021-07-11T09:52:38Z</time>
      </trkpt>
      <trkpt lat="45.73108" lon="6.53597">
        <ele>794.4</ele>
        <time>2021-07-11T09:52:42Z</time>
      </trkpt>
      <trkpt lat="45.73109" lon="6.53583">
        <ele>794.6</ele>
        <time>2021-07-11T09:52:46Z</time>
      </trkpt>
      <trkpt lat="45.7311" lon="6.5357">
        <ele>795.4</ele>
        <time>2021-07-11T09:52:50Z</time>
      </trkpt>
      <trkpt lat="45.73107" lon="6.53554">
        <ele>795.6</ele>
        <time>2021-07-11T09:52:54Z</time>
      </trkpt>
      <trkpt lat="45.73103" lon="6.53539">
        <ele>796.2</ele>
        <time>2021-07-11T09:52:58Z</time>
      </trkpt>
      <trkpt lat="45.73098" lon="6.53527">
        <ele>796.6</ele>
        <time>2021-07-11T09:53:02Z</time>
      </trkpt>
      <trkpt lat="45.73092" lon="6.53517">
        <ele>797</ele>
        <time>2021-07-11T09:53:06Z</time>
      </trkpt>
      <trkpt lat="45.73089" lon="6.5351">
        <ele>798</ele>
        <time>2021-07-11T09:53:10Z</time>
      </trkpt>
      <trkpt lat="45.73083" lon="6.53503">
        <ele>798.8</ele>
        <time>2021-07-11T09:53:14Z</time>
      </trkpt>
      <trkpt lat="45.73077" lon="6.53498">
        <ele>799.6</ele>
        <time>2021-07-11T09:53:18Z</time>
      </trkpt>
      <trkpt lat="45.73071" lon="6.53494">
        <ele>800.2</ele>
        <time>2021-07-11T09:53:22Z</time>
      </trkpt>
      <trkpt lat="45.73066" lon="6.53491">
        <ele>801.2</ele>
        <time>2021-07-11T09:53:26Z</time>
      </trkpt>
      <trkpt lat="45.7306" lon="6.53489">
        <ele>801.6</ele>
        <time>2021-07-11T09:53:30Z</time>
      </trkpt>
      <trkpt lat="45.73055" lon="6.53484">
        <ele>802.6</ele>
        <time>2021-07-11T09:53:34Z</time>
      </trkpt>
      <trkpt lat="45.7305" lon="6.53476">
        <ele>803</ele>
        <time>2021-07-11T09:53:38Z</time>
      </trkpt>
      <trkpt lat="45.73048" lon="6.53467">
        <ele>804.6</ele>
        <time>2021-07-11T09:53:42Z</time>
      </trkpt>
      <trkpt lat="45.73049" lon="6.53459">
        <ele>805</ele>
        <time>2021-07-11T09:53:46Z</time>
      </trkpt>
      <trkpt lat="45.73051" lon="6.53447">
        <ele>805.2</ele>
        <time>2021-07-11T09:53:50Z</time>
      </trkpt>
      <trkpt lat="45.73051" lon="6.53434">
        <ele>806</ele>
        <time>2021-07-11T09:53:54Z</time>
      </trkpt>
      <trkpt lat="45.73052" lon="6.53423">
        <ele>806</ele>
        <time>2021-07-11T09:53:58Z</time>
      </trkpt>
      <trkpt lat="45.73053" lon="6.53412">
        <ele>807</ele>
        <time>2021-07-11T09:54:02Z</time>
      </trkpt>
      <trkpt lat="45.73055" lon="6.534">
        <ele>807.6</ele>
        <time>2021-07-11T09:54:06Z</time>
      </trkpt>
      <trkpt lat="45.73055" lon="6.53392">
        <ele>808.2</ele>
        <time>2021-07-11T09:54:10Z</time>
      </trkpt>
      <trkpt lat="45.73055" lon="6.53382">
        <ele>808.4</ele>
        <time>2021-07-11T09:54:14Z</time>
      </trkpt>
      <trkpt lat="45.73052" lon="6.5337">
        <ele>809.2</ele>
        <time>2021-07-11T09:54:18Z</time>
      </trkpt>
      <trkpt lat="45.73049" lon="6.53359">
        <ele>809.6</ele>
        <time>2021-07-11T09:54:22Z</time>
      </trkpt>
      <trkpt lat="45.73045" lon="6.53347">
        <ele>810.4</ele>
        <time>2021-07-11T09:54:26Z</time>
      </trkpt>
      <trkpt lat="45.73044" lon="6.53334">
        <ele>810.4</ele>
        <time>2021-07-11T09:54:30Z</time>
      </trkpt>
      <trkpt lat="45.73042" lon="6.53322">
        <ele>811</ele>
        <time>2021-07-11T09:54:34Z</time>
      </trkpt>
      <trkpt lat="45.73042" lon="6.53311">
        <ele>811.8</ele>
        <time>2021-07-11T09:54:38Z</time>
      </trkpt>
      <trkpt lat="45.73043" lon="6.533">
        <ele>812.2</ele>
        <time>2021-07-11T09:54:42Z</time>
      </trkpt>
      <trkpt lat="45.73045" lon="6.5329">
        <ele>812.8</ele>
        <time>2021-07-11T09:54:46Z</time>
      </trkpt>
      <trkpt lat="45.73047" lon="6.53282">
        <ele>813.6</ele>
        <time>2021-07-11T09:54:50Z</time>
      </trkpt>
      <trkpt lat="45.73049" lon="6.53272">
        <ele>813.6</ele>
        <time>2021-07-11T09:54:54Z</time>
      </trkpt>
      <trkpt lat="45.73049" lon="6.53262">
        <ele>814.6</ele>
        <time>2021-07-11T09:54:58Z</time>
      </trkpt>
      <trkpt lat="45.73049" lon="6.53251">
        <ele>814.8</ele>
        <time>2021-07-11T09:55:02Z</time>
      </trkpt>
      <trkpt lat="45.73048" lon="6.53239">
        <ele>816</ele>
        <time>2021-07-11T09:55:06Z</time>
      </trkpt>
      <trkpt lat="45.73048" lon="6.53229">
        <ele>817</ele>
        <time>2021-07-11T09:55:10Z</time>
      </trkpt>
      <trkpt lat="45.73048" lon="6.53219">
        <ele>817</ele>
        <time>2021-07-11T09:55:14Z</time>
      </trkpt>
      <trkpt lat="45.73047" lon="6.53208">
        <ele>817.8</ele>
        <time>2021-07-11T09:55:18Z</time>
      </trkpt>
      <trkpt lat="45.73047" lon="6.53198">
        <ele>818.2</ele>
        <time>2021-07-11T09:55:22Z</time>
      </trkpt>
      <trkpt lat="45.73046" lon="6.53186">
        <ele>819</ele>
        <time>2021-07-11T09:55:26Z</time>
      </trkpt>
      <trkpt lat="45.73046" lon="6.53175">
        <ele>819</ele>
        <time>2021-07-11T09:55:30Z</time>
      </trkpt>
      <trkpt lat="45.73047" lon="6.53164">
        <ele>820</ele>
        <time>2021-07-11T09:55:34Z</time>
      </trkpt>
      <trkpt lat="45.73049" lon="6.53153">
        <ele>820.6</ele>
        <time>2021-07-11T09:55:38Z</time>
      </trkpt>
      <trkpt lat="45.73051" lon="6.53142">
        <ele>821.4</ele>
        <time>2021-07-11T09:55:42Z</time>
      </trkpt>
      <trkpt lat="45.73053" lon="6.53131">
        <ele>822.4</ele>
        <time>2021-07-11T09:55:46Z</time>
      </trkpt>
      <trkpt lat="45.73058" lon="6.53121">
        <ele>822.4</ele>
        <time>2021-07-11T09:55:50Z</time>
      </trkpt>
      <trkpt lat="45.73064" lon="6.53113">
        <ele>822.6</ele>
        <time>2021-07-11T09:55:54Z</time>
      </trkpt>
      <trkpt lat="45.73071" lon="6.53107">
        <ele>823.4</ele>
        <time>2021-07-11T09:55:58Z</time>
      </trkpt>
      <trkpt lat="45.73077" lon="6.53099">
        <ele>824.4</ele>
        <time>2021-07-11T09:56:02Z</time>
      </trkpt>
      <trkpt lat="45.73081" lon="6.5309">
        <ele>824.8</ele>
        <time>2021-07-11T09:56:06Z</time>
      </trkpt>
      <trkpt lat="45.73084" lon="6.53082">
        <ele>825.2</ele>
        <time>2021-07-11T09:56:10Z</time>
      </trkpt>
      <trkpt lat="45.73085" lon="6.53074">
        <ele>825.8</ele>
        <time>2021-07-11T09:56:14Z</time>
      </trkpt>
      <trkpt lat="45.73082" lon="6.53065">
        <ele>826.6</ele>
        <time>2021-07-11T09:56:18Z</time>
      </trkpt>
      <trkpt lat="45.73082" lon="6.53065">
        <ele>826.6</ele>
        <time>2021-07-11T09:56:22Z</time>
      </trkpt>
      <trkpt lat="45.73077" lon="6.5305">
        <ele>827.4</ele>
        <time>2021-07-11T09:56:44Z</time>
      </trkpt>
      <trkpt lat="45.73076" lon="6.53039">
        <ele>827.8</ele>
        <time>2021-07-11T09:56:48Z</time>
      </trkpt>
      <trkpt lat="45.73076" lon="6.53029">
        <ele>828.8</ele>
        <time>2021-07-11T09:56:52Z</time>
      </trkpt>
      <trkpt lat="45.73077" lon="6.53019">
        <ele>829.2</ele>
        <time>2021-07-11T09:56:56Z</time>
      </trkpt>
      <trkpt lat="45.73078" lon="6.53009">
        <ele>829.6</ele>
        <time>2021-07-11T09:57:00Z</time>
      </trkpt>
      <trkpt lat="45.73079" lon="6.53">
        <ele>830.4</ele>
        <time>2021-07-11T09:57:04Z</time>
      </trkpt>
      <trkpt lat="45.73081" lon="6.52992">
        <ele>831.6</ele>
        <time>2021-07-11T09:57:08Z</time>
      </trkpt>
      <trkpt lat="45.73084" lon="6.52984">
        <ele>832</ele>
        <time>2021-07-11T09:57:12Z</time>
      </trkpt>
      <trkpt lat="45.7309" lon="6.52978">
        <ele>832.2</ele>
        <time>2021-07-11T09:57:16Z</time>
      </trkpt>
      <trkpt lat="45.73096" lon="6.52973">
        <ele>832.8</ele>
        <time>2021-07-11T09:57:20Z</time>
      </trkpt>
      <trkpt lat="45.73102" lon="6.5297">
        <ele>833.8</ele>
        <time>2021-07-11T09:57:24Z</time>
      </trkpt>
      <trkpt lat="45.73108" lon="6.52968">
        <ele>834.8</ele>
        <time>2021-07-11T09:57:28Z</time>
      </trkpt>
      <trkpt lat="45.73113" lon="6.52964">
        <ele>834.8</ele>
        <time>2021-07-11T09:57:32Z</time>
      </trkpt>
      <trkpt lat="45.73115" lon="6.52954">
        <ele>835.4</ele>
        <time>2021-07-11T09:57:36Z</time>
      </trkpt>
      <trkpt lat="45.73115" lon="6.52946">
        <ele>836.2</ele>
        <time>2021-07-11T09:57:40Z</time>
      </trkpt>
      <trkpt lat="45.73111" lon="6.52928">
        <ele>836.8</ele>
        <time>2021-07-11T09:57:44Z</time>
      </trkpt>
      <trkpt lat="45.73107" lon="6.52917">
        <ele>837.6</ele>
        <time>2021-07-11T09:57:48Z</time>
      </trkpt>
      <trkpt lat="45.73105" lon="6.5291">
        <ele>838.8</ele>
        <time>2021-07-11T09:57:52Z</time>
      </trkpt>
      <trkpt lat="45.73103" lon="6.52901">
        <ele>839.4</ele>
        <time>2021-07-11T09:57:56Z</time>
      </trkpt>
      <trkpt lat="45.73101" lon="6.52889">
        <ele>839.4</ele>
        <time>2021-07-11T09:58:00Z</time>
      </trkpt>
      <trkpt lat="45.73101" lon="6.5288">
        <ele>839.8</ele>
        <time>2021-07-11T09:58:04Z</time>
      </trkpt>
      <trkpt lat="45.73101" lon="6.52872">
        <ele>840.4</ele>
        <time>2021-07-11T09:58:08Z</time>
      </trkpt>
      <trkpt lat="45.731" lon="6.52864">
        <ele>840.6</ele>
        <time>2021-07-11T09:58:12Z</time>
      </trkpt>
      <trkpt lat="45.73097" lon="6.5285">
        <ele>841.8</ele>
        <time>2021-07-11T09:58:16Z</time>
      </trkpt>
      <trkpt lat="45.73093" lon="6.52839">
        <ele>841.8</ele>
        <time>2021-07-11T09:58:20Z</time>
      </trkpt>
      <trkpt lat="45.73087" lon="6.52833">
        <ele>842.2</ele>
        <time>2021-07-11T09:58:24Z</time>
      </trkpt>
      <trkpt lat="45.7308" lon="6.52829">
        <ele>843</ele>
        <time>2021-07-11T09:58:28Z</time>
      </trkpt>
      <trkpt lat="45.73074" lon="6.52825">
        <ele>844</ele>
        <time>2021-07-11T09:58:32Z</time>
      </trkpt>
      <trkpt lat="45.73069" lon="6.52818">
        <ele>843.8</ele>
        <time>2021-07-11T09:58:36Z</time>
      </trkpt>
      <trkpt lat="45.73065" lon="6.5281">
        <ele>844.8</ele>
        <time>2021-07-11T09:58:40Z</time>
      </trkpt>
      <trkpt lat="45.73063" lon="6.52801">
        <ele>845</ele>
        <time>2021-07-11T09:58:44Z</time>
      </trkpt>
      <trkpt lat="45.73062" lon="6.52791">
        <ele>846</ele>
        <time>2021-07-11T09:58:48Z</time>
      </trkpt>
      <trkpt lat="45.73063" lon="6.5278">
        <ele>846.4</ele>
        <time>2021-07-11T09:58:52Z</time>
      </trkpt>
      <trkpt lat="45.73066" lon="6.52773">
        <ele>847.6</ele>
        <time>2021-07-11T09:58:56Z</time>
      </trkpt>
      <trkpt lat="45.73071" lon="6.52768">
        <ele>847.8</ele>
        <time>2021-07-11T09:59:00Z</time>
      </trkpt>
      <trkpt lat="45.73077" lon="6.52762">
        <ele>849.2</ele>
        <time>2021-07-11T09:59:04Z</time>
      </trkpt>
      <trkpt lat="45.73083" lon="6.52758">
        <ele>849.4</ele>
        <time>2021-07-11T09:59:08Z</time>
      </trkpt>
      <trkpt lat="45.73088" lon="6.52752">
        <ele>849.6</ele>
        <time>2021-07-11T09:59:12Z</time>
      </trkpt>
      <trkpt lat="45.73094" lon="6.52747">
        <ele>850.4</ele>
        <time>2021-07-11T09:59:16Z</time>
      </trkpt>
      <trkpt lat="45.731" lon="6.52742">
        <ele>851</ele>
        <time>2021-07-11T09:59:20Z</time>
      </trkpt>
      <trkpt lat="45.73105" lon="6.52736">
        <ele>852</ele>
        <time>2021-07-11T09:59:24Z</time>
      </trkpt>
      <trkpt lat="45.73109" lon="6.52727">
        <ele>852.2</ele>
        <time>2021-07-11T09:59:28Z</time>
      </trkpt>
      <trkpt lat="45.73113" lon="6.52718">
        <ele>852.6</ele>
        <time>2021-07-11T09:59:32Z</time>
      </trkpt>
      <trkpt lat="45.73114" lon="6.5271">
        <ele>853</ele>
        <time>2021-07-11T09:59:36Z</time>
      </trkpt>
      <trkpt lat="45.73112" lon="6.52699">
        <ele>853.8</ele>
        <time>2021-07-11T09:59:40Z</time>
      </trkpt>
      <trkpt lat="45.7311" lon="6.52689">
        <ele>854.6</ele>
        <time>2021-07-11T09:59:44Z</time>
      </trkpt>
      <trkpt lat="45.7311" lon="6.52682">
        <ele>855.2</ele>
        <time>2021-07-11T09:59:48Z</time>
      </trkpt>
      <trkpt lat="45.7311" lon="6.52673">
        <ele>856.6</ele>
        <time>2021-07-11T09:59:52Z</time>
      </trkpt>
      <trkpt lat="45.73109" lon="6.52664">
        <ele>857.6</ele>
        <time>2021-07-11T09:59:56Z</time>
      </trkpt>
      <trkpt lat="45.73108" lon="6.52657">
        <ele>858.2</ele>
        <time>2021-07-11T10:00:00Z</time>
      </trkpt>
      <trkpt lat="45.73096" lon="6.52617">
        <ele>860.2</ele>
        <time>2021-07-11T10:00:12Z</time>
      </trkpt>
      <trkpt lat="45.73092" lon="6.52611">
        <ele>860.8</ele>
        <time>2021-07-11T10:00:16Z</time>
      </trkpt>
      <trkpt lat="45.73086" lon="6.52606">
        <ele>861.6</ele>
        <time>2021-07-11T10:00:20Z</time>
      </trkpt>
      <trkpt lat="45.73086" lon="6.52606">
        <ele>862</ele>
        <time>2021-07-11T10:00:24Z</time>
      </trkpt>
      <trkpt lat="45.73083" lon="6.52599">
        <ele>862.8</ele>
        <time>2021-07-11T10:00:28Z</time>
      </trkpt>
      <trkpt lat="45.73081" lon="6.52593">
        <ele>863.2</ele>
        <time>2021-07-11T10:00:32Z</time>
      </trkpt>
      <trkpt lat="45.7308" lon="6.52587">
        <ele>863.4</ele>
        <time>2021-07-11T10:00:36Z</time>
      </trkpt>
      <trkpt lat="45.73078" lon="6.5258">
        <ele>865</ele>
        <time>2021-07-11T10:00:40Z</time>
      </trkpt>
      <trkpt lat="45.73077" lon="6.52575">
        <ele>865.2</ele>
        <time>2021-07-11T10:00:44Z</time>
      </trkpt>
      <trkpt lat="45.73075" lon="6.52567">
        <ele>865.8</ele>
        <time>2021-07-11T10:00:48Z</time>
      </trkpt>
      <trkpt lat="45.73076" lon="6.52563">
        <ele>866.2</ele>
        <time>2021-07-11T10:00:52Z</time>
      </trkpt>
      <trkpt lat="45.73076" lon="6.52552">
        <ele>867</ele>
        <time>2021-07-11T10:00:56Z</time>
      </trkpt>
      <trkpt lat="45.73074" lon="6.52542">
        <ele>868</ele>
        <time>2021-07-11T10:01:00Z</time>
      </trkpt>
      <trkpt lat="45.73071" lon="6.52529">
        <ele>868</ele>
        <time>2021-07-11T10:01:04Z</time>
      </trkpt>
      <trkpt lat="45.73068" lon="6.52516">
        <ele>868.8</ele>
        <time>2021-07-11T10:01:08Z</time>
      </trkpt>
      <trkpt lat="45.73064" lon="6.52502">
        <ele>870</ele>
        <time>2021-07-11T10:01:12Z</time>
      </trkpt>
      <trkpt lat="45.73058" lon="6.52492">
        <ele>870</ele>
        <time>2021-07-11T10:01:16Z</time>
      </trkpt>
      <trkpt lat="45.73053" lon="6.52486">
        <ele>870.2</ele>
        <time>2021-07-11T10:01:20Z</time>
      </trkpt>
      <trkpt lat="45.73047" lon="6.52481">
        <ele>871</ele>
        <time>2021-07-11T10:01:24Z</time>
      </trkpt>
      <trkpt lat="45.7304" lon="6.52477">
        <ele>872</ele>
        <time>2021-07-11T10:01:28Z</time>
      </trkpt>
      <trkpt lat="45.73034" lon="6.52473">
        <ele>872.4</ele>
        <time>2021-07-11T10:01:32Z</time>
      </trkpt>
      <trkpt lat="45.73028" lon="6.52473">
        <ele>872.8</ele>
        <time>2021-07-11T10:01:36Z</time>
      </trkpt>
      <trkpt lat="45.73022" lon="6.52473">
        <ele>873.4</ele>
        <time>2021-07-11T10:01:40Z</time>
      </trkpt>
      <trkpt lat="45.73015" lon="6.52472">
        <ele>874.4</ele>
        <time>2021-07-11T10:01:44Z</time>
      </trkpt>
      <trkpt lat="45.73008" lon="6.5247">
        <ele>874.6</ele>
        <time>2021-07-11T10:01:48Z</time>
      </trkpt>
      <trkpt lat="45.73002" lon="6.52465">
        <ele>874.8</ele>
        <time>2021-07-11T10:01:52Z</time>
      </trkpt>
      <trkpt lat="45.72996" lon="6.52459">
        <ele>875.6</ele>
        <time>2021-07-11T10:01:56Z</time>
      </trkpt>
      <trkpt lat="45.72992" lon="6.52453">
        <ele>876.4</ele>
        <time>2021-07-11T10:02:00Z</time>
      </trkpt>
      <trkpt lat="45.72986" lon="6.52446">
        <ele>876.4</ele>
        <time>2021-07-11T10:02:04Z</time>
      </trkpt>
      <trkpt lat="45.72982" lon="6.52437">
        <ele>877.4</ele>
        <time>2021-07-11T10:02:08Z</time>
      </trkpt>
      <trkpt lat="45.7298" lon="6.52426">
        <ele>877.6</ele>
        <time>2021-07-11T10:02:12Z</time>
      </trkpt>
      <trkpt lat="45.72978" lon="6.52416">
        <ele>878.6</ele>
        <time>2021-07-11T10:02:16Z</time>
      </trkpt>
      <trkpt lat="45.72975" lon="6.52408">
        <ele>879.2</ele>
        <time>2021-07-11T10:02:20Z</time>
      </trkpt>
      <trkpt lat="45.72971" lon="6.52399">
        <ele>879.6</ele>
        <time>2021-07-11T10:02:24Z</time>
      </trkpt>
      <trkpt lat="45.72966" lon="6.52391">
        <ele>880.2</ele>
        <time>2021-07-11T10:02:28Z</time>
      </trkpt>
      <trkpt lat="45.72962" lon="6.52381">
        <ele>880.8</ele>
        <time>2021-07-11T10:02:32Z</time>
      </trkpt>
      <trkpt lat="45.72958" lon="6.52372">
        <ele>881.4</ele>
        <time>2021-07-11T10:02:36Z</time>
      </trkpt>
      <trkpt lat="45.72956" lon="6.5236">
        <ele>882.4</ele>
        <time>2021-07-11T10:02:40Z</time>
      </trkpt>
      <trkpt lat="45.72956" lon="6.5235">
        <ele>882.6</ele>
        <time>2021-07-11T10:02:44Z</time>
      </trkpt>
      <trkpt lat="45.72957" lon="6.52341">
        <ele>883.4</ele>
        <time>2021-07-11T10:02:48Z</time>
      </trkpt>
      <trkpt lat="45.72959" lon="6.52332">
        <ele>883.6</ele>
        <time>2021-07-11T10:02:52Z</time>
      </trkpt>
      <trkpt lat="45.7296" lon="6.52325">
        <ele>884.8</ele>
        <time>2021-07-11T10:02:56Z</time>
      </trkpt>
      <trkpt lat="45.72961" lon="6.52318">
        <ele>885.8</ele>
        <time>2021-07-11T10:03:00Z</time>
      </trkpt>
      <trkpt lat="45.72961" lon="6.5231">
        <ele>886</ele>
        <time>2021-07-11T10:03:04Z</time>
      </trkpt>
      <trkpt lat="45.72959" lon="6.523">
        <ele>886</ele>
        <time>2021-07-11T10:03:08Z</time>
      </trkpt>
      <trkpt lat="45.72958" lon="6.5229">
        <ele>887.2</ele>
        <time>2021-07-11T10:03:12Z</time>
      </trkpt>
      <trkpt lat="45.72957" lon="6.52281">
        <ele>887</ele>
        <time>2021-07-11T10:03:16Z</time>
      </trkpt>
      <trkpt lat="45.72957" lon="6.52273">
        <ele>887.8</ele>
        <time>2021-07-11T10:03:20Z</time>
      </trkpt>
      <trkpt lat="45.72958" lon="6.52264">
        <ele>888.2</ele>
        <time>2021-07-11T10:03:24Z</time>
      </trkpt>
      <trkpt lat="45.7296" lon="6.52255">
        <ele>888.8</ele>
        <time>2021-07-11T10:03:28Z</time>
      </trkpt>
      <trkpt lat="45.72961" lon="6.52246">
        <ele>889.6</ele>
        <time>2021-07-11T10:03:32Z</time>
      </trkpt>
      <trkpt lat="45.72963" lon="6.52238">
        <ele>890.4</ele>
        <time>2021-07-11T10:03:36Z</time>
      </trkpt>
      <trkpt lat="45.72963" lon="6.52229">
        <ele>890.8</ele>
        <time>2021-07-11T10:03:40Z</time>
      </trkpt>
      <trkpt lat="45.72962" lon="6.5222">
        <ele>891</ele>
        <time>2021-07-11T10:03:44Z</time>
      </trkpt>
      <trkpt lat="45.72962" lon="6.52211">
        <ele>891.6</ele>
        <time>2021-07-11T10:03:48Z</time>
      </trkpt>
      <trkpt lat="45.72962" lon="6.52202">
        <ele>892.6</ele>
        <time>2021-07-11T10:03:52Z</time>
      </trkpt>
      <trkpt lat="45.72963" lon="6.52194">
        <ele>893.4</ele>
        <time>2021-07-11T10:03:56Z</time>
      </trkpt>
      <trkpt lat="45.72961" lon="6.52183">
        <ele>893.8</ele>
        <time>2021-07-11T10:04:00Z</time>
      </trkpt>
      <trkpt lat="45.72959" lon="6.52172">
        <ele>894.6</ele>
        <time>2021-07-11T10:04:04Z</time>
      </trkpt>
      <trkpt lat="45.72958" lon="6.52161">
        <ele>895</ele>
        <time>2021-07-11T10:04:08Z</time>
      </trkpt>
      <trkpt lat="45.72957" lon="6.52152">
        <ele>895.4</ele>
        <time>2021-07-11T10:04:12Z</time>
      </trkpt>
      <trkpt lat="45.72956" lon="6.52142">
        <ele>896</ele>
        <time>2021-07-11T10:04:16Z</time>
      </trkpt>
      <trkpt lat="45.72954" lon="6.52131">
        <ele>896.4</ele>
        <time>2021-07-11T10:04:20Z</time>
      </trkpt>
      <trkpt lat="45.72951" lon="6.5212">
        <ele>896.8</ele>
        <time>2021-07-11T10:04:24Z</time>
      </trkpt>
      <trkpt lat="45.7295" lon="6.5211">
        <ele>898</ele>
        <time>2021-07-11T10:04:28Z</time>
      </trkpt>
      <trkpt lat="45.72948" lon="6.521">
        <ele>898.8</ele>
        <time>2021-07-11T10:04:32Z</time>
      </trkpt>
      <trkpt lat="45.72947" lon="6.52092">
        <ele>898.8</ele>
        <time>2021-07-11T10:04:36Z</time>
      </trkpt>
      <trkpt lat="45.72948" lon="6.52082">
        <ele>900.2</ele>
        <time>2021-07-11T10:04:40Z</time>
      </trkpt>
      <trkpt lat="45.72951" lon="6.52074">
        <ele>900.4</ele>
        <time>2021-07-11T10:04:44Z</time>
      </trkpt>
      <trkpt lat="45.72952" lon="6.52065">
        <ele>901.2</ele>
        <time>2021-07-11T10:04:48Z</time>
      </trkpt>
      <trkpt lat="45.72953" lon="6.52058">
        <ele>901</ele>
        <time>2021-07-11T10:04:52Z</time>
      </trkpt>
      <trkpt lat="45.72952" lon="6.5205">
        <ele>902.2</ele>
        <time>2021-07-11T10:04:56Z</time>
      </trkpt>
      <trkpt lat="45.7295" lon="6.52042">
        <ele>903.2</ele>
        <time>2021-07-11T10:05:00Z</time>
      </trkpt>
      <trkpt lat="45.72946" lon="6.52034">
        <ele>903.2</ele>
        <time>2021-07-11T10:05:04Z</time>
      </trkpt>
      <trkpt lat="45.72944" lon="6.52026">
        <ele>904</ele>
        <time>2021-07-11T10:05:08Z</time>
      </trkpt>
      <trkpt lat="45.72941" lon="6.52017">
        <ele>904.6</ele>
        <time>2021-07-11T10:05:12Z</time>
      </trkpt>
      <trkpt lat="45.72939" lon="6.52007">
        <ele>904.8</ele>
        <time>2021-07-11T10:05:16Z</time>
      </trkpt>
      <trkpt lat="45.72938" lon="6.51998">
        <ele>905.2</ele>
        <time>2021-07-11T10:05:20Z</time>
      </trkpt>
      <trkpt lat="45.72939" lon="6.5199">
        <ele>906</ele>
        <time>2021-07-11T10:05:24Z</time>
      </trkpt>
      <trkpt lat="45.7294" lon="6.51984">
        <ele>906.2</ele>
        <time>2021-07-11T10:05:28Z</time>
      </trkpt>
      <trkpt lat="45.7294" lon="6.51976">
        <ele>907</ele>
        <time>2021-07-11T10:05:32Z</time>
      </trkpt>
      <trkpt lat="45.72937" lon="6.51968">
        <ele>907.8</ele>
        <time>2021-07-11T10:05:36Z</time>
      </trkpt>
      <trkpt lat="45.72935" lon="6.51957">
        <ele>908</ele>
        <time>2021-07-11T10:05:40Z</time>
      </trkpt>
      <trkpt lat="45.72931" lon="6.51947">
        <ele>908.8</ele>
        <time>2021-07-11T10:05:44Z</time>
      </trkpt>
      <trkpt lat="45.72928" lon="6.51936">
        <ele>909.4</ele>
        <time>2021-07-11T10:05:48Z</time>
      </trkpt>
      <trkpt lat="45.72927" lon="6.51927">
        <ele>910.4</ele>
        <time>2021-07-11T10:05:52Z</time>
      </trkpt>
      <trkpt lat="45.72925" lon="6.5192">
        <ele>910.6</ele>
        <time>2021-07-11T10:05:56Z</time>
      </trkpt>
      <trkpt lat="45.72924" lon="6.51914">
        <ele>911.6</ele>
        <time>2021-07-11T10:06:00Z</time>
      </trkpt>
      <trkpt lat="45.72922" lon="6.51889">
        <ele>912.4</ele>
        <time>2021-07-11T10:06:46Z</time>
      </trkpt>
      <trkpt lat="45.72922" lon="6.51879">
        <ele>913.6</ele>
        <time>2021-07-11T10:06:50Z</time>
      </trkpt>
      <trkpt lat="45.72924" lon="6.51872">
        <ele>914.8</ele>
        <time>2021-07-11T10:06:54Z</time>
      </trkpt>
      <trkpt lat="45.72924" lon="6.51862">
        <ele>915</ele>
        <time>2021-07-11T10:06:58Z</time>
      </trkpt>
      <trkpt lat="45.72925" lon="6.51853">
        <ele>915.6</ele>
        <time>2021-07-11T10:07:02Z</time>
      </trkpt>
      <trkpt lat="45.72926" lon="6.51846">
        <ele>916.4</ele>
        <time>2021-07-11T10:07:06Z</time>
      </trkpt>
      <trkpt lat="45.72927" lon="6.51837">
        <ele>917</ele>
        <time>2021-07-11T10:07:10Z</time>
      </trkpt>
      <trkpt lat="45.72928" lon="6.51826">
        <ele>917.4</ele>
        <time>2021-07-11T10:07:14Z</time>
      </trkpt>
      <trkpt lat="45.72929" lon="6.51815">
        <ele>917.6</ele>
        <time>2021-07-11T10:07:18Z</time>
      </trkpt>
      <trkpt lat="45.72929" lon="6.51806">
        <ele>918.4</ele>
        <time>2021-07-11T10:07:22Z</time>
      </trkpt>
      <trkpt lat="45.72928" lon="6.51796">
        <ele>918.8</ele>
        <time>2021-07-11T10:07:26Z</time>
      </trkpt>
      <trkpt lat="45.72928" lon="6.51787">
        <ele>920.2</ele>
        <time>2021-07-11T10:07:30Z</time>
      </trkpt>
      <trkpt lat="45.72929" lon="6.51779">
        <ele>920.4</ele>
        <time>2021-07-11T10:07:34Z</time>
      </trkpt>
      <trkpt lat="45.7293" lon="6.51771">
        <ele>920.4</ele>
        <time>2021-07-11T10:07:38Z</time>
      </trkpt>
      <trkpt lat="45.72935" lon="6.51773">
        <ele>921</ele>
        <time>2021-07-11T10:07:42Z</time>
      </trkpt>
      <trkpt lat="45.72939" lon="6.51781">
        <ele>921.6</ele>
        <time>2021-07-11T10:07:46Z</time>
      </trkpt>
      <trkpt lat="45.72938" lon="6.51792">
        <ele>921.6</ele>
        <time>2021-07-11T10:07:50Z</time>
      </trkpt>
      <trkpt lat="45.72936" lon="6.51804">
        <ele>921.8</ele>
        <time>2021-07-11T10:07:54Z</time>
      </trkpt>
      <trkpt lat="45.72935" lon="6.51816">
        <ele>922.4</ele>
        <time>2021-07-11T10:07:58Z</time>
      </trkpt>
      <trkpt lat="45.72934" lon="6.51828">
        <ele>922.4</ele>
        <time>2021-07-11T10:08:02Z</time>
      </trkpt>
      <trkpt lat="45.72935" lon="6.51839">
        <ele>923.4</ele>
        <time>2021-07-11T10:08:06Z</time>
      </trkpt>
      <trkpt lat="45.72937" lon="6.51851">
        <ele>923.4</ele>
        <time>2021-07-11T10:08:10Z</time>
      </trkpt>
      <trkpt lat="45.7294" lon="6.51862">
        <ele>924.4</ele>
        <time>2021-07-11T10:08:14Z</time>
      </trkpt>
      <trkpt lat="45.72943" lon="6.51874">
        <ele>924</ele>
        <time>2021-07-11T10:08:18Z</time>
      </trkpt>
      <trkpt lat="45.72946" lon="6.51884">
        <ele>925.2</ele>
        <time>2021-07-11T10:08:22Z</time>
      </trkpt>
      <trkpt lat="45.72949" lon="6.51896">
        <ele>925.2</ele>
        <time>2021-07-11T10:08:26Z</time>
      </trkpt>
      <trkpt lat="45.72951" lon="6.51907">
        <ele>925.8</ele>
        <time>2021-07-11T10:08:30Z</time>
      </trkpt>
      <trkpt lat="45.72954" lon="6.51918">
        <ele>926</ele>
        <time>2021-07-11T10:08:34Z</time>
      </trkpt>
      <trkpt lat="45.72959" lon="6.51927">
        <ele>927</ele>
        <time>2021-07-11T10:08:38Z</time>
      </trkpt>
      <trkpt lat="45.72965" lon="6.51935">
        <ele>927</ele>
        <time>2021-07-11T10:08:42Z</time>
      </trkpt>
      <trkpt lat="45.7297" lon="6.51942">
        <ele>927.8</ele>
        <time>2021-07-11T10:08:46Z</time>
      </trkpt>
      <trkpt lat="45.72976" lon="6.51949">
        <ele>928.4</ele>
        <time>2021-07-11T10:08:50Z</time>
      </trkpt>
      <trkpt lat="45.72981" lon="6.51959">
        <ele>928.8</ele>
        <time>2021-07-11T10:08:54Z</time>
      </trkpt>
      <trkpt lat="45.72983" lon="6.5197">
        <ele>929</ele>
        <time>2021-07-11T10:08:58Z</time>
      </trkpt>
      <trkpt lat="45.72983" lon="6.5198">
        <ele>929.6</ele>
        <time>2021-07-11T10:09:02Z</time>
      </trkpt>
      <trkpt lat="45.72983" lon="6.51991">
        <ele>930.4</ele>
        <time>2021-07-11T10:09:06Z</time>
      </trkpt>
      <trkpt lat="45.72985" lon="6.52001">
        <ele>931</ele>
        <time>2021-07-11T10:09:10Z</time>
      </trkpt>
      <trkpt lat="45.72989" lon="6.52012">
        <ele>931.6</ele>
        <time>2021-07-11T10:09:14Z</time>
      </trkpt>
      <trkpt lat="45.72994" lon="6.52022">
        <ele>932.2</ele>
        <time>2021-07-11T10:09:18Z</time>
      </trkpt>
      <trkpt lat="45.72997" lon="6.52034">
        <ele>932.6</ele>
        <time>2021-07-11T10:09:22Z</time>
      </trkpt>
      <trkpt lat="45.72998" lon="6.52045">
        <ele>933.2</ele>
        <time>2021-07-11T10:09:26Z</time>
      </trkpt>
      <trkpt lat="45.73" lon="6.52057">
        <ele>934.2</ele>
        <time>2021-07-11T10:09:30Z</time>
      </trkpt>
      <trkpt lat="45.73002" lon="6.52067">
        <ele>934.4</ele>
        <time>2021-07-11T10:09:34Z</time>
      </trkpt>
      <trkpt lat="45.73005" lon="6.52077">
        <ele>935</ele>
        <time>2021-07-11T10:09:38Z</time>
      </trkpt>
      <trkpt lat="45.73008" lon="6.52086">
        <ele>935.8</ele>
        <time>2021-07-11T10:09:42Z</time>
      </trkpt>
      <trkpt lat="45.73011" lon="6.52095">
        <ele>936.6</ele>
        <time>2021-07-11T10:09:46Z</time>
      </trkpt>
      <trkpt lat="45.73014" lon="6.52104">
        <ele>937</ele>
        <time>2021-07-11T10:09:50Z</time>
      </trkpt>
      <trkpt lat="45.73016" lon="6.52113">
        <ele>937.4</ele>
        <time>2021-07-11T10:09:54Z</time>
      </trkpt>
      <trkpt lat="45.73019" lon="6.52122">
        <ele>938.4</ele>
        <time>2021-07-11T10:09:58Z</time>
      </trkpt>
      <trkpt lat="45.73022" lon="6.52131">
        <ele>939.2</ele>
        <time>2021-07-11T10:10:02Z</time>
      </trkpt>
      <trkpt lat="45.73024" lon="6.52141">
        <ele>939</ele>
        <time>2021-07-11T10:10:06Z</time>
      </trkpt>
      <trkpt lat="45.73027" lon="6.52151">
        <ele>939.8</ele>
        <time>2021-07-11T10:10:10Z</time>
      </trkpt>
      <trkpt lat="45.73029" lon="6.52161">
        <ele>941</ele>
        <time>2021-07-11T10:10:14Z</time>
      </trkpt>
      <trkpt lat="45.73032" lon="6.5217">
        <ele>941</ele>
        <time>2021-07-11T10:10:18Z</time>
      </trkpt>
      <trkpt lat="45.73034" lon="6.5218">
        <ele>941.4</ele>
        <time>2021-07-11T10:10:22Z</time>
      </trkpt>
      <trkpt lat="45.73036" lon="6.5219">
        <ele>942.2</ele>
        <time>2021-07-11T10:10:26Z</time>
      </trkpt>
      <trkpt lat="45.73039" lon="6.522">
        <ele>942.6</ele>
        <time>2021-07-11T10:10:30Z</time>
      </trkpt>
      <trkpt lat="45.73041" lon="6.5221">
        <ele>942.8</ele>
        <time>2021-07-11T10:10:34Z</time>
      </trkpt>
      <trkpt lat="45.73042" lon="6.52219">
        <ele>943.4</ele>
        <time>2021-07-11T10:10:38Z</time>
      </trkpt>
      <trkpt lat="45.73044" lon="6.52228">
        <ele>943.8</ele>
        <time>2021-07-11T10:10:42Z</time>
      </trkpt>
      <trkpt lat="45.73045" lon="6.52237">
        <ele>944.2</ele>
        <time>2021-07-11T10:10:46Z</time>
      </trkpt>
      <trkpt lat="45.73047" lon="6.52246">
        <ele>944.8</ele>
        <time>2021-07-11T10:10:50Z</time>
      </trkpt>
      <trkpt lat="45.7305" lon="6.52256">
        <ele>945.2</ele>
        <time>2021-07-11T10:10:54Z</time>
      </trkpt>
      <trkpt lat="45.73056" lon="6.52261">
        <ele>946</ele>
        <time>2021-07-11T10:10:58Z</time>
      </trkpt>
      <trkpt lat="45.73062" lon="6.52259">
        <ele>945.6</ele>
        <time>2021-07-11T10:11:02Z</time>
      </trkpt>
      <trkpt lat="45.73066" lon="6.52253">
        <ele>946.4</ele>
        <time>2021-07-11T10:11:06Z</time>
      </trkpt>
      <trkpt lat="45.73066" lon="6.52242">
        <ele>946.8</ele>
        <time>2021-07-11T10:11:10Z</time>
      </trkpt>
      <trkpt lat="45.73065" lon="6.52231">
        <ele>947.2</ele>
        <time>2021-07-11T10:11:14Z</time>
      </trkpt>
      <trkpt lat="45.73062" lon="6.5222">
        <ele>948.6</ele>
        <time>2021-07-11T10:11:18Z</time>
      </trkpt>
      <trkpt lat="45.73059" lon="6.5221">
        <ele>948.4</ele>
        <time>2021-07-11T10:11:22Z</time>
      </trkpt>
      <trkpt lat="45.73057" lon="6.52199">
        <ele>949.2</ele>
        <time>2021-07-11T10:11:26Z</time>
      </trkpt>
      <trkpt lat="45.73057" lon="6.52187">
        <ele>949.8</ele>
        <time>2021-07-11T10:11:30Z</time>
      </trkpt>
      <trkpt lat="45.73056" lon="6.52175">
        <ele>950.8</ele>
        <time>2021-07-11T10:11:34Z</time>
      </trkpt>
      <trkpt lat="45.73055" lon="6.52163">
        <ele>951.2</ele>
        <time>2021-07-11T10:11:38Z</time>
      </trkpt>
      <trkpt lat="45.73054" lon="6.5215">
        <ele>951.6</ele>
        <time>2021-07-11T10:11:42Z</time>
      </trkpt>
      <trkpt lat="45.73052" lon="6.52137">
        <ele>952.6</ele>
        <time>2021-07-11T10:11:46Z</time>
      </trkpt>
      <trkpt lat="45.7305" lon="6.52124">
        <ele>952.4</ele>
        <time>2021-07-11T10:11:50Z</time>
      </trkpt>
      <trkpt lat="45.73047" lon="6.52111">
        <ele>953.4</ele>
        <time>2021-07-11T10:11:54Z</time>
      </trkpt>
      <trkpt lat="45.73044" lon="6.52098">
        <ele>953.4</ele>
        <time>2021-07-11T10:11:58Z</time>
      </trkpt>
      <trkpt lat="45.73044" lon="6.52085">
        <ele>954</ele>
        <time>2021-07-11T10:12:02Z</time>
      </trkpt>
      <trkpt lat="45.73044" lon="6.52075">
        <ele>955.4</ele>
        <time>2021-07-11T10:12:06Z</time>
      </trkpt>
      <trkpt lat="45.73045" lon="6.52064">
        <ele>956</ele>
        <time>2021-07-11T10:12:10Z</time>
      </trkpt>
      <trkpt lat="45.73046" lon="6.52054">
        <ele>956</ele>
        <time>2021-07-11T10:12:14Z</time>
      </trkpt>
      <trkpt lat="45.73047" lon="6.52042">
        <ele>956.8</ele>
        <time>2021-07-11T10:12:18Z</time>
      </trkpt>
      <trkpt lat="45.73048" lon="6.52031">
        <ele>958.2</ele>
        <time>2021-07-11T10:12:22Z</time>
      </trkpt>
      <trkpt lat="45.73049" lon="6.5202">
        <ele>958.6</ele>
        <time>2021-07-11T10:12:26Z</time>
      </trkpt>
      <trkpt lat="45.73051" lon="6.52011">
        <ele>959</ele>
        <time>2021-07-11T10:12:30Z</time>
      </trkpt>
      <trkpt lat="45.73058" lon="6.52009">
        <ele>959</ele>
        <time>2021-07-11T10:12:34Z</time>
      </trkpt>
      <trkpt lat="45.73064" lon="6.52015">
        <ele>959.4</ele>
        <time>2021-07-11T10:12:38Z</time>
      </trkpt>
      <trkpt lat="45.73065" lon="6.52024">
        <ele>959.8</ele>
        <time>2021-07-11T10:12:42Z</time>
      </trkpt>
      <trkpt lat="45.73064" lon="6.52033">
        <ele>960.8</ele>
        <time>2021-07-11T10:12:46Z</time>
      </trkpt>
      <trkpt lat="45.73062" lon="6.52041">
        <ele>961.4</ele>
        <time>2021-07-11T10:12:50Z</time>
      </trkpt>
      <trkpt lat="45.73061" lon="6.5205">
        <ele>962</ele>
        <time>2021-07-11T10:12:54Z</time>
      </trkpt>
      <trkpt lat="45.73061" lon="6.52058">
        <ele>962.6</ele>
        <time>2021-07-11T10:12:58Z</time>
      </trkpt>
      <trkpt lat="45.73061" lon="6.52067">
        <ele>962.6</ele>
        <time>2021-07-11T10:13:02Z</time>
      </trkpt>
      <trkpt lat="45.73062" lon="6.52077">
        <ele>963.6</ele>
        <time>2021-07-11T10:13:06Z</time>
      </trkpt>
      <trkpt lat="45.73064" lon="6.52086">
        <ele>964.6</ele>
        <time>2021-07-11T10:13:10Z</time>
      </trkpt>
      <trkpt lat="45.73065" lon="6.52095">
        <ele>964.8</ele>
        <time>2021-07-11T10:13:14Z</time>
      </trkpt>
      <trkpt lat="45.73067" lon="6.52103">
        <ele>965</ele>
        <time>2021-07-11T10:13:18Z</time>
      </trkpt>
      <trkpt lat="45.73069" lon="6.52111">
        <ele>966.4</ele>
        <time>2021-07-11T10:13:22Z</time>
      </trkpt>
      <trkpt lat="45.73072" lon="6.5212">
        <ele>966.8</ele>
        <time>2021-07-11T10:13:26Z</time>
      </trkpt>
      <trkpt lat="45.73074" lon="6.52129">
        <ele>967</ele>
        <time>2021-07-11T10:13:30Z</time>
      </trkpt>
      <trkpt lat="45.73076" lon="6.52137">
        <ele>968</ele>
        <time>2021-07-11T10:13:34Z</time>
      </trkpt>
      <trkpt lat="45.73078" lon="6.52145">
        <ele>969</ele>
        <time>2021-07-11T10:13:38Z</time>
      </trkpt>
      <trkpt lat="45.7308" lon="6.52154">
        <ele>969.4</ele>
        <time>2021-07-11T10:13:42Z</time>
      </trkpt>
      <trkpt lat="45.7308" lon="6.52163">
        <ele>969.4</ele>
        <time>2021-07-11T10:13:46Z</time>
      </trkpt>
      <trkpt lat="45.73081" lon="6.52172">
        <ele>970.2</ele>
        <time>2021-07-11T10:13:50Z</time>
      </trkpt>
      <trkpt lat="45.73083" lon="6.52181">
        <ele>970.8</ele>
        <time>2021-07-11T10:13:54Z</time>
      </trkpt>
      <trkpt lat="45.73089" lon="6.52186">
        <ele>971.6</ele>
        <time>2021-07-11T10:13:58Z</time>
      </trkpt>
      <trkpt lat="45.73096" lon="6.52185">
        <ele>971.6</ele>
        <time>2021-07-11T10:14:02Z</time>
      </trkpt>
      <trkpt lat="45.731" lon="6.52176">
        <ele>972.4</ele>
        <time>2021-07-11T10:14:06Z</time>
      </trkpt>
      <trkpt lat="45.731" lon="6.52167">
        <ele>972.4</ele>
        <time>2021-07-11T10:14:10Z</time>
      </trkpt>
      <trkpt lat="45.731" lon="6.52157">
        <ele>973</ele>
        <time>2021-07-11T10:14:14Z</time>
      </trkpt>
      <trkpt lat="45.73099" lon="6.52148">
        <ele>973.6</ele>
        <time>2021-07-11T10:14:18Z</time>
      </trkpt>
      <trkpt lat="45.73099" lon="6.52137">
        <ele>974</ele>
        <time>2021-07-11T10:14:22Z</time>
      </trkpt>
      <trkpt lat="45.73099" lon="6.52128">
        <ele>974.4</ele>
        <time>2021-07-11T10:14:26Z</time>
      </trkpt>
      <trkpt lat="45.731" lon="6.52118">
        <ele>975.4</ele>
        <time>2021-07-11T10:14:30Z</time>
      </trkpt>
      <trkpt lat="45.731" lon="6.52109">
        <ele>975.8</ele>
        <time>2021-07-11T10:14:34Z</time>
      </trkpt>
      <trkpt lat="45.73102" lon="6.521">
        <ele>976.2</ele>
        <time>2021-07-11T10:14:38Z</time>
      </trkpt>
      <trkpt lat="45.73103" lon="6.52091">
        <ele>976.6</ele>
        <time>2021-07-11T10:14:42Z</time>
      </trkpt>
      <trkpt lat="45.73103" lon="6.52082">
        <ele>977.4</ele>
        <time>2021-07-11T10:14:46Z</time>
      </trkpt>
      <trkpt lat="45.73103" lon="6.52073">
        <ele>977.8</ele>
        <time>2021-07-11T10:14:50Z</time>
      </trkpt>
      <trkpt lat="45.73102" lon="6.52064">
        <ele>978.4</ele>
        <time>2021-07-11T10:14:54Z</time>
      </trkpt>
      <trkpt lat="45.73101" lon="6.52054">
        <ele>978.8</ele>
        <time>2021-07-11T10:14:58Z</time>
      </trkpt>
      <trkpt lat="45.73103" lon="6.52046">
        <ele>979.2</ele>
        <time>2021-07-11T10:15:02Z</time>
      </trkpt>
      <trkpt lat="45.73106" lon="6.52038">
        <ele>980.2</ele>
        <time>2021-07-11T10:15:06Z</time>
      </trkpt>
      <trkpt lat="45.73109" lon="6.52029">
        <ele>980.6</ele>
        <time>2021-07-11T10:15:10Z</time>
      </trkpt>
      <trkpt lat="45.7311" lon="6.5202">
        <ele>981.2</ele>
        <time>2021-07-11T10:15:14Z</time>
      </trkpt>
      <trkpt lat="45.73108" lon="6.5201">
        <ele>982.2</ele>
        <time>2021-07-11T10:15:18Z</time>
      </trkpt>
      <trkpt lat="45.73106" lon="6.52001">
        <ele>982.8</ele>
        <time>2021-07-11T10:15:22Z</time>
      </trkpt>
      <trkpt lat="45.73103" lon="6.51992">
        <ele>983.6</ele>
        <time>2021-07-11T10:15:26Z</time>
      </trkpt>
      <trkpt lat="45.73101" lon="6.51983">
        <ele>983.8</ele>
        <time>2021-07-11T10:15:30Z</time>
      </trkpt>
      <trkpt lat="45.73099" lon="6.51974">
        <ele>984.2</ele>
        <time>2021-07-11T10:15:34Z</time>
      </trkpt>
      <trkpt lat="45.731" lon="6.51964">
        <ele>984.8</ele>
        <time>2021-07-11T10:15:38Z</time>
      </trkpt>
      <trkpt lat="45.731" lon="6.51955">
        <ele>985.4</ele>
        <time>2021-07-11T10:15:42Z</time>
      </trkpt>
      <trkpt lat="45.731" lon="6.51945">
        <ele>986</ele>
        <time>2021-07-11T10:15:46Z</time>
      </trkpt>
      <trkpt lat="45.731" lon="6.51936">
        <ele>986.6</ele>
        <time>2021-07-11T10:15:50Z</time>
      </trkpt>
      <trkpt lat="45.73098" lon="6.51927">
        <ele>987.4</ele>
        <time>2021-07-11T10:15:54Z</time>
      </trkpt>
      <trkpt lat="45.73096" lon="6.51919">
        <ele>987.8</ele>
        <time>2021-07-11T10:15:58Z</time>
      </trkpt>
      <trkpt lat="45.73093" lon="6.51912">
        <ele>988.6</ele>
        <time>2021-07-11T10:16:02Z</time>
      </trkpt>
      <trkpt lat="45.73089" lon="6.51905">
        <ele>988.4</ele>
        <time>2021-07-11T10:16:06Z</time>
      </trkpt>
      <trkpt lat="45.73089" lon="6.51897">
        <ele>989.6</ele>
        <time>2021-07-11T10:16:10Z</time>
      </trkpt>
      <trkpt lat="45.73091" lon="6.5189">
        <ele>990</ele>
        <time>2021-07-11T10:16:14Z</time>
      </trkpt>
      <trkpt lat="45.73096" lon="6.51889">
        <ele>990.6</ele>
        <time>2021-07-11T10:16:18Z</time>
      </trkpt>
      <trkpt lat="45.73099" lon="6.51895">
        <ele>991.2</ele>
        <time>2021-07-11T10:16:22Z</time>
      </trkpt>
      <trkpt lat="45.73101" lon="6.51904">
        <ele>991.4</ele>
        <time>2021-07-11T10:16:26Z</time>
      </trkpt>
      <trkpt lat="45.73103" lon="6.51912">
        <ele>992</ele>
        <time>2021-07-11T10:16:30Z</time>
      </trkpt>
      <trkpt lat="45.73105" lon="6.51919">
        <ele>992.2</ele>
        <time>2021-07-11T10:16:34Z</time>
      </trkpt>
      <trkpt lat="45.73112" lon="6.51934">
        <ele>994.2</ele>
        <time>2021-07-11T10:17:06Z</time>
      </trkpt>
      <trkpt lat="45.73115" lon="6.51941">
        <ele>994.8</ele>
        <time>2021-07-11T10:17:10Z</time>
      </trkpt>
      <trkpt lat="45.73117" lon="6.51949">
        <ele>996.2</ele>
        <time>2021-07-11T10:17:14Z</time>
      </trkpt>
      <trkpt lat="45.73118" lon="6.51958">
        <ele>996.8</ele>
        <time>2021-07-11T10:17:18Z</time>
      </trkpt>
      <trkpt lat="45.73119" lon="6.51966">
        <ele>997.2</ele>
        <time>2021-07-11T10:17:22Z</time>
      </trkpt>
      <trkpt lat="45.73121" lon="6.51974">
        <ele>998.2</ele>
        <time>2021-07-11T10:17:26Z</time>
      </trkpt>
      <trkpt lat="45.73124" lon="6.51982">
        <ele>998.4</ele>
        <time>2021-07-11T10:17:30Z</time>
      </trkpt>
      <trkpt lat="45.73127" lon="6.5199">
        <ele>998.8</ele>
        <time>2021-07-11T10:17:34Z</time>
      </trkpt>
      <trkpt lat="45.73131" lon="6.51995">
        <ele>999.4</ele>
        <time>2021-07-11T10:17:38Z</time>
      </trkpt>
      <trkpt lat="45.73136" lon="6.52001">
        <ele>1000.2</ele>
        <time>2021-07-11T10:17:42Z</time>
      </trkpt>
      <trkpt lat="45.73141" lon="6.52006">
        <ele>1000.8</ele>
        <time>2021-07-11T10:17:46Z</time>
      </trkpt>
      <trkpt lat="45.73145" lon="6.52011">
        <ele>1001</ele>
        <time>2021-07-11T10:17:50Z</time>
      </trkpt>
      <trkpt lat="45.73149" lon="6.52018">
        <ele>1001.4</ele>
        <time>2021-07-11T10:17:54Z</time>
      </trkpt>
      <trkpt lat="45.73153" lon="6.52026">
        <ele>1002.4</ele>
        <time>2021-07-11T10:17:58Z</time>
      </trkpt>
      <trkpt lat="45.73154" lon="6.52035">
        <ele>1002.6</ele>
        <time>2021-07-11T10:18:02Z</time>
      </trkpt>
      <trkpt lat="45.73154" lon="6.52044">
        <ele>1004</ele>
        <time>2021-07-11T10:18:06Z</time>
      </trkpt>
      <trkpt lat="45.73153" lon="6.52053">
        <ele>1004.8</ele>
        <time>2021-07-11T10:18:10Z</time>
      </trkpt>
      <trkpt lat="45.73152" lon="6.52061">
        <ele>1005.4</ele>
        <time>2021-07-11T10:18:14Z</time>
      </trkpt>
      <trkpt lat="45.73152" lon="6.52066">
        <ele>1006.4</ele>
        <time>2021-07-11T10:18:18Z</time>
      </trkpt>
      <trkpt lat="45.73151" lon="6.52075">
        <ele>1006.8</ele>
        <time>2021-07-11T10:18:22Z</time>
      </trkpt>
      <trkpt lat="45.73151" lon="6.52084">
        <ele>1008</ele>
        <time>2021-07-11T10:18:26Z</time>
      </trkpt>
      <trkpt lat="45.73153" lon="6.52093">
        <ele>1008</ele>
        <time>2021-07-11T10:18:30Z</time>
      </trkpt>
      <trkpt lat="45.73155" lon="6.521">
        <ele>1008.2</ele>
        <time>2021-07-11T10:18:34Z</time>
      </trkpt>
      <trkpt lat="45.73158" lon="6.52107">
        <ele>1009.2</ele>
        <time>2021-07-11T10:18:38Z</time>
      </trkpt>
      <trkpt lat="45.73161" lon="6.52115">
        <ele>1009.6</ele>
        <time>2021-07-11T10:18:42Z</time>
      </trkpt>
      <trkpt lat="45.73163" lon="6.52123">
        <ele>1010.4</ele>
        <time>2021-07-11T10:18:46Z</time>
      </trkpt>
      <trkpt lat="45.73165" lon="6.5213">
        <ele>1010.8</ele>
        <time>2021-07-11T10:18:50Z</time>
      </trkpt>
      <trkpt lat="45.73167" lon="6.52139">
        <ele>1011.6</ele>
        <time>2021-07-11T10:18:54Z</time>
      </trkpt>
      <trkpt lat="45.7317" lon="6.52147">
        <ele>1012.2</ele>
        <time>2021-07-11T10:18:58Z</time>
      </trkpt>
      <trkpt lat="45.73171" lon="6.52156">
        <ele>1012.6</ele>
        <time>2021-07-11T10:19:02Z</time>
      </trkpt>
      <trkpt lat="45.73172" lon="6.52166">
        <ele>1013.2</ele>
        <time>2021-07-11T10:19:06Z</time>
      </trkpt>
      <trkpt lat="45.73172" lon="6.52175">
        <ele>1013.6</ele>
        <time>2021-07-11T10:19:10Z</time>
      </trkpt>
      <trkpt lat="45.73172" lon="6.52185">
        <ele>1013.6</ele>
        <time>2021-07-11T10:19:14Z</time>
      </trkpt>
      <trkpt lat="45.73173" lon="6.52195">
        <ele>1014.2</ele>
        <time>2021-07-11T10:19:18Z</time>
      </trkpt>
      <trkpt lat="45.73178" lon="6.52202">
        <ele>1014.6</ele>
        <time>2021-07-11T10:19:22Z</time>
      </trkpt>
      <trkpt lat="45.73192" lon="6.52207">
        <ele>1015.2</ele>
        <time>2021-07-11T10:20:08Z</time>
      </trkpt>
      <trkpt lat="45.73194" lon="6.52193">
        <ele>1015.6</ele>
        <time>2021-07-11T10:20:12Z</time>
      </trkpt>
      <trkpt lat="45.73194" lon="6.52183">
        <ele>1016.6</ele>
        <time>2021-07-11T10:20:16Z</time>
      </trkpt>
      <trkpt lat="45.73192" lon="6.52172">
        <ele>1016.8</ele>
        <time>2021-07-11T10:20:20Z</time>
      </trkpt>
      <trkpt lat="45.73192" lon="6.52162">
        <ele>1017.8</ele>
        <time>2021-07-11T10:20:24Z</time>
      </trkpt>
      <trkpt lat="45.73191" lon="6.52154">
        <ele>1018.8</ele>
        <time>2021-07-11T10:20:28Z</time>
      </trkpt>
      <trkpt lat="45.7319" lon="6.52145">
        <ele>1019.4</ele>
        <time>2021-07-11T10:20:32Z</time>
      </trkpt>
      <trkpt lat="45.73191" lon="6.52135">
        <ele>1019.8</ele>
        <time>2021-07-11T10:20:36Z</time>
      </trkpt>
      <trkpt lat="45.73192" lon="6.52127">
        <ele>1020.6</ele>
        <time>2021-07-11T10:20:40Z</time>
      </trkpt>
      <trkpt lat="45.7319" lon="6.5212">
        <ele>1021</ele>
        <time>2021-07-11T10:20:44Z</time>
      </trkpt>
      <trkpt lat="45.7319" lon="6.52111">
        <ele>1021.6</ele>
        <time>2021-07-11T10:20:48Z</time>
      </trkpt>
      <trkpt lat="45.73189" lon="6.52102">
        <ele>1022</ele>
        <time>2021-07-11T10:20:52Z</time>
      </trkpt>
      <trkpt lat="45.73189" lon="6.52092">
        <ele>1022.6</ele>
        <time>2021-07-11T10:20:56Z</time>
      </trkpt>
      <trkpt lat="45.73187" lon="6.52084">
        <ele>1023.4</ele>
        <time>2021-07-11T10:21:00Z</time>
      </trkpt>
      <trkpt lat="45.73185" lon="6.52076">
        <ele>1024</ele>
        <time>2021-07-11T10:21:04Z</time>
      </trkpt>
      <trkpt lat="45.73184" lon="6.52067">
        <ele>1024.8</ele>
        <time>2021-07-11T10:21:08Z</time>
      </trkpt>
      <trkpt lat="45.73185" lon="6.52059">
        <ele>1025.6</ele>
        <time>2021-07-11T10:21:12Z</time>
      </trkpt>
      <trkpt lat="45.73186" lon="6.52051">
        <ele>1025.8</ele>
        <time>2021-07-11T10:21:16Z</time>
      </trkpt>
      <trkpt lat="45.73189" lon="6.52047">
        <ele>1027.2</ele>
        <time>2021-07-11T10:21:20Z</time>
      </trkpt>
      <trkpt lat="45.73194" lon="6.52044">
        <ele>1027.4</ele>
        <time>2021-07-11T10:21:24Z</time>
      </trkpt>
      <trkpt lat="45.73196" lon="6.52043">
        <ele>1027.8</ele>
        <time>2021-07-11T10:21:28Z</time>
      </trkpt>
      <trkpt lat="45.73198" lon="6.52051">
        <ele>1028.6</ele>
        <time>2021-07-11T10:21:32Z</time>
      </trkpt>
      <trkpt lat="45.73197" lon="6.52059">
        <ele>1030</ele>
        <time>2021-07-11T10:21:36Z</time>
      </trkpt>
      <trkpt lat="45.73196" lon="6.52067">
        <ele>1030.2</ele>
        <time>2021-07-11T10:21:40Z</time>
      </trkpt>
      <trkpt lat="45.73196" lon="6.52075">
        <ele>1030.8</ele>
        <time>2021-07-11T10:21:44Z</time>
      </trkpt>
      <trkpt lat="45.73197" lon="6.52083">
        <ele>1031</ele>
        <time>2021-07-11T10:21:48Z</time>
      </trkpt>
      <trkpt lat="45.73199" lon="6.52092">
        <ele>1031</ele>
        <time>2021-07-11T10:21:52Z</time>
      </trkpt>
      <trkpt lat="45.73201" lon="6.52103">
        <ele>1031.6</ele>
        <time>2021-07-11T10:21:56Z</time>
      </trkpt>
      <trkpt lat="45.73203" lon="6.52113">
        <ele>1032.4</ele>
        <time>2021-07-11T10:22:00Z</time>
      </trkpt>
      <trkpt lat="45.73204" lon="6.52124">
        <ele>1033.2</ele>
        <time>2021-07-11T10:22:04Z</time>
      </trkpt>
      <trkpt lat="45.73206" lon="6.52133">
        <ele>1033</ele>
        <time>2021-07-11T10:22:08Z</time>
      </trkpt>
      <trkpt lat="45.73208" lon="6.52142">
        <ele>1034</ele>
        <time>2021-07-11T10:22:12Z</time>
      </trkpt>
      <trkpt lat="45.73209" lon="6.52149">
        <ele>1034.4</ele>
        <time>2021-07-11T10:22:16Z</time>
      </trkpt>
      <trkpt lat="45.73212" lon="6.52156">
        <ele>1035.8</ele>
        <time>2021-07-11T10:22:20Z</time>
      </trkpt>
      <trkpt lat="45.73213" lon="6.52164">
        <ele>1035.6</ele>
        <time>2021-07-11T10:22:24Z</time>
      </trkpt>
      <trkpt lat="45.73215" lon="6.52174">
        <ele>1036.4</ele>
        <time>2021-07-11T10:22:28Z</time>
      </trkpt>
      <trkpt lat="45.73217" lon="6.52182">
        <ele>1037</ele>
        <time>2021-07-11T10:22:32Z</time>
      </trkpt>
      <trkpt lat="45.73219" lon="6.52189">
        <ele>1037.8</ele>
        <time>2021-07-11T10:22:36Z</time>
      </trkpt>
      <trkpt lat="45.73221" lon="6.52197">
        <ele>1038.4</ele>
        <time>2021-07-11T10:22:40Z</time>
      </trkpt>
      <trkpt lat="45.73223" lon="6.52206">
        <ele>1039</ele>
        <time>2021-07-11T10:22:44Z</time>
      </trkpt>
      <trkpt lat="45.73226" lon="6.52214">
        <ele>1039.6</ele>
        <time>2021-07-11T10:22:48Z</time>
      </trkpt>
      <trkpt lat="45.73229" lon="6.52221">
        <ele>1039.6</ele>
        <time>2021-07-11T10:22:52Z</time>
      </trkpt>
      <trkpt lat="45.73233" lon="6.52229">
        <ele>1040.2</ele>
        <time>2021-07-11T10:22:56Z</time>
      </trkpt>
      <trkpt lat="45.73237" lon="6.52236">
        <ele>1040.4</ele>
        <time>2021-07-11T10:23:00Z</time>
      </trkpt>
      <trkpt lat="45.7324" lon="6.52244">
        <ele>1041</ele>
        <time>2021-07-11T10:23:04Z</time>
      </trkpt>
      <trkpt lat="45.73244" lon="6.52251">
        <ele>1041.4</ele>
        <time>2021-07-11T10:23:08Z</time>
      </trkpt>
      <trkpt lat="45.73248" lon="6.52258">
        <ele>1042</ele>
        <time>2021-07-11T10:23:12Z</time>
      </trkpt>
      <trkpt lat="45.7325" lon="6.52266">
        <ele>1042.4</ele>
        <time>2021-07-11T10:23:16Z</time>
      </trkpt>
      <trkpt lat="45.73254" lon="6.52273">
        <ele>1043</ele>
        <time>2021-07-11T10:23:20Z</time>
      </trkpt>
      <trkpt lat="45.73257" lon="6.5228">
        <ele>1043.6</ele>
        <time>2021-07-11T10:23:24Z</time>
      </trkpt>
      <trkpt lat="45.7326" lon="6.52288">
        <ele>1044.2</ele>
        <time>2021-07-11T10:23:28Z</time>
      </trkpt>
      <trkpt lat="45.73263" lon="6.52295">
        <ele>1044.8</ele>
        <time>2021-07-11T10:23:32Z</time>
      </trkpt>
      <trkpt lat="45.73266" lon="6.52303">
        <ele>1045.4</ele>
        <time>2021-07-11T10:23:36Z</time>
      </trkpt>
      <trkpt lat="45.73269" lon="6.52311">
        <ele>1045.6</ele>
        <time>2021-07-11T10:23:40Z</time>
      </trkpt>
      <trkpt lat="45.73273" lon="6.52319">
        <ele>1046.8</ele>
        <time>2021-07-11T10:23:44Z</time>
      </trkpt>
      <trkpt lat="45.73276" lon="6.52328">
        <ele>1047</ele>
        <time>2021-07-11T10:23:48Z</time>
      </trkpt>
      <trkpt lat="45.73279" lon="6.52336">
        <ele>1047.6</ele>
        <time>2021-07-11T10:23:52Z</time>
      </trkpt>
      <trkpt lat="45.73279" lon="6.52344">
        <ele>1048.8</ele>
        <time>2021-07-11T10:23:56Z</time>
      </trkpt>
      <trkpt lat="45.7328" lon="6.52352">
        <ele>1049.2</ele>
        <time>2021-07-11T10:24:00Z</time>
      </trkpt>
      <trkpt lat="45.73282" lon="6.5236">
        <ele>1049.4</ele>
        <time>2021-07-11T10:24:04Z</time>
      </trkpt>
      <trkpt lat="45.73283" lon="6.52366">
        <ele>1050.6</ele>
        <time>2021-07-11T10:24:08Z</time>
      </trkpt>
      <trkpt lat="45.73286" lon="6.52374">
        <ele>1050.6</ele>
        <time>2021-07-11T10:24:12Z</time>
      </trkpt>
      <trkpt lat="45.73291" lon="6.5238">
        <ele>1051.6</ele>
        <time>2021-07-11T10:24:16Z</time>
      </trkpt>
      <trkpt lat="45.73295" lon="6.52386">
        <ele>1052.2</ele>
        <time>2021-07-11T10:24:20Z</time>
      </trkpt>
      <trkpt lat="45.73301" lon="6.5239">
        <ele>1052.6</ele>
        <time>2021-07-11T10:24:24Z</time>
      </trkpt>
      <trkpt lat="45.73306" lon="6.52392">
        <ele>1053.6</ele>
        <time>2021-07-11T10:24:28Z</time>
      </trkpt>
      <trkpt lat="45.73312" lon="6.52392">
        <ele>1053.6</ele>
        <time>2021-07-11T10:24:32Z</time>
      </trkpt>
      <trkpt lat="45.73318" lon="6.52393">
        <ele>1054.6</ele>
        <time>2021-07-11T10:24:36Z</time>
      </trkpt>
      <trkpt lat="45.73359" lon="6.52394">
        <ele>1055</ele>
        <time>2021-07-11T11:16:31Z</time>
      </trkpt>
      <trkpt lat="45.73362" lon="6.52401">
        <ele>1055.8</ele>
        <time>2021-07-11T11:16:35Z</time>
      </trkpt>
      <trkpt lat="45.73364" lon="6.52407">
        <ele>1055.8</ele>
        <time>2021-07-11T11:16:39Z</time>
      </trkpt>
      <trkpt lat="45.73368" lon="6.52414">
        <ele>1057</ele>
        <time>2021-07-11T11:16:43Z</time>
      </trkpt>
      <trkpt lat="45.73371" lon="6.52422">
        <ele>1057.6</ele>
        <time>2021-07-11T11:16:47Z</time>
      </trkpt>
      <trkpt lat="45.73375" lon="6.52428">
        <ele>1058</ele>
        <time>2021-07-11T11:16:51Z</time>
      </trkpt>
      <trkpt lat="45.73378" lon="6.52435">
        <ele>1058</ele>
        <time>2021-07-11T11:16:55Z</time>
      </trkpt>
      <trkpt lat="45.73395" lon="6.52463">
        <ele>1058.4</ele>
        <time>2021-07-11T11:19:32Z</time>
      </trkpt>
      <trkpt lat="45.73397" lon="6.5247">
        <ele>1058.2</ele>
        <time>2021-07-11T11:19:36Z</time>
      </trkpt>
      <trkpt lat="45.73401" lon="6.52477">
        <ele>1059.2</ele>
        <time>2021-07-11T11:19:40Z</time>
      </trkpt>
      <trkpt lat="45.73406" lon="6.52484">
        <ele>1059.6</ele>
        <time>2021-07-11T11:19:44Z</time>
      </trkpt>
      <trkpt lat="45.73409" lon="6.52493">
        <ele>1059.2</ele>
        <time>2021-07-11T11:19:48Z</time>
      </trkpt>
      <trkpt lat="45.73414" lon="6.52504">
        <ele>1059.4</ele>
        <time>2021-07-11T11:19:52Z</time>
      </trkpt>
      <trkpt lat="45.73415" lon="6.52517">
        <ele>1059.8</ele>
        <time>2021-07-11T11:19:56Z</time>
      </trkpt>
      <trkpt lat="45.73415" lon="6.52533">
        <ele>1059.4</ele>
        <time>2021-07-11T11:20:00Z</time>
      </trkpt>
      <trkpt lat="45.73418" lon="6.52551">
        <ele>1059.4</ele>
        <time>2021-07-11T11:20:04Z</time>
      </trkpt>
      <trkpt lat="45.73418" lon="6.52568">
        <ele>1058.8</ele>
        <time>2021-07-11T11:20:08Z</time>
      </trkpt>
      <trkpt lat="45.7343" lon="6.5259">
        <ele>1058.2</ele>
        <time>2021-07-11T11:20:12Z</time>
      </trkpt>
      <trkpt lat="45.73449" lon="6.52608">
        <ele>1056.6</ele>
        <time>2021-07-11T11:20:16Z</time>
      </trkpt>
      <trkpt lat="45.73463" lon="6.5262">
        <ele>1058.2</ele>
        <time>2021-07-11T11:20:20Z</time>
      </trkpt>
      <trkpt lat="45.73472" lon="6.52632">
        <ele>1058.4</ele>
        <time>2021-07-11T11:20:24Z</time>
      </trkpt>
      <trkpt lat="45.73477" lon="6.52643">
        <ele>1059.8</ele>
        <time>2021-07-11T11:20:28Z</time>
      </trkpt>
      <trkpt lat="45.73481" lon="6.52654">
        <ele>1060.4</ele>
        <time>2021-07-11T11:20:32Z</time>
      </trkpt>
      <trkpt lat="45.73485" lon="6.52664">
        <ele>1061.2</ele>
        <time>2021-07-11T11:20:36Z</time>
      </trkpt>
      <trkpt lat="45.73489" lon="6.52674">
        <ele>1061.8</ele>
        <time>2021-07-11T11:20:40Z</time>
      </trkpt>
      <trkpt lat="45.73493" lon="6.52685">
        <ele>1062</ele>
        <time>2021-07-11T11:20:44Z</time>
      </trkpt>
      <trkpt lat="45.73496" lon="6.52695">
        <ele>1062.8</ele>
        <time>2021-07-11T11:20:48Z</time>
      </trkpt>
      <trkpt lat="45.73502" lon="6.52705">
        <ele>1063.6</ele>
        <time>2021-07-11T11:20:52Z</time>
      </trkpt>
      <trkpt lat="45.73507" lon="6.52714">
        <ele>1064.2</ele>
        <time>2021-07-11T11:20:56Z</time>
      </trkpt>
      <trkpt lat="45.73511" lon="6.52723">
        <ele>1065</ele>
        <time>2021-07-11T11:21:00Z</time>
      </trkpt>
      <trkpt lat="45.73516" lon="6.52734">
        <ele>1065.4</ele>
        <time>2021-07-11T11:21:04Z</time>
      </trkpt>
      <trkpt lat="45.7352" lon="6.52745">
        <ele>1066</ele>
        <time>2021-07-11T11:21:08Z</time>
      </trkpt>
      <trkpt lat="45.73523" lon="6.52756">
        <ele>1066.4</ele>
        <time>2021-07-11T11:21:12Z</time>
      </trkpt>
      <trkpt lat="45.73526" lon="6.52766">
        <ele>1067.4</ele>
        <time>2021-07-11T11:21:16Z</time>
      </trkpt>
      <trkpt lat="45.7353" lon="6.52778">
        <ele>1067.4</ele>
        <time>2021-07-11T11:21:20Z</time>
      </trkpt>
      <trkpt lat="45.73532" lon="6.52789">
        <ele>1068.4</ele>
        <time>2021-07-11T11:21:24Z</time>
      </trkpt>
      <trkpt lat="45.73536" lon="6.52799">
        <ele>1069</ele>
        <time>2021-07-11T11:21:28Z</time>
      </trkpt>
      <trkpt lat="45.73541" lon="6.52808">
        <ele>1069.6</ele>
        <time>2021-07-11T11:21:32Z</time>
      </trkpt>
      <trkpt lat="45.73545" lon="6.52818">
        <ele>1070.2</ele>
        <time>2021-07-11T11:21:36Z</time>
      </trkpt>
      <trkpt lat="45.73551" lon="6.52825">
        <ele>1071.4</ele>
        <time>2021-07-11T11:21:40Z</time>
      </trkpt>
      <trkpt lat="45.73555" lon="6.52832">
        <ele>1071.4</ele>
        <time>2021-07-11T11:21:44Z</time>
      </trkpt>
      <trkpt lat="45.7356" lon="6.52839">
        <ele>1072.2</ele>
        <time>2021-07-11T11:21:48Z</time>
      </trkpt>
      <trkpt lat="45.73565" lon="6.52846">
        <ele>1072.8</ele>
        <time>2021-07-11T11:21:52Z</time>
      </trkpt>
      <trkpt lat="45.73569" lon="6.52853">
        <ele>1073.8</ele>
        <time>2021-07-11T11:21:56Z</time>
      </trkpt>
      <trkpt lat="45.73574" lon="6.5286">
        <ele>1074</ele>
        <time>2021-07-11T11:22:00Z</time>
      </trkpt>
      <trkpt lat="45.7358" lon="6.52867">
        <ele>1074.4</ele>
        <time>2021-07-11T11:22:04Z</time>
      </trkpt>
      <trkpt lat="45.73585" lon="6.52874">
        <ele>1075</ele>
        <time>2021-07-11T11:22:08Z</time>
      </trkpt>
      <trkpt lat="45.73591" lon="6.5288">
        <ele>1075.6</ele>
        <time>2021-07-11T11:22:12Z</time>
      </trkpt>
      <trkpt lat="45.73598" lon="6.52885">
        <ele>1076.4</ele>
        <time>2021-07-11T11:22:16Z</time>
      </trkpt>
      <trkpt lat="45.73605" lon="6.5289">
        <ele>1076.8</ele>
        <time>2021-07-11T11:22:20Z</time>
      </trkpt>
      <trkpt lat="45.73612" lon="6.52895">
        <ele>1077.6</ele>
        <time>2021-07-11T11:22:24Z</time>
      </trkpt>
      <trkpt lat="45.73617" lon="6.52902">
        <ele>1078</ele>
        <time>2021-07-11T11:22:28Z</time>
      </trkpt>
      <trkpt lat="45.73621" lon="6.5291">
        <ele>1078.6</ele>
        <time>2021-07-11T11:22:32Z</time>
      </trkpt>
      <trkpt lat="45.73624" lon="6.52919">
        <ele>1078.8</ele>
        <time>2021-07-11T11:22:36Z</time>
      </trkpt>
      <trkpt lat="45.73626" lon="6.5293">
        <ele>1079.6</ele>
        <time>2021-07-11T11:22:40Z</time>
      </trkpt>
      <trkpt lat="45.73628" lon="6.52943">
        <ele>1079.2</ele>
        <time>2021-07-11T11:22:44Z</time>
      </trkpt>
      <trkpt lat="45.73628" lon="6.52957">
        <ele>1079.6</ele>
        <time>2021-07-11T11:22:48Z</time>
      </trkpt>
      <trkpt lat="45.73624" lon="6.5297">
        <ele>1080.2</ele>
        <time>2021-07-11T11:22:52Z</time>
      </trkpt>
      <trkpt lat="45.73616" lon="6.52978">
        <ele>1080.6</ele>
        <time>2021-07-11T11:22:56Z</time>
      </trkpt>
      <trkpt lat="45.73609" lon="6.52982">
        <ele>1081.4</ele>
        <time>2021-07-11T11:23:00Z</time>
      </trkpt>
      <trkpt lat="45.73602" lon="6.52986">
        <ele>1082</ele>
        <time>2021-07-11T11:23:04Z</time>
      </trkpt>
      <trkpt lat="45.73595" lon="6.52992">
        <ele>1082.4</ele>
        <time>2021-07-11T11:23:08Z</time>
      </trkpt>
      <trkpt lat="45.73589" lon="6.53002">
        <ele>1082.6</ele>
        <time>2021-07-11T11:23:12Z</time>
      </trkpt>
      <trkpt lat="45.73582" lon="6.53009">
        <ele>1083.6</ele>
        <time>2021-07-11T11:23:16Z</time>
      </trkpt>
      <trkpt lat="45.73576" lon="6.53018">
        <ele>1084.4</ele>
        <time>2021-07-11T11:23:20Z</time>
      </trkpt>
      <trkpt lat="45.7357" lon="6.53027">
        <ele>1085</ele>
        <time>2021-07-11T11:23:24Z</time>
      </trkpt>
      <trkpt lat="45.73565" lon="6.53036">
        <ele>1085.4</ele>
        <time>2021-07-11T11:23:28Z</time>
      </trkpt>
      <trkpt lat="45.73559" lon="6.53044">
        <ele>1085.8</ele>
        <time>2021-07-11T11:23:32Z</time>
      </trkpt>
      <trkpt lat="45.73556" lon="6.53054">
        <ele>1086.2</ele>
        <time>2021-07-11T11:23:36Z</time>
      </trkpt>
      <trkpt lat="45.73552" lon="6.53064">
        <ele>1086.4</ele>
        <time>2021-07-11T11:23:40Z</time>
      </trkpt>
      <trkpt lat="45.73551" lon="6.53076">
        <ele>1087.6</ele>
        <time>2021-07-11T11:23:44Z</time>
      </trkpt>
      <trkpt lat="45.73551" lon="6.53087">
        <ele>1087.8</ele>
        <time>2021-07-11T11:23:48Z</time>
      </trkpt>
      <trkpt lat="45.73552" lon="6.53098">
        <ele>1088.2</ele>
        <time>2021-07-11T11:23:52Z</time>
      </trkpt>
      <trkpt lat="45.73552" lon="6.53109">
        <ele>1088.8</ele>
        <time>2021-07-11T11:23:56Z</time>
      </trkpt>
      <trkpt lat="45.73554" lon="6.5312">
        <ele>1089.8</ele>
        <time>2021-07-11T11:24:00Z</time>
      </trkpt>
      <trkpt lat="45.73555" lon="6.53131">
        <ele>1090.4</ele>
        <time>2021-07-11T11:24:04Z</time>
      </trkpt>
      <trkpt lat="45.7356" lon="6.5314">
        <ele>1091</ele>
        <time>2021-07-11T11:24:08Z</time>
      </trkpt>
      <trkpt lat="45.73566" lon="6.53143">
        <ele>1091.2</ele>
        <time>2021-07-11T11:24:12Z</time>
      </trkpt>
      <trkpt lat="45.73572" lon="6.53137">
        <ele>1091.4</ele>
        <time>2021-07-11T11:24:16Z</time>
      </trkpt>
      <trkpt lat="45.73572" lon="6.53125">
        <ele>1092</ele>
        <time>2021-07-11T11:24:20Z</time>
      </trkpt>
      <trkpt lat="45.7357" lon="6.53114">
        <ele>1092.8</ele>
        <time>2021-07-11T11:24:24Z</time>
      </trkpt>
      <trkpt lat="45.73568" lon="6.53104">
        <ele>1093.6</ele>
        <time>2021-07-11T11:24:28Z</time>
      </trkpt>
      <trkpt lat="45.73566" lon="6.53092">
        <ele>1093.6</ele>
        <time>2021-07-11T11:24:32Z</time>
      </trkpt>
      <trkpt lat="45.73567" lon="6.53081">
        <ele>1094.2</ele>
        <time>2021-07-11T11:24:36Z</time>
      </trkpt>
      <trkpt lat="45.7357" lon="6.53069">
        <ele>1094.6</ele>
        <time>2021-07-11T11:24:40Z</time>
      </trkpt>
      <trkpt lat="45.73575" lon="6.53062">
        <ele>1095.6</ele>
        <time>2021-07-11T11:24:44Z</time>
      </trkpt>
      <trkpt lat="45.7358" lon="6.53056">
        <ele>1096.2</ele>
        <time>2021-07-11T11:24:48Z</time>
      </trkpt>
      <trkpt lat="45.73587" lon="6.53053">
        <ele>1097</ele>
        <time>2021-07-11T11:24:52Z</time>
      </trkpt>
      <trkpt lat="45.73594" lon="6.53052">
        <ele>1098</ele>
        <time>2021-07-11T11:24:56Z</time>
      </trkpt>
      <trkpt lat="45.73601" lon="6.53049">
        <ele>1098.4</ele>
        <time>2021-07-11T11:25:00Z</time>
      </trkpt>
      <trkpt lat="45.73607" lon="6.53046">
        <ele>1099.2</ele>
        <time>2021-07-11T11:25:04Z</time>
      </trkpt>
      <trkpt lat="45.73613" lon="6.53041">
        <ele>1100</ele>
        <time>2021-07-11T11:25:08Z</time>
      </trkpt>
      <trkpt lat="45.73619" lon="6.53036">
        <ele>1100.2</ele>
        <time>2021-07-11T11:25:12Z</time>
      </trkpt>
      <trkpt lat="45.73626" lon="6.53033">
        <ele>1101.2</ele>
        <time>2021-07-11T11:25:16Z</time>
      </trkpt>
      <trkpt lat="45.73632" lon="6.53033">
        <ele>1101.8</ele>
        <time>2021-07-11T11:25:20Z</time>
      </trkpt>
      <trkpt lat="45.73638" lon="6.53034">
        <ele>1102.8</ele>
        <time>2021-07-11T11:25:24Z</time>
      </trkpt>
      <trkpt lat="45.73644" lon="6.53034">
        <ele>1103.4</ele>
        <time>2021-07-11T11:25:28Z</time>
      </trkpt>
      <trkpt lat="45.73651" lon="6.53035">
        <ele>1104.2</ele>
        <time>2021-07-11T11:25:32Z</time>
      </trkpt>
      <trkpt lat="45.73658" lon="6.53035">
        <ele>1103.8</ele>
        <time>2021-07-11T11:25:36Z</time>
      </trkpt>
      <trkpt lat="45.73664" lon="6.53034">
        <ele>1104.4</ele>
        <time>2021-07-11T11:25:40Z</time>
      </trkpt>
      <trkpt lat="45.73671" lon="6.53032">
        <ele>1105.6</ele>
        <time>2021-07-11T11:25:44Z</time>
      </trkpt>
      <trkpt lat="45.73676" lon="6.53027">
        <ele>1105.8</ele>
        <time>2021-07-11T11:25:48Z</time>
      </trkpt>
      <trkpt lat="45.73681" lon="6.53023">
        <ele>1106.4</ele>
        <time>2021-07-11T11:25:52Z</time>
      </trkpt>
      <trkpt lat="45.73685" lon="6.53016">
        <ele>1107.6</ele>
        <time>2021-07-11T11:25:56Z</time>
      </trkpt>
      <trkpt lat="45.73688" lon="6.53008">
        <ele>1108.4</ele>
        <time>2021-07-11T11:26:00Z</time>
      </trkpt>
      <trkpt lat="45.7369" lon="6.53">
        <ele>1108.8</ele>
        <time>2021-07-11T11:26:04Z</time>
      </trkpt>
      <trkpt lat="45.7369" lon="6.52991">
        <ele>1109.2</ele>
        <time>2021-07-11T11:26:08Z</time>
      </trkpt>
      <trkpt lat="45.7369" lon="6.52983">
        <ele>1110.6</ele>
        <time>2021-07-11T11:26:12Z</time>
      </trkpt>
      <trkpt lat="45.73691" lon="6.52974">
        <ele>1111</ele>
        <time>2021-07-11T11:26:16Z</time>
      </trkpt>
      <trkpt lat="45.73692" lon="6.52966">
        <ele>1112</ele>
        <time>2021-07-11T11:26:20Z</time>
      </trkpt>
      <trkpt lat="45.73695" lon="6.52959">
        <ele>1112.4</ele>
        <time>2021-07-11T11:26:24Z</time>
      </trkpt>
      <trkpt lat="45.73696" lon="6.52951">
        <ele>1113.2</ele>
        <time>2021-07-11T11:26:28Z</time>
      </trkpt>
      <trkpt lat="45.737" lon="6.52945">
        <ele>1114</ele>
        <time>2021-07-11T11:26:32Z</time>
      </trkpt>
      <trkpt lat="45.73704" lon="6.52941">
        <ele>1114</ele>
        <time>2021-07-11T11:26:36Z</time>
      </trkpt>
      <trkpt lat="45.73707" lon="6.52935">
        <ele>1115.2</ele>
        <time>2021-07-11T11:26:40Z</time>
      </trkpt>
      <trkpt lat="45.73711" lon="6.52932">
        <ele>1116.2</ele>
        <time>2021-07-11T11:26:44Z</time>
      </trkpt>
      <trkpt lat="45.73716" lon="6.52928">
        <ele>1116.8</ele>
        <time>2021-07-11T11:26:48Z</time>
      </trkpt>
      <trkpt lat="45.7372" lon="6.52924">
        <ele>1117.4</ele>
        <time>2021-07-11T11:26:52Z</time>
      </trkpt>
      <trkpt lat="45.73718" lon="6.52912">
        <ele>1118</ele>
        <time>2021-07-11T11:26:56Z</time>
      </trkpt>
      <trkpt lat="45.73718" lon="6.52905">
        <ele>1118.8</ele>
        <time>2021-07-11T11:27:00Z</time>
      </trkpt>
      <trkpt lat="45.73719" lon="6.529">
        <ele>1119</ele>
        <time>2021-07-11T11:27:04Z</time>
      </trkpt>
      <trkpt lat="45.73719" lon="6.52892">
        <ele>1120.2</ele>
        <time>2021-07-11T11:27:08Z</time>
      </trkpt>
      <trkpt lat="45.7372" lon="6.52884">
        <ele>1120.2</ele>
        <time>2021-07-11T11:27:12Z</time>
      </trkpt>
      <trkpt lat="45.7372" lon="6.52875">
        <ele>1121.4</ele>
        <time>2021-07-11T11:27:16Z</time>
      </trkpt>
      <trkpt lat="45.73719" lon="6.52867">
        <ele>1122</ele>
        <time>2021-07-11T11:27:20Z</time>
      </trkpt>
      <trkpt lat="45.73717" lon="6.52858">
        <ele>1122.4</ele>
        <time>2021-07-11T11:27:24Z</time>
      </trkpt>
      <trkpt lat="45.73715" lon="6.5285">
        <ele>1123</ele>
        <time>2021-07-11T11:27:28Z</time>
      </trkpt>
      <trkpt lat="45.73715" lon="6.52841">
        <ele>1123.4</ele>
        <time>2021-07-11T11:27:32Z</time>
      </trkpt>
      <trkpt lat="45.7371" lon="6.52832">
        <ele>1124.4</ele>
        <time>2021-07-11T11:27:36Z</time>
      </trkpt>
      <trkpt lat="45.73706" lon="6.52824">
        <ele>1124.6</ele>
        <time>2021-07-11T11:27:40Z</time>
      </trkpt>
      <trkpt lat="45.73701" lon="6.52817">
        <ele>1125.2</ele>
        <time>2021-07-11T11:27:44Z</time>
      </trkpt>
      <trkpt lat="45.73696" lon="6.5281">
        <ele>1127.4</ele>
        <time>2021-07-11T11:27:48Z</time>
      </trkpt>
      <trkpt lat="45.73691" lon="6.52803">
        <ele>1127.4</ele>
        <time>2021-07-11T11:27:52Z</time>
      </trkpt>
      <trkpt lat="45.73687" lon="6.52795">
        <ele>1127.6</ele>
        <time>2021-07-11T11:27:56Z</time>
      </trkpt>
      <trkpt lat="45.73682" lon="6.52787">
        <ele>1127.6</ele>
        <time>2021-07-11T11:28:00Z</time>
      </trkpt>
      <trkpt lat="45.73678" lon="6.5278">
        <ele>1128.8</ele>
        <time>2021-07-11T11:28:04Z</time>
      </trkpt>
      <trkpt lat="45.73673" lon="6.52774">
        <ele>1129.2</ele>
        <time>2021-07-11T11:28:08Z</time>
      </trkpt>
      <trkpt lat="45.73668" lon="6.52768">
        <ele>1129.6</ele>
        <time>2021-07-11T11:28:12Z</time>
      </trkpt>
      <trkpt lat="45.73663" lon="6.52763">
        <ele>1130.2</ele>
        <time>2021-07-11T11:28:16Z</time>
      </trkpt>
      <trkpt lat="45.7366" lon="6.52757">
        <ele>1130.8</ele>
        <time>2021-07-11T11:28:20Z</time>
      </trkpt>
      <trkpt lat="45.73656" lon="6.5275">
        <ele>1131.6</ele>
        <time>2021-07-11T11:28:24Z</time>
      </trkpt>
      <trkpt lat="45.73653" lon="6.52743">
        <ele>1132.4</ele>
        <time>2021-07-11T11:28:28Z</time>
      </trkpt>
      <trkpt lat="45.73649" lon="6.52735">
        <ele>1132.8</ele>
        <time>2021-07-11T11:28:32Z</time>
      </trkpt>
      <trkpt lat="45.73647" lon="6.52728">
        <ele>1133.4</ele>
        <time>2021-07-11T11:28:36Z</time>
      </trkpt>
      <trkpt lat="45.73646" lon="6.52719">
        <ele>1133.8</ele>
        <time>2021-07-11T11:28:40Z</time>
      </trkpt>
      <trkpt lat="45.73645" lon="6.5271">
        <ele>1134.8</ele>
        <time>2021-07-11T11:28:44Z</time>
      </trkpt>
      <trkpt lat="45.73645" lon="6.52701">
        <ele>1136.2</ele>
        <time>2021-07-11T11:28:48Z</time>
      </trkpt>
      <trkpt lat="45.73645" lon="6.52692">
        <ele>1136</ele>
        <time>2021-07-11T11:28:52Z</time>
      </trkpt>
      <trkpt lat="45.73644" lon="6.52682">
        <ele>1136.8</ele>
        <time>2021-07-11T11:28:56Z</time>
      </trkpt>
      <trkpt lat="45.73645" lon="6.52672">
        <ele>1137.2</ele>
        <time>2021-07-11T11:29:00Z</time>
      </trkpt>
      <trkpt lat="45.73645" lon="6.52662">
        <ele>1138</ele>
        <time>2021-07-11T11:29:04Z</time>
      </trkpt>
      <trkpt lat="45.73646" lon="6.52651">
        <ele>1138.2</ele>
        <time>2021-07-11T11:29:08Z</time>
      </trkpt>
      <trkpt lat="45.73646" lon="6.5264">
        <ele>1137.8</ele>
        <time>2021-07-11T11:29:12Z</time>
      </trkpt>
      <trkpt lat="45.73645" lon="6.52628">
        <ele>1139</ele>
        <time>2021-07-11T11:29:16Z</time>
      </trkpt>
      <trkpt lat="45.73643" lon="6.52616">
        <ele>1139</ele>
        <time>2021-07-11T11:29:20Z</time>
      </trkpt>
      <trkpt lat="45.73642" lon="6.52604">
        <ele>1139</ele>
        <time>2021-07-11T11:29:24Z</time>
      </trkpt>
      <trkpt lat="45.73644" lon="6.52594">
        <ele>1139.8</ele>
        <time>2021-07-11T11:29:28Z</time>
      </trkpt>
      <trkpt lat="45.73647" lon="6.52584">
        <ele>1139.6</ele>
        <time>2021-07-11T11:29:32Z</time>
      </trkpt>
      <trkpt lat="45.73649" lon="6.52574">
        <ele>1140.4</ele>
        <time>2021-07-11T11:29:36Z</time>
      </trkpt>
      <trkpt lat="45.73651" lon="6.52565">
        <ele>1141</ele>
        <time>2021-07-11T11:29:40Z</time>
      </trkpt>
      <trkpt lat="45.73652" lon="6.52556">
        <ele>1141.4</ele>
        <time>2021-07-11T11:29:44Z</time>
      </trkpt>
      <trkpt lat="45.73653" lon="6.52548">
        <ele>1141.6</ele>
        <time>2021-07-11T11:29:48Z</time>
      </trkpt>
      <trkpt lat="45.73654" lon="6.52539">
        <ele>1142.4</ele>
        <time>2021-07-11T11:29:52Z</time>
      </trkpt>
      <trkpt lat="45.73654" lon="6.5253">
        <ele>1143</ele>
        <time>2021-07-11T11:29:56Z</time>
      </trkpt>
      <trkpt lat="45.73654" lon="6.52521">
        <ele>1143.6</ele>
        <time>2021-07-11T11:30:00Z</time>
      </trkpt>
      <trkpt lat="45.73652" lon="6.52512">
        <ele>1145</ele>
        <time>2021-07-11T11:30:04Z</time>
      </trkpt>
      <trkpt lat="45.73651" lon="6.52503">
        <ele>1145.6</ele>
        <time>2021-07-11T11:30:08Z</time>
      </trkpt>
      <trkpt lat="45.73648" lon="6.52495">
        <ele>1146.4</ele>
        <time>2021-07-11T11:30:12Z</time>
      </trkpt>
      <trkpt lat="45.73645" lon="6.52487">
        <ele>1147</ele>
        <time>2021-07-11T11:30:16Z</time>
      </trkpt>
      <trkpt lat="45.7364" lon="6.52479">
        <ele>1148</ele>
        <time>2021-07-11T11:30:20Z</time>
      </trkpt>
      <trkpt lat="45.73638" lon="6.52471">
        <ele>1148.2</ele>
        <time>2021-07-11T11:30:24Z</time>
      </trkpt>
      <trkpt lat="45.73635" lon="6.52462">
        <ele>1149.4</ele>
        <time>2021-07-11T11:30:28Z</time>
      </trkpt>
      <trkpt lat="45.73632" lon="6.52453">
        <ele>1149</ele>
        <time>2021-07-11T11:30:32Z</time>
      </trkpt>
      <trkpt lat="45.73629" lon="6.52446">
        <ele>1149.8</ele>
        <time>2021-07-11T11:30:36Z</time>
      </trkpt>
      <trkpt lat="45.73626" lon="6.52438">
        <ele>1150.4</ele>
        <time>2021-07-11T11:30:40Z</time>
      </trkpt>
      <trkpt lat="45.73621" lon="6.52431">
        <ele>1151.4</ele>
        <time>2021-07-11T11:30:44Z</time>
      </trkpt>
      <trkpt lat="45.73617" lon="6.52425">
        <ele>1152</ele>
        <time>2021-07-11T11:30:48Z</time>
      </trkpt>
      <trkpt lat="45.73614" lon="6.52418">
        <ele>1152.6</ele>
        <time>2021-07-11T11:30:52Z</time>
      </trkpt>
      <trkpt lat="45.73612" lon="6.5241">
        <ele>1153.4</ele>
        <time>2021-07-11T11:30:56Z</time>
      </trkpt>
      <trkpt lat="45.7361" lon="6.52401">
        <ele>1153.8</ele>
        <time>2021-07-11T11:31:00Z</time>
      </trkpt>
      <trkpt lat="45.7361" lon="6.52391">
        <ele>1154.6</ele>
        <time>2021-07-11T11:31:04Z</time>
      </trkpt>
      <trkpt lat="45.73609" lon="6.52382">
        <ele>1155</ele>
        <time>2021-07-11T11:31:08Z</time>
      </trkpt>
      <trkpt lat="45.73606" lon="6.52376">
        <ele>1155.6</ele>
        <time>2021-07-11T11:31:12Z</time>
      </trkpt>
      <trkpt lat="45.73606" lon="6.52368">
        <ele>1156.2</ele>
        <time>2021-07-11T11:31:16Z</time>
      </trkpt>
      <trkpt lat="45.73605" lon="6.52361">
        <ele>1157</ele>
        <time>2021-07-11T11:31:20Z</time>
      </trkpt>
      <trkpt lat="45.73604" lon="6.52354">
        <ele>1158</ele>
        <time>2021-07-11T11:31:24Z</time>
      </trkpt>
      <trkpt lat="45.73603" lon="6.52347">
        <ele>1158.6</ele>
        <time>2021-07-11T11:31:28Z</time>
      </trkpt>
      <trkpt lat="45.73602" lon="6.52339">
        <ele>1160</ele>
        <time>2021-07-11T11:31:32Z</time>
      </trkpt>
      <trkpt lat="45.736" lon="6.52332">
        <ele>1160</ele>
        <time>2021-07-11T11:31:36Z</time>
      </trkpt>
      <trkpt lat="45.73599" lon="6.52325">
        <ele>1160.2</ele>
        <time>2021-07-11T11:31:40Z</time>
      </trkpt>
      <trkpt lat="45.73596" lon="6.52316">
        <ele>1161.2</ele>
        <time>2021-07-11T11:31:44Z</time>
      </trkpt>
      <trkpt lat="45.73594" lon="6.52308">
        <ele>1161.6</ele>
        <time>2021-07-11T11:31:48Z</time>
      </trkpt>
      <trkpt lat="45.73588" lon="6.52299">
        <ele>1161.8</ele>
        <time>2021-07-11T11:31:52Z</time>
      </trkpt>
      <trkpt lat="45.73584" lon="6.52292">
        <ele>1163</ele>
        <time>2021-07-11T11:31:56Z</time>
      </trkpt>
      <trkpt lat="45.73579" lon="6.52286">
        <ele>1163.2</ele>
        <time>2021-07-11T11:32:00Z</time>
      </trkpt>
      <trkpt lat="45.73573" lon="6.5228">
        <ele>1163.8</ele>
        <time>2021-07-11T11:32:04Z</time>
      </trkpt>
      <trkpt lat="45.73568" lon="6.52275">
        <ele>1164.2</ele>
        <time>2021-07-11T11:32:08Z</time>
      </trkpt>
      <trkpt lat="45.73562" lon="6.52271">
        <ele>1165</ele>
        <time>2021-07-11T11:32:12Z</time>
      </trkpt>
      <trkpt lat="45.73558" lon="6.52265">
        <ele>1165.8</ele>
        <time>2021-07-11T11:32:16Z</time>
      </trkpt>
      <trkpt lat="45.73553" lon="6.5226">
        <ele>1166.2</ele>
        <time>2021-07-11T11:32:20Z</time>
      </trkpt>
      <trkpt lat="45.73549" lon="6.52254">
        <ele>1167</ele>
        <time>2021-07-11T11:32:24Z</time>
      </trkpt>
      <trkpt lat="45.73545" lon="6.52247">
        <ele>1167.6</ele>
        <time>2021-07-11T11:32:28Z</time>
      </trkpt>
      <trkpt lat="45.73541" lon="6.5224">
        <ele>1168</ele>
        <time>2021-07-11T11:32:32Z</time>
      </trkpt>
      <trkpt lat="45.73539" lon="6.52232">
        <ele>1168.6</ele>
        <time>2021-07-11T11:32:36Z</time>
      </trkpt>
      <trkpt lat="45.73538" lon="6.52223">
        <ele>1169</ele>
        <time>2021-07-11T11:32:40Z</time>
      </trkpt>
      <trkpt lat="45.73536" lon="6.52216">
        <ele>1170</ele>
        <time>2021-07-11T11:32:44Z</time>
      </trkpt>
      <trkpt lat="45.73536" lon="6.52208">
        <ele>1170.6</ele>
        <time>2021-07-11T11:32:48Z</time>
      </trkpt>
      <trkpt lat="45.73536" lon="6.52201">
        <ele>1171.4</ele>
        <time>2021-07-11T11:32:52Z</time>
      </trkpt>
      <trkpt lat="45.73535" lon="6.52193">
        <ele>1172</ele>
        <time>2021-07-11T11:32:56Z</time>
      </trkpt>
      <trkpt lat="45.73534" lon="6.52186">
        <ele>1172.6</ele>
        <time>2021-07-11T11:33:00Z</time>
      </trkpt>
      <trkpt lat="45.73532" lon="6.52178">
        <ele>1172.8</ele>
        <time>2021-07-11T11:33:04Z</time>
      </trkpt>
      <trkpt lat="45.73528" lon="6.52172">
        <ele>1174.4</ele>
        <time>2021-07-11T11:33:08Z</time>
      </trkpt>
      <trkpt lat="45.73524" lon="6.52166">
        <ele>1175</ele>
        <time>2021-07-11T11:33:12Z</time>
      </trkpt>
      <trkpt lat="45.73519" lon="6.52161">
        <ele>1175.6</ele>
        <time>2021-07-11T11:33:16Z</time>
      </trkpt>
      <trkpt lat="45.73513" lon="6.52157">
        <ele>1175.8</ele>
        <time>2021-07-11T11:33:20Z</time>
      </trkpt>
      <trkpt lat="45.73507" lon="6.52153">
        <ele>1176.4</ele>
        <time>2021-07-11T11:33:24Z</time>
      </trkpt>
      <trkpt lat="45.73501" lon="6.52149">
        <ele>1177</ele>
        <time>2021-07-11T11:33:28Z</time>
      </trkpt>
      <trkpt lat="45.73495" lon="6.52144">
        <ele>1177.8</ele>
        <time>2021-07-11T11:33:32Z</time>
      </trkpt>
      <trkpt lat="45.73489" lon="6.52139">
        <ele>1178</ele>
        <time>2021-07-11T11:33:36Z</time>
      </trkpt>
      <trkpt lat="45.73484" lon="6.52134">
        <ele>1178.8</ele>
        <time>2021-07-11T11:33:40Z</time>
      </trkpt>
      <trkpt lat="45.73479" lon="6.52128">
        <ele>1179</ele>
        <time>2021-07-11T11:33:44Z</time>
      </trkpt>
      <trkpt lat="45.73474" lon="6.52122">
        <ele>1179.2</ele>
        <time>2021-07-11T11:33:48Z</time>
      </trkpt>
      <trkpt lat="45.7347" lon="6.52114">
        <ele>1180.6</ele>
        <time>2021-07-11T11:33:52Z</time>
      </trkpt>
      <trkpt lat="45.73465" lon="6.52108">
        <ele>1181.2</ele>
        <time>2021-07-11T11:33:56Z</time>
      </trkpt>
      <trkpt lat="45.73461" lon="6.52102">
        <ele>1181.4</ele>
        <time>2021-07-11T11:34:00Z</time>
      </trkpt>
      <trkpt lat="45.73455" lon="6.52098">
        <ele>1182.2</ele>
        <time>2021-07-11T11:34:04Z</time>
      </trkpt>
      <trkpt lat="45.73449" lon="6.52095">
        <ele>1182.2</ele>
        <time>2021-07-11T11:34:08Z</time>
      </trkpt>
      <trkpt lat="45.73444" lon="6.52091">
        <ele>1183.8</ele>
        <time>2021-07-11T11:34:12Z</time>
      </trkpt>
      <trkpt lat="45.73439" lon="6.52088">
        <ele>1184.2</ele>
        <time>2021-07-11T11:34:16Z</time>
      </trkpt>
      <trkpt lat="45.73435" lon="6.52082">
        <ele>1185.2</ele>
        <time>2021-07-11T11:34:20Z</time>
      </trkpt>
      <trkpt lat="45.73433" lon="6.52073">
        <ele>1185.2</ele>
        <time>2021-07-11T11:34:24Z</time>
      </trkpt>
      <trkpt lat="45.73432" lon="6.52065">
        <ele>1185.8</ele>
        <time>2021-07-11T11:34:28Z</time>
      </trkpt>
      <trkpt lat="45.73431" lon="6.52057">
        <ele>1186.4</ele>
        <time>2021-07-11T11:34:32Z</time>
      </trkpt>
      <trkpt lat="45.7343" lon="6.52049">
        <ele>1186.4</ele>
        <time>2021-07-11T11:34:36Z</time>
      </trkpt>
      <trkpt lat="45.73431" lon="6.52039">
        <ele>1186.8</ele>
        <time>2021-07-11T11:34:40Z</time>
      </trkpt>
      <trkpt lat="45.73431" lon="6.52031">
        <ele>1187.2</ele>
        <time>2021-07-11T11:34:44Z</time>
      </trkpt>
      <trkpt lat="45.7343" lon="6.52021">
        <ele>1188.2</ele>
        <time>2021-07-11T11:34:48Z</time>
      </trkpt>
      <trkpt lat="45.73428" lon="6.52012">
        <ele>1188.6</ele>
        <time>2021-07-11T11:34:52Z</time>
      </trkpt>
      <trkpt lat="45.73427" lon="6.52003">
        <ele>1189.8</ele>
        <time>2021-07-11T11:34:56Z</time>
      </trkpt>
      <trkpt lat="45.73429" lon="6.51996">
        <ele>1190.2</ele>
        <time>2021-07-11T11:35:00Z</time>
      </trkpt>
      <trkpt lat="45.73434" lon="6.51993">
        <ele>1190.4</ele>
        <time>2021-07-11T11:35:04Z</time>
      </trkpt>
      <trkpt lat="45.73438" lon="6.51997">
        <ele>1191.2</ele>
        <time>2021-07-11T11:35:08Z</time>
      </trkpt>
      <trkpt lat="45.73439" lon="6.52006">
        <ele>1192.2</ele>
        <time>2021-07-11T11:35:12Z</time>
      </trkpt>
      <trkpt lat="45.73438" lon="6.52015">
        <ele>1191.8</ele>
        <time>2021-07-11T11:35:16Z</time>
      </trkpt>
      <trkpt lat="45.73439" lon="6.52023">
        <ele>1192.8</ele>
        <time>2021-07-11T11:35:20Z</time>
      </trkpt>
      <trkpt lat="45.7344" lon="6.52031">
        <ele>1193.8</ele>
        <time>2021-07-11T11:35:24Z</time>
      </trkpt>
      <trkpt lat="45.73442" lon="6.5204">
        <ele>1194.6</ele>
        <time>2021-07-11T11:35:28Z</time>
      </trkpt>
      <trkpt lat="45.73443" lon="6.52046">
        <ele>1195.4</ele>
        <time>2021-07-11T11:35:32Z</time>
      </trkpt>
      <trkpt lat="45.73447" lon="6.52052">
        <ele>1195.8</ele>
        <time>2021-07-11T11:35:36Z</time>
      </trkpt>
      <trkpt lat="45.73453" lon="6.52055">
        <ele>1196.4</ele>
        <time>2021-07-11T11:35:40Z</time>
      </trkpt>
      <trkpt lat="45.73458" lon="6.52056">
        <ele>1197</ele>
        <time>2021-07-11T11:35:44Z</time>
      </trkpt>
      <trkpt lat="45.73465" lon="6.52056">
        <ele>1197.6</ele>
        <time>2021-07-11T11:35:48Z</time>
      </trkpt>
      <trkpt lat="45.73472" lon="6.52056">
        <ele>1197.6</ele>
        <time>2021-07-11T11:35:52Z</time>
      </trkpt>
      <trkpt lat="45.73478" lon="6.52058">
        <ele>1198.2</ele>
        <time>2021-07-11T11:35:56Z</time>
      </trkpt>
      <trkpt lat="45.73484" lon="6.52059">
        <ele>1199.2</ele>
        <time>2021-07-11T11:36:00Z</time>
      </trkpt>
      <trkpt lat="45.73489" lon="6.52059">
        <ele>1199.6</ele>
        <time>2021-07-11T11:36:04Z</time>
      </trkpt>
      <trkpt lat="45.73495" lon="6.52059">
        <ele>1200.6</ele>
        <time>2021-07-11T11:36:08Z</time>
      </trkpt>
      <trkpt lat="45.735" lon="6.5206">
        <ele>1200.8</ele>
        <time>2021-07-11T11:36:12Z</time>
      </trkpt>
      <trkpt lat="45.73505" lon="6.52061">
        <ele>1201.8</ele>
        <time>2021-07-11T11:36:16Z</time>
      </trkpt>
      <trkpt lat="45.7351" lon="6.52062">
        <ele>1202.2</ele>
        <time>2021-07-11T11:36:20Z</time>
      </trkpt>
      <trkpt lat="45.73516" lon="6.52062">
        <ele>1203.2</ele>
        <time>2021-07-11T11:36:24Z</time>
      </trkpt>
      <trkpt lat="45.73521" lon="6.52063">
        <ele>1203.4</ele>
        <time>2021-07-11T11:36:28Z</time>
      </trkpt>
      <trkpt lat="45.73525" lon="6.52066">
        <ele>1204.4</ele>
        <time>2021-07-11T11:36:32Z</time>
      </trkpt>
      <trkpt lat="45.73529" lon="6.52067">
        <ele>1205</ele>
        <time>2021-07-11T11:36:36Z</time>
      </trkpt>
      <trkpt lat="45.73533" lon="6.5207">
        <ele>1205.6</ele>
        <time>2021-07-11T11:36:40Z</time>
      </trkpt>
      <trkpt lat="45.73537" lon="6.52074">
        <ele>1206.4</ele>
        <time>2021-07-11T11:36:44Z</time>
      </trkpt>
      <trkpt lat="45.73537" lon="6.52074">
        <ele>1208.2</ele>
        <time>2021-07-11T11:36:48Z</time>
      </trkpt>
      <trkpt lat="45.73541" lon="6.52077">
        <ele>1208.6</ele>
        <time>2021-07-11T11:36:52Z</time>
      </trkpt>
      <trkpt lat="45.73546" lon="6.52081">
        <ele>1209.4</ele>
        <time>2021-07-11T11:36:56Z</time>
      </trkpt>
      <trkpt lat="45.7355" lon="6.52083">
        <ele>1209.8</ele>
        <time>2021-07-11T11:37:00Z</time>
      </trkpt>
      <trkpt lat="45.73553" lon="6.52085">
        <ele>1210.6</ele>
        <time>2021-07-11T11:37:04Z</time>
      </trkpt>
      <trkpt lat="45.73557" lon="6.52087">
        <ele>1211.4</ele>
        <time>2021-07-11T11:37:08Z</time>
      </trkpt>
      <trkpt lat="45.73562" lon="6.5209">
        <ele>1211.2</ele>
        <time>2021-07-11T11:37:12Z</time>
      </trkpt>
      <trkpt lat="45.73568" lon="6.52091">
        <ele>1211.6</ele>
        <time>2021-07-11T11:37:16Z</time>
      </trkpt>
      <trkpt lat="45.73574" lon="6.52092">
        <ele>1212</ele>
        <time>2021-07-11T11:37:20Z</time>
      </trkpt>
      <trkpt lat="45.7358" lon="6.52095">
        <ele>1213.2</ele>
        <time>2021-07-11T11:37:24Z</time>
      </trkpt>
      <trkpt lat="45.73588" lon="6.521">
        <ele>1213.4</ele>
        <time>2021-07-11T11:37:28Z</time>
      </trkpt>
      <trkpt lat="45.73594" lon="6.52104">
        <ele>1214.4</ele>
        <time>2021-07-11T11:37:32Z</time>
      </trkpt>
      <trkpt lat="45.73598" lon="6.52106">
        <ele>1214.6</ele>
        <time>2021-07-11T11:37:36Z</time>
      </trkpt>
      <trkpt lat="45.73604" lon="6.52109">
        <ele>1215</ele>
        <time>2021-07-11T11:37:40Z</time>
      </trkpt>
      <trkpt lat="45.7361" lon="6.52112">
        <ele>1215</ele>
        <time>2021-07-11T11:37:44Z</time>
      </trkpt>
      <trkpt lat="45.73615" lon="6.52116">
        <ele>1215.8</ele>
        <time>2021-07-11T11:37:48Z</time>
      </trkpt>
      <trkpt lat="45.7362" lon="6.52119">
        <ele>1216.8</ele>
        <time>2021-07-11T11:37:52Z</time>
      </trkpt>
      <trkpt lat="45.73625" lon="6.52123">
        <ele>1217</ele>
        <time>2021-07-11T11:37:56Z</time>
      </trkpt>
      <trkpt lat="45.7363" lon="6.52128">
        <ele>1218</ele>
        <time>2021-07-11T11:38:00Z</time>
      </trkpt>
      <trkpt lat="45.73636" lon="6.52131">
        <ele>1218.6</ele>
        <time>2021-07-11T11:38:04Z</time>
      </trkpt>
      <trkpt lat="45.73641" lon="6.52133">
        <ele>1219</ele>
        <time>2021-07-11T11:38:08Z</time>
      </trkpt>
      <trkpt lat="45.73646" lon="6.52136">
        <ele>1219.4</ele>
        <time>2021-07-11T11:38:12Z</time>
      </trkpt>
      <trkpt lat="45.73652" lon="6.52138">
        <ele>1220</ele>
        <time>2021-07-11T11:38:16Z</time>
      </trkpt>
      <trkpt lat="45.73658" lon="6.5214">
        <ele>1220.4</ele>
        <time>2021-07-11T11:38:20Z</time>
      </trkpt>
      <trkpt lat="45.73664" lon="6.52142">
        <ele>1220.8</ele>
        <time>2021-07-11T11:38:24Z</time>
      </trkpt>
      <trkpt lat="45.7367" lon="6.52144">
        <ele>1221</ele>
        <time>2021-07-11T11:38:28Z</time>
      </trkpt>
      <trkpt lat="45.73676" lon="6.52145">
        <ele>1221.6</ele>
        <time>2021-07-11T11:38:32Z</time>
      </trkpt>
      <trkpt lat="45.73681" lon="6.52147">
        <ele>1222.4</ele>
        <time>2021-07-11T11:38:36Z</time>
      </trkpt>
      <trkpt lat="45.73687" lon="6.5215">
        <ele>1223</ele>
        <time>2021-07-11T11:38:40Z</time>
      </trkpt>
      <trkpt lat="45.73692" lon="6.52153">
        <ele>1223.4</ele>
        <time>2021-07-11T11:38:44Z</time>
      </trkpt>
      <trkpt lat="45.73698" lon="6.52155">
        <ele>1223.6</ele>
        <time>2021-07-11T11:38:48Z</time>
      </trkpt>
      <trkpt lat="45.73702" lon="6.5216">
        <ele>1224.4</ele>
        <time>2021-07-11T11:38:52Z</time>
      </trkpt>
      <trkpt lat="45.73707" lon="6.52164">
        <ele>1225</ele>
        <time>2021-07-11T11:38:56Z</time>
      </trkpt>
      <trkpt lat="45.73712" lon="6.52168">
        <ele>1225.6</ele>
        <time>2021-07-11T11:39:00Z</time>
      </trkpt>
      <trkpt lat="45.73717" lon="6.52172">
        <ele>1225.6</ele>
        <time>2021-07-11T11:39:04Z</time>
      </trkpt>
      <trkpt lat="45.73722" lon="6.52175">
        <ele>1226.6</ele>
        <time>2021-07-11T11:39:08Z</time>
      </trkpt>
      <trkpt lat="45.73726" lon="6.52179">
        <ele>1227</ele>
        <time>2021-07-11T11:39:12Z</time>
      </trkpt>
      <trkpt lat="45.7373" lon="6.52183">
        <ele>1227.8</ele>
        <time>2021-07-11T11:39:16Z</time>
      </trkpt>
      <trkpt lat="45.73734" lon="6.52187">
        <ele>1227.8</ele>
        <time>2021-07-11T11:39:20Z</time>
      </trkpt>
      <trkpt lat="45.73738" lon="6.52191">
        <ele>1228.6</ele>
        <time>2021-07-11T11:39:24Z</time>
      </trkpt>
      <trkpt lat="45.73743" lon="6.52195">
        <ele>1229</ele>
        <time>2021-07-11T11:39:28Z</time>
      </trkpt>
      <trkpt lat="45.73747" lon="6.52198">
        <ele>1229.6</ele>
        <time>2021-07-11T11:39:32Z</time>
      </trkpt>
      <trkpt lat="45.73752" lon="6.52201">
        <ele>1230.4</ele>
        <time>2021-07-11T11:39:36Z</time>
      </trkpt>
      <trkpt lat="45.73757" lon="6.52203">
        <ele>1230.4</ele>
        <time>2021-07-11T11:39:40Z</time>
      </trkpt>
      <trkpt lat="45.73763" lon="6.52208">
        <ele>1231</ele>
        <time>2021-07-11T11:39:44Z</time>
      </trkpt>
      <trkpt lat="45.73768" lon="6.52215">
        <ele>1230.8</ele>
        <time>2021-07-11T11:39:48Z</time>
      </trkpt>
      <trkpt lat="45.73773" lon="6.52221">
        <ele>1231.4</ele>
        <time>2021-07-11T11:39:52Z</time>
      </trkpt>
      <trkpt lat="45.73777" lon="6.52228">
        <ele>1231.4</ele>
        <time>2021-07-11T11:39:56Z</time>
      </trkpt>
      <trkpt lat="45.73781" lon="6.52235">
        <ele>1231.8</ele>
        <time>2021-07-11T11:40:00Z</time>
      </trkpt>
      <trkpt lat="45.73784" lon="6.52241">
        <ele>1232.4</ele>
        <time>2021-07-11T11:40:04Z</time>
      </trkpt>
      <trkpt lat="45.73787" lon="6.52249">
        <ele>1233.2</ele>
        <time>2021-07-11T11:40:08Z</time>
      </trkpt>
      <trkpt lat="45.7379" lon="6.52256">
        <ele>1233.4</ele>
        <time>2021-07-11T11:40:12Z</time>
      </trkpt>
      <trkpt lat="45.73793" lon="6.52263">
        <ele>1234.4</ele>
        <time>2021-07-11T11:40:16Z</time>
      </trkpt>
      <trkpt lat="45.73796" lon="6.5227">
        <ele>1235</ele>
        <time>2021-07-11T11:40:20Z</time>
      </trkpt>
      <trkpt lat="45.73798" lon="6.52276">
        <ele>1236</ele>
        <time>2021-07-11T11:40:24Z</time>
      </trkpt>
      <trkpt lat="45.73799" lon="6.52282">
        <ele>1236.4</ele>
        <time>2021-07-11T11:40:28Z</time>
      </trkpt>
      <trkpt lat="45.73801" lon="6.52289">
        <ele>1236.6</ele>
        <time>2021-07-11T11:40:32Z</time>
      </trkpt>
      <trkpt lat="45.73802" lon="6.52295">
        <ele>1237.6</ele>
        <time>2021-07-11T11:40:36Z</time>
      </trkpt>
      <trkpt lat="45.73803" lon="6.52301">
        <ele>1237.8</ele>
        <time>2021-07-11T11:40:40Z</time>
      </trkpt>
      <trkpt lat="45.73804" lon="6.52308">
        <ele>1237.8</ele>
        <time>2021-07-11T11:40:44Z</time>
      </trkpt>
      <trkpt lat="45.73804" lon="6.52314">
        <ele>1238.6</ele>
        <time>2021-07-11T11:40:48Z</time>
      </trkpt>
      <trkpt lat="45.73805" lon="6.5232">
        <ele>1239.2</ele>
        <time>2021-07-11T11:40:52Z</time>
      </trkpt>
      <trkpt lat="45.73805" lon="6.52327">
        <ele>1239.8</ele>
        <time>2021-07-11T11:40:56Z</time>
      </trkpt>
      <trkpt lat="45.73806" lon="6.52334">
        <ele>1240.2</ele>
        <time>2021-07-11T11:41:00Z</time>
      </trkpt>
      <trkpt lat="45.73808" lon="6.5234">
        <ele>1240.6</ele>
        <time>2021-07-11T11:41:04Z</time>
      </trkpt>
      <trkpt lat="45.73809" lon="6.52347">
        <ele>1240.6</ele>
        <time>2021-07-11T11:41:08Z</time>
      </trkpt>
      <trkpt lat="45.73812" lon="6.52354">
        <ele>1241.6</ele>
        <time>2021-07-11T11:41:12Z</time>
      </trkpt>
      <trkpt lat="45.73815" lon="6.5236">
        <ele>1242.6</ele>
        <time>2021-07-11T11:41:16Z</time>
      </trkpt>
      <trkpt lat="45.73818" lon="6.52366">
        <ele>1243</ele>
        <time>2021-07-11T11:41:20Z</time>
      </trkpt>
      <trkpt lat="45.7382" lon="6.52372">
        <ele>1243.8</ele>
        <time>2021-07-11T11:41:24Z</time>
      </trkpt>
      <trkpt lat="45.73823" lon="6.52376">
        <ele>1244.2</ele>
        <time>2021-07-11T11:41:28Z</time>
      </trkpt>
      <trkpt lat="45.73826" lon="6.52382">
        <ele>1244.8</ele>
        <time>2021-07-11T11:41:32Z</time>
      </trkpt>
      <trkpt lat="45.73829" lon="6.52387">
        <ele>1245.2</ele>
        <time>2021-07-11T11:41:36Z</time>
      </trkpt>
      <trkpt lat="45.73833" lon="6.52391">
        <ele>1245.4</ele>
        <time>2021-07-11T11:41:40Z</time>
      </trkpt>
      <trkpt lat="45.73836" lon="6.52396">
        <ele>1246</ele>
        <time>2021-07-11T11:41:44Z</time>
      </trkpt>
      <trkpt lat="45.7384" lon="6.52401">
        <ele>1246.6</ele>
        <time>2021-07-11T11:41:48Z</time>
      </trkpt>
      <trkpt lat="45.73843" lon="6.52406">
        <ele>1247.4</ele>
        <time>2021-07-11T11:41:52Z</time>
      </trkpt>
      <trkpt lat="45.73847" lon="6.5241">
        <ele>1247.6</ele>
        <time>2021-07-11T11:41:56Z</time>
      </trkpt>
      <trkpt lat="45.7385" lon="6.52415">
        <ele>1247.8</ele>
        <time>2021-07-11T11:42:00Z</time>
      </trkpt>
      <trkpt lat="45.73854" lon="6.5242">
        <ele>1249</ele>
        <time>2021-07-11T11:42:04Z</time>
      </trkpt>
      <trkpt lat="45.73857" lon="6.52425">
        <ele>1249.6</ele>
        <time>2021-07-11T11:42:08Z</time>
      </trkpt>
      <trkpt lat="45.73861" lon="6.52429">
        <ele>1250.2</ele>
        <time>2021-07-11T11:42:12Z</time>
      </trkpt>
      <trkpt lat="45.73864" lon="6.52434">
        <ele>1250.8</ele>
        <time>2021-07-11T11:42:16Z</time>
      </trkpt>
      <trkpt lat="45.73868" lon="6.52438">
        <ele>1250.8</ele>
        <time>2021-07-11T11:42:20Z</time>
      </trkpt>
      <trkpt lat="45.73871" lon="6.52443">
        <ele>1252.4</ele>
        <time>2021-07-11T11:42:24Z</time>
      </trkpt>
      <trkpt lat="45.73873" lon="6.52448">
        <ele>1252.2</ele>
        <time>2021-07-11T11:42:28Z</time>
      </trkpt>
      <trkpt lat="45.73877" lon="6.52454">
        <ele>1252.8</ele>
        <time>2021-07-11T11:42:32Z</time>
      </trkpt>
      <trkpt lat="45.73881" lon="6.52461">
        <ele>1253.2</ele>
        <time>2021-07-11T11:42:36Z</time>
      </trkpt>
      <trkpt lat="45.73884" lon="6.52468">
        <ele>1254</ele>
        <time>2021-07-11T11:42:40Z</time>
      </trkpt>
      <trkpt lat="45.73887" lon="6.52476">
        <ele>1254.8</ele>
        <time>2021-07-11T11:42:44Z</time>
      </trkpt>
      <trkpt lat="45.73889" lon="6.52484">
        <ele>1254.8</ele>
        <time>2021-07-11T11:42:48Z</time>
      </trkpt>
      <trkpt lat="45.73889" lon="6.52491">
        <ele>1255</ele>
        <time>2021-07-11T11:42:52Z</time>
      </trkpt>
      <trkpt lat="45.7389" lon="6.52499">
        <ele>1255.2</ele>
        <time>2021-07-11T11:42:56Z</time>
      </trkpt>
      <trkpt lat="45.73891" lon="6.52507">
        <ele>1255.4</ele>
        <time>2021-07-11T11:43:00Z</time>
      </trkpt>
      <trkpt lat="45.73891" lon="6.52515">
        <ele>1257.2</ele>
        <time>2021-07-11T11:43:04Z</time>
      </trkpt>
      <trkpt lat="45.73891" lon="6.52522">
        <ele>1256.8</ele>
        <time>2021-07-11T11:43:08Z</time>
      </trkpt>
      <trkpt lat="45.73892" lon="6.52529">
        <ele>1257.6</ele>
        <time>2021-07-11T11:43:12Z</time>
      </trkpt>
      <trkpt lat="45.73892" lon="6.52536">
        <ele>1258.6</ele>
        <time>2021-07-11T11:43:16Z</time>
      </trkpt>
      <trkpt lat="45.73892" lon="6.52543">
        <ele>1259.4</ele>
        <time>2021-07-11T11:43:20Z</time>
      </trkpt>
      <trkpt lat="45.73893" lon="6.52551">
        <ele>1259.4</ele>
        <time>2021-07-11T11:43:24Z</time>
      </trkpt>
      <trkpt lat="45.73894" lon="6.52559">
        <ele>1259.4</ele>
        <time>2021-07-11T11:43:28Z</time>
      </trkpt>
      <trkpt lat="45.73895" lon="6.52567">
        <ele>1260.4</ele>
        <time>2021-07-11T11:43:32Z</time>
      </trkpt>
      <trkpt lat="45.73897" lon="6.52588">
        <ele>1262</ele>
        <time>2021-07-11T11:43:52Z</time>
      </trkpt>
      <trkpt lat="45.73897" lon="6.52596">
        <ele>1263</ele>
        <time>2021-07-11T11:43:56Z</time>
      </trkpt>
      <trkpt lat="45.73898" lon="6.52605">
        <ele>1263</ele>
        <time>2021-07-11T11:44:00Z</time>
      </trkpt>
      <trkpt lat="45.73899" lon="6.52614">
        <ele>1263.8</ele>
        <time>2021-07-11T11:44:04Z</time>
      </trkpt>
      <trkpt lat="45.73901" lon="6.52623">
        <ele>1263.4</ele>
        <time>2021-07-11T11:44:08Z</time>
      </trkpt>
      <trkpt lat="45.73904" lon="6.52629">
        <ele>1265.2</ele>
        <time>2021-07-11T11:44:12Z</time>
      </trkpt>
      <trkpt lat="45.73907" lon="6.52639">
        <ele>1264.8</ele>
        <time>2021-07-11T11:44:16Z</time>
      </trkpt>
      <trkpt lat="45.73912" lon="6.52645">
        <ele>1265.2</ele>
        <time>2021-07-11T11:44:20Z</time>
      </trkpt>
      <trkpt lat="45.73916" lon="6.52653">
        <ele>1266</ele>
        <time>2021-07-11T11:44:24Z</time>
      </trkpt>
      <trkpt lat="45.73921" lon="6.5266">
        <ele>1266.4</ele>
        <time>2021-07-11T11:44:28Z</time>
      </trkpt>
      <trkpt lat="45.73925" lon="6.52666">
        <ele>1266.8</ele>
        <time>2021-07-11T11:44:32Z</time>
      </trkpt>
      <trkpt lat="45.73929" lon="6.52675">
        <ele>1267.4</ele>
        <time>2021-07-11T11:44:36Z</time>
      </trkpt>
      <trkpt lat="45.73934" lon="6.52681">
        <ele>1267.6</ele>
        <time>2021-07-11T11:44:40Z</time>
      </trkpt>
      <trkpt lat="45.7394" lon="6.52688">
        <ele>1268</ele>
        <time>2021-07-11T11:44:44Z</time>
      </trkpt>
      <trkpt lat="45.73945" lon="6.52695">
        <ele>1268.4</ele>
        <time>2021-07-11T11:44:48Z</time>
      </trkpt>
      <trkpt lat="45.73948" lon="6.52702">
        <ele>1269.6</ele>
        <time>2021-07-11T11:44:52Z</time>
      </trkpt>
      <trkpt lat="45.73951" lon="6.52709">
        <ele>1270.2</ele>
        <time>2021-07-11T11:44:56Z</time>
      </trkpt>
      <trkpt lat="45.73956" lon="6.52716">
        <ele>1270.4</ele>
        <time>2021-07-11T11:45:00Z</time>
      </trkpt>
      <trkpt lat="45.73957" lon="6.52726">
        <ele>1271</ele>
        <time>2021-07-11T11:45:04Z</time>
      </trkpt>
      <trkpt lat="45.73959" lon="6.52736">
        <ele>1271</ele>
        <time>2021-07-11T11:45:08Z</time>
      </trkpt>
      <trkpt lat="45.7396" lon="6.52743">
        <ele>1271.4</ele>
        <time>2021-07-11T11:45:12Z</time>
      </trkpt>
      <trkpt lat="45.73962" lon="6.52753">
        <ele>1271.6</ele>
        <time>2021-07-11T11:45:16Z</time>
      </trkpt>
      <trkpt lat="45.73962" lon="6.52762">
        <ele>1272.4</ele>
        <time>2021-07-11T11:45:20Z</time>
      </trkpt>
      <trkpt lat="45.73961" lon="6.5277">
        <ele>1273</ele>
        <time>2021-07-11T11:45:24Z</time>
      </trkpt>
      <trkpt lat="45.7396" lon="6.52779">
        <ele>1273.8</ele>
        <time>2021-07-11T11:45:28Z</time>
      </trkpt>
      <trkpt lat="45.73961" lon="6.52788">
        <ele>1273.8</ele>
        <time>2021-07-11T11:45:32Z</time>
      </trkpt>
      <trkpt lat="45.73962" lon="6.52796">
        <ele>1274.4</ele>
        <time>2021-07-11T11:45:36Z</time>
      </trkpt>
      <trkpt lat="45.73965" lon="6.52803">
        <ele>1275.4</ele>
        <time>2021-07-11T11:45:40Z</time>
      </trkpt>
      <trkpt lat="45.73967" lon="6.5281">
        <ele>1275.4</ele>
        <time>2021-07-11T11:45:44Z</time>
      </trkpt>
      <trkpt lat="45.73968" lon="6.52819">
        <ele>1275.4</ele>
        <time>2021-07-11T11:45:48Z</time>
      </trkpt>
      <trkpt lat="45.7397" lon="6.5283">
        <ele>1276.2</ele>
        <time>2021-07-11T11:45:52Z</time>
      </trkpt>
      <trkpt lat="45.73973" lon="6.52839">
        <ele>1276.6</ele>
        <time>2021-07-11T11:45:56Z</time>
      </trkpt>
      <trkpt lat="45.73977" lon="6.52847">
        <ele>1277</ele>
        <time>2021-07-11T11:46:00Z</time>
      </trkpt>
      <trkpt lat="45.73981" lon="6.52854">
        <ele>1277.4</ele>
        <time>2021-07-11T11:46:04Z</time>
      </trkpt>
      <trkpt lat="45.73986" lon="6.52859">
        <ele>1277.4</ele>
        <time>2021-07-11T11:47:42Z</time>
      </trkpt>
      <trkpt lat="45.73989" lon="6.52866">
        <ele>1278.6</ele>
        <time>2021-07-11T11:47:46Z</time>
      </trkpt>
      <trkpt lat="45.73993" lon="6.52871">
        <ele>1278.6</ele>
        <time>2021-07-11T11:47:50Z</time>
      </trkpt>
      <trkpt lat="45.73996" lon="6.52877">
        <ele>1279.4</ele>
        <time>2021-07-11T11:47:54Z</time>
      </trkpt>
      <trkpt lat="45.74" lon="6.52882">
        <ele>1280</ele>
        <time>2021-07-11T11:47:58Z</time>
      </trkpt>
      <trkpt lat="45.74004" lon="6.52887">
        <ele>1280.6</ele>
        <time>2021-07-11T11:48:02Z</time>
      </trkpt>
      <trkpt lat="45.74007" lon="6.5289">
        <ele>1281</ele>
        <time>2021-07-11T11:48:06Z</time>
      </trkpt>
      <trkpt lat="45.74011" lon="6.52892">
        <ele>1282</ele>
        <time>2021-07-11T11:48:10Z</time>
      </trkpt>
      <trkpt lat="45.74014" lon="6.52895">
        <ele>1282.4</ele>
        <time>2021-07-11T11:48:14Z</time>
      </trkpt>
      <trkpt lat="45.74019" lon="6.52899">
        <ele>1282.8</ele>
        <time>2021-07-11T11:48:18Z</time>
      </trkpt>
      <trkpt lat="45.74024" lon="6.52903">
        <ele>1283.6</ele>
        <time>2021-07-11T11:48:22Z</time>
      </trkpt>
      <trkpt lat="45.74028" lon="6.52906">
        <ele>1284</ele>
        <time>2021-07-11T11:48:26Z</time>
      </trkpt>
      <trkpt lat="45.74033" lon="6.5291">
        <ele>1284.8</ele>
        <time>2021-07-11T11:48:30Z</time>
      </trkpt>
      <trkpt lat="45.74037" lon="6.52912">
        <ele>1285.4</ele>
        <time>2021-07-11T11:48:34Z</time>
      </trkpt>
      <trkpt lat="45.74043" lon="6.52915">
        <ele>1285.4</ele>
        <time>2021-07-11T11:48:38Z</time>
      </trkpt>
      <trkpt lat="45.74049" lon="6.52918">
        <ele>1286.4</ele>
        <time>2021-07-11T11:48:42Z</time>
      </trkpt>
      <trkpt lat="45.74054" lon="6.52921">
        <ele>1286.4</ele>
        <time>2021-07-11T11:48:46Z</time>
      </trkpt>
      <trkpt lat="45.74059" lon="6.52924">
        <ele>1287.6</ele>
        <time>2021-07-11T11:48:50Z</time>
      </trkpt>
      <trkpt lat="45.74064" lon="6.52925">
        <ele>1287.6</ele>
        <time>2021-07-11T11:48:54Z</time>
      </trkpt>
      <trkpt lat="45.7407" lon="6.52925">
        <ele>1288.6</ele>
        <time>2021-07-11T11:48:58Z</time>
      </trkpt>
      <trkpt lat="45.74075" lon="6.52926">
        <ele>1288.4</ele>
        <time>2021-07-11T11:49:02Z</time>
      </trkpt>
      <trkpt lat="45.74079" lon="6.52927">
        <ele>1289.8</ele>
        <time>2021-07-11T11:49:06Z</time>
      </trkpt>
      <trkpt lat="45.74084" lon="6.52928">
        <ele>1289.6</ele>
        <time>2021-07-11T11:49:10Z</time>
      </trkpt>
      <trkpt lat="45.7409" lon="6.52929">
        <ele>1289.8</ele>
        <time>2021-07-11T11:49:14Z</time>
      </trkpt>
      <trkpt lat="45.74096" lon="6.52933">
        <ele>1291</ele>
        <time>2021-07-11T11:49:18Z</time>
      </trkpt>
      <trkpt lat="45.74101" lon="6.52936">
        <ele>1290.8</ele>
        <time>2021-07-11T11:49:22Z</time>
      </trkpt>
      <trkpt lat="45.74106" lon="6.52939">
        <ele>1292.2</ele>
        <time>2021-07-11T11:49:26Z</time>
      </trkpt>
      <trkpt lat="45.7411" lon="6.52941">
        <ele>1292.8</ele>
        <time>2021-07-11T11:49:30Z</time>
      </trkpt>
      <trkpt lat="45.74116" lon="6.52941">
        <ele>1293</ele>
        <time>2021-07-11T11:49:34Z</time>
      </trkpt>
      <trkpt lat="45.74121" lon="6.52943">
        <ele>1294.4</ele>
        <time>2021-07-11T11:49:38Z</time>
      </trkpt>
      <trkpt lat="45.74125" lon="6.52947">
        <ele>1294.4</ele>
        <time>2021-07-11T11:49:42Z</time>
      </trkpt>
      <trkpt lat="45.7413" lon="6.52952">
        <ele>1294.4</ele>
        <time>2021-07-11T11:49:46Z</time>
      </trkpt>
      <trkpt lat="45.74135" lon="6.52959">
        <ele>1294.6</ele>
        <time>2021-07-11T11:49:50Z</time>
      </trkpt>
      <trkpt lat="45.74137" lon="6.52968">
        <ele>1295</ele>
        <time>2021-07-11T11:49:54Z</time>
      </trkpt>
      <trkpt lat="45.74138" lon="6.52976">
        <ele>1295.6</ele>
        <time>2021-07-11T11:49:58Z</time>
      </trkpt>
      <trkpt lat="45.74136" lon="6.52984">
        <ele>1295.8</ele>
        <time>2021-07-11T11:50:02Z</time>
      </trkpt>
      <trkpt lat="45.74135" lon="6.52992">
        <ele>1296.6</ele>
        <time>2021-07-11T11:50:06Z</time>
      </trkpt>
      <trkpt lat="45.74134" lon="6.52999">
        <ele>1297.2</ele>
        <time>2021-07-11T11:50:10Z</time>
      </trkpt>
      <trkpt lat="45.74132" lon="6.53006">
        <ele>1297.6</ele>
        <time>2021-07-11T11:50:14Z</time>
      </trkpt>
      <trkpt lat="45.74131" lon="6.53014">
        <ele>1298.4</ele>
        <time>2021-07-11T11:50:18Z</time>
      </trkpt>
      <trkpt lat="45.74131" lon="6.53021">
        <ele>1298.8</ele>
        <time>2021-07-11T11:50:22Z</time>
      </trkpt>
      <trkpt lat="45.7413" lon="6.53028">
        <ele>1299.2</ele>
        <time>2021-07-11T11:50:26Z</time>
      </trkpt>
      <trkpt lat="45.7413" lon="6.53035">
        <ele>1299.4</ele>
        <time>2021-07-11T11:50:30Z</time>
      </trkpt>
      <trkpt lat="45.74129" lon="6.53042">
        <ele>1300.4</ele>
        <time>2021-07-11T11:50:34Z</time>
      </trkpt>
      <trkpt lat="45.74128" lon="6.53049">
        <ele>1301</ele>
        <time>2021-07-11T11:50:38Z</time>
      </trkpt>
      <trkpt lat="45.74128" lon="6.53056">
        <ele>1301.6</ele>
        <time>2021-07-11T11:50:42Z</time>
      </trkpt>
      <trkpt lat="45.74129" lon="6.53063">
        <ele>1302</ele>
        <time>2021-07-11T11:50:46Z</time>
      </trkpt>
      <trkpt lat="45.74131" lon="6.5307">
        <ele>1302</ele>
        <time>2021-07-11T11:50:50Z</time>
      </trkpt>
      <trkpt lat="45.74134" lon="6.53076">
        <ele>1302.6</ele>
        <time>2021-07-11T11:50:54Z</time>
      </trkpt>
      <trkpt lat="45.74138" lon="6.53081">
        <ele>1302.6</ele>
        <time>2021-07-11T11:50:58Z</time>
      </trkpt>
      <trkpt lat="45.74143" lon="6.53084">
        <ele>1303.2</ele>
        <time>2021-07-11T11:51:02Z</time>
      </trkpt>
      <trkpt lat="45.74148" lon="6.53087">
        <ele>1303.4</ele>
        <time>2021-07-11T11:51:06Z</time>
      </trkpt>
      <trkpt lat="45.74152" lon="6.53091">
        <ele>1304</ele>
        <time>2021-07-11T11:51:10Z</time>
      </trkpt>
      <trkpt lat="45.74158" lon="6.53094">
        <ele>1304.2</ele>
        <time>2021-07-11T11:51:14Z</time>
      </trkpt>
      <trkpt lat="45.74162" lon="6.53098">
        <ele>1304.8</ele>
        <time>2021-07-11T11:51:18Z</time>
      </trkpt>
      <trkpt lat="45.74167" lon="6.53103">
        <ele>1305.6</ele>
        <time>2021-07-11T11:51:22Z</time>
      </trkpt>
      <trkpt lat="45.7417" lon="6.53108">
        <ele>1305.8</ele>
        <time>2021-07-11T11:51:26Z</time>
      </trkpt>
      <trkpt lat="45.74173" lon="6.53113">
        <ele>1306.2</ele>
        <time>2021-07-11T11:51:30Z</time>
      </trkpt>
      <trkpt lat="45.74177" lon="6.53119">
        <ele>1307</ele>
        <time>2021-07-11T11:51:34Z</time>
      </trkpt>
      <trkpt lat="45.7418" lon="6.53124">
        <ele>1307.4</ele>
        <time>2021-07-11T11:51:38Z</time>
      </trkpt>
      <trkpt lat="45.74185" lon="6.53124">
        <ele>1307.4</ele>
        <time>2021-07-11T11:51:42Z</time>
      </trkpt>
      <trkpt lat="45.7419" lon="6.5312">
        <ele>1307.8</ele>
        <time>2021-07-11T11:51:46Z</time>
      </trkpt>
      <trkpt lat="45.7419" lon="6.53111">
        <ele>1308.2</ele>
        <time>2021-07-11T11:51:50Z</time>
      </trkpt>
      <trkpt lat="45.74185" lon="6.53103">
        <ele>1308.4</ele>
        <time>2021-07-11T11:51:54Z</time>
      </trkpt>
      <trkpt lat="45.74181" lon="6.53095">
        <ele>1308.4</ele>
        <time>2021-07-11T11:51:58Z</time>
      </trkpt>
      <trkpt lat="45.74177" lon="6.53088">
        <ele>1310</ele>
        <time>2021-07-11T11:52:02Z</time>
      </trkpt>
      <trkpt lat="45.74174" lon="6.53081">
        <ele>1311</ele>
        <time>2021-07-11T11:52:06Z</time>
      </trkpt>
      <trkpt lat="45.74171" lon="6.53073">
        <ele>1310.4</ele>
        <time>2021-07-11T11:52:10Z</time>
      </trkpt>
      <trkpt lat="45.7417" lon="6.53066">
        <ele>1310.8</ele>
        <time>2021-07-11T11:52:14Z</time>
      </trkpt>
      <trkpt lat="45.74169" lon="6.53058">
        <ele>1311.4</ele>
        <time>2021-07-11T11:52:18Z</time>
      </trkpt>
      <trkpt lat="45.74168" lon="6.5305">
        <ele>1311.4</ele>
        <time>2021-07-11T11:52:22Z</time>
      </trkpt>
      <trkpt lat="45.74168" lon="6.53042">
        <ele>1312.2</ele>
        <time>2021-07-11T11:52:26Z</time>
      </trkpt>
      <trkpt lat="45.74168" lon="6.53034">
        <ele>1313.2</ele>
        <time>2021-07-11T11:52:30Z</time>
      </trkpt>
      <trkpt lat="45.74169" lon="6.53028">
        <ele>1313.2</ele>
        <time>2021-07-11T11:52:34Z</time>
      </trkpt>
      <trkpt lat="45.7417" lon="6.53022">
        <ele>1314.6</ele>
        <time>2021-07-11T11:52:38Z</time>
      </trkpt>
      <trkpt lat="45.74172" lon="6.53016">
        <ele>1314.6</ele>
        <time>2021-07-11T11:52:42Z</time>
      </trkpt>
      <trkpt lat="45.74176" lon="6.53011">
        <ele>1314.8</ele>
        <time>2021-07-11T11:52:46Z</time>
      </trkpt>
      <trkpt lat="45.74177" lon="6.53006">
        <ele>1315.2</ele>
        <time>2021-07-11T11:52:50Z</time>
      </trkpt>
      <trkpt lat="45.74176" lon="6.52999">
        <ele>1316</ele>
        <time>2021-07-11T11:52:54Z</time>
      </trkpt>
      <trkpt lat="45.74179" lon="6.52994">
        <ele>1316.2</ele>
        <time>2021-07-11T11:52:58Z</time>
      </trkpt>
      <trkpt lat="45.74181" lon="6.52989">
        <ele>1316.2</ele>
        <time>2021-07-11T11:53:02Z</time>
      </trkpt>
      <trkpt lat="45.74183" lon="6.52984">
        <ele>1317.2</ele>
        <time>2021-07-11T11:53:06Z</time>
      </trkpt>
      <trkpt lat="45.74185" lon="6.52978">
        <ele>1317.2</ele>
        <time>2021-07-11T11:53:10Z</time>
      </trkpt>
      <trkpt lat="45.74186" lon="6.52972">
        <ele>1318.4</ele>
        <time>2021-07-11T11:53:14Z</time>
      </trkpt>
      <trkpt lat="45.74186" lon="6.52966">
        <ele>1318.2</ele>
        <time>2021-07-11T11:53:18Z</time>
      </trkpt>
      <trkpt lat="45.74185" lon="6.52959">
        <ele>1319.2</ele>
        <time>2021-07-11T11:53:22Z</time>
      </trkpt>
      <trkpt lat="45.74184" lon="6.52952">
        <ele>1319.8</ele>
        <time>2021-07-11T11:53:26Z</time>
      </trkpt>
      <trkpt lat="45.74184" lon="6.52946">
        <ele>1320.4</ele>
        <time>2021-07-11T11:53:30Z</time>
      </trkpt>
      <trkpt lat="45.74182" lon="6.52938">
        <ele>1320.6</ele>
        <time>2021-07-11T11:53:34Z</time>
      </trkpt>
      <trkpt lat="45.74181" lon="6.52932">
        <ele>1321.2</ele>
        <time>2021-07-11T11:53:38Z</time>
      </trkpt>
      <trkpt lat="45.7418" lon="6.52926">
        <ele>1321.6</ele>
        <time>2021-07-11T11:53:42Z</time>
      </trkpt>
      <trkpt lat="45.74178" lon="6.52921">
        <ele>1322</ele>
        <time>2021-07-11T11:53:46Z</time>
      </trkpt>
      <trkpt lat="45.74175" lon="6.52916">
        <ele>1322.8</ele>
        <time>2021-07-11T11:53:50Z</time>
      </trkpt>
      <trkpt lat="45.74173" lon="6.52911">
        <ele>1322.8</ele>
        <time>2021-07-11T11:53:54Z</time>
      </trkpt>
      <trkpt lat="45.74169" lon="6.52906">
        <ele>1323.2</ele>
        <time>2021-07-11T11:53:58Z</time>
      </trkpt>
      <trkpt lat="45.74165" lon="6.52901">
        <ele>1323.8</ele>
        <time>2021-07-11T11:54:02Z</time>
      </trkpt>
      <trkpt lat="45.7416" lon="6.52899">
        <ele>1324.2</ele>
        <time>2021-07-11T11:54:06Z</time>
      </trkpt>
      <trkpt lat="45.74157" lon="6.52894">
        <ele>1325</ele>
        <time>2021-07-11T11:54:10Z</time>
      </trkpt>
      <trkpt lat="45.74154" lon="6.5289">
        <ele>1325.6</ele>
        <time>2021-07-11T11:54:14Z</time>
      </trkpt>
      <trkpt lat="45.74151" lon="6.52887">
        <ele>1326.2</ele>
        <time>2021-07-11T11:54:18Z</time>
      </trkpt>
      <trkpt lat="45.74147" lon="6.52884">
        <ele>1326.4</ele>
        <time>2021-07-11T11:54:22Z</time>
      </trkpt>
      <trkpt lat="45.74143" lon="6.5288">
        <ele>1326.4</ele>
        <time>2021-07-11T11:54:26Z</time>
      </trkpt>
      <trkpt lat="45.74139" lon="6.52876">
        <ele>1327.2</ele>
        <time>2021-07-11T11:54:30Z</time>
      </trkpt>
      <trkpt lat="45.74136" lon="6.52873">
        <ele>1327.6</ele>
        <time>2021-07-11T11:54:34Z</time>
      </trkpt>
      <trkpt lat="45.74132" lon="6.52868">
        <ele>1327.8</ele>
        <time>2021-07-11T11:54:38Z</time>
      </trkpt>
      <trkpt lat="45.74129" lon="6.52864">
        <ele>1328.4</ele>
        <time>2021-07-11T11:54:42Z</time>
      </trkpt>
      <trkpt lat="45.74125" lon="6.5286">
        <ele>1328.8</ele>
        <time>2021-07-11T11:54:46Z</time>
      </trkpt>
      <trkpt lat="45.74122" lon="6.52855">
        <ele>1329</ele>
        <time>2021-07-11T11:54:50Z</time>
      </trkpt>
      <trkpt lat="45.74119" lon="6.52851">
        <ele>1329.4</ele>
        <time>2021-07-11T11:54:54Z</time>
      </trkpt>
      <trkpt lat="45.74116" lon="6.52847">
        <ele>1330.4</ele>
        <time>2021-07-11T11:54:58Z</time>
      </trkpt>
      <trkpt lat="45.74113" lon="6.52842">
        <ele>1330.8</ele>
        <time>2021-07-11T11:55:02Z</time>
      </trkpt>
      <trkpt lat="45.7411" lon="6.52837">
        <ele>1331.4</ele>
        <time>2021-07-11T11:55:06Z</time>
      </trkpt>
      <trkpt lat="45.74108" lon="6.52831">
        <ele>1331.2</ele>
        <time>2021-07-11T11:55:10Z</time>
      </trkpt>
      <trkpt lat="45.74106" lon="6.52825">
        <ele>1331.6</ele>
        <time>2021-07-11T11:55:14Z</time>
      </trkpt>
      <trkpt lat="45.74104" lon="6.5282">
        <ele>1332.6</ele>
        <time>2021-07-11T11:55:18Z</time>
      </trkpt>
      <trkpt lat="45.74102" lon="6.52814">
        <ele>1332.8</ele>
        <time>2021-07-11T11:55:22Z</time>
      </trkpt>
      <trkpt lat="45.74101" lon="6.52807">
        <ele>1333.4</ele>
        <time>2021-07-11T11:55:26Z</time>
      </trkpt>
      <trkpt lat="45.74099" lon="6.52801">
        <ele>1333.4</ele>
        <time>2021-07-11T11:55:30Z</time>
      </trkpt>
      <trkpt lat="45.74096" lon="6.52797">
        <ele>1334.4</ele>
        <time>2021-07-11T11:55:34Z</time>
      </trkpt>
      <trkpt lat="45.74095" lon="6.52791">
        <ele>1334.6</ele>
        <time>2021-07-11T11:55:38Z</time>
      </trkpt>
      <trkpt lat="45.74093" lon="6.52784">
        <ele>1335.2</ele>
        <time>2021-07-11T11:55:42Z</time>
      </trkpt>
      <trkpt lat="45.74092" lon="6.52778">
        <ele>1335.6</ele>
        <time>2021-07-11T11:55:46Z</time>
      </trkpt>
      <trkpt lat="45.74091" lon="6.52772">
        <ele>1335.8</ele>
        <time>2021-07-11T11:55:50Z</time>
      </trkpt>
      <trkpt lat="45.7409" lon="6.52766">
        <ele>1336.2</ele>
        <time>2021-07-11T11:55:54Z</time>
      </trkpt>
      <trkpt lat="45.7409" lon="6.52759">
        <ele>1336.8</ele>
        <time>2021-07-11T11:55:58Z</time>
      </trkpt>
      <trkpt lat="45.74093" lon="6.52754">
        <ele>1337.8</ele>
        <time>2021-07-11T11:56:02Z</time>
      </trkpt>
      <trkpt lat="45.74097" lon="6.52751">
        <ele>1337.6</ele>
        <time>2021-07-11T11:56:06Z</time>
      </trkpt>
      <trkpt lat="45.74102" lon="6.52751">
        <ele>1339.2</ele>
        <time>2021-07-11T11:56:10Z</time>
      </trkpt>
      <trkpt lat="45.74105" lon="6.52755">
        <ele>1339.2</ele>
        <time>2021-07-11T11:56:14Z</time>
      </trkpt>
      <trkpt lat="45.74109" lon="6.5276">
        <ele>1339.4</ele>
        <time>2021-07-11T11:56:18Z</time>
      </trkpt>
      <trkpt lat="45.7411" lon="6.52767">
        <ele>1339.6</ele>
        <time>2021-07-11T11:56:22Z</time>
      </trkpt>
      <trkpt lat="45.74112" lon="6.52773">
        <ele>1340.4</ele>
        <time>2021-07-11T11:56:26Z</time>
      </trkpt>
      <trkpt lat="45.74114" lon="6.5278">
        <ele>1340.6</ele>
        <time>2021-07-11T11:56:30Z</time>
      </trkpt>
      <trkpt lat="45.74115" lon="6.52786">
        <ele>1340.6</ele>
        <time>2021-07-11T11:56:34Z</time>
      </trkpt>
      <trkpt lat="45.74117" lon="6.52792">
        <ele>1340.8</ele>
        <time>2021-07-11T11:56:38Z</time>
      </trkpt>
      <trkpt lat="45.74119" lon="6.52797">
        <ele>1341.4</ele>
        <time>2021-07-11T11:56:42Z</time>
      </trkpt>
      <trkpt lat="45.74122" lon="6.52802">
        <ele>1342.2</ele>
        <time>2021-07-11T11:56:46Z</time>
      </trkpt>
      <trkpt lat="45.74126" lon="6.52807">
        <ele>1343.2</ele>
        <time>2021-07-11T11:56:50Z</time>
      </trkpt>
      <trkpt lat="45.74129" lon="6.52812">
        <ele>1343.6</ele>
        <time>2021-07-11T11:56:54Z</time>
      </trkpt>
      <trkpt lat="45.74133" lon="6.52815">
        <ele>1344</ele>
        <time>2021-07-11T11:56:58Z</time>
      </trkpt>
      <trkpt lat="45.74137" lon="6.52819">
        <ele>1343.8</ele>
        <time>2021-07-11T11:57:02Z</time>
      </trkpt>
      <trkpt lat="45.74141" lon="6.5282">
        <ele>1344.4</ele>
        <time>2021-07-11T11:57:06Z</time>
      </trkpt>
      <trkpt lat="45.74146" lon="6.52823">
        <ele>1345</ele>
        <time>2021-07-11T11:57:10Z</time>
      </trkpt>
      <trkpt lat="45.7415" lon="6.52825">
        <ele>1345</ele>
        <time>2021-07-11T11:57:14Z</time>
      </trkpt>
      <trkpt lat="45.74154" lon="6.52827">
        <ele>1346</ele>
        <time>2021-07-11T11:57:18Z</time>
      </trkpt>
      <trkpt lat="45.74158" lon="6.52829">
        <ele>1346.8</ele>
        <time>2021-07-11T11:57:22Z</time>
      </trkpt>
      <trkpt lat="45.74162" lon="6.5283">
        <ele>1347.2</ele>
        <time>2021-07-11T11:57:26Z</time>
      </trkpt>
      <trkpt lat="45.74166" lon="6.52831">
        <ele>1347.6</ele>
        <time>2021-07-11T11:57:30Z</time>
      </trkpt>
      <trkpt lat="45.7417" lon="6.52833">
        <ele>1347.6</ele>
        <time>2021-07-11T11:57:34Z</time>
      </trkpt>
      <trkpt lat="45.74175" lon="6.52834">
        <ele>1348.6</ele>
        <time>2021-07-11T11:57:38Z</time>
      </trkpt>
      <trkpt lat="45.74179" lon="6.52836">
        <ele>1349.2</ele>
        <time>2021-07-11T11:57:42Z</time>
      </trkpt>
      <trkpt lat="45.74183" lon="6.52838">
        <ele>1350</ele>
        <time>2021-07-11T11:57:46Z</time>
      </trkpt>
      <trkpt lat="45.74187" lon="6.5284">
        <ele>1350.4</ele>
        <time>2021-07-11T11:57:50Z</time>
      </trkpt>
      <trkpt lat="45.74191" lon="6.52842">
        <ele>1350</ele>
        <time>2021-07-11T11:57:54Z</time>
      </trkpt>
      <trkpt lat="45.74195" lon="6.52844">
        <ele>1351</ele>
        <time>2021-07-11T11:57:58Z</time>
      </trkpt>
      <trkpt lat="45.74199" lon="6.52846">
        <ele>1351.4</ele>
        <time>2021-07-11T11:58:02Z</time>
      </trkpt>
      <trkpt lat="45.74203" lon="6.52848">
        <ele>1351.2</ele>
        <time>2021-07-11T11:58:06Z</time>
      </trkpt>
      <trkpt lat="45.74207" lon="6.52851">
        <ele>1352.4</ele>
        <time>2021-07-11T11:58:10Z</time>
      </trkpt>
      <trkpt lat="45.74209" lon="6.52854">
        <ele>1353.2</ele>
        <time>2021-07-11T11:58:14Z</time>
      </trkpt>
      <trkpt lat="45.74214" lon="6.52858">
        <ele>1353.8</ele>
        <time>2021-07-11T11:58:18Z</time>
      </trkpt>
      <trkpt lat="45.74218" lon="6.52862">
        <ele>1354.2</ele>
        <time>2021-07-11T11:58:22Z</time>
      </trkpt>
      <trkpt lat="45.7422" lon="6.52867">
        <ele>1355</ele>
        <time>2021-07-11T11:58:26Z</time>
      </trkpt>
      <trkpt lat="45.74222" lon="6.52871">
        <ele>1355</ele>
        <time>2021-07-11T11:58:30Z</time>
      </trkpt>
      <trkpt lat="45.74222" lon="6.52876">
        <ele>1355.8</ele>
        <time>2021-07-11T11:58:34Z</time>
      </trkpt>
      <trkpt lat="45.74223" lon="6.52883">
        <ele>1356</ele>
        <time>2021-07-11T11:58:38Z</time>
      </trkpt>
      <trkpt lat="45.74224" lon="6.52889">
        <ele>1357.2</ele>
        <time>2021-07-11T11:58:42Z</time>
      </trkpt>
      <trkpt lat="45.74225" lon="6.52895">
        <ele>1357.2</ele>
        <time>2021-07-11T11:58:46Z</time>
      </trkpt>
      <trkpt lat="45.74225" lon="6.52901">
        <ele>1357</ele>
        <time>2021-07-11T11:58:50Z</time>
      </trkpt>
      <trkpt lat="45.74224" lon="6.52907">
        <ele>1357.6</ele>
        <time>2021-07-11T11:58:54Z</time>
      </trkpt>
      <trkpt lat="45.74224" lon="6.52912">
        <ele>1357.8</ele>
        <time>2021-07-11T11:58:58Z</time>
      </trkpt>
      <trkpt lat="45.74224" lon="6.52918">
        <ele>1358.8</ele>
        <time>2021-07-11T11:59:02Z</time>
      </trkpt>
      <trkpt lat="45.74225" lon="6.52924">
        <ele>1359</ele>
        <time>2021-07-11T11:59:06Z</time>
      </trkpt>
      <trkpt lat="45.74225" lon="6.52931">
        <ele>1359.2</ele>
        <time>2021-07-11T11:59:10Z</time>
      </trkpt>
      <trkpt lat="45.74226" lon="6.52938">
        <ele>1360</ele>
        <time>2021-07-11T11:59:14Z</time>
      </trkpt>
      <trkpt lat="45.74228" lon="6.52945">
        <ele>1360.4</ele>
        <time>2021-07-11T11:59:18Z</time>
      </trkpt>
      <trkpt lat="45.74229" lon="6.52952">
        <ele>1360.4</ele>
        <time>2021-07-11T11:59:22Z</time>
      </trkpt>
      <trkpt lat="45.74231" lon="6.52959">
        <ele>1360.8</ele>
        <time>2021-07-11T11:59:26Z</time>
      </trkpt>
      <trkpt lat="45.74234" lon="6.52965">
        <ele>1361.4</ele>
        <time>2021-07-11T11:59:30Z</time>
      </trkpt>
      <trkpt lat="45.74238" lon="6.5297">
        <ele>1361.6</ele>
        <time>2021-07-11T11:59:34Z</time>
      </trkpt>
      <trkpt lat="45.74242" lon="6.52974">
        <ele>1362.8</ele>
        <time>2021-07-11T11:59:38Z</time>
      </trkpt>
      <trkpt lat="45.74246" lon="6.52976">
        <ele>1363</ele>
        <time>2021-07-11T11:59:42Z</time>
      </trkpt>
      <trkpt lat="45.7425" lon="6.52974">
        <ele>1363.4</ele>
        <time>2021-07-11T11:59:46Z</time>
      </trkpt>
      <trkpt lat="45.74252" lon="6.52968">
        <ele>1364.2</ele>
        <time>2021-07-11T11:59:50Z</time>
      </trkpt>
      <trkpt lat="45.74249" lon="6.5296">
        <ele>1364.4</ele>
        <time>2021-07-11T11:59:54Z</time>
      </trkpt>
      <trkpt lat="45.74246" lon="6.52954">
        <ele>1364.8</ele>
        <time>2021-07-11T11:59:58Z</time>
      </trkpt>
      <trkpt lat="45.74243" lon="6.52942">
        <ele>1365.2</ele>
        <time>2021-07-11T12:02:34Z</time>
      </trkpt>
      <trkpt lat="45.7424" lon="6.52934">
        <ele>1365.4</ele>
        <time>2021-07-11T12:02:38Z</time>
      </trkpt>
      <trkpt lat="45.74238" lon="6.52926">
        <ele>1365.6</ele>
        <time>2021-07-11T12:02:42Z</time>
      </trkpt>
      <trkpt lat="45.74239" lon="6.52918">
        <ele>1366.2</ele>
        <time>2021-07-11T12:02:46Z</time>
      </trkpt>
      <trkpt lat="45.74241" lon="6.5291">
        <ele>1366.6</ele>
        <time>2021-07-11T12:02:50Z</time>
      </trkpt>
      <trkpt lat="45.74246" lon="6.52906">
        <ele>1367.2</ele>
        <time>2021-07-11T12:02:54Z</time>
      </trkpt>
      <trkpt lat="45.7425" lon="6.529">
        <ele>1367.6</ele>
        <time>2021-07-11T12:02:58Z</time>
      </trkpt>
      <trkpt lat="45.74253" lon="6.52893">
        <ele>1368.2</ele>
        <time>2021-07-11T12:03:02Z</time>
      </trkpt>
      <trkpt lat="45.74256" lon="6.52887">
        <ele>1368.2</ele>
        <time>2021-07-11T12:03:06Z</time>
      </trkpt>
      <trkpt lat="45.74257" lon="6.52879">
        <ele>1368.6</ele>
        <time>2021-07-11T12:03:10Z</time>
      </trkpt>
      <trkpt lat="45.74255" lon="6.52869">
        <ele>1369</ele>
        <time>2021-07-11T12:03:14Z</time>
      </trkpt>
      <trkpt lat="45.74254" lon="6.52861">
        <ele>1369.8</ele>
        <time>2021-07-11T12:03:18Z</time>
      </trkpt>
      <trkpt lat="45.74251" lon="6.52851">
        <ele>1369.8</ele>
        <time>2021-07-11T12:03:22Z</time>
      </trkpt>
      <trkpt lat="45.74246" lon="6.52839">
        <ele>1370.6</ele>
        <time>2021-07-11T12:03:26Z</time>
      </trkpt>
      <trkpt lat="45.74242" lon="6.52828">
        <ele>1371.6</ele>
        <time>2021-07-11T12:03:30Z</time>
      </trkpt>
      <trkpt lat="45.74238" lon="6.52818">
        <ele>1371.8</ele>
        <time>2021-07-11T12:03:34Z</time>
      </trkpt>
      <trkpt lat="45.74235" lon="6.52809">
        <ele>1372.2</ele>
        <time>2021-07-11T12:03:38Z</time>
      </trkpt>
      <trkpt lat="45.74232" lon="6.528">
        <ele>1372.2</ele>
        <time>2021-07-11T12:03:42Z</time>
      </trkpt>
      <trkpt lat="45.74228" lon="6.52791">
        <ele>1373.2</ele>
        <time>2021-07-11T12:03:46Z</time>
      </trkpt>
      <trkpt lat="45.74224" lon="6.52783">
        <ele>1374</ele>
        <time>2021-07-11T12:03:50Z</time>
      </trkpt>
      <trkpt lat="45.7422" lon="6.52775">
        <ele>1374</ele>
        <time>2021-07-11T12:03:54Z</time>
      </trkpt>
      <trkpt lat="45.74216" lon="6.52767">
        <ele>1374.4</ele>
        <time>2021-07-11T12:03:58Z</time>
      </trkpt>
      <trkpt lat="45.74213" lon="6.52759">
        <ele>1374.8</ele>
        <time>2021-07-11T12:04:02Z</time>
      </trkpt>
      <trkpt lat="45.7421" lon="6.5275">
        <ele>1375.8</ele>
        <time>2021-07-11T12:04:06Z</time>
      </trkpt>
      <trkpt lat="45.74207" lon="6.52741">
        <ele>1375.6</ele>
        <time>2021-07-11T12:04:10Z</time>
      </trkpt>
      <trkpt lat="45.74204" lon="6.52733">
        <ele>1376.6</ele>
        <time>2021-07-11T12:04:14Z</time>
      </trkpt>
      <trkpt lat="45.742" lon="6.52724">
        <ele>1377.2</ele>
        <time>2021-07-11T12:04:18Z</time>
      </trkpt>
      <trkpt lat="45.74195" lon="6.52717">
        <ele>1376.8</ele>
        <time>2021-07-11T12:04:22Z</time>
      </trkpt>
      <trkpt lat="45.74191" lon="6.5271">
        <ele>1377.6</ele>
        <time>2021-07-11T12:04:26Z</time>
      </trkpt>
      <trkpt lat="45.74187" lon="6.52703">
        <ele>1378</ele>
        <time>2021-07-11T12:04:30Z</time>
      </trkpt>
      <trkpt lat="45.74183" lon="6.52696">
        <ele>1378.4</ele>
        <time>2021-07-11T12:04:34Z</time>
      </trkpt>
      <trkpt lat="45.74178" lon="6.52691">
        <ele>1378.6</ele>
        <time>2021-07-11T12:04:38Z</time>
      </trkpt>
      <trkpt lat="45.74174" lon="6.52685">
        <ele>1379.6</ele>
        <time>2021-07-11T12:04:42Z</time>
      </trkpt>
      <trkpt lat="45.7417" lon="6.52678">
        <ele>1379.6</ele>
        <time>2021-07-11T12:04:46Z</time>
      </trkpt>
      <trkpt lat="45.74166" lon="6.52671">
        <ele>1379.6</ele>
        <time>2021-07-11T12:04:50Z</time>
      </trkpt>
      <trkpt lat="45.74162" lon="6.52664">
        <ele>1381</ele>
        <time>2021-07-11T12:04:54Z</time>
      </trkpt>
      <trkpt lat="45.74158" lon="6.52655">
        <ele>1381.4</ele>
        <time>2021-07-11T12:04:58Z</time>
      </trkpt>
      <trkpt lat="45.74155" lon="6.52646">
        <ele>1381.8</ele>
        <time>2021-07-11T12:05:02Z</time>
      </trkpt>
      <trkpt lat="45.74152" lon="6.52638">
        <ele>1382.2</ele>
        <time>2021-07-11T12:05:06Z</time>
      </trkpt>
      <trkpt lat="45.7415" lon="6.52629">
        <ele>1383.2</ele>
        <time>2021-07-11T12:05:10Z</time>
      </trkpt>
      <trkpt lat="45.74146" lon="6.52622">
        <ele>1383.2</ele>
        <time>2021-07-11T12:05:14Z</time>
      </trkpt>
      <trkpt lat="45.74142" lon="6.52616">
        <ele>1384</ele>
        <time>2021-07-11T12:05:18Z</time>
      </trkpt>
      <trkpt lat="45.74139" lon="6.5261">
        <ele>1384.8</ele>
        <time>2021-07-11T12:05:22Z</time>
      </trkpt>
      <trkpt lat="45.74134" lon="6.52604">
        <ele>1385.2</ele>
        <time>2021-07-11T12:05:26Z</time>
      </trkpt>
      <trkpt lat="45.74129" lon="6.52597">
        <ele>1385</ele>
        <time>2021-07-11T12:05:30Z</time>
      </trkpt>
      <trkpt lat="45.74125" lon="6.5259">
        <ele>1385.6</ele>
        <time>2021-07-11T12:05:34Z</time>
      </trkpt>
      <trkpt lat="45.74122" lon="6.52582">
        <ele>1386.2</ele>
        <time>2021-07-11T12:05:38Z</time>
      </trkpt>
      <trkpt lat="45.74119" lon="6.52575">
        <ele>1386.2</ele>
        <time>2021-07-11T12:05:42Z</time>
      </trkpt>
      <trkpt lat="45.74116" lon="6.52566">
        <ele>1386.2</ele>
        <time>2021-07-11T12:05:46Z</time>
      </trkpt>
      <trkpt lat="45.74113" lon="6.52558">
        <ele>1387.2</ele>
        <time>2021-07-11T12:05:50Z</time>
      </trkpt>
      <trkpt lat="45.74111" lon="6.5255">
        <ele>1387.4</ele>
        <time>2021-07-11T12:05:54Z</time>
      </trkpt>
      <trkpt lat="45.74109" lon="6.52542">
        <ele>1388.4</ele>
        <time>2021-07-11T12:05:58Z</time>
      </trkpt>
      <trkpt lat="45.74108" lon="6.52535">
        <ele>1388.8</ele>
        <time>2021-07-11T12:06:02Z</time>
      </trkpt>
      <trkpt lat="45.74108" lon="6.52528">
        <ele>1389.2</ele>
        <time>2021-07-11T12:06:06Z</time>
      </trkpt>
      <trkpt lat="45.74109" lon="6.52521">
        <ele>1389.4</ele>
        <time>2021-07-11T12:06:10Z</time>
      </trkpt>
      <trkpt lat="45.74111" lon="6.52516">
        <ele>1389.8</ele>
        <time>2021-07-11T12:06:14Z</time>
      </trkpt>
      <trkpt lat="45.74114" lon="6.52514">
        <ele>1391</ele>
        <time>2021-07-11T12:06:18Z</time>
      </trkpt>
      <trkpt lat="45.74119" lon="6.52519">
        <ele>1390.6</ele>
        <time>2021-07-11T12:06:22Z</time>
      </trkpt>
      <trkpt lat="45.74121" lon="6.52525">
        <ele>1391</ele>
        <time>2021-07-11T12:06:26Z</time>
      </trkpt>
      <trkpt lat="45.74121" lon="6.52532">
        <ele>1391.2</ele>
        <time>2021-07-11T12:06:30Z</time>
      </trkpt>
      <trkpt lat="45.74121" lon="6.52539">
        <ele>1392.4</ele>
        <time>2021-07-11T12:06:34Z</time>
      </trkpt>
      <trkpt lat="45.74122" lon="6.52546">
        <ele>1392.8</ele>
        <time>2021-07-11T12:06:38Z</time>
      </trkpt>
      <trkpt lat="45.74123" lon="6.52553">
        <ele>1393</ele>
        <time>2021-07-11T12:06:42Z</time>
      </trkpt>
      <trkpt lat="45.74125" lon="6.52559">
        <ele>1393.8</ele>
        <time>2021-07-11T12:06:46Z</time>
      </trkpt>
      <trkpt lat="45.74127" lon="6.52564">
        <ele>1394.4</ele>
        <time>2021-07-11T12:06:50Z</time>
      </trkpt>
      <trkpt lat="45.74131" lon="6.52569">
        <ele>1395</ele>
        <time>2021-07-11T12:06:54Z</time>
      </trkpt>
      <trkpt lat="45.74134" lon="6.52572">
        <ele>1394.8</ele>
        <time>2021-07-11T12:06:58Z</time>
      </trkpt>
      <trkpt lat="45.74139" lon="6.52573">
        <ele>1395.2</ele>
        <time>2021-07-11T12:07:02Z</time>
      </trkpt>
      <trkpt lat="45.74145" lon="6.52573">
        <ele>1395.8</ele>
        <time>2021-07-11T12:07:06Z</time>
      </trkpt>
      <trkpt lat="45.7415" lon="6.52575">
        <ele>1395.8</ele>
        <time>2021-07-11T12:07:10Z</time>
      </trkpt>
      <trkpt lat="45.74155" lon="6.52575">
        <ele>1396.6</ele>
        <time>2021-07-11T12:07:14Z</time>
      </trkpt>
      <trkpt lat="45.74159" lon="6.52577">
        <ele>1397</ele>
        <time>2021-07-11T12:07:18Z</time>
      </trkpt>
      <trkpt lat="45.74163" lon="6.5258">
        <ele>1398</ele>
        <time>2021-07-11T12:07:22Z</time>
      </trkpt>
      <trkpt lat="45.74167" lon="6.52585">
        <ele>1398.2</ele>
        <time>2021-07-11T12:07:26Z</time>
      </trkpt>
      <trkpt lat="45.7417" lon="6.52589">
        <ele>1399.2</ele>
        <time>2021-07-11T12:07:30Z</time>
      </trkpt>
      <trkpt lat="45.74174" lon="6.52593">
        <ele>1400.2</ele>
        <time>2021-07-11T12:07:34Z</time>
      </trkpt>
      <trkpt lat="45.74177" lon="6.52598">
        <ele>1400.2</ele>
        <time>2021-07-11T12:07:38Z</time>
      </trkpt>
      <trkpt lat="45.74181" lon="6.52602">
        <ele>1401</ele>
        <time>2021-07-11T12:07:42Z</time>
      </trkpt>
      <trkpt lat="45.74184" lon="6.52606">
        <ele>1401.2</ele>
        <time>2021-07-11T12:07:46Z</time>
      </trkpt>
      <trkpt lat="45.74187" lon="6.5261">
        <ele>1401.6</ele>
        <time>2021-07-11T12:07:50Z</time>
      </trkpt>
      <trkpt lat="45.7419" lon="6.52614">
        <ele>1402.4</ele>
        <time>2021-07-11T12:07:54Z</time>
      </trkpt>
      <trkpt lat="45.74194" lon="6.52617">
        <ele>1401.8</ele>
        <time>2021-07-11T12:07:58Z</time>
      </trkpt>
      <trkpt lat="45.74196" lon="6.52622">
        <ele>1403.2</ele>
        <time>2021-07-11T12:08:02Z</time>
      </trkpt>
      <trkpt lat="45.74199" lon="6.52627">
        <ele>1403.8</ele>
        <time>2021-07-11T12:08:06Z</time>
      </trkpt>
      <trkpt lat="45.74203" lon="6.5263">
        <ele>1403.4</ele>
        <time>2021-07-11T12:08:10Z</time>
      </trkpt>
      <trkpt lat="45.74207" lon="6.52632">
        <ele>1404.4</ele>
        <time>2021-07-11T12:08:14Z</time>
      </trkpt>
      <trkpt lat="45.74212" lon="6.52634">
        <ele>1404.2</ele>
        <time>2021-07-11T12:08:18Z</time>
      </trkpt>
      <trkpt lat="45.74216" lon="6.52637">
        <ele>1405</ele>
        <time>2021-07-11T12:08:22Z</time>
      </trkpt>
      <trkpt lat="45.7422" lon="6.52638">
        <ele>1405.2</ele>
        <time>2021-07-11T12:08:26Z</time>
      </trkpt>
      <trkpt lat="45.74225" lon="6.52639">
        <ele>1406.2</ele>
        <time>2021-07-11T12:08:30Z</time>
      </trkpt>
      <trkpt lat="45.74229" lon="6.5264">
        <ele>1406</ele>
        <time>2021-07-11T12:08:34Z</time>
      </trkpt>
      <trkpt lat="45.74234" lon="6.5264">
        <ele>1407.2</ele>
        <time>2021-07-11T12:08:38Z</time>
      </trkpt>
      <trkpt lat="45.74239" lon="6.52641">
        <ele>1407.4</ele>
        <time>2021-07-11T12:08:42Z</time>
      </trkpt>
      <trkpt lat="45.74243" lon="6.52641">
        <ele>1408.8</ele>
        <time>2021-07-11T12:08:46Z</time>
      </trkpt>
      <trkpt lat="45.74248" lon="6.52642">
        <ele>1408.8</ele>
        <time>2021-07-11T12:08:50Z</time>
      </trkpt>
      <trkpt lat="45.74253" lon="6.52643">
        <ele>1408.8</ele>
        <time>2021-07-11T12:08:54Z</time>
      </trkpt>
      <trkpt lat="45.74257" lon="6.52644">
        <ele>1410</ele>
        <time>2021-07-11T12:08:58Z</time>
      </trkpt>
      <trkpt lat="45.74261" lon="6.52647">
        <ele>1409.6</ele>
        <time>2021-07-11T12:09:02Z</time>
      </trkpt>
      <trkpt lat="45.74266" lon="6.5265">
        <ele>1410.2</ele>
        <time>2021-07-11T12:09:06Z</time>
      </trkpt>
      <trkpt lat="45.7427" lon="6.52653">
        <ele>1410.2</ele>
        <time>2021-07-11T12:09:10Z</time>
      </trkpt>
      <trkpt lat="45.74274" lon="6.52654">
        <ele>1410.6</ele>
        <time>2021-07-11T12:09:14Z</time>
      </trkpt>
      <trkpt lat="45.74279" lon="6.52652">
        <ele>1411.2</ele>
        <time>2021-07-11T12:09:18Z</time>
      </trkpt>
      <trkpt lat="45.74281" lon="6.52646">
        <ele>1411.6</ele>
        <time>2021-07-11T12:09:22Z</time>
      </trkpt>
      <trkpt lat="45.74282" lon="6.5264">
        <ele>1412.2</ele>
        <time>2021-07-11T12:09:26Z</time>
      </trkpt>
      <trkpt lat="45.74279" lon="6.52632">
        <ele>1412.6</ele>
        <time>2021-07-11T12:09:30Z</time>
      </trkpt>
      <trkpt lat="45.74275" lon="6.52627">
        <ele>1412.8</ele>
        <time>2021-07-11T12:09:34Z</time>
      </trkpt>
      <trkpt lat="45.74272" lon="6.52623">
        <ele>1413</ele>
        <time>2021-07-11T12:09:38Z</time>
      </trkpt>
      <trkpt lat="45.74268" lon="6.52619">
        <ele>1414</ele>
        <time>2021-07-11T12:09:42Z</time>
      </trkpt>
      <trkpt lat="45.74265" lon="6.52615">
        <ele>1414.4</ele>
        <time>2021-07-11T12:09:46Z</time>
      </trkpt>
      <trkpt lat="45.74262" lon="6.5261">
        <ele>1414.8</ele>
        <time>2021-07-11T12:09:50Z</time>
      </trkpt>
      <trkpt lat="45.74259" lon="6.52605">
        <ele>1415.4</ele>
        <time>2021-07-11T12:09:54Z</time>
      </trkpt>
      <trkpt lat="45.74256" lon="6.52599">
        <ele>1416</ele>
        <time>2021-07-11T12:09:58Z</time>
      </trkpt>
      <trkpt lat="45.74254" lon="6.52592">
        <ele>1416.6</ele>
        <time>2021-07-11T12:10:02Z</time>
      </trkpt>
      <trkpt lat="45.74252" lon="6.52586">
        <ele>1417</ele>
        <time>2021-07-11T12:10:06Z</time>
      </trkpt>
      <trkpt lat="45.7425" lon="6.52579">
        <ele>1417</ele>
        <time>2021-07-11T12:10:10Z</time>
      </trkpt>
      <trkpt lat="45.74249" lon="6.52573">
        <ele>1417.4</ele>
        <time>2021-07-11T12:10:14Z</time>
      </trkpt>
      <trkpt lat="45.74248" lon="6.52566">
        <ele>1417.4</ele>
        <time>2021-07-11T12:10:18Z</time>
      </trkpt>
      <trkpt lat="45.74247" lon="6.5256">
        <ele>1418</ele>
        <time>2021-07-11T12:10:22Z</time>
      </trkpt>
      <trkpt lat="45.74245" lon="6.52554">
        <ele>1418.8</ele>
        <time>2021-07-11T12:10:26Z</time>
      </trkpt>
      <trkpt lat="45.74244" lon="6.52548">
        <ele>1419.4</ele>
        <time>2021-07-11T12:10:30Z</time>
      </trkpt>
      <trkpt lat="45.74242" lon="6.52541">
        <ele>1419.8</ele>
        <time>2021-07-11T12:10:34Z</time>
      </trkpt>
      <trkpt lat="45.74241" lon="6.52535">
        <ele>1420</ele>
        <time>2021-07-11T12:10:38Z</time>
      </trkpt>
      <trkpt lat="45.7424" lon="6.52529">
        <ele>1420.8</ele>
        <time>2021-07-11T12:10:42Z</time>
      </trkpt>
      <trkpt lat="45.74238" lon="6.52523">
        <ele>1421.4</ele>
        <time>2021-07-11T12:10:46Z</time>
      </trkpt>
      <trkpt lat="45.74237" lon="6.52517">
        <ele>1421.4</ele>
        <time>2021-07-11T12:10:50Z</time>
      </trkpt>
      <trkpt lat="45.74235" lon="6.52511">
        <ele>1422</ele>
        <time>2021-07-11T12:10:54Z</time>
      </trkpt>
      <trkpt lat="45.74234" lon="6.52505">
        <ele>1422.4</ele>
        <time>2021-07-11T12:10:58Z</time>
      </trkpt>
      <trkpt lat="45.74233" lon="6.52498">
        <ele>1422.8</ele>
        <time>2021-07-11T12:11:02Z</time>
      </trkpt>
      <trkpt lat="45.74233" lon="6.52492">
        <ele>1423.4</ele>
        <time>2021-07-11T12:11:06Z</time>
      </trkpt>
      <trkpt lat="45.74233" lon="6.52486">
        <ele>1424</ele>
        <time>2021-07-11T12:11:10Z</time>
      </trkpt>
      <trkpt lat="45.74233" lon="6.5248">
        <ele>1424.4</ele>
        <time>2021-07-11T12:11:14Z</time>
      </trkpt>
      <trkpt lat="45.74235" lon="6.52473">
        <ele>1424.8</ele>
        <time>2021-07-11T12:11:18Z</time>
      </trkpt>
      <trkpt lat="45.74236" lon="6.52467">
        <ele>1425.2</ele>
        <time>2021-07-11T12:11:22Z</time>
      </trkpt>
      <trkpt lat="45.74237" lon="6.52461">
        <ele>1425.8</ele>
        <time>2021-07-11T12:11:26Z</time>
      </trkpt>
      <trkpt lat="45.74236" lon="6.52453">
        <ele>1426</ele>
        <time>2021-07-11T12:11:30Z</time>
      </trkpt>
      <trkpt lat="45.74238" lon="6.52447">
        <ele>1427</ele>
        <time>2021-07-11T12:11:34Z</time>
      </trkpt>
      <trkpt lat="45.74238" lon="6.52441">
        <ele>1428</ele>
        <time>2021-07-11T12:11:38Z</time>
      </trkpt>
      <trkpt lat="45.74236" lon="6.52434">
        <ele>1428.6</ele>
        <time>2021-07-11T12:11:42Z</time>
      </trkpt>
      <trkpt lat="45.74234" lon="6.52427">
        <ele>1428.2</ele>
        <time>2021-07-11T12:11:46Z</time>
      </trkpt>
      <trkpt lat="45.74232" lon="6.52421">
        <ele>1429</ele>
        <time>2021-07-11T12:11:50Z</time>
      </trkpt>
      <trkpt lat="45.7423" lon="6.52414">
        <ele>1429.8</ele>
        <time>2021-07-11T12:11:54Z</time>
      </trkpt>
      <trkpt lat="45.74229" lon="6.52408">
        <ele>1430.2</ele>
        <time>2021-07-11T12:11:58Z</time>
      </trkpt>
      <trkpt lat="45.74227" lon="6.52402">
        <ele>1430.2</ele>
        <time>2021-07-11T12:12:02Z</time>
      </trkpt>
      <trkpt lat="45.74225" lon="6.52395">
        <ele>1430.8</ele>
        <time>2021-07-11T12:12:06Z</time>
      </trkpt>
      <trkpt lat="45.74224" lon="6.52389">
        <ele>1431.2</ele>
        <time>2021-07-11T12:12:10Z</time>
      </trkpt>
      <trkpt lat="45.74222" lon="6.52383">
        <ele>1431.4</ele>
        <time>2021-07-11T12:12:14Z</time>
      </trkpt>
      <trkpt lat="45.7422" lon="6.52376">
        <ele>1431.8</ele>
        <time>2021-07-11T12:12:18Z</time>
      </trkpt>
      <trkpt lat="45.74218" lon="6.5237">
        <ele>1432.4</ele>
        <time>2021-07-11T12:12:22Z</time>
      </trkpt>
      <trkpt lat="45.74216" lon="6.52364">
        <ele>1432.4</ele>
        <time>2021-07-11T12:12:26Z</time>
      </trkpt>
      <trkpt lat="45.74214" lon="6.52358">
        <ele>1433</ele>
        <time>2021-07-11T12:12:30Z</time>
      </trkpt>
      <trkpt lat="45.74212" lon="6.52352">
        <ele>1433.4</ele>
        <time>2021-07-11T12:12:34Z</time>
      </trkpt>
      <trkpt lat="45.7421" lon="6.52345">
        <ele>1434</ele>
        <time>2021-07-11T12:12:38Z</time>
      </trkpt>
      <trkpt lat="45.74208" lon="6.52338">
        <ele>1434.6</ele>
        <time>2021-07-11T12:12:42Z</time>
      </trkpt>
      <trkpt lat="45.74207" lon="6.52331">
        <ele>1435.4</ele>
        <time>2021-07-11T12:12:46Z</time>
      </trkpt>
      <trkpt lat="45.74207" lon="6.52325">
        <ele>1436</ele>
        <time>2021-07-11T12:12:50Z</time>
      </trkpt>
      <trkpt lat="45.74208" lon="6.52319">
        <ele>1436</ele>
        <time>2021-07-11T12:12:54Z</time>
      </trkpt>
      <trkpt lat="45.74209" lon="6.52313">
        <ele>1436.8</ele>
        <time>2021-07-11T12:12:58Z</time>
      </trkpt>
      <trkpt lat="45.7421" lon="6.52306">
        <ele>1437.2</ele>
        <time>2021-07-11T12:13:02Z</time>
      </trkpt>
      <trkpt lat="45.74211" lon="6.52301">
        <ele>1437.4</ele>
        <time>2021-07-11T12:13:06Z</time>
      </trkpt>
      <trkpt lat="45.74213" lon="6.52296">
        <ele>1438.2</ele>
        <time>2021-07-11T12:13:10Z</time>
      </trkpt>
      <trkpt lat="45.74215" lon="6.52291">
        <ele>1438.2</ele>
        <time>2021-07-11T12:13:14Z</time>
      </trkpt>
      <trkpt lat="45.74216" lon="6.52284">
        <ele>1439</ele>
        <time>2021-07-11T12:13:18Z</time>
      </trkpt>
      <trkpt lat="45.74218" lon="6.52279">
        <ele>1439.6</ele>
        <time>2021-07-11T12:13:22Z</time>
      </trkpt>
      <trkpt lat="45.74219" lon="6.52273">
        <ele>1439.6</ele>
        <time>2021-07-11T12:13:26Z</time>
      </trkpt>
      <trkpt lat="45.74223" lon="6.52272">
        <ele>1439.8</ele>
        <time>2021-07-11T12:13:30Z</time>
      </trkpt>
      <trkpt lat="45.74227" lon="6.52273">
        <ele>1440.2</ele>
        <time>2021-07-11T12:13:34Z</time>
      </trkpt>
      <trkpt lat="45.7423" lon="6.52278">
        <ele>1440.8</ele>
        <time>2021-07-11T12:13:38Z</time>
      </trkpt>
      <trkpt lat="45.74232" lon="6.52284">
        <ele>1441</ele>
        <time>2021-07-11T12:13:42Z</time>
      </trkpt>
      <trkpt lat="45.74234" lon="6.5229">
        <ele>1441.8</ele>
        <time>2021-07-11T12:13:46Z</time>
      </trkpt>
      <trkpt lat="45.74237" lon="6.52296">
        <ele>1442</ele>
        <time>2021-07-11T12:13:50Z</time>
      </trkpt>
      <trkpt lat="45.74239" lon="6.52302">
        <ele>1442.6</ele>
        <time>2021-07-11T12:13:54Z</time>
      </trkpt>
      <trkpt lat="45.74241" lon="6.52308">
        <ele>1443.2</ele>
        <time>2021-07-11T12:13:58Z</time>
      </trkpt>
      <trkpt lat="45.74242" lon="6.52314">
        <ele>1443.6</ele>
        <time>2021-07-11T12:14:02Z</time>
      </trkpt>
      <trkpt lat="45.74244" lon="6.5232">
        <ele>1444</ele>
        <time>2021-07-11T12:14:06Z</time>
      </trkpt>
      <trkpt lat="45.74246" lon="6.52326">
        <ele>1444.4</ele>
        <time>2021-07-11T12:14:10Z</time>
      </trkpt>
      <trkpt lat="45.74248" lon="6.52332">
        <ele>1444.2</ele>
        <time>2021-07-11T12:14:14Z</time>
      </trkpt>
      <trkpt lat="45.74251" lon="6.52337">
        <ele>1445.6</ele>
        <time>2021-07-11T12:14:18Z</time>
      </trkpt>
      <trkpt lat="45.74253" lon="6.52343">
        <ele>1446.2</ele>
        <time>2021-07-11T12:14:22Z</time>
      </trkpt>
      <trkpt lat="45.74257" lon="6.52347">
        <ele>1446.4</ele>
        <time>2021-07-11T12:14:26Z</time>
      </trkpt>
      <trkpt lat="45.74261" lon="6.52349">
        <ele>1446.6</ele>
        <time>2021-07-11T12:14:30Z</time>
      </trkpt>
      <trkpt lat="45.74265" lon="6.52351">
        <ele>1446.8</ele>
        <time>2021-07-11T12:14:34Z</time>
      </trkpt>
      <trkpt lat="45.74269" lon="6.52352">
        <ele>1447.2</ele>
        <time>2021-07-11T12:14:38Z</time>
      </trkpt>
      <trkpt lat="45.74273" lon="6.52353">
        <ele>1448.4</ele>
        <time>2021-07-11T12:14:42Z</time>
      </trkpt>
      <trkpt lat="45.74277" lon="6.52354">
        <ele>1448.2</ele>
        <time>2021-07-11T12:14:46Z</time>
      </trkpt>
      <trkpt lat="45.74281" lon="6.52357">
        <ele>1448.6</ele>
        <time>2021-07-11T12:14:50Z</time>
      </trkpt>
      <trkpt lat="45.74286" lon="6.52361">
        <ele>1449</ele>
        <time>2021-07-11T12:14:54Z</time>
      </trkpt>
      <trkpt lat="45.74289" lon="6.52366">
        <ele>1449.2</ele>
        <time>2021-07-11T12:14:58Z</time>
      </trkpt>
      <trkpt lat="45.74292" lon="6.52372">
        <ele>1449.6</ele>
        <time>2021-07-11T12:15:02Z</time>
      </trkpt>
      <trkpt lat="45.74294" lon="6.52378">
        <ele>1449.8</ele>
        <time>2021-07-11T12:15:06Z</time>
      </trkpt>
      <trkpt lat="45.74337" lon="6.52459">
        <ele>1458.2</ele>
        <time>2021-07-11T12:16:33Z</time>
      </trkpt>
      <trkpt lat="45.74338" lon="6.52452">
        <ele>1458.4</ele>
        <time>2021-07-11T12:16:37Z</time>
      </trkpt>
      <trkpt lat="45.74336" lon="6.52446">
        <ele>1459.4</ele>
        <time>2021-07-11T12:16:41Z</time>
      </trkpt>
      <trkpt lat="45.74334" lon="6.5244">
        <ele>1459.4</ele>
        <time>2021-07-11T12:16:45Z</time>
      </trkpt>
      <trkpt lat="45.74334" lon="6.52434">
        <ele>1460.2</ele>
        <time>2021-07-11T12:16:49Z</time>
      </trkpt>
      <trkpt lat="45.74332" lon="6.52428">
        <ele>1461</ele>
        <time>2021-07-11T12:16:53Z</time>
      </trkpt>
      <trkpt lat="45.74332" lon="6.52422">
        <ele>1461</ele>
        <time>2021-07-11T12:16:57Z</time>
      </trkpt>
      <trkpt lat="45.74332" lon="6.52415">
        <ele>1461.8</ele>
        <time>2021-07-11T12:17:01Z</time>
      </trkpt>
      <trkpt lat="45.74333" lon="6.52409">
        <ele>1461.6</ele>
        <time>2021-07-11T12:17:05Z</time>
      </trkpt>
      <trkpt lat="45.74333" lon="6.52401">
        <ele>1462.2</ele>
        <time>2021-07-11T12:17:09Z</time>
      </trkpt>
      <trkpt lat="45.74333" lon="6.52395">
        <ele>1462.6</ele>
        <time>2021-07-11T12:17:13Z</time>
      </trkpt>
      <trkpt lat="45.74334" lon="6.52388">
        <ele>1463</ele>
        <time>2021-07-11T12:17:17Z</time>
      </trkpt>
      <trkpt lat="45.74334" lon="6.52381">
        <ele>1463.4</ele>
        <time>2021-07-11T12:17:21Z</time>
      </trkpt>
      <trkpt lat="45.74334" lon="6.52374">
        <ele>1463.6</ele>
        <time>2021-07-11T12:17:25Z</time>
      </trkpt>
      <trkpt lat="45.74333" lon="6.52368">
        <ele>1463.8</ele>
        <time>2021-07-11T12:17:29Z</time>
      </trkpt>
      <trkpt lat="45.74333" lon="6.52361">
        <ele>1464.2</ele>
        <time>2021-07-11T12:17:33Z</time>
      </trkpt>
      <trkpt lat="45.74333" lon="6.52354">
        <ele>1464.4</ele>
        <time>2021-07-11T12:17:37Z</time>
      </trkpt>
      <trkpt lat="45.74333" lon="6.52348">
        <ele>1465.2</ele>
        <time>2021-07-11T12:17:41Z</time>
      </trkpt>
      <trkpt lat="45.74333" lon="6.52341">
        <ele>1465.8</ele>
        <time>2021-07-11T12:17:45Z</time>
      </trkpt>
      <trkpt lat="45.74333" lon="6.52334">
        <ele>1466</ele>
        <time>2021-07-11T12:17:49Z</time>
      </trkpt>
      <trkpt lat="45.74332" lon="6.52328">
        <ele>1466.4</ele>
        <time>2021-07-11T12:17:53Z</time>
      </trkpt>
      <trkpt lat="45.74331" lon="6.52321">
        <ele>1466.8</ele>
        <time>2021-07-11T12:17:57Z</time>
      </trkpt>
      <trkpt lat="45.74329" lon="6.52316">
        <ele>1467.4</ele>
        <time>2021-07-11T12:18:01Z</time>
      </trkpt>
      <trkpt lat="45.74327" lon="6.5231">
        <ele>1467.8</ele>
        <time>2021-07-11T12:18:05Z</time>
      </trkpt>
      <trkpt lat="45.74325" lon="6.52304">
        <ele>1468.6</ele>
        <time>2021-07-11T12:18:09Z</time>
      </trkpt>
      <trkpt lat="45.74323" lon="6.52299">
        <ele>1469.2</ele>
        <time>2021-07-11T12:18:13Z</time>
      </trkpt>
      <trkpt lat="45.7432" lon="6.52293">
        <ele>1469.6</ele>
        <time>2021-07-11T12:18:17Z</time>
      </trkpt>
      <trkpt lat="45.74318" lon="6.52288">
        <ele>1470.2</ele>
        <time>2021-07-11T12:18:21Z</time>
      </trkpt>
      <trkpt lat="45.74316" lon="6.52283">
        <ele>1470.6</ele>
        <time>2021-07-11T12:18:25Z</time>
      </trkpt>
      <trkpt lat="45.74314" lon="6.52277">
        <ele>1470.8</ele>
        <time>2021-07-11T12:18:29Z</time>
      </trkpt>
      <trkpt lat="45.74311" lon="6.52271">
        <ele>1471.2</ele>
        <time>2021-07-11T12:18:33Z</time>
      </trkpt>
      <trkpt lat="45.74308" lon="6.52266">
        <ele>1471.4</ele>
        <time>2021-07-11T12:18:37Z</time>
      </trkpt>
      <trkpt lat="45.74306" lon="6.52259">
        <ele>1471.8</ele>
        <time>2021-07-11T12:18:41Z</time>
      </trkpt>
      <trkpt lat="45.74305" lon="6.52253">
        <ele>1472.2</ele>
        <time>2021-07-11T12:18:45Z</time>
      </trkpt>
      <trkpt lat="45.74306" lon="6.52247">
        <ele>1472.2</ele>
        <time>2021-07-11T12:18:49Z</time>
      </trkpt>
      <trkpt lat="45.74308" lon="6.52242">
        <ele>1473.2</ele>
        <time>2021-07-11T12:18:53Z</time>
      </trkpt>
      <trkpt lat="45.74313" lon="6.52241">
        <ele>1473</ele>
        <time>2021-07-11T12:18:57Z</time>
      </trkpt>
      <trkpt lat="45.74317" lon="6.52244">
        <ele>1474.2</ele>
        <time>2021-07-11T12:19:01Z</time>
      </trkpt>
      <trkpt lat="45.74321" lon="6.52249">
        <ele>1474.4</ele>
        <time>2021-07-11T12:19:05Z</time>
      </trkpt>
      <trkpt lat="45.74324" lon="6.52255">
        <ele>1474.4</ele>
        <time>2021-07-11T12:19:09Z</time>
      </trkpt>
      <trkpt lat="45.74326" lon="6.5226">
        <ele>1475.2</ele>
        <time>2021-07-11T12:19:13Z</time>
      </trkpt>
      <trkpt lat="45.74327" lon="6.52266">
        <ele>1475.4</ele>
        <time>2021-07-11T12:19:17Z</time>
      </trkpt>
      <trkpt lat="45.7433" lon="6.52272">
        <ele>1475.8</ele>
        <time>2021-07-11T12:19:21Z</time>
      </trkpt>
      <trkpt lat="45.74333" lon="6.52278">
        <ele>1476.6</ele>
        <time>2021-07-11T12:19:25Z</time>
      </trkpt>
      <trkpt lat="45.74335" lon="6.52283">
        <ele>1476.8</ele>
        <time>2021-07-11T12:19:29Z</time>
      </trkpt>
      <trkpt lat="45.74339" lon="6.52288">
        <ele>1477.2</ele>
        <time>2021-07-11T12:19:33Z</time>
      </trkpt>
      <trkpt lat="45.74342" lon="6.52293">
        <ele>1477.8</ele>
        <time>2021-07-11T12:19:37Z</time>
      </trkpt>
      <trkpt lat="45.74345" lon="6.52297">
        <ele>1478</ele>
        <time>2021-07-11T12:19:41Z</time>
      </trkpt>
      <trkpt lat="45.74349" lon="6.52301">
        <ele>1478.4</ele>
        <time>2021-07-11T12:19:45Z</time>
      </trkpt>
      <trkpt lat="45.74353" lon="6.52306">
        <ele>1478.6</ele>
        <time>2021-07-11T12:19:49Z</time>
      </trkpt>
      <trkpt lat="45.74357" lon="6.5231">
        <ele>1479.2</ele>
        <time>2021-07-11T12:19:53Z</time>
      </trkpt>
      <trkpt lat="45.74361" lon="6.52314">
        <ele>1479.8</ele>
        <time>2021-07-11T12:19:57Z</time>
      </trkpt>
      <trkpt lat="45.74365" lon="6.52318">
        <ele>1479.6</ele>
        <time>2021-07-11T12:20:01Z</time>
      </trkpt>
      <trkpt lat="45.7437" lon="6.52323">
        <ele>1480.8</ele>
        <time>2021-07-11T12:20:05Z</time>
      </trkpt>
      <trkpt lat="45.74373" lon="6.52328">
        <ele>1480.6</ele>
        <time>2021-07-11T12:20:09Z</time>
      </trkpt>
      <trkpt lat="45.74376" lon="6.52333">
        <ele>1480.8</ele>
        <time>2021-07-11T12:20:13Z</time>
      </trkpt>
      <trkpt lat="45.7438" lon="6.52338">
        <ele>1481.6</ele>
        <time>2021-07-11T12:20:17Z</time>
      </trkpt>
      <trkpt lat="45.74382" lon="6.52343">
        <ele>1481.6</ele>
        <time>2021-07-11T12:20:21Z</time>
      </trkpt>
      <trkpt lat="45.74384" lon="6.52349">
        <ele>1481.8</ele>
        <time>2021-07-11T12:20:25Z</time>
      </trkpt>
      <trkpt lat="45.74386" lon="6.52354">
        <ele>1482.6</ele>
        <time>2021-07-11T12:20:29Z</time>
      </trkpt>
      <trkpt lat="45.74387" lon="6.5236">
        <ele>1482.6</ele>
        <time>2021-07-11T12:20:33Z</time>
      </trkpt>
      <trkpt lat="45.74388" lon="6.52366">
        <ele>1483.8</ele>
        <time>2021-07-11T12:20:37Z</time>
      </trkpt>
      <trkpt lat="45.74389" lon="6.52372">
        <ele>1484.8</ele>
        <time>2021-07-11T12:20:41Z</time>
      </trkpt>
      <trkpt lat="45.74392" lon="6.52377">
        <ele>1484.4</ele>
        <time>2021-07-11T12:20:45Z</time>
      </trkpt>
      <trkpt lat="45.74394" lon="6.52383">
        <ele>1485.2</ele>
        <time>2021-07-11T12:20:49Z</time>
      </trkpt>
      <trkpt lat="45.74398" lon="6.52388">
        <ele>1485.4</ele>
        <time>2021-07-11T12:20:53Z</time>
      </trkpt>
      <trkpt lat="45.74402" lon="6.52392">
        <ele>1485.6</ele>
        <time>2021-07-11T12:20:57Z</time>
      </trkpt>
      <trkpt lat="45.74407" lon="6.52393">
        <ele>1485.8</ele>
        <time>2021-07-11T12:21:01Z</time>
      </trkpt>
      <trkpt lat="45.74412" lon="6.52393">
        <ele>1486.6</ele>
        <time>2021-07-11T12:21:05Z</time>
      </trkpt>
      <trkpt lat="45.74417" lon="6.52391">
        <ele>1487</ele>
        <time>2021-07-11T12:21:09Z</time>
      </trkpt>
      <trkpt lat="45.74421" lon="6.52387">
        <ele>1487.2</ele>
        <time>2021-07-11T12:21:13Z</time>
      </trkpt>
      <trkpt lat="45.74425" lon="6.52382">
        <ele>1487.4</ele>
        <time>2021-07-11T12:21:17Z</time>
      </trkpt>
      <trkpt lat="45.74426" lon="6.52375">
        <ele>1487.4</ele>
        <time>2021-07-11T12:21:21Z</time>
      </trkpt>
      <trkpt lat="45.74427" lon="6.52368">
        <ele>1488</ele>
        <time>2021-07-11T12:21:25Z</time>
      </trkpt>
      <trkpt lat="45.74426" lon="6.52362">
        <ele>1488.4</ele>
        <time>2021-07-11T12:21:29Z</time>
      </trkpt>
      <trkpt lat="45.74427" lon="6.52355">
        <ele>1488.8</ele>
        <time>2021-07-11T12:21:33Z</time>
      </trkpt>
      <trkpt lat="45.74425" lon="6.52348">
        <ele>1489.4</ele>
        <time>2021-07-11T12:21:37Z</time>
      </trkpt>
      <trkpt lat="45.74423" lon="6.52341">
        <ele>1490.2</ele>
        <time>2021-07-11T12:21:41Z</time>
      </trkpt>
      <trkpt lat="45.74421" lon="6.52335">
        <ele>1490.2</ele>
        <time>2021-07-11T12:21:45Z</time>
      </trkpt>
      <trkpt lat="45.74419" lon="6.52329">
        <ele>1490.6</ele>
        <time>2021-07-11T12:21:49Z</time>
      </trkpt>
      <trkpt lat="45.74415" lon="6.52324">
        <ele>1491.6</ele>
        <time>2021-07-11T12:21:53Z</time>
      </trkpt>
      <trkpt lat="45.74412" lon="6.52319">
        <ele>1492</ele>
        <time>2021-07-11T12:21:57Z</time>
      </trkpt>
      <trkpt lat="45.74409" lon="6.52315">
        <ele>1492.2</ele>
        <time>2021-07-11T12:22:01Z</time>
      </trkpt>
      <trkpt lat="45.74407" lon="6.5231">
        <ele>1493.2</ele>
        <time>2021-07-11T12:22:05Z</time>
      </trkpt>
      <trkpt lat="45.74404" lon="6.52305">
        <ele>1493.2</ele>
        <time>2021-07-11T12:22:09Z</time>
      </trkpt>
      <trkpt lat="45.74401" lon="6.52301">
        <ele>1493.4</ele>
        <time>2021-07-11T12:22:13Z</time>
      </trkpt>
      <trkpt lat="45.74398" lon="6.52297">
        <ele>1494.4</ele>
        <time>2021-07-11T12:22:17Z</time>
      </trkpt>
      <trkpt lat="45.74396" lon="6.52292">
        <ele>1494.4</ele>
        <time>2021-07-11T12:22:21Z</time>
      </trkpt>
      <trkpt lat="45.74393" lon="6.52287">
        <ele>1494.8</ele>
        <time>2021-07-11T12:22:25Z</time>
      </trkpt>
      <trkpt lat="45.74391" lon="6.52282">
        <ele>1495.6</ele>
        <time>2021-07-11T12:22:29Z</time>
      </trkpt>
      <trkpt lat="45.74389" lon="6.52276">
        <ele>1495.8</ele>
        <time>2021-07-11T12:22:33Z</time>
      </trkpt>
      <trkpt lat="45.74387" lon="6.52271">
        <ele>1496.2</ele>
        <time>2021-07-11T12:22:37Z</time>
      </trkpt>
      <trkpt lat="45.74385" lon="6.52265">
        <ele>1497</ele>
        <time>2021-07-11T12:22:41Z</time>
      </trkpt>
      <trkpt lat="45.74383" lon="6.52259">
        <ele>1496.6</ele>
        <time>2021-07-11T12:22:45Z</time>
      </trkpt>
      <trkpt lat="45.74381" lon="6.52253">
        <ele>1497.6</ele>
        <time>2021-07-11T12:22:49Z</time>
      </trkpt>
      <trkpt lat="45.74379" lon="6.52247">
        <ele>1497.6</ele>
        <time>2021-07-11T12:22:53Z</time>
      </trkpt>
      <trkpt lat="45.74378" lon="6.52241">
        <ele>1497.8</ele>
        <time>2021-07-11T12:22:57Z</time>
      </trkpt>
      <trkpt lat="45.74377" lon="6.52234">
        <ele>1498.6</ele>
        <time>2021-07-11T12:23:01Z</time>
      </trkpt>
      <trkpt lat="45.7438" lon="6.52226">
        <ele>1499.2</ele>
        <time>2021-07-11T12:23:45Z</time>
      </trkpt>
      <trkpt lat="45.74382" lon="6.52219">
        <ele>1499.8</ele>
        <time>2021-07-11T12:23:49Z</time>
      </trkpt>
      <trkpt lat="45.74384" lon="6.52212">
        <ele>1500</ele>
        <time>2021-07-11T12:23:53Z</time>
      </trkpt>
      <trkpt lat="45.74385" lon="6.52205">
        <ele>1500.2</ele>
        <time>2021-07-11T12:23:57Z</time>
      </trkpt>
      <trkpt lat="45.74385" lon="6.52198">
        <ele>1501</ele>
        <time>2021-07-11T12:24:01Z</time>
      </trkpt>
      <trkpt lat="45.74385" lon="6.52191">
        <ele>1501.4</ele>
        <time>2021-07-11T12:24:05Z</time>
      </trkpt>
      <trkpt lat="45.74383" lon="6.52186">
        <ele>1502</ele>
        <time>2021-07-11T12:24:09Z</time>
      </trkpt>
      <trkpt lat="45.74381" lon="6.5218">
        <ele>1502.2</ele>
        <time>2021-07-11T12:24:13Z</time>
      </trkpt>
      <trkpt lat="45.74378" lon="6.52175">
        <ele>1502.8</ele>
        <time>2021-07-11T12:24:17Z</time>
      </trkpt>
      <trkpt lat="45.74376" lon="6.5217">
        <ele>1503.4</ele>
        <time>2021-07-11T12:24:21Z</time>
      </trkpt>
      <trkpt lat="45.74374" lon="6.52165">
        <ele>1504.4</ele>
        <time>2021-07-11T12:24:25Z</time>
      </trkpt>
      <trkpt lat="45.74371" lon="6.5216">
        <ele>1504.8</ele>
        <time>2021-07-11T12:24:29Z</time>
      </trkpt>
      <trkpt lat="45.74367" lon="6.52156">
        <ele>1504.8</ele>
        <time>2021-07-11T12:24:33Z</time>
      </trkpt>
      <trkpt lat="45.74364" lon="6.52152">
        <ele>1505.6</ele>
        <time>2021-07-11T12:24:37Z</time>
      </trkpt>
      <trkpt lat="45.74362" lon="6.52147">
        <ele>1506</ele>
        <time>2021-07-11T12:24:41Z</time>
      </trkpt>
      <trkpt lat="45.74359" lon="6.52142">
        <ele>1506</ele>
        <time>2021-07-11T12:24:45Z</time>
      </trkpt>
      <trkpt lat="45.74356" lon="6.52138">
        <ele>1507</ele>
        <time>2021-07-11T12:24:49Z</time>
      </trkpt>
      <trkpt lat="45.74354" lon="6.52132">
        <ele>1507.6</ele>
        <time>2021-07-11T12:24:53Z</time>
      </trkpt>
      <trkpt lat="45.74351" lon="6.52127">
        <ele>1507.6</ele>
        <time>2021-07-11T12:24:57Z</time>
      </trkpt>
      <trkpt lat="45.7435" lon="6.52121">
        <ele>1508</ele>
        <time>2021-07-11T12:25:01Z</time>
      </trkpt>
      <trkpt lat="45.74348" lon="6.52115">
        <ele>1509</ele>
        <time>2021-07-11T12:25:05Z</time>
      </trkpt>
      <trkpt lat="45.74346" lon="6.52109">
        <ele>1509</ele>
        <time>2021-07-11T12:25:09Z</time>
      </trkpt>
      <trkpt lat="45.74343" lon="6.52102">
        <ele>1509.8</ele>
        <time>2021-07-11T12:25:13Z</time>
      </trkpt>
      <trkpt lat="45.74344" lon="6.52095">
        <ele>1510</ele>
        <time>2021-07-11T12:25:17Z</time>
      </trkpt>
      <trkpt lat="45.74346" lon="6.5209">
        <ele>1510.4</ele>
        <time>2021-07-11T12:25:21Z</time>
      </trkpt>
      <trkpt lat="45.7435" lon="6.52087">
        <ele>1510.6</ele>
        <time>2021-07-11T12:25:25Z</time>
      </trkpt>
      <trkpt lat="45.74355" lon="6.52088">
        <ele>1511.2</ele>
        <time>2021-07-11T12:25:29Z</time>
      </trkpt>
      <trkpt lat="45.7436" lon="6.5209">
        <ele>1511.2</ele>
        <time>2021-07-11T12:25:33Z</time>
      </trkpt>
      <trkpt lat="45.74365" lon="6.52092">
        <ele>1511.8</ele>
        <time>2021-07-11T12:25:37Z</time>
      </trkpt>
      <trkpt lat="45.74369" lon="6.52094">
        <ele>1512</ele>
        <time>2021-07-11T12:25:41Z</time>
      </trkpt>
      <trkpt lat="45.74374" lon="6.52096">
        <ele>1512.6</ele>
        <time>2021-07-11T12:25:45Z</time>
      </trkpt>
      <trkpt lat="45.74378" lon="6.52099">
        <ele>1513.2</ele>
        <time>2021-07-11T12:25:49Z</time>
      </trkpt>
      <trkpt lat="45.74382" lon="6.52101">
        <ele>1514</ele>
        <time>2021-07-11T12:25:53Z</time>
      </trkpt>
      <trkpt lat="45.74386" lon="6.52104">
        <ele>1514.4</ele>
        <time>2021-07-11T12:25:57Z</time>
      </trkpt>
      <trkpt lat="45.7439" lon="6.52108">
        <ele>1514.2</ele>
        <time>2021-07-11T12:26:01Z</time>
      </trkpt>
      <trkpt lat="45.74394" lon="6.52111">
        <ele>1515.2</ele>
        <time>2021-07-11T12:26:05Z</time>
      </trkpt>
      <trkpt lat="45.74398" lon="6.52114">
        <ele>1516.2</ele>
        <time>2021-07-11T12:26:09Z</time>
      </trkpt>
      <trkpt lat="45.74401" lon="6.52118">
        <ele>1516.4</ele>
        <time>2021-07-11T12:26:13Z</time>
      </trkpt>
      <trkpt lat="45.74405" lon="6.52122">
        <ele>1517.4</ele>
        <time>2021-07-11T12:26:17Z</time>
      </trkpt>
      <trkpt lat="45.74408" lon="6.52125">
        <ele>1517.2</ele>
        <time>2021-07-11T12:26:21Z</time>
      </trkpt>
      <trkpt lat="45.74412" lon="6.52129">
        <ele>1517.6</ele>
        <time>2021-07-11T12:26:25Z</time>
      </trkpt>
      <trkpt lat="45.74415" lon="6.52132">
        <ele>1518</ele>
        <time>2021-07-11T12:26:29Z</time>
      </trkpt>
      <trkpt lat="45.74418" lon="6.52136">
        <ele>1518.6</ele>
        <time>2021-07-11T12:26:33Z</time>
      </trkpt>
      <trkpt lat="45.74421" lon="6.52141">
        <ele>1519</ele>
        <time>2021-07-11T12:26:37Z</time>
      </trkpt>
      <trkpt lat="45.74424" lon="6.52145">
        <ele>1519.2</ele>
        <time>2021-07-11T12:26:41Z</time>
      </trkpt>
      <trkpt lat="45.74427" lon="6.5215">
        <ele>1520.4</ele>
        <time>2021-07-11T12:26:45Z</time>
      </trkpt>
      <trkpt lat="45.7443" lon="6.52155">
        <ele>1521</ele>
        <time>2021-07-11T12:26:49Z</time>
      </trkpt>
      <trkpt lat="45.74432" lon="6.52161">
        <ele>1521.8</ele>
        <time>2021-07-11T12:26:53Z</time>
      </trkpt>
      <trkpt lat="45.74434" lon="6.52166">
        <ele>1522.2</ele>
        <time>2021-07-11T12:26:57Z</time>
      </trkpt>
      <trkpt lat="45.74436" lon="6.52172">
        <ele>1522</ele>
        <time>2021-07-11T12:27:01Z</time>
      </trkpt>
      <trkpt lat="45.74438" lon="6.52176">
        <ele>1522.2</ele>
        <time>2021-07-11T12:27:05Z</time>
      </trkpt>
      <trkpt lat="45.74442" lon="6.52179">
        <ele>1523</ele>
        <time>2021-07-11T12:27:09Z</time>
      </trkpt>
      <trkpt lat="45.74446" lon="6.5218">
        <ele>1522.8</ele>
        <time>2021-07-11T12:27:13Z</time>
      </trkpt>
      <trkpt lat="45.74451" lon="6.52178">
        <ele>1523</ele>
        <time>2021-07-11T12:27:17Z</time>
      </trkpt>
      <trkpt lat="45.74453" lon="6.52172">
        <ele>1523.6</ele>
        <time>2021-07-11T12:27:21Z</time>
      </trkpt>
      <trkpt lat="45.74453" lon="6.52166">
        <ele>1524.4</ele>
        <time>2021-07-11T12:27:25Z</time>
      </trkpt>
      <trkpt lat="45.74454" lon="6.52159">
        <ele>1525.4</ele>
        <time>2021-07-11T12:27:29Z</time>
      </trkpt>
      <trkpt lat="45.74455" lon="6.52153">
        <ele>1525.2</ele>
        <time>2021-07-11T12:27:33Z</time>
      </trkpt>
      <trkpt lat="45.74456" lon="6.52147">
        <ele>1525.4</ele>
        <time>2021-07-11T12:27:37Z</time>
      </trkpt>
      <trkpt lat="45.74457" lon="6.52141">
        <ele>1526</ele>
        <time>2021-07-11T12:27:41Z</time>
      </trkpt>
      <trkpt lat="45.74458" lon="6.52136">
        <ele>1526.2</ele>
        <time>2021-07-11T12:27:45Z</time>
      </trkpt>
      <trkpt lat="45.74459" lon="6.5213">
        <ele>1527</ele>
        <time>2021-07-11T12:27:49Z</time>
      </trkpt>
      <trkpt lat="45.7446" lon="6.52124">
        <ele>1527.4</ele>
        <time>2021-07-11T12:27:53Z</time>
      </trkpt>
      <trkpt lat="45.74461" lon="6.52119">
        <ele>1527.4</ele>
        <time>2021-07-11T12:27:57Z</time>
      </trkpt>
      <trkpt lat="45.74463" lon="6.52113">
        <ele>1528.4</ele>
        <time>2021-07-11T12:28:01Z</time>
      </trkpt>
      <trkpt lat="45.74464" lon="6.52107">
        <ele>1529</ele>
        <time>2021-07-11T12:28:05Z</time>
      </trkpt>
      <trkpt lat="45.74465" lon="6.52101">
        <ele>1529</ele>
        <time>2021-07-11T12:28:09Z</time>
      </trkpt>
      <trkpt lat="45.74466" lon="6.52094">
        <ele>1529.6</ele>
        <time>2021-07-11T12:28:13Z</time>
      </trkpt>
      <trkpt lat="45.74466" lon="6.52088">
        <ele>1529.6</ele>
        <time>2021-07-11T12:28:17Z</time>
      </trkpt>
      <trkpt lat="45.74468" lon="6.52081">
        <ele>1530.2</ele>
        <time>2021-07-11T12:28:21Z</time>
      </trkpt>
      <trkpt lat="45.74469" lon="6.52074">
        <ele>1530.8</ele>
        <time>2021-07-11T12:28:25Z</time>
      </trkpt>
      <trkpt lat="45.7447" lon="6.52068">
        <ele>1531.2</ele>
        <time>2021-07-11T12:28:29Z</time>
      </trkpt>
      <trkpt lat="45.74471" lon="6.52061">
        <ele>1531.6</ele>
        <time>2021-07-11T12:28:33Z</time>
      </trkpt>
      <trkpt lat="45.74471" lon="6.52054">
        <ele>1531.6</ele>
        <time>2021-07-11T12:28:37Z</time>
      </trkpt>
      <trkpt lat="45.74472" lon="6.52047">
        <ele>1532.4</ele>
        <time>2021-07-11T12:28:41Z</time>
      </trkpt>
      <trkpt lat="45.74472" lon="6.5204">
        <ele>1532.6</ele>
        <time>2021-07-11T12:28:45Z</time>
      </trkpt>
      <trkpt lat="45.74473" lon="6.52034">
        <ele>1533.6</ele>
        <time>2021-07-11T12:28:49Z</time>
      </trkpt>
      <trkpt lat="45.74473" lon="6.52027">
        <ele>1533.2</ele>
        <time>2021-07-11T12:28:53Z</time>
      </trkpt>
      <trkpt lat="45.74473" lon="6.52021">
        <ele>1533.6</ele>
        <time>2021-07-11T12:28:57Z</time>
      </trkpt>
      <trkpt lat="45.74472" lon="6.52016">
        <ele>1534.6</ele>
        <time>2021-07-11T12:29:01Z</time>
      </trkpt>
      <trkpt lat="45.74471" lon="6.5201">
        <ele>1535</ele>
        <time>2021-07-11T12:29:05Z</time>
      </trkpt>
      <trkpt lat="45.74471" lon="6.52004">
        <ele>1535.4</ele>
        <time>2021-07-11T12:29:09Z</time>
      </trkpt>
      <trkpt lat="45.7447" lon="6.51997">
        <ele>1535.4</ele>
        <time>2021-07-11T12:29:13Z</time>
      </trkpt>
      <trkpt lat="45.74469" lon="6.5199">
        <ele>1536.2</ele>
        <time>2021-07-11T12:29:17Z</time>
      </trkpt>
      <trkpt lat="45.74468" lon="6.51984">
        <ele>1536.8</ele>
        <time>2021-07-11T12:29:21Z</time>
      </trkpt>
      <trkpt lat="45.74466" lon="6.51978">
        <ele>1536.8</ele>
        <time>2021-07-11T12:29:25Z</time>
      </trkpt>
      <trkpt lat="45.74464" lon="6.51973">
        <ele>1538</ele>
        <time>2021-07-11T12:29:29Z</time>
      </trkpt>
      <trkpt lat="45.74464" lon="6.51966">
        <ele>1538</ele>
        <time>2021-07-11T12:29:33Z</time>
      </trkpt>
      <trkpt lat="45.74463" lon="6.5196">
        <ele>1538.6</ele>
        <time>2021-07-11T12:29:37Z</time>
      </trkpt>
      <trkpt lat="45.74461" lon="6.51954">
        <ele>1538.6</ele>
        <time>2021-07-11T12:29:41Z</time>
      </trkpt>
      <trkpt lat="45.74459" lon="6.51947">
        <ele>1539.4</ele>
        <time>2021-07-11T12:29:45Z</time>
      </trkpt>
      <trkpt lat="45.74458" lon="6.51939">
        <ele>1539</ele>
        <time>2021-07-11T12:29:49Z</time>
      </trkpt>
      <trkpt lat="45.74454" lon="6.51931">
        <ele>1539.2</ele>
        <time>2021-07-11T12:29:53Z</time>
      </trkpt>
      <trkpt lat="45.7445" lon="6.51924">
        <ele>1539.6</ele>
        <time>2021-07-11T12:29:57Z</time>
      </trkpt>
      <trkpt lat="45.74446" lon="6.51918">
        <ele>1539.8</ele>
        <time>2021-07-11T12:30:01Z</time>
      </trkpt>
      <trkpt lat="45.74441" lon="6.51912">
        <ele>1540.2</ele>
        <time>2021-07-11T12:30:05Z</time>
      </trkpt>
      <trkpt lat="45.74436" lon="6.51907">
        <ele>1540.4</ele>
        <time>2021-07-11T12:30:09Z</time>
      </trkpt>
      <trkpt lat="45.74431" lon="6.51902">
        <ele>1540.8</ele>
        <time>2021-07-11T12:30:13Z</time>
      </trkpt>
      <trkpt lat="45.74426" lon="6.51897">
        <ele>1540.8</ele>
        <time>2021-07-11T12:30:17Z</time>
      </trkpt>
      <trkpt lat="45.74421" lon="6.51891">
        <ele>1541.6</ele>
        <time>2021-07-11T12:30:21Z</time>
      </trkpt>
      <trkpt lat="45.74416" lon="6.51886">
        <ele>1542</ele>
        <time>2021-07-11T12:30:25Z</time>
      </trkpt>
      <trkpt lat="45.74412" lon="6.51881">
        <ele>1542.2</ele>
        <time>2021-07-11T12:30:29Z</time>
      </trkpt>
      <trkpt lat="45.74407" lon="6.51874">
        <ele>1542</ele>
        <time>2021-07-11T12:30:33Z</time>
      </trkpt>
      <trkpt lat="45.74404" lon="6.51866">
        <ele>1542.4</ele>
        <time>2021-07-11T12:30:37Z</time>
      </trkpt>
      <trkpt lat="45.74403" lon="6.51857">
        <ele>1542.4</ele>
        <time>2021-07-11T12:30:41Z</time>
      </trkpt>
      <trkpt lat="45.74405" lon="6.51848">
        <ele>1543</ele>
        <time>2021-07-11T12:30:45Z</time>
      </trkpt>
      <trkpt lat="45.74409" lon="6.51839">
        <ele>1543.4</ele>
        <time>2021-07-11T12:30:49Z</time>
      </trkpt>
      <trkpt lat="45.74414" lon="6.51832">
        <ele>1543.2</ele>
        <time>2021-07-11T12:30:53Z</time>
      </trkpt>
      <trkpt lat="45.74419" lon="6.51823">
        <ele>1543.6</ele>
        <time>2021-07-11T12:30:57Z</time>
      </trkpt>
      <trkpt lat="45.74423" lon="6.51814">
        <ele>1544.2</ele>
        <time>2021-07-11T12:31:01Z</time>
      </trkpt>
      <trkpt lat="45.74425" lon="6.51805">
        <ele>1544.4</ele>
        <time>2021-07-11T12:31:05Z</time>
      </trkpt>
      <trkpt lat="45.74426" lon="6.51796">
        <ele>1545.2</ele>
        <time>2021-07-11T12:31:09Z</time>
      </trkpt>
      <trkpt lat="45.74427" lon="6.51788">
        <ele>1545.2</ele>
        <time>2021-07-11T12:31:13Z</time>
      </trkpt>
      <trkpt lat="45.74428" lon="6.51779">
        <ele>1545.8</ele>
        <time>2021-07-11T12:31:17Z</time>
      </trkpt>
      <trkpt lat="45.74428" lon="6.51771">
        <ele>1546</ele>
        <time>2021-07-11T12:31:21Z</time>
      </trkpt>
      <trkpt lat="45.74427" lon="6.51762">
        <ele>1546.8</ele>
        <time>2021-07-11T12:31:25Z</time>
      </trkpt>
      <trkpt lat="45.74424" lon="6.51752">
        <ele>1547.2</ele>
        <time>2021-07-11T12:31:29Z</time>
      </trkpt>
      <trkpt lat="45.74423" lon="6.51744">
        <ele>1547.4</ele>
        <time>2021-07-11T12:31:33Z</time>
      </trkpt>
      <trkpt lat="45.7442" lon="6.51735">
        <ele>1548.6</ele>
        <time>2021-07-11T12:31:37Z</time>
      </trkpt>
      <trkpt lat="45.74418" lon="6.51727">
        <ele>1549</ele>
        <time>2021-07-11T12:31:41Z</time>
      </trkpt>
      <trkpt lat="45.74417" lon="6.51719">
        <ele>1549</ele>
        <time>2021-07-11T12:31:45Z</time>
      </trkpt>
      <trkpt lat="45.74416" lon="6.5171">
        <ele>1550</ele>
        <time>2021-07-11T12:31:49Z</time>
      </trkpt>
      <trkpt lat="45.74414" lon="6.51703">
        <ele>1549.6</ele>
        <time>2021-07-11T12:31:53Z</time>
      </trkpt>
      <trkpt lat="45.74412" lon="6.51693">
        <ele>1550.2</ele>
        <time>2021-07-11T12:31:57Z</time>
      </trkpt>
      <trkpt lat="45.74409" lon="6.51685">
        <ele>1550.6</ele>
        <time>2021-07-11T12:32:01Z</time>
      </trkpt>
      <trkpt lat="45.74408" lon="6.51677">
        <ele>1551.8</ele>
        <time>2021-07-11T12:32:05Z</time>
      </trkpt>
      <trkpt lat="45.74405" lon="6.51668">
        <ele>1551.8</ele>
        <time>2021-07-11T12:32:09Z</time>
      </trkpt>
      <trkpt lat="45.74402" lon="6.51662">
        <ele>1552</ele>
        <time>2021-07-11T12:32:13Z</time>
      </trkpt>
      <trkpt lat="45.74398" lon="6.51655">
        <ele>1553.2</ele>
        <time>2021-07-11T12:32:17Z</time>
      </trkpt>
      <trkpt lat="45.744" lon="6.51641">
        <ele>1553.6</ele>
        <time>2021-07-11T12:33:50Z</time>
      </trkpt>
      <trkpt lat="45.74404" lon="6.51645">
        <ele>1554.2</ele>
        <time>2021-07-11T12:33:54Z</time>
      </trkpt>
      <trkpt lat="45.74407" lon="6.51649">
        <ele>1554.6</ele>
        <time>2021-07-11T12:33:58Z</time>
      </trkpt>
      <trkpt lat="45.74411" lon="6.51652">
        <ele>1554.8</ele>
        <time>2021-07-11T12:34:02Z</time>
      </trkpt>
      <trkpt lat="45.74413" lon="6.51657">
        <ele>1556</ele>
        <time>2021-07-11T12:34:06Z</time>
      </trkpt>
      <trkpt lat="45.74416" lon="6.51663">
        <ele>1557.2</ele>
        <time>2021-07-11T12:34:10Z</time>
      </trkpt>
      <trkpt lat="45.7442" lon="6.51668">
        <ele>1557.4</ele>
        <time>2021-07-11T12:34:14Z</time>
      </trkpt>
      <trkpt lat="45.74422" lon="6.51674">
        <ele>1558</ele>
        <time>2021-07-11T12:34:18Z</time>
      </trkpt>
      <trkpt lat="45.74425" lon="6.5168">
        <ele>1559</ele>
        <time>2021-07-11T12:34:22Z</time>
      </trkpt>
      <trkpt lat="45.74428" lon="6.51686">
        <ele>1559.6</ele>
        <time>2021-07-11T12:34:26Z</time>
      </trkpt>
      <trkpt lat="45.7443" lon="6.51694">
        <ele>1559.6</ele>
        <time>2021-07-11T12:34:30Z</time>
      </trkpt>
      <trkpt lat="45.74432" lon="6.517">
        <ele>1560.6</ele>
        <time>2021-07-11T12:34:34Z</time>
      </trkpt>
      <trkpt lat="45.74432" lon="6.517">
        <ele>1560.4</ele>
        <time>2021-07-11T12:34:38Z</time>
      </trkpt>
      <trkpt lat="45.74434" lon="6.51708">
        <ele>1561.2</ele>
        <time>2021-07-11T12:34:42Z</time>
      </trkpt>
      <trkpt lat="45.74437" lon="6.51713">
        <ele>1561.4</ele>
        <time>2021-07-11T12:34:46Z</time>
      </trkpt>
      <trkpt lat="45.74438" lon="6.51719">
        <ele>1562</ele>
        <time>2021-07-11T12:34:50Z</time>
      </trkpt>
      <trkpt lat="45.7444" lon="6.51726">
        <ele>1562.6</ele>
        <time>2021-07-11T12:34:54Z</time>
      </trkpt>
      <trkpt lat="45.74442" lon="6.51733">
        <ele>1563.2</ele>
        <time>2021-07-11T12:34:58Z</time>
      </trkpt>
      <trkpt lat="45.74443" lon="6.5174">
        <ele>1563.6</ele>
        <time>2021-07-11T12:35:02Z</time>
      </trkpt>
      <trkpt lat="45.74445" lon="6.51747">
        <ele>1564.4</ele>
        <time>2021-07-11T12:35:06Z</time>
      </trkpt>
      <trkpt lat="45.74448" lon="6.51753">
        <ele>1565</ele>
        <time>2021-07-11T12:35:10Z</time>
      </trkpt>
      <trkpt lat="45.7445" lon="6.51759">
        <ele>1565.8</ele>
        <time>2021-07-11T12:35:14Z</time>
      </trkpt>
      <trkpt lat="45.74452" lon="6.51766">
        <ele>1566.4</ele>
        <time>2021-07-11T12:35:18Z</time>
      </trkpt>
      <trkpt lat="45.74454" lon="6.51772">
        <ele>1566.6</ele>
        <time>2021-07-11T12:35:22Z</time>
      </trkpt>
      <trkpt lat="45.74456" lon="6.51778">
        <ele>1566.8</ele>
        <time>2021-07-11T12:35:26Z</time>
      </trkpt>
      <trkpt lat="45.74459" lon="6.51784">
        <ele>1567.4</ele>
        <time>2021-07-11T12:35:30Z</time>
      </trkpt>
      <trkpt lat="45.74462" lon="6.5179">
        <ele>1568.2</ele>
        <time>2021-07-11T12:35:34Z</time>
      </trkpt>
      <trkpt lat="45.74465" lon="6.51797">
        <ele>1568.4</ele>
        <time>2021-07-11T12:35:38Z</time>
      </trkpt>
      <trkpt lat="45.74468" lon="6.51801">
        <ele>1569</ele>
        <time>2021-07-11T12:35:42Z</time>
      </trkpt>
      <trkpt lat="45.74473" lon="6.51806">
        <ele>1569.8</ele>
        <time>2021-07-11T12:35:46Z</time>
      </trkpt>
      <trkpt lat="45.74476" lon="6.51812">
        <ele>1569.8</ele>
        <time>2021-07-11T12:35:50Z</time>
      </trkpt>
      <trkpt lat="45.74479" lon="6.51819">
        <ele>1570.4</ele>
        <time>2021-07-11T12:35:54Z</time>
      </trkpt>
      <trkpt lat="45.74482" lon="6.51825">
        <ele>1571.4</ele>
        <time>2021-07-11T12:35:58Z</time>
      </trkpt>
      <trkpt lat="45.74485" lon="6.51831">
        <ele>1571.6</ele>
        <time>2021-07-11T12:36:02Z</time>
      </trkpt>
      <trkpt lat="45.74489" lon="6.51836">
        <ele>1572.4</ele>
        <time>2021-07-11T12:36:06Z</time>
      </trkpt>
      <trkpt lat="45.74492" lon="6.51842">
        <ele>1572.8</ele>
        <time>2021-07-11T12:36:10Z</time>
      </trkpt>
      <trkpt lat="45.74493" lon="6.5185">
        <ele>1573.4</ele>
        <time>2021-07-11T12:36:14Z</time>
      </trkpt>
      <trkpt lat="45.74496" lon="6.51856">
        <ele>1574</ele>
        <time>2021-07-11T12:36:18Z</time>
      </trkpt>
      <trkpt lat="45.745" lon="6.51862">
        <ele>1574.4</ele>
        <time>2021-07-11T12:36:22Z</time>
      </trkpt>
      <trkpt lat="45.74503" lon="6.51867">
        <ele>1574.8</ele>
        <time>2021-07-11T12:36:26Z</time>
      </trkpt>
      <trkpt lat="45.74507" lon="6.51873">
        <ele>1575.8</ele>
        <time>2021-07-11T12:36:30Z</time>
      </trkpt>
      <trkpt lat="45.74511" lon="6.51878">
        <ele>1575.8</ele>
        <time>2021-07-11T12:36:34Z</time>
      </trkpt>
      <trkpt lat="45.74516" lon="6.51882">
        <ele>1576.4</ele>
        <time>2021-07-11T12:36:38Z</time>
      </trkpt>
      <trkpt lat="45.7452" lon="6.51887">
        <ele>1577</ele>
        <time>2021-07-11T12:36:42Z</time>
      </trkpt>
      <trkpt lat="45.74524" lon="6.5189">
        <ele>1577.6</ele>
        <time>2021-07-11T12:36:46Z</time>
      </trkpt>
      <trkpt lat="45.74528" lon="6.51895">
        <ele>1578</ele>
        <time>2021-07-11T12:36:50Z</time>
      </trkpt>
      <trkpt lat="45.74533" lon="6.519">
        <ele>1578.6</ele>
        <time>2021-07-11T12:36:54Z</time>
      </trkpt>
      <trkpt lat="45.74538" lon="6.51904">
        <ele>1579</ele>
        <time>2021-07-11T12:36:58Z</time>
      </trkpt>
      <trkpt lat="45.74543" lon="6.51907">
        <ele>1579.4</ele>
        <time>2021-07-11T12:37:02Z</time>
      </trkpt>
      <trkpt lat="45.74548" lon="6.51912">
        <ele>1579.8</ele>
        <time>2021-07-11T12:37:06Z</time>
      </trkpt>
      <trkpt lat="45.74553" lon="6.51918">
        <ele>1580</ele>
        <time>2021-07-11T12:37:10Z</time>
      </trkpt>
      <trkpt lat="45.74558" lon="6.51921">
        <ele>1580.6</ele>
        <time>2021-07-11T12:37:14Z</time>
      </trkpt>
      <trkpt lat="45.74564" lon="6.51924">
        <ele>1581.2</ele>
        <time>2021-07-11T12:37:18Z</time>
      </trkpt>
      <trkpt lat="45.74567" lon="6.51929">
        <ele>1581.8</ele>
        <time>2021-07-11T12:37:22Z</time>
      </trkpt>
      <trkpt lat="45.74571" lon="6.51934">
        <ele>1582.6</ele>
        <time>2021-07-11T12:37:26Z</time>
      </trkpt>
      <trkpt lat="45.74574" lon="6.51939">
        <ele>1583</ele>
        <time>2021-07-11T12:37:30Z</time>
      </trkpt>
      <trkpt lat="45.74577" lon="6.51943">
        <ele>1583</ele>
        <time>2021-07-11T12:37:34Z</time>
      </trkpt>
      <trkpt lat="45.74581" lon="6.51948">
        <ele>1584.2</ele>
        <time>2021-07-11T12:37:38Z</time>
      </trkpt>
      <trkpt lat="45.74583" lon="6.51954">
        <ele>1584.6</ele>
        <time>2021-07-11T12:37:42Z</time>
      </trkpt>
      <trkpt lat="45.74586" lon="6.51959">
        <ele>1585.4</ele>
        <time>2021-07-11T12:37:46Z</time>
      </trkpt>
      <trkpt lat="45.74588" lon="6.51964">
        <ele>1585.6</ele>
        <time>2021-07-11T12:37:50Z</time>
      </trkpt>
      <trkpt lat="45.7459" lon="6.5197">
        <ele>1585.6</ele>
        <time>2021-07-11T12:37:54Z</time>
      </trkpt>
      <trkpt lat="45.74592" lon="6.51976">
        <ele>1586.6</ele>
        <time>2021-07-11T12:37:58Z</time>
      </trkpt>
      <trkpt lat="45.74594" lon="6.51982">
        <ele>1587</ele>
        <time>2021-07-11T12:38:02Z</time>
      </trkpt>
      <trkpt lat="45.74595" lon="6.51987">
        <ele>1587.4</ele>
        <time>2021-07-11T12:38:06Z</time>
      </trkpt>
      <trkpt lat="45.74596" lon="6.51993">
        <ele>1588</ele>
        <time>2021-07-11T12:38:10Z</time>
      </trkpt>
      <trkpt lat="45.74598" lon="6.51998">
        <ele>1588.6</ele>
        <time>2021-07-11T12:38:14Z</time>
      </trkpt>
      <trkpt lat="45.74601" lon="6.52004">
        <ele>1589.4</ele>
        <time>2021-07-11T12:38:18Z</time>
      </trkpt>
      <trkpt lat="45.74603" lon="6.52009">
        <ele>1589.2</ele>
        <time>2021-07-11T12:38:22Z</time>
      </trkpt>
      <trkpt lat="45.74605" lon="6.52014">
        <ele>1590</ele>
        <time>2021-07-11T12:38:26Z</time>
      </trkpt>
      <trkpt lat="45.74608" lon="6.52019">
        <ele>1590.4</ele>
        <time>2021-07-11T12:38:30Z</time>
      </trkpt>
      <trkpt lat="45.74611" lon="6.52024">
        <ele>1591.2</ele>
        <time>2021-07-11T12:38:34Z</time>
      </trkpt>
      <trkpt lat="45.74614" lon="6.52028">
        <ele>1591.6</ele>
        <time>2021-07-11T12:38:38Z</time>
      </trkpt>
      <trkpt lat="45.74617" lon="6.52033">
        <ele>1591.2</ele>
        <time>2021-07-11T12:38:42Z</time>
      </trkpt>
      <trkpt lat="45.7462" lon="6.52038">
        <ele>1592.4</ele>
        <time>2021-07-11T12:38:46Z</time>
      </trkpt>
      <trkpt lat="45.74622" lon="6.52042">
        <ele>1592.4</ele>
        <time>2021-07-11T12:38:50Z</time>
      </trkpt>
      <trkpt lat="45.74623" lon="6.5205">
        <ele>1593</ele>
        <time>2021-07-11T12:38:54Z</time>
      </trkpt>
      <trkpt lat="45.74624" lon="6.52057">
        <ele>1593.6</ele>
        <time>2021-07-11T12:38:58Z</time>
      </trkpt>
      <trkpt lat="45.74625" lon="6.52063">
        <ele>1594.2</ele>
        <time>2021-07-11T12:39:02Z</time>
      </trkpt>
      <trkpt lat="45.74625" lon="6.52069">
        <ele>1594.4</ele>
        <time>2021-07-11T12:39:06Z</time>
      </trkpt>
      <trkpt lat="45.74625" lon="6.52075">
        <ele>1595.2</ele>
        <time>2021-07-11T12:39:10Z</time>
      </trkpt>
      <trkpt lat="45.74624" lon="6.52081">
        <ele>1595.6</ele>
        <time>2021-07-11T12:39:14Z</time>
      </trkpt>
      <trkpt lat="45.74626" lon="6.52088">
        <ele>1596.6</ele>
        <time>2021-07-11T12:39:18Z</time>
      </trkpt>
      <trkpt lat="45.74627" lon="6.52095">
        <ele>1596.6</ele>
        <time>2021-07-11T12:39:22Z</time>
      </trkpt>
      <trkpt lat="45.74629" lon="6.52101">
        <ele>1596.8</ele>
        <time>2021-07-11T12:39:26Z</time>
      </trkpt>
      <trkpt lat="45.7463" lon="6.52108">
        <ele>1598</ele>
        <time>2021-07-11T12:39:30Z</time>
      </trkpt>
      <trkpt lat="45.74632" lon="6.52114">
        <ele>1597.4</ele>
        <time>2021-07-11T12:39:34Z</time>
      </trkpt>
      <trkpt lat="45.74634" lon="6.5212">
        <ele>1597.8</ele>
        <time>2021-07-11T12:39:38Z</time>
      </trkpt>
      <trkpt lat="45.74636" lon="6.52126">
        <ele>1598.2</ele>
        <time>2021-07-11T12:39:42Z</time>
      </trkpt>
      <trkpt lat="45.74639" lon="6.52132">
        <ele>1599</ele>
        <time>2021-07-11T12:39:46Z</time>
      </trkpt>
      <trkpt lat="45.74642" lon="6.52136">
        <ele>1599.2</ele>
        <time>2021-07-11T12:39:50Z</time>
      </trkpt>
      <trkpt lat="45.74645" lon="6.52142">
        <ele>1599.8</ele>
        <time>2021-07-11T12:39:54Z</time>
      </trkpt>
      <trkpt lat="45.74647" lon="6.52148">
        <ele>1600.6</ele>
        <time>2021-07-11T12:39:58Z</time>
      </trkpt>
      <trkpt lat="45.74649" lon="6.52154">
        <ele>1601</ele>
        <time>2021-07-11T12:40:02Z</time>
      </trkpt>
      <trkpt lat="45.74651" lon="6.5216">
        <ele>1601.8</ele>
        <time>2021-07-11T12:40:06Z</time>
      </trkpt>
      <trkpt lat="45.74653" lon="6.52165">
        <ele>1602.4</ele>
        <time>2021-07-11T12:40:10Z</time>
      </trkpt>
      <trkpt lat="45.74654" lon="6.52171">
        <ele>1602.4</ele>
        <time>2021-07-11T12:40:14Z</time>
      </trkpt>
      <trkpt lat="45.74654" lon="6.52178">
        <ele>1603</ele>
        <time>2021-07-11T12:40:18Z</time>
      </trkpt>
      <trkpt lat="45.74654" lon="6.52184">
        <ele>1603.4</ele>
        <time>2021-07-11T12:40:22Z</time>
      </trkpt>
      <trkpt lat="45.74654" lon="6.5219">
        <ele>1604</ele>
        <time>2021-07-11T12:40:26Z</time>
      </trkpt>
      <trkpt lat="45.74652" lon="6.52196">
        <ele>1604.8</ele>
        <time>2021-07-11T12:40:30Z</time>
      </trkpt>
      <trkpt lat="45.74651" lon="6.52203">
        <ele>1605.6</ele>
        <time>2021-07-11T12:40:34Z</time>
      </trkpt>
      <trkpt lat="45.74651" lon="6.52209">
        <ele>1605.4</ele>
        <time>2021-07-11T12:40:38Z</time>
      </trkpt>
      <trkpt lat="45.74651" lon="6.52215">
        <ele>1606.2</ele>
        <time>2021-07-11T12:40:42Z</time>
      </trkpt>
      <trkpt lat="45.74651" lon="6.52223">
        <ele>1606.4</ele>
        <time>2021-07-11T12:40:46Z</time>
      </trkpt>
      <trkpt lat="45.74651" lon="6.5223">
        <ele>1606.4</ele>
        <time>2021-07-11T12:40:50Z</time>
      </trkpt>
      <trkpt lat="45.74651" lon="6.52237">
        <ele>1606.6</ele>
        <time>2021-07-11T12:40:54Z</time>
      </trkpt>
      <trkpt lat="45.74651" lon="6.52243">
        <ele>1607.6</ele>
        <time>2021-07-11T12:40:58Z</time>
      </trkpt>
      <trkpt lat="45.74651" lon="6.5225">
        <ele>1608.2</ele>
        <time>2021-07-11T12:41:02Z</time>
      </trkpt>
      <trkpt lat="45.74652" lon="6.52257">
        <ele>1608.6</ele>
        <time>2021-07-11T12:41:06Z</time>
      </trkpt>
      <trkpt lat="45.74652" lon="6.52263">
        <ele>1609</ele>
        <time>2021-07-11T12:41:10Z</time>
      </trkpt>
      <trkpt lat="45.74653" lon="6.5227">
        <ele>1609.8</ele>
        <time>2021-07-11T12:41:14Z</time>
      </trkpt>
      <trkpt lat="45.74653" lon="6.52277">
        <ele>1610.4</ele>
        <time>2021-07-11T12:41:18Z</time>
      </trkpt>
      <trkpt lat="45.74653" lon="6.52284">
        <ele>1610.6</ele>
        <time>2021-07-11T12:41:22Z</time>
      </trkpt>
      <trkpt lat="45.74653" lon="6.52291">
        <ele>1611.4</ele>
        <time>2021-07-11T12:41:26Z</time>
      </trkpt>
      <trkpt lat="45.74653" lon="6.52298">
        <ele>1611.6</ele>
        <time>2021-07-11T12:41:30Z</time>
      </trkpt>
      <trkpt lat="45.74652" lon="6.52305">
        <ele>1611.8</ele>
        <time>2021-07-11T12:41:34Z</time>
      </trkpt>
      <trkpt lat="45.74651" lon="6.52312">
        <ele>1612.4</ele>
        <time>2021-07-11T12:41:38Z</time>
      </trkpt>
      <trkpt lat="45.7465" lon="6.52319">
        <ele>1612.4</ele>
        <time>2021-07-11T12:41:42Z</time>
      </trkpt>
      <trkpt lat="45.74648" lon="6.52325">
        <ele>1612.6</ele>
        <time>2021-07-11T12:41:46Z</time>
      </trkpt>
      <trkpt lat="45.74647" lon="6.52332">
        <ele>1613</ele>
        <time>2021-07-11T12:41:50Z</time>
      </trkpt>
      <trkpt lat="45.74645" lon="6.52339">
        <ele>1613.8</ele>
        <time>2021-07-11T12:41:54Z</time>
      </trkpt>
      <trkpt lat="45.74644" lon="6.52345">
        <ele>1614</ele>
        <time>2021-07-11T12:41:58Z</time>
      </trkpt>
      <trkpt lat="45.74643" lon="6.52351">
        <ele>1614.6</ele>
        <time>2021-07-11T12:42:02Z</time>
      </trkpt>
      <trkpt lat="45.74641" lon="6.52358">
        <ele>1614.8</ele>
        <time>2021-07-11T12:42:06Z</time>
      </trkpt>
      <trkpt lat="45.7464" lon="6.52364">
        <ele>1615.6</ele>
        <time>2021-07-11T12:42:10Z</time>
      </trkpt>
      <trkpt lat="45.74639" lon="6.52371">
        <ele>1616.2</ele>
        <time>2021-07-11T12:42:14Z</time>
      </trkpt>
      <trkpt lat="45.74634" lon="6.5239">
        <ele>1617</ele>
        <time>2021-07-11T12:42:51Z</time>
      </trkpt>
      <trkpt lat="45.74634" lon="6.52398">
        <ele>1617.4</ele>
        <time>2021-07-11T12:42:55Z</time>
      </trkpt>
      <trkpt lat="45.74634" lon="6.52405">
        <ele>1617.8</ele>
        <time>2021-07-11T12:42:59Z</time>
      </trkpt>
      <trkpt lat="45.74634" lon="6.52412">
        <ele>1618.8</ele>
        <time>2021-07-11T12:43:03Z</time>
      </trkpt>
      <trkpt lat="45.74635" lon="6.52418">
        <ele>1619.4</ele>
        <time>2021-07-11T12:43:07Z</time>
      </trkpt>
      <trkpt lat="45.74636" lon="6.52425">
        <ele>1619.6</ele>
        <time>2021-07-11T12:43:11Z</time>
      </trkpt>
      <trkpt lat="45.74636" lon="6.52432">
        <ele>1620</ele>
        <time>2021-07-11T12:43:15Z</time>
      </trkpt>
      <trkpt lat="45.74637" lon="6.52439">
        <ele>1620.4</ele>
        <time>2021-07-11T12:43:19Z</time>
      </trkpt>
      <trkpt lat="45.74638" lon="6.52445">
        <ele>1620.2</ele>
        <time>2021-07-11T12:43:23Z</time>
      </trkpt>
      <trkpt lat="45.74639" lon="6.52451">
        <ele>1621</ele>
        <time>2021-07-11T12:43:27Z</time>
      </trkpt>
      <trkpt lat="45.74638" lon="6.52457">
        <ele>1621.2</ele>
        <time>2021-07-11T12:43:31Z</time>
      </trkpt>
      <trkpt lat="45.74637" lon="6.52463">
        <ele>1621.8</ele>
        <time>2021-07-11T12:43:35Z</time>
      </trkpt>
      <trkpt lat="45.74636" lon="6.52468">
        <ele>1622.6</ele>
        <time>2021-07-11T12:43:39Z</time>
      </trkpt>
      <trkpt lat="45.74634" lon="6.52474">
        <ele>1624.2</ele>
        <time>2021-07-11T12:43:43Z</time>
      </trkpt>
      <trkpt lat="45.74633" lon="6.5248">
        <ele>1624.8</ele>
        <time>2021-07-11T12:43:47Z</time>
      </trkpt>
      <trkpt lat="45.74631" lon="6.52487">
        <ele>1625.4</ele>
        <time>2021-07-11T12:43:51Z</time>
      </trkpt>
      <trkpt lat="45.7463" lon="6.52493">
        <ele>1625.4</ele>
        <time>2021-07-11T12:43:55Z</time>
      </trkpt>
      <trkpt lat="45.74628" lon="6.52499">
        <ele>1626.4</ele>
        <time>2021-07-11T12:43:59Z</time>
      </trkpt>
      <trkpt lat="45.74625" lon="6.52504">
        <ele>1627</ele>
        <time>2021-07-11T12:44:03Z</time>
      </trkpt>
      <trkpt lat="45.74622" lon="6.52508">
        <ele>1628</ele>
        <time>2021-07-11T12:44:07Z</time>
      </trkpt>
      <trkpt lat="45.74618" lon="6.52512">
        <ele>1628</ele>
        <time>2021-07-11T12:44:11Z</time>
      </trkpt>
      <trkpt lat="45.74615" lon="6.52516">
        <ele>1628.8</ele>
        <time>2021-07-11T12:44:15Z</time>
      </trkpt>
      <trkpt lat="45.74613" lon="6.52522">
        <ele>1630</ele>
        <time>2021-07-11T12:44:19Z</time>
      </trkpt>
      <trkpt lat="45.7461" lon="6.52527">
        <ele>1630.4</ele>
        <time>2021-07-11T12:44:23Z</time>
      </trkpt>
      <trkpt lat="45.74608" lon="6.52532">
        <ele>1631</ele>
        <time>2021-07-11T12:44:27Z</time>
      </trkpt>
      <trkpt lat="45.74607" lon="6.52539">
        <ele>1631.6</ele>
        <time>2021-07-11T12:44:31Z</time>
      </trkpt>
      <trkpt lat="45.74606" lon="6.52546">
        <ele>1631.8</ele>
        <time>2021-07-11T12:44:35Z</time>
      </trkpt>
      <trkpt lat="45.74605" lon="6.52552">
        <ele>1632.2</ele>
        <time>2021-07-11T12:44:39Z</time>
      </trkpt>
      <trkpt lat="45.74603" lon="6.52558">
        <ele>1633</ele>
        <time>2021-07-11T12:44:43Z</time>
      </trkpt>
      <trkpt lat="45.74602" lon="6.52564">
        <ele>1633.2</ele>
        <time>2021-07-11T12:44:47Z</time>
      </trkpt>
      <trkpt lat="45.74601" lon="6.52569">
        <ele>1634</ele>
        <time>2021-07-11T12:44:51Z</time>
      </trkpt>
      <trkpt lat="45.74599" lon="6.52575">
        <ele>1634.8</ele>
        <time>2021-07-11T12:44:55Z</time>
      </trkpt>
      <trkpt lat="45.74599" lon="6.52581">
        <ele>1634.8</ele>
        <time>2021-07-11T12:44:59Z</time>
      </trkpt>
      <trkpt lat="45.74598" lon="6.52587">
        <ele>1635.4</ele>
        <time>2021-07-11T12:45:03Z</time>
      </trkpt>
      <trkpt lat="45.74597" lon="6.52593">
        <ele>1636.2</ele>
        <time>2021-07-11T12:45:07Z</time>
      </trkpt>
      <trkpt lat="45.74596" lon="6.52599">
        <ele>1636.6</ele>
        <time>2021-07-11T12:45:11Z</time>
      </trkpt>
      <trkpt lat="45.74596" lon="6.52605">
        <ele>1636.8</ele>
        <time>2021-07-11T12:45:15Z</time>
      </trkpt>
      <trkpt lat="45.74595" lon="6.52611">
        <ele>1637.2</ele>
        <time>2021-07-11T12:45:19Z</time>
      </trkpt>
      <trkpt lat="45.74594" lon="6.52617">
        <ele>1638.2</ele>
        <time>2021-07-11T12:45:23Z</time>
      </trkpt>
      <trkpt lat="45.74593" lon="6.52623">
        <ele>1638.4</ele>
        <time>2021-07-11T12:45:27Z</time>
      </trkpt>
      <trkpt lat="45.74592" lon="6.52629">
        <ele>1639</ele>
        <time>2021-07-11T12:45:31Z</time>
      </trkpt>
      <trkpt lat="45.7459" lon="6.52635">
        <ele>1639.8</ele>
        <time>2021-07-11T12:45:35Z</time>
      </trkpt>
      <trkpt lat="45.74589" lon="6.52641">
        <ele>1640.4</ele>
        <time>2021-07-11T12:45:39Z</time>
      </trkpt>
      <trkpt lat="45.74589" lon="6.52648">
        <ele>1640.6</ele>
        <time>2021-07-11T12:45:43Z</time>
      </trkpt>
      <trkpt lat="45.74589" lon="6.52654">
        <ele>1641</ele>
        <time>2021-07-11T12:45:47Z</time>
      </trkpt>
      <trkpt lat="45.74588" lon="6.52661">
        <ele>1641.2</ele>
        <time>2021-07-11T12:45:51Z</time>
      </trkpt>
      <trkpt lat="45.74588" lon="6.52667">
        <ele>1642.4</ele>
        <time>2021-07-11T12:45:55Z</time>
      </trkpt>
      <trkpt lat="45.74589" lon="6.52674">
        <ele>1643.2</ele>
        <time>2021-07-11T12:45:59Z</time>
      </trkpt>
      <trkpt lat="45.7459" lon="6.52681">
        <ele>1644</ele>
        <time>2021-07-11T12:46:03Z</time>
      </trkpt>
      <trkpt lat="45.74591" lon="6.52688">
        <ele>1643.8</ele>
        <time>2021-07-11T12:46:07Z</time>
      </trkpt>
      <trkpt lat="45.74592" lon="6.52695">
        <ele>1644.6</ele>
        <time>2021-07-11T12:46:11Z</time>
      </trkpt>
      <trkpt lat="45.74594" lon="6.52702">
        <ele>1645.2</ele>
        <time>2021-07-11T12:46:15Z</time>
      </trkpt>
      <trkpt lat="45.74596" lon="6.52708">
        <ele>1645.6</ele>
        <time>2021-07-11T12:46:19Z</time>
      </trkpt>
      <trkpt lat="45.74597" lon="6.52715">
        <ele>1646</ele>
        <time>2021-07-11T12:46:23Z</time>
      </trkpt>
      <trkpt lat="45.74597" lon="6.52722">
        <ele>1646.4</ele>
        <time>2021-07-11T12:46:27Z</time>
      </trkpt>
      <trkpt lat="45.74599" lon="6.52727">
        <ele>1646.8</ele>
        <time>2021-07-11T12:46:31Z</time>
      </trkpt>
      <trkpt lat="45.74599" lon="6.52733">
        <ele>1647</ele>
        <time>2021-07-11T12:46:35Z</time>
      </trkpt>
      <trkpt lat="45.746" lon="6.52739">
        <ele>1647.8</ele>
        <time>2021-07-11T12:46:39Z</time>
      </trkpt>
      <trkpt lat="45.746" lon="6.52745">
        <ele>1648.2</ele>
        <time>2021-07-11T12:46:43Z</time>
      </trkpt>
      <trkpt lat="45.74602" lon="6.52752">
        <ele>1648.6</ele>
        <time>2021-07-11T12:46:47Z</time>
      </trkpt>
      <trkpt lat="45.74604" lon="6.52758">
        <ele>1650.2</ele>
        <time>2021-07-11T12:46:51Z</time>
      </trkpt>
      <trkpt lat="45.74607" lon="6.52762">
        <ele>1650.2</ele>
        <time>2021-07-11T12:46:55Z</time>
      </trkpt>
      <trkpt lat="45.7461" lon="6.52767">
        <ele>1651.2</ele>
        <time>2021-07-11T12:46:59Z</time>
      </trkpt>
      <trkpt lat="45.74613" lon="6.52772">
        <ele>1651.6</ele>
        <time>2021-07-11T12:47:03Z</time>
      </trkpt>
      <trkpt lat="45.74617" lon="6.52776">
        <ele>1651.6</ele>
        <time>2021-07-11T12:47:07Z</time>
      </trkpt>
      <trkpt lat="45.7462" lon="6.5278">
        <ele>1651.8</ele>
        <time>2021-07-11T12:47:11Z</time>
      </trkpt>
      <trkpt lat="45.74624" lon="6.52785">
        <ele>1652.6</ele>
        <time>2021-07-11T12:47:15Z</time>
      </trkpt>
      <trkpt lat="45.74627" lon="6.5279">
        <ele>1653</ele>
        <time>2021-07-11T12:47:19Z</time>
      </trkpt>
      <trkpt lat="45.7463" lon="6.52795">
        <ele>1654.2</ele>
        <time>2021-07-11T12:47:23Z</time>
      </trkpt>
      <trkpt lat="45.74633" lon="6.528">
        <ele>1654</ele>
        <time>2021-07-11T12:47:27Z</time>
      </trkpt>
      <trkpt lat="45.74634" lon="6.52806">
        <ele>1653.4</ele>
        <time>2021-07-11T12:47:31Z</time>
      </trkpt>
      <trkpt lat="45.74638" lon="6.52817">
        <ele>1655</ele>
        <time>2021-07-11T12:48:36Z</time>
      </trkpt>
      <trkpt lat="45.74642" lon="6.52833">
        <ele>1653.2</ele>
        <time>2021-07-11T12:48:40Z</time>
      </trkpt>
      <trkpt lat="45.74646" lon="6.52856">
        <ele>1651.8</ele>
        <time>2021-07-11T12:48:44Z</time>
      </trkpt>
      <trkpt lat="45.74651" lon="6.52884">
        <ele>1649.8</ele>
        <time>2021-07-11T12:48:48Z</time>
      </trkpt>
      <trkpt lat="45.74659" lon="6.52921">
        <ele>1648.6</ele>
        <time>2021-07-11T12:48:52Z</time>
      </trkpt>
      <trkpt lat="45.74664" lon="6.52962">
        <ele>1646</ele>
        <time>2021-07-11T12:48:56Z</time>
      </trkpt>
      <trkpt lat="45.74659" lon="6.52995">
        <ele>1644.4</ele>
        <time>2021-07-11T12:49:00Z</time>
      </trkpt>
      <trkpt lat="45.7465" lon="6.53023">
        <ele>1641.6</ele>
        <time>2021-07-11T12:49:04Z</time>
      </trkpt>
      <trkpt lat="45.74642" lon="6.53075">
        <ele>1638.8</ele>
        <time>2021-07-11T12:50:41Z</time>
      </trkpt>
      <trkpt lat="45.74639" lon="6.53107">
        <ele>1638</ele>
        <time>2021-07-11T12:50:45Z</time>
      </trkpt>
      <trkpt lat="45.74635" lon="6.53148">
        <ele>1634.8</ele>
        <time>2021-07-11T12:50:49Z</time>
      </trkpt>
      <trkpt lat="45.74619" lon="6.53192">
        <ele>1633.4</ele>
        <time>2021-07-11T12:50:53Z</time>
      </trkpt>
      <trkpt lat="45.7461" lon="6.53236">
        <ele>1630.4</ele>
        <time>2021-07-11T12:50:57Z</time>
      </trkpt>
      <trkpt lat="45.74615" lon="6.53294">
        <ele>1627.4</ele>
        <time>2021-07-11T12:51:01Z</time>
      </trkpt>
      <trkpt lat="45.74621" lon="6.5335">
        <ele>1624.4</ele>
        <time>2021-07-11T12:51:05Z</time>
      </trkpt>
      <trkpt lat="45.74626" lon="6.53408">
        <ele>1621.2</ele>
        <time>2021-07-11T12:51:09Z</time>
      </trkpt>
      <trkpt lat="45.74628" lon="6.53461">
        <ele>1617</ele>
        <time>2021-07-11T12:51:13Z</time>
      </trkpt>
      <trkpt lat="45.74653" lon="6.53496">
        <ele>1614.2</ele>
        <time>2021-07-11T12:51:17Z</time>
      </trkpt>
      <trkpt lat="45.74686" lon="6.53499">
        <ele>1610.8</ele>
        <time>2021-07-11T12:51:21Z</time>
      </trkpt>
      <trkpt lat="45.74713" lon="6.53506">
        <ele>1608.8</ele>
        <time>2021-07-11T12:51:25Z</time>
      </trkpt>
      <trkpt lat="45.74704" lon="6.5354">
        <ele>1606.8</ele>
        <time>2021-07-11T12:51:29Z</time>
      </trkpt>
      <trkpt lat="45.74674" lon="6.53557">
        <ele>1604.6</ele>
        <time>2021-07-11T12:51:33Z</time>
      </trkpt>
      <trkpt lat="45.74648" lon="6.53588">
        <ele>1602.6</ele>
        <time>2021-07-11T12:51:37Z</time>
      </trkpt>
      <trkpt lat="45.74626" lon="6.53627">
        <ele>1601.6</ele>
        <time>2021-07-11T12:51:41Z</time>
      </trkpt>
      <trkpt lat="45.74612" lon="6.53672">
        <ele>1599.4</ele>
        <time>2021-07-11T12:51:45Z</time>
      </trkpt>
      <trkpt lat="45.74592" lon="6.53711">
        <ele>1597.4</ele>
        <time>2021-07-11T12:51:49Z</time>
      </trkpt>
      <trkpt lat="45.74572" lon="6.53744">
        <ele>1593.4</ele>
        <time>2021-07-11T12:51:53Z</time>
      </trkpt>
      <trkpt lat="45.74564" lon="6.53763">
        <ele>1592</ele>
        <time>2021-07-11T12:51:57Z</time>
      </trkpt>
      <trkpt lat="45.74574" lon="6.53789">
        <ele>1590</ele>
        <time>2021-07-11T12:52:01Z</time>
      </trkpt>
      <trkpt lat="45.74592" lon="6.53799">
        <ele>1590</ele>
        <time>2021-07-11T12:52:05Z</time>
      </trkpt>
      <trkpt lat="45.7461" lon="6.53806">
        <ele>1589.6</ele>
        <time>2021-07-11T12:52:09Z</time>
      </trkpt>
      <trkpt lat="45.74629" lon="6.53809">
        <ele>1589</ele>
        <time>2021-07-11T12:52:13Z</time>
      </trkpt>
      <trkpt lat="45.74649" lon="6.53806">
        <ele>1588.4</ele>
        <time>2021-07-11T12:52:17Z</time>
      </trkpt>
      <trkpt lat="45.74665" lon="6.53795">
        <ele>1588</ele>
        <time>2021-07-11T12:52:21Z</time>
      </trkpt>
      <trkpt lat="45.74686" lon="6.53777">
        <ele>1587.4</ele>
        <time>2021-07-11T12:52:25Z</time>
      </trkpt>
      <trkpt lat="45.74706" lon="6.5376">
        <ele>1587.2</ele>
        <time>2021-07-11T12:52:29Z</time>
      </trkpt>
      <trkpt lat="45.74725" lon="6.5374">
        <ele>1586.8</ele>
        <time>2021-07-11T12:52:33Z</time>
      </trkpt>
      <trkpt lat="45.74743" lon="6.53727">
        <ele>1586</ele>
        <time>2021-07-11T12:52:37Z</time>
      </trkpt>
      <trkpt lat="45.74754" lon="6.53727">
        <ele>1585.2</ele>
        <time>2021-07-11T12:52:41Z</time>
      </trkpt>
      <trkpt lat="45.74767" lon="6.53731">
        <ele>1583.6</ele>
        <time>2021-07-11T12:53:41Z</time>
      </trkpt>
      <trkpt lat="45.74773" lon="6.53744">
        <ele>1583.2</ele>
        <time>2021-07-11T12:53:45Z</time>
      </trkpt>
      <trkpt lat="45.74778" lon="6.53769">
        <ele>1581.8</ele>
        <time>2021-07-11T12:53:49Z</time>
      </trkpt>
      <trkpt lat="45.74779" lon="6.53803">
        <ele>1580.6</ele>
        <time>2021-07-11T12:53:53Z</time>
      </trkpt>
      <trkpt lat="45.74772" lon="6.53839">
        <ele>1578</ele>
        <time>2021-07-11T12:53:57Z</time>
      </trkpt>
      <trkpt lat="45.74757" lon="6.53873">
        <ele>1578.2</ele>
        <time>2021-07-11T12:54:01Z</time>
      </trkpt>
      <trkpt lat="45.74741" lon="6.53903">
        <ele>1576.8</ele>
        <time>2021-07-11T12:54:05Z</time>
      </trkpt>
      <trkpt lat="45.74725" lon="6.53931">
        <ele>1575.8</ele>
        <time>2021-07-11T12:54:09Z</time>
      </trkpt>
      <trkpt lat="45.74709" lon="6.53954">
        <ele>1575</ele>
        <time>2021-07-11T12:54:13Z</time>
      </trkpt>
      <trkpt lat="45.74689" lon="6.53971">
        <ele>1575</ele>
        <time>2021-07-11T12:54:17Z</time>
      </trkpt>
      <trkpt lat="45.74668" lon="6.53977">
        <ele>1575</ele>
        <time>2021-07-11T12:54:21Z</time>
      </trkpt>
      <trkpt lat="45.74658" lon="6.54003">
        <ele>1574.4</ele>
        <time>2021-07-11T12:54:25Z</time>
      </trkpt>
      <trkpt lat="45.74672" lon="6.54023">
        <ele>1573.8</ele>
        <time>2021-07-11T12:54:29Z</time>
      </trkpt>
      <trkpt lat="45.74696" lon="6.54028">
        <ele>1572</ele>
        <time>2021-07-11T12:54:33Z</time>
      </trkpt>
      <trkpt lat="45.74722" lon="6.54022">
        <ele>1570.2</ele>
        <time>2021-07-11T12:54:37Z</time>
      </trkpt>
      <trkpt lat="45.74747" lon="6.54015">
        <ele>1569</ele>
        <time>2021-07-11T12:54:41Z</time>
      </trkpt>
      <trkpt lat="45.74773" lon="6.54002">
        <ele>1567.4</ele>
        <time>2021-07-11T12:54:45Z</time>
      </trkpt>
      <trkpt lat="45.74796" lon="6.53983">
        <ele>1566</ele>
        <time>2021-07-11T12:54:49Z</time>
      </trkpt>
      <trkpt lat="45.74818" lon="6.53962">
        <ele>1565.4</ele>
        <time>2021-07-11T12:54:53Z</time>
      </trkpt>
      <trkpt lat="45.74837" lon="6.53949">
        <ele>1565</ele>
        <time>2021-07-11T12:54:57Z</time>
      </trkpt>
      <trkpt lat="45.74854" lon="6.53955">
        <ele>1564.6</ele>
        <time>2021-07-11T12:55:01Z</time>
      </trkpt>
      <trkpt lat="45.74854" lon="6.5398">
        <ele>1563.6</ele>
        <time>2021-07-11T12:55:05Z</time>
      </trkpt>
      <trkpt lat="45.74838" lon="6.53999">
        <ele>1562.4</ele>
        <time>2021-07-11T12:55:09Z</time>
      </trkpt>
      <trkpt lat="45.74821" lon="6.54015">
        <ele>1561.8</ele>
        <time>2021-07-11T12:55:13Z</time>
      </trkpt>
      <trkpt lat="45.74805" lon="6.54034">
        <ele>1561.6</ele>
        <time>2021-07-11T12:55:17Z</time>
      </trkpt>
      <trkpt lat="45.7479" lon="6.54048">
        <ele>1562</ele>
        <time>2021-07-11T12:55:21Z</time>
      </trkpt>
      <trkpt lat="45.74775" lon="6.54061">
        <ele>1562.2</ele>
        <time>2021-07-11T12:55:25Z</time>
      </trkpt>
      <trkpt lat="45.74762" lon="6.54077">
        <ele>1561.6</ele>
        <time>2021-07-11T12:55:29Z</time>
      </trkpt>
      <trkpt lat="45.7475" lon="6.54095">
        <ele>1561.6</ele>
        <time>2021-07-11T12:55:33Z</time>
      </trkpt>
      <trkpt lat="45.74739" lon="6.54109">
        <ele>1561.4</ele>
        <time>2021-07-11T12:55:37Z</time>
      </trkpt>
      <trkpt lat="45.74729" lon="6.54123">
        <ele>1560.8</ele>
        <time>2021-07-11T12:55:41Z</time>
      </trkpt>
      <trkpt lat="45.74723" lon="6.54135">
        <ele>1560.6</ele>
        <time>2021-07-11T12:55:45Z</time>
      </trkpt>
      <trkpt lat="45.74719" lon="6.54143">
        <ele>1560.4</ele>
        <time>2021-07-11T12:55:49Z</time>
      </trkpt>
      <trkpt lat="45.74714" lon="6.54154">
        <ele>1559.6</ele>
        <time>2021-07-11T12:55:53Z</time>
      </trkpt>
      <trkpt lat="45.747" lon="6.54161">
        <ele>1559.6</ele>
        <time>2021-07-11T12:55:57Z</time>
      </trkpt>
      <trkpt lat="45.74686" lon="6.54155">
        <ele>1558.8</ele>
        <time>2021-07-11T12:56:01Z</time>
      </trkpt>
      <trkpt lat="45.74671" lon="6.54157">
        <ele>1559</ele>
        <time>2021-07-11T12:56:05Z</time>
      </trkpt>
      <trkpt lat="45.74664" lon="6.5416">
        <ele>1559.2</ele>
        <time>2021-07-11T12:56:09Z</time>
      </trkpt>
      <trkpt lat="45.74658" lon="6.54161">
        <ele>1559.2</ele>
        <time>2021-07-11T12:56:13Z</time>
      </trkpt>
      <trkpt lat="45.74658" lon="6.54173">
        <ele>1559.2</ele>
        <time>2021-07-11T12:56:17Z</time>
      </trkpt>
      <trkpt lat="45.74669" lon="6.54199">
        <ele>1556.8</ele>
        <time>2021-07-11T12:56:21Z</time>
      </trkpt>
      <trkpt lat="45.74685" lon="6.5423">
        <ele>1555.4</ele>
        <time>2021-07-11T12:56:25Z</time>
      </trkpt>
      <trkpt lat="45.74708" lon="6.54256">
        <ele>1552.4</ele>
        <time>2021-07-11T12:56:29Z</time>
      </trkpt>
      <trkpt lat="45.74743" lon="6.54253">
        <ele>1548.6</ele>
        <time>2021-07-11T12:56:33Z</time>
      </trkpt>
      <trkpt lat="45.74779" lon="6.54234">
        <ele>1545.8</ele>
        <time>2021-07-11T12:56:37Z</time>
      </trkpt>
      <trkpt lat="45.74814" lon="6.54216">
        <ele>1542.6</ele>
        <time>2021-07-11T12:56:41Z</time>
      </trkpt>
      <trkpt lat="45.74845" lon="6.54202">
        <ele>1539.6</ele>
        <time>2021-07-11T12:56:45Z</time>
      </trkpt>
      <trkpt lat="45.74872" lon="6.54184">
        <ele>1537.4</ele>
        <time>2021-07-11T12:56:49Z</time>
      </trkpt>
      <trkpt lat="45.74896" lon="6.54157">
        <ele>1534.6</ele>
        <time>2021-07-11T12:56:53Z</time>
      </trkpt>
      <trkpt lat="45.74911" lon="6.54143">
        <ele>1533.2</ele>
        <time>2021-07-11T12:56:57Z</time>
      </trkpt>
      <trkpt lat="45.74925" lon="6.54132">
        <ele>1532</ele>
        <time>2021-07-11T12:57:01Z</time>
      </trkpt>
      <trkpt lat="45.74948" lon="6.5412">
        <ele>1529.6</ele>
        <time>2021-07-11T12:57:05Z</time>
      </trkpt>
      <trkpt lat="45.74978" lon="6.54116">
        <ele>1526.4</ele>
        <time>2021-07-11T12:57:09Z</time>
      </trkpt>
      <trkpt lat="45.75006" lon="6.54131">
        <ele>1524.2</ele>
        <time>2021-07-11T12:57:13Z</time>
      </trkpt>
      <trkpt lat="45.75036" lon="6.54161">
        <ele>1521</ele>
        <time>2021-07-11T12:57:17Z</time>
      </trkpt>
      <trkpt lat="45.75068" lon="6.54198">
        <ele>1517.6</ele>
        <time>2021-07-11T12:57:21Z</time>
      </trkpt>
      <trkpt lat="45.75097" lon="6.54232">
        <ele>1514</ele>
        <time>2021-07-11T12:57:25Z</time>
      </trkpt>
      <trkpt lat="45.7513" lon="6.5427">
        <ele>1512</ele>
        <time>2021-07-11T12:57:29Z</time>
      </trkpt>
      <trkpt lat="45.75166" lon="6.54303">
        <ele>1508.4</ele>
        <time>2021-07-11T12:57:33Z</time>
      </trkpt>
      <trkpt lat="45.75199" lon="6.54331">
        <ele>1508.6</ele>
        <time>2021-07-11T12:57:37Z</time>
      </trkpt>
      <trkpt lat="45.75226" lon="6.54347">
        <ele>1510.4</ele>
        <time>2021-07-11T12:57:41Z</time>
      </trkpt>
      <trkpt lat="45.75245" lon="6.54356">
        <ele>1509</ele>
        <time>2021-07-11T12:57:45Z</time>
      </trkpt>
      <trkpt lat="45.7526" lon="6.54376">
        <ele>1507.8</ele>
        <time>2021-07-11T12:57:49Z</time>
      </trkpt>
      <trkpt lat="45.75272" lon="6.54405">
        <ele>1507.6</ele>
        <time>2021-07-11T12:57:53Z</time>
      </trkpt>
      <trkpt lat="45.75283" lon="6.54426">
        <ele>1507.8</ele>
        <time>2021-07-11T12:57:57Z</time>
      </trkpt>
      <trkpt lat="45.75294" lon="6.54441">
        <ele>1508.8</ele>
        <time>2021-07-11T12:58:01Z</time>
      </trkpt>
      <trkpt lat="45.75305" lon="6.54454">
        <ele>1509.2</ele>
        <time>2021-07-11T12:58:05Z</time>
      </trkpt>
      <trkpt lat="45.75316" lon="6.54468">
        <ele>1509.6</ele>
        <time>2021-07-11T12:58:09Z</time>
      </trkpt>
      <trkpt lat="45.75319" lon="6.54485">
        <ele>1509.8</ele>
        <time>2021-07-11T12:58:13Z</time>
      </trkpt>
      <trkpt lat="45.7532" lon="6.54502">
        <ele>1510.6</ele>
        <time>2021-07-11T12:58:17Z</time>
      </trkpt>
      <trkpt lat="45.75321" lon="6.54518">
        <ele>1511.2</ele>
        <time>2021-07-11T12:58:21Z</time>
      </trkpt>
      <trkpt lat="45.7532" lon="6.54532">
        <ele>1511.4</ele>
        <time>2021-07-11T12:58:25Z</time>
      </trkpt>
      <trkpt lat="45.75318" lon="6.54554">
        <ele>1512.2</ele>
        <time>2021-07-11T12:58:49Z</time>
      </trkpt>
      <trkpt lat="45.75314" lon="6.54567">
        <ele>1512.8</ele>
        <time>2021-07-11T12:58:53Z</time>
      </trkpt>
      <trkpt lat="45.75307" lon="6.54581">
        <ele>1513</ele>
        <time>2021-07-11T12:58:57Z</time>
      </trkpt>
      <trkpt lat="45.75301" lon="6.54596">
        <ele>1513.4</ele>
        <time>2021-07-11T12:59:01Z</time>
      </trkpt>
      <trkpt lat="45.75294" lon="6.5461">
        <ele>1513.6</ele>
        <time>2021-07-11T12:59:05Z</time>
      </trkpt>
      <trkpt lat="45.75288" lon="6.54624">
        <ele>1513.8</ele>
        <time>2021-07-11T12:59:09Z</time>
      </trkpt>
      <trkpt lat="45.75287" lon="6.5464">
        <ele>1514.2</ele>
        <time>2021-07-11T12:59:13Z</time>
      </trkpt>
      <trkpt lat="45.75295" lon="6.54644">
        <ele>1515.8</ele>
        <time>2021-07-11T12:59:17Z</time>
      </trkpt>
      <trkpt lat="45.75303" lon="6.54643">
        <ele>1515.6</ele>
        <time>2021-07-11T12:59:21Z</time>
      </trkpt>
      <trkpt lat="45.75311" lon="6.5464">
        <ele>1516.8</ele>
        <time>2021-07-11T12:59:25Z</time>
      </trkpt>
      <trkpt lat="45.75319" lon="6.54635">
        <ele>1516.8</ele>
        <time>2021-07-11T12:59:29Z</time>
      </trkpt>
      <trkpt lat="45.75327" lon="6.5463">
        <ele>1517.6</ele>
        <time>2021-07-11T12:59:33Z</time>
      </trkpt>
      <trkpt lat="45.75334" lon="6.54625">
        <ele>1517.8</ele>
        <time>2021-07-11T12:59:37Z</time>
      </trkpt>
      <trkpt lat="45.75342" lon="6.5462">
        <ele>1518.6</ele>
        <time>2021-07-11T12:59:41Z</time>
      </trkpt>
      <trkpt lat="45.7535" lon="6.54615">
        <ele>1519</ele>
        <time>2021-07-11T12:59:45Z</time>
      </trkpt>
      <trkpt lat="45.75357" lon="6.5461">
        <ele>1519.6</ele>
        <time>2021-07-11T12:59:49Z</time>
      </trkpt>
      <trkpt lat="45.75364" lon="6.54606">
        <ele>1520.6</ele>
        <time>2021-07-11T12:59:53Z</time>
      </trkpt>
      <trkpt lat="45.75372" lon="6.54601">
        <ele>1520.8</ele>
        <time>2021-07-11T12:59:57Z</time>
      </trkpt>
      <trkpt lat="45.75379" lon="6.54597">
        <ele>1521.4</ele>
        <time>2021-07-11T13:00:01Z</time>
      </trkpt>
      <trkpt lat="45.75386" lon="6.54594">
        <ele>1522.2</ele>
        <time>2021-07-11T13:00:05Z</time>
      </trkpt>
      <trkpt lat="45.75394" lon="6.54593">
        <ele>1523</ele>
        <time>2021-07-11T13:00:09Z</time>
      </trkpt>
      <trkpt lat="45.75402" lon="6.54595">
        <ele>1523.6</ele>
        <time>2021-07-11T13:00:13Z</time>
      </trkpt>
      <trkpt lat="45.7541" lon="6.54597">
        <ele>1523.8</ele>
        <time>2021-07-11T13:00:17Z</time>
      </trkpt>
      <trkpt lat="45.75417" lon="6.54598">
        <ele>1524.2</ele>
        <time>2021-07-11T13:00:21Z</time>
      </trkpt>
      <trkpt lat="45.75425" lon="6.54597">
        <ele>1525.2</ele>
        <time>2021-07-11T13:00:25Z</time>
      </trkpt>
      <trkpt lat="45.75432" lon="6.54595">
        <ele>1526.2</ele>
        <time>2021-07-11T13:00:29Z</time>
      </trkpt>
      <trkpt lat="45.7544" lon="6.54592">
        <ele>1526.8</ele>
        <time>2021-07-11T13:00:33Z</time>
      </trkpt>
      <trkpt lat="45.75448" lon="6.54588">
        <ele>1527</ele>
        <time>2021-07-11T13:00:37Z</time>
      </trkpt>
      <trkpt lat="45.75455" lon="6.54583">
        <ele>1527.4</ele>
        <time>2021-07-11T13:00:41Z</time>
      </trkpt>
      <trkpt lat="45.75462" lon="6.54578">
        <ele>1527.8</ele>
        <time>2021-07-11T13:00:45Z</time>
      </trkpt>
      <trkpt lat="45.75468" lon="6.54573">
        <ele>1529.2</ele>
        <time>2021-07-11T13:00:49Z</time>
      </trkpt>
      <trkpt lat="45.75475" lon="6.54568">
        <ele>1530</ele>
        <time>2021-07-11T13:00:53Z</time>
      </trkpt>
      <trkpt lat="45.7548" lon="6.54561">
        <ele>1530</ele>
        <time>2021-07-11T13:00:57Z</time>
      </trkpt>
      <trkpt lat="45.75486" lon="6.54556">
        <ele>1531.6</ele>
        <time>2021-07-11T13:01:01Z</time>
      </trkpt>
      <trkpt lat="45.75493" lon="6.54551">
        <ele>1531.8</ele>
        <time>2021-07-11T13:01:05Z</time>
      </trkpt>
      <trkpt lat="45.75498" lon="6.54543">
        <ele>1531.8</ele>
        <time>2021-07-11T13:01:09Z</time>
      </trkpt>
      <trkpt lat="45.75504" lon="6.54536">
        <ele>1532.2</ele>
        <time>2021-07-11T13:01:13Z</time>
      </trkpt>
      <trkpt lat="45.75509" lon="6.54526">
        <ele>1532.6</ele>
        <time>2021-07-11T13:01:17Z</time>
      </trkpt>
      <trkpt lat="45.75514" lon="6.54517">
        <ele>1533.4</ele>
        <time>2021-07-11T13:01:21Z</time>
      </trkpt>
      <trkpt lat="45.75519" lon="6.54508">
        <ele>1534.2</ele>
        <time>2021-07-11T13:01:25Z</time>
      </trkpt>
      <trkpt lat="45.75524" lon="6.545">
        <ele>1535.2</ele>
        <time>2021-07-11T13:01:29Z</time>
      </trkpt>
      <trkpt lat="45.75527" lon="6.5449">
        <ele>1535.4</ele>
        <time>2021-07-11T13:01:33Z</time>
      </trkpt>
      <trkpt lat="45.75531" lon="6.5448">
        <ele>1536.6</ele>
        <time>2021-07-11T13:01:37Z</time>
      </trkpt>
      <trkpt lat="45.75533" lon="6.54471">
        <ele>1536.8</ele>
        <time>2021-07-11T13:01:41Z</time>
      </trkpt>
      <trkpt lat="45.75536" lon="6.54461">
        <ele>1537.4</ele>
        <time>2021-07-11T13:01:45Z</time>
      </trkpt>
      <trkpt lat="45.75539" lon="6.54451">
        <ele>1538</ele>
        <time>2021-07-11T13:01:49Z</time>
      </trkpt>
      <trkpt lat="45.75542" lon="6.54442">
        <ele>1538.4</ele>
        <time>2021-07-11T13:01:53Z</time>
      </trkpt>
      <trkpt lat="45.75545" lon="6.54432">
        <ele>1538.8</ele>
        <time>2021-07-11T13:01:57Z</time>
      </trkpt>
      <trkpt lat="45.75547" lon="6.54423">
        <ele>1539.8</ele>
        <time>2021-07-11T13:02:01Z</time>
      </trkpt>
      <trkpt lat="45.75551" lon="6.54414">
        <ele>1540.4</ele>
        <time>2021-07-11T13:02:05Z</time>
      </trkpt>
      <trkpt lat="45.75554" lon="6.54405">
        <ele>1541.2</ele>
        <time>2021-07-11T13:02:09Z</time>
      </trkpt>
      <trkpt lat="45.75558" lon="6.54395">
        <ele>1542.2</ele>
        <time>2021-07-11T13:02:13Z</time>
      </trkpt>
      <trkpt lat="45.75561" lon="6.54386">
        <ele>1541.6</ele>
        <time>2021-07-11T13:02:17Z</time>
      </trkpt>
      <trkpt lat="45.75565" lon="6.54376">
        <ele>1543</ele>
        <time>2021-07-11T13:02:21Z</time>
      </trkpt>
      <trkpt lat="45.75568" lon="6.54366">
        <ele>1543</ele>
        <time>2021-07-11T13:02:25Z</time>
      </trkpt>
      <trkpt lat="45.75572" lon="6.54356">
        <ele>1543.2</ele>
        <time>2021-07-11T13:02:29Z</time>
      </trkpt>
      <trkpt lat="45.75576" lon="6.54346">
        <ele>1544.6</ele>
        <time>2021-07-11T13:02:33Z</time>
      </trkpt>
      <trkpt lat="45.75579" lon="6.54336">
        <ele>1545</ele>
        <time>2021-07-11T13:02:37Z</time>
      </trkpt>
      <trkpt lat="45.75583" lon="6.54327">
        <ele>1545.4</ele>
        <time>2021-07-11T13:02:41Z</time>
      </trkpt>
      <trkpt lat="45.75588" lon="6.54317">
        <ele>1546.2</ele>
        <time>2021-07-11T13:02:45Z</time>
      </trkpt>
      <trkpt lat="45.75592" lon="6.54308">
        <ele>1547</ele>
        <time>2021-07-11T13:02:49Z</time>
      </trkpt>
      <trkpt lat="45.75596" lon="6.54298">
        <ele>1547.4</ele>
        <time>2021-07-11T13:02:53Z</time>
      </trkpt>
      <trkpt lat="45.756" lon="6.54288">
        <ele>1547.8</ele>
        <time>2021-07-11T13:02:57Z</time>
      </trkpt>
      <trkpt lat="45.75603" lon="6.54277">
        <ele>1548</ele>
        <time>2021-07-11T13:03:01Z</time>
      </trkpt>
      <trkpt lat="45.75607" lon="6.54269">
        <ele>1548.8</ele>
        <time>2021-07-11T13:03:05Z</time>
      </trkpt>
      <trkpt lat="45.75611" lon="6.54258">
        <ele>1549.4</ele>
        <time>2021-07-11T13:03:09Z</time>
      </trkpt>
      <trkpt lat="45.75615" lon="6.54248">
        <ele>1549.6</ele>
        <time>2021-07-11T13:03:13Z</time>
      </trkpt>
      <trkpt lat="45.75618" lon="6.54237">
        <ele>1550.6</ele>
        <time>2021-07-11T13:03:17Z</time>
      </trkpt>
      <trkpt lat="45.75619" lon="6.54223">
        <ele>1550.8</ele>
        <time>2021-07-11T13:03:21Z</time>
      </trkpt>
      <trkpt lat="45.75621" lon="6.54209">
        <ele>1551</ele>
        <time>2021-07-11T13:03:25Z</time>
      </trkpt>
      <trkpt lat="45.75624" lon="6.54196">
        <ele>1551.2</ele>
        <time>2021-07-11T13:03:29Z</time>
      </trkpt>
      <trkpt lat="45.75626" lon="6.54184">
        <ele>1552</ele>
        <time>2021-07-11T13:03:33Z</time>
      </trkpt>
      <trkpt lat="45.75628" lon="6.54172">
        <ele>1552.8</ele>
        <time>2021-07-11T13:03:37Z</time>
      </trkpt>
      <trkpt lat="45.7563" lon="6.5416">
        <ele>1552.8</ele>
        <time>2021-07-11T13:03:41Z</time>
      </trkpt>
      <trkpt lat="45.75632" lon="6.54147">
        <ele>1553.4</ele>
        <time>2021-07-11T13:03:45Z</time>
      </trkpt>
      <trkpt lat="45.75635" lon="6.54135">
        <ele>1554.2</ele>
        <time>2021-07-11T13:03:49Z</time>
      </trkpt>
      <trkpt lat="45.75639" lon="6.54124">
        <ele>1554.6</ele>
        <time>2021-07-11T13:03:53Z</time>
      </trkpt>
      <trkpt lat="45.75643" lon="6.54113">
        <ele>1555.6</ele>
        <time>2021-07-11T13:03:57Z</time>
      </trkpt>
      <trkpt lat="45.75648" lon="6.54105">
        <ele>1556.2</ele>
        <time>2021-07-11T13:04:01Z</time>
      </trkpt>
      <trkpt lat="45.75653" lon="6.54095">
        <ele>1556.6</ele>
        <time>2021-07-11T13:04:05Z</time>
      </trkpt>
      <trkpt lat="45.75657" lon="6.54084">
        <ele>1557</ele>
        <time>2021-07-11T13:04:09Z</time>
      </trkpt>
      <trkpt lat="45.7566" lon="6.54074">
        <ele>1558.4</ele>
        <time>2021-07-11T13:04:13Z</time>
      </trkpt>
      <trkpt lat="45.75664" lon="6.54065">
        <ele>1559.4</ele>
        <time>2021-07-11T13:04:17Z</time>
      </trkpt>
      <trkpt lat="45.75669" lon="6.54056">
        <ele>1560.2</ele>
        <time>2021-07-11T13:04:21Z</time>
      </trkpt>
      <trkpt lat="45.75673" lon="6.54047">
        <ele>1560</ele>
        <time>2021-07-11T13:04:25Z</time>
      </trkpt>
      <trkpt lat="45.75678" lon="6.54039">
        <ele>1560.8</ele>
        <time>2021-07-11T13:04:29Z</time>
      </trkpt>
      <trkpt lat="45.75682" lon="6.54031">
        <ele>1561.8</ele>
        <time>2021-07-11T13:04:33Z</time>
      </trkpt>
      <trkpt lat="45.75687" lon="6.54012">
        <ele>1562.8</ele>
        <time>2021-07-11T13:05:13Z</time>
      </trkpt>
      <trkpt lat="45.75692" lon="6.54004">
        <ele>1563.4</ele>
        <time>2021-07-11T13:05:17Z</time>
      </trkpt>
      <trkpt lat="45.75697" lon="6.53996">
        <ele>1564.4</ele>
        <time>2021-07-11T13:05:21Z</time>
      </trkpt>
      <trkpt lat="45.75702" lon="6.53987">
        <ele>1565</ele>
        <time>2021-07-11T13:05:25Z</time>
      </trkpt>
      <trkpt lat="45.75706" lon="6.53977">
        <ele>1565.4</ele>
        <time>2021-07-11T13:05:29Z</time>
      </trkpt>
      <trkpt lat="45.7571" lon="6.53967">
        <ele>1566</ele>
        <time>2021-07-11T13:05:33Z</time>
      </trkpt>
      <trkpt lat="45.75715" lon="6.53958">
        <ele>1566.6</ele>
        <time>2021-07-11T13:05:37Z</time>
      </trkpt>
      <trkpt lat="45.75721" lon="6.53949">
        <ele>1567</ele>
        <time>2021-07-11T13:05:41Z</time>
      </trkpt>
      <trkpt lat="45.75726" lon="6.5394">
        <ele>1567.6</ele>
        <time>2021-07-11T13:05:45Z</time>
      </trkpt>
      <trkpt lat="45.7573" lon="6.53931">
        <ele>1568.4</ele>
        <time>2021-07-11T13:05:49Z</time>
      </trkpt>
      <trkpt lat="45.75734" lon="6.53922">
        <ele>1568.8</ele>
        <time>2021-07-11T13:05:53Z</time>
      </trkpt>
      <trkpt lat="45.75739" lon="6.53912">
        <ele>1570.4</ele>
        <time>2021-07-11T13:05:57Z</time>
      </trkpt>
      <trkpt lat="45.75743" lon="6.53903">
        <ele>1569.6</ele>
        <time>2021-07-11T13:06:01Z</time>
      </trkpt>
      <trkpt lat="45.75745" lon="6.5389">
        <ele>1570.4</ele>
        <time>2021-07-11T13:06:05Z</time>
      </trkpt>
      <trkpt lat="45.75748" lon="6.53879">
        <ele>1571.4</ele>
        <time>2021-07-11T13:06:09Z</time>
      </trkpt>
      <trkpt lat="45.7575" lon="6.53867">
        <ele>1571.8</ele>
        <time>2021-07-11T13:06:13Z</time>
      </trkpt>
      <trkpt lat="45.75753" lon="6.53856">
        <ele>1572.2</ele>
        <time>2021-07-11T13:06:17Z</time>
      </trkpt>
      <trkpt lat="45.75756" lon="6.53846">
        <ele>1572.6</ele>
        <time>2021-07-11T13:06:21Z</time>
      </trkpt>
      <trkpt lat="45.7576" lon="6.53837">
        <ele>1573.2</ele>
        <time>2021-07-11T13:06:25Z</time>
      </trkpt>
      <trkpt lat="45.75765" lon="6.53829">
        <ele>1574</ele>
        <time>2021-07-11T13:06:29Z</time>
      </trkpt>
      <trkpt lat="45.75769" lon="6.5382">
        <ele>1574.6</ele>
        <time>2021-07-11T13:06:33Z</time>
      </trkpt>
      <trkpt lat="45.75773" lon="6.5381">
        <ele>1575.4</ele>
        <time>2021-07-11T13:06:37Z</time>
      </trkpt>
      <trkpt lat="45.75777" lon="6.53801">
        <ele>1575.6</ele>
        <time>2021-07-11T13:06:41Z</time>
      </trkpt>
      <trkpt lat="45.75781" lon="6.53791">
        <ele>1576.2</ele>
        <time>2021-07-11T13:06:45Z</time>
      </trkpt>
      <trkpt lat="45.75783" lon="6.53781">
        <ele>1576.8</ele>
        <time>2021-07-11T13:06:49Z</time>
      </trkpt>
      <trkpt lat="45.75787" lon="6.53771">
        <ele>1577.2</ele>
        <time>2021-07-11T13:06:53Z</time>
      </trkpt>
      <trkpt lat="45.7579" lon="6.53761">
        <ele>1577.8</ele>
        <time>2021-07-11T13:06:57Z</time>
      </trkpt>
      <trkpt lat="45.75794" lon="6.5375">
        <ele>1578.4</ele>
        <time>2021-07-11T13:07:01Z</time>
      </trkpt>
      <trkpt lat="45.75797" lon="6.53738">
        <ele>1578.2</ele>
        <time>2021-07-11T13:07:05Z</time>
      </trkpt>
      <trkpt lat="45.75798" lon="6.53724">
        <ele>1579</ele>
        <time>2021-07-11T13:07:09Z</time>
      </trkpt>
      <trkpt lat="45.75801" lon="6.53712">
        <ele>1580.2</ele>
        <time>2021-07-11T13:07:13Z</time>
      </trkpt>
      <trkpt lat="45.75804" lon="6.53701">
        <ele>1580.2</ele>
        <time>2021-07-11T13:07:17Z</time>
      </trkpt>
      <trkpt lat="45.75807" lon="6.5369">
        <ele>1580.4</ele>
        <time>2021-07-11T13:07:21Z</time>
      </trkpt>
      <trkpt lat="45.75812" lon="6.5368">
        <ele>1581.2</ele>
        <time>2021-07-11T13:07:25Z</time>
      </trkpt>
      <trkpt lat="45.75816" lon="6.53671">
        <ele>1581.8</ele>
        <time>2021-07-11T13:07:29Z</time>
      </trkpt>
      <trkpt lat="45.7582" lon="6.53661">
        <ele>1581.8</ele>
        <time>2021-07-11T13:07:33Z</time>
      </trkpt>
      <trkpt lat="45.75825" lon="6.53651">
        <ele>1582.4</ele>
        <time>2021-07-11T13:07:37Z</time>
      </trkpt>
      <trkpt lat="45.75829" lon="6.53641">
        <ele>1583</ele>
        <time>2021-07-11T13:07:41Z</time>
      </trkpt>
      <trkpt lat="45.75832" lon="6.53631">
        <ele>1584.2</ele>
        <time>2021-07-11T13:07:45Z</time>
      </trkpt>
      <trkpt lat="45.75836" lon="6.53621">
        <ele>1584.2</ele>
        <time>2021-07-11T13:07:49Z</time>
      </trkpt>
      <trkpt lat="45.7584" lon="6.53611">
        <ele>1584.6</ele>
        <time>2021-07-11T13:07:53Z</time>
      </trkpt>
      <trkpt lat="45.75845" lon="6.536">
        <ele>1585.2</ele>
        <time>2021-07-11T13:07:57Z</time>
      </trkpt>
      <trkpt lat="45.75851" lon="6.53592">
        <ele>1585.4</ele>
        <time>2021-07-11T13:08:01Z</time>
      </trkpt>
      <trkpt lat="45.75858" lon="6.53584">
        <ele>1586.6</ele>
        <time>2021-07-11T13:08:05Z</time>
      </trkpt>
      <trkpt lat="45.75865" lon="6.53575">
        <ele>1586.4</ele>
        <time>2021-07-11T13:08:09Z</time>
      </trkpt>
      <trkpt lat="45.75872" lon="6.53566">
        <ele>1587</ele>
        <time>2021-07-11T13:08:13Z</time>
      </trkpt>
      <trkpt lat="45.75881" lon="6.53558">
        <ele>1587.2</ele>
        <time>2021-07-11T13:08:17Z</time>
      </trkpt>
      <trkpt lat="45.75888" lon="6.53549">
        <ele>1587.4</ele>
        <time>2021-07-11T13:08:21Z</time>
      </trkpt>
      <trkpt lat="45.75895" lon="6.53539">
        <ele>1587.6</ele>
        <time>2021-07-11T13:08:25Z</time>
      </trkpt>
      <trkpt lat="45.75901" lon="6.53528">
        <ele>1588</ele>
        <time>2021-07-11T13:08:29Z</time>
      </trkpt>
      <trkpt lat="45.75907" lon="6.53515">
        <ele>1588.6</ele>
        <time>2021-07-11T13:08:33Z</time>
      </trkpt>
      <trkpt lat="45.75913" lon="6.53504">
        <ele>1588.8</ele>
        <time>2021-07-11T13:08:37Z</time>
      </trkpt>
      <trkpt lat="45.75919" lon="6.53493">
        <ele>1588.6</ele>
        <time>2021-07-11T13:08:41Z</time>
      </trkpt>
      <trkpt lat="45.75926" lon="6.53481">
        <ele>1588.8</ele>
        <time>2021-07-11T13:08:45Z</time>
      </trkpt>
      <trkpt lat="45.75933" lon="6.53465">
        <ele>1588.8</ele>
        <time>2021-07-11T13:08:49Z</time>
      </trkpt>
      <trkpt lat="45.75942" lon="6.53453">
        <ele>1590</ele>
        <time>2021-07-11T13:08:53Z</time>
      </trkpt>
      <trkpt lat="45.75951" lon="6.53442">
        <ele>1590</ele>
        <time>2021-07-11T13:08:57Z</time>
      </trkpt>
      <trkpt lat="45.75958" lon="6.5343">
        <ele>1590.2</ele>
        <time>2021-07-11T13:09:01Z</time>
      </trkpt>
      <trkpt lat="45.75965" lon="6.53416">
        <ele>1590.4</ele>
        <time>2021-07-11T13:09:05Z</time>
      </trkpt>
      <trkpt lat="45.75974" lon="6.53404">
        <ele>1590.8</ele>
        <time>2021-07-11T13:09:09Z</time>
      </trkpt>
      <trkpt lat="45.75984" lon="6.53393">
        <ele>1590.6</ele>
        <time>2021-07-11T13:09:13Z</time>
      </trkpt>
      <trkpt lat="45.75996" lon="6.53384">
        <ele>1590.4</ele>
        <time>2021-07-11T13:09:17Z</time>
      </trkpt>
      <trkpt lat="45.76007" lon="6.53377">
        <ele>1590.2</ele>
        <time>2021-07-11T13:09:21Z</time>
      </trkpt>
      <trkpt lat="45.76017" lon="6.5337">
        <ele>1589</ele>
        <time>2021-07-11T13:09:25Z</time>
      </trkpt>
      <trkpt lat="45.76029" lon="6.53365">
        <ele>1590.8</ele>
        <time>2021-07-11T13:09:29Z</time>
      </trkpt>
      <trkpt lat="45.76041" lon="6.5336">
        <ele>1590.8</ele>
        <time>2021-07-11T13:09:33Z</time>
      </trkpt>
      <trkpt lat="45.76056" lon="6.53356">
        <ele>1590.6</ele>
        <time>2021-07-11T13:09:37Z</time>
      </trkpt>
      <trkpt lat="45.76071" lon="6.53353">
        <ele>1590.8</ele>
        <time>2021-07-11T13:09:41Z</time>
      </trkpt>
      <trkpt lat="45.76086" lon="6.5335">
        <ele>1590.6</ele>
        <time>2021-07-11T13:09:45Z</time>
      </trkpt>
      <trkpt lat="45.76103" lon="6.53347">
        <ele>1590.8</ele>
        <time>2021-07-11T13:09:49Z</time>
      </trkpt>
      <trkpt lat="45.76119" lon="6.53344">
        <ele>1590.6</ele>
        <time>2021-07-11T13:09:53Z</time>
      </trkpt>
      <trkpt lat="45.76136" lon="6.53341">
        <ele>1590.8</ele>
        <time>2021-07-11T13:09:57Z</time>
      </trkpt>
      <trkpt lat="45.76153" lon="6.53339">
        <ele>1590.4</ele>
        <time>2021-07-11T13:10:01Z</time>
      </trkpt>
      <trkpt lat="45.7617" lon="6.53339">
        <ele>1590.6</ele>
        <time>2021-07-11T13:10:05Z</time>
      </trkpt>
      <trkpt lat="45.76187" lon="6.53339">
        <ele>1590.4</ele>
        <time>2021-07-11T13:10:09Z</time>
      </trkpt>
      <trkpt lat="45.76204" lon="6.53339">
        <ele>1591</ele>
        <time>2021-07-11T13:10:13Z</time>
      </trkpt>
      <trkpt lat="45.76221" lon="6.5334">
        <ele>1591</ele>
        <time>2021-07-11T13:10:17Z</time>
      </trkpt>
      <trkpt lat="45.76239" lon="6.53342">
        <ele>1591.4</ele>
        <time>2021-07-11T13:10:21Z</time>
      </trkpt>
      <trkpt lat="45.76256" lon="6.53345">
        <ele>1591</ele>
        <time>2021-07-11T13:10:25Z</time>
      </trkpt>
      <trkpt lat="45.76272" lon="6.53349">
        <ele>1590.4</ele>
        <time>2021-07-11T13:10:29Z</time>
      </trkpt>
      <trkpt lat="45.76287" lon="6.53358">
        <ele>1590.8</ele>
        <time>2021-07-11T13:10:33Z</time>
      </trkpt>
      <trkpt lat="45.76304" lon="6.53369">
        <ele>1590.2</ele>
        <time>2021-07-11T13:10:37Z</time>
      </trkpt>
      <trkpt lat="45.76317" lon="6.53391">
        <ele>1589</ele>
        <time>2021-07-11T13:10:41Z</time>
      </trkpt>
      <trkpt lat="45.76338" lon="6.53392">
        <ele>1588.4</ele>
        <time>2021-07-11T13:10:45Z</time>
      </trkpt>
      <trkpt lat="45.76355" lon="6.53397">
        <ele>1588</ele>
        <time>2021-07-11T13:10:49Z</time>
      </trkpt>
      <trkpt lat="45.76368" lon="6.53396">
        <ele>1588.4</ele>
        <time>2021-07-11T13:12:14Z</time>
      </trkpt>
      <trkpt lat="45.76381" lon="6.53391">
        <ele>1588.4</ele>
        <time>2021-07-11T13:12:18Z</time>
      </trkpt>
      <trkpt lat="45.76398" lon="6.53386">
        <ele>1587.8</ele>
        <time>2021-07-11T13:12:22Z</time>
      </trkpt>
      <trkpt lat="45.76416" lon="6.53379">
        <ele>1587.6</ele>
        <time>2021-07-11T13:12:26Z</time>
      </trkpt>
      <trkpt lat="45.76436" lon="6.53371">
        <ele>1586.4</ele>
        <time>2021-07-11T13:12:30Z</time>
      </trkpt>
      <trkpt lat="45.76458" lon="6.53364">
        <ele>1586.6</ele>
        <time>2021-07-11T13:12:34Z</time>
      </trkpt>
      <trkpt lat="45.76482" lon="6.53355">
        <ele>1585</ele>
        <time>2021-07-11T13:12:38Z</time>
      </trkpt>
      <trkpt lat="45.76508" lon="6.53345">
        <ele>1583</ele>
        <time>2021-07-11T13:12:42Z</time>
      </trkpt>
      <trkpt lat="45.76537" lon="6.53324">
        <ele>1581.8</ele>
        <time>2021-07-11T13:12:46Z</time>
      </trkpt>
      <trkpt lat="45.76565" lon="6.53304">
        <ele>1580</ele>
        <time>2021-07-11T13:12:50Z</time>
      </trkpt>
      <trkpt lat="45.76596" lon="6.53278">
        <ele>1579.4</ele>
        <time>2021-07-11T13:12:54Z</time>
      </trkpt>
      <trkpt lat="45.76628" lon="6.5326">
        <ele>1576</ele>
        <time>2021-07-11T13:12:58Z</time>
      </trkpt>
      <trkpt lat="45.76664" lon="6.53243">
        <ele>1573.4</ele>
        <time>2021-07-11T13:13:02Z</time>
      </trkpt>
      <trkpt lat="45.76704" lon="6.53227">
        <ele>1569.6</ele>
        <time>2021-07-11T13:13:06Z</time>
      </trkpt>
      <trkpt lat="45.76744" lon="6.53215">
        <ele>1566.2</ele>
        <time>2021-07-11T13:13:10Z</time>
      </trkpt>
      <trkpt lat="45.76788" lon="6.532">
        <ele>1563</ele>
        <time>2021-07-11T13:13:14Z</time>
      </trkpt>
      <trkpt lat="45.76828" lon="6.53189">
        <ele>1559.4</ele>
        <time>2021-07-11T13:13:18Z</time>
      </trkpt>
      <trkpt lat="45.76866" lon="6.53192">
        <ele>1556.4</ele>
        <time>2021-07-11T13:13:22Z</time>
      </trkpt>
      <trkpt lat="45.76904" lon="6.53209">
        <ele>1552.6</ele>
        <time>2021-07-11T13:13:26Z</time>
      </trkpt>
      <trkpt lat="45.76938" lon="6.53233">
        <ele>1550.6</ele>
        <time>2021-07-11T13:13:30Z</time>
      </trkpt>
      <trkpt lat="45.76972" lon="6.53269">
        <ele>1546.4</ele>
        <time>2021-07-11T13:13:34Z</time>
      </trkpt>
      <trkpt lat="45.77005" lon="6.53292">
        <ele>1544</ele>
        <time>2021-07-11T13:13:38Z</time>
      </trkpt>
      <trkpt lat="45.77023" lon="6.53308">
        <ele>1542.6</ele>
        <time>2021-07-11T13:13:42Z</time>
      </trkpt>
      <trkpt lat="45.77033" lon="6.53304">
        <ele>1542</ele>
        <time>2021-07-11T13:13:46Z</time>
      </trkpt>
      <trkpt lat="45.77026" lon="6.53288">
        <ele>1541.2</ele>
        <time>2021-07-11T13:13:50Z</time>
      </trkpt>
      <trkpt lat="45.77016" lon="6.53277">
        <ele>1541</ele>
        <time>2021-07-11T13:13:54Z</time>
      </trkpt>
      <trkpt lat="45.77007" lon="6.53268">
        <ele>1540.2</ele>
        <time>2021-07-11T13:13:58Z</time>
      </trkpt>
      <trkpt lat="45.76994" lon="6.53252">
        <ele>1539.2</ele>
        <time>2021-07-11T13:14:02Z</time>
      </trkpt>
      <trkpt lat="45.76985" lon="6.53225">
        <ele>1538.2</ele>
        <time>2021-07-11T13:14:06Z</time>
      </trkpt>
      <trkpt lat="45.76974" lon="6.53188">
        <ele>1536</ele>
        <time>2021-07-11T13:14:10Z</time>
      </trkpt>
      <trkpt lat="45.76957" lon="6.53148">
        <ele>1534</ele>
        <time>2021-07-11T13:14:14Z</time>
      </trkpt>
      <trkpt lat="45.76933" lon="6.53111">
        <ele>1531.2</ele>
        <time>2021-07-11T13:14:18Z</time>
      </trkpt>
      <trkpt lat="45.76907" lon="6.53077">
        <ele>1530</ele>
        <time>2021-07-11T13:14:22Z</time>
      </trkpt>
      <trkpt lat="45.76881" lon="6.53046">
        <ele>1528</ele>
        <time>2021-07-11T13:14:26Z</time>
      </trkpt>
      <trkpt lat="45.76865" lon="6.53004">
        <ele>1524.4</ele>
        <time>2021-07-11T13:14:30Z</time>
      </trkpt>
      <trkpt lat="45.76853" lon="6.52952">
        <ele>1522.4</ele>
        <time>2021-07-11T13:14:34Z</time>
      </trkpt>
      <trkpt lat="45.76824" lon="6.52909">
        <ele>1517.6</ele>
        <time>2021-07-11T13:14:38Z</time>
      </trkpt>
      <trkpt lat="45.76791" lon="6.52886">
        <ele>1515</ele>
        <time>2021-07-11T13:14:42Z</time>
      </trkpt>
      <trkpt lat="45.76795" lon="6.52868">
        <ele>1512.4</ele>
        <time>2021-07-11T13:14:46Z</time>
      </trkpt>
      <trkpt lat="45.76824" lon="6.52867">
        <ele>1509</ele>
        <time>2021-07-11T13:14:50Z</time>
      </trkpt>
      <trkpt lat="45.76863" lon="6.52867">
        <ele>1505.4</ele>
        <time>2021-07-11T13:14:54Z</time>
      </trkpt>
      <trkpt lat="45.76901" lon="6.52892">
        <ele>1502.4</ele>
        <time>2021-07-11T13:14:58Z</time>
      </trkpt>
      <trkpt lat="45.76922" lon="6.52893">
        <ele>1499</ele>
        <time>2021-07-11T13:15:02Z</time>
      </trkpt>
      <trkpt lat="45.76909" lon="6.52864">
        <ele>1497.2</ele>
        <time>2021-07-11T13:15:06Z</time>
      </trkpt>
      <trkpt lat="45.76884" lon="6.52832">
        <ele>1493.4</ele>
        <time>2021-07-11T13:15:10Z</time>
      </trkpt>
      <trkpt lat="45.76865" lon="6.5281">
        <ele>1493</ele>
        <time>2021-07-11T13:15:14Z</time>
      </trkpt>
      <trkpt lat="45.76883" lon="6.52809">
        <ele>1491</ele>
        <time>2021-07-11T13:15:18Z</time>
      </trkpt>
      <trkpt lat="45.76911" lon="6.52812">
        <ele>1488.2</ele>
        <time>2021-07-11T13:15:22Z</time>
      </trkpt>
      <trkpt lat="45.76945" lon="6.52814">
        <ele>1485.6</ele>
        <time>2021-07-11T13:15:26Z</time>
      </trkpt>
      <trkpt lat="45.76987" lon="6.52813">
        <ele>1481.6</ele>
        <time>2021-07-11T13:15:30Z</time>
      </trkpt>
      <trkpt lat="45.77034" lon="6.5282">
        <ele>1476.4</ele>
        <time>2021-07-11T13:15:34Z</time>
      </trkpt>
      <trkpt lat="45.77082" lon="6.52808">
        <ele>1474.4</ele>
        <time>2021-07-11T13:15:38Z</time>
      </trkpt>
      <trkpt lat="45.77125" lon="6.52786">
        <ele>1472.6</ele>
        <time>2021-07-11T13:15:42Z</time>
      </trkpt>
      <trkpt lat="45.77163" lon="6.52757">
        <ele>1472</ele>
        <time>2021-07-11T13:15:46Z</time>
      </trkpt>
      <trkpt lat="45.77196" lon="6.52737">
        <ele>1474</ele>
        <time>2021-07-11T13:15:50Z</time>
      </trkpt>
      <trkpt lat="45.77221" lon="6.52729">
        <ele>1474.6</ele>
        <time>2021-07-11T13:15:54Z</time>
      </trkpt>
      <trkpt lat="45.77243" lon="6.52718">
        <ele>1473</ele>
        <time>2021-07-11T13:15:58Z</time>
      </trkpt>
      <trkpt lat="45.77259" lon="6.52698">
        <ele>1474</ele>
        <time>2021-07-11T13:16:02Z</time>
      </trkpt>
      <trkpt lat="45.77277" lon="6.52689">
        <ele>1474.6</ele>
        <time>2021-07-11T13:16:06Z</time>
      </trkpt>
      <trkpt lat="45.77295" lon="6.52692">
        <ele>1475.6</ele>
        <time>2021-07-11T13:16:10Z</time>
      </trkpt>
      <trkpt lat="45.77311" lon="6.52696">
        <ele>1476</ele>
        <time>2021-07-11T13:16:14Z</time>
      </trkpt>
      <trkpt lat="45.77329" lon="6.52699">
        <ele>1475.8</ele>
        <time>2021-07-11T13:16:18Z</time>
      </trkpt>
      <trkpt lat="45.77344" lon="6.52704">
        <ele>1476.6</ele>
        <time>2021-07-11T13:16:22Z</time>
      </trkpt>
      <trkpt lat="45.77359" lon="6.52711">
        <ele>1477.6</ele>
        <time>2021-07-11T13:16:26Z</time>
      </trkpt>
      <trkpt lat="45.77375" lon="6.52715">
        <ele>1477.6</ele>
        <time>2021-07-11T13:16:30Z</time>
      </trkpt>
      <trkpt lat="45.7739" lon="6.52715">
        <ele>1478</ele>
        <time>2021-07-11T13:16:34Z</time>
      </trkpt>
      <trkpt lat="45.77405" lon="6.52714">
        <ele>1479</ele>
        <time>2021-07-11T13:16:38Z</time>
      </trkpt>
      <trkpt lat="45.7742" lon="6.52714">
        <ele>1478.4</ele>
        <time>2021-07-11T13:16:42Z</time>
      </trkpt>
      <trkpt lat="45.77434" lon="6.5272">
        <ele>1479</ele>
        <time>2021-07-11T13:16:46Z</time>
      </trkpt>
      <trkpt lat="45.77446" lon="6.52727">
        <ele>1479.4</ele>
        <time>2021-07-11T13:16:50Z</time>
      </trkpt>
      <trkpt lat="45.77458" lon="6.52733">
        <ele>1479.2</ele>
        <time>2021-07-11T13:16:54Z</time>
      </trkpt>
      <trkpt lat="45.77471" lon="6.5274">
        <ele>1479.4</ele>
        <time>2021-07-11T13:16:58Z</time>
      </trkpt>
      <trkpt lat="45.77486" lon="6.52748">
        <ele>1479.4</ele>
        <time>2021-07-11T13:17:02Z</time>
      </trkpt>
      <trkpt lat="45.77503" lon="6.52755">
        <ele>1479.8</ele>
        <time>2021-07-11T13:17:06Z</time>
      </trkpt>
      <trkpt lat="45.77521" lon="6.52763">
        <ele>1479.8</ele>
        <time>2021-07-11T13:17:10Z</time>
      </trkpt>
      <trkpt lat="45.77538" lon="6.52758">
        <ele>1480</ele>
        <time>2021-07-11T13:17:14Z</time>
      </trkpt>
      <trkpt lat="45.77554" lon="6.52747">
        <ele>1480</ele>
        <time>2021-07-11T13:17:18Z</time>
      </trkpt>
      <trkpt lat="45.77569" lon="6.52733">
        <ele>1480.8</ele>
        <time>2021-07-11T13:17:22Z</time>
      </trkpt>
      <trkpt lat="45.77581" lon="6.52717">
        <ele>1481.4</ele>
        <time>2021-07-11T13:17:26Z</time>
      </trkpt>
      <trkpt lat="45.77593" lon="6.527">
        <ele>1481.6</ele>
        <time>2021-07-11T13:17:30Z</time>
      </trkpt>
      <trkpt lat="45.77606" lon="6.52688">
        <ele>1481.4</ele>
        <time>2021-07-11T13:17:34Z</time>
      </trkpt>
      <trkpt lat="45.77622" lon="6.52678">
        <ele>1481.8</ele>
        <time>2021-07-11T13:17:38Z</time>
      </trkpt>
      <trkpt lat="45.77638" lon="6.52671">
        <ele>1481.6</ele>
        <time>2021-07-11T13:17:42Z</time>
      </trkpt>
      <trkpt lat="45.77658" lon="6.52669">
        <ele>1482.2</ele>
        <time>2021-07-11T13:17:46Z</time>
      </trkpt>
      <trkpt lat="45.77677" lon="6.52671">
        <ele>1481.6</ele>
        <time>2021-07-11T13:17:50Z</time>
      </trkpt>
      <trkpt lat="45.77694" lon="6.52674">
        <ele>1481.8</ele>
        <time>2021-07-11T13:17:54Z</time>
      </trkpt>
      <trkpt lat="45.77711" lon="6.52674">
        <ele>1482.4</ele>
        <time>2021-07-11T13:17:58Z</time>
      </trkpt>
      <trkpt lat="45.77727" lon="6.52671">
        <ele>1483.2</ele>
        <time>2021-07-11T13:18:02Z</time>
      </trkpt>
      <trkpt lat="45.77739" lon="6.52667">
        <ele>1483.8</ele>
        <time>2021-07-11T13:18:06Z</time>
      </trkpt>
      <trkpt lat="45.77751" lon="6.52666">
        <ele>1484.6</ele>
        <time>2021-07-11T13:18:10Z</time>
      </trkpt>
      <trkpt lat="45.77765" lon="6.52665">
        <ele>1484.2</ele>
        <time>2021-07-11T13:18:14Z</time>
      </trkpt>
      <trkpt lat="45.77779" lon="6.52665">
        <ele>1484.4</ele>
        <time>2021-07-11T13:18:18Z</time>
      </trkpt>
      <trkpt lat="45.77796" lon="6.52666">
        <ele>1484.8</ele>
        <time>2021-07-11T13:18:22Z</time>
      </trkpt>
      <trkpt lat="45.77814" lon="6.5267">
        <ele>1485</ele>
        <time>2021-07-11T13:18:26Z</time>
      </trkpt>
      <trkpt lat="45.77831" lon="6.52673">
        <ele>1485.6</ele>
        <time>2021-07-11T13:18:30Z</time>
      </trkpt>
      <trkpt lat="45.77845" lon="6.52677">
        <ele>1486</ele>
        <time>2021-07-11T13:18:34Z</time>
      </trkpt>
      <trkpt lat="45.77859" lon="6.52681">
        <ele>1486</ele>
        <time>2021-07-11T13:18:38Z</time>
      </trkpt>
      <trkpt lat="45.77876" lon="6.52685">
        <ele>1486.8</ele>
        <time>2021-07-11T13:18:42Z</time>
      </trkpt>
      <trkpt lat="45.77891" lon="6.52687">
        <ele>1486.8</ele>
        <time>2021-07-11T13:18:46Z</time>
      </trkpt>
      <trkpt lat="45.77907" lon="6.52687">
        <ele>1486.8</ele>
        <time>2021-07-11T13:18:50Z</time>
      </trkpt>
      <trkpt lat="45.77923" lon="6.52687">
        <ele>1487</ele>
        <time>2021-07-11T13:18:54Z</time>
      </trkpt>
      <trkpt lat="45.77939" lon="6.52684">
        <ele>1486.6</ele>
        <time>2021-07-11T13:18:58Z</time>
      </trkpt>
      <trkpt lat="45.77956" lon="6.52679">
        <ele>1486.8</ele>
        <time>2021-07-11T13:19:02Z</time>
      </trkpt>
      <trkpt lat="45.77972" lon="6.52678">
        <ele>1486.6</ele>
        <time>2021-07-11T13:19:06Z</time>
      </trkpt>
      <trkpt lat="45.77989" lon="6.52676">
        <ele>1486.6</ele>
        <time>2021-07-11T13:19:10Z</time>
      </trkpt>
      <trkpt lat="45.78004" lon="6.52671">
        <ele>1486.6</ele>
        <time>2021-07-11T13:19:14Z</time>
      </trkpt>
      <trkpt lat="45.78022" lon="6.52671">
        <ele>1486.2</ele>
        <time>2021-07-11T13:19:18Z</time>
      </trkpt>
      <trkpt lat="45.78039" lon="6.52676">
        <ele>1486.8</ele>
        <time>2021-07-11T13:19:22Z</time>
      </trkpt>
      <trkpt lat="45.78055" lon="6.52685">
        <ele>1487</ele>
        <time>2021-07-11T13:19:26Z</time>
      </trkpt>
      <trkpt lat="45.78069" lon="6.52696">
        <ele>1486.8</ele>
        <time>2021-07-11T13:19:30Z</time>
      </trkpt>
      <trkpt lat="45.78081" lon="6.52711">
        <ele>1486.8</ele>
        <time>2021-07-11T13:19:34Z</time>
      </trkpt>
      <trkpt lat="45.78093" lon="6.52727">
        <ele>1485.8</ele>
        <time>2021-07-11T13:19:38Z</time>
      </trkpt>
      <trkpt lat="45.78109" lon="6.52741">
        <ele>1485.2</ele>
        <time>2021-07-11T13:19:42Z</time>
      </trkpt>
      <trkpt lat="45.7813" lon="6.52753">
        <ele>1484.4</ele>
        <time>2021-07-11T13:19:46Z</time>
      </trkpt>
      <trkpt lat="45.78155" lon="6.52756">
        <ele>1484</ele>
        <time>2021-07-11T13:19:50Z</time>
      </trkpt>
      <trkpt lat="45.78183" lon="6.52763">
        <ele>1482.4</ele>
        <time>2021-07-11T13:19:54Z</time>
      </trkpt>
      <trkpt lat="45.78203" lon="6.52791">
        <ele>1482</ele>
        <time>2021-07-11T13:19:58Z</time>
      </trkpt>
      <trkpt lat="45.78223" lon="6.52813">
        <ele>1481.8</ele>
        <time>2021-07-11T13:20:02Z</time>
      </trkpt>
      <trkpt lat="45.78244" lon="6.5284">
        <ele>1481.2</ele>
        <time>2021-07-11T13:20:06Z</time>
      </trkpt>
      <trkpt lat="45.78263" lon="6.52866">
        <ele>1480.4</ele>
        <time>2021-07-11T13:20:10Z</time>
      </trkpt>
      <trkpt lat="45.78281" lon="6.52887">
        <ele>1480.6</ele>
        <time>2021-07-11T13:20:14Z</time>
      </trkpt>
      <trkpt lat="45.78299" lon="6.52906">
        <ele>1480</ele>
        <time>2021-07-11T13:20:18Z</time>
      </trkpt>
      <trkpt lat="45.78299" lon="6.52906">
        <ele>1480.2</ele>
        <time>2021-07-11T13:20:22Z</time>
      </trkpt>
      <trkpt lat="45.78323" lon="6.52927">
        <ele>1479.8</ele>
        <time>2021-07-11T13:20:26Z</time>
      </trkpt>
      <trkpt lat="45.78342" lon="6.52946">
        <ele>1478.8</ele>
        <time>2021-07-11T13:20:30Z</time>
      </trkpt>
      <trkpt lat="45.78358" lon="6.52972">
        <ele>1478.8</ele>
        <time>2021-07-11T13:20:34Z</time>
      </trkpt>
      <trkpt lat="45.78376" lon="6.52999">
        <ele>1478</ele>
        <time>2021-07-11T13:20:38Z</time>
      </trkpt>
      <trkpt lat="45.78393" lon="6.53025">
        <ele>1476.2</ele>
        <time>2021-07-11T13:20:42Z</time>
      </trkpt>
      <trkpt lat="45.78413" lon="6.53052">
        <ele>1474.2</ele>
        <time>2021-07-11T13:20:46Z</time>
      </trkpt>
      <trkpt lat="45.78434" lon="6.53082">
        <ele>1471.8</ele>
        <time>2021-07-11T13:20:50Z</time>
      </trkpt>
      <trkpt lat="45.78458" lon="6.53119">
        <ele>1469</ele>
        <time>2021-07-11T13:20:54Z</time>
      </trkpt>
      <trkpt lat="45.78488" lon="6.53154">
        <ele>1466.6</ele>
        <time>2021-07-11T13:20:58Z</time>
      </trkpt>
      <trkpt lat="45.7852" lon="6.53167">
        <ele>1462.4</ele>
        <time>2021-07-11T13:21:02Z</time>
      </trkpt>
      <trkpt lat="45.78566" lon="6.5315">
        <ele>1458</ele>
        <time>2021-07-11T13:21:06Z</time>
      </trkpt>
      <trkpt lat="45.78611" lon="6.53131">
        <ele>1454.8</ele>
        <time>2021-07-11T13:21:10Z</time>
      </trkpt>
      <trkpt lat="45.78662" lon="6.53144">
        <ele>1450.6</ele>
        <time>2021-07-11T13:21:14Z</time>
      </trkpt>
      <trkpt lat="45.78708" lon="6.53161">
        <ele>1446.6</ele>
        <time>2021-07-11T13:21:18Z</time>
      </trkpt>
      <trkpt lat="45.78763" lon="6.53166">
        <ele>1441</ele>
        <time>2021-07-11T13:21:22Z</time>
      </trkpt>
      <trkpt lat="45.78817" lon="6.53175">
        <ele>1437</ele>
        <time>2021-07-11T13:21:26Z</time>
      </trkpt>
      <trkpt lat="45.78863" lon="6.53169">
        <ele>1433.6</ele>
        <time>2021-07-11T13:21:30Z</time>
      </trkpt>
      <trkpt lat="45.78888" lon="6.53203">
        <ele>1429.6</ele>
        <time>2021-07-11T13:21:34Z</time>
      </trkpt>
      <trkpt lat="45.78876" lon="6.53249">
        <ele>1427.2</ele>
        <time>2021-07-11T13:21:38Z</time>
      </trkpt>
      <trkpt lat="45.78854" lon="6.53294">
        <ele>1422.6</ele>
        <time>2021-07-11T13:21:42Z</time>
      </trkpt>
      <trkpt lat="45.7883" lon="6.53331">
        <ele>1420.6</ele>
        <time>2021-07-11T13:21:46Z</time>
      </trkpt>
      <trkpt lat="45.78809" lon="6.53361">
        <ele>1416.8</ele>
        <time>2021-07-11T13:21:50Z</time>
      </trkpt>
      <trkpt lat="45.78833" lon="6.53381">
        <ele>1412.8</ele>
        <time>2021-07-11T13:21:54Z</time>
      </trkpt>
      <trkpt lat="45.78871" lon="6.53369">
        <ele>1408.8</ele>
        <time>2021-07-11T13:21:58Z</time>
      </trkpt>
      <trkpt lat="45.78916" lon="6.5336">
        <ele>1403.6</ele>
        <time>2021-07-11T13:22:02Z</time>
      </trkpt>
      <trkpt lat="45.78958" lon="6.53326">
        <ele>1399.6</ele>
        <time>2021-07-11T13:22:06Z</time>
      </trkpt>
      <trkpt lat="45.78991" lon="6.53271">
        <ele>1394.4</ele>
        <time>2021-07-11T13:22:10Z</time>
      </trkpt>
      <trkpt lat="45.79024" lon="6.53214">
        <ele>1389.6</ele>
        <time>2021-07-11T13:22:14Z</time>
      </trkpt>
      <trkpt lat="45.79062" lon="6.53165">
        <ele>1384.4</ele>
        <time>2021-07-11T13:22:18Z</time>
      </trkpt>
      <trkpt lat="45.79108" lon="6.53148">
        <ele>1380.4</ele>
        <time>2021-07-11T13:22:22Z</time>
      </trkpt>
      <trkpt lat="45.7916" lon="6.53153">
        <ele>1374.8</ele>
        <time>2021-07-11T13:22:26Z</time>
      </trkpt>
      <trkpt lat="45.79211" lon="6.53174">
        <ele>1372</ele>
        <time>2021-07-11T13:22:30Z</time>
      </trkpt>
      <trkpt lat="45.79261" lon="6.53195">
        <ele>1369.8</ele>
        <time>2021-07-11T13:22:34Z</time>
      </trkpt>
      <trkpt lat="45.793" lon="6.532">
        <ele>1365.8</ele>
        <time>2021-07-11T13:22:38Z</time>
      </trkpt>
      <trkpt lat="45.79336" lon="6.53213">
        <ele>1361.2</ele>
        <time>2021-07-11T13:22:42Z</time>
      </trkpt>
      <trkpt lat="45.79363" lon="6.53252">
        <ele>1358.4</ele>
        <time>2021-07-11T13:22:46Z</time>
      </trkpt>
      <trkpt lat="45.79392" lon="6.53266">
        <ele>1354.8</ele>
        <time>2021-07-11T13:22:50Z</time>
      </trkpt>
      <trkpt lat="45.79425" lon="6.53242">
        <ele>1350.2</ele>
        <time>2021-07-11T13:22:54Z</time>
      </trkpt>
      <trkpt lat="45.79463" lon="6.53214">
        <ele>1345.6</ele>
        <time>2021-07-11T13:22:58Z</time>
      </trkpt>
      <trkpt lat="45.79495" lon="6.53173">
        <ele>1341.2</ele>
        <time>2021-07-11T13:23:02Z</time>
      </trkpt>
      <trkpt lat="45.79506" lon="6.53111">
        <ele>1338</ele>
        <time>2021-07-11T13:23:06Z</time>
      </trkpt>
      <trkpt lat="45.7953" lon="6.53075">
        <ele>1336.2</ele>
        <time>2021-07-11T13:23:10Z</time>
      </trkpt>
      <trkpt lat="45.79562" lon="6.5307">
        <ele>1333.8</ele>
        <time>2021-07-11T13:23:14Z</time>
      </trkpt>
      <trkpt lat="45.79585" lon="6.53028">
        <ele>1330</ele>
        <time>2021-07-11T13:23:18Z</time>
      </trkpt>
      <trkpt lat="45.79601" lon="6.52981">
        <ele>1325</ele>
        <time>2021-07-11T13:23:22Z</time>
      </trkpt>
      <trkpt lat="45.79609" lon="6.5292">
        <ele>1321.4</ele>
        <time>2021-07-11T13:23:26Z</time>
      </trkpt>
      <trkpt lat="45.79618" lon="6.52857">
        <ele>1317.6</ele>
        <time>2021-07-11T13:23:30Z</time>
      </trkpt>
      <trkpt lat="45.79643" lon="6.52821">
        <ele>1314.4</ele>
        <time>2021-07-11T13:23:34Z</time>
      </trkpt>
      <trkpt lat="45.79666" lon="6.52778">
        <ele>1310.8</ele>
        <time>2021-07-11T13:23:38Z</time>
      </trkpt>
      <trkpt lat="45.7968" lon="6.52721">
        <ele>1306.4</ele>
        <time>2021-07-11T13:23:42Z</time>
      </trkpt>
      <trkpt lat="45.79718" lon="6.52686">
        <ele>1301.6</ele>
        <time>2021-07-11T13:23:46Z</time>
      </trkpt>
      <trkpt lat="45.79759" lon="6.52648">
        <ele>1297.4</ele>
        <time>2021-07-11T13:23:50Z</time>
      </trkpt>
      <trkpt lat="45.798" lon="6.52606">
        <ele>1292</ele>
        <time>2021-07-11T13:23:54Z</time>
      </trkpt>
      <trkpt lat="45.79832" lon="6.52561">
        <ele>1288</ele>
        <time>2021-07-11T13:23:58Z</time>
      </trkpt>
      <trkpt lat="45.79858" lon="6.52509">
        <ele>1283.6</ele>
        <time>2021-07-11T13:24:02Z</time>
      </trkpt>
      <trkpt lat="45.79877" lon="6.52449">
        <ele>1280</ele>
        <time>2021-07-11T13:24:06Z</time>
      </trkpt>
      <trkpt lat="45.79895" lon="6.52386">
        <ele>1277</ele>
        <time>2021-07-11T13:24:10Z</time>
      </trkpt>
      <trkpt lat="45.79905" lon="6.5232">
        <ele>1274</ele>
        <time>2021-07-11T13:24:14Z</time>
      </trkpt>
      <trkpt lat="45.79912" lon="6.52255">
        <ele>1270.6</ele>
        <time>2021-07-11T13:24:18Z</time>
      </trkpt>
      <trkpt lat="45.79914" lon="6.52191">
        <ele>1264.4</ele>
        <time>2021-07-11T13:24:22Z</time>
      </trkpt>
      <trkpt lat="45.79909" lon="6.52122">
        <ele>1258.6</ele>
        <time>2021-07-11T13:24:26Z</time>
      </trkpt>
      <trkpt lat="45.799" lon="6.52051">
        <ele>1254.4</ele>
        <time>2021-07-11T13:24:30Z</time>
      </trkpt>
      <trkpt lat="45.79888" lon="6.51977">
        <ele>1250.8</ele>
        <time>2021-07-11T13:24:34Z</time>
      </trkpt>
      <trkpt lat="45.79876" lon="6.51908">
        <ele>1247.8</ele>
        <time>2021-07-11T13:24:38Z</time>
      </trkpt>
      <trkpt lat="45.79868" lon="6.51841">
        <ele>1245.6</ele>
        <time>2021-07-11T13:24:42Z</time>
      </trkpt>
      <trkpt lat="45.79864" lon="6.51777">
        <ele>1241.6</ele>
        <time>2021-07-11T13:24:46Z</time>
      </trkpt>
      <trkpt lat="45.79853" lon="6.51716">
        <ele>1239</ele>
        <time>2021-07-11T13:24:50Z</time>
      </trkpt>
      <trkpt lat="45.79839" lon="6.51659">
        <ele>1236.4</ele>
        <time>2021-07-11T13:24:54Z</time>
      </trkpt>
      <trkpt lat="45.79821" lon="6.51603">
        <ele>1233</ele>
        <time>2021-07-11T13:24:58Z</time>
      </trkpt>
      <trkpt lat="45.79803" lon="6.51545">
        <ele>1229</ele>
        <time>2021-07-11T13:25:02Z</time>
      </trkpt>
      <trkpt lat="45.79779" lon="6.51487">
        <ele>1223.8</ele>
        <time>2021-07-11T13:25:06Z</time>
      </trkpt>
      <trkpt lat="45.79753" lon="6.51427">
        <ele>1219.4</ele>
        <time>2021-07-11T13:25:10Z</time>
      </trkpt>
      <trkpt lat="45.79726" lon="6.51366">
        <ele>1214.6</ele>
        <time>2021-07-11T13:25:14Z</time>
      </trkpt>
      <trkpt lat="45.79698" lon="6.51305">
        <ele>1209.2</ele>
        <time>2021-07-11T13:25:18Z</time>
      </trkpt>
      <trkpt lat="45.79673" lon="6.51249">
        <ele>1205.4</ele>
        <time>2021-07-11T13:25:22Z</time>
      </trkpt>
      <trkpt lat="45.79647" lon="6.51192">
        <ele>1201.4</ele>
        <time>2021-07-11T13:25:26Z</time>
      </trkpt>
      <trkpt lat="45.79615" lon="6.51149">
        <ele>1196.6</ele>
        <time>2021-07-11T13:25:30Z</time>
      </trkpt>
      <trkpt lat="45.79601" lon="6.51097">
        <ele>1192.4</ele>
        <time>2021-07-11T13:25:34Z</time>
      </trkpt>
      <trkpt lat="45.79604" lon="6.51038">
        <ele>1190</ele>
        <time>2021-07-11T13:25:38Z</time>
      </trkpt>
      <trkpt lat="45.7962" lon="6.50982">
        <ele>1186.6</ele>
        <time>2021-07-11T13:25:42Z</time>
      </trkpt>
      <trkpt lat="45.79609" lon="6.50927">
        <ele>1183.8</ele>
        <time>2021-07-11T13:25:46Z</time>
      </trkpt>
      <trkpt lat="45.79588" lon="6.50874">
        <ele>1181</ele>
        <time>2021-07-11T13:25:50Z</time>
      </trkpt>
      <trkpt lat="45.79568" lon="6.50819">
        <ele>1176.6</ele>
        <time>2021-07-11T13:25:54Z</time>
      </trkpt>
      <trkpt lat="45.79555" lon="6.50758">
        <ele>1173.4</ele>
        <time>2021-07-11T13:25:58Z</time>
      </trkpt>
      <trkpt lat="45.79545" lon="6.50697">
        <ele>1170.4</ele>
        <time>2021-07-11T13:26:02Z</time>
      </trkpt>
      <trkpt lat="45.79535" lon="6.50636">
        <ele>1168.2</ele>
        <time>2021-07-11T13:26:06Z</time>
      </trkpt>
      <trkpt lat="45.79525" lon="6.50586">
        <ele>1166.8</ele>
        <time>2021-07-11T13:26:10Z</time>
      </trkpt>
      <trkpt lat="45.79524" lon="6.50561">
        <ele>1166.2</ele>
        <time>2021-07-11T13:26:14Z</time>
      </trkpt>
      <trkpt lat="45.79524" lon="6.50552">
        <ele>1166.2</ele>
        <time>2021-07-11T13:26:18Z</time>
      </trkpt>
      <trkpt lat="45.79521" lon="6.50538">
        <ele>1165.6</ele>
        <time>2021-07-11T13:26:22Z</time>
      </trkpt>
      <trkpt lat="45.79514" lon="6.50523">
        <ele>1165.4</ele>
        <time>2021-07-11T13:26:26Z</time>
      </trkpt>
      <trkpt lat="45.79505" lon="6.50509">
        <ele>1165.6</ele>
        <time>2021-07-11T13:26:30Z</time>
      </trkpt>
      <trkpt lat="45.79495" lon="6.50494">
        <ele>1164.2</ele>
        <time>2021-07-11T13:26:34Z</time>
      </trkpt>
      <trkpt lat="45.7949" lon="6.5048">
        <ele>1163.6</ele>
        <time>2021-07-11T13:26:38Z</time>
      </trkpt>
      <trkpt lat="45.79483" lon="6.50471">
        <ele>1163.4</ele>
        <time>2021-07-11T13:26:42Z</time>
      </trkpt>
      <trkpt lat="45.7948" lon="6.50464">
        <ele>1163.4</ele>
        <time>2021-07-11T13:26:46Z</time>
      </trkpt>
      <trkpt lat="45.79485" lon="6.50456">
        <ele>1163</ele>
        <time>2021-07-11T13:26:50Z</time>
      </trkpt>
      <trkpt lat="45.79484" lon="6.50454">
        <ele>1163.8</ele>
        <time>2021-07-11T13:27:35Z</time>
      </trkpt>
      <trkpt lat="45.79481" lon="6.50461">
        <ele>1163.4</ele>
        <time>2021-07-11T13:27:39Z</time>
      </trkpt>
      <trkpt lat="45.79474" lon="6.50463">
        <ele>1163.4</ele>
        <time>2021-07-11T13:27:43Z</time>
      </trkpt>
      <trkpt lat="45.79463" lon="6.50453">
        <ele>1163.6</ele>
        <time>2021-07-11T13:27:47Z</time>
      </trkpt>
      <trkpt lat="45.79451" lon="6.50435">
        <ele>1162.2</ele>
        <time>2021-07-11T13:27:51Z</time>
      </trkpt>
      <trkpt lat="45.7944" lon="6.50415">
        <ele>1162</ele>
        <time>2021-07-11T13:27:55Z</time>
      </trkpt>
      <trkpt lat="45.79426" lon="6.50397">
        <ele>1161.8</ele>
        <time>2021-07-11T13:27:59Z</time>
      </trkpt>
      <trkpt lat="45.79411" lon="6.50381">
        <ele>1161.8</ele>
        <time>2021-07-11T13:28:03Z</time>
      </trkpt>
      <trkpt lat="45.79396" lon="6.50364">
        <ele>1161.2</ele>
        <time>2021-07-11T13:28:07Z</time>
      </trkpt>
      <trkpt lat="45.79381" lon="6.50348">
        <ele>1161.2</ele>
        <time>2021-07-11T13:28:11Z</time>
      </trkpt>
      <trkpt lat="45.79367" lon="6.50332">
        <ele>1160.8</ele>
        <time>2021-07-11T13:28:15Z</time>
      </trkpt>
      <trkpt lat="45.79354" lon="6.50315">
        <ele>1161.2</ele>
        <time>2021-07-11T13:28:19Z</time>
      </trkpt>
      <trkpt lat="45.7934" lon="6.50296">
        <ele>1160.8</ele>
        <time>2021-07-11T13:28:23Z</time>
      </trkpt>
      <trkpt lat="45.79328" lon="6.50277">
        <ele>1161.2</ele>
        <time>2021-07-11T13:28:27Z</time>
      </trkpt>
      <trkpt lat="45.79315" lon="6.50257">
        <ele>1160.4</ele>
        <time>2021-07-11T13:28:31Z</time>
      </trkpt>
      <trkpt lat="45.79302" lon="6.50237">
        <ele>1160.6</ele>
        <time>2021-07-11T13:28:35Z</time>
      </trkpt>
      <trkpt lat="45.79289" lon="6.50219">
        <ele>1160.6</ele>
        <time>2021-07-11T13:28:39Z</time>
      </trkpt>
      <trkpt lat="45.79276" lon="6.502">
        <ele>1160.2</ele>
        <time>2021-07-11T13:28:43Z</time>
      </trkpt>
      <trkpt lat="45.79262" lon="6.50182">
        <ele>1160.6</ele>
        <time>2021-07-11T13:28:47Z</time>
      </trkpt>
      <trkpt lat="45.79248" lon="6.50166">
        <ele>1160.2</ele>
        <time>2021-07-11T13:28:51Z</time>
      </trkpt>
      <trkpt lat="45.79231" lon="6.50153">
        <ele>1159.2</ele>
        <time>2021-07-11T13:28:55Z</time>
      </trkpt>
      <trkpt lat="45.79215" lon="6.50141">
        <ele>1159.8</ele>
        <time>2021-07-11T13:28:59Z</time>
      </trkpt>
      <trkpt lat="45.79197" lon="6.50131">
        <ele>1158.8</ele>
        <time>2021-07-11T13:29:03Z</time>
      </trkpt>
      <trkpt lat="45.79178" lon="6.50118">
        <ele>1159.2</ele>
        <time>2021-07-11T13:29:07Z</time>
      </trkpt>
      <trkpt lat="45.79159" lon="6.50107">
        <ele>1158.8</ele>
        <time>2021-07-11T13:29:11Z</time>
      </trkpt>
      <trkpt lat="45.79141" lon="6.50096">
        <ele>1159</ele>
        <time>2021-07-11T13:29:15Z</time>
      </trkpt>
      <trkpt lat="45.79123" lon="6.50085">
        <ele>1157.6</ele>
        <time>2021-07-11T13:29:19Z</time>
      </trkpt>
      <trkpt lat="45.79105" lon="6.50074">
        <ele>1157.4</ele>
        <time>2021-07-11T13:29:23Z</time>
      </trkpt>
      <trkpt lat="45.79095" lon="6.50065">
        <ele>1157.2</ele>
        <time>2021-07-11T13:29:27Z</time>
      </trkpt>
      <trkpt lat="45.79092" lon="6.50063">
        <ele>1156.2</ele>
        <time>2021-07-11T13:29:39Z</time>
      </trkpt>
      <trkpt lat="45.7908" lon="6.50063">
        <ele>1156</ele>
        <time>2021-07-11T13:29:43Z</time>
      </trkpt>
      <trkpt lat="45.79063" lon="6.50056">
        <ele>1156.2</ele>
        <time>2021-07-11T13:29:47Z</time>
      </trkpt>
      <trkpt lat="45.79045" lon="6.50047">
        <ele>1155.2</ele>
        <time>2021-07-11T13:29:51Z</time>
      </trkpt>
      <trkpt lat="45.79028" lon="6.50043">
        <ele>1155.4</ele>
        <time>2021-07-11T13:29:55Z</time>
      </trkpt>
      <trkpt lat="45.7901" lon="6.5005">
        <ele>1155.2</ele>
        <time>2021-07-11T13:29:59Z</time>
      </trkpt>
      <trkpt lat="45.78995" lon="6.50061">
        <ele>1155.8</ele>
        <time>2021-07-11T13:30:03Z</time>
      </trkpt>
      <trkpt lat="45.78981" lon="6.50071">
        <ele>1155.6</ele>
        <time>2021-07-11T13:30:07Z</time>
      </trkpt>
      <trkpt lat="45.78967" lon="6.50079">
        <ele>1156</ele>
        <time>2021-07-11T13:30:11Z</time>
      </trkpt>
      <trkpt lat="45.78953" lon="6.50082">
        <ele>1157</ele>
        <time>2021-07-11T13:30:15Z</time>
      </trkpt>
      <trkpt lat="45.78942" lon="6.5008">
        <ele>1158</ele>
        <time>2021-07-11T13:30:19Z</time>
      </trkpt>
      <trkpt lat="45.78934" lon="6.50078">
        <ele>1158.4</ele>
        <time>2021-07-11T13:30:23Z</time>
      </trkpt>
      <trkpt lat="45.78925" lon="6.50075">
        <ele>1158.8</ele>
        <time>2021-07-11T13:30:27Z</time>
      </trkpt>
      <trkpt lat="45.78916" lon="6.50073">
        <ele>1159.4</ele>
        <time>2021-07-11T13:30:31Z</time>
      </trkpt>
      <trkpt lat="45.78907" lon="6.5007">
        <ele>1160</ele>
        <time>2021-07-11T13:30:35Z</time>
      </trkpt>
      <trkpt lat="45.78898" lon="6.50066">
        <ele>1160.4</ele>
        <time>2021-07-11T13:30:39Z</time>
      </trkpt>
      <trkpt lat="45.7889" lon="6.50062">
        <ele>1160.8</ele>
        <time>2021-07-11T13:30:43Z</time>
      </trkpt>
      <trkpt lat="45.78881" lon="6.50059">
        <ele>1161</ele>
        <time>2021-07-11T13:30:47Z</time>
      </trkpt>
      <trkpt lat="45.78872" lon="6.50055">
        <ele>1161.6</ele>
        <time>2021-07-11T13:30:51Z</time>
      </trkpt>
      <trkpt lat="45.78863" lon="6.50053">
        <ele>1162.2</ele>
        <time>2021-07-11T13:30:55Z</time>
      </trkpt>
      <trkpt lat="45.78854" lon="6.50053">
        <ele>1163.4</ele>
        <time>2021-07-11T13:30:59Z</time>
      </trkpt>
      <trkpt lat="45.78844" lon="6.50054">
        <ele>1163.8</ele>
        <time>2021-07-11T13:31:03Z</time>
      </trkpt>
      <trkpt lat="45.78834" lon="6.50055">
        <ele>1163.6</ele>
        <time>2021-07-11T13:31:07Z</time>
      </trkpt>
      <trkpt lat="45.78825" lon="6.50056">
        <ele>1164.6</ele>
        <time>2021-07-11T13:31:11Z</time>
      </trkpt>
      <trkpt lat="45.78816" lon="6.50057">
        <ele>1165</ele>
        <time>2021-07-11T13:31:15Z</time>
      </trkpt>
      <trkpt lat="45.78807" lon="6.50057">
        <ele>1166</ele>
        <time>2021-07-11T13:31:19Z</time>
      </trkpt>
      <trkpt lat="45.78798" lon="6.50056">
        <ele>1166.6</ele>
        <time>2021-07-11T13:31:23Z</time>
      </trkpt>
      <trkpt lat="45.7879" lon="6.50055">
        <ele>1166.4</ele>
        <time>2021-07-11T13:31:27Z</time>
      </trkpt>
      <trkpt lat="45.7878" lon="6.50053">
        <ele>1167.4</ele>
        <time>2021-07-11T13:31:31Z</time>
      </trkpt>
      <trkpt lat="45.78771" lon="6.50051">
        <ele>1167.8</ele>
        <time>2021-07-11T13:31:35Z</time>
      </trkpt>
      <trkpt lat="45.78762" lon="6.50049">
        <ele>1168.4</ele>
        <time>2021-07-11T13:31:39Z</time>
      </trkpt>
      <trkpt lat="45.78754" lon="6.50048">
        <ele>1169</ele>
        <time>2021-07-11T13:31:43Z</time>
      </trkpt>
      <trkpt lat="45.78746" lon="6.50047">
        <ele>1169.8</ele>
        <time>2021-07-11T13:31:47Z</time>
      </trkpt>
      <trkpt lat="45.78737" lon="6.5005">
        <ele>1170.4</ele>
        <time>2021-07-11T13:31:51Z</time>
      </trkpt>
      <trkpt lat="45.78729" lon="6.50056">
        <ele>1170.4</ele>
        <time>2021-07-11T13:31:55Z</time>
      </trkpt>
      <trkpt lat="45.78718" lon="6.50062">
        <ele>1170.2</ele>
        <time>2021-07-11T13:31:59Z</time>
      </trkpt>
      <trkpt lat="45.78705" lon="6.50058">
        <ele>1171</ele>
        <time>2021-07-11T13:32:03Z</time>
      </trkpt>
      <trkpt lat="45.78693" lon="6.50051">
        <ele>1171.6</ele>
        <time>2021-07-11T13:32:07Z</time>
      </trkpt>
      <trkpt lat="45.78684" lon="6.50043">
        <ele>1172</ele>
        <time>2021-07-11T13:32:11Z</time>
      </trkpt>
      <trkpt lat="45.78675" lon="6.50037">
        <ele>1172.8</ele>
        <time>2021-07-11T13:32:15Z</time>
      </trkpt>
      <trkpt lat="45.78667" lon="6.5003">
        <ele>1173</ele>
        <time>2021-07-11T13:32:19Z</time>
      </trkpt>
      <trkpt lat="45.7866" lon="6.50022">
        <ele>1173.4</ele>
        <time>2021-07-11T13:32:23Z</time>
      </trkpt>
      <trkpt lat="45.78653" lon="6.50013">
        <ele>1174</ele>
        <time>2021-07-11T13:32:27Z</time>
      </trkpt>
      <trkpt lat="45.78647" lon="6.50004">
        <ele>1174.8</ele>
        <time>2021-07-11T13:32:31Z</time>
      </trkpt>
      <trkpt lat="45.78641" lon="6.49996">
        <ele>1175.4</ele>
        <time>2021-07-11T13:32:35Z</time>
      </trkpt>
      <trkpt lat="45.78634" lon="6.49987">
        <ele>1175.6</ele>
        <time>2021-07-11T13:32:39Z</time>
      </trkpt>
      <trkpt lat="45.78626" lon="6.49981">
        <ele>1176.8</ele>
        <time>2021-07-11T13:32:43Z</time>
      </trkpt>
      <trkpt lat="45.78618" lon="6.49975">
        <ele>1176.8</ele>
        <time>2021-07-11T13:32:47Z</time>
      </trkpt>
      <trkpt lat="45.78609" lon="6.4997">
        <ele>1177.2</ele>
        <time>2021-07-11T13:32:51Z</time>
      </trkpt>
      <trkpt lat="45.78601" lon="6.49966">
        <ele>1177.2</ele>
        <time>2021-07-11T13:32:55Z</time>
      </trkpt>
      <trkpt lat="45.78592" lon="6.49963">
        <ele>1178.4</ele>
        <time>2021-07-11T13:32:59Z</time>
      </trkpt>
      <trkpt lat="45.78583" lon="6.4996">
        <ele>1178.8</ele>
        <time>2021-07-11T13:33:03Z</time>
      </trkpt>
      <trkpt lat="45.78574" lon="6.49957">
        <ele>1178.6</ele>
        <time>2021-07-11T13:33:07Z</time>
      </trkpt>
      <trkpt lat="45.78566" lon="6.49955">
        <ele>1179.8</ele>
        <time>2021-07-11T13:33:11Z</time>
      </trkpt>
      <trkpt lat="45.78556" lon="6.49951">
        <ele>1180.4</ele>
        <time>2021-07-11T13:33:15Z</time>
      </trkpt>
      <trkpt lat="45.78549" lon="6.49947">
        <ele>1181.2</ele>
        <time>2021-07-11T13:33:19Z</time>
      </trkpt>
      <trkpt lat="45.78541" lon="6.49941">
        <ele>1181.6</ele>
        <time>2021-07-11T13:33:23Z</time>
      </trkpt>
      <trkpt lat="45.78533" lon="6.49935">
        <ele>1182.6</ele>
        <time>2021-07-11T13:33:27Z</time>
      </trkpt>
      <trkpt lat="45.78525" lon="6.49928">
        <ele>1182.4</ele>
        <time>2021-07-11T13:33:31Z</time>
      </trkpt>
      <trkpt lat="45.78516" lon="6.49921">
        <ele>1183</ele>
        <time>2021-07-11T13:33:35Z</time>
      </trkpt>
      <trkpt lat="45.78507" lon="6.49916">
        <ele>1183.6</ele>
        <time>2021-07-11T13:33:39Z</time>
      </trkpt>
      <trkpt lat="45.78498" lon="6.49912">
        <ele>1183.8</ele>
        <time>2021-07-11T13:33:43Z</time>
      </trkpt>
      <trkpt lat="45.7849" lon="6.49907">
        <ele>1184.6</ele>
        <time>2021-07-11T13:33:47Z</time>
      </trkpt>
      <trkpt lat="45.78481" lon="6.49902">
        <ele>1185.2</ele>
        <time>2021-07-11T13:33:51Z</time>
      </trkpt>
      <trkpt lat="45.78472" lon="6.49898">
        <ele>1185.8</ele>
        <time>2021-07-11T13:33:55Z</time>
      </trkpt>
      <trkpt lat="45.78464" lon="6.49894">
        <ele>1185.6</ele>
        <time>2021-07-11T13:33:59Z</time>
      </trkpt>
      <trkpt lat="45.78455" lon="6.4989">
        <ele>1185.8</ele>
        <time>2021-07-11T13:34:03Z</time>
      </trkpt>
      <trkpt lat="45.78445" lon="6.49885">
        <ele>1186.4</ele>
        <time>2021-07-11T13:34:07Z</time>
      </trkpt>
      <trkpt lat="45.78435" lon="6.4988">
        <ele>1187</ele>
        <time>2021-07-11T13:34:11Z</time>
      </trkpt>
      <trkpt lat="45.78424" lon="6.49877">
        <ele>1187</ele>
        <time>2021-07-11T13:34:15Z</time>
      </trkpt>
      <trkpt lat="45.78412" lon="6.49876">
        <ele>1187.4</ele>
        <time>2021-07-11T13:34:19Z</time>
      </trkpt>
      <trkpt lat="45.78399" lon="6.49874">
        <ele>1187</ele>
        <time>2021-07-11T13:34:23Z</time>
      </trkpt>
      <trkpt lat="45.78385" lon="6.49871">
        <ele>1186.6</ele>
        <time>2021-07-11T13:34:27Z</time>
      </trkpt>
      <trkpt lat="45.78373" lon="6.49865">
        <ele>1186.6</ele>
        <time>2021-07-11T13:34:31Z</time>
      </trkpt>
      <trkpt lat="45.7836" lon="6.49849">
        <ele>1185</ele>
        <time>2021-07-11T13:34:35Z</time>
      </trkpt>
      <trkpt lat="45.78343" lon="6.49836">
        <ele>1185.4</ele>
        <time>2021-07-11T13:34:39Z</time>
      </trkpt>
      <trkpt lat="45.78328" lon="6.49831">
        <ele>1186.4</ele>
        <time>2021-07-11T13:34:43Z</time>
      </trkpt>
      <trkpt lat="45.78315" lon="6.49828">
        <ele>1186.4</ele>
        <time>2021-07-11T13:34:47Z</time>
      </trkpt>
      <trkpt lat="45.78302" lon="6.4983">
        <ele>1186.4</ele>
        <time>2021-07-11T13:34:51Z</time>
      </trkpt>
      <trkpt lat="45.78295" lon="6.49843">
        <ele>1186.8</ele>
        <time>2021-07-11T13:34:55Z</time>
      </trkpt>
      <trkpt lat="45.78291" lon="6.49852">
        <ele>1187.2</ele>
        <time>2021-07-11T13:34:59Z</time>
      </trkpt>
      <trkpt lat="45.7829" lon="6.49859">
        <ele>1187.4</ele>
        <time>2021-07-11T13:35:03Z</time>
      </trkpt>
      <trkpt lat="45.78291" lon="6.4986">
        <ele>1187.4</ele>
        <time>2021-07-11T13:35:07Z</time>
      </trkpt>
      <trkpt lat="45.78295" lon="6.49857">
        <ele>1187</ele>
        <time>2021-07-11T13:35:11Z</time>
      </trkpt>
      <trkpt lat="45.78298" lon="6.49861">
        <ele>1187.6</ele>
        <time>2021-07-11T13:35:15Z</time>
      </trkpt>
      <trkpt lat="45.78291" lon="6.49861">
        <ele>1188</ele>
        <time>2021-07-11T13:39:35Z</time>
      </trkpt>
      <trkpt lat="45.78287" lon="6.49866">
        <ele>1187.4</ele>
        <time>2021-07-11T13:39:39Z</time>
      </trkpt>
      <trkpt lat="45.78281" lon="6.49864">
        <ele>1187.6</ele>
        <time>2021-07-11T13:39:43Z</time>
      </trkpt>
      <trkpt lat="45.78274" lon="6.4986">
        <ele>1187.6</ele>
        <time>2021-07-11T13:39:47Z</time>
      </trkpt>
      <trkpt lat="45.78264" lon="6.49853">
        <ele>1187.4</ele>
        <time>2021-07-11T13:39:51Z</time>
      </trkpt>
      <trkpt lat="45.78252" lon="6.49849">
        <ele>1186.6</ele>
        <time>2021-07-11T13:39:55Z</time>
      </trkpt>
      <trkpt lat="45.78239" lon="6.49845">
        <ele>1187</ele>
        <time>2021-07-11T13:39:59Z</time>
      </trkpt>
      <trkpt lat="45.78225" lon="6.49846">
        <ele>1186.4</ele>
        <time>2021-07-11T13:40:03Z</time>
      </trkpt>
      <trkpt lat="45.7821" lon="6.49852">
        <ele>1187.2</ele>
        <time>2021-07-11T13:40:07Z</time>
      </trkpt>
      <trkpt lat="45.78198" lon="6.49863">
        <ele>1187.2</ele>
        <time>2021-07-11T13:40:11Z</time>
      </trkpt>
      <trkpt lat="45.78188" lon="6.49877">
        <ele>1186.8</ele>
        <time>2021-07-11T13:40:15Z</time>
      </trkpt>
      <trkpt lat="45.78179" lon="6.49895">
        <ele>1186.2</ele>
        <time>2021-07-11T13:40:19Z</time>
      </trkpt>
      <trkpt lat="45.78169" lon="6.4992">
        <ele>1184.2</ele>
        <time>2021-07-11T13:40:23Z</time>
      </trkpt>
      <trkpt lat="45.78155" lon="6.49948">
        <ele>1182.4</ele>
        <time>2021-07-11T13:40:27Z</time>
      </trkpt>
      <trkpt lat="45.78134" lon="6.49952">
        <ele>1182</ele>
        <time>2021-07-11T13:40:31Z</time>
      </trkpt>
      <trkpt lat="45.78119" lon="6.49938">
        <ele>1180.2</ele>
        <time>2021-07-11T13:40:35Z</time>
      </trkpt>
      <trkpt lat="45.78106" lon="6.49925">
        <ele>1179.2</ele>
        <time>2021-07-11T13:40:39Z</time>
      </trkpt>
      <trkpt lat="45.7809" lon="6.4991">
        <ele>1177.2</ele>
        <time>2021-07-11T13:40:43Z</time>
      </trkpt>
      <trkpt lat="45.7807" lon="6.49893">
        <ele>1176.2</ele>
        <time>2021-07-11T13:40:47Z</time>
      </trkpt>
      <trkpt lat="45.78048" lon="6.49885">
        <ele>1175</ele>
        <time>2021-07-11T13:40:51Z</time>
      </trkpt>
      <trkpt lat="45.78033" lon="6.49914">
        <ele>1173</ele>
        <time>2021-07-11T13:40:55Z</time>
      </trkpt>
      <trkpt lat="45.78023" lon="6.49955">
        <ele>1170.8</ele>
        <time>2021-07-11T13:40:59Z</time>
      </trkpt>
      <trkpt lat="45.78016" lon="6.50002">
        <ele>1167.8</ele>
        <time>2021-07-11T13:41:03Z</time>
      </trkpt>
      <trkpt lat="45.78016" lon="6.50054">
        <ele>1165.6</ele>
        <time>2021-07-11T13:41:07Z</time>
      </trkpt>
      <trkpt lat="45.78013" lon="6.50109">
        <ele>1163</ele>
        <time>2021-07-11T13:41:11Z</time>
      </trkpt>
      <trkpt lat="45.78003" lon="6.50172">
        <ele>1160.2</ele>
        <time>2021-07-11T13:41:15Z</time>
      </trkpt>
      <trkpt lat="45.77994" lon="6.50234">
        <ele>1157.8</ele>
        <time>2021-07-11T13:41:19Z</time>
      </trkpt>
      <trkpt lat="45.77987" lon="6.503">
        <ele>1155.6</ele>
        <time>2021-07-11T13:41:23Z</time>
      </trkpt>
      <trkpt lat="45.77976" lon="6.50356">
        <ele>1155.2</ele>
        <time>2021-07-11T13:41:27Z</time>
      </trkpt>
      <trkpt lat="45.7796" lon="6.50372">
        <ele>1154.8</ele>
        <time>2021-07-11T13:41:31Z</time>
      </trkpt>
      <trkpt lat="45.77945" lon="6.50349">
        <ele>1154.4</ele>
        <time>2021-07-11T13:41:35Z</time>
      </trkpt>
      <trkpt lat="45.77932" lon="6.50324">
        <ele>1156</ele>
        <time>2021-07-11T13:41:39Z</time>
      </trkpt>
      <trkpt lat="45.77925" lon="6.503">
        <ele>1155.4</ele>
        <time>2021-07-11T13:41:43Z</time>
      </trkpt>
      <trkpt lat="45.77916" lon="6.50279">
        <ele>1154.6</ele>
        <time>2021-07-11T13:41:47Z</time>
      </trkpt>
      <trkpt lat="45.7791" lon="6.50254">
        <ele>1155.2</ele>
        <time>2021-07-11T13:41:51Z</time>
      </trkpt>
      <trkpt lat="45.77904" lon="6.50229">
        <ele>1154.8</ele>
        <time>2021-07-11T13:41:55Z</time>
      </trkpt>
      <trkpt lat="45.77898" lon="6.50201">
        <ele>1155</ele>
        <time>2021-07-11T13:41:59Z</time>
      </trkpt>
      <trkpt lat="45.77891" lon="6.50176">
        <ele>1153.4</ele>
        <time>2021-07-11T13:42:03Z</time>
      </trkpt>
      <trkpt lat="45.77885" lon="6.50146">
        <ele>1153.2</ele>
        <time>2021-07-11T13:42:07Z</time>
      </trkpt>
      <trkpt lat="45.77879" lon="6.50116">
        <ele>1151.6</ele>
        <time>2021-07-11T13:42:11Z</time>
      </trkpt>
      <trkpt lat="45.77873" lon="6.50081">
        <ele>1149.6</ele>
        <time>2021-07-11T13:42:15Z</time>
      </trkpt>
      <trkpt lat="45.77868" lon="6.50037">
        <ele>1146.6</ele>
        <time>2021-07-11T13:42:19Z</time>
      </trkpt>
      <trkpt lat="45.77859" lon="6.49983">
        <ele>1143.4</ele>
        <time>2021-07-11T13:42:23Z</time>
      </trkpt>
      <trkpt lat="45.77847" lon="6.49927">
        <ele>1141</ele>
        <time>2021-07-11T13:42:27Z</time>
      </trkpt>
      <trkpt lat="45.77839" lon="6.49874">
        <ele>1137.2</ele>
        <time>2021-07-11T13:42:31Z</time>
      </trkpt>
      <trkpt lat="45.7782" lon="6.49828">
        <ele>1133.8</ele>
        <time>2021-07-11T13:42:35Z</time>
      </trkpt>
      <trkpt lat="45.7779" lon="6.49783">
        <ele>1129.4</ele>
        <time>2021-07-11T13:42:39Z</time>
      </trkpt>
      <trkpt lat="45.77753" lon="6.49759">
        <ele>1126.8</ele>
        <time>2021-07-11T13:42:43Z</time>
      </trkpt>
      <trkpt lat="45.77712" lon="6.49753">
        <ele>1124</ele>
        <time>2021-07-11T13:42:47Z</time>
      </trkpt>
      <trkpt lat="45.77672" lon="6.49741">
        <ele>1122.4</ele>
        <time>2021-07-11T13:42:51Z</time>
      </trkpt>
      <trkpt lat="45.77639" lon="6.49759">
        <ele>1120.6</ele>
        <time>2021-07-11T13:42:55Z</time>
      </trkpt>
      <trkpt lat="45.77607" lon="6.49789">
        <ele>1117.6</ele>
        <time>2021-07-11T13:42:59Z</time>
      </trkpt>
      <trkpt lat="45.7757" lon="6.49812">
        <ele>1113.8</ele>
        <time>2021-07-11T13:43:03Z</time>
      </trkpt>
      <trkpt lat="45.77531" lon="6.49826">
        <ele>1109.4</ele>
        <time>2021-07-11T13:43:07Z</time>
      </trkpt>
      <trkpt lat="45.77494" lon="6.49835">
        <ele>1106.6</ele>
        <time>2021-07-11T13:43:11Z</time>
      </trkpt>
      <trkpt lat="45.77459" lon="6.4985">
        <ele>1101.8</ele>
        <time>2021-07-11T13:43:15Z</time>
      </trkpt>
      <trkpt lat="45.77426" lon="6.49873">
        <ele>1097.8</ele>
        <time>2021-07-11T13:43:19Z</time>
      </trkpt>
      <trkpt lat="45.77394" lon="6.49892">
        <ele>1092.4</ele>
        <time>2021-07-11T13:43:23Z</time>
      </trkpt>
      <trkpt lat="45.77352" lon="6.49899">
        <ele>1087.8</ele>
        <time>2021-07-11T13:43:27Z</time>
      </trkpt>
      <trkpt lat="45.77307" lon="6.499">
        <ele>1082.8</ele>
        <time>2021-07-11T13:43:31Z</time>
      </trkpt>
      <trkpt lat="45.77274" lon="6.49899">
        <ele>1079.8</ele>
        <time>2021-07-11T13:43:35Z</time>
      </trkpt>
      <trkpt lat="45.77245" lon="6.49861">
        <ele>1076.8</ele>
        <time>2021-07-11T13:43:39Z</time>
      </trkpt>
      <trkpt lat="45.77209" lon="6.49826">
        <ele>1073.4</ele>
        <time>2021-07-11T13:43:43Z</time>
      </trkpt>
      <trkpt lat="45.77172" lon="6.49783">
        <ele>1067.8</ele>
        <time>2021-07-11T13:43:47Z</time>
      </trkpt>
      <trkpt lat="45.77149" lon="6.49731">
        <ele>1065.2</ele>
        <time>2021-07-11T13:43:51Z</time>
      </trkpt>
      <trkpt lat="45.77123" lon="6.49688">
        <ele>1065</ele>
        <time>2021-07-11T13:43:55Z</time>
      </trkpt>
      <trkpt lat="45.77098" lon="6.4966">
        <ele>1063</ele>
        <time>2021-07-11T13:43:59Z</time>
      </trkpt>
      <trkpt lat="45.77069" lon="6.49632">
        <ele>1060.4</ele>
        <time>2021-07-11T13:44:03Z</time>
      </trkpt>
      <trkpt lat="45.77036" lon="6.49603">
        <ele>1054.8</ele>
        <time>2021-07-11T13:44:07Z</time>
      </trkpt>
      <trkpt lat="45.77002" lon="6.49576">
        <ele>1052.6</ele>
        <time>2021-07-11T13:44:11Z</time>
      </trkpt>
      <trkpt lat="45.7697" lon="6.49549">
        <ele>1048.8</ele>
        <time>2021-07-11T13:44:15Z</time>
      </trkpt>
      <trkpt lat="45.7694" lon="6.49537">
        <ele>1045.4</ele>
        <time>2021-07-11T13:44:19Z</time>
      </trkpt>
      <trkpt lat="45.76901" lon="6.49536">
        <ele>1040.8</ele>
        <time>2021-07-11T13:44:23Z</time>
      </trkpt>
      <trkpt lat="45.76857" lon="6.49531">
        <ele>1036.8</ele>
        <time>2021-07-11T13:44:27Z</time>
      </trkpt>
      <trkpt lat="45.76814" lon="6.49518">
        <ele>1032.2</ele>
        <time>2021-07-11T13:44:31Z</time>
      </trkpt>
      <trkpt lat="45.76776" lon="6.49515">
        <ele>1029.4</ele>
        <time>2021-07-11T13:44:35Z</time>
      </trkpt>
      <trkpt lat="45.76763" lon="6.495">
        <ele>1026.4</ele>
        <time>2021-07-11T13:44:39Z</time>
      </trkpt>
      <trkpt lat="45.76786" lon="6.49479">
        <ele>1024</ele>
        <time>2021-07-11T13:44:43Z</time>
      </trkpt>
      <trkpt lat="45.76814" lon="6.49474">
        <ele>1019.6</ele>
        <time>2021-07-11T13:44:47Z</time>
      </trkpt>
      <trkpt lat="45.76834" lon="6.49485">
        <ele>1017.8</ele>
        <time>2021-07-11T13:44:51Z</time>
      </trkpt>
      <trkpt lat="45.76852" lon="6.4947">
        <ele>1014.8</ele>
        <time>2021-07-11T13:44:55Z</time>
      </trkpt>
      <trkpt lat="45.76862" lon="6.49433">
        <ele>1013.2</ele>
        <time>2021-07-11T13:44:59Z</time>
      </trkpt>
      <trkpt lat="45.76884" lon="6.49414">
        <ele>1009.4</ele>
        <time>2021-07-11T13:45:03Z</time>
      </trkpt>
      <trkpt lat="45.76909" lon="6.49393">
        <ele>1006</ele>
        <time>2021-07-11T13:45:07Z</time>
      </trkpt>
      <trkpt lat="45.76934" lon="6.49366">
        <ele>1003.8</ele>
        <time>2021-07-11T13:45:11Z</time>
      </trkpt>
      <trkpt lat="45.76963" lon="6.49348">
        <ele>1000.8</ele>
        <time>2021-07-11T13:45:15Z</time>
      </trkpt>
      <trkpt lat="45.76964" lon="6.49326">
        <ele>998.6</ele>
        <time>2021-07-11T13:45:19Z</time>
      </trkpt>
      <trkpt lat="45.76946" lon="6.49326">
        <ele>997</ele>
        <time>2021-07-11T13:45:23Z</time>
      </trkpt>
      <trkpt lat="45.76925" lon="6.49329">
        <ele>994.4</ele>
        <time>2021-07-11T13:45:27Z</time>
      </trkpt>
      <trkpt lat="45.76904" lon="6.49325">
        <ele>992.8</ele>
        <time>2021-07-11T13:45:31Z</time>
      </trkpt>
      <trkpt lat="45.76881" lon="6.49322">
        <ele>990.6</ele>
        <time>2021-07-11T13:45:35Z</time>
      </trkpt>
      <trkpt lat="45.76858" lon="6.49324">
        <ele>987.6</ele>
        <time>2021-07-11T13:45:39Z</time>
      </trkpt>
      <trkpt lat="45.76831" lon="6.4933">
        <ele>984.2</ele>
        <time>2021-07-11T13:45:43Z</time>
      </trkpt>
      <trkpt lat="45.76804" lon="6.49338">
        <ele>979.8</ele>
        <time>2021-07-11T13:45:47Z</time>
      </trkpt>
      <trkpt lat="45.76778" lon="6.49328">
        <ele>979.2</ele>
        <time>2021-07-11T13:45:51Z</time>
      </trkpt>
      <trkpt lat="45.76753" lon="6.49322">
        <ele>977.8</ele>
        <time>2021-07-11T13:45:55Z</time>
      </trkpt>
      <trkpt lat="45.7673" lon="6.49343">
        <ele>976.2</ele>
        <time>2021-07-11T13:45:59Z</time>
      </trkpt>
      <trkpt lat="45.76705" lon="6.49361">
        <ele>972.8</ele>
        <time>2021-07-11T13:46:03Z</time>
      </trkpt>
      <trkpt lat="45.76673" lon="6.49349">
        <ele>968.8</ele>
        <time>2021-07-11T13:46:07Z</time>
      </trkpt>
      <trkpt lat="45.76647" lon="6.49321">
        <ele>965.8</ele>
        <time>2021-07-11T13:46:11Z</time>
      </trkpt>
      <trkpt lat="45.76615" lon="6.49303">
        <ele>964.4</ele>
        <time>2021-07-11T13:46:15Z</time>
      </trkpt>
      <trkpt lat="45.76589" lon="6.49281">
        <ele>955.4</ele>
        <time>2021-07-11T13:46:19Z</time>
      </trkpt>
      <trkpt lat="45.76564" lon="6.49255">
        <ele>952.2</ele>
        <time>2021-07-11T13:46:23Z</time>
      </trkpt>
      <trkpt lat="45.76538" lon="6.49249">
        <ele>951.2</ele>
        <time>2021-07-11T13:46:27Z</time>
      </trkpt>
      <trkpt lat="45.76515" lon="6.49248">
        <ele>947.6</ele>
        <time>2021-07-11T13:46:31Z</time>
      </trkpt>
      <trkpt lat="45.76496" lon="6.49236">
        <ele>946.4</ele>
        <time>2021-07-11T13:46:35Z</time>
      </trkpt>
      <trkpt lat="45.76477" lon="6.49218">
        <ele>945.6</ele>
        <time>2021-07-11T13:46:39Z</time>
      </trkpt>
      <trkpt lat="45.76459" lon="6.49206">
        <ele>943.6</ele>
        <time>2021-07-11T13:46:43Z</time>
      </trkpt>
      <trkpt lat="45.7644" lon="6.49189">
        <ele>940.8</ele>
        <time>2021-07-11T13:46:47Z</time>
      </trkpt>
      <trkpt lat="45.76417" lon="6.49167">
        <ele>937</ele>
        <time>2021-07-11T13:46:51Z</time>
      </trkpt>
      <trkpt lat="45.76385" lon="6.49165">
        <ele>938.8</ele>
        <time>2021-07-11T13:46:55Z</time>
      </trkpt>
      <trkpt lat="45.7637" lon="6.49184">
        <ele>939.2</ele>
        <time>2021-07-11T13:46:59Z</time>
      </trkpt>
      <trkpt lat="45.76353" lon="6.49187">
        <ele>939.6</ele>
        <time>2021-07-11T13:48:05Z</time>
      </trkpt>
      <trkpt lat="45.76345" lon="6.49184">
        <ele>940.2</ele>
        <time>2021-07-11T13:48:09Z</time>
      </trkpt>
      <trkpt lat="45.7634" lon="6.49177">
        <ele>940</ele>
        <time>2021-07-11T13:48:13Z</time>
      </trkpt>
      <trkpt lat="45.76331" lon="6.49168">
        <ele>940.8</ele>
        <time>2021-07-11T13:48:17Z</time>
      </trkpt>
      <trkpt lat="45.76323" lon="6.49155">
        <ele>942.2</ele>
        <time>2021-07-11T13:48:21Z</time>
      </trkpt>
      <trkpt lat="45.76315" lon="6.49147">
        <ele>942.4</ele>
        <time>2021-07-11T13:48:25Z</time>
      </trkpt>
      <trkpt lat="45.76306" lon="6.49137">
        <ele>943.4</ele>
        <time>2021-07-11T13:48:29Z</time>
      </trkpt>
      <trkpt lat="45.76298" lon="6.49129">
        <ele>943.8</ele>
        <time>2021-07-11T13:48:33Z</time>
      </trkpt>
      <trkpt lat="45.76291" lon="6.49121">
        <ele>943.4</ele>
        <time>2021-07-11T13:48:37Z</time>
      </trkpt>
      <trkpt lat="45.76284" lon="6.49109">
        <ele>943.2</ele>
        <time>2021-07-11T13:48:41Z</time>
      </trkpt>
      <trkpt lat="45.76275" lon="6.49093">
        <ele>942.8</ele>
        <time>2021-07-11T13:48:45Z</time>
      </trkpt>
      <trkpt lat="45.76267" lon="6.49075">
        <ele>942.6</ele>
        <time>2021-07-11T13:48:49Z</time>
      </trkpt>
      <trkpt lat="45.76259" lon="6.49061">
        <ele>941.4</ele>
        <time>2021-07-11T13:48:53Z</time>
      </trkpt>
      <trkpt lat="45.76248" lon="6.49047">
        <ele>938.2</ele>
        <time>2021-07-11T13:48:57Z</time>
      </trkpt>
      <trkpt lat="45.76234" lon="6.49033">
        <ele>935</ele>
        <time>2021-07-11T13:49:01Z</time>
      </trkpt>
      <trkpt lat="45.7622" lon="6.49014">
        <ele>932</ele>
        <time>2021-07-11T13:49:05Z</time>
      </trkpt>
      <trkpt lat="45.76199" lon="6.48979">
        <ele>928.2</ele>
        <time>2021-07-11T13:49:09Z</time>
      </trkpt>
      <trkpt lat="45.7618" lon="6.48942">
        <ele>924</ele>
        <time>2021-07-11T13:49:13Z</time>
      </trkpt>
      <trkpt lat="45.76167" lon="6.48904">
        <ele>921.4</ele>
        <time>2021-07-11T13:49:17Z</time>
      </trkpt>
      <trkpt lat="45.76153" lon="6.48864">
        <ele>916.6</ele>
        <time>2021-07-11T13:49:21Z</time>
      </trkpt>
      <trkpt lat="45.76137" lon="6.4882">
        <ele>913</ele>
        <time>2021-07-11T13:49:25Z</time>
      </trkpt>
      <trkpt lat="45.76123" lon="6.48782">
        <ele>910</ele>
        <time>2021-07-11T13:49:29Z</time>
      </trkpt>
      <trkpt lat="45.76098" lon="6.48765">
        <ele>906.2</ele>
        <time>2021-07-11T13:49:33Z</time>
      </trkpt>
      <trkpt lat="45.76075" lon="6.48751">
        <ele>902.4</ele>
        <time>2021-07-11T13:49:37Z</time>
      </trkpt>
      <trkpt lat="45.76075" lon="6.48718">
        <ele>897.6</ele>
        <time>2021-07-11T13:49:41Z</time>
      </trkpt>
      <trkpt lat="45.76055" lon="6.48669">
        <ele>894.4</ele>
        <time>2021-07-11T13:49:45Z</time>
      </trkpt>
      <trkpt lat="45.76029" lon="6.48624">
        <ele>890.4</ele>
        <time>2021-07-11T13:49:49Z</time>
      </trkpt>
      <trkpt lat="45.76001" lon="6.48574">
        <ele>885.4</ele>
        <time>2021-07-11T13:49:53Z</time>
      </trkpt>
      <trkpt lat="45.75968" lon="6.48545">
        <ele>881.6</ele>
        <time>2021-07-11T13:49:57Z</time>
      </trkpt>
      <trkpt lat="45.75926" lon="6.48532">
        <ele>881.4</ele>
        <time>2021-07-11T13:50:01Z</time>
      </trkpt>
      <trkpt lat="45.75893" lon="6.48493">
        <ele>881.8</ele>
        <time>2021-07-11T13:50:05Z</time>
      </trkpt>
      <trkpt lat="45.75875" lon="6.48452">
        <ele>880</ele>
        <time>2021-07-11T13:50:09Z</time>
      </trkpt>
      <trkpt lat="45.75856" lon="6.48407">
        <ele>882</ele>
        <time>2021-07-11T13:50:13Z</time>
      </trkpt>
      <trkpt lat="45.75854" lon="6.48368">
        <ele>883.2</ele>
        <time>2021-07-11T13:50:17Z</time>
      </trkpt>
      <trkpt lat="45.75852" lon="6.48335">
        <ele>883.8</ele>
        <time>2021-07-11T13:50:21Z</time>
      </trkpt>
      <trkpt lat="45.75855" lon="6.48305">
        <ele>882.4</ele>
        <time>2021-07-11T13:50:25Z</time>
      </trkpt>
      <trkpt lat="45.75859" lon="6.4828">
        <ele>882.6</ele>
        <time>2021-07-11T13:50:29Z</time>
      </trkpt>
      <trkpt lat="45.75863" lon="6.48259">
        <ele>882</ele>
        <time>2021-07-11T13:50:33Z</time>
      </trkpt>
      <trkpt lat="45.75862" lon="6.48243">
        <ele>881.2</ele>
        <time>2021-07-11T13:50:37Z</time>
      </trkpt>
      <trkpt lat="45.75855" lon="6.48225">
        <ele>880</ele>
        <time>2021-07-11T13:50:41Z</time>
      </trkpt>
      <trkpt lat="45.75843" lon="6.48203">
        <ele>879.2</ele>
        <time>2021-07-11T13:50:45Z</time>
      </trkpt>
      <trkpt lat="45.75828" lon="6.4819">
        <ele>878.6</ele>
        <time>2021-07-11T13:50:49Z</time>
      </trkpt>
      <trkpt lat="45.7581" lon="6.4818">
        <ele>879.2</ele>
        <time>2021-07-11T13:50:53Z</time>
      </trkpt>
      <trkpt lat="45.7579" lon="6.48169">
        <ele>877.4</ele>
        <time>2021-07-11T13:50:57Z</time>
      </trkpt>
      <trkpt lat="45.75771" lon="6.48159">
        <ele>878.8</ele>
        <time>2021-07-11T13:51:01Z</time>
      </trkpt>
      <trkpt lat="45.75756" lon="6.48154">
        <ele>878.4</ele>
        <time>2021-07-11T13:51:05Z</time>
      </trkpt>
      <trkpt lat="45.75744" lon="6.48153">
        <ele>880.2</ele>
        <time>2021-07-11T13:51:09Z</time>
      </trkpt>
      <trkpt lat="45.75735" lon="6.48144">
        <ele>880.4</ele>
        <time>2021-07-11T13:51:13Z</time>
      </trkpt>
      <trkpt lat="45.75728" lon="6.48132">
        <ele>880.2</ele>
        <time>2021-07-11T13:51:17Z</time>
      </trkpt>
      <trkpt lat="45.75725" lon="6.48125">
        <ele>880.6</ele>
        <time>2021-07-11T13:51:21Z</time>
      </trkpt>
      <trkpt lat="45.75722" lon="6.4813">
        <ele>880.6</ele>
        <time>2021-07-11T13:51:25Z</time>
      </trkpt>
      <trkpt lat="45.75723" lon="6.48141">
        <ele>881</ele>
        <time>2021-07-11T13:51:29Z</time>
      </trkpt>
      <trkpt lat="45.75722" lon="6.48152">
        <ele>882</ele>
        <time>2021-07-11T13:51:33Z</time>
      </trkpt>
      <trkpt lat="45.75725" lon="6.48162">
        <ele>882.6</ele>
        <time>2021-07-11T13:51:37Z</time>
      </trkpt>
      <trkpt lat="45.75731" lon="6.48168">
        <ele>883.6</ele>
        <time>2021-07-11T13:51:41Z</time>
      </trkpt>
      <trkpt lat="45.75738" lon="6.48172">
        <ele>883.6</ele>
        <time>2021-07-11T13:51:45Z</time>
      </trkpt>
      <trkpt lat="45.75745" lon="6.48174">
        <ele>884</ele>
        <time>2021-07-11T13:51:49Z</time>
      </trkpt>
      <trkpt lat="45.75751" lon="6.48176">
        <ele>884.8</ele>
        <time>2021-07-11T13:51:53Z</time>
      </trkpt>
      <trkpt lat="45.75758" lon="6.48178">
        <ele>885.8</ele>
        <time>2021-07-11T13:51:57Z</time>
      </trkpt>
      <trkpt lat="45.75764" lon="6.48181">
        <ele>886</ele>
        <time>2021-07-11T13:52:01Z</time>
      </trkpt>
      <trkpt lat="45.7577" lon="6.48183">
        <ele>886.8</ele>
        <time>2021-07-11T13:52:05Z</time>
      </trkpt>
      <trkpt lat="45.75776" lon="6.48185">
        <ele>888</ele>
        <time>2021-07-11T13:52:09Z</time>
      </trkpt>
      <trkpt lat="45.75782" lon="6.48187">
        <ele>888.2</ele>
        <time>2021-07-11T13:52:13Z</time>
      </trkpt>
      <trkpt lat="45.75788" lon="6.4819">
        <ele>889.2</ele>
        <time>2021-07-11T13:52:17Z</time>
      </trkpt>
      <trkpt lat="45.75795" lon="6.48193">
        <ele>889.6</ele>
        <time>2021-07-11T13:52:21Z</time>
      </trkpt>
      <trkpt lat="45.75801" lon="6.48196">
        <ele>890.4</ele>
        <time>2021-07-11T13:52:25Z</time>
      </trkpt>
      <trkpt lat="45.75807" lon="6.48201">
        <ele>891.2</ele>
        <time>2021-07-11T13:52:29Z</time>
      </trkpt>
      <trkpt lat="45.75812" lon="6.48205">
        <ele>892.4</ele>
        <time>2021-07-11T13:52:33Z</time>
      </trkpt>
      <trkpt lat="45.75818" lon="6.48209">
        <ele>893</ele>
        <time>2021-07-11T13:52:37Z</time>
      </trkpt>
      <trkpt lat="45.75824" lon="6.48213">
        <ele>893.4</ele>
        <time>2021-07-11T13:52:41Z</time>
      </trkpt>
      <trkpt lat="45.7583" lon="6.48217">
        <ele>893.8</ele>
        <time>2021-07-11T13:52:45Z</time>
      </trkpt>
      <trkpt lat="45.75837" lon="6.48224">
        <ele>894.6</ele>
        <time>2021-07-11T13:52:49Z</time>
      </trkpt>
      <trkpt lat="45.75844" lon="6.48231">
        <ele>895.2</ele>
        <time>2021-07-11T13:52:53Z</time>
      </trkpt>
      <trkpt lat="45.75844" lon="6.4824">
        <ele>896</ele>
        <time>2021-07-11T13:52:57Z</time>
      </trkpt>
      <trkpt lat="45.75841" lon="6.48245">
        <ele>897.4</ele>
        <time>2021-07-11T13:53:01Z</time>
      </trkpt>
      <trkpt lat="45.75837" lon="6.48248">
        <ele>896.8</ele>
        <time>2021-07-11T13:53:05Z</time>
      </trkpt>
      <trkpt lat="45.7583" lon="6.48245">
        <ele>897.4</ele>
        <time>2021-07-11T13:53:09Z</time>
      </trkpt>
      <trkpt lat="45.75825" lon="6.48242">
        <ele>898.2</ele>
        <time>2021-07-11T13:53:13Z</time>
      </trkpt>
      <trkpt lat="45.7582" lon="6.48237">
        <ele>898.6</ele>
        <time>2021-07-11T13:53:17Z</time>
      </trkpt>
      <trkpt lat="45.75815" lon="6.48231">
        <ele>898.6</ele>
        <time>2021-07-11T13:53:21Z</time>
      </trkpt>
      <trkpt lat="45.75809" lon="6.48227">
        <ele>900.2</ele>
        <time>2021-07-11T13:53:25Z</time>
      </trkpt>
      <trkpt lat="45.75803" lon="6.48225">
        <ele>900.2</ele>
        <time>2021-07-11T13:53:29Z</time>
      </trkpt>
      <trkpt lat="45.75796" lon="6.48224">
        <ele>901</ele>
        <time>2021-07-11T13:53:33Z</time>
      </trkpt>
      <trkpt lat="45.7579" lon="6.48223">
        <ele>901.2</ele>
        <time>2021-07-11T13:53:37Z</time>
      </trkpt>
      <trkpt lat="45.75784" lon="6.48222">
        <ele>901.8</ele>
        <time>2021-07-11T13:53:41Z</time>
      </trkpt>
      <trkpt lat="45.75777" lon="6.48221">
        <ele>902.4</ele>
        <time>2021-07-11T13:53:45Z</time>
      </trkpt>
      <trkpt lat="45.7577" lon="6.48219">
        <ele>903.2</ele>
        <time>2021-07-11T13:53:49Z</time>
      </trkpt>
      <trkpt lat="45.75764" lon="6.48218">
        <ele>904</ele>
        <time>2021-07-11T13:53:53Z</time>
      </trkpt>
      <trkpt lat="45.75758" lon="6.48218">
        <ele>904</ele>
        <time>2021-07-11T13:53:57Z</time>
      </trkpt>
      <trkpt lat="45.75752" lon="6.48217">
        <ele>905</ele>
        <time>2021-07-11T13:54:01Z</time>
      </trkpt>
      <trkpt lat="45.75746" lon="6.48217">
        <ele>905.4</ele>
        <time>2021-07-11T13:54:05Z</time>
      </trkpt>
      <trkpt lat="45.75739" lon="6.48216">
        <ele>906.2</ele>
        <time>2021-07-11T13:54:09Z</time>
      </trkpt>
      <trkpt lat="45.75732" lon="6.48215">
        <ele>906.8</ele>
        <time>2021-07-11T13:54:13Z</time>
      </trkpt>
      <trkpt lat="45.75726" lon="6.48216">
        <ele>907.4</ele>
        <time>2021-07-11T13:54:17Z</time>
      </trkpt>
      <trkpt lat="45.75719" lon="6.48217">
        <ele>907.6</ele>
        <time>2021-07-11T13:54:21Z</time>
      </trkpt>
      <trkpt lat="45.75713" lon="6.48217">
        <ele>908.2</ele>
        <time>2021-07-11T13:54:25Z</time>
      </trkpt>
      <trkpt lat="45.75706" lon="6.48218">
        <ele>908.8</ele>
        <time>2021-07-11T13:54:29Z</time>
      </trkpt>
      <trkpt lat="45.75699" lon="6.48218">
        <ele>909.6</ele>
        <time>2021-07-11T13:54:33Z</time>
      </trkpt>
      <trkpt lat="45.75693" lon="6.48219">
        <ele>910.6</ele>
        <time>2021-07-11T13:54:37Z</time>
      </trkpt>
      <trkpt lat="45.75686" lon="6.48221">
        <ele>911</ele>
        <time>2021-07-11T13:54:41Z</time>
      </trkpt>
      <trkpt lat="45.7568" lon="6.48223">
        <ele>912</ele>
        <time>2021-07-11T13:54:45Z</time>
      </trkpt>
      <trkpt lat="45.75674" lon="6.48224">
        <ele>913</ele>
        <time>2021-07-11T13:54:49Z</time>
      </trkpt>
      <trkpt lat="45.7567" lon="6.48226">
        <ele>913.8</ele>
        <time>2021-07-11T13:54:53Z</time>
      </trkpt>
      <trkpt lat="45.75664" lon="6.48227">
        <ele>914.2</ele>
        <time>2021-07-11T13:54:57Z</time>
      </trkpt>
      <trkpt lat="45.75658" lon="6.4823">
        <ele>914.4</ele>
        <time>2021-07-11T13:55:01Z</time>
      </trkpt>
      <trkpt lat="45.75652" lon="6.48231">
        <ele>915.2</ele>
        <time>2021-07-11T13:55:05Z</time>
      </trkpt>
      <trkpt lat="45.75646" lon="6.4823">
        <ele>916.2</ele>
        <time>2021-07-11T13:55:09Z</time>
      </trkpt>
      <trkpt lat="45.7564" lon="6.48231">
        <ele>916.8</ele>
        <time>2021-07-11T13:55:13Z</time>
      </trkpt>
      <trkpt lat="45.75633" lon="6.48233">
        <ele>917.2</ele>
        <time>2021-07-11T13:55:17Z</time>
      </trkpt>
      <trkpt lat="45.75627" lon="6.48233">
        <ele>917.8</ele>
        <time>2021-07-11T13:55:21Z</time>
      </trkpt>
      <trkpt lat="45.75621" lon="6.48234">
        <ele>918.2</ele>
        <time>2021-07-11T13:55:25Z</time>
      </trkpt>
      <trkpt lat="45.75615" lon="6.48239">
        <ele>919.2</ele>
        <time>2021-07-11T13:55:29Z</time>
      </trkpt>
      <trkpt lat="45.7561" lon="6.48242">
        <ele>919.8</ele>
        <time>2021-07-11T13:55:33Z</time>
      </trkpt>
      <trkpt lat="45.75603" lon="6.48241">
        <ele>920.4</ele>
        <time>2021-07-11T13:55:37Z</time>
      </trkpt>
      <trkpt lat="45.75596" lon="6.4824">
        <ele>921.4</ele>
        <time>2021-07-11T13:55:41Z</time>
      </trkpt>
      <trkpt lat="45.75589" lon="6.48242">
        <ele>921.8</ele>
        <time>2021-07-11T13:55:45Z</time>
      </trkpt>
      <trkpt lat="45.75581" lon="6.48242">
        <ele>922.6</ele>
        <time>2021-07-11T13:55:49Z</time>
      </trkpt>
      <trkpt lat="45.75575" lon="6.48241">
        <ele>923.4</ele>
        <time>2021-07-11T13:55:53Z</time>
      </trkpt>
      <trkpt lat="45.75569" lon="6.48245">
        <ele>924</ele>
        <time>2021-07-11T13:55:57Z</time>
      </trkpt>
      <trkpt lat="45.75564" lon="6.48248">
        <ele>924.6</ele>
        <time>2021-07-11T13:56:01Z</time>
      </trkpt>
      <trkpt lat="45.75557" lon="6.48248">
        <ele>924.4</ele>
        <time>2021-07-11T13:56:05Z</time>
      </trkpt>
      <trkpt lat="45.75551" lon="6.48246">
        <ele>925.4</ele>
        <time>2021-07-11T13:56:09Z</time>
      </trkpt>
      <trkpt lat="45.75543" lon="6.48244">
        <ele>926</ele>
        <time>2021-07-11T13:56:13Z</time>
      </trkpt>
      <trkpt lat="45.75537" lon="6.48244">
        <ele>926.8</ele>
        <time>2021-07-11T13:56:17Z</time>
      </trkpt>
      <trkpt lat="45.7553" lon="6.48243">
        <ele>926.8</ele>
        <time>2021-07-11T13:56:21Z</time>
      </trkpt>
      <trkpt lat="45.75522" lon="6.48242">
        <ele>927.4</ele>
        <time>2021-07-11T13:56:25Z</time>
      </trkpt>
      <trkpt lat="45.75516" lon="6.48242">
        <ele>928</ele>
        <time>2021-07-11T13:56:29Z</time>
      </trkpt>
      <trkpt lat="45.75509" lon="6.48241">
        <ele>928.8</ele>
        <time>2021-07-11T13:56:33Z</time>
      </trkpt>
      <trkpt lat="45.75501" lon="6.48238">
        <ele>929.2</ele>
        <time>2021-07-11T13:56:37Z</time>
      </trkpt>
      <trkpt lat="45.75494" lon="6.48236">
        <ele>930</ele>
        <time>2021-07-11T13:56:41Z</time>
      </trkpt>
      <trkpt lat="45.75487" lon="6.48237">
        <ele>930.6</ele>
        <time>2021-07-11T13:56:45Z</time>
      </trkpt>
      <trkpt lat="45.75481" lon="6.48241">
        <ele>931.4</ele>
        <time>2021-07-11T13:56:49Z</time>
      </trkpt>
      <trkpt lat="45.75474" lon="6.48247">
        <ele>932</ele>
        <time>2021-07-11T13:56:53Z</time>
      </trkpt>
      <trkpt lat="45.75468" lon="6.48253">
        <ele>932.6</ele>
        <time>2021-07-11T13:56:57Z</time>
      </trkpt>
      <trkpt lat="45.75463" lon="6.4826">
        <ele>932.8</ele>
        <time>2021-07-11T13:57:01Z</time>
      </trkpt>
      <trkpt lat="45.75458" lon="6.48266">
        <ele>934</ele>
        <time>2021-07-11T13:57:05Z</time>
      </trkpt>
      <trkpt lat="45.75453" lon="6.48274">
        <ele>934.2</ele>
        <time>2021-07-11T13:57:09Z</time>
      </trkpt>
      <trkpt lat="45.75448" lon="6.48279">
        <ele>935</ele>
        <time>2021-07-11T13:57:13Z</time>
      </trkpt>
      <trkpt lat="45.75442" lon="6.4828">
        <ele>935.2</ele>
        <time>2021-07-11T13:57:17Z</time>
      </trkpt>
      <trkpt lat="45.75435" lon="6.48285">
        <ele>935.4</ele>
        <time>2021-07-11T13:57:21Z</time>
      </trkpt>
      <trkpt lat="45.75429" lon="6.48291">
        <ele>936.6</ele>
        <time>2021-07-11T13:57:25Z</time>
      </trkpt>
      <trkpt lat="45.75424" lon="6.48297">
        <ele>937</ele>
        <time>2021-07-11T13:57:29Z</time>
      </trkpt>
      <trkpt lat="45.75418" lon="6.48301">
        <ele>937.8</ele>
        <time>2021-07-11T13:57:33Z</time>
      </trkpt>
      <trkpt lat="45.75413" lon="6.48304">
        <ele>937.8</ele>
        <time>2021-07-11T13:57:37Z</time>
      </trkpt>
      <trkpt lat="45.75407" lon="6.48307">
        <ele>938.8</ele>
        <time>2021-07-11T13:57:41Z</time>
      </trkpt>
      <trkpt lat="45.75401" lon="6.4831">
        <ele>939.4</ele>
        <time>2021-07-11T13:57:45Z</time>
      </trkpt>
      <trkpt lat="45.75394" lon="6.48311">
        <ele>939.8</ele>
        <time>2021-07-11T13:57:49Z</time>
      </trkpt>
      <trkpt lat="45.75388" lon="6.48315">
        <ele>940.4</ele>
        <time>2021-07-11T13:57:53Z</time>
      </trkpt>
      <trkpt lat="45.75381" lon="6.48317">
        <ele>941</ele>
        <time>2021-07-11T13:57:57Z</time>
      </trkpt>
      <trkpt lat="45.75375" lon="6.48319">
        <ele>941.4</ele>
        <time>2021-07-11T13:58:01Z</time>
      </trkpt>
      <trkpt lat="45.75368" lon="6.48317">
        <ele>941.8</ele>
        <time>2021-07-11T13:58:05Z</time>
      </trkpt>
      <trkpt lat="45.75363" lon="6.4831">
        <ele>942.6</ele>
        <time>2021-07-11T13:58:09Z</time>
      </trkpt>
      <trkpt lat="45.75358" lon="6.48304">
        <ele>943.2</ele>
        <time>2021-07-11T13:58:13Z</time>
      </trkpt>
      <trkpt lat="45.75357" lon="6.48295">
        <ele>944.2</ele>
        <time>2021-07-11T13:58:17Z</time>
      </trkpt>
      <trkpt lat="45.75358" lon="6.48288">
        <ele>944.4</ele>
        <time>2021-07-11T13:58:21Z</time>
      </trkpt>
      <trkpt lat="45.75359" lon="6.48279">
        <ele>945.2</ele>
        <time>2021-07-11T13:58:25Z</time>
      </trkpt>
      <trkpt lat="45.75361" lon="6.48271">
        <ele>945</ele>
        <time>2021-07-11T13:58:29Z</time>
      </trkpt>
      <trkpt lat="45.75364" lon="6.48264">
        <ele>946.2</ele>
        <time>2021-07-11T13:58:33Z</time>
      </trkpt>
      <trkpt lat="45.75369" lon="6.48257">
        <ele>946.8</ele>
        <time>2021-07-11T13:58:37Z</time>
      </trkpt>
      <trkpt lat="45.75373" lon="6.48253">
        <ele>947.4</ele>
        <time>2021-07-11T13:58:41Z</time>
      </trkpt>
      <trkpt lat="45.75375" lon="6.48246">
        <ele>947.4</ele>
        <time>2021-07-11T13:58:45Z</time>
      </trkpt>
      <trkpt lat="45.75379" lon="6.48241">
        <ele>948</ele>
        <time>2021-07-11T13:58:49Z</time>
      </trkpt>
      <trkpt lat="45.75382" lon="6.48231">
        <ele>949</ele>
        <time>2021-07-11T13:58:53Z</time>
      </trkpt>
      <trkpt lat="45.75384" lon="6.48223">
        <ele>948.8</ele>
        <time>2021-07-11T13:58:57Z</time>
      </trkpt>
      <trkpt lat="45.75385" lon="6.48217">
        <ele>949.6</ele>
        <time>2021-07-11T13:59:01Z</time>
      </trkpt>
      <trkpt lat="45.75385" lon="6.48209">
        <ele>950.4</ele>
        <time>2021-07-11T13:59:05Z</time>
      </trkpt>
      <trkpt lat="45.75385" lon="6.48202">
        <ele>950.8</ele>
        <time>2021-07-11T13:59:09Z</time>
      </trkpt>
      <trkpt lat="45.75377" lon="6.48141">
        <ele>953.4</ele>
        <time>2021-07-11T13:59:32Z</time>
      </trkpt>
      <trkpt lat="45.75375" lon="6.48128">
        <ele>953.6</ele>
        <time>2021-07-11T13:59:36Z</time>
      </trkpt>
      <trkpt lat="45.75372" lon="6.48118">
        <ele>954.2</ele>
        <time>2021-07-11T13:59:40Z</time>
      </trkpt>
      <trkpt lat="45.75367" lon="6.48109">
        <ele>954.2</ele>
        <time>2021-07-11T13:59:44Z</time>
      </trkpt>
      <trkpt lat="45.75361" lon="6.481">
        <ele>954.8</ele>
        <time>2021-07-11T13:59:48Z</time>
      </trkpt>
      <trkpt lat="45.75355" lon="6.48093">
        <ele>955.2</ele>
        <time>2021-07-11T13:59:52Z</time>
      </trkpt>
      <trkpt lat="45.75349" lon="6.48086">
        <ele>955.6</ele>
        <time>2021-07-11T13:59:56Z</time>
      </trkpt>
      <trkpt lat="45.75343" lon="6.48079">
        <ele>956</ele>
        <time>2021-07-11T14:00:00Z</time>
      </trkpt>
      <trkpt lat="45.75336" lon="6.48071">
        <ele>956</ele>
        <time>2021-07-11T14:00:04Z</time>
      </trkpt>
      <trkpt lat="45.75328" lon="6.48063">
        <ele>956.6</ele>
        <time>2021-07-11T14:00:08Z</time>
      </trkpt>
      <trkpt lat="45.75321" lon="6.48058">
        <ele>956.6</ele>
        <time>2021-07-11T14:00:12Z</time>
      </trkpt>
      <trkpt lat="45.75313" lon="6.48053">
        <ele>957</ele>
        <time>2021-07-11T14:00:16Z</time>
      </trkpt>
      <trkpt lat="45.75302" lon="6.48045">
        <ele>957.6</ele>
        <time>2021-07-11T14:00:20Z</time>
      </trkpt>
      <trkpt lat="45.75294" lon="6.48034">
        <ele>957.6</ele>
        <time>2021-07-11T14:00:24Z</time>
      </trkpt>
      <trkpt lat="45.75287" lon="6.48024">
        <ele>958</ele>
        <time>2021-07-11T14:00:28Z</time>
      </trkpt>
      <trkpt lat="45.7528" lon="6.48014">
        <ele>959</ele>
        <time>2021-07-11T14:00:32Z</time>
      </trkpt>
      <trkpt lat="45.75273" lon="6.48001">
        <ele>959</ele>
        <time>2021-07-11T14:00:36Z</time>
      </trkpt>
      <trkpt lat="45.75266" lon="6.4799">
        <ele>959.6</ele>
        <time>2021-07-11T14:00:40Z</time>
      </trkpt>
      <trkpt lat="45.7526" lon="6.4798">
        <ele>959.4</ele>
        <time>2021-07-11T14:00:44Z</time>
      </trkpt>
      <trkpt lat="45.75252" lon="6.47973">
        <ele>960</ele>
        <time>2021-07-11T14:00:48Z</time>
      </trkpt>
      <trkpt lat="45.75244" lon="6.4796">
        <ele>960.2</ele>
        <time>2021-07-11T14:00:52Z</time>
      </trkpt>
      <trkpt lat="45.75237" lon="6.47948">
        <ele>960.6</ele>
        <time>2021-07-11T14:00:56Z</time>
      </trkpt>
      <trkpt lat="45.75231" lon="6.47933">
        <ele>960.6</ele>
        <time>2021-07-11T14:01:00Z</time>
      </trkpt>
      <trkpt lat="45.75225" lon="6.47919">
        <ele>960.8</ele>
        <time>2021-07-11T14:01:04Z</time>
      </trkpt>
      <trkpt lat="45.75217" lon="6.47907">
        <ele>961</ele>
        <time>2021-07-11T14:01:08Z</time>
      </trkpt>
      <trkpt lat="45.75208" lon="6.47895">
        <ele>961.4</ele>
        <time>2021-07-11T14:01:12Z</time>
      </trkpt>
      <trkpt lat="45.75199" lon="6.47883">
        <ele>961.4</ele>
        <time>2021-07-11T14:01:16Z</time>
      </trkpt>
      <trkpt lat="45.75191" lon="6.47866">
        <ele>962.6</ele>
        <time>2021-07-11T14:01:20Z</time>
      </trkpt>
      <trkpt lat="45.75187" lon="6.47842">
        <ele>962.6</ele>
        <time>2021-07-11T14:01:24Z</time>
      </trkpt>
      <trkpt lat="45.75182" lon="6.4782">
        <ele>962.6</ele>
        <time>2021-07-11T14:01:28Z</time>
      </trkpt>
      <trkpt lat="45.75177" lon="6.47801">
        <ele>962.8</ele>
        <time>2021-07-11T14:01:32Z</time>
      </trkpt>
      <trkpt lat="45.75171" lon="6.47785">
        <ele>962.8</ele>
        <time>2021-07-11T14:01:36Z</time>
      </trkpt>
      <trkpt lat="45.75163" lon="6.47769">
        <ele>963.4</ele>
        <time>2021-07-11T14:01:40Z</time>
      </trkpt>
      <trkpt lat="45.75151" lon="6.47755">
        <ele>963.4</ele>
        <time>2021-07-11T14:01:44Z</time>
      </trkpt>
      <trkpt lat="45.75139" lon="6.47743">
        <ele>963.2</ele>
        <time>2021-07-11T14:01:48Z</time>
      </trkpt>
      <trkpt lat="45.75133" lon="6.47723">
        <ele>963</ele>
        <time>2021-07-11T14:01:52Z</time>
      </trkpt>
      <trkpt lat="45.75135" lon="6.47705">
        <ele>963.8</ele>
        <time>2021-07-11T14:01:56Z</time>
      </trkpt>
      <trkpt lat="45.75136" lon="6.47684">
        <ele>963.6</ele>
        <time>2021-07-11T14:02:00Z</time>
      </trkpt>
      <trkpt lat="45.75133" lon="6.47661">
        <ele>964.2</ele>
        <time>2021-07-11T14:02:04Z</time>
      </trkpt>
      <trkpt lat="45.75127" lon="6.47641">
        <ele>964</ele>
        <time>2021-07-11T14:02:08Z</time>
      </trkpt>
      <trkpt lat="45.75123" lon="6.47621">
        <ele>964.4</ele>
        <time>2021-07-11T14:02:12Z</time>
      </trkpt>
      <trkpt lat="45.75118" lon="6.47601">
        <ele>964.8</ele>
        <time>2021-07-11T14:02:16Z</time>
      </trkpt>
      <trkpt lat="45.75115" lon="6.47581">
        <ele>965.2</ele>
        <time>2021-07-11T14:02:20Z</time>
      </trkpt>
      <trkpt lat="45.75112" lon="6.47563">
        <ele>965.8</ele>
        <time>2021-07-11T14:02:24Z</time>
      </trkpt>
      <trkpt lat="45.75108" lon="6.47545">
        <ele>965.8</ele>
        <time>2021-07-11T14:02:28Z</time>
      </trkpt>
      <trkpt lat="45.75106" lon="6.47529">
        <ele>966.6</ele>
        <time>2021-07-11T14:02:32Z</time>
      </trkpt>
      <trkpt lat="45.75102" lon="6.47511">
        <ele>966.6</ele>
        <time>2021-07-11T14:02:36Z</time>
      </trkpt>
      <trkpt lat="45.75097" lon="6.47497">
        <ele>966.4</ele>
        <time>2021-07-11T14:02:40Z</time>
      </trkpt>
      <trkpt lat="45.75092" lon="6.47479">
        <ele>967</ele>
        <time>2021-07-11T14:02:44Z</time>
      </trkpt>
      <trkpt lat="45.75091" lon="6.47457">
        <ele>966.8</ele>
        <time>2021-07-11T14:02:48Z</time>
      </trkpt>
      <trkpt lat="45.7509" lon="6.47438">
        <ele>967.4</ele>
        <time>2021-07-11T14:02:52Z</time>
      </trkpt>
      <trkpt lat="45.7509" lon="6.47421">
        <ele>968</ele>
        <time>2021-07-11T14:02:56Z</time>
      </trkpt>
      <trkpt lat="45.75088" lon="6.47401">
        <ele>968</ele>
        <time>2021-07-11T14:03:00Z</time>
      </trkpt>
      <trkpt lat="45.75086" lon="6.47383">
        <ele>968.6</ele>
        <time>2021-07-11T14:03:04Z</time>
      </trkpt>
      <trkpt lat="45.75085" lon="6.47368">
        <ele>967.8</ele>
        <time>2021-07-11T14:03:08Z</time>
      </trkpt>
      <trkpt lat="45.7508" lon="6.47345">
        <ele>967.6</ele>
        <time>2021-07-11T14:03:12Z</time>
      </trkpt>
      <trkpt lat="45.75071" lon="6.47324">
        <ele>966.8</ele>
        <time>2021-07-11T14:03:16Z</time>
      </trkpt>
      <trkpt lat="45.75064" lon="6.47297">
        <ele>966.6</ele>
        <time>2021-07-11T14:03:20Z</time>
      </trkpt>
      <trkpt lat="45.75057" lon="6.47275">
        <ele>966.4</ele>
        <time>2021-07-11T14:03:24Z</time>
      </trkpt>
      <trkpt lat="45.75048" lon="6.47251">
        <ele>965.4</ele>
        <time>2021-07-11T14:03:28Z</time>
      </trkpt>
      <trkpt lat="45.75039" lon="6.47224">
        <ele>965.6</ele>
        <time>2021-07-11T14:03:32Z</time>
      </trkpt>
      <trkpt lat="45.75031" lon="6.47197">
        <ele>965</ele>
        <time>2021-07-11T14:03:36Z</time>
      </trkpt>
      <trkpt lat="45.75019" lon="6.47169">
        <ele>964.2</ele>
        <time>2021-07-11T14:03:40Z</time>
      </trkpt>
      <trkpt lat="45.75003" lon="6.47154">
        <ele>963.8</ele>
        <time>2021-07-11T14:03:44Z</time>
      </trkpt>
      <trkpt lat="45.74985" lon="6.47145">
        <ele>963.4</ele>
        <time>2021-07-11T14:03:48Z</time>
      </trkpt>
      <trkpt lat="45.74962" lon="6.47132">
        <ele>962.6</ele>
        <time>2021-07-11T14:03:52Z</time>
      </trkpt>
      <trkpt lat="45.74938" lon="6.47118">
        <ele>961.4</ele>
        <time>2021-07-11T14:03:56Z</time>
      </trkpt>
      <trkpt lat="45.74912" lon="6.4711">
        <ele>961.2</ele>
        <time>2021-07-11T14:04:00Z</time>
      </trkpt>
      <trkpt lat="45.74886" lon="6.47103">
        <ele>959.6</ele>
        <time>2021-07-11T14:04:04Z</time>
      </trkpt>
      <trkpt lat="45.74859" lon="6.47097">
        <ele>959.6</ele>
        <time>2021-07-11T14:04:08Z</time>
      </trkpt>
      <trkpt lat="45.7483" lon="6.47092">
        <ele>958.2</ele>
        <time>2021-07-11T14:04:12Z</time>
      </trkpt>
      <trkpt lat="45.74804" lon="6.47085">
        <ele>956.8</ele>
        <time>2021-07-11T14:04:16Z</time>
      </trkpt>
      <trkpt lat="45.74778" lon="6.47074">
        <ele>956</ele>
        <time>2021-07-11T14:04:20Z</time>
      </trkpt>
      <trkpt lat="45.7475" lon="6.47061">
        <ele>955</ele>
        <time>2021-07-11T14:04:24Z</time>
      </trkpt>
      <trkpt lat="45.74721" lon="6.47049">
        <ele>953.2</ele>
        <time>2021-07-11T14:04:28Z</time>
      </trkpt>
      <trkpt lat="45.74692" lon="6.47034">
        <ele>952.8</ele>
        <time>2021-07-11T14:04:32Z</time>
      </trkpt>
      <trkpt lat="45.74669" lon="6.47021">
        <ele>952.8</ele>
        <time>2021-07-11T14:04:36Z</time>
      </trkpt>
      <trkpt lat="45.74646" lon="6.47023">
        <ele>951.8</ele>
        <time>2021-07-11T14:04:40Z</time>
      </trkpt>
      <trkpt lat="45.74622" lon="6.47031">
        <ele>950.6</ele>
        <time>2021-07-11T14:04:44Z</time>
      </trkpt>
      <trkpt lat="45.74605" lon="6.47016">
        <ele>950</ele>
        <time>2021-07-11T14:04:48Z</time>
      </trkpt>
      <trkpt lat="45.74612" lon="6.47003">
        <ele>949.6</ele>
        <time>2021-07-11T14:04:52Z</time>
      </trkpt>
      <trkpt lat="45.74625" lon="6.4699">
        <ele>948.2</ele>
        <time>2021-07-11T14:04:56Z</time>
      </trkpt>
      <trkpt lat="45.74622" lon="6.46956">
        <ele>947</ele>
        <time>2021-07-11T14:05:00Z</time>
      </trkpt>
      <trkpt lat="45.746" lon="6.46918">
        <ele>946.2</ele>
        <time>2021-07-11T14:05:04Z</time>
      </trkpt>
      <trkpt lat="45.74577" lon="6.46887">
        <ele>943.4</ele>
        <time>2021-07-11T14:05:08Z</time>
      </trkpt>
      <trkpt lat="45.74558" lon="6.46853">
        <ele>942</ele>
        <time>2021-07-11T14:05:12Z</time>
      </trkpt>
      <trkpt lat="45.74552" lon="6.46828">
        <ele>940.4</ele>
        <time>2021-07-11T14:05:16Z</time>
      </trkpt>
      <trkpt lat="45.7457" lon="6.46811">
        <ele>938</ele>
        <time>2021-07-11T14:05:20Z</time>
      </trkpt>
      <trkpt lat="45.74592" lon="6.46795">
        <ele>935.6</ele>
        <time>2021-07-11T14:05:24Z</time>
      </trkpt>
      <trkpt lat="45.74597" lon="6.46767">
        <ele>934</ele>
        <time>2021-07-11T14:05:28Z</time>
      </trkpt>
      <trkpt lat="45.74587" lon="6.46744">
        <ele>932.4</ele>
        <time>2021-07-11T14:05:32Z</time>
      </trkpt>
      <trkpt lat="45.74568" lon="6.46726">
        <ele>929.2</ele>
        <time>2021-07-11T14:05:36Z</time>
      </trkpt>
      <trkpt lat="45.74576" lon="6.46705">
        <ele>926.6</ele>
        <time>2021-07-11T14:05:40Z</time>
      </trkpt>
      <trkpt lat="45.74592" lon="6.46669">
        <ele>924.4</ele>
        <time>2021-07-11T14:05:44Z</time>
      </trkpt>
      <trkpt lat="45.74617" lon="6.46629">
        <ele>920.6</ele>
        <time>2021-07-11T14:05:48Z</time>
      </trkpt>
      <trkpt lat="45.74636" lon="6.46603">
        <ele>918.2</ele>
        <time>2021-07-11T14:05:52Z</time>
      </trkpt>
      <trkpt lat="45.74649" lon="6.46566">
        <ele>914.2</ele>
        <time>2021-07-11T14:05:56Z</time>
      </trkpt>
      <trkpt lat="45.74659" lon="6.46528">
        <ele>911.6</ele>
        <time>2021-07-11T14:06:00Z</time>
      </trkpt>
      <trkpt lat="45.74671" lon="6.46477">
        <ele>907.8</ele>
        <time>2021-07-11T14:06:04Z</time>
      </trkpt>
      <trkpt lat="45.74681" lon="6.46424">
        <ele>904.4</ele>
        <time>2021-07-11T14:06:08Z</time>
      </trkpt>
      <trkpt lat="45.74688" lon="6.46367">
        <ele>899.8</ele>
        <time>2021-07-11T14:06:12Z</time>
      </trkpt>
      <trkpt lat="45.74687" lon="6.46308">
        <ele>896.2</ele>
        <time>2021-07-11T14:06:16Z</time>
      </trkpt>
      <trkpt lat="45.74661" lon="6.46256">
        <ele>893.6</ele>
        <time>2021-07-11T14:06:20Z</time>
      </trkpt>
      <trkpt lat="45.74647" lon="6.4619">
        <ele>888.6</ele>
        <time>2021-07-11T14:06:24Z</time>
      </trkpt>
      <trkpt lat="45.74649" lon="6.46123">
        <ele>884.4</ele>
        <time>2021-07-11T14:06:28Z</time>
      </trkpt>
      <trkpt lat="45.74669" lon="6.46058">
        <ele>881.4</ele>
        <time>2021-07-11T14:06:32Z</time>
      </trkpt>
      <trkpt lat="45.7467" lon="6.45995">
        <ele>879</ele>
        <time>2021-07-11T14:06:36Z</time>
      </trkpt>
      <trkpt lat="45.74667" lon="6.45941">
        <ele>875.2</ele>
        <time>2021-07-11T14:06:40Z</time>
      </trkpt>
      <trkpt lat="45.74683" lon="6.45885">
        <ele>872</ele>
        <time>2021-07-11T14:06:44Z</time>
      </trkpt>
      <trkpt lat="45.74683" lon="6.4583">
        <ele>869.4</ele>
        <time>2021-07-11T14:06:48Z</time>
      </trkpt>
      <trkpt lat="45.74667" lon="6.4578">
        <ele>867</ele>
        <time>2021-07-11T14:06:52Z</time>
      </trkpt>
      <trkpt lat="45.74673" lon="6.45756">
        <ele>865</ele>
        <time>2021-07-11T14:06:56Z</time>
      </trkpt>
      <trkpt lat="45.74685" lon="6.45772">
        <ele>864</ele>
        <time>2021-07-11T14:07:00Z</time>
      </trkpt>
      <trkpt lat="45.74691" lon="6.4579">
        <ele>863.4</ele>
        <time>2021-07-11T14:07:04Z</time>
      </trkpt>
      <trkpt lat="45.74696" lon="6.45811">
        <ele>862</ele>
        <time>2021-07-11T14:07:08Z</time>
      </trkpt>
      <trkpt lat="45.747" lon="6.45825">
        <ele>861.6</ele>
        <time>2021-07-11T14:07:12Z</time>
      </trkpt>
      <trkpt lat="45.74708" lon="6.45844">
        <ele>860</ele>
        <time>2021-07-11T14:07:16Z</time>
      </trkpt>
      <trkpt lat="45.74722" lon="6.45869">
        <ele>858.8</ele>
        <time>2021-07-11T14:07:20Z</time>
      </trkpt>
      <trkpt lat="45.74736" lon="6.45899">
        <ele>857.2</ele>
        <time>2021-07-11T14:07:24Z</time>
      </trkpt>
      <trkpt lat="45.74736" lon="6.45934">
        <ele>855</ele>
        <time>2021-07-11T14:07:28Z</time>
      </trkpt>
      <trkpt lat="45.74743" lon="6.45969">
        <ele>854</ele>
        <time>2021-07-11T14:07:32Z</time>
      </trkpt>
      <trkpt lat="45.74758" lon="6.46006">
        <ele>852.2</ele>
        <time>2021-07-11T14:07:36Z</time>
      </trkpt>
      <trkpt lat="45.74764" lon="6.4605">
        <ele>850.2</ele>
        <time>2021-07-11T14:07:40Z</time>
      </trkpt>
      <trkpt lat="45.74779" lon="6.46095">
        <ele>848</ele>
        <time>2021-07-11T14:07:44Z</time>
      </trkpt>
      <trkpt lat="45.74797" lon="6.46143">
        <ele>845.8</ele>
        <time>2021-07-11T14:07:48Z</time>
      </trkpt>
      <trkpt lat="45.74805" lon="6.46182">
        <ele>844.8</ele>
        <time>2021-07-11T14:07:52Z</time>
      </trkpt>
      <trkpt lat="45.74792" lon="6.46218">
        <ele>843.2</ele>
        <time>2021-07-11T14:07:56Z</time>
      </trkpt>
      <trkpt lat="45.74807" lon="6.46226">
        <ele>840.6</ele>
        <time>2021-07-11T14:08:00Z</time>
      </trkpt>
      <trkpt lat="45.74819" lon="6.46195">
        <ele>838.6</ele>
        <time>2021-07-11T14:08:04Z</time>
      </trkpt>
      <trkpt lat="45.7482" lon="6.46154">
        <ele>836.2</ele>
        <time>2021-07-11T14:08:08Z</time>
      </trkpt>
      <trkpt lat="45.74814" lon="6.46117">
        <ele>833.2</ele>
        <time>2021-07-11T14:08:12Z</time>
      </trkpt>
      <trkpt lat="45.74814" lon="6.46081">
        <ele>830.2</ele>
        <time>2021-07-11T14:08:16Z</time>
      </trkpt>
      <trkpt lat="45.74827" lon="6.46034">
        <ele>826.8</ele>
        <time>2021-07-11T14:08:20Z</time>
      </trkpt>
      <trkpt lat="45.74833" lon="6.45999">
        <ele>824.2</ele>
        <time>2021-07-11T14:08:24Z</time>
      </trkpt>
      <trkpt lat="45.74829" lon="6.45967">
        <ele>822</ele>
        <time>2021-07-11T14:08:28Z</time>
      </trkpt>
      <trkpt lat="45.74836" lon="6.45933">
        <ele>819.6</ele>
        <time>2021-07-11T14:08:32Z</time>
      </trkpt>
      <trkpt lat="45.7482" lon="6.45906">
        <ele>816</ele>
        <time>2021-07-11T14:08:36Z</time>
      </trkpt>
      <trkpt lat="45.74803" lon="6.45869">
        <ele>813.4</ele>
        <time>2021-07-11T14:08:40Z</time>
      </trkpt>
      <trkpt lat="45.74788" lon="6.4583">
        <ele>809.2</ele>
        <time>2021-07-11T14:08:44Z</time>
      </trkpt>
      <trkpt lat="45.74786" lon="6.45792">
        <ele>806</ele>
        <time>2021-07-11T14:08:48Z</time>
      </trkpt>
      <trkpt lat="45.74786" lon="6.45748">
        <ele>803.8</ele>
        <time>2021-07-11T14:08:52Z</time>
      </trkpt>
      <trkpt lat="45.74772" lon="6.45716">
        <ele>799.6</ele>
        <time>2021-07-11T14:08:56Z</time>
      </trkpt>
      <trkpt lat="45.74761" lon="6.45696">
        <ele>796.8</ele>
        <time>2021-07-11T14:09:00Z</time>
      </trkpt>
      <trkpt lat="45.74762" lon="6.45663">
        <ele>793.2</ele>
        <time>2021-07-11T14:09:04Z</time>
      </trkpt>
      <trkpt lat="45.74757" lon="6.4562">
        <ele>790.2</ele>
        <time>2021-07-11T14:09:08Z</time>
      </trkpt>
      <trkpt lat="45.74758" lon="6.45577">
        <ele>788</ele>
        <time>2021-07-11T14:09:12Z</time>
      </trkpt>
      <trkpt lat="45.74773" lon="6.45529">
        <ele>784.8</ele>
        <time>2021-07-11T14:09:16Z</time>
      </trkpt>
      <trkpt lat="45.74782" lon="6.45462">
        <ele>780.4</ele>
        <time>2021-07-11T14:09:20Z</time>
      </trkpt>
      <trkpt lat="45.74801" lon="6.45418">
        <ele>777.2</ele>
        <time>2021-07-11T14:09:24Z</time>
      </trkpt>
      <trkpt lat="45.74805" lon="6.45363">
        <ele>774.2</ele>
        <time>2021-07-11T14:09:28Z</time>
      </trkpt>
      <trkpt lat="45.74819" lon="6.45327">
        <ele>770.4</ele>
        <time>2021-07-11T14:09:32Z</time>
      </trkpt>
      <trkpt lat="45.74836" lon="6.45289">
        <ele>766.4</ele>
        <time>2021-07-11T14:09:36Z</time>
      </trkpt>
      <trkpt lat="45.74829" lon="6.45245">
        <ele>763.6</ele>
        <time>2021-07-11T14:09:40Z</time>
      </trkpt>
      <trkpt lat="45.74809" lon="6.45207">
        <ele>759.4</ele>
        <time>2021-07-11T14:09:44Z</time>
      </trkpt>
      <trkpt lat="45.74779" lon="6.45187">
        <ele>755.6</ele>
        <time>2021-07-11T14:09:48Z</time>
      </trkpt>
      <trkpt lat="45.74755" lon="6.45159">
        <ele>752.2</ele>
        <time>2021-07-11T14:09:52Z</time>
      </trkpt>
      <trkpt lat="45.74748" lon="6.45099">
        <ele>747.2</ele>
        <time>2021-07-11T14:09:56Z</time>
      </trkpt>
      <trkpt lat="45.74734" lon="6.45044">
        <ele>744</ele>
        <time>2021-07-11T14:10:00Z</time>
      </trkpt>
      <trkpt lat="45.74719" lon="6.45003">
        <ele>738.6</ele>
        <time>2021-07-11T14:10:04Z</time>
      </trkpt>
      <trkpt lat="45.74721" lon="6.44954">
        <ele>734.2</ele>
        <time>2021-07-11T14:10:08Z</time>
      </trkpt>
      <trkpt lat="45.74706" lon="6.44911">
        <ele>730.6</ele>
        <time>2021-07-11T14:10:12Z</time>
      </trkpt>
      <trkpt lat="45.74706" lon="6.44873">
        <ele>727.8</ele>
        <time>2021-07-11T14:10:16Z</time>
      </trkpt>
      <trkpt lat="45.74709" lon="6.4483">
        <ele>723.6</ele>
        <time>2021-07-11T14:10:20Z</time>
      </trkpt>
      <trkpt lat="45.74699" lon="6.44779">
        <ele>721.2</ele>
        <time>2021-07-11T14:10:24Z</time>
      </trkpt>
      <trkpt lat="45.74682" lon="6.44718">
        <ele>716.8</ele>
        <time>2021-07-11T14:10:28Z</time>
      </trkpt>
      <trkpt lat="45.74674" lon="6.44661">
        <ele>712.4</ele>
        <time>2021-07-11T14:10:32Z</time>
      </trkpt>
      <trkpt lat="45.74659" lon="6.44618">
        <ele>710.4</ele>
        <time>2021-07-11T14:10:36Z</time>
      </trkpt>
      <trkpt lat="45.74636" lon="6.44575">
        <ele>707.4</ele>
        <time>2021-07-11T14:10:40Z</time>
      </trkpt>
      <trkpt lat="45.74612" lon="6.44526">
        <ele>704</ele>
        <time>2021-07-11T14:10:44Z</time>
      </trkpt>
      <trkpt lat="45.74585" lon="6.44506">
        <ele>703.8</ele>
        <time>2021-07-11T14:10:48Z</time>
      </trkpt>
      <trkpt lat="45.74567" lon="6.4449">
        <ele>702</ele>
        <time>2021-07-11T14:10:52Z</time>
      </trkpt>
      <trkpt lat="45.74558" lon="6.4447">
        <ele>699</ele>
        <time>2021-07-11T14:10:56Z</time>
      </trkpt>
      <trkpt lat="45.74552" lon="6.44435">
        <ele>696</ele>
        <time>2021-07-11T14:11:00Z</time>
      </trkpt>
      <trkpt lat="45.7454" lon="6.44388">
        <ele>694</ele>
        <time>2021-07-11T14:11:04Z</time>
      </trkpt>
      <trkpt lat="45.74531" lon="6.44347">
        <ele>690.6</ele>
        <time>2021-07-11T14:11:08Z</time>
      </trkpt>
      <trkpt lat="45.74526" lon="6.44306">
        <ele>687.8</ele>
        <time>2021-07-11T14:11:12Z</time>
      </trkpt>
      <trkpt lat="45.74512" lon="6.44264">
        <ele>685.6</ele>
        <time>2021-07-11T14:11:16Z</time>
      </trkpt>
      <trkpt lat="45.74497" lon="6.44228">
        <ele>683.6</ele>
        <time>2021-07-11T14:11:20Z</time>
      </trkpt>
      <trkpt lat="45.74475" lon="6.4418">
        <ele>679.4</ele>
        <time>2021-07-11T14:11:24Z</time>
      </trkpt>
      <trkpt lat="45.74456" lon="6.44133">
        <ele>677</ele>
        <time>2021-07-11T14:11:28Z</time>
      </trkpt>
      <trkpt lat="45.74442" lon="6.44087">
        <ele>674.4</ele>
        <time>2021-07-11T14:11:32Z</time>
      </trkpt>
      <trkpt lat="45.7443" lon="6.44042">
        <ele>671.6</ele>
        <time>2021-07-11T14:11:36Z</time>
      </trkpt>
      <trkpt lat="45.74411" lon="6.44013">
        <ele>669.4</ele>
        <time>2021-07-11T14:11:40Z</time>
      </trkpt>
      <trkpt lat="45.74392" lon="6.43978">
        <ele>667.4</ele>
        <time>2021-07-11T14:11:44Z</time>
      </trkpt>
      <trkpt lat="45.74374" lon="6.43938">
        <ele>663.6</ele>
        <time>2021-07-11T14:11:48Z</time>
      </trkpt>
      <trkpt lat="45.74354" lon="6.43893">
        <ele>661.4</ele>
        <time>2021-07-11T14:11:52Z</time>
      </trkpt>
      <trkpt lat="45.74342" lon="6.43849">
        <ele>658.8</ele>
        <time>2021-07-11T14:11:56Z</time>
      </trkpt>
      <trkpt lat="45.74327" lon="6.43796">
        <ele>653.6</ele>
        <time>2021-07-11T14:12:00Z</time>
      </trkpt>
      <trkpt lat="45.74304" lon="6.43747">
        <ele>650</ele>
        <time>2021-07-11T14:12:04Z</time>
      </trkpt>
      <trkpt lat="45.74279" lon="6.43721">
        <ele>647.2</ele>
        <time>2021-07-11T14:12:08Z</time>
      </trkpt>
      <trkpt lat="45.74247" lon="6.43711">
        <ele>644.8</ele>
        <time>2021-07-11T14:12:12Z</time>
      </trkpt>
      <trkpt lat="45.74222" lon="6.43707">
        <ele>641.6</ele>
        <time>2021-07-11T14:12:16Z</time>
      </trkpt>
      <trkpt lat="45.74198" lon="6.43698">
        <ele>638.2</ele>
        <time>2021-07-11T14:12:20Z</time>
      </trkpt>
      <trkpt lat="45.74167" lon="6.43683">
        <ele>635</ele>
        <time>2021-07-11T14:12:24Z</time>
      </trkpt>
      <trkpt lat="45.74123" lon="6.43654">
        <ele>632.4</ele>
        <time>2021-07-11T14:12:28Z</time>
      </trkpt>
      <trkpt lat="45.74089" lon="6.43631">
        <ele>628</ele>
        <time>2021-07-11T14:12:32Z</time>
      </trkpt>
      <trkpt lat="45.74057" lon="6.43626">
        <ele>624.4</ele>
        <time>2021-07-11T14:12:36Z</time>
      </trkpt>
      <trkpt lat="45.74033" lon="6.43595">
        <ele>622.2</ele>
        <time>2021-07-11T14:12:40Z</time>
      </trkpt>
      <trkpt lat="45.74023" lon="6.43552">
        <ele>618.4</ele>
        <time>2021-07-11T14:12:44Z</time>
      </trkpt>
      <trkpt lat="45.73997" lon="6.43532">
        <ele>615.8</ele>
        <time>2021-07-11T14:12:48Z</time>
      </trkpt>
      <trkpt lat="45.73965" lon="6.43525">
        <ele>615</ele>
        <time>2021-07-11T14:12:52Z</time>
      </trkpt>
      <trkpt lat="45.73962" lon="6.435">
        <ele>611.8</ele>
        <time>2021-07-11T14:12:56Z</time>
      </trkpt>
      <trkpt lat="45.73974" lon="6.43499">
        <ele>609.2</ele>
        <time>2021-07-11T14:13:00Z</time>
      </trkpt>
      <trkpt lat="45.73974" lon="6.43482">
        <ele>609.2</ele>
        <time>2021-07-11T14:13:13Z</time>
      </trkpt>
      <trkpt lat="45.73968" lon="6.43477">
        <ele>608.8</ele>
        <time>2021-07-11T14:13:17Z</time>
      </trkpt>
      <trkpt lat="45.73958" lon="6.43474">
        <ele>608.2</ele>
        <time>2021-07-11T14:13:21Z</time>
      </trkpt>
      <trkpt lat="45.73944" lon="6.43474">
        <ele>607.2</ele>
        <time>2021-07-11T14:13:25Z</time>
      </trkpt>
      <trkpt lat="45.73929" lon="6.43469">
        <ele>606.6</ele>
        <time>2021-07-11T14:13:29Z</time>
      </trkpt>
      <trkpt lat="45.7392" lon="6.43464">
        <ele>606.4</ele>
        <time>2021-07-11T14:13:33Z</time>
      </trkpt>
      <trkpt lat="45.73905" lon="6.43464">
        <ele>606.4</ele>
        <time>2021-07-11T14:14:22Z</time>
      </trkpt>
      <trkpt lat="45.73893" lon="6.43459">
        <ele>605.2</ele>
        <time>2021-07-11T14:14:26Z</time>
      </trkpt>
      <trkpt lat="45.73877" lon="6.43454">
        <ele>604.6</ele>
        <time>2021-07-11T14:14:30Z</time>
      </trkpt>
      <trkpt lat="45.7386" lon="6.43449">
        <ele>602</ele>
        <time>2021-07-11T14:14:34Z</time>
      </trkpt>
      <trkpt lat="45.73829" lon="6.43438">
        <ele>599.8</ele>
        <time>2021-07-11T14:14:38Z</time>
      </trkpt>
      <trkpt lat="45.7379" lon="6.4342">
        <ele>596.8</ele>
        <time>2021-07-11T14:14:42Z</time>
      </trkpt>
      <trkpt lat="45.73751" lon="6.43402">
        <ele>594.4</ele>
        <time>2021-07-11T14:14:46Z</time>
      </trkpt>
      <trkpt lat="45.73709" lon="6.43388">
        <ele>591.4</ele>
        <time>2021-07-11T14:14:50Z</time>
      </trkpt>
      <trkpt lat="45.73658" lon="6.43379">
        <ele>589</ele>
        <time>2021-07-11T14:14:54Z</time>
      </trkpt>
      <trkpt lat="45.73618" lon="6.43363">
        <ele>585.8</ele>
        <time>2021-07-11T14:14:58Z</time>
      </trkpt>
      <trkpt lat="45.73584" lon="6.43373">
        <ele>583</ele>
        <time>2021-07-11T14:15:02Z</time>
      </trkpt>
      <trkpt lat="45.7355" lon="6.43369">
        <ele>580.6</ele>
        <time>2021-07-11T14:15:06Z</time>
      </trkpt>
      <trkpt lat="45.73521" lon="6.43355">
        <ele>578.6</ele>
        <time>2021-07-11T14:15:10Z</time>
      </trkpt>
      <trkpt lat="45.73531" lon="6.43337">
        <ele>576</ele>
        <time>2021-07-11T14:15:14Z</time>
      </trkpt>
      <trkpt lat="45.73562" lon="6.43344">
        <ele>573.2</ele>
        <time>2021-07-11T14:15:18Z</time>
      </trkpt>
      <trkpt lat="45.7359" lon="6.43341">
        <ele>571.4</ele>
        <time>2021-07-11T14:15:22Z</time>
      </trkpt>
      <trkpt lat="45.73615" lon="6.43331">
        <ele>568.6</ele>
        <time>2021-07-11T14:15:26Z</time>
      </trkpt>
      <trkpt lat="45.73649" lon="6.43332">
        <ele>566</ele>
        <time>2021-07-11T14:15:30Z</time>
      </trkpt>
      <trkpt lat="45.7369" lon="6.43329">
        <ele>562.8</ele>
        <time>2021-07-11T14:15:34Z</time>
      </trkpt>
      <trkpt lat="45.73733" lon="6.43336">
        <ele>558.6</ele>
        <time>2021-07-11T14:15:38Z</time>
      </trkpt>
      <trkpt lat="45.73777" lon="6.43336">
        <ele>556.2</ele>
        <time>2021-07-11T14:15:42Z</time>
      </trkpt>
      <trkpt lat="45.73813" lon="6.43342">
        <ele>553.2</ele>
        <time>2021-07-11T14:15:46Z</time>
      </trkpt>
      <trkpt lat="45.73842" lon="6.4334">
        <ele>550.8</ele>
        <time>2021-07-11T14:15:50Z</time>
      </trkpt>
      <trkpt lat="45.73878" lon="6.43321">
        <ele>549.2</ele>
        <time>2021-07-11T14:15:54Z</time>
      </trkpt>
      <trkpt lat="45.73915" lon="6.43306">
        <ele>547.2</ele>
        <time>2021-07-11T14:15:58Z</time>
      </trkpt>
      <trkpt lat="45.73953" lon="6.43302">
        <ele>544.8</ele>
        <time>2021-07-11T14:16:02Z</time>
      </trkpt>
      <trkpt lat="45.7399" lon="6.43294">
        <ele>543.4</ele>
        <time>2021-07-11T14:16:06Z</time>
      </trkpt>
      <trkpt lat="45.74027" lon="6.43301">
        <ele>541.2</ele>
        <time>2021-07-11T14:16:10Z</time>
      </trkpt>
      <trkpt lat="45.7405" lon="6.43301">
        <ele>538.6</ele>
        <time>2021-07-11T14:16:14Z</time>
      </trkpt>
      <trkpt lat="45.74041" lon="6.43285">
        <ele>537.8</ele>
        <time>2021-07-11T14:16:18Z</time>
      </trkpt>
      <trkpt lat="45.74015" lon="6.43276">
        <ele>535.4</ele>
        <time>2021-07-11T14:16:22Z</time>
      </trkpt>
      <trkpt lat="45.73987" lon="6.43267">
        <ele>533.4</ele>
        <time>2021-07-11T14:16:26Z</time>
      </trkpt>
      <trkpt lat="45.73952" lon="6.43266">
        <ele>530.2</ele>
        <time>2021-07-11T14:16:30Z</time>
      </trkpt>
      <trkpt lat="45.73916" lon="6.43259">
        <ele>528.6</ele>
        <time>2021-07-11T14:16:34Z</time>
      </trkpt>
      <trkpt lat="45.73878" lon="6.4326">
        <ele>526</ele>
        <time>2021-07-11T14:16:38Z</time>
      </trkpt>
      <trkpt lat="45.73835" lon="6.43268">
        <ele>523</ele>
        <time>2021-07-11T14:16:42Z</time>
      </trkpt>
      <trkpt lat="45.73793" lon="6.43261">
        <ele>520.2</ele>
        <time>2021-07-11T14:16:46Z</time>
      </trkpt>
      <trkpt lat="45.73756" lon="6.43233">
        <ele>517</ele>
        <time>2021-07-11T14:16:50Z</time>
      </trkpt>
      <trkpt lat="45.73728" lon="6.43212">
        <ele>515</ele>
        <time>2021-07-11T14:16:54Z</time>
      </trkpt>
      <trkpt lat="45.73696" lon="6.4321">
        <ele>513.2</ele>
        <time>2021-07-11T14:16:58Z</time>
      </trkpt>
      <trkpt lat="45.73661" lon="6.43207">
        <ele>512</ele>
        <time>2021-07-11T14:17:02Z</time>
      </trkpt>
      <trkpt lat="45.73628" lon="6.43196">
        <ele>510.4</ele>
        <time>2021-07-11T14:17:06Z</time>
      </trkpt>
      <trkpt lat="45.73594" lon="6.43175">
        <ele>509.6</ele>
        <time>2021-07-11T14:17:10Z</time>
      </trkpt>
      <trkpt lat="45.73561" lon="6.43157">
        <ele>508</ele>
        <time>2021-07-11T14:17:14Z</time>
      </trkpt>
      <trkpt lat="45.73528" lon="6.43139">
        <ele>506.2</ele>
        <time>2021-07-11T14:17:18Z</time>
      </trkpt>
      <trkpt lat="45.73491" lon="6.43119">
        <ele>504.6</ele>
        <time>2021-07-11T14:17:22Z</time>
      </trkpt>
      <trkpt lat="45.73455" lon="6.43098">
        <ele>502.2</ele>
        <time>2021-07-11T14:17:26Z</time>
      </trkpt>
      <trkpt lat="45.73436" lon="6.43076">
        <ele>500</ele>
        <time>2021-07-11T14:17:30Z</time>
      </trkpt>
      <trkpt lat="45.7346" lon="6.4308">
        <ele>497.8</ele>
        <time>2021-07-11T14:17:34Z</time>
      </trkpt>
      <trkpt lat="45.73488" lon="6.43094">
        <ele>496</ele>
        <time>2021-07-11T14:17:38Z</time>
      </trkpt>
      <trkpt lat="45.7352" lon="6.43103">
        <ele>492.8</ele>
        <time>2021-07-11T14:17:42Z</time>
      </trkpt>
      <trkpt lat="45.73556" lon="6.43111">
        <ele>490</ele>
        <time>2021-07-11T14:17:46Z</time>
      </trkpt>
      <trkpt lat="45.73596" lon="6.43117">
        <ele>488.6</ele>
        <time>2021-07-11T14:17:50Z</time>
      </trkpt>
      <trkpt lat="45.73633" lon="6.43129">
        <ele>486.4</ele>
        <time>2021-07-11T14:17:54Z</time>
      </trkpt>
      <trkpt lat="45.73659" lon="6.43134">
        <ele>483.8</ele>
        <time>2021-07-11T14:17:58Z</time>
      </trkpt>
      <trkpt lat="45.73693" lon="6.43124">
        <ele>481.8</ele>
        <time>2021-07-11T14:18:02Z</time>
      </trkpt>
      <trkpt lat="45.73731" lon="6.43123">
        <ele>480</ele>
        <time>2021-07-11T14:18:06Z</time>
      </trkpt>
      <trkpt lat="45.73766" lon="6.43139">
        <ele>477.4</ele>
        <time>2021-07-11T14:18:10Z</time>
      </trkpt>
      <trkpt lat="45.73805" lon="6.43145">
        <ele>474.6</ele>
        <time>2021-07-11T14:18:14Z</time>
      </trkpt>
      <trkpt lat="45.73847" lon="6.43123">
        <ele>471</ele>
        <time>2021-07-11T14:18:18Z</time>
      </trkpt>
      <trkpt lat="45.73892" lon="6.43095">
        <ele>466</ele>
        <time>2021-07-11T14:18:22Z</time>
      </trkpt>
      <trkpt lat="45.73933" lon="6.43064">
        <ele>462.6</ele>
        <time>2021-07-11T14:18:26Z</time>
      </trkpt>
      <trkpt lat="45.73973" lon="6.43052">
        <ele>459.8</ele>
        <time>2021-07-11T14:18:30Z</time>
      </trkpt>
      <trkpt lat="45.74012" lon="6.43058">
        <ele>455.2</ele>
        <time>2021-07-11T14:18:34Z</time>
      </trkpt>
      <trkpt lat="45.7404" lon="6.43074">
        <ele>452.2</ele>
        <time>2021-07-11T14:18:38Z</time>
      </trkpt>
      <trkpt lat="45.74053" lon="6.43061">
        <ele>450</ele>
        <time>2021-07-11T14:18:42Z</time>
      </trkpt>
      <trkpt lat="45.74032" lon="6.43042">
        <ele>448.4</ele>
        <time>2021-07-11T14:18:46Z</time>
      </trkpt>
      <trkpt lat="45.74003" lon="6.43029">
        <ele>446.4</ele>
        <time>2021-07-11T14:18:50Z</time>
      </trkpt>
      <trkpt lat="45.73968" lon="6.43015">
        <ele>442.8</ele>
        <time>2021-07-11T14:18:54Z</time>
      </trkpt>
      <trkpt lat="45.73931" lon="6.43003">
        <ele>440.8</ele>
        <time>2021-07-11T14:18:58Z</time>
      </trkpt>
      <trkpt lat="45.73897" lon="6.42999">
        <ele>436.8</ele>
        <time>2021-07-11T14:19:02Z</time>
      </trkpt>
      <trkpt lat="45.73855" lon="6.43002">
        <ele>433.8</ele>
        <time>2021-07-11T14:19:06Z</time>
      </trkpt>
      <trkpt lat="45.73817" lon="6.43014">
        <ele>430.6</ele>
        <time>2021-07-11T14:19:10Z</time>
      </trkpt>
      <trkpt lat="45.73783" lon="6.42997">
        <ele>426.8</ele>
        <time>2021-07-11T14:19:14Z</time>
      </trkpt>
      <trkpt lat="45.73742" lon="6.42989">
        <ele>423.4</ele>
        <time>2021-07-11T14:19:18Z</time>
      </trkpt>
      <trkpt lat="45.73697" lon="6.42977">
        <ele>420.2</ele>
        <time>2021-07-11T14:19:22Z</time>
      </trkpt>
      <trkpt lat="45.73652" lon="6.42956">
        <ele>415.8</ele>
        <time>2021-07-11T14:19:26Z</time>
      </trkpt>
      <trkpt lat="45.73609" lon="6.42943">
        <ele>411</ele>
        <time>2021-07-11T14:19:30Z</time>
      </trkpt>
      <trkpt lat="45.73571" lon="6.4291">
        <ele>409</ele>
        <time>2021-07-11T14:19:34Z</time>
      </trkpt>
      <trkpt lat="45.73535" lon="6.42879">
        <ele>405</ele>
        <time>2021-07-11T14:19:38Z</time>
      </trkpt>
      <trkpt lat="45.73519" lon="6.42855">
        <ele>402</ele>
        <time>2021-07-11T14:19:42Z</time>
      </trkpt>
      <trkpt lat="45.7354" lon="6.42857">
        <ele>401</ele>
        <time>2021-07-11T14:19:46Z</time>
      </trkpt>
      <trkpt lat="45.73568" lon="6.42862">
        <ele>399.2</ele>
        <time>2021-07-11T14:19:50Z</time>
      </trkpt>
      <trkpt lat="45.73599" lon="6.42852">
        <ele>397</ele>
        <time>2021-07-11T14:19:54Z</time>
      </trkpt>
      <trkpt lat="45.73629" lon="6.4284">
        <ele>395.6</ele>
        <time>2021-07-11T14:19:58Z</time>
      </trkpt>
      <trkpt lat="45.73662" lon="6.42853">
        <ele>392</ele>
        <time>2021-07-11T14:20:02Z</time>
      </trkpt>
      <trkpt lat="45.73697" lon="6.42876">
        <ele>388.6</ele>
        <time>2021-07-11T14:20:06Z</time>
      </trkpt>
      <trkpt lat="45.73725" lon="6.4286">
        <ele>385.6</ele>
        <time>2021-07-11T14:20:10Z</time>
      </trkpt>
      <trkpt lat="45.73729" lon="6.42816">
        <ele>383.4</ele>
        <time>2021-07-11T14:20:14Z</time>
      </trkpt>
      <trkpt lat="45.73731" lon="6.42766">
        <ele>383.4</ele>
        <time>2021-07-11T14:20:18Z</time>
      </trkpt>
      <trkpt lat="45.73733" lon="6.42722">
        <ele>383</ele>
        <time>2021-07-11T14:20:22Z</time>
      </trkpt>
      <trkpt lat="45.73734" lon="6.42681">
        <ele>381.8</ele>
        <time>2021-07-11T14:20:26Z</time>
      </trkpt>
      <trkpt lat="45.73733" lon="6.42644">
        <ele>382</ele>
        <time>2021-07-11T14:20:30Z</time>
      </trkpt>
      <trkpt lat="45.73731" lon="6.4261">
        <ele>382.4</ele>
        <time>2021-07-11T14:20:34Z</time>
      </trkpt>
      <trkpt lat="45.73728" lon="6.42579">
        <ele>382.4</ele>
        <time>2021-07-11T14:20:38Z</time>
      </trkpt>
      <trkpt lat="45.73725" lon="6.42549">
        <ele>381.2</ele>
        <time>2021-07-11T14:20:42Z</time>
      </trkpt>
      <trkpt lat="45.73722" lon="6.4252">
        <ele>381.4</ele>
        <time>2021-07-11T14:20:46Z</time>
      </trkpt>
      <trkpt lat="45.73721" lon="6.42494">
        <ele>380.8</ele>
        <time>2021-07-11T14:20:50Z</time>
      </trkpt>
      <trkpt lat="45.7372" lon="6.42469">
        <ele>382</ele>
        <time>2021-07-11T14:20:54Z</time>
      </trkpt>
      <trkpt lat="45.73715" lon="6.42457">
        <ele>382</ele>
        <time>2021-07-11T14:20:58Z</time>
      </trkpt>
      <trkpt lat="45.73712" lon="6.42455">
        <ele>381.8</ele>
        <time>2021-07-11T14:21:07Z</time>
      </trkpt>
      <trkpt lat="45.73706" lon="6.4245">
        <ele>382.2</ele>
        <time>2021-07-11T14:21:11Z</time>
      </trkpt>
      <trkpt lat="45.73694" lon="6.42444">
        <ele>382</ele>
        <time>2021-07-11T14:21:39Z</time>
      </trkpt>
      <trkpt lat="45.73684" lon="6.4244">
        <ele>381.8</ele>
        <time>2021-07-11T14:21:43Z</time>
      </trkpt>
      <trkpt lat="45.73672" lon="6.42435">
        <ele>381.4</ele>
        <time>2021-07-11T14:21:47Z</time>
      </trkpt>
      <trkpt lat="45.73657" lon="6.42431">
        <ele>380.8</ele>
        <time>2021-07-11T14:21:51Z</time>
      </trkpt>
      <trkpt lat="45.73642" lon="6.42426">
        <ele>380.6</ele>
        <time>2021-07-11T14:21:55Z</time>
      </trkpt>
      <trkpt lat="45.73624" lon="6.4242">
        <ele>380.2</ele>
        <time>2021-07-11T14:21:59Z</time>
      </trkpt>
      <trkpt lat="45.73606" lon="6.42413">
        <ele>380.4</ele>
        <time>2021-07-11T14:22:03Z</time>
      </trkpt>
      <trkpt lat="45.73588" lon="6.42406">
        <ele>380.2</ele>
        <time>2021-07-11T14:22:07Z</time>
      </trkpt>
      <trkpt lat="45.73569" lon="6.42398">
        <ele>380.2</ele>
        <time>2021-07-11T14:22:11Z</time>
      </trkpt>
      <trkpt lat="45.7355" lon="6.42389">
        <ele>380.4</ele>
        <time>2021-07-11T14:22:15Z</time>
      </trkpt>
      <trkpt lat="45.73531" lon="6.4238">
        <ele>380</ele>
        <time>2021-07-11T14:22:19Z</time>
      </trkpt>
      <trkpt lat="45.73512" lon="6.4237">
        <ele>379.8</ele>
        <time>2021-07-11T14:22:23Z</time>
      </trkpt>
      <trkpt lat="45.73493" lon="6.42361">
        <ele>380</ele>
        <time>2021-07-11T14:22:27Z</time>
      </trkpt>
      <trkpt lat="45.73474" lon="6.42351">
        <ele>379.6</ele>
        <time>2021-07-11T14:22:31Z</time>
      </trkpt>
      <trkpt lat="45.73455" lon="6.42339">
        <ele>379</ele>
        <time>2021-07-11T14:22:35Z</time>
      </trkpt>
      <trkpt lat="45.73435" lon="6.42327">
        <ele>378.8</ele>
        <time>2021-07-11T14:22:39Z</time>
      </trkpt>
      <trkpt lat="45.73416" lon="6.42316">
        <ele>378.8</ele>
        <time>2021-07-11T14:22:43Z</time>
      </trkpt>
      <trkpt lat="45.73396" lon="6.42302">
        <ele>378.8</ele>
        <time>2021-07-11T14:22:47Z</time>
      </trkpt>
      <trkpt lat="45.73376" lon="6.42289">
        <ele>378</ele>
        <time>2021-07-11T14:22:51Z</time>
      </trkpt>
      <trkpt lat="45.73358" lon="6.42276">
        <ele>378.2</ele>
        <time>2021-07-11T14:22:55Z</time>
      </trkpt>
      <trkpt lat="45.73339" lon="6.42261">
        <ele>378.4</ele>
        <time>2021-07-11T14:22:59Z</time>
      </trkpt>
      <trkpt lat="45.73319" lon="6.42243">
        <ele>378</ele>
        <time>2021-07-11T14:23:03Z</time>
      </trkpt>
      <trkpt lat="45.733" lon="6.42227">
        <ele>377.6</ele>
        <time>2021-07-11T14:23:07Z</time>
      </trkpt>
      <trkpt lat="45.7328" lon="6.4221">
        <ele>377.4</ele>
        <time>2021-07-11T14:23:11Z</time>
      </trkpt>
      <trkpt lat="45.7326" lon="6.42193">
        <ele>376.8</ele>
        <time>2021-07-11T14:23:15Z</time>
      </trkpt>
      <trkpt lat="45.73239" lon="6.42177">
        <ele>376.8</ele>
        <time>2021-07-11T14:23:19Z</time>
      </trkpt>
      <trkpt lat="45.73216" lon="6.42163">
        <ele>377.2</ele>
        <time>2021-07-11T14:23:23Z</time>
      </trkpt>
      <trkpt lat="45.73191" lon="6.42154">
        <ele>377.4</ele>
        <time>2021-07-11T14:23:27Z</time>
      </trkpt>
      <trkpt lat="45.73168" lon="6.42146">
        <ele>377.6</ele>
        <time>2021-07-11T14:23:31Z</time>
      </trkpt>
      <trkpt lat="45.73144" lon="6.42143">
        <ele>377.4</ele>
        <time>2021-07-11T14:23:35Z</time>
      </trkpt>
      <trkpt lat="45.7312" lon="6.42143">
        <ele>377.2</ele>
        <time>2021-07-11T14:23:39Z</time>
      </trkpt>
      <trkpt lat="45.73097" lon="6.42143">
        <ele>377</ele>
        <time>2021-07-11T14:23:43Z</time>
      </trkpt>
      <trkpt lat="45.73075" lon="6.42132">
        <ele>376.8</ele>
        <time>2021-07-11T14:23:47Z</time>
      </trkpt>
      <trkpt lat="45.73061" lon="6.42108">
        <ele>376.6</ele>
        <time>2021-07-11T14:23:51Z</time>
      </trkpt>
      <trkpt lat="45.73056" lon="6.42079">
        <ele>377</ele>
        <time>2021-07-11T14:23:55Z</time>
      </trkpt>
      <trkpt lat="45.73061" lon="6.42053">
        <ele>377.8</ele>
        <time>2021-07-11T14:23:59Z</time>
      </trkpt>
      <trkpt lat="45.73069" lon="6.42032">
        <ele>378.2</ele>
        <time>2021-07-11T14:24:03Z</time>
      </trkpt>
      <trkpt lat="45.73077" lon="6.42013">
        <ele>378.6</ele>
        <time>2021-07-11T14:24:07Z</time>
      </trkpt>
      <trkpt lat="45.73085" lon="6.41994">
        <ele>379.8</ele>
        <time>2021-07-11T14:24:11Z</time>
      </trkpt>
      <trkpt lat="45.73093" lon="6.41977">
        <ele>380.4</ele>
        <time>2021-07-11T14:24:15Z</time>
      </trkpt>
      <trkpt lat="45.731" lon="6.41956">
        <ele>380.6</ele>
        <time>2021-07-11T14:24:19Z</time>
      </trkpt>
      <trkpt lat="45.73109" lon="6.41936">
        <ele>380.2</ele>
        <time>2021-07-11T14:24:23Z</time>
      </trkpt>
      <trkpt lat="45.73115" lon="6.41917">
        <ele>380.2</ele>
        <time>2021-07-11T14:24:27Z</time>
      </trkpt>
      <trkpt lat="45.73111" lon="6.41899">
        <ele>379.8</ele>
        <time>2021-07-11T14:24:31Z</time>
      </trkpt>
      <trkpt lat="45.73095" lon="6.41884">
        <ele>380</ele>
        <time>2021-07-11T14:24:35Z</time>
      </trkpt>
      <trkpt lat="45.73074" lon="6.41868">
        <ele>378.2</ele>
        <time>2021-07-11T14:24:39Z</time>
      </trkpt>
      <trkpt lat="45.73047" lon="6.4185">
        <ele>376.8</ele>
        <time>2021-07-11T14:24:43Z</time>
      </trkpt>
      <trkpt lat="45.73017" lon="6.41829">
        <ele>375.2</ele>
        <time>2021-07-11T14:24:47Z</time>
      </trkpt>
      <trkpt lat="45.7299" lon="6.41807">
        <ele>375.2</ele>
        <time>2021-07-11T14:24:51Z</time>
      </trkpt>
      <trkpt lat="45.72965" lon="6.41785">
        <ele>374.4</ele>
        <time>2021-07-11T14:24:55Z</time>
      </trkpt>
      <trkpt lat="45.72941" lon="6.41764">
        <ele>373.8</ele>
        <time>2021-07-11T14:24:59Z</time>
      </trkpt>
      <trkpt lat="45.72917" lon="6.41744">
        <ele>374.2</ele>
        <time>2021-07-11T14:25:03Z</time>
      </trkpt>
      <trkpt lat="45.72895" lon="6.41724">
        <ele>373.6</ele>
        <time>2021-07-11T14:25:07Z</time>
      </trkpt>
      <trkpt lat="45.72872" lon="6.41705">
        <ele>373</ele>
        <time>2021-07-11T14:25:11Z</time>
      </trkpt>
      <trkpt lat="45.7285" lon="6.41688">
        <ele>373</ele>
        <time>2021-07-11T14:25:15Z</time>
      </trkpt>
      <trkpt lat="45.72829" lon="6.41669">
        <ele>373.2</ele>
        <time>2021-07-11T14:25:19Z</time>
      </trkpt>
      <trkpt lat="45.72807" lon="6.4165">
        <ele>372.4</ele>
        <time>2021-07-11T14:25:23Z</time>
      </trkpt>
      <trkpt lat="45.72784" lon="6.41631">
        <ele>372</ele>
        <time>2021-07-11T14:25:27Z</time>
      </trkpt>
      <trkpt lat="45.72762" lon="6.41614">
        <ele>372.6</ele>
        <time>2021-07-11T14:25:31Z</time>
      </trkpt>
      <trkpt lat="45.7274" lon="6.41595">
        <ele>371.8</ele>
        <time>2021-07-11T14:25:35Z</time>
      </trkpt>
      <trkpt lat="45.72718" lon="6.41577">
        <ele>371.6</ele>
        <time>2021-07-11T14:25:39Z</time>
      </trkpt>
      <trkpt lat="45.72697" lon="6.41557">
        <ele>371.6</ele>
        <time>2021-07-11T14:25:43Z</time>
      </trkpt>
      <trkpt lat="45.72678" lon="6.41533">
        <ele>370.6</ele>
        <time>2021-07-11T14:25:47Z</time>
      </trkpt>
      <trkpt lat="45.72663" lon="6.41506">
        <ele>371.2</ele>
        <time>2021-07-11T14:25:51Z</time>
      </trkpt>
      <trkpt lat="45.72643" lon="6.41486">
        <ele>370</ele>
        <time>2021-07-11T14:25:55Z</time>
      </trkpt>
      <trkpt lat="45.72618" lon="6.41474">
        <ele>370</ele>
        <time>2021-07-11T14:25:59Z</time>
      </trkpt>
      <trkpt lat="45.72594" lon="6.41465">
        <ele>369.4</ele>
        <time>2021-07-11T14:26:03Z</time>
      </trkpt>
      <trkpt lat="45.72573" lon="6.41452">
        <ele>369.4</ele>
        <time>2021-07-11T14:26:07Z</time>
      </trkpt>
      <trkpt lat="45.72553" lon="6.41436">
        <ele>370</ele>
        <time>2021-07-11T14:26:11Z</time>
      </trkpt>
      <trkpt lat="45.72533" lon="6.4142">
        <ele>370.6</ele>
        <time>2021-07-11T14:26:15Z</time>
      </trkpt>
      <trkpt lat="45.72513" lon="6.41403">
        <ele>368.8</ele>
        <time>2021-07-11T14:26:19Z</time>
      </trkpt>
      <trkpt lat="45.72491" lon="6.41385">
        <ele>369.4</ele>
        <time>2021-07-11T14:26:23Z</time>
      </trkpt>
      <trkpt lat="45.72471" lon="6.41367">
        <ele>369</ele>
        <time>2021-07-11T14:26:27Z</time>
      </trkpt>
      <trkpt lat="45.72449" lon="6.41349">
        <ele>368.2</ele>
        <time>2021-07-11T14:26:31Z</time>
      </trkpt>
      <trkpt lat="45.72429" lon="6.41331">
        <ele>368.4</ele>
        <time>2021-07-11T14:26:35Z</time>
      </trkpt>
      <trkpt lat="45.72407" lon="6.41314">
        <ele>368.8</ele>
        <time>2021-07-11T14:26:39Z</time>
      </trkpt>
      <trkpt lat="45.72386" lon="6.41296">
        <ele>368.2</ele>
        <time>2021-07-11T14:26:43Z</time>
      </trkpt>
      <trkpt lat="45.72364" lon="6.41277">
        <ele>367.6</ele>
        <time>2021-07-11T14:26:47Z</time>
      </trkpt>
      <trkpt lat="45.72341" lon="6.4126">
        <ele>368</ele>
        <time>2021-07-11T14:26:51Z</time>
      </trkpt>
      <trkpt lat="45.72319" lon="6.41241">
        <ele>367.2</ele>
        <time>2021-07-11T14:26:55Z</time>
      </trkpt>
      <trkpt lat="45.72297" lon="6.41223">
        <ele>366.8</ele>
        <time>2021-07-11T14:26:59Z</time>
      </trkpt>
      <trkpt lat="45.72275" lon="6.41204">
        <ele>366.6</ele>
        <time>2021-07-11T14:27:03Z</time>
      </trkpt>
      <trkpt lat="45.72253" lon="6.41185">
        <ele>366.4</ele>
        <time>2021-07-11T14:27:07Z</time>
      </trkpt>
      <trkpt lat="45.72231" lon="6.41167">
        <ele>367</ele>
        <time>2021-07-11T14:27:11Z</time>
      </trkpt>
      <trkpt lat="45.72209" lon="6.41148">
        <ele>365.8</ele>
        <time>2021-07-11T14:27:15Z</time>
      </trkpt>
      <trkpt lat="45.72187" lon="6.41131">
        <ele>365.8</ele>
        <time>2021-07-11T14:27:19Z</time>
      </trkpt>
      <trkpt lat="45.72169" lon="6.41116">
        <ele>366.4</ele>
        <time>2021-07-11T14:27:23Z</time>
      </trkpt>
      <trkpt lat="45.72147" lon="6.41098">
        <ele>365.8</ele>
        <time>2021-07-11T14:27:27Z</time>
      </trkpt>
      <trkpt lat="45.72125" lon="6.41079">
        <ele>365.6</ele>
        <time>2021-07-11T14:27:31Z</time>
      </trkpt>
      <trkpt lat="45.72104" lon="6.41062">
        <ele>365.8</ele>
        <time>2021-07-11T14:27:35Z</time>
      </trkpt>
      <trkpt lat="45.72082" lon="6.41045">
        <ele>365.8</ele>
        <time>2021-07-11T14:27:39Z</time>
      </trkpt>
      <trkpt lat="45.72059" lon="6.41028">
        <ele>365</ele>
        <time>2021-07-11T14:27:43Z</time>
      </trkpt>
      <trkpt lat="45.72037" lon="6.41013">
        <ele>365.2</ele>
        <time>2021-07-11T14:27:47Z</time>
      </trkpt>
      <trkpt lat="45.72017" lon="6.40997">
        <ele>365.4</ele>
        <time>2021-07-11T14:27:51Z</time>
      </trkpt>
      <trkpt lat="45.71999" lon="6.40982">
        <ele>364.6</ele>
        <time>2021-07-11T14:27:55Z</time>
      </trkpt>
      <trkpt lat="45.71979" lon="6.40968">
        <ele>365</ele>
        <time>2021-07-11T14:27:59Z</time>
      </trkpt>
      <trkpt lat="45.71958" lon="6.40955">
        <ele>365</ele>
        <time>2021-07-11T14:28:03Z</time>
      </trkpt>
      <trkpt lat="45.71936" lon="6.40942">
        <ele>364.6</ele>
        <time>2021-07-11T14:28:07Z</time>
      </trkpt>
      <trkpt lat="45.71915" lon="6.40928">
        <ele>363.6</ele>
        <time>2021-07-11T14:28:11Z</time>
      </trkpt>
      <trkpt lat="45.71889" lon="6.40913">
        <ele>364</ele>
        <time>2021-07-11T14:28:15Z</time>
      </trkpt>
      <trkpt lat="45.71861" lon="6.40902">
        <ele>364</ele>
        <time>2021-07-11T14:28:19Z</time>
      </trkpt>
      <trkpt lat="45.71835" lon="6.4089">
        <ele>363.4</ele>
        <time>2021-07-11T14:28:23Z</time>
      </trkpt>
      <trkpt lat="45.7181" lon="6.4088">
        <ele>363</ele>
        <time>2021-07-11T14:28:27Z</time>
      </trkpt>
      <trkpt lat="45.71785" lon="6.4087">
        <ele>362.4</ele>
        <time>2021-07-11T14:28:31Z</time>
      </trkpt>
      <trkpt lat="45.71761" lon="6.4086">
        <ele>362.4</ele>
        <time>2021-07-11T14:28:35Z</time>
      </trkpt>
      <trkpt lat="45.71737" lon="6.4085">
        <ele>362.4</ele>
        <time>2021-07-11T14:28:39Z</time>
      </trkpt>
      <trkpt lat="45.71713" lon="6.4084">
        <ele>361.6</ele>
        <time>2021-07-11T14:28:43Z</time>
      </trkpt>
      <trkpt lat="45.71689" lon="6.4083">
        <ele>362</ele>
        <time>2021-07-11T14:28:47Z</time>
      </trkpt>
      <trkpt lat="45.71666" lon="6.4082">
        <ele>361.2</ele>
        <time>2021-07-11T14:28:51Z</time>
      </trkpt>
      <trkpt lat="45.71643" lon="6.40809">
        <ele>361.4</ele>
        <time>2021-07-11T14:28:55Z</time>
      </trkpt>
      <trkpt lat="45.71621" lon="6.40798">
        <ele>362</ele>
        <time>2021-07-11T14:28:59Z</time>
      </trkpt>
      <trkpt lat="45.71598" lon="6.40787">
        <ele>360.8</ele>
        <time>2021-07-11T14:29:03Z</time>
      </trkpt>
      <trkpt lat="45.71577" lon="6.40777">
        <ele>360.6</ele>
        <time>2021-07-11T14:29:07Z</time>
      </trkpt>
      <trkpt lat="45.71554" lon="6.40766">
        <ele>360.2</ele>
        <time>2021-07-11T14:29:11Z</time>
      </trkpt>
      <trkpt lat="45.71531" lon="6.40755">
        <ele>359.6</ele>
        <time>2021-07-11T14:29:15Z</time>
      </trkpt>
      <trkpt lat="45.71508" lon="6.40745">
        <ele>359.8</ele>
        <time>2021-07-11T14:29:19Z</time>
      </trkpt>
      <trkpt lat="45.71486" lon="6.40735">
        <ele>359.6</ele>
        <time>2021-07-11T14:29:23Z</time>
      </trkpt>
      <trkpt lat="45.71464" lon="6.40723">
        <ele>359.4</ele>
        <time>2021-07-11T14:29:27Z</time>
      </trkpt>
      <trkpt lat="45.71443" lon="6.40711">
        <ele>358.8</ele>
        <time>2021-07-11T14:29:31Z</time>
      </trkpt>
      <trkpt lat="45.71421" lon="6.407">
        <ele>358.4</ele>
        <time>2021-07-11T14:29:35Z</time>
      </trkpt>
      <trkpt lat="45.71398" lon="6.4069">
        <ele>358</ele>
        <time>2021-07-11T14:29:39Z</time>
      </trkpt>
      <trkpt lat="45.71375" lon="6.40677">
        <ele>358.4</ele>
        <time>2021-07-11T14:29:43Z</time>
      </trkpt>
      <trkpt lat="45.71352" lon="6.40663">
        <ele>358.2</ele>
        <time>2021-07-11T14:29:47Z</time>
      </trkpt>
      <trkpt lat="45.71329" lon="6.40654">
        <ele>357.6</ele>
        <time>2021-07-11T14:29:51Z</time>
      </trkpt>
      <trkpt lat="45.71304" lon="6.40645">
        <ele>357</ele>
        <time>2021-07-11T14:29:55Z</time>
      </trkpt>
      <trkpt lat="45.7128" lon="6.40635">
        <ele>357.2</ele>
        <time>2021-07-11T14:29:59Z</time>
      </trkpt>
      <trkpt lat="45.71256" lon="6.40625">
        <ele>357.2</ele>
        <time>2021-07-11T14:30:03Z</time>
      </trkpt>
      <trkpt lat="45.71233" lon="6.40615">
        <ele>356.4</ele>
        <time>2021-07-11T14:30:07Z</time>
      </trkpt>
      <trkpt lat="45.7121" lon="6.40605">
        <ele>356.8</ele>
        <time>2021-07-11T14:30:11Z</time>
      </trkpt>
      <trkpt lat="45.71187" lon="6.40596">
        <ele>355</ele>
        <time>2021-07-11T14:30:15Z</time>
      </trkpt>
      <trkpt lat="45.71165" lon="6.40587">
        <ele>356.6</ele>
        <time>2021-07-11T14:30:19Z</time>
      </trkpt>
      <trkpt lat="45.71144" lon="6.40579">
        <ele>356</ele>
        <time>2021-07-11T14:30:23Z</time>
      </trkpt>
      <trkpt lat="45.71123" lon="6.40572">
        <ele>356.4</ele>
        <time>2021-07-11T14:30:27Z</time>
      </trkpt>
      <trkpt lat="45.711" lon="6.40566">
        <ele>356.2</ele>
        <time>2021-07-11T14:30:31Z</time>
      </trkpt>
      <trkpt lat="45.71077" lon="6.40559">
        <ele>356.6</ele>
        <time>2021-07-11T14:30:35Z</time>
      </trkpt>
      <trkpt lat="45.71052" lon="6.40557">
        <ele>355.4</ele>
        <time>2021-07-11T14:30:39Z</time>
      </trkpt>
      <trkpt lat="45.71028" lon="6.40555">
        <ele>356.4</ele>
        <time>2021-07-11T14:30:43Z</time>
      </trkpt>
      <trkpt lat="45.71003" lon="6.4055">
        <ele>355.4</ele>
        <time>2021-07-11T14:30:47Z</time>
      </trkpt>
      <trkpt lat="45.70978" lon="6.40551">
        <ele>355.4</ele>
        <time>2021-07-11T14:30:51Z</time>
      </trkpt>
      <trkpt lat="45.70953" lon="6.40552">
        <ele>354.8</ele>
        <time>2021-07-11T14:30:55Z</time>
      </trkpt>
      <trkpt lat="45.70925" lon="6.40551">
        <ele>354.2</ele>
        <time>2021-07-11T14:30:59Z</time>
      </trkpt>
      <trkpt lat="45.70898" lon="6.40552">
        <ele>354.6</ele>
        <time>2021-07-11T14:31:03Z</time>
      </trkpt>
      <trkpt lat="45.7087" lon="6.40548">
        <ele>353.8</ele>
        <time>2021-07-11T14:31:07Z</time>
      </trkpt>
      <trkpt lat="45.70845" lon="6.40542">
        <ele>353.4</ele>
        <time>2021-07-11T14:31:11Z</time>
      </trkpt>
      <trkpt lat="45.70822" lon="6.40535">
        <ele>354</ele>
        <time>2021-07-11T14:31:15Z</time>
      </trkpt>
      <trkpt lat="45.70799" lon="6.40526">
        <ele>353.8</ele>
        <time>2021-07-11T14:31:19Z</time>
      </trkpt>
      <trkpt lat="45.70777" lon="6.40517">
        <ele>352.8</ele>
        <time>2021-07-11T14:31:23Z</time>
      </trkpt>
      <trkpt lat="45.70754" lon="6.4051">
        <ele>353</ele>
        <time>2021-07-11T14:31:27Z</time>
      </trkpt>
      <trkpt lat="45.7073" lon="6.40505">
        <ele>352.6</ele>
        <time>2021-07-11T14:31:31Z</time>
      </trkpt>
      <trkpt lat="45.70703" lon="6.40504">
        <ele>351.8</ele>
        <time>2021-07-11T14:31:35Z</time>
      </trkpt>
      <trkpt lat="45.70677" lon="6.40507">
        <ele>352</ele>
        <time>2021-07-11T14:31:39Z</time>
      </trkpt>
      <trkpt lat="45.70652" lon="6.40513">
        <ele>352</ele>
        <time>2021-07-11T14:31:43Z</time>
      </trkpt>
      <trkpt lat="45.70627" lon="6.4052">
        <ele>351.8</ele>
        <time>2021-07-11T14:31:47Z</time>
      </trkpt>
      <trkpt lat="45.70604" lon="6.40527">
        <ele>351.2</ele>
        <time>2021-07-11T14:31:51Z</time>
      </trkpt>
      <trkpt lat="45.70581" lon="6.40536">
        <ele>351.2</ele>
        <time>2021-07-11T14:31:55Z</time>
      </trkpt>
      <trkpt lat="45.70558" lon="6.40542">
        <ele>350.6</ele>
        <time>2021-07-11T14:31:59Z</time>
      </trkpt>
      <trkpt lat="45.70536" lon="6.40548">
        <ele>351</ele>
        <time>2021-07-11T14:32:03Z</time>
      </trkpt>
      <trkpt lat="45.70516" lon="6.40554">
        <ele>351.2</ele>
        <time>2021-07-11T14:32:07Z</time>
      </trkpt>
      <trkpt lat="45.70497" lon="6.40558">
        <ele>351.4</ele>
        <time>2021-07-11T14:32:11Z</time>
      </trkpt>
      <trkpt lat="45.70479" lon="6.40562">
        <ele>351.8</ele>
        <time>2021-07-11T14:32:15Z</time>
      </trkpt>
      <trkpt lat="45.70462" lon="6.40565">
        <ele>352.6</ele>
        <time>2021-07-11T14:32:19Z</time>
      </trkpt>
      <trkpt lat="45.70446" lon="6.40567">
        <ele>352.8</ele>
        <time>2021-07-11T14:32:23Z</time>
      </trkpt>
      <trkpt lat="45.70429" lon="6.40569">
        <ele>353</ele>
        <time>2021-07-11T14:32:27Z</time>
      </trkpt>
      <trkpt lat="45.70412" lon="6.40569">
        <ele>353.2</ele>
        <time>2021-07-11T14:32:31Z</time>
      </trkpt>
      <trkpt lat="45.70397" lon="6.40569">
        <ele>353.6</ele>
        <time>2021-07-11T14:32:35Z</time>
      </trkpt>
      <trkpt lat="45.70382" lon="6.40569">
        <ele>354</ele>
        <time>2021-07-11T14:32:39Z</time>
      </trkpt>
      <trkpt lat="45.70368" lon="6.40572">
        <ele>354.8</ele>
        <time>2021-07-11T14:32:43Z</time>
      </trkpt>
      <trkpt lat="45.70358" lon="6.40587">
        <ele>354.2</ele>
        <time>2021-07-11T14:32:47Z</time>
      </trkpt>
      <trkpt lat="45.70355" lon="6.40612">
        <ele>354.6</ele>
        <time>2021-07-11T14:32:51Z</time>
      </trkpt>
      <trkpt lat="45.70354" lon="6.40637">
        <ele>356</ele>
        <time>2021-07-11T14:32:55Z</time>
      </trkpt>
      <trkpt lat="45.70353" lon="6.40664">
        <ele>357</ele>
        <time>2021-07-11T14:32:59Z</time>
      </trkpt>
      <trkpt lat="45.70352" lon="6.40695">
        <ele>353.2</ele>
        <time>2021-07-11T14:33:03Z</time>
      </trkpt>
      <trkpt lat="45.70348" lon="6.40726">
        <ele>352.4</ele>
        <time>2021-07-11T14:33:07Z</time>
      </trkpt>
      <trkpt lat="45.70329" lon="6.40745">
        <ele>352.4</ele>
        <time>2021-07-11T14:33:11Z</time>
      </trkpt>
      <trkpt lat="45.70305" lon="6.40745">
        <ele>351.2</ele>
        <time>2021-07-11T14:33:15Z</time>
      </trkpt>
      <trkpt lat="45.7028" lon="6.4074">
        <ele>351</ele>
        <time>2021-07-11T14:33:19Z</time>
      </trkpt>
      <trkpt lat="45.70255" lon="6.40741">
        <ele>350.6</ele>
        <time>2021-07-11T14:33:23Z</time>
      </trkpt>
      <trkpt lat="45.70228" lon="6.40743">
        <ele>350.4</ele>
        <time>2021-07-11T14:33:27Z</time>
      </trkpt>
      <trkpt lat="45.70203" lon="6.40744">
        <ele>348.6</ele>
        <time>2021-07-11T14:33:31Z</time>
      </trkpt>
      <trkpt lat="45.70177" lon="6.40743">
        <ele>348.4</ele>
        <time>2021-07-11T14:33:35Z</time>
      </trkpt>
      <trkpt lat="45.70152" lon="6.40738">
        <ele>348.2</ele>
        <time>2021-07-11T14:33:39Z</time>
      </trkpt>
      <trkpt lat="45.70127" lon="6.4073">
        <ele>348.2</ele>
        <time>2021-07-11T14:33:43Z</time>
      </trkpt>
      <trkpt lat="45.70103" lon="6.4072">
        <ele>347.4</ele>
        <time>2021-07-11T14:33:47Z</time>
      </trkpt>
      <trkpt lat="45.70079" lon="6.40707">
        <ele>347</ele>
        <time>2021-07-11T14:33:51Z</time>
      </trkpt>
      <trkpt lat="45.70056" lon="6.40691">
        <ele>347</ele>
        <time>2021-07-11T14:33:55Z</time>
      </trkpt>
      <trkpt lat="45.70026" lon="6.40672">
        <ele>346.2</ele>
        <time>2021-07-11T14:33:59Z</time>
      </trkpt>
      <trkpt lat="45.70002" lon="6.40653">
        <ele>345.6</ele>
        <time>2021-07-11T14:34:03Z</time>
      </trkpt>
      <trkpt lat="45.69979" lon="6.40635">
        <ele>344.8</ele>
        <time>2021-07-11T14:34:07Z</time>
      </trkpt>
      <trkpt lat="45.69956" lon="6.4062">
        <ele>344.2</ele>
        <time>2021-07-11T14:34:11Z</time>
      </trkpt>
      <trkpt lat="45.69934" lon="6.40606">
        <ele>344.4</ele>
        <time>2021-07-11T14:34:15Z</time>
      </trkpt>
      <trkpt lat="45.69911" lon="6.40595">
        <ele>343.6</ele>
        <time>2021-07-11T14:34:19Z</time>
      </trkpt>
      <trkpt lat="45.69888" lon="6.40585">
        <ele>343.8</ele>
        <time>2021-07-11T14:34:23Z</time>
      </trkpt>
      <trkpt lat="45.69868" lon="6.40574">
        <ele>343.8</ele>
        <time>2021-07-11T14:34:27Z</time>
      </trkpt>
      <trkpt lat="45.69847" lon="6.40564">
        <ele>343.4</ele>
        <time>2021-07-11T14:34:31Z</time>
      </trkpt>
      <trkpt lat="45.69828" lon="6.40555">
        <ele>344</ele>
        <time>2021-07-11T14:34:35Z</time>
      </trkpt>
      <trkpt lat="45.69806" lon="6.40544">
        <ele>343.6</ele>
        <time>2021-07-11T14:34:39Z</time>
      </trkpt>
      <trkpt lat="45.69786" lon="6.40535">
        <ele>342.8</ele>
        <time>2021-07-11T14:34:43Z</time>
      </trkpt>
      <trkpt lat="45.69762" lon="6.40525">
        <ele>343.2</ele>
        <time>2021-07-11T14:34:47Z</time>
      </trkpt>
      <trkpt lat="45.69739" lon="6.40515">
        <ele>342.6</ele>
        <time>2021-07-11T14:34:51Z</time>
      </trkpt>
      <trkpt lat="45.69718" lon="6.40506">
        <ele>343.2</ele>
        <time>2021-07-11T14:34:55Z</time>
      </trkpt>
      <trkpt lat="45.69697" lon="6.40496">
        <ele>342.6</ele>
        <time>2021-07-11T14:34:59Z</time>
      </trkpt>
      <trkpt lat="45.69677" lon="6.40487">
        <ele>341.6</ele>
        <time>2021-07-11T14:35:03Z</time>
      </trkpt>
      <trkpt lat="45.69655" lon="6.40478">
        <ele>341.8</ele>
        <time>2021-07-11T14:35:07Z</time>
      </trkpt>
      <trkpt lat="45.69634" lon="6.40468">
        <ele>341.4</ele>
        <time>2021-07-11T14:35:11Z</time>
      </trkpt>
      <trkpt lat="45.69613" lon="6.40458">
        <ele>341.4</ele>
        <time>2021-07-11T14:35:15Z</time>
      </trkpt>
      <trkpt lat="45.69594" lon="6.4045">
        <ele>342</ele>
        <time>2021-07-11T14:35:19Z</time>
      </trkpt>
      <trkpt lat="45.69574" lon="6.40442">
        <ele>342.4</ele>
        <time>2021-07-11T14:35:23Z</time>
      </trkpt>
      <trkpt lat="45.69554" lon="6.40434">
        <ele>343.2</ele>
        <time>2021-07-11T14:35:27Z</time>
      </trkpt>
      <trkpt lat="45.69535" lon="6.40426">
        <ele>343.2</ele>
        <time>2021-07-11T14:35:31Z</time>
      </trkpt>
      <trkpt lat="45.69516" lon="6.40415">
        <ele>343.4</ele>
        <time>2021-07-11T14:35:35Z</time>
      </trkpt>
      <trkpt lat="45.69498" lon="6.40401">
        <ele>343.6</ele>
        <time>2021-07-11T14:35:39Z</time>
      </trkpt>
      <trkpt lat="45.69482" lon="6.40384">
        <ele>343.4</ele>
        <time>2021-07-11T14:35:43Z</time>
      </trkpt>
      <trkpt lat="45.69465" lon="6.40363">
        <ele>343.8</ele>
        <time>2021-07-11T14:35:47Z</time>
      </trkpt>
      <trkpt lat="45.69447" lon="6.40343">
        <ele>343.4</ele>
        <time>2021-07-11T14:35:51Z</time>
      </trkpt>
      <trkpt lat="45.6943" lon="6.40328">
        <ele>343.4</ele>
        <time>2021-07-11T14:35:55Z</time>
      </trkpt>
      <trkpt lat="45.69415" lon="6.40314">
        <ele>343.6</ele>
        <time>2021-07-11T14:35:59Z</time>
      </trkpt>
      <trkpt lat="45.69396" lon="6.40305">
        <ele>343.2</ele>
        <time>2021-07-11T14:36:03Z</time>
      </trkpt>
      <trkpt lat="45.69366" lon="6.40305">
        <ele>343</ele>
        <time>2021-07-11T14:36:07Z</time>
      </trkpt>
      <trkpt lat="45.69344" lon="6.40309">
        <ele>342.6</ele>
        <time>2021-07-11T14:36:11Z</time>
      </trkpt>
      <trkpt lat="45.69321" lon="6.40304">
        <ele>342.6</ele>
        <time>2021-07-11T14:36:15Z</time>
      </trkpt>
      <trkpt lat="45.69305" lon="6.4029">
        <ele>342.2</ele>
        <time>2021-07-11T14:36:19Z</time>
      </trkpt>
      <trkpt lat="45.69298" lon="6.40269">
        <ele>341.8</ele>
        <time>2021-07-11T14:36:23Z</time>
      </trkpt>
      <trkpt lat="45.69283" lon="6.4026">
        <ele>342.2</ele>
        <time>2021-07-11T14:36:27Z</time>
      </trkpt>
      <trkpt lat="45.69263" lon="6.40251">
        <ele>342</ele>
        <time>2021-07-11T14:36:31Z</time>
      </trkpt>
      <trkpt lat="45.69244" lon="6.40243">
        <ele>341.8</ele>
        <time>2021-07-11T14:36:35Z</time>
      </trkpt>
      <trkpt lat="45.69223" lon="6.40235">
        <ele>342</ele>
        <time>2021-07-11T14:36:39Z</time>
      </trkpt>
      <trkpt lat="45.69203" lon="6.40225">
        <ele>341</ele>
        <time>2021-07-11T14:36:43Z</time>
      </trkpt>
      <trkpt lat="45.69182" lon="6.40216">
        <ele>340.8</ele>
        <time>2021-07-11T14:36:47Z</time>
      </trkpt>
      <trkpt lat="45.69162" lon="6.40207">
        <ele>340.8</ele>
        <time>2021-07-11T14:36:51Z</time>
      </trkpt>
      <trkpt lat="45.69139" lon="6.40197">
        <ele>340.6</ele>
        <time>2021-07-11T14:36:55Z</time>
      </trkpt>
      <trkpt lat="45.69118" lon="6.40188">
        <ele>340.4</ele>
        <time>2021-07-11T14:36:59Z</time>
      </trkpt>
      <trkpt lat="45.69097" lon="6.4018">
        <ele>340.8</ele>
        <time>2021-07-11T14:37:03Z</time>
      </trkpt>
      <trkpt lat="45.69077" lon="6.40171">
        <ele>341.2</ele>
        <time>2021-07-11T14:37:07Z</time>
      </trkpt>
      <trkpt lat="45.69056" lon="6.40162">
        <ele>341.2</ele>
        <time>2021-07-11T14:37:11Z</time>
      </trkpt>
      <trkpt lat="45.69036" lon="6.40153">
        <ele>340.8</ele>
        <time>2021-07-11T14:37:15Z</time>
      </trkpt>
      <trkpt lat="45.69016" lon="6.40144">
        <ele>340.8</ele>
        <time>2021-07-11T14:37:19Z</time>
      </trkpt>
      <trkpt lat="45.68993" lon="6.40137">
        <ele>340.8</ele>
        <time>2021-07-11T14:37:23Z</time>
      </trkpt>
      <trkpt lat="45.68971" lon="6.40131">
        <ele>340.6</ele>
        <time>2021-07-11T14:37:27Z</time>
      </trkpt>
      <trkpt lat="45.6895" lon="6.40126">
        <ele>340.8</ele>
        <time>2021-07-11T14:37:31Z</time>
      </trkpt>
      <trkpt lat="45.68928" lon="6.40118">
        <ele>340.4</ele>
        <time>2021-07-11T14:37:35Z</time>
      </trkpt>
      <trkpt lat="45.68907" lon="6.4011">
        <ele>341</ele>
        <time>2021-07-11T14:37:39Z</time>
      </trkpt>
      <trkpt lat="45.68888" lon="6.40101">
        <ele>340.8</ele>
        <time>2021-07-11T14:37:43Z</time>
      </trkpt>
      <trkpt lat="45.68866" lon="6.40092">
        <ele>341.4</ele>
        <time>2021-07-11T14:37:47Z</time>
      </trkpt>
      <trkpt lat="45.68845" lon="6.40083">
        <ele>340.4</ele>
        <time>2021-07-11T14:37:51Z</time>
      </trkpt>
      <trkpt lat="45.68825" lon="6.40075">
        <ele>340.6</ele>
        <time>2021-07-11T14:37:55Z</time>
      </trkpt>
      <trkpt lat="45.68808" lon="6.40065">
        <ele>340.8</ele>
        <time>2021-07-11T14:37:59Z</time>
      </trkpt>
      <trkpt lat="45.68791" lon="6.40042">
        <ele>339.8</ele>
        <time>2021-07-11T14:38:03Z</time>
      </trkpt>
      <trkpt lat="45.6877" lon="6.40018">
        <ele>338.6</ele>
        <time>2021-07-11T14:38:07Z</time>
      </trkpt>
      <trkpt lat="45.68745" lon="6.39996">
        <ele>337.4</ele>
        <time>2021-07-11T14:38:11Z</time>
      </trkpt>
      <trkpt lat="45.68717" lon="6.39974">
        <ele>336</ele>
        <time>2021-07-11T14:38:15Z</time>
      </trkpt>
      <trkpt lat="45.6869" lon="6.39953">
        <ele>334.6</ele>
        <time>2021-07-11T14:38:19Z</time>
      </trkpt>
      <trkpt lat="45.68664" lon="6.39934">
        <ele>334.2</ele>
        <time>2021-07-11T14:38:23Z</time>
      </trkpt>
      <trkpt lat="45.68637" lon="6.39919">
        <ele>334.2</ele>
        <time>2021-07-11T14:38:27Z</time>
      </trkpt>
      <trkpt lat="45.68616" lon="6.39905">
        <ele>334.2</ele>
        <time>2021-07-11T14:38:31Z</time>
      </trkpt>
      <trkpt lat="45.68591" lon="6.3989">
        <ele>334.2</ele>
        <time>2021-07-11T14:38:35Z</time>
      </trkpt>
      <trkpt lat="45.68566" lon="6.39875">
        <ele>333.8</ele>
        <time>2021-07-11T14:38:39Z</time>
      </trkpt>
      <trkpt lat="45.68544" lon="6.39861">
        <ele>333.2</ele>
        <time>2021-07-11T14:38:43Z</time>
      </trkpt>
      <trkpt lat="45.68521" lon="6.39847">
        <ele>334</ele>
        <time>2021-07-11T14:38:47Z</time>
      </trkpt>
      <trkpt lat="45.685" lon="6.39834">
        <ele>333.4</ele>
        <time>2021-07-11T14:38:51Z</time>
      </trkpt>
      <trkpt lat="45.68478" lon="6.3982">
        <ele>333.8</ele>
        <time>2021-07-11T14:38:55Z</time>
      </trkpt>
      <trkpt lat="45.68454" lon="6.39809">
        <ele>333.2</ele>
        <time>2021-07-11T14:38:59Z</time>
      </trkpt>
      <trkpt lat="45.68429" lon="6.39798">
        <ele>333.2</ele>
        <time>2021-07-11T14:39:03Z</time>
      </trkpt>
      <trkpt lat="45.6841" lon="6.39782">
        <ele>332.4</ele>
        <time>2021-07-11T14:39:07Z</time>
      </trkpt>
      <trkpt lat="45.6839" lon="6.39766">
        <ele>332.4</ele>
        <time>2021-07-11T14:39:11Z</time>
      </trkpt>
      <trkpt lat="45.68369" lon="6.39753">
        <ele>332.6</ele>
        <time>2021-07-11T14:39:15Z</time>
      </trkpt>
      <trkpt lat="45.68349" lon="6.39741">
        <ele>332.4</ele>
        <time>2021-07-11T14:39:19Z</time>
      </trkpt>
      <trkpt lat="45.68331" lon="6.3973">
        <ele>332.4</ele>
        <time>2021-07-11T14:39:23Z</time>
      </trkpt>
      <trkpt lat="45.68309" lon="6.39716">
        <ele>332</ele>
        <time>2021-07-11T14:39:27Z</time>
      </trkpt>
      <trkpt lat="45.68283" lon="6.39699">
        <ele>332.2</ele>
        <time>2021-07-11T14:39:31Z</time>
      </trkpt>
      <trkpt lat="45.6826" lon="6.39681">
        <ele>331.8</ele>
        <time>2021-07-11T14:39:35Z</time>
      </trkpt>
      <trkpt lat="45.6824" lon="6.39668">
        <ele>332.2</ele>
        <time>2021-07-11T14:39:39Z</time>
      </trkpt>
      <trkpt lat="45.68219" lon="6.39653">
        <ele>332.2</ele>
        <time>2021-07-11T14:39:43Z</time>
      </trkpt>
      <trkpt lat="45.68199" lon="6.39639">
        <ele>332.6</ele>
        <time>2021-07-11T14:39:47Z</time>
      </trkpt>
      <trkpt lat="45.68175" lon="6.39627">
        <ele>332.8</ele>
        <time>2021-07-11T14:39:51Z</time>
      </trkpt>
      <trkpt lat="45.68149" lon="6.39617">
        <ele>333.4</ele>
        <time>2021-07-11T14:39:55Z</time>
      </trkpt>
      <trkpt lat="45.68123" lon="6.39608">
        <ele>333</ele>
        <time>2021-07-11T14:39:59Z</time>
      </trkpt>
      <trkpt lat="45.68103" lon="6.39606">
        <ele>333.2</ele>
        <time>2021-07-11T14:40:03Z</time>
      </trkpt>
      <trkpt lat="45.68085" lon="6.39604">
        <ele>333.2</ele>
        <time>2021-07-11T14:40:07Z</time>
      </trkpt>
      <trkpt lat="45.68067" lon="6.39602">
        <ele>333.6</ele>
        <time>2021-07-11T14:40:11Z</time>
      </trkpt>
      <trkpt lat="45.68052" lon="6.39598">
        <ele>333</ele>
        <time>2021-07-11T14:40:15Z</time>
      </trkpt>
      <trkpt lat="45.68033" lon="6.39591">
        <ele>332.8</ele>
        <time>2021-07-11T14:40:19Z</time>
      </trkpt>
      <trkpt lat="45.68016" lon="6.39579">
        <ele>333.2</ele>
        <time>2021-07-11T14:40:23Z</time>
      </trkpt>
      <trkpt lat="45.67995" lon="6.39572">
        <ele>333</ele>
        <time>2021-07-11T14:40:27Z</time>
      </trkpt>
      <trkpt lat="45.67972" lon="6.39567">
        <ele>333.2</ele>
        <time>2021-07-11T14:40:31Z</time>
      </trkpt>
      <trkpt lat="45.67953" lon="6.39562">
        <ele>333.2</ele>
        <time>2021-07-11T14:40:35Z</time>
      </trkpt>
      <trkpt lat="45.67934" lon="6.39559">
        <ele>333.4</ele>
        <time>2021-07-11T14:40:39Z</time>
      </trkpt>
      <trkpt lat="45.67912" lon="6.39555">
        <ele>332.8</ele>
        <time>2021-07-11T14:40:43Z</time>
      </trkpt>
      <trkpt lat="45.6789" lon="6.39542">
        <ele>333</ele>
        <time>2021-07-11T14:40:47Z</time>
      </trkpt>
      <trkpt lat="45.6787" lon="6.39533">
        <ele>332.8</ele>
        <time>2021-07-11T14:40:51Z</time>
      </trkpt>
      <trkpt lat="45.67847" lon="6.39528">
        <ele>332.6</ele>
        <time>2021-07-11T14:40:55Z</time>
      </trkpt>
      <trkpt lat="45.67826" lon="6.39523">
        <ele>332.4</ele>
        <time>2021-07-11T14:40:59Z</time>
      </trkpt>
      <trkpt lat="45.67812" lon="6.3952">
        <ele>332.4</ele>
        <time>2021-07-11T14:41:03Z</time>
      </trkpt>
      <trkpt lat="45.67799" lon="6.39521">
        <ele>333.2</ele>
        <time>2021-07-11T14:41:07Z</time>
      </trkpt>
      <trkpt lat="45.67783" lon="6.39521">
        <ele>332.4</ele>
        <time>2021-07-11T14:41:11Z</time>
      </trkpt>
      <trkpt lat="45.67765" lon="6.39518">
        <ele>332.6</ele>
        <time>2021-07-11T14:41:15Z</time>
      </trkpt>
      <trkpt lat="45.67746" lon="6.39513">
        <ele>332.8</ele>
        <time>2021-07-11T14:41:19Z</time>
      </trkpt>
      <trkpt lat="45.67726" lon="6.39509">
        <ele>332</ele>
        <time>2021-07-11T14:41:23Z</time>
      </trkpt>
      <trkpt lat="45.67706" lon="6.39505">
        <ele>332.4</ele>
        <time>2021-07-11T14:41:27Z</time>
      </trkpt>
      <trkpt lat="45.6769" lon="6.39501">
        <ele>332.2</ele>
        <time>2021-07-11T14:41:31Z</time>
      </trkpt>
      <trkpt lat="45.67673" lon="6.39496">
        <ele>333</ele>
        <time>2021-07-11T14:41:35Z</time>
      </trkpt>
      <trkpt lat="45.67657" lon="6.39491">
        <ele>332.8</ele>
        <time>2021-07-11T14:41:39Z</time>
      </trkpt>
      <trkpt lat="45.67646" lon="6.39487">
        <ele>332.4</ele>
        <time>2021-07-11T14:41:43Z</time>
      </trkpt>
      <trkpt lat="45.67637" lon="6.39486">
        <ele>333.4</ele>
        <time>2021-07-11T14:41:47Z</time>
      </trkpt>
      <trkpt lat="45.67637" lon="6.39486">
        <ele>334</ele>
        <time>2021-07-11T14:41:51Z</time>
      </trkpt>
      <trkpt lat="45.6763" lon="6.39479">
        <ele>334.2</ele>
        <time>2021-07-11T14:42:03Z</time>
      </trkpt>
      <trkpt lat="45.67632" lon="6.39464">
        <ele>333.8</ele>
        <time>2021-07-11T14:42:07Z</time>
      </trkpt>
      <trkpt lat="45.67634" lon="6.39448">
        <ele>334.2</ele>
        <time>2021-07-11T14:42:11Z</time>
      </trkpt>
      <trkpt lat="45.67638" lon="6.3943">
        <ele>334.8</ele>
        <time>2021-07-11T14:42:15Z</time>
      </trkpt>
      <trkpt lat="45.67641" lon="6.39412">
        <ele>334</ele>
        <time>2021-07-11T14:42:19Z</time>
      </trkpt>
      <trkpt lat="45.67645" lon="6.39393">
        <ele>333.6</ele>
        <time>2021-07-11T14:42:23Z</time>
      </trkpt>
      <trkpt lat="45.67648" lon="6.39374">
        <ele>333.8</ele>
        <time>2021-07-11T14:42:27Z</time>
      </trkpt>
      <trkpt lat="45.67656" lon="6.39364">
        <ele>332.6</ele>
        <time>2021-07-11T14:42:31Z</time>
      </trkpt>
      <trkpt lat="45.67674" lon="6.39368">
        <ele>332.2</ele>
        <time>2021-07-11T14:42:35Z</time>
      </trkpt>
      <trkpt lat="45.67691" lon="6.39373">
        <ele>332</ele>
        <time>2021-07-11T14:42:39Z</time>
      </trkpt>
    </trkseg>
  </trk>
</gpx>